<?xml version="1.0" encoding="UTF-8" standalone="no" ?>
<gpx xmlns="http://www.topografix.com/GPX/1/1" xmlns:xsi="http://www.w3.org/2001/XMLSchema-instance" xsi:schemaLocation="http://www.topografix.com/GPX/1/1 http://www.topografix.com/GPX/1/1/gpx.xsd" version="1.1" creator="VisuGPX - https://www.visugpx.com">
  <metadata>
    <name>Médréac - Antrain</name>
    <desc><![CDATA[Parcours pas toujours bien fléché. Il y a des interactions avec des circuits locaux.

Attention ! le camping de Médréac est un petit camping municipal de passage. Il y a des sanitaires mais il faut demander la clé à la mairie.
]]></desc>
  </metadata>
  <trk>
    <name><![CDATA[Le voyage 16/07/2019]]></name>
    <trkseg>
      <trkpt lat="48.27012" lon="-2.05497">
        <ele>66.6</ele>
        <time>2019-07-16T05:58:22Z</time>
      </trkpt>
      <trkpt lat="48.27003" lon="-2.05483">
        <ele>64.8</ele>
        <time>2019-07-16T06:03:32Z</time>
      </trkpt>
      <trkpt lat="48.27004" lon="-2.05482">
        <ele>64.9</ele>
        <time>2019-07-16T06:03:33Z</time>
      </trkpt>
      <trkpt lat="48.27004" lon="-2.05481">
        <ele>65</ele>
        <time>2019-07-16T06:03:34Z</time>
      </trkpt>
      <trkpt lat="48.27004" lon="-2.0548">
        <ele>65.1</ele>
        <time>2019-07-16T06:03:35Z</time>
      </trkpt>
      <trkpt lat="48.27004" lon="-2.0548">
        <ele>65.1</ele>
        <time>2019-07-16T06:03:36Z</time>
      </trkpt>
      <trkpt lat="48.27004" lon="-2.0548">
        <ele>65.1</ele>
        <time>2019-07-16T06:03:37Z</time>
      </trkpt>
      <trkpt lat="48.27004" lon="-2.0548">
        <ele>65.2</ele>
        <time>2019-07-16T06:03:38Z</time>
      </trkpt>
      <trkpt lat="48.27004" lon="-2.0548">
        <ele>65.2</ele>
        <time>2019-07-16T06:03:39Z</time>
      </trkpt>
      <trkpt lat="48.27004" lon="-2.0548">
        <ele>65.2</ele>
        <time>2019-07-16T06:03:40Z</time>
      </trkpt>
      <trkpt lat="48.27004" lon="-2.0548">
        <ele>65.1</ele>
        <time>2019-07-16T06:03:41Z</time>
      </trkpt>
      <trkpt lat="48.27002" lon="-2.05483">
        <ele>65</ele>
        <time>2019-07-16T06:03:47Z</time>
      </trkpt>
      <trkpt lat="48.27001" lon="-2.05484">
        <ele>64.9</ele>
        <time>2019-07-16T06:03:48Z</time>
      </trkpt>
      <trkpt lat="48.27001" lon="-2.05485">
        <ele>64.9</ele>
        <time>2019-07-16T06:03:49Z</time>
      </trkpt>
      <trkpt lat="48.27001" lon="-2.05485">
        <ele>64.9</ele>
        <time>2019-07-16T06:03:50Z</time>
      </trkpt>
      <trkpt lat="48.27001" lon="-2.05485">
        <ele>65</ele>
        <time>2019-07-16T06:03:51Z</time>
      </trkpt>
      <trkpt lat="48.27001" lon="-2.05485">
        <ele>65.1</ele>
        <time>2019-07-16T06:03:52Z</time>
      </trkpt>
      <trkpt lat="48.27001" lon="-2.05485">
        <ele>65.2</ele>
        <time>2019-07-16T06:03:53Z</time>
      </trkpt>
      <trkpt lat="48.27001" lon="-2.05485">
        <ele>65.2</ele>
        <time>2019-07-16T06:03:54Z</time>
      </trkpt>
      <trkpt lat="48.27001" lon="-2.05485">
        <ele>65.2</ele>
        <time>2019-07-16T06:03:55Z</time>
      </trkpt>
      <trkpt lat="48.27" lon="-2.05491">
        <ele>65.1</ele>
        <time>2019-07-16T06:04:44Z</time>
      </trkpt>
      <trkpt lat="48.27" lon="-2.05493">
        <ele>65</ele>
        <time>2019-07-16T06:04:45Z</time>
      </trkpt>
      <trkpt lat="48.27" lon="-2.05495">
        <ele>65</ele>
        <time>2019-07-16T06:04:46Z</time>
      </trkpt>
      <trkpt lat="48.26999" lon="-2.05496">
        <ele>65.1</ele>
        <time>2019-07-16T06:04:47Z</time>
      </trkpt>
      <trkpt lat="48.26999" lon="-2.05498">
        <ele>65.1</ele>
        <time>2019-07-16T06:04:48Z</time>
      </trkpt>
      <trkpt lat="48.26999" lon="-2.05499">
        <ele>65.1</ele>
        <time>2019-07-16T06:04:49Z</time>
      </trkpt>
      <trkpt lat="48.26999" lon="-2.05501">
        <ele>65.1</ele>
        <time>2019-07-16T06:04:50Z</time>
      </trkpt>
      <trkpt lat="48.26999" lon="-2.05503">
        <ele>65.2</ele>
        <time>2019-07-16T06:04:51Z</time>
      </trkpt>
      <trkpt lat="48.26999" lon="-2.05504">
        <ele>65.2</ele>
        <time>2019-07-16T06:04:52Z</time>
      </trkpt>
      <trkpt lat="48.26999" lon="-2.05504">
        <ele>65.5</ele>
        <time>2019-07-16T06:04:53Z</time>
      </trkpt>
      <trkpt lat="48.26999" lon="-2.05504">
        <ele>65.9</ele>
        <time>2019-07-16T06:04:54Z</time>
      </trkpt>
      <trkpt lat="48.26999" lon="-2.05504">
        <ele>66.2</ele>
        <time>2019-07-16T06:04:55Z</time>
      </trkpt>
      <trkpt lat="48.27" lon="-2.05504">
        <ele>66.5</ele>
        <time>2019-07-16T06:04:56Z</time>
      </trkpt>
      <trkpt lat="48.27" lon="-2.05505">
        <ele>66.6</ele>
        <time>2019-07-16T06:04:57Z</time>
      </trkpt>
      <trkpt lat="48.27" lon="-2.05505">
        <ele>66.8</ele>
        <time>2019-07-16T06:04:58Z</time>
      </trkpt>
      <trkpt lat="48.27" lon="-2.05505">
        <ele>67</ele>
        <time>2019-07-16T06:04:59Z</time>
      </trkpt>
      <trkpt lat="48.27" lon="-2.05506">
        <ele>67.1</ele>
        <time>2019-07-16T06:05:00Z</time>
      </trkpt>
      <trkpt lat="48.27" lon="-2.05507">
        <ele>67.2</ele>
        <time>2019-07-16T06:05:01Z</time>
      </trkpt>
      <trkpt lat="48.27" lon="-2.05509">
        <ele>67.4</ele>
        <time>2019-07-16T06:05:02Z</time>
      </trkpt>
      <trkpt lat="48.26999" lon="-2.05511">
        <ele>67.3</ele>
        <time>2019-07-16T06:05:03Z</time>
      </trkpt>
      <trkpt lat="48.26998" lon="-2.05513">
        <ele>67.1</ele>
        <time>2019-07-16T06:05:04Z</time>
      </trkpt>
      <trkpt lat="48.26998" lon="-2.05514">
        <ele>66.9</ele>
        <time>2019-07-16T06:05:05Z</time>
      </trkpt>
      <trkpt lat="48.26998" lon="-2.05516">
        <ele>66.8</ele>
        <time>2019-07-16T06:05:06Z</time>
      </trkpt>
      <trkpt lat="48.26998" lon="-2.05518">
        <ele>66.6</ele>
        <time>2019-07-16T06:05:07Z</time>
      </trkpt>
      <trkpt lat="48.26999" lon="-2.0552">
        <ele>66.5</ele>
        <time>2019-07-16T06:05:08Z</time>
      </trkpt>
      <trkpt lat="48.26999" lon="-2.05521">
        <ele>66.2</ele>
        <time>2019-07-16T06:05:09Z</time>
      </trkpt>
      <trkpt lat="48.27" lon="-2.05523">
        <ele>65.9</ele>
        <time>2019-07-16T06:05:10Z</time>
      </trkpt>
      <trkpt lat="48.27" lon="-2.05524">
        <ele>65.5</ele>
        <time>2019-07-16T06:05:11Z</time>
      </trkpt>
      <trkpt lat="48.27" lon="-2.05525">
        <ele>65</ele>
        <time>2019-07-16T06:05:12Z</time>
      </trkpt>
      <trkpt lat="48.27" lon="-2.05525">
        <ele>64.6</ele>
        <time>2019-07-16T06:05:13Z</time>
      </trkpt>
      <trkpt lat="48.26999" lon="-2.05526">
        <ele>64.5</ele>
        <time>2019-07-16T06:05:14Z</time>
      </trkpt>
      <trkpt lat="48.26999" lon="-2.05526">
        <ele>64.4</ele>
        <time>2019-07-16T06:05:15Z</time>
      </trkpt>
      <trkpt lat="48.26999" lon="-2.05526">
        <ele>64.3</ele>
        <time>2019-07-16T06:05:16Z</time>
      </trkpt>
      <trkpt lat="48.26999" lon="-2.05526">
        <ele>64.3</ele>
        <time>2019-07-16T06:05:17Z</time>
      </trkpt>
      <trkpt lat="48.27001" lon="-2.05529">
        <ele>64.3</ele>
        <time>2019-07-16T06:05:40Z</time>
      </trkpt>
      <trkpt lat="48.27" lon="-2.05531">
        <ele>64.2</ele>
        <time>2019-07-16T06:05:41Z</time>
      </trkpt>
      <trkpt lat="48.26999" lon="-2.05534">
        <ele>64.2</ele>
        <time>2019-07-16T06:05:42Z</time>
      </trkpt>
      <trkpt lat="48.26997" lon="-2.05537">
        <ele>64</ele>
        <time>2019-07-16T06:05:43Z</time>
      </trkpt>
      <trkpt lat="48.26996" lon="-2.0554">
        <ele>63.8</ele>
        <time>2019-07-16T06:05:44Z</time>
      </trkpt>
      <trkpt lat="48.26994" lon="-2.05543">
        <ele>63.8</ele>
        <time>2019-07-16T06:05:45Z</time>
      </trkpt>
      <trkpt lat="48.26992" lon="-2.05547">
        <ele>63.7</ele>
        <time>2019-07-16T06:05:46Z</time>
      </trkpt>
      <trkpt lat="48.26991" lon="-2.0555">
        <ele>63.9</ele>
        <time>2019-07-16T06:05:47Z</time>
      </trkpt>
      <trkpt lat="48.26989" lon="-2.05554">
        <ele>64</ele>
        <time>2019-07-16T06:05:48Z</time>
      </trkpt>
      <trkpt lat="48.26987" lon="-2.05558">
        <ele>63.8</ele>
        <time>2019-07-16T06:05:49Z</time>
      </trkpt>
      <trkpt lat="48.26986" lon="-2.05562">
        <ele>63.9</ele>
        <time>2019-07-16T06:05:50Z</time>
      </trkpt>
      <trkpt lat="48.26985" lon="-2.05565">
        <ele>64</ele>
        <time>2019-07-16T06:05:51Z</time>
      </trkpt>
      <trkpt lat="48.26984" lon="-2.05569">
        <ele>64.2</ele>
        <time>2019-07-16T06:05:52Z</time>
      </trkpt>
      <trkpt lat="48.26983" lon="-2.05573">
        <ele>64.6</ele>
        <time>2019-07-16T06:05:53Z</time>
      </trkpt>
      <trkpt lat="48.26981" lon="-2.05575">
        <ele>65.6</ele>
        <time>2019-07-16T06:05:54Z</time>
      </trkpt>
      <trkpt lat="48.2698" lon="-2.05577">
        <ele>66.3</ele>
        <time>2019-07-16T06:05:55Z</time>
      </trkpt>
      <trkpt lat="48.26979" lon="-2.0558">
        <ele>66.8</ele>
        <time>2019-07-16T06:05:56Z</time>
      </trkpt>
      <trkpt lat="48.26977" lon="-2.05583">
        <ele>66.7</ele>
        <time>2019-07-16T06:05:57Z</time>
      </trkpt>
      <trkpt lat="48.26976" lon="-2.05586">
        <ele>67.3</ele>
        <time>2019-07-16T06:05:58Z</time>
      </trkpt>
      <trkpt lat="48.26975" lon="-2.05588">
        <ele>68</ele>
        <time>2019-07-16T06:05:59Z</time>
      </trkpt>
      <trkpt lat="48.26973" lon="-2.05591">
        <ele>69.4</ele>
        <time>2019-07-16T06:06:00Z</time>
      </trkpt>
      <trkpt lat="48.26973" lon="-2.05593">
        <ele>69.6</ele>
        <time>2019-07-16T06:06:01Z</time>
      </trkpt>
      <trkpt lat="48.26971" lon="-2.05596">
        <ele>69.7</ele>
        <time>2019-07-16T06:06:02Z</time>
      </trkpt>
      <trkpt lat="48.2697" lon="-2.05599">
        <ele>69.5</ele>
        <time>2019-07-16T06:06:03Z</time>
      </trkpt>
      <trkpt lat="48.26969" lon="-2.05602">
        <ele>69.4</ele>
        <time>2019-07-16T06:06:04Z</time>
      </trkpt>
      <trkpt lat="48.26968" lon="-2.05605">
        <ele>68.7</ele>
        <time>2019-07-16T06:06:05Z</time>
      </trkpt>
      <trkpt lat="48.26967" lon="-2.05608">
        <ele>67.9</ele>
        <time>2019-07-16T06:06:06Z</time>
      </trkpt>
      <trkpt lat="48.26967" lon="-2.05611">
        <ele>66.5</ele>
        <time>2019-07-16T06:06:07Z</time>
      </trkpt>
      <trkpt lat="48.26966" lon="-2.05614">
        <ele>66.2</ele>
        <time>2019-07-16T06:06:08Z</time>
      </trkpt>
      <trkpt lat="48.26965" lon="-2.05617">
        <ele>66.1</ele>
        <time>2019-07-16T06:06:09Z</time>
      </trkpt>
      <trkpt lat="48.26964" lon="-2.0562">
        <ele>65.7</ele>
        <time>2019-07-16T06:06:10Z</time>
      </trkpt>
      <trkpt lat="48.26963" lon="-2.05623">
        <ele>65</ele>
        <time>2019-07-16T06:06:11Z</time>
      </trkpt>
      <trkpt lat="48.26962" lon="-2.05626">
        <ele>64.6</ele>
        <time>2019-07-16T06:06:12Z</time>
      </trkpt>
      <trkpt lat="48.26961" lon="-2.05629">
        <ele>64.5</ele>
        <time>2019-07-16T06:06:13Z</time>
      </trkpt>
      <trkpt lat="48.2696" lon="-2.05632">
        <ele>64.5</ele>
        <time>2019-07-16T06:06:14Z</time>
      </trkpt>
      <trkpt lat="48.26959" lon="-2.05636">
        <ele>64.3</ele>
        <time>2019-07-16T06:06:15Z</time>
      </trkpt>
      <trkpt lat="48.26958" lon="-2.05639">
        <ele>64.6</ele>
        <time>2019-07-16T06:06:16Z</time>
      </trkpt>
      <trkpt lat="48.26957" lon="-2.05641">
        <ele>65.6</ele>
        <time>2019-07-16T06:06:17Z</time>
      </trkpt>
      <trkpt lat="48.26956" lon="-2.05644">
        <ele>66.4</ele>
        <time>2019-07-16T06:06:18Z</time>
      </trkpt>
      <trkpt lat="48.26955" lon="-2.05646">
        <ele>67.1</ele>
        <time>2019-07-16T06:06:19Z</time>
      </trkpt>
      <trkpt lat="48.26954" lon="-2.05649">
        <ele>67.4</ele>
        <time>2019-07-16T06:06:20Z</time>
      </trkpt>
      <trkpt lat="48.26953" lon="-2.05652">
        <ele>67.3</ele>
        <time>2019-07-16T06:06:21Z</time>
      </trkpt>
      <trkpt lat="48.26952" lon="-2.05655">
        <ele>66.9</ele>
        <time>2019-07-16T06:06:22Z</time>
      </trkpt>
      <trkpt lat="48.26952" lon="-2.05657">
        <ele>66.7</ele>
        <time>2019-07-16T06:06:23Z</time>
      </trkpt>
      <trkpt lat="48.26951" lon="-2.05659">
        <ele>66.4</ele>
        <time>2019-07-16T06:06:24Z</time>
      </trkpt>
      <trkpt lat="48.26951" lon="-2.05662">
        <ele>66.1</ele>
        <time>2019-07-16T06:06:25Z</time>
      </trkpt>
      <trkpt lat="48.2695" lon="-2.05664">
        <ele>65.6</ele>
        <time>2019-07-16T06:06:26Z</time>
      </trkpt>
      <trkpt lat="48.26949" lon="-2.05667">
        <ele>65.5</ele>
        <time>2019-07-16T06:06:27Z</time>
      </trkpt>
      <trkpt lat="48.26948" lon="-2.0567">
        <ele>65.3</ele>
        <time>2019-07-16T06:06:28Z</time>
      </trkpt>
      <trkpt lat="48.26947" lon="-2.05672">
        <ele>65.4</ele>
        <time>2019-07-16T06:06:29Z</time>
      </trkpt>
      <trkpt lat="48.26946" lon="-2.05675">
        <ele>65.5</ele>
        <time>2019-07-16T06:06:30Z</time>
      </trkpt>
      <trkpt lat="48.26945" lon="-2.05677">
        <ele>66.1</ele>
        <time>2019-07-16T06:06:31Z</time>
      </trkpt>
      <trkpt lat="48.26944" lon="-2.0568">
        <ele>66.4</ele>
        <time>2019-07-16T06:06:32Z</time>
      </trkpt>
      <trkpt lat="48.26943" lon="-2.05682">
        <ele>66.4</ele>
        <time>2019-07-16T06:06:33Z</time>
      </trkpt>
      <trkpt lat="48.26942" lon="-2.05685">
        <ele>66.2</ele>
        <time>2019-07-16T06:06:34Z</time>
      </trkpt>
      <trkpt lat="48.26941" lon="-2.05688">
        <ele>66.4</ele>
        <time>2019-07-16T06:06:35Z</time>
      </trkpt>
      <trkpt lat="48.26941" lon="-2.05691">
        <ele>66.7</ele>
        <time>2019-07-16T06:06:36Z</time>
      </trkpt>
      <trkpt lat="48.26939" lon="-2.05694">
        <ele>67</ele>
        <time>2019-07-16T06:06:37Z</time>
      </trkpt>
      <trkpt lat="48.26939" lon="-2.05697">
        <ele>67.4</ele>
        <time>2019-07-16T06:06:38Z</time>
      </trkpt>
      <trkpt lat="48.26938" lon="-2.057">
        <ele>67.4</ele>
        <time>2019-07-16T06:06:39Z</time>
      </trkpt>
      <trkpt lat="48.26936" lon="-2.05702">
        <ele>66.9</ele>
        <time>2019-07-16T06:06:40Z</time>
      </trkpt>
      <trkpt lat="48.26935" lon="-2.05705">
        <ele>66.8</ele>
        <time>2019-07-16T06:06:41Z</time>
      </trkpt>
      <trkpt lat="48.26934" lon="-2.05708">
        <ele>67.2</ele>
        <time>2019-07-16T06:06:42Z</time>
      </trkpt>
      <trkpt lat="48.26933" lon="-2.05711">
        <ele>67.4</ele>
        <time>2019-07-16T06:06:43Z</time>
      </trkpt>
      <trkpt lat="48.26932" lon="-2.05714">
        <ele>67.7</ele>
        <time>2019-07-16T06:06:44Z</time>
      </trkpt>
      <trkpt lat="48.26931" lon="-2.05716">
        <ele>68.1</ele>
        <time>2019-07-16T06:06:45Z</time>
      </trkpt>
      <trkpt lat="48.2693" lon="-2.05719">
        <ele>68.3</ele>
        <time>2019-07-16T06:06:46Z</time>
      </trkpt>
      <trkpt lat="48.26929" lon="-2.05722">
        <ele>68.6</ele>
        <time>2019-07-16T06:06:47Z</time>
      </trkpt>
      <trkpt lat="48.26928" lon="-2.05725">
        <ele>68.7</ele>
        <time>2019-07-16T06:06:48Z</time>
      </trkpt>
      <trkpt lat="48.26927" lon="-2.05728">
        <ele>68.8</ele>
        <time>2019-07-16T06:06:49Z</time>
      </trkpt>
      <trkpt lat="48.26926" lon="-2.05731">
        <ele>68.9</ele>
        <time>2019-07-16T06:06:50Z</time>
      </trkpt>
      <trkpt lat="48.26926" lon="-2.05733">
        <ele>69.1</ele>
        <time>2019-07-16T06:06:51Z</time>
      </trkpt>
      <trkpt lat="48.26925" lon="-2.05736">
        <ele>69.1</ele>
        <time>2019-07-16T06:06:52Z</time>
      </trkpt>
      <trkpt lat="48.26923" lon="-2.05739">
        <ele>68.9</ele>
        <time>2019-07-16T06:06:53Z</time>
      </trkpt>
      <trkpt lat="48.26922" lon="-2.05742">
        <ele>68.9</ele>
        <time>2019-07-16T06:06:54Z</time>
      </trkpt>
      <trkpt lat="48.26921" lon="-2.05745">
        <ele>68.8</ele>
        <time>2019-07-16T06:06:55Z</time>
      </trkpt>
      <trkpt lat="48.2692" lon="-2.05748">
        <ele>68.7</ele>
        <time>2019-07-16T06:06:56Z</time>
      </trkpt>
      <trkpt lat="48.26919" lon="-2.05751">
        <ele>69</ele>
        <time>2019-07-16T06:06:57Z</time>
      </trkpt>
      <trkpt lat="48.26918" lon="-2.05753">
        <ele>69.3</ele>
        <time>2019-07-16T06:06:58Z</time>
      </trkpt>
      <trkpt lat="48.26916" lon="-2.05756">
        <ele>69.5</ele>
        <time>2019-07-16T06:06:59Z</time>
      </trkpt>
      <trkpt lat="48.26915" lon="-2.05759">
        <ele>69.5</ele>
        <time>2019-07-16T06:07:00Z</time>
      </trkpt>
      <trkpt lat="48.26914" lon="-2.05762">
        <ele>69.6</ele>
        <time>2019-07-16T06:07:01Z</time>
      </trkpt>
      <trkpt lat="48.26913" lon="-2.05764">
        <ele>69.8</ele>
        <time>2019-07-16T06:07:02Z</time>
      </trkpt>
      <trkpt lat="48.26912" lon="-2.05767">
        <ele>69.7</ele>
        <time>2019-07-16T06:07:03Z</time>
      </trkpt>
      <trkpt lat="48.26911" lon="-2.0577">
        <ele>69.7</ele>
        <time>2019-07-16T06:07:04Z</time>
      </trkpt>
      <trkpt lat="48.2691" lon="-2.05773">
        <ele>69.6</ele>
        <time>2019-07-16T06:07:05Z</time>
      </trkpt>
      <trkpt lat="48.26909" lon="-2.05776">
        <ele>69.7</ele>
        <time>2019-07-16T06:07:06Z</time>
      </trkpt>
      <trkpt lat="48.26908" lon="-2.05779">
        <ele>69.6</ele>
        <time>2019-07-16T06:07:07Z</time>
      </trkpt>
      <trkpt lat="48.26907" lon="-2.05782">
        <ele>69.8</ele>
        <time>2019-07-16T06:07:08Z</time>
      </trkpt>
      <trkpt lat="48.26906" lon="-2.05784">
        <ele>70.1</ele>
        <time>2019-07-16T06:07:09Z</time>
      </trkpt>
      <trkpt lat="48.26905" lon="-2.05787">
        <ele>70.5</ele>
        <time>2019-07-16T06:07:10Z</time>
      </trkpt>
      <trkpt lat="48.26904" lon="-2.0579">
        <ele>70.9</ele>
        <time>2019-07-16T06:07:11Z</time>
      </trkpt>
      <trkpt lat="48.26904" lon="-2.05794">
        <ele>71.2</ele>
        <time>2019-07-16T06:07:12Z</time>
      </trkpt>
      <trkpt lat="48.26902" lon="-2.05797">
        <ele>71.5</ele>
        <time>2019-07-16T06:07:13Z</time>
      </trkpt>
      <trkpt lat="48.26902" lon="-2.058">
        <ele>71.6</ele>
        <time>2019-07-16T06:07:14Z</time>
      </trkpt>
      <trkpt lat="48.26901" lon="-2.05803">
        <ele>71.8</ele>
        <time>2019-07-16T06:07:15Z</time>
      </trkpt>
      <trkpt lat="48.269" lon="-2.05806">
        <ele>72.2</ele>
        <time>2019-07-16T06:07:16Z</time>
      </trkpt>
      <trkpt lat="48.26899" lon="-2.05809">
        <ele>72.7</ele>
        <time>2019-07-16T06:07:17Z</time>
      </trkpt>
      <trkpt lat="48.26897" lon="-2.05813">
        <ele>73.2</ele>
        <time>2019-07-16T06:07:18Z</time>
      </trkpt>
      <trkpt lat="48.26897" lon="-2.05816">
        <ele>73.5</ele>
        <time>2019-07-16T06:07:19Z</time>
      </trkpt>
      <trkpt lat="48.26897" lon="-2.05819">
        <ele>73.6</ele>
        <time>2019-07-16T06:07:20Z</time>
      </trkpt>
      <trkpt lat="48.26896" lon="-2.05822">
        <ele>73.7</ele>
        <time>2019-07-16T06:07:21Z</time>
      </trkpt>
      <trkpt lat="48.26896" lon="-2.05825">
        <ele>74</ele>
        <time>2019-07-16T06:07:22Z</time>
      </trkpt>
      <trkpt lat="48.26894" lon="-2.05828">
        <ele>74.5</ele>
        <time>2019-07-16T06:07:23Z</time>
      </trkpt>
      <trkpt lat="48.26893" lon="-2.05831">
        <ele>75.1</ele>
        <time>2019-07-16T06:07:24Z</time>
      </trkpt>
      <trkpt lat="48.26893" lon="-2.05833">
        <ele>75.2</ele>
        <time>2019-07-16T06:07:25Z</time>
      </trkpt>
      <trkpt lat="48.26891" lon="-2.05836">
        <ele>75.4</ele>
        <time>2019-07-16T06:07:26Z</time>
      </trkpt>
      <trkpt lat="48.2689" lon="-2.05838">
        <ele>75.6</ele>
        <time>2019-07-16T06:07:27Z</time>
      </trkpt>
      <trkpt lat="48.26889" lon="-2.05841">
        <ele>75.8</ele>
        <time>2019-07-16T06:07:28Z</time>
      </trkpt>
      <trkpt lat="48.26888" lon="-2.05844">
        <ele>76.2</ele>
        <time>2019-07-16T06:07:29Z</time>
      </trkpt>
      <trkpt lat="48.26887" lon="-2.05848">
        <ele>76.4</ele>
        <time>2019-07-16T06:07:30Z</time>
      </trkpt>
      <trkpt lat="48.26886" lon="-2.05851">
        <ele>76.5</ele>
        <time>2019-07-16T06:07:31Z</time>
      </trkpt>
      <trkpt lat="48.26885" lon="-2.05854">
        <ele>76.8</ele>
        <time>2019-07-16T06:07:32Z</time>
      </trkpt>
      <trkpt lat="48.26885" lon="-2.05857">
        <ele>77.4</ele>
        <time>2019-07-16T06:07:33Z</time>
      </trkpt>
      <trkpt lat="48.26883" lon="-2.0586">
        <ele>77.7</ele>
        <time>2019-07-16T06:07:34Z</time>
      </trkpt>
      <trkpt lat="48.26882" lon="-2.05864">
        <ele>77.8</ele>
        <time>2019-07-16T06:07:35Z</time>
      </trkpt>
      <trkpt lat="48.26881" lon="-2.05867">
        <ele>78.3</ele>
        <time>2019-07-16T06:07:36Z</time>
      </trkpt>
      <trkpt lat="48.2688" lon="-2.0587">
        <ele>78.7</ele>
        <time>2019-07-16T06:07:37Z</time>
      </trkpt>
      <trkpt lat="48.26879" lon="-2.05873">
        <ele>79.1</ele>
        <time>2019-07-16T06:07:38Z</time>
      </trkpt>
      <trkpt lat="48.26878" lon="-2.05876">
        <ele>79.4</ele>
        <time>2019-07-16T06:07:39Z</time>
      </trkpt>
      <trkpt lat="48.26877" lon="-2.05879">
        <ele>79.4</ele>
        <time>2019-07-16T06:07:40Z</time>
      </trkpt>
      <trkpt lat="48.26876" lon="-2.05882">
        <ele>79</ele>
        <time>2019-07-16T06:07:41Z</time>
      </trkpt>
      <trkpt lat="48.26876" lon="-2.05886">
        <ele>79.5</ele>
        <time>2019-07-16T06:07:42Z</time>
      </trkpt>
      <trkpt lat="48.26876" lon="-2.05889">
        <ele>79.6</ele>
        <time>2019-07-16T06:07:43Z</time>
      </trkpt>
      <trkpt lat="48.26876" lon="-2.05893">
        <ele>79.4</ele>
        <time>2019-07-16T06:07:44Z</time>
      </trkpt>
      <trkpt lat="48.26875" lon="-2.05897">
        <ele>79.2</ele>
        <time>2019-07-16T06:07:45Z</time>
      </trkpt>
      <trkpt lat="48.26875" lon="-2.05901">
        <ele>79.1</ele>
        <time>2019-07-16T06:07:46Z</time>
      </trkpt>
      <trkpt lat="48.26874" lon="-2.05904">
        <ele>78.9</ele>
        <time>2019-07-16T06:07:47Z</time>
      </trkpt>
      <trkpt lat="48.26873" lon="-2.05908">
        <ele>78.9</ele>
        <time>2019-07-16T06:07:48Z</time>
      </trkpt>
      <trkpt lat="48.26873" lon="-2.05911">
        <ele>78.8</ele>
        <time>2019-07-16T06:07:49Z</time>
      </trkpt>
      <trkpt lat="48.26872" lon="-2.05915">
        <ele>79</ele>
        <time>2019-07-16T06:07:50Z</time>
      </trkpt>
      <trkpt lat="48.2687" lon="-2.05918">
        <ele>79.2</ele>
        <time>2019-07-16T06:07:51Z</time>
      </trkpt>
      <trkpt lat="48.26869" lon="-2.05921">
        <ele>79.3</ele>
        <time>2019-07-16T06:07:52Z</time>
      </trkpt>
      <trkpt lat="48.26868" lon="-2.05924">
        <ele>79.1</ele>
        <time>2019-07-16T06:07:53Z</time>
      </trkpt>
      <trkpt lat="48.26866" lon="-2.05928">
        <ele>79.1</ele>
        <time>2019-07-16T06:07:54Z</time>
      </trkpt>
      <trkpt lat="48.26865" lon="-2.05931">
        <ele>79.3</ele>
        <time>2019-07-16T06:07:55Z</time>
      </trkpt>
      <trkpt lat="48.26864" lon="-2.05934">
        <ele>79.7</ele>
        <time>2019-07-16T06:07:56Z</time>
      </trkpt>
      <trkpt lat="48.26862" lon="-2.05937">
        <ele>80.1</ele>
        <time>2019-07-16T06:07:57Z</time>
      </trkpt>
      <trkpt lat="48.26861" lon="-2.05941">
        <ele>80.5</ele>
        <time>2019-07-16T06:07:58Z</time>
      </trkpt>
      <trkpt lat="48.2686" lon="-2.05944">
        <ele>80.5</ele>
        <time>2019-07-16T06:07:59Z</time>
      </trkpt>
      <trkpt lat="48.26859" lon="-2.05947">
        <ele>80.8</ele>
        <time>2019-07-16T06:08:00Z</time>
      </trkpt>
      <trkpt lat="48.26857" lon="-2.05949">
        <ele>81.1</ele>
        <time>2019-07-16T06:08:01Z</time>
      </trkpt>
      <trkpt lat="48.26856" lon="-2.05952">
        <ele>81.4</ele>
        <time>2019-07-16T06:08:02Z</time>
      </trkpt>
      <trkpt lat="48.26854" lon="-2.05955">
        <ele>81.4</ele>
        <time>2019-07-16T06:08:03Z</time>
      </trkpt>
      <trkpt lat="48.26853" lon="-2.05958">
        <ele>80.8</ele>
        <time>2019-07-16T06:08:04Z</time>
      </trkpt>
      <trkpt lat="48.26852" lon="-2.05961">
        <ele>80.3</ele>
        <time>2019-07-16T06:08:05Z</time>
      </trkpt>
      <trkpt lat="48.26852" lon="-2.05964">
        <ele>80.6</ele>
        <time>2019-07-16T06:08:06Z</time>
      </trkpt>
      <trkpt lat="48.26851" lon="-2.05967">
        <ele>80.8</ele>
        <time>2019-07-16T06:08:07Z</time>
      </trkpt>
      <trkpt lat="48.2685" lon="-2.0597">
        <ele>81.1</ele>
        <time>2019-07-16T06:08:08Z</time>
      </trkpt>
      <trkpt lat="48.26849" lon="-2.05973">
        <ele>80.9</ele>
        <time>2019-07-16T06:08:09Z</time>
      </trkpt>
      <trkpt lat="48.26848" lon="-2.05976">
        <ele>80.4</ele>
        <time>2019-07-16T06:08:10Z</time>
      </trkpt>
      <trkpt lat="48.26848" lon="-2.0598">
        <ele>79.8</ele>
        <time>2019-07-16T06:08:11Z</time>
      </trkpt>
      <trkpt lat="48.26846" lon="-2.05983">
        <ele>79.6</ele>
        <time>2019-07-16T06:08:12Z</time>
      </trkpt>
      <trkpt lat="48.26845" lon="-2.05986">
        <ele>79.6</ele>
        <time>2019-07-16T06:08:13Z</time>
      </trkpt>
      <trkpt lat="48.26844" lon="-2.05988">
        <ele>79.8</ele>
        <time>2019-07-16T06:08:14Z</time>
      </trkpt>
      <trkpt lat="48.26843" lon="-2.05991">
        <ele>79.7</ele>
        <time>2019-07-16T06:08:15Z</time>
      </trkpt>
      <trkpt lat="48.26842" lon="-2.05994">
        <ele>79.9</ele>
        <time>2019-07-16T06:08:16Z</time>
      </trkpt>
      <trkpt lat="48.26841" lon="-2.05997">
        <ele>80</ele>
        <time>2019-07-16T06:08:17Z</time>
      </trkpt>
      <trkpt lat="48.2684" lon="-2.06">
        <ele>80.7</ele>
        <time>2019-07-16T06:08:18Z</time>
      </trkpt>
      <trkpt lat="48.26839" lon="-2.06003">
        <ele>80.9</ele>
        <time>2019-07-16T06:08:19Z</time>
      </trkpt>
      <trkpt lat="48.26838" lon="-2.06006">
        <ele>81</ele>
        <time>2019-07-16T06:08:20Z</time>
      </trkpt>
      <trkpt lat="48.26836" lon="-2.06009">
        <ele>81.1</ele>
        <time>2019-07-16T06:08:21Z</time>
      </trkpt>
      <trkpt lat="48.26836" lon="-2.06012">
        <ele>81.6</ele>
        <time>2019-07-16T06:08:22Z</time>
      </trkpt>
      <trkpt lat="48.26835" lon="-2.06015">
        <ele>82.4</ele>
        <time>2019-07-16T06:08:23Z</time>
      </trkpt>
      <trkpt lat="48.26833" lon="-2.06018">
        <ele>82.9</ele>
        <time>2019-07-16T06:08:24Z</time>
      </trkpt>
      <trkpt lat="48.26832" lon="-2.06021">
        <ele>83.7</ele>
        <time>2019-07-16T06:08:25Z</time>
      </trkpt>
      <trkpt lat="48.26831" lon="-2.06024">
        <ele>84</ele>
        <time>2019-07-16T06:08:26Z</time>
      </trkpt>
      <trkpt lat="48.26829" lon="-2.06027">
        <ele>84.2</ele>
        <time>2019-07-16T06:08:27Z</time>
      </trkpt>
      <trkpt lat="48.26828" lon="-2.0603">
        <ele>84.2</ele>
        <time>2019-07-16T06:08:28Z</time>
      </trkpt>
      <trkpt lat="48.26827" lon="-2.06033">
        <ele>84.6</ele>
        <time>2019-07-16T06:08:29Z</time>
      </trkpt>
      <trkpt lat="48.26825" lon="-2.06036">
        <ele>85.3</ele>
        <time>2019-07-16T06:08:30Z</time>
      </trkpt>
      <trkpt lat="48.26824" lon="-2.06039">
        <ele>85.8</ele>
        <time>2019-07-16T06:08:31Z</time>
      </trkpt>
      <trkpt lat="48.26823" lon="-2.06043">
        <ele>85.8</ele>
        <time>2019-07-16T06:08:32Z</time>
      </trkpt>
      <trkpt lat="48.26822" lon="-2.06046">
        <ele>85.5</ele>
        <time>2019-07-16T06:08:33Z</time>
      </trkpt>
      <trkpt lat="48.26821" lon="-2.06049">
        <ele>85.9</ele>
        <time>2019-07-16T06:08:34Z</time>
      </trkpt>
      <trkpt lat="48.2682" lon="-2.06052">
        <ele>86.7</ele>
        <time>2019-07-16T06:08:35Z</time>
      </trkpt>
      <trkpt lat="48.26819" lon="-2.06055">
        <ele>87</ele>
        <time>2019-07-16T06:08:36Z</time>
      </trkpt>
      <trkpt lat="48.26817" lon="-2.06058">
        <ele>87.3</ele>
        <time>2019-07-16T06:08:37Z</time>
      </trkpt>
      <trkpt lat="48.26816" lon="-2.06062">
        <ele>87.4</ele>
        <time>2019-07-16T06:08:38Z</time>
      </trkpt>
      <trkpt lat="48.26815" lon="-2.06065">
        <ele>87.5</ele>
        <time>2019-07-16T06:08:39Z</time>
      </trkpt>
      <trkpt lat="48.26814" lon="-2.06069">
        <ele>87.2</ele>
        <time>2019-07-16T06:08:40Z</time>
      </trkpt>
      <trkpt lat="48.26812" lon="-2.06072">
        <ele>87</ele>
        <time>2019-07-16T06:08:41Z</time>
      </trkpt>
      <trkpt lat="48.26811" lon="-2.06076">
        <ele>87.2</ele>
        <time>2019-07-16T06:08:42Z</time>
      </trkpt>
      <trkpt lat="48.2681" lon="-2.06079">
        <ele>87.3</ele>
        <time>2019-07-16T06:08:43Z</time>
      </trkpt>
      <trkpt lat="48.26809" lon="-2.06082">
        <ele>87.4</ele>
        <time>2019-07-16T06:08:44Z</time>
      </trkpt>
      <trkpt lat="48.26807" lon="-2.06086">
        <ele>87.1</ele>
        <time>2019-07-16T06:08:45Z</time>
      </trkpt>
      <trkpt lat="48.26806" lon="-2.06089">
        <ele>86.7</ele>
        <time>2019-07-16T06:08:46Z</time>
      </trkpt>
      <trkpt lat="48.26806" lon="-2.06092">
        <ele>86.8</ele>
        <time>2019-07-16T06:08:47Z</time>
      </trkpt>
      <trkpt lat="48.26805" lon="-2.06095">
        <ele>86.9</ele>
        <time>2019-07-16T06:08:48Z</time>
      </trkpt>
      <trkpt lat="48.26804" lon="-2.06098">
        <ele>87</ele>
        <time>2019-07-16T06:08:49Z</time>
      </trkpt>
      <trkpt lat="48.26803" lon="-2.06101">
        <ele>86.7</ele>
        <time>2019-07-16T06:08:50Z</time>
      </trkpt>
      <trkpt lat="48.26802" lon="-2.06105">
        <ele>86</ele>
        <time>2019-07-16T06:08:51Z</time>
      </trkpt>
      <trkpt lat="48.26801" lon="-2.06107">
        <ele>86.1</ele>
        <time>2019-07-16T06:08:52Z</time>
      </trkpt>
      <trkpt lat="48.268" lon="-2.06111">
        <ele>86.4</ele>
        <time>2019-07-16T06:08:53Z</time>
      </trkpt>
      <trkpt lat="48.26798" lon="-2.06115">
        <ele>85.9</ele>
        <time>2019-07-16T06:08:54Z</time>
      </trkpt>
      <trkpt lat="48.26797" lon="-2.06118">
        <ele>85.9</ele>
        <time>2019-07-16T06:08:55Z</time>
      </trkpt>
      <trkpt lat="48.26796" lon="-2.06121">
        <ele>86.5</ele>
        <time>2019-07-16T06:08:56Z</time>
      </trkpt>
      <trkpt lat="48.26794" lon="-2.06124">
        <ele>86.6</ele>
        <time>2019-07-16T06:08:57Z</time>
      </trkpt>
      <trkpt lat="48.26793" lon="-2.06127">
        <ele>87</ele>
        <time>2019-07-16T06:08:58Z</time>
      </trkpt>
      <trkpt lat="48.26791" lon="-2.0613">
        <ele>87.2</ele>
        <time>2019-07-16T06:08:59Z</time>
      </trkpt>
      <trkpt lat="48.2679" lon="-2.06134">
        <ele>87.6</ele>
        <time>2019-07-16T06:09:00Z</time>
      </trkpt>
      <trkpt lat="48.2679" lon="-2.06137">
        <ele>87.8</ele>
        <time>2019-07-16T06:09:01Z</time>
      </trkpt>
      <trkpt lat="48.26788" lon="-2.06141">
        <ele>87.5</ele>
        <time>2019-07-16T06:09:02Z</time>
      </trkpt>
      <trkpt lat="48.26788" lon="-2.06145">
        <ele>87</ele>
        <time>2019-07-16T06:09:03Z</time>
      </trkpt>
      <trkpt lat="48.26786" lon="-2.06149">
        <ele>86</ele>
        <time>2019-07-16T06:09:04Z</time>
      </trkpt>
      <trkpt lat="48.26785" lon="-2.06152">
        <ele>86.1</ele>
        <time>2019-07-16T06:09:05Z</time>
      </trkpt>
      <trkpt lat="48.26785" lon="-2.06156">
        <ele>86.1</ele>
        <time>2019-07-16T06:09:06Z</time>
      </trkpt>
      <trkpt lat="48.26784" lon="-2.06159">
        <ele>86.6</ele>
        <time>2019-07-16T06:09:07Z</time>
      </trkpt>
      <trkpt lat="48.26783" lon="-2.06163">
        <ele>86.2</ele>
        <time>2019-07-16T06:09:08Z</time>
      </trkpt>
      <trkpt lat="48.26782" lon="-2.06166">
        <ele>86.3</ele>
        <time>2019-07-16T06:09:09Z</time>
      </trkpt>
      <trkpt lat="48.26782" lon="-2.0617">
        <ele>85.9</ele>
        <time>2019-07-16T06:09:10Z</time>
      </trkpt>
      <trkpt lat="48.26781" lon="-2.06173">
        <ele>85.8</ele>
        <time>2019-07-16T06:09:11Z</time>
      </trkpt>
      <trkpt lat="48.26781" lon="-2.06176">
        <ele>85.8</ele>
        <time>2019-07-16T06:09:12Z</time>
      </trkpt>
      <trkpt lat="48.2678" lon="-2.0618">
        <ele>86</ele>
        <time>2019-07-16T06:09:13Z</time>
      </trkpt>
      <trkpt lat="48.26779" lon="-2.06183">
        <ele>86.1</ele>
        <time>2019-07-16T06:09:14Z</time>
      </trkpt>
      <trkpt lat="48.26778" lon="-2.06186">
        <ele>86.1</ele>
        <time>2019-07-16T06:09:15Z</time>
      </trkpt>
      <trkpt lat="48.26778" lon="-2.0619">
        <ele>86.1</ele>
        <time>2019-07-16T06:09:16Z</time>
      </trkpt>
      <trkpt lat="48.26777" lon="-2.06194">
        <ele>86.2</ele>
        <time>2019-07-16T06:09:17Z</time>
      </trkpt>
      <trkpt lat="48.26776" lon="-2.06199">
        <ele>85.9</ele>
        <time>2019-07-16T06:09:18Z</time>
      </trkpt>
      <trkpt lat="48.26775" lon="-2.06203">
        <ele>86</ele>
        <time>2019-07-16T06:09:19Z</time>
      </trkpt>
      <trkpt lat="48.26775" lon="-2.06207">
        <ele>85.8</ele>
        <time>2019-07-16T06:09:20Z</time>
      </trkpt>
      <trkpt lat="48.26774" lon="-2.0621">
        <ele>85.7</ele>
        <time>2019-07-16T06:09:21Z</time>
      </trkpt>
      <trkpt lat="48.26774" lon="-2.06215">
        <ele>85.7</ele>
        <time>2019-07-16T06:09:22Z</time>
      </trkpt>
      <trkpt lat="48.26773" lon="-2.06219">
        <ele>85.3</ele>
        <time>2019-07-16T06:09:23Z</time>
      </trkpt>
      <trkpt lat="48.26772" lon="-2.06223">
        <ele>85.3</ele>
        <time>2019-07-16T06:09:24Z</time>
      </trkpt>
      <trkpt lat="48.26772" lon="-2.06227">
        <ele>85.3</ele>
        <time>2019-07-16T06:09:25Z</time>
      </trkpt>
      <trkpt lat="48.26772" lon="-2.06231">
        <ele>84.9</ele>
        <time>2019-07-16T06:09:26Z</time>
      </trkpt>
      <trkpt lat="48.26771" lon="-2.06235">
        <ele>84</ele>
        <time>2019-07-16T06:09:27Z</time>
      </trkpt>
      <trkpt lat="48.2677" lon="-2.06239">
        <ele>83.3</ele>
        <time>2019-07-16T06:09:28Z</time>
      </trkpt>
      <trkpt lat="48.2677" lon="-2.06244">
        <ele>82.5</ele>
        <time>2019-07-16T06:09:29Z</time>
      </trkpt>
      <trkpt lat="48.26769" lon="-2.06248">
        <ele>82.2</ele>
        <time>2019-07-16T06:09:30Z</time>
      </trkpt>
      <trkpt lat="48.26769" lon="-2.06252">
        <ele>81.7</ele>
        <time>2019-07-16T06:09:31Z</time>
      </trkpt>
      <trkpt lat="48.26769" lon="-2.06256">
        <ele>81.9</ele>
        <time>2019-07-16T06:09:32Z</time>
      </trkpt>
      <trkpt lat="48.26768" lon="-2.06259">
        <ele>81.6</ele>
        <time>2019-07-16T06:09:33Z</time>
      </trkpt>
      <trkpt lat="48.26767" lon="-2.06263">
        <ele>81.4</ele>
        <time>2019-07-16T06:09:34Z</time>
      </trkpt>
      <trkpt lat="48.26767" lon="-2.06267">
        <ele>81.3</ele>
        <time>2019-07-16T06:09:35Z</time>
      </trkpt>
      <trkpt lat="48.26766" lon="-2.06271">
        <ele>81.3</ele>
        <time>2019-07-16T06:09:36Z</time>
      </trkpt>
      <trkpt lat="48.26765" lon="-2.06275">
        <ele>81.3</ele>
        <time>2019-07-16T06:09:37Z</time>
      </trkpt>
      <trkpt lat="48.26765" lon="-2.06279">
        <ele>81.4</ele>
        <time>2019-07-16T06:09:38Z</time>
      </trkpt>
      <trkpt lat="48.26764" lon="-2.06283">
        <ele>81.3</ele>
        <time>2019-07-16T06:09:39Z</time>
      </trkpt>
      <trkpt lat="48.26764" lon="-2.06288">
        <ele>81.4</ele>
        <time>2019-07-16T06:09:40Z</time>
      </trkpt>
      <trkpt lat="48.26763" lon="-2.06292">
        <ele>81.6</ele>
        <time>2019-07-16T06:09:41Z</time>
      </trkpt>
      <trkpt lat="48.26763" lon="-2.06296">
        <ele>81.8</ele>
        <time>2019-07-16T06:09:42Z</time>
      </trkpt>
      <trkpt lat="48.26762" lon="-2.063">
        <ele>81.9</ele>
        <time>2019-07-16T06:09:43Z</time>
      </trkpt>
      <trkpt lat="48.26762" lon="-2.06303">
        <ele>81.8</ele>
        <time>2019-07-16T06:09:44Z</time>
      </trkpt>
      <trkpt lat="48.26761" lon="-2.06308">
        <ele>81.9</ele>
        <time>2019-07-16T06:09:45Z</time>
      </trkpt>
      <trkpt lat="48.26761" lon="-2.06312">
        <ele>82.2</ele>
        <time>2019-07-16T06:09:46Z</time>
      </trkpt>
      <trkpt lat="48.2676" lon="-2.06316">
        <ele>82.4</ele>
        <time>2019-07-16T06:09:47Z</time>
      </trkpt>
      <trkpt lat="48.26759" lon="-2.0632">
        <ele>82.7</ele>
        <time>2019-07-16T06:09:48Z</time>
      </trkpt>
      <trkpt lat="48.26759" lon="-2.06323">
        <ele>83.9</ele>
        <time>2019-07-16T06:09:49Z</time>
      </trkpt>
      <trkpt lat="48.26758" lon="-2.06327">
        <ele>83.9</ele>
        <time>2019-07-16T06:09:50Z</time>
      </trkpt>
      <trkpt lat="48.26758" lon="-2.06331">
        <ele>84.3</ele>
        <time>2019-07-16T06:09:51Z</time>
      </trkpt>
      <trkpt lat="48.26758" lon="-2.06335">
        <ele>84.2</ele>
        <time>2019-07-16T06:09:52Z</time>
      </trkpt>
      <trkpt lat="48.26758" lon="-2.06339">
        <ele>84</ele>
        <time>2019-07-16T06:09:53Z</time>
      </trkpt>
      <trkpt lat="48.26758" lon="-2.06343">
        <ele>83.3</ele>
        <time>2019-07-16T06:09:54Z</time>
      </trkpt>
      <trkpt lat="48.26757" lon="-2.06347">
        <ele>83.9</ele>
        <time>2019-07-16T06:09:55Z</time>
      </trkpt>
      <trkpt lat="48.26759" lon="-2.0635">
        <ele>84.5</ele>
        <time>2019-07-16T06:09:56Z</time>
      </trkpt>
      <trkpt lat="48.26759" lon="-2.06354">
        <ele>84.6</ele>
        <time>2019-07-16T06:09:57Z</time>
      </trkpt>
      <trkpt lat="48.26759" lon="-2.06357">
        <ele>85.4</ele>
        <time>2019-07-16T06:09:58Z</time>
      </trkpt>
      <trkpt lat="48.26758" lon="-2.06361">
        <ele>85.9</ele>
        <time>2019-07-16T06:09:59Z</time>
      </trkpt>
      <trkpt lat="48.26758" lon="-2.06365">
        <ele>86.2</ele>
        <time>2019-07-16T06:10:00Z</time>
      </trkpt>
      <trkpt lat="48.26757" lon="-2.06368">
        <ele>87.9</ele>
        <time>2019-07-16T06:10:01Z</time>
      </trkpt>
      <trkpt lat="48.26756" lon="-2.06372">
        <ele>88.6</ele>
        <time>2019-07-16T06:10:02Z</time>
      </trkpt>
      <trkpt lat="48.26756" lon="-2.06376">
        <ele>89</ele>
        <time>2019-07-16T06:10:03Z</time>
      </trkpt>
      <trkpt lat="48.26756" lon="-2.0638">
        <ele>89.7</ele>
        <time>2019-07-16T06:10:04Z</time>
      </trkpt>
      <trkpt lat="48.26755" lon="-2.06384">
        <ele>90.6</ele>
        <time>2019-07-16T06:10:05Z</time>
      </trkpt>
      <trkpt lat="48.26754" lon="-2.06388">
        <ele>90.7</ele>
        <time>2019-07-16T06:10:06Z</time>
      </trkpt>
      <trkpt lat="48.26754" lon="-2.06392">
        <ele>91</ele>
        <time>2019-07-16T06:10:07Z</time>
      </trkpt>
      <trkpt lat="48.26752" lon="-2.06395">
        <ele>92.4</ele>
        <time>2019-07-16T06:10:08Z</time>
      </trkpt>
      <trkpt lat="48.26751" lon="-2.06399">
        <ele>92.6</ele>
        <time>2019-07-16T06:10:09Z</time>
      </trkpt>
      <trkpt lat="48.26751" lon="-2.06403">
        <ele>93.2</ele>
        <time>2019-07-16T06:10:10Z</time>
      </trkpt>
      <trkpt lat="48.2675" lon="-2.06407">
        <ele>93.5</ele>
        <time>2019-07-16T06:10:11Z</time>
      </trkpt>
      <trkpt lat="48.26749" lon="-2.06411">
        <ele>93.8</ele>
        <time>2019-07-16T06:10:12Z</time>
      </trkpt>
      <trkpt lat="48.26749" lon="-2.06415">
        <ele>94.3</ele>
        <time>2019-07-16T06:10:13Z</time>
      </trkpt>
      <trkpt lat="48.26749" lon="-2.06419">
        <ele>94.7</ele>
        <time>2019-07-16T06:10:14Z</time>
      </trkpt>
      <trkpt lat="48.26749" lon="-2.06423">
        <ele>94.8</ele>
        <time>2019-07-16T06:10:15Z</time>
      </trkpt>
      <trkpt lat="48.26749" lon="-2.06427">
        <ele>95</ele>
        <time>2019-07-16T06:10:16Z</time>
      </trkpt>
      <trkpt lat="48.26749" lon="-2.06431">
        <ele>95.1</ele>
        <time>2019-07-16T06:10:17Z</time>
      </trkpt>
      <trkpt lat="48.26748" lon="-2.06435">
        <ele>96.3</ele>
        <time>2019-07-16T06:10:18Z</time>
      </trkpt>
      <trkpt lat="48.26748" lon="-2.06439">
        <ele>96.2</ele>
        <time>2019-07-16T06:10:19Z</time>
      </trkpt>
      <trkpt lat="48.26748" lon="-2.06442">
        <ele>96.1</ele>
        <time>2019-07-16T06:10:20Z</time>
      </trkpt>
      <trkpt lat="48.26748" lon="-2.06446">
        <ele>95.5</ele>
        <time>2019-07-16T06:10:21Z</time>
      </trkpt>
      <trkpt lat="48.26746" lon="-2.0645">
        <ele>95.2</ele>
        <time>2019-07-16T06:10:22Z</time>
      </trkpt>
      <trkpt lat="48.26746" lon="-2.06454">
        <ele>95.5</ele>
        <time>2019-07-16T06:10:23Z</time>
      </trkpt>
      <trkpt lat="48.26746" lon="-2.06458">
        <ele>95.4</ele>
        <time>2019-07-16T06:10:24Z</time>
      </trkpt>
      <trkpt lat="48.26747" lon="-2.06462">
        <ele>95.8</ele>
        <time>2019-07-16T06:10:25Z</time>
      </trkpt>
      <trkpt lat="48.26747" lon="-2.06466">
        <ele>95.6</ele>
        <time>2019-07-16T06:10:26Z</time>
      </trkpt>
      <trkpt lat="48.26747" lon="-2.0647">
        <ele>95.6</ele>
        <time>2019-07-16T06:10:27Z</time>
      </trkpt>
      <trkpt lat="48.26746" lon="-2.06474">
        <ele>95.4</ele>
        <time>2019-07-16T06:10:28Z</time>
      </trkpt>
      <trkpt lat="48.26746" lon="-2.06478">
        <ele>95.4</ele>
        <time>2019-07-16T06:10:29Z</time>
      </trkpt>
      <trkpt lat="48.26746" lon="-2.06482">
        <ele>95.6</ele>
        <time>2019-07-16T06:10:30Z</time>
      </trkpt>
      <trkpt lat="48.26746" lon="-2.06487">
        <ele>94.7</ele>
        <time>2019-07-16T06:10:31Z</time>
      </trkpt>
      <trkpt lat="48.26746" lon="-2.06492">
        <ele>94.1</ele>
        <time>2019-07-16T06:10:32Z</time>
      </trkpt>
      <trkpt lat="48.26746" lon="-2.06495">
        <ele>94.1</ele>
        <time>2019-07-16T06:10:33Z</time>
      </trkpt>
      <trkpt lat="48.26746" lon="-2.06499">
        <ele>94</ele>
        <time>2019-07-16T06:10:34Z</time>
      </trkpt>
      <trkpt lat="48.26747" lon="-2.06503">
        <ele>94.4</ele>
        <time>2019-07-16T06:10:35Z</time>
      </trkpt>
      <trkpt lat="48.26748" lon="-2.06506">
        <ele>94.5</ele>
        <time>2019-07-16T06:10:36Z</time>
      </trkpt>
      <trkpt lat="48.26748" lon="-2.0651">
        <ele>94.8</ele>
        <time>2019-07-16T06:10:37Z</time>
      </trkpt>
      <trkpt lat="48.26749" lon="-2.06515">
        <ele>94.7</ele>
        <time>2019-07-16T06:10:38Z</time>
      </trkpt>
      <trkpt lat="48.2675" lon="-2.06519">
        <ele>94.9</ele>
        <time>2019-07-16T06:10:39Z</time>
      </trkpt>
      <trkpt lat="48.2675" lon="-2.06523">
        <ele>95.2</ele>
        <time>2019-07-16T06:10:40Z</time>
      </trkpt>
      <trkpt lat="48.2675" lon="-2.06527">
        <ele>95.3</ele>
        <time>2019-07-16T06:10:41Z</time>
      </trkpt>
      <trkpt lat="48.26751" lon="-2.06532">
        <ele>95.4</ele>
        <time>2019-07-16T06:10:42Z</time>
      </trkpt>
      <trkpt lat="48.26751" lon="-2.06536">
        <ele>95.4</ele>
        <time>2019-07-16T06:10:43Z</time>
      </trkpt>
      <trkpt lat="48.26751" lon="-2.06541">
        <ele>95.5</ele>
        <time>2019-07-16T06:10:44Z</time>
      </trkpt>
      <trkpt lat="48.26751" lon="-2.06546">
        <ele>95.4</ele>
        <time>2019-07-16T06:10:45Z</time>
      </trkpt>
      <trkpt lat="48.26752" lon="-2.06549">
        <ele>95.4</ele>
        <time>2019-07-16T06:10:46Z</time>
      </trkpt>
      <trkpt lat="48.26753" lon="-2.06552">
        <ele>95.7</ele>
        <time>2019-07-16T06:10:47Z</time>
      </trkpt>
      <trkpt lat="48.26753" lon="-2.06553">
        <ele>95.8</ele>
        <time>2019-07-16T06:10:48Z</time>
      </trkpt>
      <trkpt lat="48.26753" lon="-2.06555">
        <ele>95.3</ele>
        <time>2019-07-16T06:10:49Z</time>
      </trkpt>
      <trkpt lat="48.26753" lon="-2.06555">
        <ele>95.4</ele>
        <time>2019-07-16T06:10:50Z</time>
      </trkpt>
      <trkpt lat="48.26753" lon="-2.06556">
        <ele>94.9</ele>
        <time>2019-07-16T06:10:51Z</time>
      </trkpt>
      <trkpt lat="48.26753" lon="-2.06558">
        <ele>94.8</ele>
        <time>2019-07-16T06:10:52Z</time>
      </trkpt>
      <trkpt lat="48.26754" lon="-2.0656">
        <ele>94.4</ele>
        <time>2019-07-16T06:10:53Z</time>
      </trkpt>
      <trkpt lat="48.26754" lon="-2.06564">
        <ele>94</ele>
        <time>2019-07-16T06:10:54Z</time>
      </trkpt>
      <trkpt lat="48.26754" lon="-2.06568">
        <ele>93.4</ele>
        <time>2019-07-16T06:10:55Z</time>
      </trkpt>
      <trkpt lat="48.26753" lon="-2.06572">
        <ele>93</ele>
        <time>2019-07-16T06:10:56Z</time>
      </trkpt>
      <trkpt lat="48.26753" lon="-2.06577">
        <ele>92.8</ele>
        <time>2019-07-16T06:10:57Z</time>
      </trkpt>
      <trkpt lat="48.26753" lon="-2.06581">
        <ele>92.7</ele>
        <time>2019-07-16T06:10:58Z</time>
      </trkpt>
      <trkpt lat="48.26753" lon="-2.06585">
        <ele>92.9</ele>
        <time>2019-07-16T06:10:59Z</time>
      </trkpt>
      <trkpt lat="48.26753" lon="-2.06589">
        <ele>93.3</ele>
        <time>2019-07-16T06:11:00Z</time>
      </trkpt>
      <trkpt lat="48.26753" lon="-2.06593">
        <ele>93.8</ele>
        <time>2019-07-16T06:11:01Z</time>
      </trkpt>
      <trkpt lat="48.26754" lon="-2.06596">
        <ele>94.1</ele>
        <time>2019-07-16T06:11:02Z</time>
      </trkpt>
      <trkpt lat="48.26754" lon="-2.066">
        <ele>93.6</ele>
        <time>2019-07-16T06:11:03Z</time>
      </trkpt>
      <trkpt lat="48.26754" lon="-2.06603">
        <ele>93.8</ele>
        <time>2019-07-16T06:11:04Z</time>
      </trkpt>
      <trkpt lat="48.26754" lon="-2.06605">
        <ele>93.7</ele>
        <time>2019-07-16T06:11:05Z</time>
      </trkpt>
      <trkpt lat="48.26755" lon="-2.06607">
        <ele>93</ele>
        <time>2019-07-16T06:11:06Z</time>
      </trkpt>
      <trkpt lat="48.26755" lon="-2.06608">
        <ele>92.4</ele>
        <time>2019-07-16T06:11:07Z</time>
      </trkpt>
      <trkpt lat="48.26755" lon="-2.06608">
        <ele>92.1</ele>
        <time>2019-07-16T06:11:08Z</time>
      </trkpt>
      <trkpt lat="48.26754" lon="-2.06609">
        <ele>91.6</ele>
        <time>2019-07-16T06:11:09Z</time>
      </trkpt>
      <trkpt lat="48.26754" lon="-2.06609">
        <ele>91.3</ele>
        <time>2019-07-16T06:11:10Z</time>
      </trkpt>
      <trkpt lat="48.26755" lon="-2.06609">
        <ele>90.7</ele>
        <time>2019-07-16T06:11:11Z</time>
      </trkpt>
      <trkpt lat="48.26754" lon="-2.06609">
        <ele>90.5</ele>
        <time>2019-07-16T06:11:12Z</time>
      </trkpt>
      <trkpt lat="48.26754" lon="-2.06608">
        <ele>90.4</ele>
        <time>2019-07-16T06:11:13Z</time>
      </trkpt>
      <trkpt lat="48.26755" lon="-2.06608">
        <ele>90.6</ele>
        <time>2019-07-16T06:11:14Z</time>
      </trkpt>
      <trkpt lat="48.2675" lon="-2.06612">
        <ele>93.4</ele>
        <time>2019-07-16T06:14:26Z</time>
      </trkpt>
      <trkpt lat="48.2675" lon="-2.06614">
        <ele>93.5</ele>
        <time>2019-07-16T06:14:27Z</time>
      </trkpt>
      <trkpt lat="48.26749" lon="-2.06617">
        <ele>93.6</ele>
        <time>2019-07-16T06:14:28Z</time>
      </trkpt>
      <trkpt lat="48.2675" lon="-2.06619">
        <ele>93.7</ele>
        <time>2019-07-16T06:14:29Z</time>
      </trkpt>
      <trkpt lat="48.2675" lon="-2.06621">
        <ele>93.8</ele>
        <time>2019-07-16T06:14:30Z</time>
      </trkpt>
      <trkpt lat="48.26749" lon="-2.06622">
        <ele>94</ele>
        <time>2019-07-16T06:14:31Z</time>
      </trkpt>
      <trkpt lat="48.2675" lon="-2.06623">
        <ele>94.1</ele>
        <time>2019-07-16T06:14:32Z</time>
      </trkpt>
      <trkpt lat="48.2675" lon="-2.06624">
        <ele>94.2</ele>
        <time>2019-07-16T06:14:33Z</time>
      </trkpt>
      <trkpt lat="48.2675" lon="-2.06624">
        <ele>94.1</ele>
        <time>2019-07-16T06:14:34Z</time>
      </trkpt>
      <trkpt lat="48.26749" lon="-2.06624">
        <ele>94.2</ele>
        <time>2019-07-16T06:14:35Z</time>
      </trkpt>
      <trkpt lat="48.2675" lon="-2.06624">
        <ele>94.3</ele>
        <time>2019-07-16T06:14:36Z</time>
      </trkpt>
      <trkpt lat="48.26749" lon="-2.06625">
        <ele>94.4</ele>
        <time>2019-07-16T06:14:37Z</time>
      </trkpt>
      <trkpt lat="48.26749" lon="-2.06625">
        <ele>94.4</ele>
        <time>2019-07-16T06:14:38Z</time>
      </trkpt>
      <trkpt lat="48.26752" lon="-2.0663">
        <ele>95.9</ele>
        <time>2019-07-16T06:14:55Z</time>
      </trkpt>
      <trkpt lat="48.26753" lon="-2.06633">
        <ele>95.9</ele>
        <time>2019-07-16T06:14:56Z</time>
      </trkpt>
      <trkpt lat="48.26753" lon="-2.06636">
        <ele>95.8</ele>
        <time>2019-07-16T06:14:57Z</time>
      </trkpt>
      <trkpt lat="48.26753" lon="-2.06639">
        <ele>95.6</ele>
        <time>2019-07-16T06:14:58Z</time>
      </trkpt>
      <trkpt lat="48.26754" lon="-2.06643">
        <ele>95.4</ele>
        <time>2019-07-16T06:14:59Z</time>
      </trkpt>
      <trkpt lat="48.26754" lon="-2.06646">
        <ele>95.2</ele>
        <time>2019-07-16T06:15:00Z</time>
      </trkpt>
      <trkpt lat="48.26754" lon="-2.06649">
        <ele>95.1</ele>
        <time>2019-07-16T06:15:01Z</time>
      </trkpt>
      <trkpt lat="48.26753" lon="-2.06652">
        <ele>95.4</ele>
        <time>2019-07-16T06:15:02Z</time>
      </trkpt>
      <trkpt lat="48.26752" lon="-2.06654">
        <ele>95.5</ele>
        <time>2019-07-16T06:15:03Z</time>
      </trkpt>
      <trkpt lat="48.26751" lon="-2.06656">
        <ele>95.8</ele>
        <time>2019-07-16T06:15:04Z</time>
      </trkpt>
      <trkpt lat="48.26749" lon="-2.06657">
        <ele>96.2</ele>
        <time>2019-07-16T06:15:05Z</time>
      </trkpt>
      <trkpt lat="48.26747" lon="-2.06657">
        <ele>96.3</ele>
        <time>2019-07-16T06:15:06Z</time>
      </trkpt>
      <trkpt lat="48.26744" lon="-2.06657">
        <ele>96</ele>
        <time>2019-07-16T06:15:07Z</time>
      </trkpt>
      <trkpt lat="48.26741" lon="-2.06656">
        <ele>95.8</ele>
        <time>2019-07-16T06:15:08Z</time>
      </trkpt>
      <trkpt lat="48.26738" lon="-2.06655">
        <ele>95.7</ele>
        <time>2019-07-16T06:15:09Z</time>
      </trkpt>
      <trkpt lat="48.26734" lon="-2.06654">
        <ele>95.5</ele>
        <time>2019-07-16T06:15:10Z</time>
      </trkpt>
      <trkpt lat="48.26731" lon="-2.06653">
        <ele>95.2</ele>
        <time>2019-07-16T06:15:11Z</time>
      </trkpt>
      <trkpt lat="48.26727" lon="-2.06652">
        <ele>94.9</ele>
        <time>2019-07-16T06:15:12Z</time>
      </trkpt>
      <trkpt lat="48.26722" lon="-2.06651">
        <ele>94.4</ele>
        <time>2019-07-16T06:15:13Z</time>
      </trkpt>
      <trkpt lat="48.26717" lon="-2.06649">
        <ele>94</ele>
        <time>2019-07-16T06:15:14Z</time>
      </trkpt>
      <trkpt lat="48.26712" lon="-2.06648">
        <ele>93.2</ele>
        <time>2019-07-16T06:15:15Z</time>
      </trkpt>
      <trkpt lat="48.26706" lon="-2.06646">
        <ele>92.4</ele>
        <time>2019-07-16T06:15:16Z</time>
      </trkpt>
      <trkpt lat="48.267" lon="-2.06644">
        <ele>92</ele>
        <time>2019-07-16T06:15:17Z</time>
      </trkpt>
      <trkpt lat="48.26695" lon="-2.06642">
        <ele>91.9</ele>
        <time>2019-07-16T06:15:18Z</time>
      </trkpt>
      <trkpt lat="48.2669" lon="-2.06638">
        <ele>91.7</ele>
        <time>2019-07-16T06:15:19Z</time>
      </trkpt>
      <trkpt lat="48.26686" lon="-2.06633">
        <ele>91</ele>
        <time>2019-07-16T06:15:20Z</time>
      </trkpt>
      <trkpt lat="48.26683" lon="-2.06626">
        <ele>90.1</ele>
        <time>2019-07-16T06:15:21Z</time>
      </trkpt>
      <trkpt lat="48.2668" lon="-2.06619">
        <ele>88.9</ele>
        <time>2019-07-16T06:15:22Z</time>
      </trkpt>
      <trkpt lat="48.26677" lon="-2.06611">
        <ele>87.6</ele>
        <time>2019-07-16T06:15:23Z</time>
      </trkpt>
      <trkpt lat="48.26675" lon="-2.06603">
        <ele>86.3</ele>
        <time>2019-07-16T06:15:24Z</time>
      </trkpt>
      <trkpt lat="48.26672" lon="-2.06595">
        <ele>85.6</ele>
        <time>2019-07-16T06:15:25Z</time>
      </trkpt>
      <trkpt lat="48.26669" lon="-2.06587">
        <ele>84.9</ele>
        <time>2019-07-16T06:15:26Z</time>
      </trkpt>
      <trkpt lat="48.26667" lon="-2.06579">
        <ele>84.4</ele>
        <time>2019-07-16T06:15:27Z</time>
      </trkpt>
      <trkpt lat="48.26664" lon="-2.0657">
        <ele>83.9</ele>
        <time>2019-07-16T06:15:28Z</time>
      </trkpt>
      <trkpt lat="48.26661" lon="-2.06562">
        <ele>83.2</ele>
        <time>2019-07-16T06:15:29Z</time>
      </trkpt>
      <trkpt lat="48.26658" lon="-2.06553">
        <ele>82.1</ele>
        <time>2019-07-16T06:15:30Z</time>
      </trkpt>
      <trkpt lat="48.26655" lon="-2.06545">
        <ele>81.4</ele>
        <time>2019-07-16T06:15:31Z</time>
      </trkpt>
      <trkpt lat="48.26651" lon="-2.06537">
        <ele>80.7</ele>
        <time>2019-07-16T06:15:32Z</time>
      </trkpt>
      <trkpt lat="48.26647" lon="-2.06529">
        <ele>80.6</ele>
        <time>2019-07-16T06:15:33Z</time>
      </trkpt>
      <trkpt lat="48.26642" lon="-2.06522">
        <ele>81.2</ele>
        <time>2019-07-16T06:15:34Z</time>
      </trkpt>
      <trkpt lat="48.26637" lon="-2.06515">
        <ele>81.1</ele>
        <time>2019-07-16T06:15:35Z</time>
      </trkpt>
      <trkpt lat="48.26631" lon="-2.0651">
        <ele>80.7</ele>
        <time>2019-07-16T06:15:36Z</time>
      </trkpt>
      <trkpt lat="48.26625" lon="-2.06504">
        <ele>80.4</ele>
        <time>2019-07-16T06:15:37Z</time>
      </trkpt>
      <trkpt lat="48.26619" lon="-2.06498">
        <ele>79.7</ele>
        <time>2019-07-16T06:15:38Z</time>
      </trkpt>
      <trkpt lat="48.26612" lon="-2.06492">
        <ele>79.2</ele>
        <time>2019-07-16T06:15:39Z</time>
      </trkpt>
      <trkpt lat="48.26606" lon="-2.06486">
        <ele>79.5</ele>
        <time>2019-07-16T06:15:40Z</time>
      </trkpt>
      <trkpt lat="48.266" lon="-2.0648">
        <ele>79.3</ele>
        <time>2019-07-16T06:15:41Z</time>
      </trkpt>
      <trkpt lat="48.26593" lon="-2.06474">
        <ele>79.2</ele>
        <time>2019-07-16T06:15:42Z</time>
      </trkpt>
      <trkpt lat="48.26586" lon="-2.06469">
        <ele>78.8</ele>
        <time>2019-07-16T06:15:43Z</time>
      </trkpt>
      <trkpt lat="48.2658" lon="-2.06465">
        <ele>77.9</ele>
        <time>2019-07-16T06:15:44Z</time>
      </trkpt>
      <trkpt lat="48.26574" lon="-2.06461">
        <ele>77.4</ele>
        <time>2019-07-16T06:15:45Z</time>
      </trkpt>
      <trkpt lat="48.26568" lon="-2.06457">
        <ele>77.1</ele>
        <time>2019-07-16T06:15:46Z</time>
      </trkpt>
      <trkpt lat="48.26563" lon="-2.06453">
        <ele>76.6</ele>
        <time>2019-07-16T06:15:47Z</time>
      </trkpt>
      <trkpt lat="48.26558" lon="-2.06449">
        <ele>76.1</ele>
        <time>2019-07-16T06:15:48Z</time>
      </trkpt>
      <trkpt lat="48.26553" lon="-2.06445">
        <ele>76.5</ele>
        <time>2019-07-16T06:15:49Z</time>
      </trkpt>
      <trkpt lat="48.2655" lon="-2.06442">
        <ele>76.9</ele>
        <time>2019-07-16T06:15:50Z</time>
      </trkpt>
      <trkpt lat="48.26546" lon="-2.06439">
        <ele>76.5</ele>
        <time>2019-07-16T06:15:51Z</time>
      </trkpt>
      <trkpt lat="48.26543" lon="-2.06436">
        <ele>77</ele>
        <time>2019-07-16T06:15:52Z</time>
      </trkpt>
      <trkpt lat="48.26539" lon="-2.06433">
        <ele>77.7</ele>
        <time>2019-07-16T06:15:53Z</time>
      </trkpt>
      <trkpt lat="48.26536" lon="-2.0643">
        <ele>78.9</ele>
        <time>2019-07-16T06:15:54Z</time>
      </trkpt>
      <trkpt lat="48.26533" lon="-2.06428">
        <ele>79.3</ele>
        <time>2019-07-16T06:15:55Z</time>
      </trkpt>
      <trkpt lat="48.2653" lon="-2.06425">
        <ele>79.6</ele>
        <time>2019-07-16T06:15:56Z</time>
      </trkpt>
      <trkpt lat="48.26527" lon="-2.06422">
        <ele>78.4</ele>
        <time>2019-07-16T06:15:57Z</time>
      </trkpt>
      <trkpt lat="48.26523" lon="-2.06419">
        <ele>79.1</ele>
        <time>2019-07-16T06:15:58Z</time>
      </trkpt>
      <trkpt lat="48.26521" lon="-2.06417">
        <ele>79.3</ele>
        <time>2019-07-16T06:15:59Z</time>
      </trkpt>
      <trkpt lat="48.26518" lon="-2.06414">
        <ele>79.6</ele>
        <time>2019-07-16T06:16:00Z</time>
      </trkpt>
      <trkpt lat="48.26516" lon="-2.06411">
        <ele>79.4</ele>
        <time>2019-07-16T06:16:01Z</time>
      </trkpt>
      <trkpt lat="48.26513" lon="-2.06408">
        <ele>80</ele>
        <time>2019-07-16T06:16:02Z</time>
      </trkpt>
      <trkpt lat="48.2651" lon="-2.06405">
        <ele>80.3</ele>
        <time>2019-07-16T06:16:03Z</time>
      </trkpt>
      <trkpt lat="48.26508" lon="-2.06402">
        <ele>80.4</ele>
        <time>2019-07-16T06:16:04Z</time>
      </trkpt>
      <trkpt lat="48.26505" lon="-2.064">
        <ele>80.6</ele>
        <time>2019-07-16T06:16:05Z</time>
      </trkpt>
      <trkpt lat="48.26501" lon="-2.06398">
        <ele>80.6</ele>
        <time>2019-07-16T06:16:06Z</time>
      </trkpt>
      <trkpt lat="48.26498" lon="-2.06395">
        <ele>80.8</ele>
        <time>2019-07-16T06:16:07Z</time>
      </trkpt>
      <trkpt lat="48.26496" lon="-2.06393">
        <ele>81</ele>
        <time>2019-07-16T06:16:08Z</time>
      </trkpt>
      <trkpt lat="48.26494" lon="-2.06391">
        <ele>81.4</ele>
        <time>2019-07-16T06:16:09Z</time>
      </trkpt>
      <trkpt lat="48.26492" lon="-2.06388">
        <ele>82</ele>
        <time>2019-07-16T06:16:10Z</time>
      </trkpt>
      <trkpt lat="48.26489" lon="-2.06386">
        <ele>81.4</ele>
        <time>2019-07-16T06:16:11Z</time>
      </trkpt>
      <trkpt lat="48.26487" lon="-2.06384">
        <ele>81.1</ele>
        <time>2019-07-16T06:16:12Z</time>
      </trkpt>
      <trkpt lat="48.26485" lon="-2.06382">
        <ele>80.6</ele>
        <time>2019-07-16T06:16:13Z</time>
      </trkpt>
      <trkpt lat="48.26482" lon="-2.06381">
        <ele>80.6</ele>
        <time>2019-07-16T06:16:14Z</time>
      </trkpt>
      <trkpt lat="48.2648" lon="-2.0638">
        <ele>80.4</ele>
        <time>2019-07-16T06:16:15Z</time>
      </trkpt>
      <trkpt lat="48.26478" lon="-2.06378">
        <ele>80.8</ele>
        <time>2019-07-16T06:16:16Z</time>
      </trkpt>
      <trkpt lat="48.26476" lon="-2.06377">
        <ele>80.9</ele>
        <time>2019-07-16T06:16:17Z</time>
      </trkpt>
      <trkpt lat="48.26474" lon="-2.06375">
        <ele>80.8</ele>
        <time>2019-07-16T06:16:18Z</time>
      </trkpt>
      <trkpt lat="48.26473" lon="-2.06372">
        <ele>80.7</ele>
        <time>2019-07-16T06:16:19Z</time>
      </trkpt>
      <trkpt lat="48.26473" lon="-2.06368">
        <ele>81.4</ele>
        <time>2019-07-16T06:16:20Z</time>
      </trkpt>
      <trkpt lat="48.26473" lon="-2.06364">
        <ele>82.1</ele>
        <time>2019-07-16T06:16:21Z</time>
      </trkpt>
      <trkpt lat="48.26474" lon="-2.06359">
        <ele>82.3</ele>
        <time>2019-07-16T06:16:22Z</time>
      </trkpt>
      <trkpt lat="48.26476" lon="-2.06355">
        <ele>81.8</ele>
        <time>2019-07-16T06:16:23Z</time>
      </trkpt>
      <trkpt lat="48.26477" lon="-2.0635">
        <ele>81.5</ele>
        <time>2019-07-16T06:16:24Z</time>
      </trkpt>
      <trkpt lat="48.26477" lon="-2.06345">
        <ele>81.6</ele>
        <time>2019-07-16T06:16:25Z</time>
      </trkpt>
      <trkpt lat="48.26477" lon="-2.0634">
        <ele>81.1</ele>
        <time>2019-07-16T06:16:26Z</time>
      </trkpt>
      <trkpt lat="48.26477" lon="-2.06335">
        <ele>80.8</ele>
        <time>2019-07-16T06:16:27Z</time>
      </trkpt>
      <trkpt lat="48.26477" lon="-2.0633">
        <ele>80.8</ele>
        <time>2019-07-16T06:16:28Z</time>
      </trkpt>
      <trkpt lat="48.26477" lon="-2.06326">
        <ele>80.9</ele>
        <time>2019-07-16T06:16:29Z</time>
      </trkpt>
      <trkpt lat="48.26477" lon="-2.06321">
        <ele>80.5</ele>
        <time>2019-07-16T06:16:30Z</time>
      </trkpt>
      <trkpt lat="48.26477" lon="-2.06317">
        <ele>80.8</ele>
        <time>2019-07-16T06:16:31Z</time>
      </trkpt>
      <trkpt lat="48.26476" lon="-2.06312">
        <ele>81.3</ele>
        <time>2019-07-16T06:16:32Z</time>
      </trkpt>
      <trkpt lat="48.26475" lon="-2.06307">
        <ele>81.3</ele>
        <time>2019-07-16T06:16:33Z</time>
      </trkpt>
      <trkpt lat="48.26474" lon="-2.06302">
        <ele>81</ele>
        <time>2019-07-16T06:16:34Z</time>
      </trkpt>
      <trkpt lat="48.26474" lon="-2.06297">
        <ele>80.8</ele>
        <time>2019-07-16T06:16:35Z</time>
      </trkpt>
      <trkpt lat="48.26474" lon="-2.06292">
        <ele>80.6</ele>
        <time>2019-07-16T06:16:36Z</time>
      </trkpt>
      <trkpt lat="48.26473" lon="-2.06288">
        <ele>80.6</ele>
        <time>2019-07-16T06:16:37Z</time>
      </trkpt>
      <trkpt lat="48.26471" lon="-2.06284">
        <ele>82.2</ele>
        <time>2019-07-16T06:16:38Z</time>
      </trkpt>
      <trkpt lat="48.2647" lon="-2.06279">
        <ele>83.1</ele>
        <time>2019-07-16T06:16:39Z</time>
      </trkpt>
      <trkpt lat="48.26469" lon="-2.06275">
        <ele>83.5</ele>
        <time>2019-07-16T06:16:40Z</time>
      </trkpt>
      <trkpt lat="48.26469" lon="-2.0627">
        <ele>83.4</ele>
        <time>2019-07-16T06:16:41Z</time>
      </trkpt>
      <trkpt lat="48.26468" lon="-2.06265">
        <ele>83.2</ele>
        <time>2019-07-16T06:16:42Z</time>
      </trkpt>
      <trkpt lat="48.26467" lon="-2.06261">
        <ele>82.9</ele>
        <time>2019-07-16T06:16:43Z</time>
      </trkpt>
      <trkpt lat="48.26466" lon="-2.06257">
        <ele>82.8</ele>
        <time>2019-07-16T06:16:44Z</time>
      </trkpt>
      <trkpt lat="48.26466" lon="-2.06254">
        <ele>82.5</ele>
        <time>2019-07-16T06:16:45Z</time>
      </trkpt>
      <trkpt lat="48.26465" lon="-2.06252">
        <ele>82.3</ele>
        <time>2019-07-16T06:16:46Z</time>
      </trkpt>
      <trkpt lat="48.26465" lon="-2.06251">
        <ele>82.1</ele>
        <time>2019-07-16T06:16:47Z</time>
      </trkpt>
      <trkpt lat="48.26463" lon="-2.06243">
        <ele>82.6</ele>
        <time>2019-07-16T06:19:27Z</time>
      </trkpt>
      <trkpt lat="48.26464" lon="-2.06241">
        <ele>82.7</ele>
        <time>2019-07-16T06:19:28Z</time>
      </trkpt>
      <trkpt lat="48.26463" lon="-2.06238">
        <ele>82.8</ele>
        <time>2019-07-16T06:19:29Z</time>
      </trkpt>
      <trkpt lat="48.26463" lon="-2.06234">
        <ele>83</ele>
        <time>2019-07-16T06:19:30Z</time>
      </trkpt>
      <trkpt lat="48.26462" lon="-2.06231">
        <ele>83.4</ele>
        <time>2019-07-16T06:19:31Z</time>
      </trkpt>
      <trkpt lat="48.26461" lon="-2.06228">
        <ele>83.5</ele>
        <time>2019-07-16T06:19:32Z</time>
      </trkpt>
      <trkpt lat="48.26461" lon="-2.06224">
        <ele>83.5</ele>
        <time>2019-07-16T06:19:33Z</time>
      </trkpt>
      <trkpt lat="48.2646" lon="-2.0622">
        <ele>83.6</ele>
        <time>2019-07-16T06:19:34Z</time>
      </trkpt>
      <trkpt lat="48.2646" lon="-2.06217">
        <ele>83.7</ele>
        <time>2019-07-16T06:19:35Z</time>
      </trkpt>
      <trkpt lat="48.26459" lon="-2.06213">
        <ele>83.8</ele>
        <time>2019-07-16T06:19:36Z</time>
      </trkpt>
      <trkpt lat="48.26459" lon="-2.0621">
        <ele>84</ele>
        <time>2019-07-16T06:19:37Z</time>
      </trkpt>
      <trkpt lat="48.26458" lon="-2.06205">
        <ele>83.9</ele>
        <time>2019-07-16T06:19:38Z</time>
      </trkpt>
      <trkpt lat="48.26458" lon="-2.06201">
        <ele>84.2</ele>
        <time>2019-07-16T06:19:39Z</time>
      </trkpt>
      <trkpt lat="48.26458" lon="-2.06197">
        <ele>84.3</ele>
        <time>2019-07-16T06:19:40Z</time>
      </trkpt>
      <trkpt lat="48.26457" lon="-2.06193">
        <ele>84.1</ele>
        <time>2019-07-16T06:19:41Z</time>
      </trkpt>
      <trkpt lat="48.26456" lon="-2.06188">
        <ele>84.3</ele>
        <time>2019-07-16T06:19:42Z</time>
      </trkpt>
      <trkpt lat="48.26456" lon="-2.06184">
        <ele>84.2</ele>
        <time>2019-07-16T06:19:43Z</time>
      </trkpt>
      <trkpt lat="48.26455" lon="-2.0618">
        <ele>83.8</ele>
        <time>2019-07-16T06:19:44Z</time>
      </trkpt>
      <trkpt lat="48.26453" lon="-2.06176">
        <ele>83.5</ele>
        <time>2019-07-16T06:19:45Z</time>
      </trkpt>
      <trkpt lat="48.26453" lon="-2.06172">
        <ele>83.2</ele>
        <time>2019-07-16T06:19:46Z</time>
      </trkpt>
      <trkpt lat="48.26453" lon="-2.06168">
        <ele>83.6</ele>
        <time>2019-07-16T06:19:47Z</time>
      </trkpt>
      <trkpt lat="48.26453" lon="-2.06164">
        <ele>83.8</ele>
        <time>2019-07-16T06:19:48Z</time>
      </trkpt>
      <trkpt lat="48.26453" lon="-2.0616">
        <ele>83.9</ele>
        <time>2019-07-16T06:19:49Z</time>
      </trkpt>
      <trkpt lat="48.26453" lon="-2.06156">
        <ele>83.9</ele>
        <time>2019-07-16T06:19:50Z</time>
      </trkpt>
      <trkpt lat="48.26452" lon="-2.06152">
        <ele>84</ele>
        <time>2019-07-16T06:19:51Z</time>
      </trkpt>
      <trkpt lat="48.26451" lon="-2.06148">
        <ele>83.8</ele>
        <time>2019-07-16T06:19:52Z</time>
      </trkpt>
      <trkpt lat="48.2645" lon="-2.06144">
        <ele>84</ele>
        <time>2019-07-16T06:19:53Z</time>
      </trkpt>
      <trkpt lat="48.2645" lon="-2.0614">
        <ele>84</ele>
        <time>2019-07-16T06:19:54Z</time>
      </trkpt>
      <trkpt lat="48.26449" lon="-2.06137">
        <ele>83.8</ele>
        <time>2019-07-16T06:19:55Z</time>
      </trkpt>
      <trkpt lat="48.26448" lon="-2.06133">
        <ele>83.5</ele>
        <time>2019-07-16T06:19:56Z</time>
      </trkpt>
      <trkpt lat="48.26447" lon="-2.0613">
        <ele>83.6</ele>
        <time>2019-07-16T06:19:57Z</time>
      </trkpt>
      <trkpt lat="48.26446" lon="-2.06126">
        <ele>83.3</ele>
        <time>2019-07-16T06:19:58Z</time>
      </trkpt>
      <trkpt lat="48.26445" lon="-2.06122">
        <ele>83.1</ele>
        <time>2019-07-16T06:19:59Z</time>
      </trkpt>
      <trkpt lat="48.26445" lon="-2.06118">
        <ele>83.2</ele>
        <time>2019-07-16T06:20:00Z</time>
      </trkpt>
      <trkpt lat="48.26444" lon="-2.06114">
        <ele>83.3</ele>
        <time>2019-07-16T06:20:01Z</time>
      </trkpt>
      <trkpt lat="48.26444" lon="-2.0611">
        <ele>83.6</ele>
        <time>2019-07-16T06:20:02Z</time>
      </trkpt>
      <trkpt lat="48.26443" lon="-2.06106">
        <ele>84</ele>
        <time>2019-07-16T06:20:03Z</time>
      </trkpt>
      <trkpt lat="48.26442" lon="-2.06102">
        <ele>84.2</ele>
        <time>2019-07-16T06:20:04Z</time>
      </trkpt>
      <trkpt lat="48.26442" lon="-2.06097">
        <ele>84.4</ele>
        <time>2019-07-16T06:20:05Z</time>
      </trkpt>
      <trkpt lat="48.26442" lon="-2.06093">
        <ele>85.1</ele>
        <time>2019-07-16T06:20:06Z</time>
      </trkpt>
      <trkpt lat="48.26442" lon="-2.06089">
        <ele>85.5</ele>
        <time>2019-07-16T06:20:07Z</time>
      </trkpt>
      <trkpt lat="48.26442" lon="-2.06085">
        <ele>85.8</ele>
        <time>2019-07-16T06:20:08Z</time>
      </trkpt>
      <trkpt lat="48.26441" lon="-2.06081">
        <ele>86</ele>
        <time>2019-07-16T06:20:09Z</time>
      </trkpt>
      <trkpt lat="48.2644" lon="-2.06077">
        <ele>85.9</ele>
        <time>2019-07-16T06:20:10Z</time>
      </trkpt>
      <trkpt lat="48.2644" lon="-2.06073">
        <ele>85.8</ele>
        <time>2019-07-16T06:20:11Z</time>
      </trkpt>
      <trkpt lat="48.26439" lon="-2.06069">
        <ele>85.7</ele>
        <time>2019-07-16T06:20:12Z</time>
      </trkpt>
      <trkpt lat="48.26439" lon="-2.06065">
        <ele>85.7</ele>
        <time>2019-07-16T06:20:13Z</time>
      </trkpt>
      <trkpt lat="48.26438" lon="-2.06061">
        <ele>85.8</ele>
        <time>2019-07-16T06:20:14Z</time>
      </trkpt>
      <trkpt lat="48.26438" lon="-2.06057">
        <ele>85.8</ele>
        <time>2019-07-16T06:20:15Z</time>
      </trkpt>
      <trkpt lat="48.26437" lon="-2.06053">
        <ele>86</ele>
        <time>2019-07-16T06:20:16Z</time>
      </trkpt>
      <trkpt lat="48.26437" lon="-2.06049">
        <ele>86.3</ele>
        <time>2019-07-16T06:20:17Z</time>
      </trkpt>
      <trkpt lat="48.26436" lon="-2.06045">
        <ele>86.2</ele>
        <time>2019-07-16T06:20:18Z</time>
      </trkpt>
      <trkpt lat="48.26436" lon="-2.06041">
        <ele>86.5</ele>
        <time>2019-07-16T06:20:19Z</time>
      </trkpt>
      <trkpt lat="48.26435" lon="-2.06038">
        <ele>86.3</ele>
        <time>2019-07-16T06:20:20Z</time>
      </trkpt>
      <trkpt lat="48.26434" lon="-2.06034">
        <ele>86.1</ele>
        <time>2019-07-16T06:20:21Z</time>
      </trkpt>
      <trkpt lat="48.26433" lon="-2.0603">
        <ele>85.6</ele>
        <time>2019-07-16T06:20:22Z</time>
      </trkpt>
      <trkpt lat="48.26432" lon="-2.06026">
        <ele>85.7</ele>
        <time>2019-07-16T06:20:23Z</time>
      </trkpt>
      <trkpt lat="48.26432" lon="-2.06022">
        <ele>85.8</ele>
        <time>2019-07-16T06:20:24Z</time>
      </trkpt>
      <trkpt lat="48.26431" lon="-2.06018">
        <ele>86.1</ele>
        <time>2019-07-16T06:20:25Z</time>
      </trkpt>
      <trkpt lat="48.26431" lon="-2.06014">
        <ele>86.5</ele>
        <time>2019-07-16T06:20:26Z</time>
      </trkpt>
      <trkpt lat="48.2643" lon="-2.0601">
        <ele>86.6</ele>
        <time>2019-07-16T06:20:27Z</time>
      </trkpt>
      <trkpt lat="48.26429" lon="-2.06007">
        <ele>86.7</ele>
        <time>2019-07-16T06:20:28Z</time>
      </trkpt>
      <trkpt lat="48.26429" lon="-2.06003">
        <ele>86.9</ele>
        <time>2019-07-16T06:20:29Z</time>
      </trkpt>
      <trkpt lat="48.26428" lon="-2.05999">
        <ele>86.7</ele>
        <time>2019-07-16T06:20:30Z</time>
      </trkpt>
      <trkpt lat="48.26427" lon="-2.05995">
        <ele>86.8</ele>
        <time>2019-07-16T06:20:31Z</time>
      </trkpt>
      <trkpt lat="48.26426" lon="-2.05991">
        <ele>87</ele>
        <time>2019-07-16T06:20:32Z</time>
      </trkpt>
      <trkpt lat="48.26425" lon="-2.05987">
        <ele>87.1</ele>
        <time>2019-07-16T06:20:33Z</time>
      </trkpt>
      <trkpt lat="48.26424" lon="-2.05984">
        <ele>86.8</ele>
        <time>2019-07-16T06:20:34Z</time>
      </trkpt>
      <trkpt lat="48.26423" lon="-2.0598">
        <ele>86.7</ele>
        <time>2019-07-16T06:20:35Z</time>
      </trkpt>
      <trkpt lat="48.26422" lon="-2.05976">
        <ele>86.5</ele>
        <time>2019-07-16T06:20:36Z</time>
      </trkpt>
      <trkpt lat="48.26421" lon="-2.05972">
        <ele>86.3</ele>
        <time>2019-07-16T06:20:37Z</time>
      </trkpt>
      <trkpt lat="48.26419" lon="-2.05968">
        <ele>86.3</ele>
        <time>2019-07-16T06:20:38Z</time>
      </trkpt>
      <trkpt lat="48.26418" lon="-2.05964">
        <ele>86.4</ele>
        <time>2019-07-16T06:20:39Z</time>
      </trkpt>
      <trkpt lat="48.26417" lon="-2.05961">
        <ele>86.5</ele>
        <time>2019-07-16T06:20:40Z</time>
      </trkpt>
      <trkpt lat="48.26416" lon="-2.05957">
        <ele>86.4</ele>
        <time>2019-07-16T06:20:41Z</time>
      </trkpt>
      <trkpt lat="48.26415" lon="-2.05953">
        <ele>86.1</ele>
        <time>2019-07-16T06:20:42Z</time>
      </trkpt>
      <trkpt lat="48.26413" lon="-2.0595">
        <ele>86.4</ele>
        <time>2019-07-16T06:20:43Z</time>
      </trkpt>
      <trkpt lat="48.26411" lon="-2.05946">
        <ele>86.9</ele>
        <time>2019-07-16T06:20:44Z</time>
      </trkpt>
      <trkpt lat="48.2641" lon="-2.05942">
        <ele>87.4</ele>
        <time>2019-07-16T06:20:45Z</time>
      </trkpt>
      <trkpt lat="48.26408" lon="-2.05938">
        <ele>87.7</ele>
        <time>2019-07-16T06:20:46Z</time>
      </trkpt>
      <trkpt lat="48.26407" lon="-2.05934">
        <ele>88</ele>
        <time>2019-07-16T06:20:47Z</time>
      </trkpt>
      <trkpt lat="48.26405" lon="-2.0593">
        <ele>88.1</ele>
        <time>2019-07-16T06:20:48Z</time>
      </trkpt>
      <trkpt lat="48.26404" lon="-2.05926">
        <ele>88</ele>
        <time>2019-07-16T06:20:49Z</time>
      </trkpt>
      <trkpt lat="48.26402" lon="-2.05922">
        <ele>87.7</ele>
        <time>2019-07-16T06:20:50Z</time>
      </trkpt>
      <trkpt lat="48.26401" lon="-2.05918">
        <ele>87.4</ele>
        <time>2019-07-16T06:20:51Z</time>
      </trkpt>
      <trkpt lat="48.26399" lon="-2.05914">
        <ele>87</ele>
        <time>2019-07-16T06:20:52Z</time>
      </trkpt>
      <trkpt lat="48.26397" lon="-2.0591">
        <ele>86.7</ele>
        <time>2019-07-16T06:20:53Z</time>
      </trkpt>
      <trkpt lat="48.26396" lon="-2.05906">
        <ele>86.6</ele>
        <time>2019-07-16T06:20:54Z</time>
      </trkpt>
      <trkpt lat="48.26394" lon="-2.05902">
        <ele>86.5</ele>
        <time>2019-07-16T06:20:55Z</time>
      </trkpt>
      <trkpt lat="48.26392" lon="-2.05898">
        <ele>86.6</ele>
        <time>2019-07-16T06:20:56Z</time>
      </trkpt>
      <trkpt lat="48.26391" lon="-2.05893">
        <ele>86.4</ele>
        <time>2019-07-16T06:20:57Z</time>
      </trkpt>
      <trkpt lat="48.26389" lon="-2.05889">
        <ele>86.3</ele>
        <time>2019-07-16T06:20:58Z</time>
      </trkpt>
      <trkpt lat="48.26387" lon="-2.05885">
        <ele>86.1</ele>
        <time>2019-07-16T06:20:59Z</time>
      </trkpt>
      <trkpt lat="48.26386" lon="-2.05881">
        <ele>85.9</ele>
        <time>2019-07-16T06:21:00Z</time>
      </trkpt>
      <trkpt lat="48.26384" lon="-2.05877">
        <ele>85.5</ele>
        <time>2019-07-16T06:21:01Z</time>
      </trkpt>
      <trkpt lat="48.26382" lon="-2.05873">
        <ele>85</ele>
        <time>2019-07-16T06:21:02Z</time>
      </trkpt>
      <trkpt lat="48.2638" lon="-2.05868">
        <ele>84.5</ele>
        <time>2019-07-16T06:21:03Z</time>
      </trkpt>
      <trkpt lat="48.26378" lon="-2.05864">
        <ele>83.9</ele>
        <time>2019-07-16T06:21:04Z</time>
      </trkpt>
      <trkpt lat="48.26376" lon="-2.05859">
        <ele>83.5</ele>
        <time>2019-07-16T06:21:05Z</time>
      </trkpt>
      <trkpt lat="48.26375" lon="-2.05855">
        <ele>83.3</ele>
        <time>2019-07-16T06:21:06Z</time>
      </trkpt>
      <trkpt lat="48.26373" lon="-2.05851">
        <ele>83.2</ele>
        <time>2019-07-16T06:21:07Z</time>
      </trkpt>
      <trkpt lat="48.26371" lon="-2.05846">
        <ele>83</ele>
        <time>2019-07-16T06:21:08Z</time>
      </trkpt>
      <trkpt lat="48.26369" lon="-2.05841">
        <ele>82.8</ele>
        <time>2019-07-16T06:21:09Z</time>
      </trkpt>
      <trkpt lat="48.26367" lon="-2.05837">
        <ele>82.6</ele>
        <time>2019-07-16T06:21:10Z</time>
      </trkpt>
      <trkpt lat="48.26365" lon="-2.05832">
        <ele>82.5</ele>
        <time>2019-07-16T06:21:11Z</time>
      </trkpt>
      <trkpt lat="48.26363" lon="-2.05827">
        <ele>82.3</ele>
        <time>2019-07-16T06:21:12Z</time>
      </trkpt>
      <trkpt lat="48.26361" lon="-2.05822">
        <ele>82.2</ele>
        <time>2019-07-16T06:21:13Z</time>
      </trkpt>
      <trkpt lat="48.26359" lon="-2.05817">
        <ele>82.2</ele>
        <time>2019-07-16T06:21:14Z</time>
      </trkpt>
      <trkpt lat="48.26357" lon="-2.05812">
        <ele>82.3</ele>
        <time>2019-07-16T06:21:15Z</time>
      </trkpt>
      <trkpt lat="48.26354" lon="-2.05807">
        <ele>82.2</ele>
        <time>2019-07-16T06:21:16Z</time>
      </trkpt>
      <trkpt lat="48.26352" lon="-2.05801">
        <ele>82.1</ele>
        <time>2019-07-16T06:21:17Z</time>
      </trkpt>
      <trkpt lat="48.2635" lon="-2.05796">
        <ele>82.2</ele>
        <time>2019-07-16T06:21:18Z</time>
      </trkpt>
      <trkpt lat="48.26348" lon="-2.0579">
        <ele>82.3</ele>
        <time>2019-07-16T06:21:19Z</time>
      </trkpt>
      <trkpt lat="48.26345" lon="-2.05785">
        <ele>82.3</ele>
        <time>2019-07-16T06:21:20Z</time>
      </trkpt>
      <trkpt lat="48.26343" lon="-2.05779">
        <ele>82.3</ele>
        <time>2019-07-16T06:21:21Z</time>
      </trkpt>
      <trkpt lat="48.26341" lon="-2.05773">
        <ele>82</ele>
        <time>2019-07-16T06:21:22Z</time>
      </trkpt>
      <trkpt lat="48.26338" lon="-2.05767">
        <ele>81.8</ele>
        <time>2019-07-16T06:21:23Z</time>
      </trkpt>
      <trkpt lat="48.26335" lon="-2.05761">
        <ele>81.7</ele>
        <time>2019-07-16T06:21:24Z</time>
      </trkpt>
      <trkpt lat="48.26333" lon="-2.05754">
        <ele>81.5</ele>
        <time>2019-07-16T06:21:25Z</time>
      </trkpt>
      <trkpt lat="48.26329" lon="-2.05748">
        <ele>81.1</ele>
        <time>2019-07-16T06:21:26Z</time>
      </trkpt>
      <trkpt lat="48.26327" lon="-2.05741">
        <ele>80.9</ele>
        <time>2019-07-16T06:21:27Z</time>
      </trkpt>
      <trkpt lat="48.26324" lon="-2.05734">
        <ele>80.8</ele>
        <time>2019-07-16T06:21:28Z</time>
      </trkpt>
      <trkpt lat="48.26321" lon="-2.05728">
        <ele>80.6</ele>
        <time>2019-07-16T06:21:29Z</time>
      </trkpt>
      <trkpt lat="48.26318" lon="-2.0572">
        <ele>80.6</ele>
        <time>2019-07-16T06:21:30Z</time>
      </trkpt>
      <trkpt lat="48.26315" lon="-2.05713">
        <ele>80.5</ele>
        <time>2019-07-16T06:21:31Z</time>
      </trkpt>
      <trkpt lat="48.26312" lon="-2.05706">
        <ele>80.4</ele>
        <time>2019-07-16T06:21:32Z</time>
      </trkpt>
      <trkpt lat="48.26308" lon="-2.05698">
        <ele>80.4</ele>
        <time>2019-07-16T06:21:33Z</time>
      </trkpt>
      <trkpt lat="48.26305" lon="-2.0569">
        <ele>80.1</ele>
        <time>2019-07-16T06:21:34Z</time>
      </trkpt>
      <trkpt lat="48.26302" lon="-2.05682">
        <ele>79.7</ele>
        <time>2019-07-16T06:21:35Z</time>
      </trkpt>
      <trkpt lat="48.26299" lon="-2.05674">
        <ele>79.4</ele>
        <time>2019-07-16T06:21:36Z</time>
      </trkpt>
      <trkpt lat="48.26295" lon="-2.05665">
        <ele>79</ele>
        <time>2019-07-16T06:21:37Z</time>
      </trkpt>
      <trkpt lat="48.26291" lon="-2.05656">
        <ele>78.6</ele>
        <time>2019-07-16T06:21:38Z</time>
      </trkpt>
      <trkpt lat="48.26288" lon="-2.05647">
        <ele>78.3</ele>
        <time>2019-07-16T06:21:39Z</time>
      </trkpt>
      <trkpt lat="48.26284" lon="-2.05638">
        <ele>78.1</ele>
        <time>2019-07-16T06:21:40Z</time>
      </trkpt>
      <trkpt lat="48.2628" lon="-2.0563">
        <ele>77.9</ele>
        <time>2019-07-16T06:21:41Z</time>
      </trkpt>
      <trkpt lat="48.26276" lon="-2.05621">
        <ele>77.6</ele>
        <time>2019-07-16T06:21:42Z</time>
      </trkpt>
      <trkpt lat="48.26272" lon="-2.05611">
        <ele>77.4</ele>
        <time>2019-07-16T06:21:43Z</time>
      </trkpt>
      <trkpt lat="48.26268" lon="-2.05602">
        <ele>77.2</ele>
        <time>2019-07-16T06:21:44Z</time>
      </trkpt>
      <trkpt lat="48.26264" lon="-2.05592">
        <ele>76.9</ele>
        <time>2019-07-16T06:21:45Z</time>
      </trkpt>
      <trkpt lat="48.2626" lon="-2.05583">
        <ele>76.4</ele>
        <time>2019-07-16T06:21:46Z</time>
      </trkpt>
      <trkpt lat="48.26256" lon="-2.05573">
        <ele>76</ele>
        <time>2019-07-16T06:21:47Z</time>
      </trkpt>
      <trkpt lat="48.26252" lon="-2.05563">
        <ele>75.7</ele>
        <time>2019-07-16T06:21:48Z</time>
      </trkpt>
      <trkpt lat="48.26248" lon="-2.05554">
        <ele>75.4</ele>
        <time>2019-07-16T06:21:49Z</time>
      </trkpt>
      <trkpt lat="48.26244" lon="-2.05544">
        <ele>75</ele>
        <time>2019-07-16T06:21:50Z</time>
      </trkpt>
      <trkpt lat="48.26239" lon="-2.05534">
        <ele>74.5</ele>
        <time>2019-07-16T06:21:51Z</time>
      </trkpt>
      <trkpt lat="48.26236" lon="-2.05524">
        <ele>74.2</ele>
        <time>2019-07-16T06:21:52Z</time>
      </trkpt>
      <trkpt lat="48.26231" lon="-2.05514">
        <ele>73.8</ele>
        <time>2019-07-16T06:21:53Z</time>
      </trkpt>
      <trkpt lat="48.26227" lon="-2.05504">
        <ele>73.2</ele>
        <time>2019-07-16T06:21:54Z</time>
      </trkpt>
      <trkpt lat="48.26223" lon="-2.05494">
        <ele>72.7</ele>
        <time>2019-07-16T06:21:55Z</time>
      </trkpt>
      <trkpt lat="48.26218" lon="-2.05484">
        <ele>72.4</ele>
        <time>2019-07-16T06:21:56Z</time>
      </trkpt>
      <trkpt lat="48.26214" lon="-2.05474">
        <ele>72</ele>
        <time>2019-07-16T06:21:57Z</time>
      </trkpt>
      <trkpt lat="48.2621" lon="-2.05463">
        <ele>71.6</ele>
        <time>2019-07-16T06:21:58Z</time>
      </trkpt>
      <trkpt lat="48.26206" lon="-2.05453">
        <ele>71.6</ele>
        <time>2019-07-16T06:21:59Z</time>
      </trkpt>
      <trkpt lat="48.26202" lon="-2.05443">
        <ele>71.5</ele>
        <time>2019-07-16T06:22:00Z</time>
      </trkpt>
      <trkpt lat="48.26198" lon="-2.05433">
        <ele>71.2</ele>
        <time>2019-07-16T06:22:01Z</time>
      </trkpt>
      <trkpt lat="48.26194" lon="-2.05423">
        <ele>70.9</ele>
        <time>2019-07-16T06:22:02Z</time>
      </trkpt>
      <trkpt lat="48.2619" lon="-2.05413">
        <ele>70.5</ele>
        <time>2019-07-16T06:22:03Z</time>
      </trkpt>
      <trkpt lat="48.26185" lon="-2.05402">
        <ele>70.2</ele>
        <time>2019-07-16T06:22:04Z</time>
      </trkpt>
      <trkpt lat="48.26181" lon="-2.05392">
        <ele>69.8</ele>
        <time>2019-07-16T06:22:05Z</time>
      </trkpt>
      <trkpt lat="48.26176" lon="-2.05381">
        <ele>69.4</ele>
        <time>2019-07-16T06:22:06Z</time>
      </trkpt>
      <trkpt lat="48.26172" lon="-2.05371">
        <ele>69.1</ele>
        <time>2019-07-16T06:22:07Z</time>
      </trkpt>
      <trkpt lat="48.26168" lon="-2.0536">
        <ele>68.7</ele>
        <time>2019-07-16T06:22:08Z</time>
      </trkpt>
      <trkpt lat="48.26163" lon="-2.0535">
        <ele>68.2</ele>
        <time>2019-07-16T06:22:09Z</time>
      </trkpt>
      <trkpt lat="48.26159" lon="-2.05339">
        <ele>67.7</ele>
        <time>2019-07-16T06:22:10Z</time>
      </trkpt>
      <trkpt lat="48.26154" lon="-2.05328">
        <ele>67.4</ele>
        <time>2019-07-16T06:22:11Z</time>
      </trkpt>
      <trkpt lat="48.2615" lon="-2.05318">
        <ele>67</ele>
        <time>2019-07-16T06:22:12Z</time>
      </trkpt>
      <trkpt lat="48.26145" lon="-2.05307">
        <ele>66.6</ele>
        <time>2019-07-16T06:22:13Z</time>
      </trkpt>
      <trkpt lat="48.26141" lon="-2.05296">
        <ele>66.5</ele>
        <time>2019-07-16T06:22:14Z</time>
      </trkpt>
      <trkpt lat="48.26136" lon="-2.05286">
        <ele>66.2</ele>
        <time>2019-07-16T06:22:15Z</time>
      </trkpt>
      <trkpt lat="48.26132" lon="-2.05275">
        <ele>66</ele>
        <time>2019-07-16T06:22:16Z</time>
      </trkpt>
      <trkpt lat="48.26128" lon="-2.05264">
        <ele>65.8</ele>
        <time>2019-07-16T06:22:17Z</time>
      </trkpt>
      <trkpt lat="48.26123" lon="-2.05254">
        <ele>65.5</ele>
        <time>2019-07-16T06:22:18Z</time>
      </trkpt>
      <trkpt lat="48.26119" lon="-2.05244">
        <ele>65</ele>
        <time>2019-07-16T06:22:19Z</time>
      </trkpt>
      <trkpt lat="48.26115" lon="-2.05233">
        <ele>64.6</ele>
        <time>2019-07-16T06:22:20Z</time>
      </trkpt>
      <trkpt lat="48.26111" lon="-2.05223">
        <ele>64.4</ele>
        <time>2019-07-16T06:22:21Z</time>
      </trkpt>
      <trkpt lat="48.26106" lon="-2.05213">
        <ele>63.9</ele>
        <time>2019-07-16T06:22:22Z</time>
      </trkpt>
      <trkpt lat="48.26102" lon="-2.05203">
        <ele>63.6</ele>
        <time>2019-07-16T06:22:23Z</time>
      </trkpt>
      <trkpt lat="48.26098" lon="-2.05193">
        <ele>63</ele>
        <time>2019-07-16T06:22:24Z</time>
      </trkpt>
      <trkpt lat="48.26094" lon="-2.05183">
        <ele>62.8</ele>
        <time>2019-07-16T06:22:25Z</time>
      </trkpt>
      <trkpt lat="48.2609" lon="-2.05174">
        <ele>62.7</ele>
        <time>2019-07-16T06:22:26Z</time>
      </trkpt>
      <trkpt lat="48.26086" lon="-2.05165">
        <ele>62.8</ele>
        <time>2019-07-16T06:22:27Z</time>
      </trkpt>
      <trkpt lat="48.26083" lon="-2.05156">
        <ele>62.8</ele>
        <time>2019-07-16T06:22:28Z</time>
      </trkpt>
      <trkpt lat="48.26079" lon="-2.05147">
        <ele>63.3</ele>
        <time>2019-07-16T06:22:29Z</time>
      </trkpt>
      <trkpt lat="48.26076" lon="-2.05138">
        <ele>63.2</ele>
        <time>2019-07-16T06:22:30Z</time>
      </trkpt>
      <trkpt lat="48.26074" lon="-2.0513">
        <ele>63.4</ele>
        <time>2019-07-16T06:22:31Z</time>
      </trkpt>
      <trkpt lat="48.26071" lon="-2.05122">
        <ele>63.8</ele>
        <time>2019-07-16T06:22:32Z</time>
      </trkpt>
      <trkpt lat="48.26069" lon="-2.05114">
        <ele>64.5</ele>
        <time>2019-07-16T06:22:33Z</time>
      </trkpt>
      <trkpt lat="48.26066" lon="-2.05107">
        <ele>64.9</ele>
        <time>2019-07-16T06:22:34Z</time>
      </trkpt>
      <trkpt lat="48.26064" lon="-2.05099">
        <ele>65</ele>
        <time>2019-07-16T06:22:35Z</time>
      </trkpt>
      <trkpt lat="48.26061" lon="-2.05091">
        <ele>65</ele>
        <time>2019-07-16T06:22:36Z</time>
      </trkpt>
      <trkpt lat="48.26059" lon="-2.05084">
        <ele>64.8</ele>
        <time>2019-07-16T06:22:37Z</time>
      </trkpt>
      <trkpt lat="48.26057" lon="-2.05077">
        <ele>64.9</ele>
        <time>2019-07-16T06:22:38Z</time>
      </trkpt>
      <trkpt lat="48.26056" lon="-2.0507">
        <ele>65.1</ele>
        <time>2019-07-16T06:22:39Z</time>
      </trkpt>
      <trkpt lat="48.26054" lon="-2.05064">
        <ele>65.2</ele>
        <time>2019-07-16T06:22:40Z</time>
      </trkpt>
      <trkpt lat="48.26053" lon="-2.05058">
        <ele>65.3</ele>
        <time>2019-07-16T06:22:41Z</time>
      </trkpt>
      <trkpt lat="48.26051" lon="-2.05052">
        <ele>65.3</ele>
        <time>2019-07-16T06:22:42Z</time>
      </trkpt>
      <trkpt lat="48.26051" lon="-2.05047">
        <ele>65.4</ele>
        <time>2019-07-16T06:22:43Z</time>
      </trkpt>
      <trkpt lat="48.2605" lon="-2.05041">
        <ele>65.4</ele>
        <time>2019-07-16T06:22:44Z</time>
      </trkpt>
      <trkpt lat="48.26049" lon="-2.05037">
        <ele>65.3</ele>
        <time>2019-07-16T06:22:45Z</time>
      </trkpt>
      <trkpt lat="48.26049" lon="-2.05032">
        <ele>65.8</ele>
        <time>2019-07-16T06:22:46Z</time>
      </trkpt>
      <trkpt lat="48.26048" lon="-2.05027">
        <ele>66.3</ele>
        <time>2019-07-16T06:22:47Z</time>
      </trkpt>
      <trkpt lat="48.26048" lon="-2.05023">
        <ele>66.3</ele>
        <time>2019-07-16T06:22:48Z</time>
      </trkpt>
      <trkpt lat="48.26048" lon="-2.05019">
        <ele>66.2</ele>
        <time>2019-07-16T06:22:49Z</time>
      </trkpt>
      <trkpt lat="48.26047" lon="-2.05015">
        <ele>66.2</ele>
        <time>2019-07-16T06:22:50Z</time>
      </trkpt>
      <trkpt lat="48.26047" lon="-2.0501">
        <ele>66</ele>
        <time>2019-07-16T06:22:51Z</time>
      </trkpt>
      <trkpt lat="48.26046" lon="-2.05006">
        <ele>66</ele>
        <time>2019-07-16T06:22:52Z</time>
      </trkpt>
      <trkpt lat="48.26046" lon="-2.05002">
        <ele>66</ele>
        <time>2019-07-16T06:22:53Z</time>
      </trkpt>
      <trkpt lat="48.26046" lon="-2.04998">
        <ele>66.3</ele>
        <time>2019-07-16T06:22:54Z</time>
      </trkpt>
      <trkpt lat="48.26046" lon="-2.04994">
        <ele>66.4</ele>
        <time>2019-07-16T06:22:55Z</time>
      </trkpt>
      <trkpt lat="48.26046" lon="-2.0499">
        <ele>66.4</ele>
        <time>2019-07-16T06:22:56Z</time>
      </trkpt>
      <trkpt lat="48.26046" lon="-2.04986">
        <ele>66.3</ele>
        <time>2019-07-16T06:22:57Z</time>
      </trkpt>
      <trkpt lat="48.26046" lon="-2.04982">
        <ele>66.6</ele>
        <time>2019-07-16T06:22:58Z</time>
      </trkpt>
      <trkpt lat="48.26045" lon="-2.04978">
        <ele>66.6</ele>
        <time>2019-07-16T06:22:59Z</time>
      </trkpt>
      <trkpt lat="48.26045" lon="-2.04974">
        <ele>66.6</ele>
        <time>2019-07-16T06:23:00Z</time>
      </trkpt>
      <trkpt lat="48.26045" lon="-2.0497">
        <ele>66.6</ele>
        <time>2019-07-16T06:23:01Z</time>
      </trkpt>
      <trkpt lat="48.26045" lon="-2.04966">
        <ele>66.7</ele>
        <time>2019-07-16T06:23:02Z</time>
      </trkpt>
      <trkpt lat="48.26045" lon="-2.04962">
        <ele>66.9</ele>
        <time>2019-07-16T06:23:03Z</time>
      </trkpt>
      <trkpt lat="48.26045" lon="-2.04958">
        <ele>67</ele>
        <time>2019-07-16T06:23:04Z</time>
      </trkpt>
      <trkpt lat="48.26045" lon="-2.04955">
        <ele>67.2</ele>
        <time>2019-07-16T06:23:05Z</time>
      </trkpt>
      <trkpt lat="48.26045" lon="-2.04951">
        <ele>67.3</ele>
        <time>2019-07-16T06:23:06Z</time>
      </trkpt>
      <trkpt lat="48.26045" lon="-2.04947">
        <ele>67.4</ele>
        <time>2019-07-16T06:23:07Z</time>
      </trkpt>
      <trkpt lat="48.26045" lon="-2.04943">
        <ele>67.7</ele>
        <time>2019-07-16T06:23:08Z</time>
      </trkpt>
      <trkpt lat="48.26045" lon="-2.04939">
        <ele>67.9</ele>
        <time>2019-07-16T06:23:09Z</time>
      </trkpt>
      <trkpt lat="48.26044" lon="-2.04936">
        <ele>68.2</ele>
        <time>2019-07-16T06:23:10Z</time>
      </trkpt>
      <trkpt lat="48.26043" lon="-2.04932">
        <ele>68.3</ele>
        <time>2019-07-16T06:23:11Z</time>
      </trkpt>
      <trkpt lat="48.26043" lon="-2.04928">
        <ele>68.6</ele>
        <time>2019-07-16T06:23:12Z</time>
      </trkpt>
      <trkpt lat="48.26043" lon="-2.04924">
        <ele>68.8</ele>
        <time>2019-07-16T06:23:13Z</time>
      </trkpt>
      <trkpt lat="48.26043" lon="-2.0492">
        <ele>68.9</ele>
        <time>2019-07-16T06:23:14Z</time>
      </trkpt>
      <trkpt lat="48.26043" lon="-2.04916">
        <ele>69.1</ele>
        <time>2019-07-16T06:23:15Z</time>
      </trkpt>
      <trkpt lat="48.26043" lon="-2.04913">
        <ele>69.2</ele>
        <time>2019-07-16T06:23:16Z</time>
      </trkpt>
      <trkpt lat="48.26042" lon="-2.04909">
        <ele>69.3</ele>
        <time>2019-07-16T06:23:17Z</time>
      </trkpt>
      <trkpt lat="48.26042" lon="-2.04905">
        <ele>69.4</ele>
        <time>2019-07-16T06:23:18Z</time>
      </trkpt>
      <trkpt lat="48.26042" lon="-2.04902">
        <ele>69.5</ele>
        <time>2019-07-16T06:23:19Z</time>
      </trkpt>
      <trkpt lat="48.26041" lon="-2.04898">
        <ele>69.6</ele>
        <time>2019-07-16T06:23:20Z</time>
      </trkpt>
      <trkpt lat="48.26041" lon="-2.04895">
        <ele>69.6</ele>
        <time>2019-07-16T06:23:21Z</time>
      </trkpt>
      <trkpt lat="48.26041" lon="-2.04891">
        <ele>69.9</ele>
        <time>2019-07-16T06:23:22Z</time>
      </trkpt>
      <trkpt lat="48.26041" lon="-2.04887">
        <ele>70.2</ele>
        <time>2019-07-16T06:23:23Z</time>
      </trkpt>
      <trkpt lat="48.26041" lon="-2.04883">
        <ele>70.5</ele>
        <time>2019-07-16T06:23:24Z</time>
      </trkpt>
      <trkpt lat="48.26041" lon="-2.04879">
        <ele>70.8</ele>
        <time>2019-07-16T06:23:25Z</time>
      </trkpt>
      <trkpt lat="48.26041" lon="-2.04876">
        <ele>71.2</ele>
        <time>2019-07-16T06:23:26Z</time>
      </trkpt>
      <trkpt lat="48.26041" lon="-2.04872">
        <ele>71.5</ele>
        <time>2019-07-16T06:23:27Z</time>
      </trkpt>
      <trkpt lat="48.26041" lon="-2.04868">
        <ele>71.6</ele>
        <time>2019-07-16T06:23:28Z</time>
      </trkpt>
      <trkpt lat="48.26041" lon="-2.04864">
        <ele>71.9</ele>
        <time>2019-07-16T06:23:29Z</time>
      </trkpt>
      <trkpt lat="48.2604" lon="-2.0486">
        <ele>72.1</ele>
        <time>2019-07-16T06:23:30Z</time>
      </trkpt>
      <trkpt lat="48.2604" lon="-2.04856">
        <ele>72.3</ele>
        <time>2019-07-16T06:23:31Z</time>
      </trkpt>
      <trkpt lat="48.2604" lon="-2.04853">
        <ele>72.4</ele>
        <time>2019-07-16T06:23:32Z</time>
      </trkpt>
      <trkpt lat="48.2604" lon="-2.04849">
        <ele>72.6</ele>
        <time>2019-07-16T06:23:33Z</time>
      </trkpt>
      <trkpt lat="48.2604" lon="-2.04845">
        <ele>72.7</ele>
        <time>2019-07-16T06:23:34Z</time>
      </trkpt>
      <trkpt lat="48.2604" lon="-2.04841">
        <ele>72.8</ele>
        <time>2019-07-16T06:23:35Z</time>
      </trkpt>
      <trkpt lat="48.2604" lon="-2.04838">
        <ele>72.9</ele>
        <time>2019-07-16T06:23:36Z</time>
      </trkpt>
      <trkpt lat="48.2604" lon="-2.04834">
        <ele>72.7</ele>
        <time>2019-07-16T06:23:37Z</time>
      </trkpt>
      <trkpt lat="48.26039" lon="-2.0483">
        <ele>72.7</ele>
        <time>2019-07-16T06:23:38Z</time>
      </trkpt>
      <trkpt lat="48.26039" lon="-2.04826">
        <ele>72.8</ele>
        <time>2019-07-16T06:23:39Z</time>
      </trkpt>
      <trkpt lat="48.26038" lon="-2.04823">
        <ele>72.8</ele>
        <time>2019-07-16T06:23:40Z</time>
      </trkpt>
      <trkpt lat="48.26038" lon="-2.04819">
        <ele>72.8</ele>
        <time>2019-07-16T06:23:41Z</time>
      </trkpt>
      <trkpt lat="48.26037" lon="-2.04815">
        <ele>73.1</ele>
        <time>2019-07-16T06:23:42Z</time>
      </trkpt>
      <trkpt lat="48.26038" lon="-2.04811">
        <ele>73.1</ele>
        <time>2019-07-16T06:23:43Z</time>
      </trkpt>
      <trkpt lat="48.26038" lon="-2.04808">
        <ele>73.4</ele>
        <time>2019-07-16T06:23:44Z</time>
      </trkpt>
      <trkpt lat="48.26037" lon="-2.04804">
        <ele>73.5</ele>
        <time>2019-07-16T06:23:45Z</time>
      </trkpt>
      <trkpt lat="48.26037" lon="-2.04801">
        <ele>73.6</ele>
        <time>2019-07-16T06:23:46Z</time>
      </trkpt>
      <trkpt lat="48.26036" lon="-2.04797">
        <ele>73.8</ele>
        <time>2019-07-16T06:23:47Z</time>
      </trkpt>
      <trkpt lat="48.26036" lon="-2.04793">
        <ele>74.2</ele>
        <time>2019-07-16T06:23:48Z</time>
      </trkpt>
      <trkpt lat="48.26035" lon="-2.04789">
        <ele>74.5</ele>
        <time>2019-07-16T06:23:49Z</time>
      </trkpt>
      <trkpt lat="48.26036" lon="-2.04786">
        <ele>74.9</ele>
        <time>2019-07-16T06:23:50Z</time>
      </trkpt>
      <trkpt lat="48.26035" lon="-2.04782">
        <ele>74.9</ele>
        <time>2019-07-16T06:23:51Z</time>
      </trkpt>
      <trkpt lat="48.26035" lon="-2.04778">
        <ele>74.8</ele>
        <time>2019-07-16T06:23:52Z</time>
      </trkpt>
      <trkpt lat="48.26035" lon="-2.04775">
        <ele>75</ele>
        <time>2019-07-16T06:23:53Z</time>
      </trkpt>
      <trkpt lat="48.26035" lon="-2.04771">
        <ele>75.2</ele>
        <time>2019-07-16T06:23:54Z</time>
      </trkpt>
      <trkpt lat="48.26035" lon="-2.04767">
        <ele>75.6</ele>
        <time>2019-07-16T06:23:55Z</time>
      </trkpt>
      <trkpt lat="48.26035" lon="-2.04763">
        <ele>76</ele>
        <time>2019-07-16T06:23:56Z</time>
      </trkpt>
      <trkpt lat="48.26035" lon="-2.04759">
        <ele>76.1</ele>
        <time>2019-07-16T06:23:57Z</time>
      </trkpt>
      <trkpt lat="48.26035" lon="-2.04756">
        <ele>76.2</ele>
        <time>2019-07-16T06:23:58Z</time>
      </trkpt>
      <trkpt lat="48.26035" lon="-2.04752">
        <ele>76.3</ele>
        <time>2019-07-16T06:23:59Z</time>
      </trkpt>
      <trkpt lat="48.26034" lon="-2.04748">
        <ele>76.1</ele>
        <time>2019-07-16T06:24:00Z</time>
      </trkpt>
      <trkpt lat="48.26034" lon="-2.04744">
        <ele>76.2</ele>
        <time>2019-07-16T06:24:01Z</time>
      </trkpt>
      <trkpt lat="48.26034" lon="-2.0474">
        <ele>76.2</ele>
        <time>2019-07-16T06:24:02Z</time>
      </trkpt>
      <trkpt lat="48.26034" lon="-2.04736">
        <ele>76.3</ele>
        <time>2019-07-16T06:24:03Z</time>
      </trkpt>
      <trkpt lat="48.26035" lon="-2.04733">
        <ele>76.7</ele>
        <time>2019-07-16T06:24:04Z</time>
      </trkpt>
      <trkpt lat="48.26035" lon="-2.04729">
        <ele>76.8</ele>
        <time>2019-07-16T06:24:05Z</time>
      </trkpt>
      <trkpt lat="48.26035" lon="-2.04725">
        <ele>76.9</ele>
        <time>2019-07-16T06:24:06Z</time>
      </trkpt>
      <trkpt lat="48.26035" lon="-2.04721">
        <ele>76.8</ele>
        <time>2019-07-16T06:24:07Z</time>
      </trkpt>
      <trkpt lat="48.26035" lon="-2.04717">
        <ele>77.1</ele>
        <time>2019-07-16T06:24:08Z</time>
      </trkpt>
      <trkpt lat="48.26036" lon="-2.04713">
        <ele>77.6</ele>
        <time>2019-07-16T06:24:09Z</time>
      </trkpt>
      <trkpt lat="48.26036" lon="-2.0471">
        <ele>77.5</ele>
        <time>2019-07-16T06:24:10Z</time>
      </trkpt>
      <trkpt lat="48.26036" lon="-2.04706">
        <ele>77.3</ele>
        <time>2019-07-16T06:24:11Z</time>
      </trkpt>
      <trkpt lat="48.26036" lon="-2.04702">
        <ele>77.1</ele>
        <time>2019-07-16T06:24:12Z</time>
      </trkpt>
      <trkpt lat="48.26036" lon="-2.04697">
        <ele>77.1</ele>
        <time>2019-07-16T06:24:13Z</time>
      </trkpt>
      <trkpt lat="48.26035" lon="-2.04693">
        <ele>77.1</ele>
        <time>2019-07-16T06:24:14Z</time>
      </trkpt>
      <trkpt lat="48.26035" lon="-2.04689">
        <ele>77.1</ele>
        <time>2019-07-16T06:24:15Z</time>
      </trkpt>
      <trkpt lat="48.26034" lon="-2.04685">
        <ele>77.2</ele>
        <time>2019-07-16T06:24:16Z</time>
      </trkpt>
      <trkpt lat="48.26034" lon="-2.04681">
        <ele>77.2</ele>
        <time>2019-07-16T06:24:17Z</time>
      </trkpt>
      <trkpt lat="48.26033" lon="-2.04677">
        <ele>77.2</ele>
        <time>2019-07-16T06:24:18Z</time>
      </trkpt>
      <trkpt lat="48.26033" lon="-2.04673">
        <ele>77.6</ele>
        <time>2019-07-16T06:24:19Z</time>
      </trkpt>
      <trkpt lat="48.26034" lon="-2.04669">
        <ele>77.7</ele>
        <time>2019-07-16T06:24:20Z</time>
      </trkpt>
      <trkpt lat="48.26034" lon="-2.04665">
        <ele>77.8</ele>
        <time>2019-07-16T06:24:21Z</time>
      </trkpt>
      <trkpt lat="48.26034" lon="-2.04661">
        <ele>78.6</ele>
        <time>2019-07-16T06:24:22Z</time>
      </trkpt>
      <trkpt lat="48.26035" lon="-2.04657">
        <ele>78.9</ele>
        <time>2019-07-16T06:24:23Z</time>
      </trkpt>
      <trkpt lat="48.26034" lon="-2.04653">
        <ele>78.9</ele>
        <time>2019-07-16T06:24:24Z</time>
      </trkpt>
      <trkpt lat="48.26034" lon="-2.04649">
        <ele>78.8</ele>
        <time>2019-07-16T06:24:25Z</time>
      </trkpt>
      <trkpt lat="48.26034" lon="-2.04645">
        <ele>78.6</ele>
        <time>2019-07-16T06:24:26Z</time>
      </trkpt>
      <trkpt lat="48.26033" lon="-2.04641">
        <ele>78.6</ele>
        <time>2019-07-16T06:24:27Z</time>
      </trkpt>
      <trkpt lat="48.26033" lon="-2.04637">
        <ele>78.7</ele>
        <time>2019-07-16T06:24:28Z</time>
      </trkpt>
      <trkpt lat="48.26033" lon="-2.04633">
        <ele>79</ele>
        <time>2019-07-16T06:24:29Z</time>
      </trkpt>
      <trkpt lat="48.26033" lon="-2.04629">
        <ele>79.4</ele>
        <time>2019-07-16T06:24:30Z</time>
      </trkpt>
      <trkpt lat="48.26033" lon="-2.04625">
        <ele>79.5</ele>
        <time>2019-07-16T06:24:31Z</time>
      </trkpt>
      <trkpt lat="48.26033" lon="-2.04621">
        <ele>79.9</ele>
        <time>2019-07-16T06:24:32Z</time>
      </trkpt>
      <trkpt lat="48.26033" lon="-2.04617">
        <ele>80</ele>
        <time>2019-07-16T06:24:33Z</time>
      </trkpt>
      <trkpt lat="48.26033" lon="-2.04613">
        <ele>80</ele>
        <time>2019-07-16T06:24:34Z</time>
      </trkpt>
      <trkpt lat="48.26032" lon="-2.04609">
        <ele>80.1</ele>
        <time>2019-07-16T06:24:35Z</time>
      </trkpt>
      <trkpt lat="48.26032" lon="-2.04605">
        <ele>80.2</ele>
        <time>2019-07-16T06:24:36Z</time>
      </trkpt>
      <trkpt lat="48.26032" lon="-2.04601">
        <ele>80.1</ele>
        <time>2019-07-16T06:24:37Z</time>
      </trkpt>
      <trkpt lat="48.26032" lon="-2.04596">
        <ele>79.9</ele>
        <time>2019-07-16T06:24:38Z</time>
      </trkpt>
      <trkpt lat="48.26032" lon="-2.04592">
        <ele>79.9</ele>
        <time>2019-07-16T06:24:39Z</time>
      </trkpt>
      <trkpt lat="48.26032" lon="-2.04588">
        <ele>79.8</ele>
        <time>2019-07-16T06:24:40Z</time>
      </trkpt>
      <trkpt lat="48.26032" lon="-2.04584">
        <ele>79.8</ele>
        <time>2019-07-16T06:24:41Z</time>
      </trkpt>
      <trkpt lat="48.26032" lon="-2.0458">
        <ele>79.9</ele>
        <time>2019-07-16T06:24:42Z</time>
      </trkpt>
      <trkpt lat="48.26031" lon="-2.04576">
        <ele>80.3</ele>
        <time>2019-07-16T06:24:43Z</time>
      </trkpt>
      <trkpt lat="48.2603" lon="-2.04572">
        <ele>80.7</ele>
        <time>2019-07-16T06:24:44Z</time>
      </trkpt>
      <trkpt lat="48.2603" lon="-2.04568">
        <ele>80.8</ele>
        <time>2019-07-16T06:24:45Z</time>
      </trkpt>
      <trkpt lat="48.2603" lon="-2.04564">
        <ele>81.1</ele>
        <time>2019-07-16T06:24:46Z</time>
      </trkpt>
      <trkpt lat="48.2603" lon="-2.0456">
        <ele>81.1</ele>
        <time>2019-07-16T06:24:47Z</time>
      </trkpt>
      <trkpt lat="48.2603" lon="-2.04556">
        <ele>81.1</ele>
        <time>2019-07-16T06:24:48Z</time>
      </trkpt>
      <trkpt lat="48.26029" lon="-2.04552">
        <ele>81.1</ele>
        <time>2019-07-16T06:24:49Z</time>
      </trkpt>
      <trkpt lat="48.26029" lon="-2.04548">
        <ele>81</ele>
        <time>2019-07-16T06:24:50Z</time>
      </trkpt>
      <trkpt lat="48.26029" lon="-2.04544">
        <ele>81.1</ele>
        <time>2019-07-16T06:24:51Z</time>
      </trkpt>
      <trkpt lat="48.26029" lon="-2.0454">
        <ele>80.8</ele>
        <time>2019-07-16T06:24:52Z</time>
      </trkpt>
      <trkpt lat="48.26029" lon="-2.04536">
        <ele>81</ele>
        <time>2019-07-16T06:24:53Z</time>
      </trkpt>
      <trkpt lat="48.26029" lon="-2.04532">
        <ele>81.2</ele>
        <time>2019-07-16T06:24:54Z</time>
      </trkpt>
      <trkpt lat="48.26028" lon="-2.04528">
        <ele>81.5</ele>
        <time>2019-07-16T06:24:55Z</time>
      </trkpt>
      <trkpt lat="48.26028" lon="-2.04524">
        <ele>81.7</ele>
        <time>2019-07-16T06:24:56Z</time>
      </trkpt>
      <trkpt lat="48.26028" lon="-2.0452">
        <ele>81.9</ele>
        <time>2019-07-16T06:24:57Z</time>
      </trkpt>
      <trkpt lat="48.26027" lon="-2.04516">
        <ele>82</ele>
        <time>2019-07-16T06:24:58Z</time>
      </trkpt>
      <trkpt lat="48.26027" lon="-2.04512">
        <ele>82.3</ele>
        <time>2019-07-16T06:24:59Z</time>
      </trkpt>
      <trkpt lat="48.26027" lon="-2.04508">
        <ele>82.5</ele>
        <time>2019-07-16T06:25:00Z</time>
      </trkpt>
      <trkpt lat="48.26027" lon="-2.04504">
        <ele>82.5</ele>
        <time>2019-07-16T06:25:01Z</time>
      </trkpt>
      <trkpt lat="48.26027" lon="-2.045">
        <ele>82.7</ele>
        <time>2019-07-16T06:25:02Z</time>
      </trkpt>
      <trkpt lat="48.26026" lon="-2.04496">
        <ele>82.8</ele>
        <time>2019-07-16T06:25:03Z</time>
      </trkpt>
      <trkpt lat="48.26026" lon="-2.04491">
        <ele>83</ele>
        <time>2019-07-16T06:25:04Z</time>
      </trkpt>
      <trkpt lat="48.26025" lon="-2.04487">
        <ele>83.3</ele>
        <time>2019-07-16T06:25:05Z</time>
      </trkpt>
      <trkpt lat="48.26025" lon="-2.04483">
        <ele>83.5</ele>
        <time>2019-07-16T06:25:06Z</time>
      </trkpt>
      <trkpt lat="48.26024" lon="-2.04479">
        <ele>83.6</ele>
        <time>2019-07-16T06:25:07Z</time>
      </trkpt>
      <trkpt lat="48.26024" lon="-2.04475">
        <ele>83.5</ele>
        <time>2019-07-16T06:25:08Z</time>
      </trkpt>
      <trkpt lat="48.26023" lon="-2.04471">
        <ele>83.4</ele>
        <time>2019-07-16T06:25:09Z</time>
      </trkpt>
      <trkpt lat="48.26022" lon="-2.04467">
        <ele>83.2</ele>
        <time>2019-07-16T06:25:10Z</time>
      </trkpt>
      <trkpt lat="48.26021" lon="-2.04463">
        <ele>83.1</ele>
        <time>2019-07-16T06:25:11Z</time>
      </trkpt>
      <trkpt lat="48.2602" lon="-2.04459">
        <ele>82.8</ele>
        <time>2019-07-16T06:25:12Z</time>
      </trkpt>
      <trkpt lat="48.2602" lon="-2.04456">
        <ele>82.5</ele>
        <time>2019-07-16T06:25:13Z</time>
      </trkpt>
      <trkpt lat="48.26019" lon="-2.04452">
        <ele>82.4</ele>
        <time>2019-07-16T06:25:14Z</time>
      </trkpt>
      <trkpt lat="48.26019" lon="-2.04448">
        <ele>82.3</ele>
        <time>2019-07-16T06:25:15Z</time>
      </trkpt>
      <trkpt lat="48.26018" lon="-2.04444">
        <ele>82.1</ele>
        <time>2019-07-16T06:25:16Z</time>
      </trkpt>
      <trkpt lat="48.26017" lon="-2.0444">
        <ele>82.1</ele>
        <time>2019-07-16T06:25:17Z</time>
      </trkpt>
      <trkpt lat="48.26016" lon="-2.04437">
        <ele>82</ele>
        <time>2019-07-16T06:25:18Z</time>
      </trkpt>
      <trkpt lat="48.26014" lon="-2.04433">
        <ele>82.3</ele>
        <time>2019-07-16T06:25:19Z</time>
      </trkpt>
      <trkpt lat="48.26014" lon="-2.04429">
        <ele>82.2</ele>
        <time>2019-07-16T06:25:20Z</time>
      </trkpt>
      <trkpt lat="48.26012" lon="-2.04426">
        <ele>82.4</ele>
        <time>2019-07-16T06:25:21Z</time>
      </trkpt>
      <trkpt lat="48.26012" lon="-2.04422">
        <ele>82.7</ele>
        <time>2019-07-16T06:25:22Z</time>
      </trkpt>
      <trkpt lat="48.26011" lon="-2.04418">
        <ele>82.8</ele>
        <time>2019-07-16T06:25:23Z</time>
      </trkpt>
      <trkpt lat="48.26009" lon="-2.04415">
        <ele>83</ele>
        <time>2019-07-16T06:25:24Z</time>
      </trkpt>
      <trkpt lat="48.26008" lon="-2.04411">
        <ele>83.1</ele>
        <time>2019-07-16T06:25:25Z</time>
      </trkpt>
      <trkpt lat="48.26007" lon="-2.04407">
        <ele>83.2</ele>
        <time>2019-07-16T06:25:26Z</time>
      </trkpt>
      <trkpt lat="48.26006" lon="-2.04403">
        <ele>83.4</ele>
        <time>2019-07-16T06:25:27Z</time>
      </trkpt>
      <trkpt lat="48.26005" lon="-2.04399">
        <ele>83.7</ele>
        <time>2019-07-16T06:25:28Z</time>
      </trkpt>
      <trkpt lat="48.26004" lon="-2.04396">
        <ele>83.9</ele>
        <time>2019-07-16T06:25:29Z</time>
      </trkpt>
      <trkpt lat="48.26003" lon="-2.04392">
        <ele>84</ele>
        <time>2019-07-16T06:25:30Z</time>
      </trkpt>
      <trkpt lat="48.26001" lon="-2.04388">
        <ele>84.2</ele>
        <time>2019-07-16T06:25:31Z</time>
      </trkpt>
      <trkpt lat="48.26" lon="-2.04385">
        <ele>84.3</ele>
        <time>2019-07-16T06:25:32Z</time>
      </trkpt>
      <trkpt lat="48.25999" lon="-2.04381">
        <ele>84.3</ele>
        <time>2019-07-16T06:25:33Z</time>
      </trkpt>
      <trkpt lat="48.25998" lon="-2.04377">
        <ele>84.4</ele>
        <time>2019-07-16T06:25:34Z</time>
      </trkpt>
      <trkpt lat="48.25997" lon="-2.04374">
        <ele>84.8</ele>
        <time>2019-07-16T06:25:35Z</time>
      </trkpt>
      <trkpt lat="48.25995" lon="-2.0437">
        <ele>84.9</ele>
        <time>2019-07-16T06:25:36Z</time>
      </trkpt>
      <trkpt lat="48.25994" lon="-2.04367">
        <ele>85.2</ele>
        <time>2019-07-16T06:25:37Z</time>
      </trkpt>
      <trkpt lat="48.25993" lon="-2.04363">
        <ele>85.3</ele>
        <time>2019-07-16T06:25:38Z</time>
      </trkpt>
      <trkpt lat="48.25991" lon="-2.04359">
        <ele>85.4</ele>
        <time>2019-07-16T06:25:39Z</time>
      </trkpt>
      <trkpt lat="48.25991" lon="-2.04356">
        <ele>85.4</ele>
        <time>2019-07-16T06:25:40Z</time>
      </trkpt>
      <trkpt lat="48.25989" lon="-2.04352">
        <ele>85.3</ele>
        <time>2019-07-16T06:25:41Z</time>
      </trkpt>
      <trkpt lat="48.25988" lon="-2.04348">
        <ele>85</ele>
        <time>2019-07-16T06:25:42Z</time>
      </trkpt>
      <trkpt lat="48.25987" lon="-2.04344">
        <ele>84.9</ele>
        <time>2019-07-16T06:25:43Z</time>
      </trkpt>
      <trkpt lat="48.25985" lon="-2.04341">
        <ele>84.9</ele>
        <time>2019-07-16T06:25:44Z</time>
      </trkpt>
      <trkpt lat="48.25985" lon="-2.04337">
        <ele>84.8</ele>
        <time>2019-07-16T06:25:45Z</time>
      </trkpt>
      <trkpt lat="48.25983" lon="-2.04333">
        <ele>84.8</ele>
        <time>2019-07-16T06:25:46Z</time>
      </trkpt>
      <trkpt lat="48.25982" lon="-2.04329">
        <ele>84.9</ele>
        <time>2019-07-16T06:25:47Z</time>
      </trkpt>
      <trkpt lat="48.25981" lon="-2.04326">
        <ele>85.2</ele>
        <time>2019-07-16T06:25:48Z</time>
      </trkpt>
      <trkpt lat="48.2598" lon="-2.04322">
        <ele>85.1</ele>
        <time>2019-07-16T06:25:49Z</time>
      </trkpt>
      <trkpt lat="48.25979" lon="-2.04318">
        <ele>85.1</ele>
        <time>2019-07-16T06:25:50Z</time>
      </trkpt>
      <trkpt lat="48.25979" lon="-2.04314">
        <ele>85.3</ele>
        <time>2019-07-16T06:25:51Z</time>
      </trkpt>
      <trkpt lat="48.25977" lon="-2.04311">
        <ele>85.4</ele>
        <time>2019-07-16T06:25:52Z</time>
      </trkpt>
      <trkpt lat="48.25976" lon="-2.04307">
        <ele>85.4</ele>
        <time>2019-07-16T06:25:53Z</time>
      </trkpt>
      <trkpt lat="48.25975" lon="-2.04303">
        <ele>85.5</ele>
        <time>2019-07-16T06:25:54Z</time>
      </trkpt>
      <trkpt lat="48.25974" lon="-2.043">
        <ele>85.7</ele>
        <time>2019-07-16T06:25:55Z</time>
      </trkpt>
      <trkpt lat="48.25973" lon="-2.04296">
        <ele>86</ele>
        <time>2019-07-16T06:25:56Z</time>
      </trkpt>
      <trkpt lat="48.25971" lon="-2.04292">
        <ele>86.2</ele>
        <time>2019-07-16T06:25:57Z</time>
      </trkpt>
      <trkpt lat="48.2597" lon="-2.04288">
        <ele>86.3</ele>
        <time>2019-07-16T06:25:58Z</time>
      </trkpt>
      <trkpt lat="48.25969" lon="-2.04285">
        <ele>86.7</ele>
        <time>2019-07-16T06:25:59Z</time>
      </trkpt>
      <trkpt lat="48.25968" lon="-2.04281">
        <ele>86.6</ele>
        <time>2019-07-16T06:26:00Z</time>
      </trkpt>
      <trkpt lat="48.25967" lon="-2.04277">
        <ele>86.8</ele>
        <time>2019-07-16T06:26:01Z</time>
      </trkpt>
      <trkpt lat="48.25966" lon="-2.04273">
        <ele>86.9</ele>
        <time>2019-07-16T06:26:02Z</time>
      </trkpt>
      <trkpt lat="48.25964" lon="-2.0427">
        <ele>87.1</ele>
        <time>2019-07-16T06:26:03Z</time>
      </trkpt>
      <trkpt lat="48.25963" lon="-2.04266">
        <ele>87</ele>
        <time>2019-07-16T06:26:04Z</time>
      </trkpt>
      <trkpt lat="48.25962" lon="-2.04262">
        <ele>86.7</ele>
        <time>2019-07-16T06:26:05Z</time>
      </trkpt>
      <trkpt lat="48.25961" lon="-2.04258">
        <ele>86.6</ele>
        <time>2019-07-16T06:26:06Z</time>
      </trkpt>
      <trkpt lat="48.2596" lon="-2.04255">
        <ele>86.6</ele>
        <time>2019-07-16T06:26:07Z</time>
      </trkpt>
      <trkpt lat="48.25959" lon="-2.04251">
        <ele>86.5</ele>
        <time>2019-07-16T06:26:08Z</time>
      </trkpt>
      <trkpt lat="48.25958" lon="-2.04247">
        <ele>86.6</ele>
        <time>2019-07-16T06:26:09Z</time>
      </trkpt>
      <trkpt lat="48.25956" lon="-2.04243">
        <ele>86.7</ele>
        <time>2019-07-16T06:26:10Z</time>
      </trkpt>
      <trkpt lat="48.25954" lon="-2.04239">
        <ele>86.7</ele>
        <time>2019-07-16T06:26:11Z</time>
      </trkpt>
      <trkpt lat="48.25954" lon="-2.04235">
        <ele>86.8</ele>
        <time>2019-07-16T06:26:12Z</time>
      </trkpt>
      <trkpt lat="48.25952" lon="-2.04232">
        <ele>86.8</ele>
        <time>2019-07-16T06:26:13Z</time>
      </trkpt>
      <trkpt lat="48.25951" lon="-2.04228">
        <ele>86.8</ele>
        <time>2019-07-16T06:26:14Z</time>
      </trkpt>
      <trkpt lat="48.2595" lon="-2.04224">
        <ele>86.8</ele>
        <time>2019-07-16T06:26:15Z</time>
      </trkpt>
      <trkpt lat="48.25949" lon="-2.04221">
        <ele>87</ele>
        <time>2019-07-16T06:26:16Z</time>
      </trkpt>
      <trkpt lat="48.25948" lon="-2.04217">
        <ele>87</ele>
        <time>2019-07-16T06:26:17Z</time>
      </trkpt>
      <trkpt lat="48.25947" lon="-2.04213">
        <ele>87.2</ele>
        <time>2019-07-16T06:26:18Z</time>
      </trkpt>
      <trkpt lat="48.25946" lon="-2.0421">
        <ele>87.3</ele>
        <time>2019-07-16T06:26:19Z</time>
      </trkpt>
      <trkpt lat="48.25944" lon="-2.04206">
        <ele>87.6</ele>
        <time>2019-07-16T06:26:20Z</time>
      </trkpt>
      <trkpt lat="48.25943" lon="-2.04202">
        <ele>88.1</ele>
        <time>2019-07-16T06:26:21Z</time>
      </trkpt>
      <trkpt lat="48.25942" lon="-2.04198">
        <ele>88.5</ele>
        <time>2019-07-16T06:26:22Z</time>
      </trkpt>
      <trkpt lat="48.25941" lon="-2.04194">
        <ele>88.8</ele>
        <time>2019-07-16T06:26:23Z</time>
      </trkpt>
      <trkpt lat="48.25939" lon="-2.0419">
        <ele>89</ele>
        <time>2019-07-16T06:26:24Z</time>
      </trkpt>
      <trkpt lat="48.25938" lon="-2.04186">
        <ele>89.2</ele>
        <time>2019-07-16T06:26:25Z</time>
      </trkpt>
      <trkpt lat="48.25937" lon="-2.04182">
        <ele>89.4</ele>
        <time>2019-07-16T06:26:26Z</time>
      </trkpt>
      <trkpt lat="48.25935" lon="-2.04178">
        <ele>89.5</ele>
        <time>2019-07-16T06:26:27Z</time>
      </trkpt>
      <trkpt lat="48.25934" lon="-2.04174">
        <ele>89.4</ele>
        <time>2019-07-16T06:26:28Z</time>
      </trkpt>
      <trkpt lat="48.25933" lon="-2.0417">
        <ele>89.7</ele>
        <time>2019-07-16T06:26:29Z</time>
      </trkpt>
      <trkpt lat="48.25932" lon="-2.04167">
        <ele>89.8</ele>
        <time>2019-07-16T06:26:30Z</time>
      </trkpt>
      <trkpt lat="48.25931" lon="-2.04163">
        <ele>89.9</ele>
        <time>2019-07-16T06:26:31Z</time>
      </trkpt>
      <trkpt lat="48.2593" lon="-2.04159">
        <ele>90.1</ele>
        <time>2019-07-16T06:26:32Z</time>
      </trkpt>
      <trkpt lat="48.25928" lon="-2.04155">
        <ele>90.2</ele>
        <time>2019-07-16T06:26:33Z</time>
      </trkpt>
      <trkpt lat="48.25927" lon="-2.04151">
        <ele>90.3</ele>
        <time>2019-07-16T06:26:34Z</time>
      </trkpt>
      <trkpt lat="48.25925" lon="-2.04147">
        <ele>90.1</ele>
        <time>2019-07-16T06:26:35Z</time>
      </trkpt>
      <trkpt lat="48.25925" lon="-2.04143">
        <ele>90.4</ele>
        <time>2019-07-16T06:26:36Z</time>
      </trkpt>
      <trkpt lat="48.25923" lon="-2.04139">
        <ele>90.4</ele>
        <time>2019-07-16T06:26:37Z</time>
      </trkpt>
      <trkpt lat="48.25922" lon="-2.04136">
        <ele>90.4</ele>
        <time>2019-07-16T06:26:38Z</time>
      </trkpt>
      <trkpt lat="48.25921" lon="-2.04132">
        <ele>90.5</ele>
        <time>2019-07-16T06:26:39Z</time>
      </trkpt>
      <trkpt lat="48.25921" lon="-2.04128">
        <ele>90.6</ele>
        <time>2019-07-16T06:26:40Z</time>
      </trkpt>
      <trkpt lat="48.25919" lon="-2.04124">
        <ele>90.6</ele>
        <time>2019-07-16T06:26:41Z</time>
      </trkpt>
      <trkpt lat="48.25918" lon="-2.0412">
        <ele>90.7</ele>
        <time>2019-07-16T06:26:42Z</time>
      </trkpt>
      <trkpt lat="48.25917" lon="-2.04117">
        <ele>90.6</ele>
        <time>2019-07-16T06:26:43Z</time>
      </trkpt>
      <trkpt lat="48.25916" lon="-2.04113">
        <ele>90.8</ele>
        <time>2019-07-16T06:26:44Z</time>
      </trkpt>
      <trkpt lat="48.25914" lon="-2.04109">
        <ele>90.9</ele>
        <time>2019-07-16T06:26:45Z</time>
      </trkpt>
      <trkpt lat="48.25913" lon="-2.04105">
        <ele>91</ele>
        <time>2019-07-16T06:26:46Z</time>
      </trkpt>
      <trkpt lat="48.25912" lon="-2.04101">
        <ele>90.9</ele>
        <time>2019-07-16T06:26:47Z</time>
      </trkpt>
      <trkpt lat="48.25911" lon="-2.04097">
        <ele>90.8</ele>
        <time>2019-07-16T06:26:48Z</time>
      </trkpt>
      <trkpt lat="48.25909" lon="-2.04093">
        <ele>90.9</ele>
        <time>2019-07-16T06:26:49Z</time>
      </trkpt>
      <trkpt lat="48.25908" lon="-2.04089">
        <ele>90.8</ele>
        <time>2019-07-16T06:26:50Z</time>
      </trkpt>
      <trkpt lat="48.25907" lon="-2.04086">
        <ele>90.6</ele>
        <time>2019-07-16T06:26:51Z</time>
      </trkpt>
      <trkpt lat="48.25906" lon="-2.04082">
        <ele>90.8</ele>
        <time>2019-07-16T06:26:52Z</time>
      </trkpt>
      <trkpt lat="48.25905" lon="-2.04078">
        <ele>90.8</ele>
        <time>2019-07-16T06:26:53Z</time>
      </trkpt>
      <trkpt lat="48.25903" lon="-2.04074">
        <ele>90.9</ele>
        <time>2019-07-16T06:26:54Z</time>
      </trkpt>
      <trkpt lat="48.25902" lon="-2.0407">
        <ele>90.9</ele>
        <time>2019-07-16T06:26:55Z</time>
      </trkpt>
      <trkpt lat="48.259" lon="-2.04065">
        <ele>90.7</ele>
        <time>2019-07-16T06:26:56Z</time>
      </trkpt>
      <trkpt lat="48.25899" lon="-2.04061">
        <ele>90.6</ele>
        <time>2019-07-16T06:26:57Z</time>
      </trkpt>
      <trkpt lat="48.25898" lon="-2.04057">
        <ele>90.5</ele>
        <time>2019-07-16T06:26:58Z</time>
      </trkpt>
      <trkpt lat="48.25897" lon="-2.04053">
        <ele>90.6</ele>
        <time>2019-07-16T06:26:59Z</time>
      </trkpt>
      <trkpt lat="48.25896" lon="-2.04049">
        <ele>90.7</ele>
        <time>2019-07-16T06:27:00Z</time>
      </trkpt>
      <trkpt lat="48.25895" lon="-2.04045">
        <ele>90.9</ele>
        <time>2019-07-16T06:27:01Z</time>
      </trkpt>
      <trkpt lat="48.25894" lon="-2.04041">
        <ele>90.9</ele>
        <time>2019-07-16T06:27:02Z</time>
      </trkpt>
      <trkpt lat="48.25893" lon="-2.04038">
        <ele>90.8</ele>
        <time>2019-07-16T06:27:03Z</time>
      </trkpt>
      <trkpt lat="48.25892" lon="-2.04034">
        <ele>90.9</ele>
        <time>2019-07-16T06:27:04Z</time>
      </trkpt>
      <trkpt lat="48.2589" lon="-2.0403">
        <ele>91</ele>
        <time>2019-07-16T06:27:05Z</time>
      </trkpt>
      <trkpt lat="48.25889" lon="-2.04026">
        <ele>91.2</ele>
        <time>2019-07-16T06:27:06Z</time>
      </trkpt>
      <trkpt lat="48.25888" lon="-2.04022">
        <ele>91.1</ele>
        <time>2019-07-16T06:27:07Z</time>
      </trkpt>
      <trkpt lat="48.25886" lon="-2.04018">
        <ele>91</ele>
        <time>2019-07-16T06:27:08Z</time>
      </trkpt>
      <trkpt lat="48.25885" lon="-2.04014">
        <ele>91</ele>
        <time>2019-07-16T06:27:09Z</time>
      </trkpt>
      <trkpt lat="48.25884" lon="-2.0401">
        <ele>91.1</ele>
        <time>2019-07-16T06:27:10Z</time>
      </trkpt>
      <trkpt lat="48.25882" lon="-2.04006">
        <ele>91.2</ele>
        <time>2019-07-16T06:27:11Z</time>
      </trkpt>
      <trkpt lat="48.25881" lon="-2.04002">
        <ele>91.1</ele>
        <time>2019-07-16T06:27:12Z</time>
      </trkpt>
      <trkpt lat="48.2588" lon="-2.03998">
        <ele>90.8</ele>
        <time>2019-07-16T06:27:13Z</time>
      </trkpt>
      <trkpt lat="48.25879" lon="-2.03994">
        <ele>90.6</ele>
        <time>2019-07-16T06:27:14Z</time>
      </trkpt>
      <trkpt lat="48.25877" lon="-2.0399">
        <ele>90.5</ele>
        <time>2019-07-16T06:27:15Z</time>
      </trkpt>
      <trkpt lat="48.25876" lon="-2.03986">
        <ele>90.3</ele>
        <time>2019-07-16T06:27:16Z</time>
      </trkpt>
      <trkpt lat="48.25875" lon="-2.03982">
        <ele>90.1</ele>
        <time>2019-07-16T06:27:17Z</time>
      </trkpt>
      <trkpt lat="48.25874" lon="-2.03978">
        <ele>89.9</ele>
        <time>2019-07-16T06:27:18Z</time>
      </trkpt>
      <trkpt lat="48.25872" lon="-2.03974">
        <ele>89.8</ele>
        <time>2019-07-16T06:27:19Z</time>
      </trkpt>
      <trkpt lat="48.25872" lon="-2.03971">
        <ele>89.9</ele>
        <time>2019-07-16T06:27:20Z</time>
      </trkpt>
      <trkpt lat="48.25871" lon="-2.03967">
        <ele>90</ele>
        <time>2019-07-16T06:27:21Z</time>
      </trkpt>
      <trkpt lat="48.2587" lon="-2.03963">
        <ele>90.3</ele>
        <time>2019-07-16T06:27:22Z</time>
      </trkpt>
      <trkpt lat="48.25869" lon="-2.0396">
        <ele>90.8</ele>
        <time>2019-07-16T06:27:23Z</time>
      </trkpt>
      <trkpt lat="48.25868" lon="-2.03957">
        <ele>91.3</ele>
        <time>2019-07-16T06:27:24Z</time>
      </trkpt>
      <trkpt lat="48.25867" lon="-2.03953">
        <ele>91.9</ele>
        <time>2019-07-16T06:27:25Z</time>
      </trkpt>
      <trkpt lat="48.25866" lon="-2.0395">
        <ele>92.4</ele>
        <time>2019-07-16T06:27:26Z</time>
      </trkpt>
      <trkpt lat="48.25864" lon="-2.03945">
        <ele>92.9</ele>
        <time>2019-07-16T06:27:27Z</time>
      </trkpt>
      <trkpt lat="48.25864" lon="-2.03941">
        <ele>93.3</ele>
        <time>2019-07-16T06:27:28Z</time>
      </trkpt>
      <trkpt lat="48.25862" lon="-2.03936">
        <ele>93.6</ele>
        <time>2019-07-16T06:27:29Z</time>
      </trkpt>
      <trkpt lat="48.25861" lon="-2.03932">
        <ele>94.4</ele>
        <time>2019-07-16T06:27:30Z</time>
      </trkpt>
      <trkpt lat="48.2586" lon="-2.03929">
        <ele>94.7</ele>
        <time>2019-07-16T06:27:31Z</time>
      </trkpt>
      <trkpt lat="48.25859" lon="-2.03925">
        <ele>95.3</ele>
        <time>2019-07-16T06:27:32Z</time>
      </trkpt>
      <trkpt lat="48.25858" lon="-2.03921">
        <ele>95.9</ele>
        <time>2019-07-16T06:27:33Z</time>
      </trkpt>
      <trkpt lat="48.25856" lon="-2.03917">
        <ele>96.6</ele>
        <time>2019-07-16T06:27:34Z</time>
      </trkpt>
      <trkpt lat="48.25856" lon="-2.03914">
        <ele>97.3</ele>
        <time>2019-07-16T06:27:35Z</time>
      </trkpt>
      <trkpt lat="48.25855" lon="-2.03909">
        <ele>98</ele>
        <time>2019-07-16T06:27:36Z</time>
      </trkpt>
      <trkpt lat="48.25853" lon="-2.03905">
        <ele>98</ele>
        <time>2019-07-16T06:27:37Z</time>
      </trkpt>
      <trkpt lat="48.25853" lon="-2.03901">
        <ele>98.4</ele>
        <time>2019-07-16T06:27:38Z</time>
      </trkpt>
      <trkpt lat="48.25851" lon="-2.03897">
        <ele>98.8</ele>
        <time>2019-07-16T06:27:39Z</time>
      </trkpt>
      <trkpt lat="48.25851" lon="-2.03892">
        <ele>99.3</ele>
        <time>2019-07-16T06:27:40Z</time>
      </trkpt>
      <trkpt lat="48.25849" lon="-2.03889">
        <ele>99.9</ele>
        <time>2019-07-16T06:27:41Z</time>
      </trkpt>
      <trkpt lat="48.25848" lon="-2.03885">
        <ele>100.6</ele>
        <time>2019-07-16T06:27:42Z</time>
      </trkpt>
      <trkpt lat="48.25847" lon="-2.03881">
        <ele>101.1</ele>
        <time>2019-07-16T06:27:43Z</time>
      </trkpt>
      <trkpt lat="48.25845" lon="-2.03877">
        <ele>101.6</ele>
        <time>2019-07-16T06:27:44Z</time>
      </trkpt>
      <trkpt lat="48.25844" lon="-2.03873">
        <ele>102</ele>
        <time>2019-07-16T06:27:45Z</time>
      </trkpt>
      <trkpt lat="48.25843" lon="-2.03868">
        <ele>102.2</ele>
        <time>2019-07-16T06:27:46Z</time>
      </trkpt>
      <trkpt lat="48.25841" lon="-2.03864">
        <ele>102.1</ele>
        <time>2019-07-16T06:27:47Z</time>
      </trkpt>
      <trkpt lat="48.2584" lon="-2.03858">
        <ele>102</ele>
        <time>2019-07-16T06:27:48Z</time>
      </trkpt>
      <trkpt lat="48.25839" lon="-2.03854">
        <ele>101.9</ele>
        <time>2019-07-16T06:27:49Z</time>
      </trkpt>
      <trkpt lat="48.25837" lon="-2.03849">
        <ele>101.4</ele>
        <time>2019-07-16T06:27:50Z</time>
      </trkpt>
      <trkpt lat="48.25837" lon="-2.03845">
        <ele>100.9</ele>
        <time>2019-07-16T06:27:51Z</time>
      </trkpt>
      <trkpt lat="48.25835" lon="-2.03841">
        <ele>100.7</ele>
        <time>2019-07-16T06:27:52Z</time>
      </trkpt>
      <trkpt lat="48.25834" lon="-2.03836">
        <ele>101.1</ele>
        <time>2019-07-16T06:27:53Z</time>
      </trkpt>
      <trkpt lat="48.25833" lon="-2.03831">
        <ele>101.2</ele>
        <time>2019-07-16T06:27:54Z</time>
      </trkpt>
      <trkpt lat="48.25832" lon="-2.03827">
        <ele>101.4</ele>
        <time>2019-07-16T06:27:55Z</time>
      </trkpt>
      <trkpt lat="48.25831" lon="-2.03822">
        <ele>101.8</ele>
        <time>2019-07-16T06:27:56Z</time>
      </trkpt>
      <trkpt lat="48.2583" lon="-2.03817">
        <ele>101.8</ele>
        <time>2019-07-16T06:27:57Z</time>
      </trkpt>
      <trkpt lat="48.25829" lon="-2.03812">
        <ele>101.9</ele>
        <time>2019-07-16T06:27:58Z</time>
      </trkpt>
      <trkpt lat="48.25828" lon="-2.03808">
        <ele>101.5</ele>
        <time>2019-07-16T06:27:59Z</time>
      </trkpt>
      <trkpt lat="48.25827" lon="-2.03803">
        <ele>101.6</ele>
        <time>2019-07-16T06:28:00Z</time>
      </trkpt>
      <trkpt lat="48.25826" lon="-2.03799">
        <ele>101.3</ele>
        <time>2019-07-16T06:28:01Z</time>
      </trkpt>
      <trkpt lat="48.25824" lon="-2.03793">
        <ele>101</ele>
        <time>2019-07-16T06:28:02Z</time>
      </trkpt>
      <trkpt lat="48.25823" lon="-2.03788">
        <ele>101.4</ele>
        <time>2019-07-16T06:28:03Z</time>
      </trkpt>
      <trkpt lat="48.25821" lon="-2.03783">
        <ele>101</ele>
        <time>2019-07-16T06:28:04Z</time>
      </trkpt>
      <trkpt lat="48.2582" lon="-2.03779">
        <ele>100.7</ele>
        <time>2019-07-16T06:28:05Z</time>
      </trkpt>
      <trkpt lat="48.25819" lon="-2.03775">
        <ele>101</ele>
        <time>2019-07-16T06:28:06Z</time>
      </trkpt>
      <trkpt lat="48.25816" lon="-2.03772">
        <ele>101.5</ele>
        <time>2019-07-16T06:28:07Z</time>
      </trkpt>
      <trkpt lat="48.25814" lon="-2.03767">
        <ele>101.5</ele>
        <time>2019-07-16T06:28:08Z</time>
      </trkpt>
      <trkpt lat="48.25813" lon="-2.03763">
        <ele>101.8</ele>
        <time>2019-07-16T06:28:09Z</time>
      </trkpt>
      <trkpt lat="48.25811" lon="-2.03758">
        <ele>101.8</ele>
        <time>2019-07-16T06:28:10Z</time>
      </trkpt>
      <trkpt lat="48.2581" lon="-2.03754">
        <ele>102.1</ele>
        <time>2019-07-16T06:28:11Z</time>
      </trkpt>
      <trkpt lat="48.25808" lon="-2.0375">
        <ele>102.5</ele>
        <time>2019-07-16T06:28:12Z</time>
      </trkpt>
      <trkpt lat="48.25806" lon="-2.03746">
        <ele>102.6</ele>
        <time>2019-07-16T06:28:13Z</time>
      </trkpt>
      <trkpt lat="48.25804" lon="-2.03741">
        <ele>102.2</ele>
        <time>2019-07-16T06:28:14Z</time>
      </trkpt>
      <trkpt lat="48.25802" lon="-2.03737">
        <ele>101.9</ele>
        <time>2019-07-16T06:28:15Z</time>
      </trkpt>
      <trkpt lat="48.25799" lon="-2.03733">
        <ele>101.5</ele>
        <time>2019-07-16T06:28:16Z</time>
      </trkpt>
      <trkpt lat="48.25797" lon="-2.03727">
        <ele>101.5</ele>
        <time>2019-07-16T06:28:17Z</time>
      </trkpt>
      <trkpt lat="48.25795" lon="-2.03723">
        <ele>101.3</ele>
        <time>2019-07-16T06:28:18Z</time>
      </trkpt>
      <trkpt lat="48.25792" lon="-2.03718">
        <ele>101.3</ele>
        <time>2019-07-16T06:28:19Z</time>
      </trkpt>
      <trkpt lat="48.2579" lon="-2.03713">
        <ele>101.2</ele>
        <time>2019-07-16T06:28:20Z</time>
      </trkpt>
      <trkpt lat="48.25789" lon="-2.03707">
        <ele>101.2</ele>
        <time>2019-07-16T06:28:21Z</time>
      </trkpt>
      <trkpt lat="48.25787" lon="-2.03702">
        <ele>100.5</ele>
        <time>2019-07-16T06:28:22Z</time>
      </trkpt>
      <trkpt lat="48.25785" lon="-2.03698">
        <ele>100.3</ele>
        <time>2019-07-16T06:28:23Z</time>
      </trkpt>
      <trkpt lat="48.25783" lon="-2.03693">
        <ele>100.3</ele>
        <time>2019-07-16T06:28:24Z</time>
      </trkpt>
      <trkpt lat="48.25782" lon="-2.03687">
        <ele>100.9</ele>
        <time>2019-07-16T06:28:25Z</time>
      </trkpt>
      <trkpt lat="48.25781" lon="-2.03682">
        <ele>100.8</ele>
        <time>2019-07-16T06:28:26Z</time>
      </trkpt>
      <trkpt lat="48.2578" lon="-2.03677">
        <ele>100.4</ele>
        <time>2019-07-16T06:28:27Z</time>
      </trkpt>
      <trkpt lat="48.25779" lon="-2.03672">
        <ele>100.2</ele>
        <time>2019-07-16T06:28:28Z</time>
      </trkpt>
      <trkpt lat="48.25778" lon="-2.03666">
        <ele>99.8</ele>
        <time>2019-07-16T06:28:29Z</time>
      </trkpt>
      <trkpt lat="48.25777" lon="-2.03661">
        <ele>99.3</ele>
        <time>2019-07-16T06:28:30Z</time>
      </trkpt>
      <trkpt lat="48.25777" lon="-2.03655">
        <ele>98.9</ele>
        <time>2019-07-16T06:28:31Z</time>
      </trkpt>
      <trkpt lat="48.25776" lon="-2.0365">
        <ele>97.9</ele>
        <time>2019-07-16T06:28:32Z</time>
      </trkpt>
      <trkpt lat="48.25776" lon="-2.03644">
        <ele>96.7</ele>
        <time>2019-07-16T06:28:33Z</time>
      </trkpt>
      <trkpt lat="48.25774" lon="-2.03639">
        <ele>95.7</ele>
        <time>2019-07-16T06:28:34Z</time>
      </trkpt>
      <trkpt lat="48.25773" lon="-2.03634">
        <ele>95.1</ele>
        <time>2019-07-16T06:28:35Z</time>
      </trkpt>
      <trkpt lat="48.25771" lon="-2.03628">
        <ele>94.9</ele>
        <time>2019-07-16T06:28:36Z</time>
      </trkpt>
      <trkpt lat="48.25768" lon="-2.03623">
        <ele>94.1</ele>
        <time>2019-07-16T06:28:37Z</time>
      </trkpt>
      <trkpt lat="48.25767" lon="-2.03618">
        <ele>93.5</ele>
        <time>2019-07-16T06:28:38Z</time>
      </trkpt>
      <trkpt lat="48.25765" lon="-2.03614">
        <ele>92.8</ele>
        <time>2019-07-16T06:28:39Z</time>
      </trkpt>
      <trkpt lat="48.25764" lon="-2.03609">
        <ele>92.6</ele>
        <time>2019-07-16T06:28:40Z</time>
      </trkpt>
      <trkpt lat="48.25763" lon="-2.03604">
        <ele>92.4</ele>
        <time>2019-07-16T06:28:41Z</time>
      </trkpt>
      <trkpt lat="48.25761" lon="-2.03599">
        <ele>92.9</ele>
        <time>2019-07-16T06:28:42Z</time>
      </trkpt>
      <trkpt lat="48.2576" lon="-2.03594">
        <ele>93.6</ele>
        <time>2019-07-16T06:28:43Z</time>
      </trkpt>
      <trkpt lat="48.25757" lon="-2.03588">
        <ele>94.3</ele>
        <time>2019-07-16T06:28:44Z</time>
      </trkpt>
      <trkpt lat="48.25755" lon="-2.03583">
        <ele>95</ele>
        <time>2019-07-16T06:28:45Z</time>
      </trkpt>
      <trkpt lat="48.25753" lon="-2.03578">
        <ele>95.3</ele>
        <time>2019-07-16T06:28:46Z</time>
      </trkpt>
      <trkpt lat="48.25752" lon="-2.03573">
        <ele>95.7</ele>
        <time>2019-07-16T06:28:47Z</time>
      </trkpt>
      <trkpt lat="48.25749" lon="-2.03567">
        <ele>96</ele>
        <time>2019-07-16T06:28:48Z</time>
      </trkpt>
      <trkpt lat="48.25748" lon="-2.03562">
        <ele>96.3</ele>
        <time>2019-07-16T06:28:49Z</time>
      </trkpt>
      <trkpt lat="48.25746" lon="-2.03556">
        <ele>96.5</ele>
        <time>2019-07-16T06:28:50Z</time>
      </trkpt>
      <trkpt lat="48.25744" lon="-2.03551">
        <ele>96.8</ele>
        <time>2019-07-16T06:28:51Z</time>
      </trkpt>
      <trkpt lat="48.25743" lon="-2.03546">
        <ele>97.3</ele>
        <time>2019-07-16T06:28:52Z</time>
      </trkpt>
      <trkpt lat="48.25741" lon="-2.03541">
        <ele>97.7</ele>
        <time>2019-07-16T06:28:53Z</time>
      </trkpt>
      <trkpt lat="48.2574" lon="-2.03536">
        <ele>97.6</ele>
        <time>2019-07-16T06:28:54Z</time>
      </trkpt>
      <trkpt lat="48.25738" lon="-2.03532">
        <ele>98</ele>
        <time>2019-07-16T06:28:55Z</time>
      </trkpt>
      <trkpt lat="48.25737" lon="-2.03527">
        <ele>98</ele>
        <time>2019-07-16T06:28:56Z</time>
      </trkpt>
      <trkpt lat="48.25735" lon="-2.03522">
        <ele>98.1</ele>
        <time>2019-07-16T06:28:57Z</time>
      </trkpt>
      <trkpt lat="48.25733" lon="-2.03518">
        <ele>98.2</ele>
        <time>2019-07-16T06:28:58Z</time>
      </trkpt>
      <trkpt lat="48.25732" lon="-2.03513">
        <ele>98.4</ele>
        <time>2019-07-16T06:28:59Z</time>
      </trkpt>
      <trkpt lat="48.2573" lon="-2.03508">
        <ele>98.4</ele>
        <time>2019-07-16T06:29:00Z</time>
      </trkpt>
      <trkpt lat="48.25729" lon="-2.03503">
        <ele>98.5</ele>
        <time>2019-07-16T06:29:01Z</time>
      </trkpt>
      <trkpt lat="48.25728" lon="-2.03498">
        <ele>98.6</ele>
        <time>2019-07-16T06:29:02Z</time>
      </trkpt>
      <trkpt lat="48.25727" lon="-2.03494">
        <ele>98.6</ele>
        <time>2019-07-16T06:29:03Z</time>
      </trkpt>
      <trkpt lat="48.25726" lon="-2.03489">
        <ele>98.6</ele>
        <time>2019-07-16T06:29:04Z</time>
      </trkpt>
      <trkpt lat="48.25724" lon="-2.03484">
        <ele>98.7</ele>
        <time>2019-07-16T06:29:05Z</time>
      </trkpt>
      <trkpt lat="48.25723" lon="-2.03479">
        <ele>98.9</ele>
        <time>2019-07-16T06:29:06Z</time>
      </trkpt>
      <trkpt lat="48.25721" lon="-2.03474">
        <ele>99.1</ele>
        <time>2019-07-16T06:29:07Z</time>
      </trkpt>
      <trkpt lat="48.2572" lon="-2.03469">
        <ele>99.1</ele>
        <time>2019-07-16T06:29:08Z</time>
      </trkpt>
      <trkpt lat="48.25718" lon="-2.03464">
        <ele>99.2</ele>
        <time>2019-07-16T06:29:09Z</time>
      </trkpt>
      <trkpt lat="48.25717" lon="-2.0346">
        <ele>99.5</ele>
        <time>2019-07-16T06:29:10Z</time>
      </trkpt>
      <trkpt lat="48.25716" lon="-2.03455">
        <ele>99.3</ele>
        <time>2019-07-16T06:29:11Z</time>
      </trkpt>
      <trkpt lat="48.25714" lon="-2.0345">
        <ele>98.9</ele>
        <time>2019-07-16T06:29:12Z</time>
      </trkpt>
      <trkpt lat="48.25712" lon="-2.03445">
        <ele>98.7</ele>
        <time>2019-07-16T06:29:13Z</time>
      </trkpt>
      <trkpt lat="48.25711" lon="-2.0344">
        <ele>98.6</ele>
        <time>2019-07-16T06:29:14Z</time>
      </trkpt>
      <trkpt lat="48.2571" lon="-2.03435">
        <ele>98.4</ele>
        <time>2019-07-16T06:29:15Z</time>
      </trkpt>
      <trkpt lat="48.25708" lon="-2.0343">
        <ele>98.2</ele>
        <time>2019-07-16T06:29:16Z</time>
      </trkpt>
      <trkpt lat="48.25707" lon="-2.03425">
        <ele>97.9</ele>
        <time>2019-07-16T06:29:17Z</time>
      </trkpt>
      <trkpt lat="48.25705" lon="-2.0342">
        <ele>97.6</ele>
        <time>2019-07-16T06:29:18Z</time>
      </trkpt>
      <trkpt lat="48.25703" lon="-2.03415">
        <ele>97.4</ele>
        <time>2019-07-16T06:29:19Z</time>
      </trkpt>
      <trkpt lat="48.25702" lon="-2.0341">
        <ele>97.3</ele>
        <time>2019-07-16T06:29:20Z</time>
      </trkpt>
      <trkpt lat="48.257" lon="-2.03405">
        <ele>97.2</ele>
        <time>2019-07-16T06:29:21Z</time>
      </trkpt>
      <trkpt lat="48.25699" lon="-2.03399">
        <ele>97.2</ele>
        <time>2019-07-16T06:29:22Z</time>
      </trkpt>
      <trkpt lat="48.25696" lon="-2.03394">
        <ele>97</ele>
        <time>2019-07-16T06:29:23Z</time>
      </trkpt>
      <trkpt lat="48.25695" lon="-2.03388">
        <ele>97</ele>
        <time>2019-07-16T06:29:24Z</time>
      </trkpt>
      <trkpt lat="48.25693" lon="-2.03383">
        <ele>96.9</ele>
        <time>2019-07-16T06:29:25Z</time>
      </trkpt>
      <trkpt lat="48.25692" lon="-2.03378">
        <ele>96.4</ele>
        <time>2019-07-16T06:29:26Z</time>
      </trkpt>
      <trkpt lat="48.2569" lon="-2.03372">
        <ele>96</ele>
        <time>2019-07-16T06:29:27Z</time>
      </trkpt>
      <trkpt lat="48.25689" lon="-2.03367">
        <ele>95.6</ele>
        <time>2019-07-16T06:29:28Z</time>
      </trkpt>
      <trkpt lat="48.25687" lon="-2.03362">
        <ele>95.2</ele>
        <time>2019-07-16T06:29:29Z</time>
      </trkpt>
      <trkpt lat="48.25685" lon="-2.03357">
        <ele>95.1</ele>
        <time>2019-07-16T06:29:30Z</time>
      </trkpt>
      <trkpt lat="48.25683" lon="-2.03352">
        <ele>94.9</ele>
        <time>2019-07-16T06:29:31Z</time>
      </trkpt>
      <trkpt lat="48.25682" lon="-2.03347">
        <ele>94.9</ele>
        <time>2019-07-16T06:29:32Z</time>
      </trkpt>
      <trkpt lat="48.25682" lon="-2.03342">
        <ele>95.1</ele>
        <time>2019-07-16T06:29:33Z</time>
      </trkpt>
      <trkpt lat="48.25682" lon="-2.03337">
        <ele>95.1</ele>
        <time>2019-07-16T06:29:34Z</time>
      </trkpt>
      <trkpt lat="48.25685" lon="-2.03333">
        <ele>95.8</ele>
        <time>2019-07-16T06:29:35Z</time>
      </trkpt>
      <trkpt lat="48.25687" lon="-2.03329">
        <ele>95.9</ele>
        <time>2019-07-16T06:29:36Z</time>
      </trkpt>
      <trkpt lat="48.25689" lon="-2.03325">
        <ele>96</ele>
        <time>2019-07-16T06:29:37Z</time>
      </trkpt>
      <trkpt lat="48.25692" lon="-2.03322">
        <ele>96.2</ele>
        <time>2019-07-16T06:29:38Z</time>
      </trkpt>
      <trkpt lat="48.25695" lon="-2.03318">
        <ele>96</ele>
        <time>2019-07-16T06:29:39Z</time>
      </trkpt>
      <trkpt lat="48.25697" lon="-2.03315">
        <ele>96</ele>
        <time>2019-07-16T06:29:40Z</time>
      </trkpt>
      <trkpt lat="48.257" lon="-2.03312">
        <ele>96.2</ele>
        <time>2019-07-16T06:29:41Z</time>
      </trkpt>
      <trkpt lat="48.25703" lon="-2.03308">
        <ele>96.2</ele>
        <time>2019-07-16T06:29:42Z</time>
      </trkpt>
      <trkpt lat="48.25706" lon="-2.03305">
        <ele>96.4</ele>
        <time>2019-07-16T06:29:43Z</time>
      </trkpt>
      <trkpt lat="48.25708" lon="-2.03301">
        <ele>96.3</ele>
        <time>2019-07-16T06:29:44Z</time>
      </trkpt>
      <trkpt lat="48.25712" lon="-2.03297">
        <ele>95.9</ele>
        <time>2019-07-16T06:29:45Z</time>
      </trkpt>
      <trkpt lat="48.25715" lon="-2.03294">
        <ele>95.4</ele>
        <time>2019-07-16T06:29:46Z</time>
      </trkpt>
      <trkpt lat="48.25718" lon="-2.0329">
        <ele>95</ele>
        <time>2019-07-16T06:29:47Z</time>
      </trkpt>
      <trkpt lat="48.25721" lon="-2.03287">
        <ele>94.7</ele>
        <time>2019-07-16T06:29:48Z</time>
      </trkpt>
      <trkpt lat="48.25724" lon="-2.03285">
        <ele>94.5</ele>
        <time>2019-07-16T06:29:49Z</time>
      </trkpt>
      <trkpt lat="48.25727" lon="-2.03282">
        <ele>94.2</ele>
        <time>2019-07-16T06:29:50Z</time>
      </trkpt>
      <trkpt lat="48.25731" lon="-2.03279">
        <ele>93.8</ele>
        <time>2019-07-16T06:29:51Z</time>
      </trkpt>
      <trkpt lat="48.25734" lon="-2.03277">
        <ele>94.2</ele>
        <time>2019-07-16T06:29:52Z</time>
      </trkpt>
      <trkpt lat="48.25738" lon="-2.03275">
        <ele>94.6</ele>
        <time>2019-07-16T06:29:53Z</time>
      </trkpt>
      <trkpt lat="48.25741" lon="-2.03274">
        <ele>94.8</ele>
        <time>2019-07-16T06:29:54Z</time>
      </trkpt>
      <trkpt lat="48.25745" lon="-2.03272">
        <ele>95.1</ele>
        <time>2019-07-16T06:29:55Z</time>
      </trkpt>
      <trkpt lat="48.25748" lon="-2.03272">
        <ele>95.3</ele>
        <time>2019-07-16T06:29:56Z</time>
      </trkpt>
      <trkpt lat="48.25752" lon="-2.03271">
        <ele>95.4</ele>
        <time>2019-07-16T06:29:57Z</time>
      </trkpt>
      <trkpt lat="48.25756" lon="-2.0327">
        <ele>95.6</ele>
        <time>2019-07-16T06:29:58Z</time>
      </trkpt>
      <trkpt lat="48.2576" lon="-2.0327">
        <ele>95.5</ele>
        <time>2019-07-16T06:29:59Z</time>
      </trkpt>
      <trkpt lat="48.25763" lon="-2.03269">
        <ele>95.6</ele>
        <time>2019-07-16T06:30:00Z</time>
      </trkpt>
      <trkpt lat="48.25766" lon="-2.03268">
        <ele>95.7</ele>
        <time>2019-07-16T06:30:01Z</time>
      </trkpt>
      <trkpt lat="48.2577" lon="-2.03268">
        <ele>95.6</ele>
        <time>2019-07-16T06:30:02Z</time>
      </trkpt>
      <trkpt lat="48.25773" lon="-2.03268">
        <ele>95.8</ele>
        <time>2019-07-16T06:30:03Z</time>
      </trkpt>
      <trkpt lat="48.25777" lon="-2.03268">
        <ele>95.9</ele>
        <time>2019-07-16T06:30:04Z</time>
      </trkpt>
      <trkpt lat="48.2578" lon="-2.03269">
        <ele>96.2</ele>
        <time>2019-07-16T06:30:05Z</time>
      </trkpt>
      <trkpt lat="48.25784" lon="-2.03269">
        <ele>96.4</ele>
        <time>2019-07-16T06:30:06Z</time>
      </trkpt>
      <trkpt lat="48.25787" lon="-2.0327">
        <ele>96.5</ele>
        <time>2019-07-16T06:30:07Z</time>
      </trkpt>
      <trkpt lat="48.25791" lon="-2.0327">
        <ele>96.5</ele>
        <time>2019-07-16T06:30:08Z</time>
      </trkpt>
      <trkpt lat="48.25795" lon="-2.03271">
        <ele>96.3</ele>
        <time>2019-07-16T06:30:09Z</time>
      </trkpt>
      <trkpt lat="48.25798" lon="-2.03271">
        <ele>96.4</ele>
        <time>2019-07-16T06:30:10Z</time>
      </trkpt>
      <trkpt lat="48.25802" lon="-2.03271">
        <ele>96.4</ele>
        <time>2019-07-16T06:30:11Z</time>
      </trkpt>
      <trkpt lat="48.25805" lon="-2.03271">
        <ele>96.7</ele>
        <time>2019-07-16T06:30:12Z</time>
      </trkpt>
      <trkpt lat="48.25809" lon="-2.03271">
        <ele>96.6</ele>
        <time>2019-07-16T06:30:13Z</time>
      </trkpt>
      <trkpt lat="48.25812" lon="-2.03272">
        <ele>96.5</ele>
        <time>2019-07-16T06:30:14Z</time>
      </trkpt>
      <trkpt lat="48.25816" lon="-2.03272">
        <ele>96.3</ele>
        <time>2019-07-16T06:30:15Z</time>
      </trkpt>
      <trkpt lat="48.25819" lon="-2.03273">
        <ele>96</ele>
        <time>2019-07-16T06:30:16Z</time>
      </trkpt>
      <trkpt lat="48.25823" lon="-2.03273">
        <ele>96.1</ele>
        <time>2019-07-16T06:30:17Z</time>
      </trkpt>
      <trkpt lat="48.25827" lon="-2.03273">
        <ele>96.1</ele>
        <time>2019-07-16T06:30:18Z</time>
      </trkpt>
      <trkpt lat="48.2583" lon="-2.03273">
        <ele>96.3</ele>
        <time>2019-07-16T06:30:19Z</time>
      </trkpt>
      <trkpt lat="48.25834" lon="-2.03274">
        <ele>96.2</ele>
        <time>2019-07-16T06:30:20Z</time>
      </trkpt>
      <trkpt lat="48.25837" lon="-2.03274">
        <ele>96</ele>
        <time>2019-07-16T06:30:21Z</time>
      </trkpt>
      <trkpt lat="48.25841" lon="-2.03275">
        <ele>96</ele>
        <time>2019-07-16T06:30:22Z</time>
      </trkpt>
      <trkpt lat="48.25845" lon="-2.03275">
        <ele>96.1</ele>
        <time>2019-07-16T06:30:23Z</time>
      </trkpt>
      <trkpt lat="48.25848" lon="-2.03275">
        <ele>96.4</ele>
        <time>2019-07-16T06:30:24Z</time>
      </trkpt>
      <trkpt lat="48.25851" lon="-2.03275">
        <ele>96.7</ele>
        <time>2019-07-16T06:30:25Z</time>
      </trkpt>
      <trkpt lat="48.25855" lon="-2.03276">
        <ele>96.5</ele>
        <time>2019-07-16T06:30:26Z</time>
      </trkpt>
      <trkpt lat="48.25858" lon="-2.03276">
        <ele>96.5</ele>
        <time>2019-07-16T06:30:27Z</time>
      </trkpt>
      <trkpt lat="48.25861" lon="-2.03276">
        <ele>96.9</ele>
        <time>2019-07-16T06:30:28Z</time>
      </trkpt>
      <trkpt lat="48.25865" lon="-2.03276">
        <ele>96.9</ele>
        <time>2019-07-16T06:30:29Z</time>
      </trkpt>
      <trkpt lat="48.25869" lon="-2.03277">
        <ele>96.8</ele>
        <time>2019-07-16T06:30:30Z</time>
      </trkpt>
      <trkpt lat="48.25872" lon="-2.03277">
        <ele>96.7</ele>
        <time>2019-07-16T06:30:31Z</time>
      </trkpt>
      <trkpt lat="48.25876" lon="-2.03277">
        <ele>96.6</ele>
        <time>2019-07-16T06:30:32Z</time>
      </trkpt>
      <trkpt lat="48.2588" lon="-2.03277">
        <ele>96.6</ele>
        <time>2019-07-16T06:30:33Z</time>
      </trkpt>
      <trkpt lat="48.25883" lon="-2.03278">
        <ele>96.5</ele>
        <time>2019-07-16T06:30:34Z</time>
      </trkpt>
      <trkpt lat="48.25887" lon="-2.03278">
        <ele>96.4</ele>
        <time>2019-07-16T06:30:35Z</time>
      </trkpt>
      <trkpt lat="48.2589" lon="-2.03279">
        <ele>96.2</ele>
        <time>2019-07-16T06:30:36Z</time>
      </trkpt>
      <trkpt lat="48.25894" lon="-2.03279">
        <ele>96.3</ele>
        <time>2019-07-16T06:30:37Z</time>
      </trkpt>
      <trkpt lat="48.25897" lon="-2.0328">
        <ele>96.3</ele>
        <time>2019-07-16T06:30:38Z</time>
      </trkpt>
      <trkpt lat="48.25901" lon="-2.0328">
        <ele>96.4</ele>
        <time>2019-07-16T06:30:39Z</time>
      </trkpt>
      <trkpt lat="48.25905" lon="-2.03281">
        <ele>96.6</ele>
        <time>2019-07-16T06:30:40Z</time>
      </trkpt>
      <trkpt lat="48.25909" lon="-2.03281">
        <ele>96.7</ele>
        <time>2019-07-16T06:30:41Z</time>
      </trkpt>
      <trkpt lat="48.25913" lon="-2.03282">
        <ele>96.9</ele>
        <time>2019-07-16T06:30:42Z</time>
      </trkpt>
      <trkpt lat="48.25916" lon="-2.03282">
        <ele>96.9</ele>
        <time>2019-07-16T06:30:43Z</time>
      </trkpt>
      <trkpt lat="48.2592" lon="-2.03283">
        <ele>97</ele>
        <time>2019-07-16T06:30:44Z</time>
      </trkpt>
      <trkpt lat="48.25924" lon="-2.03285">
        <ele>97.1</ele>
        <time>2019-07-16T06:30:45Z</time>
      </trkpt>
      <trkpt lat="48.25928" lon="-2.03286">
        <ele>97.3</ele>
        <time>2019-07-16T06:30:46Z</time>
      </trkpt>
      <trkpt lat="48.25932" lon="-2.03287">
        <ele>97.3</ele>
        <time>2019-07-16T06:30:47Z</time>
      </trkpt>
      <trkpt lat="48.25936" lon="-2.03289">
        <ele>97.4</ele>
        <time>2019-07-16T06:30:48Z</time>
      </trkpt>
      <trkpt lat="48.2594" lon="-2.03291">
        <ele>97.4</ele>
        <time>2019-07-16T06:30:49Z</time>
      </trkpt>
      <trkpt lat="48.25945" lon="-2.03292">
        <ele>97.3</ele>
        <time>2019-07-16T06:30:50Z</time>
      </trkpt>
      <trkpt lat="48.25949" lon="-2.03294">
        <ele>97.2</ele>
        <time>2019-07-16T06:30:51Z</time>
      </trkpt>
      <trkpt lat="48.25953" lon="-2.03297">
        <ele>97</ele>
        <time>2019-07-16T06:30:52Z</time>
      </trkpt>
      <trkpt lat="48.25958" lon="-2.03299">
        <ele>97</ele>
        <time>2019-07-16T06:30:53Z</time>
      </trkpt>
      <trkpt lat="48.25962" lon="-2.03302">
        <ele>96.9</ele>
        <time>2019-07-16T06:30:54Z</time>
      </trkpt>
      <trkpt lat="48.25966" lon="-2.03304">
        <ele>96.5</ele>
        <time>2019-07-16T06:30:55Z</time>
      </trkpt>
      <trkpt lat="48.25971" lon="-2.03306">
        <ele>96.4</ele>
        <time>2019-07-16T06:30:56Z</time>
      </trkpt>
      <trkpt lat="48.25975" lon="-2.03309">
        <ele>96.3</ele>
        <time>2019-07-16T06:30:57Z</time>
      </trkpt>
      <trkpt lat="48.2598" lon="-2.03311">
        <ele>96.4</ele>
        <time>2019-07-16T06:30:58Z</time>
      </trkpt>
      <trkpt lat="48.25985" lon="-2.03314">
        <ele>96.1</ele>
        <time>2019-07-16T06:30:59Z</time>
      </trkpt>
      <trkpt lat="48.25989" lon="-2.03317">
        <ele>95.9</ele>
        <time>2019-07-16T06:31:00Z</time>
      </trkpt>
      <trkpt lat="48.25993" lon="-2.03319">
        <ele>95.7</ele>
        <time>2019-07-16T06:31:01Z</time>
      </trkpt>
      <trkpt lat="48.25998" lon="-2.03322">
        <ele>95.8</ele>
        <time>2019-07-16T06:31:02Z</time>
      </trkpt>
      <trkpt lat="48.26003" lon="-2.03325">
        <ele>95.6</ele>
        <time>2019-07-16T06:31:03Z</time>
      </trkpt>
      <trkpt lat="48.26008" lon="-2.03328">
        <ele>95.4</ele>
        <time>2019-07-16T06:31:04Z</time>
      </trkpt>
      <trkpt lat="48.26013" lon="-2.0333">
        <ele>95.3</ele>
        <time>2019-07-16T06:31:05Z</time>
      </trkpt>
      <trkpt lat="48.26017" lon="-2.03332">
        <ele>95.3</ele>
        <time>2019-07-16T06:31:06Z</time>
      </trkpt>
      <trkpt lat="48.26022" lon="-2.03334">
        <ele>95.3</ele>
        <time>2019-07-16T06:31:07Z</time>
      </trkpt>
      <trkpt lat="48.26027" lon="-2.03334">
        <ele>95.1</ele>
        <time>2019-07-16T06:31:08Z</time>
      </trkpt>
      <trkpt lat="48.26033" lon="-2.03334">
        <ele>94.8</ele>
        <time>2019-07-16T06:31:09Z</time>
      </trkpt>
      <trkpt lat="48.26037" lon="-2.03334">
        <ele>94.6</ele>
        <time>2019-07-16T06:31:10Z</time>
      </trkpt>
      <trkpt lat="48.26043" lon="-2.03333">
        <ele>95</ele>
        <time>2019-07-16T06:31:11Z</time>
      </trkpt>
      <trkpt lat="48.26048" lon="-2.03332">
        <ele>95.2</ele>
        <time>2019-07-16T06:31:12Z</time>
      </trkpt>
      <trkpt lat="48.26053" lon="-2.0333">
        <ele>95.4</ele>
        <time>2019-07-16T06:31:13Z</time>
      </trkpt>
      <trkpt lat="48.26057" lon="-2.03327">
        <ele>95.3</ele>
        <time>2019-07-16T06:31:14Z</time>
      </trkpt>
      <trkpt lat="48.26062" lon="-2.03324">
        <ele>95.1</ele>
        <time>2019-07-16T06:31:15Z</time>
      </trkpt>
      <trkpt lat="48.26066" lon="-2.03321">
        <ele>95.4</ele>
        <time>2019-07-16T06:31:16Z</time>
      </trkpt>
      <trkpt lat="48.2607" lon="-2.03317">
        <ele>95.4</ele>
        <time>2019-07-16T06:31:17Z</time>
      </trkpt>
      <trkpt lat="48.26074" lon="-2.03313">
        <ele>95.7</ele>
        <time>2019-07-16T06:31:18Z</time>
      </trkpt>
      <trkpt lat="48.26078" lon="-2.03309">
        <ele>95.8</ele>
        <time>2019-07-16T06:31:19Z</time>
      </trkpt>
      <trkpt lat="48.26082" lon="-2.03305">
        <ele>95.8</ele>
        <time>2019-07-16T06:31:20Z</time>
      </trkpt>
      <trkpt lat="48.26085" lon="-2.033">
        <ele>96.2</ele>
        <time>2019-07-16T06:31:21Z</time>
      </trkpt>
      <trkpt lat="48.26088" lon="-2.03296">
        <ele>96.4</ele>
        <time>2019-07-16T06:31:22Z</time>
      </trkpt>
      <trkpt lat="48.26091" lon="-2.03291">
        <ele>96.5</ele>
        <time>2019-07-16T06:31:23Z</time>
      </trkpt>
      <trkpt lat="48.26095" lon="-2.03286">
        <ele>96.6</ele>
        <time>2019-07-16T06:31:24Z</time>
      </trkpt>
      <trkpt lat="48.26098" lon="-2.03281">
        <ele>96.4</ele>
        <time>2019-07-16T06:31:25Z</time>
      </trkpt>
      <trkpt lat="48.26102" lon="-2.03276">
        <ele>96.2</ele>
        <time>2019-07-16T06:31:26Z</time>
      </trkpt>
      <trkpt lat="48.26105" lon="-2.03271">
        <ele>96.3</ele>
        <time>2019-07-16T06:31:27Z</time>
      </trkpt>
      <trkpt lat="48.26108" lon="-2.03266">
        <ele>96.3</ele>
        <time>2019-07-16T06:31:28Z</time>
      </trkpt>
      <trkpt lat="48.26112" lon="-2.03261">
        <ele>96.3</ele>
        <time>2019-07-16T06:31:29Z</time>
      </trkpt>
      <trkpt lat="48.26115" lon="-2.03256">
        <ele>96.4</ele>
        <time>2019-07-16T06:31:30Z</time>
      </trkpt>
      <trkpt lat="48.26118" lon="-2.0325">
        <ele>96.4</ele>
        <time>2019-07-16T06:31:31Z</time>
      </trkpt>
      <trkpt lat="48.26122" lon="-2.03245">
        <ele>96.4</ele>
        <time>2019-07-16T06:31:32Z</time>
      </trkpt>
      <trkpt lat="48.26125" lon="-2.0324">
        <ele>96.5</ele>
        <time>2019-07-16T06:31:33Z</time>
      </trkpt>
      <trkpt lat="48.26129" lon="-2.03234">
        <ele>96.5</ele>
        <time>2019-07-16T06:31:34Z</time>
      </trkpt>
      <trkpt lat="48.26133" lon="-2.03228">
        <ele>96.4</ele>
        <time>2019-07-16T06:31:35Z</time>
      </trkpt>
      <trkpt lat="48.26136" lon="-2.03222">
        <ele>96.3</ele>
        <time>2019-07-16T06:31:36Z</time>
      </trkpt>
      <trkpt lat="48.2614" lon="-2.03216">
        <ele>95.8</ele>
        <time>2019-07-16T06:31:37Z</time>
      </trkpt>
      <trkpt lat="48.26144" lon="-2.0321">
        <ele>95.7</ele>
        <time>2019-07-16T06:31:38Z</time>
      </trkpt>
      <trkpt lat="48.26148" lon="-2.03204">
        <ele>95.7</ele>
        <time>2019-07-16T06:31:39Z</time>
      </trkpt>
      <trkpt lat="48.26152" lon="-2.03199">
        <ele>95.7</ele>
        <time>2019-07-16T06:31:40Z</time>
      </trkpt>
      <trkpt lat="48.26156" lon="-2.03192">
        <ele>96.1</ele>
        <time>2019-07-16T06:31:41Z</time>
      </trkpt>
      <trkpt lat="48.2616" lon="-2.03186">
        <ele>96.3</ele>
        <time>2019-07-16T06:31:42Z</time>
      </trkpt>
      <trkpt lat="48.26165" lon="-2.03181">
        <ele>96.6</ele>
        <time>2019-07-16T06:31:43Z</time>
      </trkpt>
      <trkpt lat="48.26168" lon="-2.03175">
        <ele>96.8</ele>
        <time>2019-07-16T06:31:44Z</time>
      </trkpt>
      <trkpt lat="48.26172" lon="-2.03169">
        <ele>97</ele>
        <time>2019-07-16T06:31:45Z</time>
      </trkpt>
      <trkpt lat="48.26177" lon="-2.03164">
        <ele>97.1</ele>
        <time>2019-07-16T06:31:46Z</time>
      </trkpt>
      <trkpt lat="48.26181" lon="-2.03159">
        <ele>97.1</ele>
        <time>2019-07-16T06:31:47Z</time>
      </trkpt>
      <trkpt lat="48.26185" lon="-2.03154">
        <ele>96.8</ele>
        <time>2019-07-16T06:31:48Z</time>
      </trkpt>
      <trkpt lat="48.26189" lon="-2.03149">
        <ele>96.8</ele>
        <time>2019-07-16T06:31:49Z</time>
      </trkpt>
      <trkpt lat="48.26194" lon="-2.03143">
        <ele>97.2</ele>
        <time>2019-07-16T06:31:50Z</time>
      </trkpt>
      <trkpt lat="48.26198" lon="-2.03139">
        <ele>96.8</ele>
        <time>2019-07-16T06:31:51Z</time>
      </trkpt>
      <trkpt lat="48.26203" lon="-2.03134">
        <ele>96.7</ele>
        <time>2019-07-16T06:31:52Z</time>
      </trkpt>
      <trkpt lat="48.26208" lon="-2.0313">
        <ele>96.1</ele>
        <time>2019-07-16T06:31:53Z</time>
      </trkpt>
      <trkpt lat="48.26213" lon="-2.03126">
        <ele>95.1</ele>
        <time>2019-07-16T06:31:54Z</time>
      </trkpt>
      <trkpt lat="48.26218" lon="-2.03122">
        <ele>94</ele>
        <time>2019-07-16T06:31:55Z</time>
      </trkpt>
      <trkpt lat="48.26222" lon="-2.03117">
        <ele>93.2</ele>
        <time>2019-07-16T06:31:56Z</time>
      </trkpt>
      <trkpt lat="48.26226" lon="-2.03112">
        <ele>92.5</ele>
        <time>2019-07-16T06:31:57Z</time>
      </trkpt>
      <trkpt lat="48.2623" lon="-2.03107">
        <ele>92.4</ele>
        <time>2019-07-16T06:31:58Z</time>
      </trkpt>
      <trkpt lat="48.26234" lon="-2.03102">
        <ele>92.1</ele>
        <time>2019-07-16T06:31:59Z</time>
      </trkpt>
      <trkpt lat="48.26237" lon="-2.03095">
        <ele>91.9</ele>
        <time>2019-07-16T06:32:00Z</time>
      </trkpt>
      <trkpt lat="48.26241" lon="-2.03089">
        <ele>91.7</ele>
        <time>2019-07-16T06:32:01Z</time>
      </trkpt>
      <trkpt lat="48.26244" lon="-2.03083">
        <ele>91.7</ele>
        <time>2019-07-16T06:32:02Z</time>
      </trkpt>
      <trkpt lat="48.26247" lon="-2.03076">
        <ele>91.9</ele>
        <time>2019-07-16T06:32:03Z</time>
      </trkpt>
      <trkpt lat="48.2625" lon="-2.03069">
        <ele>91.8</ele>
        <time>2019-07-16T06:32:04Z</time>
      </trkpt>
      <trkpt lat="48.26253" lon="-2.03063">
        <ele>91.8</ele>
        <time>2019-07-16T06:32:05Z</time>
      </trkpt>
      <trkpt lat="48.26257" lon="-2.03056">
        <ele>91.5</ele>
        <time>2019-07-16T06:32:06Z</time>
      </trkpt>
      <trkpt lat="48.2626" lon="-2.03049">
        <ele>91.1</ele>
        <time>2019-07-16T06:32:07Z</time>
      </trkpt>
      <trkpt lat="48.26264" lon="-2.03043">
        <ele>90.8</ele>
        <time>2019-07-16T06:32:08Z</time>
      </trkpt>
      <trkpt lat="48.26267" lon="-2.03036">
        <ele>90.6</ele>
        <time>2019-07-16T06:32:09Z</time>
      </trkpt>
      <trkpt lat="48.2627" lon="-2.03029">
        <ele>90.2</ele>
        <time>2019-07-16T06:32:10Z</time>
      </trkpt>
      <trkpt lat="48.26274" lon="-2.03022">
        <ele>89.9</ele>
        <time>2019-07-16T06:32:11Z</time>
      </trkpt>
      <trkpt lat="48.26277" lon="-2.03015">
        <ele>89.6</ele>
        <time>2019-07-16T06:32:12Z</time>
      </trkpt>
      <trkpt lat="48.2628" lon="-2.03008">
        <ele>89.6</ele>
        <time>2019-07-16T06:32:13Z</time>
      </trkpt>
      <trkpt lat="48.26283" lon="-2.03001">
        <ele>89.5</ele>
        <time>2019-07-16T06:32:14Z</time>
      </trkpt>
      <trkpt lat="48.26286" lon="-2.02995">
        <ele>89.6</ele>
        <time>2019-07-16T06:32:15Z</time>
      </trkpt>
      <trkpt lat="48.26289" lon="-2.02988">
        <ele>89.9</ele>
        <time>2019-07-16T06:32:16Z</time>
      </trkpt>
      <trkpt lat="48.26292" lon="-2.0298">
        <ele>90.1</ele>
        <time>2019-07-16T06:32:17Z</time>
      </trkpt>
      <trkpt lat="48.26295" lon="-2.02974">
        <ele>90.3</ele>
        <time>2019-07-16T06:32:18Z</time>
      </trkpt>
      <trkpt lat="48.26297" lon="-2.02968">
        <ele>90.3</ele>
        <time>2019-07-16T06:32:19Z</time>
      </trkpt>
      <trkpt lat="48.26299" lon="-2.02962">
        <ele>90.2</ele>
        <time>2019-07-16T06:32:20Z</time>
      </trkpt>
      <trkpt lat="48.26301" lon="-2.02957">
        <ele>90</ele>
        <time>2019-07-16T06:32:21Z</time>
      </trkpt>
      <trkpt lat="48.26303" lon="-2.02951">
        <ele>89.8</ele>
        <time>2019-07-16T06:32:22Z</time>
      </trkpt>
      <trkpt lat="48.26305" lon="-2.02944">
        <ele>89.7</ele>
        <time>2019-07-16T06:32:23Z</time>
      </trkpt>
      <trkpt lat="48.26307" lon="-2.02938">
        <ele>89.3</ele>
        <time>2019-07-16T06:32:24Z</time>
      </trkpt>
      <trkpt lat="48.26309" lon="-2.02931">
        <ele>88.8</ele>
        <time>2019-07-16T06:32:25Z</time>
      </trkpt>
      <trkpt lat="48.26311" lon="-2.02925">
        <ele>88.8</ele>
        <time>2019-07-16T06:32:26Z</time>
      </trkpt>
      <trkpt lat="48.26312" lon="-2.02918">
        <ele>88.9</ele>
        <time>2019-07-16T06:32:27Z</time>
      </trkpt>
      <trkpt lat="48.26313" lon="-2.02911">
        <ele>89</ele>
        <time>2019-07-16T06:32:28Z</time>
      </trkpt>
      <trkpt lat="48.26315" lon="-2.02903">
        <ele>89.2</ele>
        <time>2019-07-16T06:32:29Z</time>
      </trkpt>
      <trkpt lat="48.26316" lon="-2.02896">
        <ele>89.3</ele>
        <time>2019-07-16T06:32:30Z</time>
      </trkpt>
      <trkpt lat="48.26317" lon="-2.02889">
        <ele>89.4</ele>
        <time>2019-07-16T06:32:31Z</time>
      </trkpt>
      <trkpt lat="48.26317" lon="-2.02882">
        <ele>89.5</ele>
        <time>2019-07-16T06:32:32Z</time>
      </trkpt>
      <trkpt lat="48.26318" lon="-2.02875">
        <ele>89.5</ele>
        <time>2019-07-16T06:32:33Z</time>
      </trkpt>
      <trkpt lat="48.26318" lon="-2.02868">
        <ele>89.6</ele>
        <time>2019-07-16T06:32:34Z</time>
      </trkpt>
      <trkpt lat="48.26317" lon="-2.02861">
        <ele>89</ele>
        <time>2019-07-16T06:32:35Z</time>
      </trkpt>
      <trkpt lat="48.26318" lon="-2.02853">
        <ele>88.7</ele>
        <time>2019-07-16T06:32:36Z</time>
      </trkpt>
      <trkpt lat="48.26318" lon="-2.02846">
        <ele>88.7</ele>
        <time>2019-07-16T06:32:37Z</time>
      </trkpt>
      <trkpt lat="48.26318" lon="-2.02839">
        <ele>88.6</ele>
        <time>2019-07-16T06:32:38Z</time>
      </trkpt>
      <trkpt lat="48.26318" lon="-2.02831">
        <ele>88.6</ele>
        <time>2019-07-16T06:32:39Z</time>
      </trkpt>
      <trkpt lat="48.26319" lon="-2.02823">
        <ele>88.6</ele>
        <time>2019-07-16T06:32:40Z</time>
      </trkpt>
      <trkpt lat="48.26319" lon="-2.02816">
        <ele>88.7</ele>
        <time>2019-07-16T06:32:41Z</time>
      </trkpt>
      <trkpt lat="48.26319" lon="-2.02808">
        <ele>88.9</ele>
        <time>2019-07-16T06:32:42Z</time>
      </trkpt>
      <trkpt lat="48.2632" lon="-2.02801">
        <ele>88.9</ele>
        <time>2019-07-16T06:32:43Z</time>
      </trkpt>
      <trkpt lat="48.2632" lon="-2.02793">
        <ele>89</ele>
        <time>2019-07-16T06:32:44Z</time>
      </trkpt>
      <trkpt lat="48.2632" lon="-2.02785">
        <ele>88.9</ele>
        <time>2019-07-16T06:32:45Z</time>
      </trkpt>
      <trkpt lat="48.26321" lon="-2.02778">
        <ele>89</ele>
        <time>2019-07-16T06:32:46Z</time>
      </trkpt>
      <trkpt lat="48.26321" lon="-2.0277">
        <ele>89</ele>
        <time>2019-07-16T06:32:47Z</time>
      </trkpt>
      <trkpt lat="48.26322" lon="-2.02762">
        <ele>89</ele>
        <time>2019-07-16T06:32:48Z</time>
      </trkpt>
      <trkpt lat="48.26323" lon="-2.02754">
        <ele>88.9</ele>
        <time>2019-07-16T06:32:49Z</time>
      </trkpt>
      <trkpt lat="48.26323" lon="-2.02747">
        <ele>88.9</ele>
        <time>2019-07-16T06:32:50Z</time>
      </trkpt>
      <trkpt lat="48.26324" lon="-2.02739">
        <ele>88.6</ele>
        <time>2019-07-16T06:32:51Z</time>
      </trkpt>
      <trkpt lat="48.26325" lon="-2.02731">
        <ele>88.3</ele>
        <time>2019-07-16T06:32:52Z</time>
      </trkpt>
      <trkpt lat="48.26325" lon="-2.02723">
        <ele>88.3</ele>
        <time>2019-07-16T06:32:53Z</time>
      </trkpt>
      <trkpt lat="48.26326" lon="-2.02715">
        <ele>88.3</ele>
        <time>2019-07-16T06:32:54Z</time>
      </trkpt>
      <trkpt lat="48.26326" lon="-2.02707">
        <ele>88.2</ele>
        <time>2019-07-16T06:32:55Z</time>
      </trkpt>
      <trkpt lat="48.26327" lon="-2.02699">
        <ele>88.2</ele>
        <time>2019-07-16T06:32:56Z</time>
      </trkpt>
      <trkpt lat="48.26327" lon="-2.02691">
        <ele>87.9</ele>
        <time>2019-07-16T06:32:57Z</time>
      </trkpt>
      <trkpt lat="48.26328" lon="-2.02683">
        <ele>87.7</ele>
        <time>2019-07-16T06:32:58Z</time>
      </trkpt>
      <trkpt lat="48.26328" lon="-2.02675">
        <ele>87.7</ele>
        <time>2019-07-16T06:32:59Z</time>
      </trkpt>
      <trkpt lat="48.26328" lon="-2.02666">
        <ele>87.7</ele>
        <time>2019-07-16T06:33:00Z</time>
      </trkpt>
      <trkpt lat="48.26329" lon="-2.02658">
        <ele>87.5</ele>
        <time>2019-07-16T06:33:01Z</time>
      </trkpt>
      <trkpt lat="48.26329" lon="-2.02649">
        <ele>87.4</ele>
        <time>2019-07-16T06:33:02Z</time>
      </trkpt>
      <trkpt lat="48.26329" lon="-2.0264">
        <ele>87.2</ele>
        <time>2019-07-16T06:33:03Z</time>
      </trkpt>
      <trkpt lat="48.26329" lon="-2.02631">
        <ele>87.1</ele>
        <time>2019-07-16T06:33:04Z</time>
      </trkpt>
      <trkpt lat="48.2633" lon="-2.02621">
        <ele>87.1</ele>
        <time>2019-07-16T06:33:05Z</time>
      </trkpt>
      <trkpt lat="48.2633" lon="-2.02611">
        <ele>87</ele>
        <time>2019-07-16T06:33:06Z</time>
      </trkpt>
      <trkpt lat="48.26331" lon="-2.02601">
        <ele>86.6</ele>
        <time>2019-07-16T06:33:07Z</time>
      </trkpt>
      <trkpt lat="48.26332" lon="-2.0259">
        <ele>86</ele>
        <time>2019-07-16T06:33:08Z</time>
      </trkpt>
      <trkpt lat="48.26333" lon="-2.02579">
        <ele>85.7</ele>
        <time>2019-07-16T06:33:09Z</time>
      </trkpt>
      <trkpt lat="48.26333" lon="-2.02567">
        <ele>84.9</ele>
        <time>2019-07-16T06:33:10Z</time>
      </trkpt>
      <trkpt lat="48.26334" lon="-2.02555">
        <ele>84.4</ele>
        <time>2019-07-16T06:33:11Z</time>
      </trkpt>
      <trkpt lat="48.26334" lon="-2.02542">
        <ele>83.7</ele>
        <time>2019-07-16T06:33:12Z</time>
      </trkpt>
      <trkpt lat="48.26335" lon="-2.02529">
        <ele>82.7</ele>
        <time>2019-07-16T06:33:13Z</time>
      </trkpt>
      <trkpt lat="48.26336" lon="-2.02517">
        <ele>81.6</ele>
        <time>2019-07-16T06:33:14Z</time>
      </trkpt>
      <trkpt lat="48.26337" lon="-2.02505">
        <ele>80.6</ele>
        <time>2019-07-16T06:33:15Z</time>
      </trkpt>
      <trkpt lat="48.26338" lon="-2.02493">
        <ele>79.6</ele>
        <time>2019-07-16T06:33:16Z</time>
      </trkpt>
      <trkpt lat="48.26339" lon="-2.02481">
        <ele>78.8</ele>
        <time>2019-07-16T06:33:17Z</time>
      </trkpt>
      <trkpt lat="48.26341" lon="-2.02469">
        <ele>78.1</ele>
        <time>2019-07-16T06:33:18Z</time>
      </trkpt>
      <trkpt lat="48.26342" lon="-2.02456">
        <ele>77.2</ele>
        <time>2019-07-16T06:33:19Z</time>
      </trkpt>
      <trkpt lat="48.26344" lon="-2.02443">
        <ele>76.6</ele>
        <time>2019-07-16T06:33:20Z</time>
      </trkpt>
      <trkpt lat="48.26346" lon="-2.0243">
        <ele>75.9</ele>
        <time>2019-07-16T06:33:21Z</time>
      </trkpt>
      <trkpt lat="48.26348" lon="-2.02417">
        <ele>75.1</ele>
        <time>2019-07-16T06:33:22Z</time>
      </trkpt>
      <trkpt lat="48.2635" lon="-2.02405">
        <ele>74.6</ele>
        <time>2019-07-16T06:33:23Z</time>
      </trkpt>
      <trkpt lat="48.26353" lon="-2.02393">
        <ele>74</ele>
        <time>2019-07-16T06:33:24Z</time>
      </trkpt>
      <trkpt lat="48.26355" lon="-2.02381">
        <ele>73.2</ele>
        <time>2019-07-16T06:33:25Z</time>
      </trkpt>
      <trkpt lat="48.26357" lon="-2.02369">
        <ele>72.3</ele>
        <time>2019-07-16T06:33:26Z</time>
      </trkpt>
      <trkpt lat="48.2636" lon="-2.02358">
        <ele>71.4</ele>
        <time>2019-07-16T06:33:27Z</time>
      </trkpt>
      <trkpt lat="48.26364" lon="-2.02348">
        <ele>70.3</ele>
        <time>2019-07-16T06:33:28Z</time>
      </trkpt>
      <trkpt lat="48.26366" lon="-2.02338">
        <ele>68.5</ele>
        <time>2019-07-16T06:33:29Z</time>
      </trkpt>
      <trkpt lat="48.2637" lon="-2.0233">
        <ele>67.4</ele>
        <time>2019-07-16T06:33:30Z</time>
      </trkpt>
      <trkpt lat="48.26375" lon="-2.02324">
        <ele>66.5</ele>
        <time>2019-07-16T06:33:31Z</time>
      </trkpt>
      <trkpt lat="48.26382" lon="-2.02318">
        <ele>65.8</ele>
        <time>2019-07-16T06:33:32Z</time>
      </trkpt>
      <trkpt lat="48.26389" lon="-2.02313">
        <ele>65.1</ele>
        <time>2019-07-16T06:33:33Z</time>
      </trkpt>
      <trkpt lat="48.26396" lon="-2.02309">
        <ele>64.5</ele>
        <time>2019-07-16T06:33:34Z</time>
      </trkpt>
      <trkpt lat="48.26403" lon="-2.02304">
        <ele>63.2</ele>
        <time>2019-07-16T06:33:35Z</time>
      </trkpt>
      <trkpt lat="48.26411" lon="-2.02301">
        <ele>62.8</ele>
        <time>2019-07-16T06:33:36Z</time>
      </trkpt>
      <trkpt lat="48.2642" lon="-2.02298">
        <ele>62.1</ele>
        <time>2019-07-16T06:33:37Z</time>
      </trkpt>
      <trkpt lat="48.26428" lon="-2.02297">
        <ele>60.9</ele>
        <time>2019-07-16T06:33:38Z</time>
      </trkpt>
      <trkpt lat="48.26436" lon="-2.02297">
        <ele>60.8</ele>
        <time>2019-07-16T06:33:39Z</time>
      </trkpt>
      <trkpt lat="48.26444" lon="-2.02296">
        <ele>60.3</ele>
        <time>2019-07-16T06:33:40Z</time>
      </trkpt>
      <trkpt lat="48.26453" lon="-2.02298">
        <ele>60.6</ele>
        <time>2019-07-16T06:33:41Z</time>
      </trkpt>
      <trkpt lat="48.26461" lon="-2.02299">
        <ele>61.2</ele>
        <time>2019-07-16T06:33:42Z</time>
      </trkpt>
      <trkpt lat="48.26468" lon="-2.023">
        <ele>61.7</ele>
        <time>2019-07-16T06:33:43Z</time>
      </trkpt>
      <trkpt lat="48.26476" lon="-2.023">
        <ele>61.7</ele>
        <time>2019-07-16T06:33:44Z</time>
      </trkpt>
      <trkpt lat="48.26483" lon="-2.02301">
        <ele>61.2</ele>
        <time>2019-07-16T06:33:45Z</time>
      </trkpt>
      <trkpt lat="48.2649" lon="-2.02302">
        <ele>60.7</ele>
        <time>2019-07-16T06:33:46Z</time>
      </trkpt>
      <trkpt lat="48.26496" lon="-2.02303">
        <ele>60.7</ele>
        <time>2019-07-16T06:33:47Z</time>
      </trkpt>
      <trkpt lat="48.26502" lon="-2.02304">
        <ele>60.8</ele>
        <time>2019-07-16T06:33:48Z</time>
      </trkpt>
      <trkpt lat="48.26508" lon="-2.02305">
        <ele>60.6</ele>
        <time>2019-07-16T06:33:49Z</time>
      </trkpt>
      <trkpt lat="48.26513" lon="-2.02306">
        <ele>59.8</ele>
        <time>2019-07-16T06:33:50Z</time>
      </trkpt>
      <trkpt lat="48.26518" lon="-2.02307">
        <ele>60.3</ele>
        <time>2019-07-16T06:33:51Z</time>
      </trkpt>
      <trkpt lat="48.26523" lon="-2.02308">
        <ele>60.5</ele>
        <time>2019-07-16T06:33:52Z</time>
      </trkpt>
      <trkpt lat="48.26527" lon="-2.02309">
        <ele>60.7</ele>
        <time>2019-07-16T06:33:53Z</time>
      </trkpt>
      <trkpt lat="48.26532" lon="-2.02311">
        <ele>61.5</ele>
        <time>2019-07-16T06:33:54Z</time>
      </trkpt>
      <trkpt lat="48.26535" lon="-2.02312">
        <ele>62</ele>
        <time>2019-07-16T06:33:55Z</time>
      </trkpt>
      <trkpt lat="48.26539" lon="-2.02312">
        <ele>61.9</ele>
        <time>2019-07-16T06:33:56Z</time>
      </trkpt>
      <trkpt lat="48.26543" lon="-2.02314">
        <ele>62</ele>
        <time>2019-07-16T06:33:57Z</time>
      </trkpt>
      <trkpt lat="48.26547" lon="-2.02315">
        <ele>62</ele>
        <time>2019-07-16T06:33:58Z</time>
      </trkpt>
      <trkpt lat="48.26549" lon="-2.02316">
        <ele>62.7</ele>
        <time>2019-07-16T06:33:59Z</time>
      </trkpt>
      <trkpt lat="48.26551" lon="-2.02317">
        <ele>62.9</ele>
        <time>2019-07-16T06:34:00Z</time>
      </trkpt>
      <trkpt lat="48.26554" lon="-2.02318">
        <ele>63.3</ele>
        <time>2019-07-16T06:34:01Z</time>
      </trkpt>
      <trkpt lat="48.26556" lon="-2.02319">
        <ele>64.3</ele>
        <time>2019-07-16T06:34:02Z</time>
      </trkpt>
      <trkpt lat="48.26559" lon="-2.02321">
        <ele>65.9</ele>
        <time>2019-07-16T06:34:03Z</time>
      </trkpt>
      <trkpt lat="48.26561" lon="-2.02323">
        <ele>66.8</ele>
        <time>2019-07-16T06:34:04Z</time>
      </trkpt>
      <trkpt lat="48.26564" lon="-2.02324">
        <ele>67.2</ele>
        <time>2019-07-16T06:34:05Z</time>
      </trkpt>
      <trkpt lat="48.26567" lon="-2.02326">
        <ele>68</ele>
        <time>2019-07-16T06:34:06Z</time>
      </trkpt>
      <trkpt lat="48.2657" lon="-2.02327">
        <ele>68</ele>
        <time>2019-07-16T06:34:07Z</time>
      </trkpt>
      <trkpt lat="48.26572" lon="-2.02329">
        <ele>68.1</ele>
        <time>2019-07-16T06:34:08Z</time>
      </trkpt>
      <trkpt lat="48.26574" lon="-2.02331">
        <ele>68.5</ele>
        <time>2019-07-16T06:34:09Z</time>
      </trkpt>
      <trkpt lat="48.26577" lon="-2.02332">
        <ele>69.1</ele>
        <time>2019-07-16T06:34:10Z</time>
      </trkpt>
      <trkpt lat="48.2658" lon="-2.02333">
        <ele>69.4</ele>
        <time>2019-07-16T06:34:11Z</time>
      </trkpt>
      <trkpt lat="48.26582" lon="-2.02334">
        <ele>69.8</ele>
        <time>2019-07-16T06:34:12Z</time>
      </trkpt>
      <trkpt lat="48.26585" lon="-2.02335">
        <ele>69.5</ele>
        <time>2019-07-16T06:34:13Z</time>
      </trkpt>
      <trkpt lat="48.26588" lon="-2.02337">
        <ele>69.2</ele>
        <time>2019-07-16T06:34:14Z</time>
      </trkpt>
      <trkpt lat="48.26591" lon="-2.02338">
        <ele>69.3</ele>
        <time>2019-07-16T06:34:15Z</time>
      </trkpt>
      <trkpt lat="48.26593" lon="-2.02339">
        <ele>69.3</ele>
        <time>2019-07-16T06:34:16Z</time>
      </trkpt>
      <trkpt lat="48.26596" lon="-2.0234">
        <ele>69.7</ele>
        <time>2019-07-16T06:34:17Z</time>
      </trkpt>
      <trkpt lat="48.26598" lon="-2.02341">
        <ele>70.1</ele>
        <time>2019-07-16T06:34:18Z</time>
      </trkpt>
      <trkpt lat="48.26601" lon="-2.02343">
        <ele>70.4</ele>
        <time>2019-07-16T06:34:19Z</time>
      </trkpt>
      <trkpt lat="48.26603" lon="-2.02344">
        <ele>71</ele>
        <time>2019-07-16T06:34:20Z</time>
      </trkpt>
      <trkpt lat="48.26605" lon="-2.02345">
        <ele>71.6</ele>
        <time>2019-07-16T06:34:21Z</time>
      </trkpt>
      <trkpt lat="48.26607" lon="-2.02347">
        <ele>72</ele>
        <time>2019-07-16T06:34:22Z</time>
      </trkpt>
      <trkpt lat="48.26609" lon="-2.02348">
        <ele>72.3</ele>
        <time>2019-07-16T06:34:23Z</time>
      </trkpt>
      <trkpt lat="48.26611" lon="-2.02349">
        <ele>72.8</ele>
        <time>2019-07-16T06:34:24Z</time>
      </trkpt>
      <trkpt lat="48.26614" lon="-2.0235">
        <ele>73.3</ele>
        <time>2019-07-16T06:34:25Z</time>
      </trkpt>
      <trkpt lat="48.26616" lon="-2.02351">
        <ele>74.1</ele>
        <time>2019-07-16T06:34:26Z</time>
      </trkpt>
      <trkpt lat="48.26618" lon="-2.02352">
        <ele>74.8</ele>
        <time>2019-07-16T06:34:27Z</time>
      </trkpt>
      <trkpt lat="48.2662" lon="-2.02353">
        <ele>75.2</ele>
        <time>2019-07-16T06:34:28Z</time>
      </trkpt>
      <trkpt lat="48.26622" lon="-2.02354">
        <ele>75.8</ele>
        <time>2019-07-16T06:34:29Z</time>
      </trkpt>
      <trkpt lat="48.26625" lon="-2.02355">
        <ele>75.8</ele>
        <time>2019-07-16T06:34:30Z</time>
      </trkpt>
      <trkpt lat="48.26627" lon="-2.02356">
        <ele>75.8</ele>
        <time>2019-07-16T06:34:31Z</time>
      </trkpt>
      <trkpt lat="48.26629" lon="-2.02357">
        <ele>76.3</ele>
        <time>2019-07-16T06:34:32Z</time>
      </trkpt>
      <trkpt lat="48.26632" lon="-2.02359">
        <ele>76.4</ele>
        <time>2019-07-16T06:34:33Z</time>
      </trkpt>
      <trkpt lat="48.26634" lon="-2.0236">
        <ele>76.3</ele>
        <time>2019-07-16T06:34:34Z</time>
      </trkpt>
      <trkpt lat="48.26637" lon="-2.02361">
        <ele>76.3</ele>
        <time>2019-07-16T06:34:35Z</time>
      </trkpt>
      <trkpt lat="48.26639" lon="-2.02363">
        <ele>76.6</ele>
        <time>2019-07-16T06:34:36Z</time>
      </trkpt>
      <trkpt lat="48.26642" lon="-2.02364">
        <ele>76.9</ele>
        <time>2019-07-16T06:34:37Z</time>
      </trkpt>
      <trkpt lat="48.26644" lon="-2.02365">
        <ele>77.3</ele>
        <time>2019-07-16T06:34:38Z</time>
      </trkpt>
      <trkpt lat="48.26647" lon="-2.02366">
        <ele>77.4</ele>
        <time>2019-07-16T06:34:39Z</time>
      </trkpt>
      <trkpt lat="48.2665" lon="-2.02368">
        <ele>77.6</ele>
        <time>2019-07-16T06:34:40Z</time>
      </trkpt>
      <trkpt lat="48.26652" lon="-2.02369">
        <ele>77.7</ele>
        <time>2019-07-16T06:34:41Z</time>
      </trkpt>
      <trkpt lat="48.26654" lon="-2.0237">
        <ele>77.7</ele>
        <time>2019-07-16T06:34:42Z</time>
      </trkpt>
      <trkpt lat="48.26657" lon="-2.02371">
        <ele>78.1</ele>
        <time>2019-07-16T06:34:43Z</time>
      </trkpt>
      <trkpt lat="48.26659" lon="-2.02372">
        <ele>78.4</ele>
        <time>2019-07-16T06:34:44Z</time>
      </trkpt>
      <trkpt lat="48.26662" lon="-2.02372">
        <ele>78.6</ele>
        <time>2019-07-16T06:34:45Z</time>
      </trkpt>
      <trkpt lat="48.26665" lon="-2.02373">
        <ele>78.6</ele>
        <time>2019-07-16T06:34:46Z</time>
      </trkpt>
      <trkpt lat="48.26667" lon="-2.02374">
        <ele>78.8</ele>
        <time>2019-07-16T06:34:47Z</time>
      </trkpt>
      <trkpt lat="48.26671" lon="-2.02374">
        <ele>79</ele>
        <time>2019-07-16T06:34:48Z</time>
      </trkpt>
      <trkpt lat="48.26674" lon="-2.02375">
        <ele>79.3</ele>
        <time>2019-07-16T06:34:49Z</time>
      </trkpt>
      <trkpt lat="48.26676" lon="-2.02376">
        <ele>79.4</ele>
        <time>2019-07-16T06:34:50Z</time>
      </trkpt>
      <trkpt lat="48.26679" lon="-2.02377">
        <ele>79.2</ele>
        <time>2019-07-16T06:34:51Z</time>
      </trkpt>
      <trkpt lat="48.26682" lon="-2.02378">
        <ele>79.2</ele>
        <time>2019-07-16T06:34:52Z</time>
      </trkpt>
      <trkpt lat="48.26684" lon="-2.02379">
        <ele>79</ele>
        <time>2019-07-16T06:34:53Z</time>
      </trkpt>
      <trkpt lat="48.26687" lon="-2.02379">
        <ele>79.1</ele>
        <time>2019-07-16T06:34:54Z</time>
      </trkpt>
      <trkpt lat="48.2669" lon="-2.0238">
        <ele>79.2</ele>
        <time>2019-07-16T06:34:55Z</time>
      </trkpt>
      <trkpt lat="48.26692" lon="-2.02381">
        <ele>79.2</ele>
        <time>2019-07-16T06:34:56Z</time>
      </trkpt>
      <trkpt lat="48.26695" lon="-2.02383">
        <ele>79.2</ele>
        <time>2019-07-16T06:34:57Z</time>
      </trkpt>
      <trkpt lat="48.26697" lon="-2.02384">
        <ele>79.6</ele>
        <time>2019-07-16T06:34:58Z</time>
      </trkpt>
      <trkpt lat="48.267" lon="-2.02386">
        <ele>79.9</ele>
        <time>2019-07-16T06:34:59Z</time>
      </trkpt>
      <trkpt lat="48.26702" lon="-2.02387">
        <ele>80.4</ele>
        <time>2019-07-16T06:35:00Z</time>
      </trkpt>
      <trkpt lat="48.26704" lon="-2.02389">
        <ele>80.6</ele>
        <time>2019-07-16T06:35:01Z</time>
      </trkpt>
      <trkpt lat="48.26706" lon="-2.0239">
        <ele>81.1</ele>
        <time>2019-07-16T06:35:02Z</time>
      </trkpt>
      <trkpt lat="48.26708" lon="-2.02391">
        <ele>81.1</ele>
        <time>2019-07-16T06:35:03Z</time>
      </trkpt>
      <trkpt lat="48.26711" lon="-2.02393">
        <ele>81.1</ele>
        <time>2019-07-16T06:35:04Z</time>
      </trkpt>
      <trkpt lat="48.26713" lon="-2.02394">
        <ele>81.4</ele>
        <time>2019-07-16T06:35:05Z</time>
      </trkpt>
      <trkpt lat="48.26715" lon="-2.02395">
        <ele>81.8</ele>
        <time>2019-07-16T06:35:06Z</time>
      </trkpt>
      <trkpt lat="48.26717" lon="-2.02396">
        <ele>82.1</ele>
        <time>2019-07-16T06:35:07Z</time>
      </trkpt>
      <trkpt lat="48.2672" lon="-2.02396">
        <ele>82.2</ele>
        <time>2019-07-16T06:35:08Z</time>
      </trkpt>
      <trkpt lat="48.26722" lon="-2.02397">
        <ele>82.2</ele>
        <time>2019-07-16T06:35:09Z</time>
      </trkpt>
      <trkpt lat="48.26725" lon="-2.02398">
        <ele>82</ele>
        <time>2019-07-16T06:35:10Z</time>
      </trkpt>
      <trkpt lat="48.26727" lon="-2.02398">
        <ele>81.9</ele>
        <time>2019-07-16T06:35:11Z</time>
      </trkpt>
      <trkpt lat="48.2673" lon="-2.02398">
        <ele>81.8</ele>
        <time>2019-07-16T06:35:12Z</time>
      </trkpt>
      <trkpt lat="48.26733" lon="-2.02399">
        <ele>81.5</ele>
        <time>2019-07-16T06:35:13Z</time>
      </trkpt>
      <trkpt lat="48.26736" lon="-2.024">
        <ele>81.3</ele>
        <time>2019-07-16T06:35:14Z</time>
      </trkpt>
      <trkpt lat="48.26738" lon="-2.024">
        <ele>81.1</ele>
        <time>2019-07-16T06:35:15Z</time>
      </trkpt>
      <trkpt lat="48.26741" lon="-2.024">
        <ele>80.8</ele>
        <time>2019-07-16T06:35:16Z</time>
      </trkpt>
      <trkpt lat="48.26744" lon="-2.02401">
        <ele>80.6</ele>
        <time>2019-07-16T06:35:17Z</time>
      </trkpt>
      <trkpt lat="48.26746" lon="-2.02401">
        <ele>80.5</ele>
        <time>2019-07-16T06:35:18Z</time>
      </trkpt>
      <trkpt lat="48.26749" lon="-2.02402">
        <ele>80.5</ele>
        <time>2019-07-16T06:35:19Z</time>
      </trkpt>
      <trkpt lat="48.26751" lon="-2.02402">
        <ele>80.6</ele>
        <time>2019-07-16T06:35:20Z</time>
      </trkpt>
      <trkpt lat="48.26754" lon="-2.02403">
        <ele>80.7</ele>
        <time>2019-07-16T06:35:21Z</time>
      </trkpt>
      <trkpt lat="48.26756" lon="-2.02403">
        <ele>81</ele>
        <time>2019-07-16T06:35:22Z</time>
      </trkpt>
      <trkpt lat="48.26758" lon="-2.02404">
        <ele>81.4</ele>
        <time>2019-07-16T06:35:23Z</time>
      </trkpt>
      <trkpt lat="48.26761" lon="-2.02405">
        <ele>81.7</ele>
        <time>2019-07-16T06:35:24Z</time>
      </trkpt>
      <trkpt lat="48.26763" lon="-2.02406">
        <ele>82.1</ele>
        <time>2019-07-16T06:35:25Z</time>
      </trkpt>
      <trkpt lat="48.26765" lon="-2.02406">
        <ele>82.3</ele>
        <time>2019-07-16T06:35:26Z</time>
      </trkpt>
      <trkpt lat="48.26768" lon="-2.02406">
        <ele>82.3</ele>
        <time>2019-07-16T06:35:27Z</time>
      </trkpt>
      <trkpt lat="48.2677" lon="-2.02407">
        <ele>82.2</ele>
        <time>2019-07-16T06:35:28Z</time>
      </trkpt>
      <trkpt lat="48.26773" lon="-2.02408">
        <ele>82.1</ele>
        <time>2019-07-16T06:35:29Z</time>
      </trkpt>
      <trkpt lat="48.26775" lon="-2.02408">
        <ele>82.3</ele>
        <time>2019-07-16T06:35:30Z</time>
      </trkpt>
      <trkpt lat="48.26778" lon="-2.02409">
        <ele>82.4</ele>
        <time>2019-07-16T06:35:31Z</time>
      </trkpt>
      <trkpt lat="48.2678" lon="-2.0241">
        <ele>82.7</ele>
        <time>2019-07-16T06:35:32Z</time>
      </trkpt>
      <trkpt lat="48.26785" lon="-2.02411">
        <ele>83.4</ele>
        <time>2019-07-16T06:35:34Z</time>
      </trkpt>
      <trkpt lat="48.26787" lon="-2.02412">
        <ele>83.4</ele>
        <time>2019-07-16T06:35:35Z</time>
      </trkpt>
      <trkpt lat="48.2679" lon="-2.02412">
        <ele>83.6</ele>
        <time>2019-07-16T06:35:36Z</time>
      </trkpt>
      <trkpt lat="48.26792" lon="-2.02413">
        <ele>83.9</ele>
        <time>2019-07-16T06:35:37Z</time>
      </trkpt>
      <trkpt lat="48.26794" lon="-2.02413">
        <ele>84.2</ele>
        <time>2019-07-16T06:35:38Z</time>
      </trkpt>
      <trkpt lat="48.26796" lon="-2.02414">
        <ele>84.6</ele>
        <time>2019-07-16T06:35:39Z</time>
      </trkpt>
      <trkpt lat="48.26799" lon="-2.02414">
        <ele>84.9</ele>
        <time>2019-07-16T06:35:40Z</time>
      </trkpt>
      <trkpt lat="48.26801" lon="-2.02415">
        <ele>85</ele>
        <time>2019-07-16T06:35:41Z</time>
      </trkpt>
      <trkpt lat="48.26804" lon="-2.02415">
        <ele>85</ele>
        <time>2019-07-16T06:35:42Z</time>
      </trkpt>
      <trkpt lat="48.26807" lon="-2.02415">
        <ele>84.8</ele>
        <time>2019-07-16T06:35:43Z</time>
      </trkpt>
      <trkpt lat="48.26809" lon="-2.02415">
        <ele>84.6</ele>
        <time>2019-07-16T06:35:44Z</time>
      </trkpt>
      <trkpt lat="48.26812" lon="-2.02416">
        <ele>84.6</ele>
        <time>2019-07-16T06:35:45Z</time>
      </trkpt>
      <trkpt lat="48.26814" lon="-2.02417">
        <ele>84.9</ele>
        <time>2019-07-16T06:35:46Z</time>
      </trkpt>
      <trkpt lat="48.26816" lon="-2.02417">
        <ele>85.1</ele>
        <time>2019-07-16T06:35:47Z</time>
      </trkpt>
      <trkpt lat="48.26818" lon="-2.02417">
        <ele>85.1</ele>
        <time>2019-07-16T06:35:48Z</time>
      </trkpt>
      <trkpt lat="48.2682" lon="-2.02418">
        <ele>84.9</ele>
        <time>2019-07-16T06:35:49Z</time>
      </trkpt>
      <trkpt lat="48.26823" lon="-2.02418">
        <ele>85</ele>
        <time>2019-07-16T06:35:50Z</time>
      </trkpt>
      <trkpt lat="48.26825" lon="-2.02419">
        <ele>85</ele>
        <time>2019-07-16T06:35:51Z</time>
      </trkpt>
      <trkpt lat="48.26828" lon="-2.02419">
        <ele>85</ele>
        <time>2019-07-16T06:35:52Z</time>
      </trkpt>
      <trkpt lat="48.2683" lon="-2.02419">
        <ele>85</ele>
        <time>2019-07-16T06:35:53Z</time>
      </trkpt>
      <trkpt lat="48.26832" lon="-2.0242">
        <ele>85.2</ele>
        <time>2019-07-16T06:35:54Z</time>
      </trkpt>
      <trkpt lat="48.26835" lon="-2.0242">
        <ele>85.1</ele>
        <time>2019-07-16T06:35:55Z</time>
      </trkpt>
      <trkpt lat="48.26837" lon="-2.0242">
        <ele>85.2</ele>
        <time>2019-07-16T06:35:56Z</time>
      </trkpt>
      <trkpt lat="48.2684" lon="-2.02421">
        <ele>85.1</ele>
        <time>2019-07-16T06:35:57Z</time>
      </trkpt>
      <trkpt lat="48.26842" lon="-2.02421">
        <ele>85.5</ele>
        <time>2019-07-16T06:35:58Z</time>
      </trkpt>
      <trkpt lat="48.26844" lon="-2.02421">
        <ele>86.1</ele>
        <time>2019-07-16T06:35:59Z</time>
      </trkpt>
      <trkpt lat="48.26846" lon="-2.02422">
        <ele>86.7</ele>
        <time>2019-07-16T06:36:00Z</time>
      </trkpt>
      <trkpt lat="48.26849" lon="-2.02423">
        <ele>86.7</ele>
        <time>2019-07-16T06:36:01Z</time>
      </trkpt>
      <trkpt lat="48.26852" lon="-2.02424">
        <ele>86.7</ele>
        <time>2019-07-16T06:36:02Z</time>
      </trkpt>
      <trkpt lat="48.26855" lon="-2.02425">
        <ele>86.5</ele>
        <time>2019-07-16T06:36:03Z</time>
      </trkpt>
      <trkpt lat="48.26858" lon="-2.02426">
        <ele>86.4</ele>
        <time>2019-07-16T06:36:04Z</time>
      </trkpt>
      <trkpt lat="48.26861" lon="-2.02426">
        <ele>86.3</ele>
        <time>2019-07-16T06:36:05Z</time>
      </trkpt>
      <trkpt lat="48.26864" lon="-2.02427">
        <ele>86.2</ele>
        <time>2019-07-16T06:36:06Z</time>
      </trkpt>
      <trkpt lat="48.26866" lon="-2.02427">
        <ele>86.4</ele>
        <time>2019-07-16T06:36:07Z</time>
      </trkpt>
      <trkpt lat="48.26869" lon="-2.02428">
        <ele>86.5</ele>
        <time>2019-07-16T06:36:08Z</time>
      </trkpt>
      <trkpt lat="48.26872" lon="-2.02429">
        <ele>86.5</ele>
        <time>2019-07-16T06:36:09Z</time>
      </trkpt>
      <trkpt lat="48.26874" lon="-2.0243">
        <ele>86.3</ele>
        <time>2019-07-16T06:36:10Z</time>
      </trkpt>
      <trkpt lat="48.26878" lon="-2.0243">
        <ele>86.2</ele>
        <time>2019-07-16T06:36:11Z</time>
      </trkpt>
      <trkpt lat="48.26881" lon="-2.02431">
        <ele>86.2</ele>
        <time>2019-07-16T06:36:12Z</time>
      </trkpt>
      <trkpt lat="48.26883" lon="-2.02431">
        <ele>86.1</ele>
        <time>2019-07-16T06:36:13Z</time>
      </trkpt>
      <trkpt lat="48.26886" lon="-2.02432">
        <ele>86</ele>
        <time>2019-07-16T06:36:14Z</time>
      </trkpt>
      <trkpt lat="48.26889" lon="-2.02432">
        <ele>85.8</ele>
        <time>2019-07-16T06:36:15Z</time>
      </trkpt>
      <trkpt lat="48.26892" lon="-2.02432">
        <ele>85.6</ele>
        <time>2019-07-16T06:36:16Z</time>
      </trkpt>
      <trkpt lat="48.26895" lon="-2.02433">
        <ele>85.2</ele>
        <time>2019-07-16T06:36:17Z</time>
      </trkpt>
      <trkpt lat="48.26898" lon="-2.02433">
        <ele>85.1</ele>
        <time>2019-07-16T06:36:18Z</time>
      </trkpt>
      <trkpt lat="48.26901" lon="-2.02434">
        <ele>85.1</ele>
        <time>2019-07-16T06:36:19Z</time>
      </trkpt>
      <trkpt lat="48.26904" lon="-2.02435">
        <ele>85.1</ele>
        <time>2019-07-16T06:36:20Z</time>
      </trkpt>
      <trkpt lat="48.26907" lon="-2.02435">
        <ele>85.2</ele>
        <time>2019-07-16T06:36:21Z</time>
      </trkpt>
      <trkpt lat="48.2691" lon="-2.02435">
        <ele>85.2</ele>
        <time>2019-07-16T06:36:22Z</time>
      </trkpt>
      <trkpt lat="48.26913" lon="-2.02435">
        <ele>84.9</ele>
        <time>2019-07-16T06:36:23Z</time>
      </trkpt>
      <trkpt lat="48.26916" lon="-2.02436">
        <ele>84.8</ele>
        <time>2019-07-16T06:36:24Z</time>
      </trkpt>
      <trkpt lat="48.26919" lon="-2.02437">
        <ele>84.8</ele>
        <time>2019-07-16T06:36:25Z</time>
      </trkpt>
      <trkpt lat="48.26922" lon="-2.02437">
        <ele>85</ele>
        <time>2019-07-16T06:36:26Z</time>
      </trkpt>
      <trkpt lat="48.26925" lon="-2.02438">
        <ele>85.1</ele>
        <time>2019-07-16T06:36:27Z</time>
      </trkpt>
      <trkpt lat="48.26928" lon="-2.02438">
        <ele>85</ele>
        <time>2019-07-16T06:36:28Z</time>
      </trkpt>
      <trkpt lat="48.26931" lon="-2.02439">
        <ele>84.9</ele>
        <time>2019-07-16T06:36:29Z</time>
      </trkpt>
      <trkpt lat="48.26934" lon="-2.02439">
        <ele>84.7</ele>
        <time>2019-07-16T06:36:30Z</time>
      </trkpt>
      <trkpt lat="48.26938" lon="-2.02439">
        <ele>84.6</ele>
        <time>2019-07-16T06:36:31Z</time>
      </trkpt>
      <trkpt lat="48.26941" lon="-2.02439">
        <ele>84.5</ele>
        <time>2019-07-16T06:36:32Z</time>
      </trkpt>
      <trkpt lat="48.26944" lon="-2.0244">
        <ele>84.5</ele>
        <time>2019-07-16T06:36:33Z</time>
      </trkpt>
      <trkpt lat="48.26947" lon="-2.0244">
        <ele>84.6</ele>
        <time>2019-07-16T06:36:34Z</time>
      </trkpt>
      <trkpt lat="48.26951" lon="-2.0244">
        <ele>84.6</ele>
        <time>2019-07-16T06:36:35Z</time>
      </trkpt>
      <trkpt lat="48.26954" lon="-2.0244">
        <ele>84.9</ele>
        <time>2019-07-16T06:36:36Z</time>
      </trkpt>
      <trkpt lat="48.26957" lon="-2.0244">
        <ele>84.9</ele>
        <time>2019-07-16T06:36:37Z</time>
      </trkpt>
      <trkpt lat="48.2696" lon="-2.0244">
        <ele>85</ele>
        <time>2019-07-16T06:36:38Z</time>
      </trkpt>
      <trkpt lat="48.26963" lon="-2.0244">
        <ele>84.8</ele>
        <time>2019-07-16T06:36:39Z</time>
      </trkpt>
      <trkpt lat="48.26967" lon="-2.02439">
        <ele>84.6</ele>
        <time>2019-07-16T06:36:40Z</time>
      </trkpt>
      <trkpt lat="48.2697" lon="-2.02438">
        <ele>84.6</ele>
        <time>2019-07-16T06:36:41Z</time>
      </trkpt>
      <trkpt lat="48.26973" lon="-2.02437">
        <ele>84.6</ele>
        <time>2019-07-16T06:36:42Z</time>
      </trkpt>
      <trkpt lat="48.26977" lon="-2.02437">
        <ele>84.7</ele>
        <time>2019-07-16T06:36:43Z</time>
      </trkpt>
      <trkpt lat="48.2698" lon="-2.02436">
        <ele>84.8</ele>
        <time>2019-07-16T06:36:44Z</time>
      </trkpt>
      <trkpt lat="48.26984" lon="-2.02435">
        <ele>84.9</ele>
        <time>2019-07-16T06:36:45Z</time>
      </trkpt>
      <trkpt lat="48.26987" lon="-2.02433">
        <ele>84.9</ele>
        <time>2019-07-16T06:36:46Z</time>
      </trkpt>
      <trkpt lat="48.26991" lon="-2.02432">
        <ele>85</ele>
        <time>2019-07-16T06:36:47Z</time>
      </trkpt>
      <trkpt lat="48.26994" lon="-2.02431">
        <ele>85</ele>
        <time>2019-07-16T06:36:48Z</time>
      </trkpt>
      <trkpt lat="48.26997" lon="-2.02429">
        <ele>85.1</ele>
        <time>2019-07-16T06:36:49Z</time>
      </trkpt>
      <trkpt lat="48.27001" lon="-2.02428">
        <ele>85.1</ele>
        <time>2019-07-16T06:36:50Z</time>
      </trkpt>
      <trkpt lat="48.27004" lon="-2.02426">
        <ele>85.1</ele>
        <time>2019-07-16T06:36:51Z</time>
      </trkpt>
      <trkpt lat="48.27007" lon="-2.02425">
        <ele>85.5</ele>
        <time>2019-07-16T06:36:52Z</time>
      </trkpt>
      <trkpt lat="48.2701" lon="-2.02423">
        <ele>85.8</ele>
        <time>2019-07-16T06:36:53Z</time>
      </trkpt>
      <trkpt lat="48.27014" lon="-2.02421">
        <ele>85.8</ele>
        <time>2019-07-16T06:36:54Z</time>
      </trkpt>
      <trkpt lat="48.27017" lon="-2.0242">
        <ele>85.8</ele>
        <time>2019-07-16T06:36:55Z</time>
      </trkpt>
      <trkpt lat="48.27021" lon="-2.02418">
        <ele>86</ele>
        <time>2019-07-16T06:36:56Z</time>
      </trkpt>
      <trkpt lat="48.27024" lon="-2.02416">
        <ele>86.1</ele>
        <time>2019-07-16T06:36:57Z</time>
      </trkpt>
      <trkpt lat="48.27028" lon="-2.02414">
        <ele>86.1</ele>
        <time>2019-07-16T06:36:58Z</time>
      </trkpt>
      <trkpt lat="48.27031" lon="-2.02412">
        <ele>86.1</ele>
        <time>2019-07-16T06:36:59Z</time>
      </trkpt>
      <trkpt lat="48.27034" lon="-2.02411">
        <ele>86.2</ele>
        <time>2019-07-16T06:37:00Z</time>
      </trkpt>
      <trkpt lat="48.27037" lon="-2.02409">
        <ele>86.1</ele>
        <time>2019-07-16T06:37:01Z</time>
      </trkpt>
      <trkpt lat="48.27041" lon="-2.02407">
        <ele>85.9</ele>
        <time>2019-07-16T06:37:02Z</time>
      </trkpt>
      <trkpt lat="48.27045" lon="-2.02405">
        <ele>86</ele>
        <time>2019-07-16T06:37:03Z</time>
      </trkpt>
      <trkpt lat="48.27048" lon="-2.02404">
        <ele>86.1</ele>
        <time>2019-07-16T06:37:04Z</time>
      </trkpt>
      <trkpt lat="48.27051" lon="-2.02402">
        <ele>86.1</ele>
        <time>2019-07-16T06:37:05Z</time>
      </trkpt>
      <trkpt lat="48.27055" lon="-2.024">
        <ele>85.9</ele>
        <time>2019-07-16T06:37:06Z</time>
      </trkpt>
      <trkpt lat="48.27058" lon="-2.02398">
        <ele>85.9</ele>
        <time>2019-07-16T06:37:07Z</time>
      </trkpt>
      <trkpt lat="48.27062" lon="-2.02396">
        <ele>85.9</ele>
        <time>2019-07-16T06:37:08Z</time>
      </trkpt>
      <trkpt lat="48.27066" lon="-2.02394">
        <ele>85.7</ele>
        <time>2019-07-16T06:37:09Z</time>
      </trkpt>
      <trkpt lat="48.2707" lon="-2.02392">
        <ele>85.7</ele>
        <time>2019-07-16T06:37:10Z</time>
      </trkpt>
      <trkpt lat="48.27073" lon="-2.02391">
        <ele>85.7</ele>
        <time>2019-07-16T06:37:11Z</time>
      </trkpt>
      <trkpt lat="48.27076" lon="-2.02389">
        <ele>86</ele>
        <time>2019-07-16T06:37:12Z</time>
      </trkpt>
      <trkpt lat="48.2708" lon="-2.02387">
        <ele>85.9</ele>
        <time>2019-07-16T06:37:13Z</time>
      </trkpt>
      <trkpt lat="48.27084" lon="-2.02386">
        <ele>85.8</ele>
        <time>2019-07-16T06:37:14Z</time>
      </trkpt>
      <trkpt lat="48.27088" lon="-2.02383">
        <ele>85.3</ele>
        <time>2019-07-16T06:37:15Z</time>
      </trkpt>
      <trkpt lat="48.27091" lon="-2.02381">
        <ele>85.2</ele>
        <time>2019-07-16T06:37:16Z</time>
      </trkpt>
      <trkpt lat="48.27095" lon="-2.02379">
        <ele>84.8</ele>
        <time>2019-07-16T06:37:17Z</time>
      </trkpt>
      <trkpt lat="48.27098" lon="-2.02377">
        <ele>84.3</ele>
        <time>2019-07-16T06:37:18Z</time>
      </trkpt>
      <trkpt lat="48.27102" lon="-2.02375">
        <ele>84.3</ele>
        <time>2019-07-16T06:37:19Z</time>
      </trkpt>
      <trkpt lat="48.27105" lon="-2.02373">
        <ele>83.9</ele>
        <time>2019-07-16T06:37:20Z</time>
      </trkpt>
      <trkpt lat="48.27109" lon="-2.02371">
        <ele>84</ele>
        <time>2019-07-16T06:37:21Z</time>
      </trkpt>
      <trkpt lat="48.27113" lon="-2.02369">
        <ele>84.2</ele>
        <time>2019-07-16T06:37:22Z</time>
      </trkpt>
      <trkpt lat="48.27116" lon="-2.02367">
        <ele>84.1</ele>
        <time>2019-07-16T06:37:23Z</time>
      </trkpt>
      <trkpt lat="48.2712" lon="-2.02365">
        <ele>84.7</ele>
        <time>2019-07-16T06:37:24Z</time>
      </trkpt>
      <trkpt lat="48.27124" lon="-2.02363">
        <ele>84.8</ele>
        <time>2019-07-16T06:37:25Z</time>
      </trkpt>
      <trkpt lat="48.27128" lon="-2.02361">
        <ele>85</ele>
        <time>2019-07-16T06:37:26Z</time>
      </trkpt>
      <trkpt lat="48.27132" lon="-2.02359">
        <ele>85.3</ele>
        <time>2019-07-16T06:37:27Z</time>
      </trkpt>
      <trkpt lat="48.27135" lon="-2.02357">
        <ele>85.3</ele>
        <time>2019-07-16T06:37:28Z</time>
      </trkpt>
      <trkpt lat="48.27139" lon="-2.02355">
        <ele>85.3</ele>
        <time>2019-07-16T06:37:29Z</time>
      </trkpt>
      <trkpt lat="48.27143" lon="-2.02353">
        <ele>85.2</ele>
        <time>2019-07-16T06:37:30Z</time>
      </trkpt>
      <trkpt lat="48.27147" lon="-2.02351">
        <ele>84.9</ele>
        <time>2019-07-16T06:37:31Z</time>
      </trkpt>
      <trkpt lat="48.2715" lon="-2.02348">
        <ele>85</ele>
        <time>2019-07-16T06:37:32Z</time>
      </trkpt>
      <trkpt lat="48.27154" lon="-2.02347">
        <ele>85.2</ele>
        <time>2019-07-16T06:37:33Z</time>
      </trkpt>
      <trkpt lat="48.27158" lon="-2.02345">
        <ele>85.5</ele>
        <time>2019-07-16T06:37:34Z</time>
      </trkpt>
      <trkpt lat="48.27161" lon="-2.02343">
        <ele>85.7</ele>
        <time>2019-07-16T06:37:35Z</time>
      </trkpt>
      <trkpt lat="48.27165" lon="-2.02342">
        <ele>85.6</ele>
        <time>2019-07-16T06:37:36Z</time>
      </trkpt>
      <trkpt lat="48.27169" lon="-2.02341">
        <ele>85.9</ele>
        <time>2019-07-16T06:37:37Z</time>
      </trkpt>
      <trkpt lat="48.27173" lon="-2.0234">
        <ele>86.1</ele>
        <time>2019-07-16T06:37:38Z</time>
      </trkpt>
      <trkpt lat="48.2718" lon="-2.02338">
        <ele>85.8</ele>
        <time>2019-07-16T06:37:40Z</time>
      </trkpt>
      <trkpt lat="48.27183" lon="-2.02338">
        <ele>86</ele>
        <time>2019-07-16T06:37:41Z</time>
      </trkpt>
      <trkpt lat="48.27187" lon="-2.02338">
        <ele>85.9</ele>
        <time>2019-07-16T06:37:42Z</time>
      </trkpt>
      <trkpt lat="48.2719" lon="-2.02338">
        <ele>86.2</ele>
        <time>2019-07-16T06:37:43Z</time>
      </trkpt>
      <trkpt lat="48.27194" lon="-2.02337">
        <ele>86.4</ele>
        <time>2019-07-16T06:37:44Z</time>
      </trkpt>
      <trkpt lat="48.27198" lon="-2.02337">
        <ele>86.6</ele>
        <time>2019-07-16T06:37:45Z</time>
      </trkpt>
      <trkpt lat="48.27202" lon="-2.02337">
        <ele>87</ele>
        <time>2019-07-16T06:37:46Z</time>
      </trkpt>
      <trkpt lat="48.27205" lon="-2.02337">
        <ele>87.3</ele>
        <time>2019-07-16T06:37:47Z</time>
      </trkpt>
      <trkpt lat="48.2721" lon="-2.02338">
        <ele>86.4</ele>
        <time>2019-07-16T06:37:48Z</time>
      </trkpt>
      <trkpt lat="48.27213" lon="-2.02338">
        <ele>86.1</ele>
        <time>2019-07-16T06:37:49Z</time>
      </trkpt>
      <trkpt lat="48.27218" lon="-2.02338">
        <ele>85.9</ele>
        <time>2019-07-16T06:37:50Z</time>
      </trkpt>
      <trkpt lat="48.27221" lon="-2.02338">
        <ele>85.7</ele>
        <time>2019-07-16T06:37:51Z</time>
      </trkpt>
      <trkpt lat="48.27225" lon="-2.02339">
        <ele>85.8</ele>
        <time>2019-07-16T06:37:52Z</time>
      </trkpt>
      <trkpt lat="48.27229" lon="-2.02339">
        <ele>85.5</ele>
        <time>2019-07-16T06:37:53Z</time>
      </trkpt>
      <trkpt lat="48.27232" lon="-2.02339">
        <ele>85.1</ele>
        <time>2019-07-16T06:37:54Z</time>
      </trkpt>
      <trkpt lat="48.27237" lon="-2.02339">
        <ele>85</ele>
        <time>2019-07-16T06:37:55Z</time>
      </trkpt>
      <trkpt lat="48.27241" lon="-2.02339">
        <ele>85</ele>
        <time>2019-07-16T06:37:56Z</time>
      </trkpt>
      <trkpt lat="48.27245" lon="-2.02339">
        <ele>85.1</ele>
        <time>2019-07-16T06:37:57Z</time>
      </trkpt>
      <trkpt lat="48.27248" lon="-2.02339">
        <ele>85.1</ele>
        <time>2019-07-16T06:37:58Z</time>
      </trkpt>
      <trkpt lat="48.27252" lon="-2.02339">
        <ele>85.1</ele>
        <time>2019-07-16T06:37:59Z</time>
      </trkpt>
      <trkpt lat="48.27256" lon="-2.02339">
        <ele>85</ele>
        <time>2019-07-16T06:38:00Z</time>
      </trkpt>
      <trkpt lat="48.2726" lon="-2.0234">
        <ele>85.1</ele>
        <time>2019-07-16T06:38:01Z</time>
      </trkpt>
      <trkpt lat="48.27264" lon="-2.0234">
        <ele>85.1</ele>
        <time>2019-07-16T06:38:02Z</time>
      </trkpt>
      <trkpt lat="48.27267" lon="-2.0234">
        <ele>85.4</ele>
        <time>2019-07-16T06:38:03Z</time>
      </trkpt>
      <trkpt lat="48.27271" lon="-2.0234">
        <ele>85.6</ele>
        <time>2019-07-16T06:38:04Z</time>
      </trkpt>
      <trkpt lat="48.27274" lon="-2.02341">
        <ele>85.8</ele>
        <time>2019-07-16T06:38:05Z</time>
      </trkpt>
      <trkpt lat="48.27278" lon="-2.02341">
        <ele>85.4</ele>
        <time>2019-07-16T06:38:06Z</time>
      </trkpt>
      <trkpt lat="48.27282" lon="-2.02341">
        <ele>85</ele>
        <time>2019-07-16T06:38:07Z</time>
      </trkpt>
      <trkpt lat="48.27286" lon="-2.02341">
        <ele>85</ele>
        <time>2019-07-16T06:38:08Z</time>
      </trkpt>
      <trkpt lat="48.2729" lon="-2.02342">
        <ele>84.8</ele>
        <time>2019-07-16T06:38:09Z</time>
      </trkpt>
      <trkpt lat="48.27293" lon="-2.02342">
        <ele>84.7</ele>
        <time>2019-07-16T06:38:10Z</time>
      </trkpt>
      <trkpt lat="48.27297" lon="-2.02342">
        <ele>84.5</ele>
        <time>2019-07-16T06:38:11Z</time>
      </trkpt>
      <trkpt lat="48.27301" lon="-2.02342">
        <ele>84.4</ele>
        <time>2019-07-16T06:38:12Z</time>
      </trkpt>
      <trkpt lat="48.27305" lon="-2.02343">
        <ele>84.4</ele>
        <time>2019-07-16T06:38:13Z</time>
      </trkpt>
      <trkpt lat="48.27308" lon="-2.02343">
        <ele>84.6</ele>
        <time>2019-07-16T06:38:14Z</time>
      </trkpt>
      <trkpt lat="48.27311" lon="-2.02344">
        <ele>84.7</ele>
        <time>2019-07-16T06:38:15Z</time>
      </trkpt>
      <trkpt lat="48.27316" lon="-2.02345">
        <ele>84.7</ele>
        <time>2019-07-16T06:38:16Z</time>
      </trkpt>
      <trkpt lat="48.27319" lon="-2.02346">
        <ele>84.9</ele>
        <time>2019-07-16T06:38:17Z</time>
      </trkpt>
      <trkpt lat="48.27323" lon="-2.02348">
        <ele>85.4</ele>
        <time>2019-07-16T06:38:18Z</time>
      </trkpt>
      <trkpt lat="48.27327" lon="-2.02349">
        <ele>85.8</ele>
        <time>2019-07-16T06:38:19Z</time>
      </trkpt>
      <trkpt lat="48.2733" lon="-2.02351">
        <ele>86</ele>
        <time>2019-07-16T06:38:20Z</time>
      </trkpt>
      <trkpt lat="48.27334" lon="-2.02353">
        <ele>86.1</ele>
        <time>2019-07-16T06:38:21Z</time>
      </trkpt>
      <trkpt lat="48.27337" lon="-2.02355">
        <ele>86.2</ele>
        <time>2019-07-16T06:38:22Z</time>
      </trkpt>
      <trkpt lat="48.27341" lon="-2.02357">
        <ele>86.1</ele>
        <time>2019-07-16T06:38:23Z</time>
      </trkpt>
      <trkpt lat="48.27344" lon="-2.0236">
        <ele>86.1</ele>
        <time>2019-07-16T06:38:24Z</time>
      </trkpt>
      <trkpt lat="48.27347" lon="-2.02363">
        <ele>86.3</ele>
        <time>2019-07-16T06:38:25Z</time>
      </trkpt>
      <trkpt lat="48.27351" lon="-2.02366">
        <ele>86.6</ele>
        <time>2019-07-16T06:38:26Z</time>
      </trkpt>
      <trkpt lat="48.27354" lon="-2.02369">
        <ele>86.8</ele>
        <time>2019-07-16T06:38:27Z</time>
      </trkpt>
      <trkpt lat="48.27358" lon="-2.02372">
        <ele>87.2</ele>
        <time>2019-07-16T06:38:28Z</time>
      </trkpt>
      <trkpt lat="48.27361" lon="-2.02375">
        <ele>87.3</ele>
        <time>2019-07-16T06:38:29Z</time>
      </trkpt>
      <trkpt lat="48.27364" lon="-2.02378">
        <ele>87.7</ele>
        <time>2019-07-16T06:38:30Z</time>
      </trkpt>
      <trkpt lat="48.27367" lon="-2.02382">
        <ele>87.9</ele>
        <time>2019-07-16T06:38:31Z</time>
      </trkpt>
      <trkpt lat="48.27371" lon="-2.02385">
        <ele>88.2</ele>
        <time>2019-07-16T06:38:32Z</time>
      </trkpt>
      <trkpt lat="48.27374" lon="-2.02388">
        <ele>88.2</ele>
        <time>2019-07-16T06:38:33Z</time>
      </trkpt>
      <trkpt lat="48.27377" lon="-2.02391">
        <ele>88.2</ele>
        <time>2019-07-16T06:38:34Z</time>
      </trkpt>
      <trkpt lat="48.2738" lon="-2.02394">
        <ele>88.3</ele>
        <time>2019-07-16T06:38:35Z</time>
      </trkpt>
      <trkpt lat="48.27383" lon="-2.02397">
        <ele>88.2</ele>
        <time>2019-07-16T06:38:36Z</time>
      </trkpt>
      <trkpt lat="48.27387" lon="-2.024">
        <ele>88.3</ele>
        <time>2019-07-16T06:38:37Z</time>
      </trkpt>
      <trkpt lat="48.27389" lon="-2.02404">
        <ele>88.2</ele>
        <time>2019-07-16T06:38:38Z</time>
      </trkpt>
      <trkpt lat="48.27393" lon="-2.02406">
        <ele>88</ele>
        <time>2019-07-16T06:38:39Z</time>
      </trkpt>
      <trkpt lat="48.27396" lon="-2.02409">
        <ele>87.8</ele>
        <time>2019-07-16T06:38:40Z</time>
      </trkpt>
      <trkpt lat="48.274" lon="-2.02411">
        <ele>88.3</ele>
        <time>2019-07-16T06:38:41Z</time>
      </trkpt>
      <trkpt lat="48.27404" lon="-2.02413">
        <ele>88.7</ele>
        <time>2019-07-16T06:38:42Z</time>
      </trkpt>
      <trkpt lat="48.27407" lon="-2.02416">
        <ele>88.8</ele>
        <time>2019-07-16T06:38:43Z</time>
      </trkpt>
      <trkpt lat="48.27411" lon="-2.02418">
        <ele>89.2</ele>
        <time>2019-07-16T06:38:44Z</time>
      </trkpt>
      <trkpt lat="48.27414" lon="-2.02419">
        <ele>89.6</ele>
        <time>2019-07-16T06:38:45Z</time>
      </trkpt>
      <trkpt lat="48.27419" lon="-2.02421">
        <ele>89.7</ele>
        <time>2019-07-16T06:38:46Z</time>
      </trkpt>
      <trkpt lat="48.27423" lon="-2.02422">
        <ele>89.9</ele>
        <time>2019-07-16T06:38:47Z</time>
      </trkpt>
      <trkpt lat="48.27427" lon="-2.02423">
        <ele>90</ele>
        <time>2019-07-16T06:38:48Z</time>
      </trkpt>
      <trkpt lat="48.27431" lon="-2.02424">
        <ele>90.1</ele>
        <time>2019-07-16T06:38:49Z</time>
      </trkpt>
      <trkpt lat="48.27435" lon="-2.02425">
        <ele>90.4</ele>
        <time>2019-07-16T06:38:50Z</time>
      </trkpt>
      <trkpt lat="48.27438" lon="-2.02425">
        <ele>90.5</ele>
        <time>2019-07-16T06:38:51Z</time>
      </trkpt>
      <trkpt lat="48.27442" lon="-2.02426">
        <ele>90.2</ele>
        <time>2019-07-16T06:38:52Z</time>
      </trkpt>
      <trkpt lat="48.27446" lon="-2.02426">
        <ele>90.2</ele>
        <time>2019-07-16T06:38:53Z</time>
      </trkpt>
      <trkpt lat="48.2745" lon="-2.02427">
        <ele>90.3</ele>
        <time>2019-07-16T06:38:54Z</time>
      </trkpt>
      <trkpt lat="48.27454" lon="-2.02427">
        <ele>90.2</ele>
        <time>2019-07-16T06:38:55Z</time>
      </trkpt>
      <trkpt lat="48.27457" lon="-2.02427">
        <ele>90.1</ele>
        <time>2019-07-16T06:38:56Z</time>
      </trkpt>
      <trkpt lat="48.27461" lon="-2.02428">
        <ele>90</ele>
        <time>2019-07-16T06:38:57Z</time>
      </trkpt>
      <trkpt lat="48.27465" lon="-2.02428">
        <ele>89.9</ele>
        <time>2019-07-16T06:38:58Z</time>
      </trkpt>
      <trkpt lat="48.27469" lon="-2.02428">
        <ele>89.8</ele>
        <time>2019-07-16T06:38:59Z</time>
      </trkpt>
      <trkpt lat="48.27472" lon="-2.02428">
        <ele>89.5</ele>
        <time>2019-07-16T06:39:00Z</time>
      </trkpt>
      <trkpt lat="48.27476" lon="-2.02428">
        <ele>89.2</ele>
        <time>2019-07-16T06:39:01Z</time>
      </trkpt>
      <trkpt lat="48.27479" lon="-2.02429">
        <ele>89</ele>
        <time>2019-07-16T06:39:02Z</time>
      </trkpt>
      <trkpt lat="48.27483" lon="-2.02429">
        <ele>89</ele>
        <time>2019-07-16T06:39:03Z</time>
      </trkpt>
      <trkpt lat="48.27486" lon="-2.02429">
        <ele>89.2</ele>
        <time>2019-07-16T06:39:04Z</time>
      </trkpt>
      <trkpt lat="48.2749" lon="-2.0243">
        <ele>89.5</ele>
        <time>2019-07-16T06:39:05Z</time>
      </trkpt>
      <trkpt lat="48.27493" lon="-2.02431">
        <ele>89.7</ele>
        <time>2019-07-16T06:39:06Z</time>
      </trkpt>
      <trkpt lat="48.27496" lon="-2.02432">
        <ele>89.6</ele>
        <time>2019-07-16T06:39:07Z</time>
      </trkpt>
      <trkpt lat="48.275" lon="-2.02432">
        <ele>89.7</ele>
        <time>2019-07-16T06:39:08Z</time>
      </trkpt>
      <trkpt lat="48.27503" lon="-2.02433">
        <ele>89.7</ele>
        <time>2019-07-16T06:39:09Z</time>
      </trkpt>
      <trkpt lat="48.27507" lon="-2.02434">
        <ele>89.8</ele>
        <time>2019-07-16T06:39:10Z</time>
      </trkpt>
      <trkpt lat="48.2751" lon="-2.02434">
        <ele>89.7</ele>
        <time>2019-07-16T06:39:11Z</time>
      </trkpt>
      <trkpt lat="48.27513" lon="-2.02435">
        <ele>89.4</ele>
        <time>2019-07-16T06:39:12Z</time>
      </trkpt>
      <trkpt lat="48.27516" lon="-2.02435">
        <ele>89.3</ele>
        <time>2019-07-16T06:39:13Z</time>
      </trkpt>
      <trkpt lat="48.27517" lon="-2.02435">
        <ele>89.6</ele>
        <time>2019-07-16T06:39:14Z</time>
      </trkpt>
      <trkpt lat="48.27519" lon="-2.02435">
        <ele>89.6</ele>
        <time>2019-07-16T06:39:15Z</time>
      </trkpt>
      <trkpt lat="48.27527" lon="-2.02437">
        <ele>90.1</ele>
        <time>2019-07-16T06:39:25Z</time>
      </trkpt>
      <trkpt lat="48.2753" lon="-2.02438">
        <ele>90.4</ele>
        <time>2019-07-16T06:39:26Z</time>
      </trkpt>
      <trkpt lat="48.27532" lon="-2.02439">
        <ele>90.8</ele>
        <time>2019-07-16T06:39:27Z</time>
      </trkpt>
      <trkpt lat="48.27535" lon="-2.02439">
        <ele>90.9</ele>
        <time>2019-07-16T06:39:28Z</time>
      </trkpt>
      <trkpt lat="48.27537" lon="-2.0244">
        <ele>90.9</ele>
        <time>2019-07-16T06:39:29Z</time>
      </trkpt>
      <trkpt lat="48.27539" lon="-2.0244">
        <ele>90.9</ele>
        <time>2019-07-16T06:39:30Z</time>
      </trkpt>
      <trkpt lat="48.27542" lon="-2.02441">
        <ele>90.9</ele>
        <time>2019-07-16T06:39:31Z</time>
      </trkpt>
      <trkpt lat="48.27545" lon="-2.02442">
        <ele>90.7</ele>
        <time>2019-07-16T06:39:32Z</time>
      </trkpt>
      <trkpt lat="48.27548" lon="-2.02443">
        <ele>90.3</ele>
        <time>2019-07-16T06:39:33Z</time>
      </trkpt>
      <trkpt lat="48.27552" lon="-2.02443">
        <ele>90.1</ele>
        <time>2019-07-16T06:39:34Z</time>
      </trkpt>
      <trkpt lat="48.27555" lon="-2.02444">
        <ele>89.8</ele>
        <time>2019-07-16T06:39:35Z</time>
      </trkpt>
      <trkpt lat="48.27559" lon="-2.02445">
        <ele>89.7</ele>
        <time>2019-07-16T06:39:36Z</time>
      </trkpt>
      <trkpt lat="48.27562" lon="-2.02445">
        <ele>89.5</ele>
        <time>2019-07-16T06:39:37Z</time>
      </trkpt>
      <trkpt lat="48.27565" lon="-2.02447">
        <ele>89.4</ele>
        <time>2019-07-16T06:39:38Z</time>
      </trkpt>
      <trkpt lat="48.27569" lon="-2.02448">
        <ele>89.1</ele>
        <time>2019-07-16T06:39:39Z</time>
      </trkpt>
      <trkpt lat="48.27572" lon="-2.0245">
        <ele>89.5</ele>
        <time>2019-07-16T06:39:40Z</time>
      </trkpt>
      <trkpt lat="48.27575" lon="-2.0245">
        <ele>89.5</ele>
        <time>2019-07-16T06:39:41Z</time>
      </trkpt>
      <trkpt lat="48.27579" lon="-2.02451">
        <ele>89.5</ele>
        <time>2019-07-16T06:39:42Z</time>
      </trkpt>
      <trkpt lat="48.27582" lon="-2.02453">
        <ele>90</ele>
        <time>2019-07-16T06:39:43Z</time>
      </trkpt>
      <trkpt lat="48.27586" lon="-2.02454">
        <ele>89.9</ele>
        <time>2019-07-16T06:39:44Z</time>
      </trkpt>
      <trkpt lat="48.27589" lon="-2.02455">
        <ele>89.9</ele>
        <time>2019-07-16T06:39:45Z</time>
      </trkpt>
      <trkpt lat="48.27593" lon="-2.02455">
        <ele>90</ele>
        <time>2019-07-16T06:39:46Z</time>
      </trkpt>
      <trkpt lat="48.27595" lon="-2.02456">
        <ele>90</ele>
        <time>2019-07-16T06:39:47Z</time>
      </trkpt>
      <trkpt lat="48.27597" lon="-2.02458">
        <ele>90.1</ele>
        <time>2019-07-16T06:39:48Z</time>
      </trkpt>
      <trkpt lat="48.27598" lon="-2.0246">
        <ele>90.3</ele>
        <time>2019-07-16T06:39:49Z</time>
      </trkpt>
      <trkpt lat="48.27598" lon="-2.02464">
        <ele>90.7</ele>
        <time>2019-07-16T06:39:50Z</time>
      </trkpt>
      <trkpt lat="48.27597" lon="-2.02469">
        <ele>91</ele>
        <time>2019-07-16T06:39:51Z</time>
      </trkpt>
      <trkpt lat="48.27596" lon="-2.02474">
        <ele>91.2</ele>
        <time>2019-07-16T06:39:52Z</time>
      </trkpt>
      <trkpt lat="48.27594" lon="-2.02479">
        <ele>91.3</ele>
        <time>2019-07-16T06:39:53Z</time>
      </trkpt>
      <trkpt lat="48.27593" lon="-2.02484">
        <ele>91.6</ele>
        <time>2019-07-16T06:39:54Z</time>
      </trkpt>
      <trkpt lat="48.27591" lon="-2.0249">
        <ele>91.9</ele>
        <time>2019-07-16T06:39:55Z</time>
      </trkpt>
      <trkpt lat="48.27589" lon="-2.02496">
        <ele>92.1</ele>
        <time>2019-07-16T06:39:56Z</time>
      </trkpt>
      <trkpt lat="48.27587" lon="-2.02502">
        <ele>92.5</ele>
        <time>2019-07-16T06:39:57Z</time>
      </trkpt>
      <trkpt lat="48.27585" lon="-2.02508">
        <ele>93.1</ele>
        <time>2019-07-16T06:39:58Z</time>
      </trkpt>
      <trkpt lat="48.27582" lon="-2.02514">
        <ele>93.2</ele>
        <time>2019-07-16T06:39:59Z</time>
      </trkpt>
      <trkpt lat="48.2758" lon="-2.0252">
        <ele>93</ele>
        <time>2019-07-16T06:40:00Z</time>
      </trkpt>
      <trkpt lat="48.27578" lon="-2.02527">
        <ele>92.7</ele>
        <time>2019-07-16T06:40:01Z</time>
      </trkpt>
      <trkpt lat="48.27576" lon="-2.02534">
        <ele>92.4</ele>
        <time>2019-07-16T06:40:02Z</time>
      </trkpt>
      <trkpt lat="48.27574" lon="-2.0254">
        <ele>92.5</ele>
        <time>2019-07-16T06:40:03Z</time>
      </trkpt>
      <trkpt lat="48.27572" lon="-2.02547">
        <ele>92.8</ele>
        <time>2019-07-16T06:40:04Z</time>
      </trkpt>
      <trkpt lat="48.2757" lon="-2.02554">
        <ele>92.9</ele>
        <time>2019-07-16T06:40:05Z</time>
      </trkpt>
      <trkpt lat="48.27568" lon="-2.02561">
        <ele>93</ele>
        <time>2019-07-16T06:40:06Z</time>
      </trkpt>
      <trkpt lat="48.27566" lon="-2.02568">
        <ele>93.2</ele>
        <time>2019-07-16T06:40:07Z</time>
      </trkpt>
      <trkpt lat="48.27564" lon="-2.02576">
        <ele>93.2</ele>
        <time>2019-07-16T06:40:08Z</time>
      </trkpt>
      <trkpt lat="48.27561" lon="-2.02583">
        <ele>93.3</ele>
        <time>2019-07-16T06:40:09Z</time>
      </trkpt>
      <trkpt lat="48.27559" lon="-2.0259">
        <ele>93.4</ele>
        <time>2019-07-16T06:40:10Z</time>
      </trkpt>
      <trkpt lat="48.27557" lon="-2.02598">
        <ele>93.1</ele>
        <time>2019-07-16T06:40:11Z</time>
      </trkpt>
      <trkpt lat="48.27555" lon="-2.02605">
        <ele>92.9</ele>
        <time>2019-07-16T06:40:12Z</time>
      </trkpt>
      <trkpt lat="48.27553" lon="-2.02613">
        <ele>92.7</ele>
        <time>2019-07-16T06:40:13Z</time>
      </trkpt>
      <trkpt lat="48.27551" lon="-2.02622">
        <ele>92.7</ele>
        <time>2019-07-16T06:40:14Z</time>
      </trkpt>
      <trkpt lat="48.27549" lon="-2.0263">
        <ele>92.8</ele>
        <time>2019-07-16T06:40:15Z</time>
      </trkpt>
      <trkpt lat="48.27548" lon="-2.02639">
        <ele>92.8</ele>
        <time>2019-07-16T06:40:16Z</time>
      </trkpt>
      <trkpt lat="48.27548" lon="-2.02648">
        <ele>93.2</ele>
        <time>2019-07-16T06:40:17Z</time>
      </trkpt>
      <trkpt lat="48.27547" lon="-2.02657">
        <ele>93.7</ele>
        <time>2019-07-16T06:40:18Z</time>
      </trkpt>
      <trkpt lat="48.27546" lon="-2.02666">
        <ele>93.6</ele>
        <time>2019-07-16T06:40:19Z</time>
      </trkpt>
      <trkpt lat="48.27545" lon="-2.02675">
        <ele>93.6</ele>
        <time>2019-07-16T06:40:20Z</time>
      </trkpt>
      <trkpt lat="48.27545" lon="-2.02684">
        <ele>93.7</ele>
        <time>2019-07-16T06:40:21Z</time>
      </trkpt>
      <trkpt lat="48.27544" lon="-2.02693">
        <ele>93.4</ele>
        <time>2019-07-16T06:40:22Z</time>
      </trkpt>
      <trkpt lat="48.27544" lon="-2.02702">
        <ele>93</ele>
        <time>2019-07-16T06:40:23Z</time>
      </trkpt>
      <trkpt lat="48.27543" lon="-2.02711">
        <ele>92.8</ele>
        <time>2019-07-16T06:40:24Z</time>
      </trkpt>
      <trkpt lat="48.27542" lon="-2.0272">
        <ele>92.7</ele>
        <time>2019-07-16T06:40:25Z</time>
      </trkpt>
      <trkpt lat="48.27541" lon="-2.02729">
        <ele>92.2</ele>
        <time>2019-07-16T06:40:26Z</time>
      </trkpt>
      <trkpt lat="48.27541" lon="-2.02738">
        <ele>91.7</ele>
        <time>2019-07-16T06:40:27Z</time>
      </trkpt>
      <trkpt lat="48.2754" lon="-2.02748">
        <ele>91.4</ele>
        <time>2019-07-16T06:40:28Z</time>
      </trkpt>
      <trkpt lat="48.27539" lon="-2.02757">
        <ele>91</ele>
        <time>2019-07-16T06:40:29Z</time>
      </trkpt>
      <trkpt lat="48.27539" lon="-2.02766">
        <ele>90.9</ele>
        <time>2019-07-16T06:40:30Z</time>
      </trkpt>
      <trkpt lat="48.27538" lon="-2.02775">
        <ele>90.9</ele>
        <time>2019-07-16T06:40:31Z</time>
      </trkpt>
      <trkpt lat="48.27537" lon="-2.02785">
        <ele>91.2</ele>
        <time>2019-07-16T06:40:32Z</time>
      </trkpt>
      <trkpt lat="48.27536" lon="-2.02794">
        <ele>91</ele>
        <time>2019-07-16T06:40:33Z</time>
      </trkpt>
      <trkpt lat="48.27535" lon="-2.02803">
        <ele>91.1</ele>
        <time>2019-07-16T06:40:34Z</time>
      </trkpt>
      <trkpt lat="48.27535" lon="-2.02812">
        <ele>91</ele>
        <time>2019-07-16T06:40:35Z</time>
      </trkpt>
      <trkpt lat="48.27534" lon="-2.02821">
        <ele>91</ele>
        <time>2019-07-16T06:40:36Z</time>
      </trkpt>
      <trkpt lat="48.27533" lon="-2.02831">
        <ele>91.1</ele>
        <time>2019-07-16T06:40:37Z</time>
      </trkpt>
      <trkpt lat="48.27532" lon="-2.0284">
        <ele>90.8</ele>
        <time>2019-07-16T06:40:38Z</time>
      </trkpt>
      <trkpt lat="48.27531" lon="-2.02849">
        <ele>90.5</ele>
        <time>2019-07-16T06:40:39Z</time>
      </trkpt>
      <trkpt lat="48.27531" lon="-2.02859">
        <ele>90.6</ele>
        <time>2019-07-16T06:40:40Z</time>
      </trkpt>
      <trkpt lat="48.2753" lon="-2.02868">
        <ele>90.3</ele>
        <time>2019-07-16T06:40:41Z</time>
      </trkpt>
      <trkpt lat="48.27528" lon="-2.02877">
        <ele>89.9</ele>
        <time>2019-07-16T06:40:42Z</time>
      </trkpt>
      <trkpt lat="48.27528" lon="-2.02888">
        <ele>89.3</ele>
        <time>2019-07-16T06:40:43Z</time>
      </trkpt>
      <trkpt lat="48.27526" lon="-2.02898">
        <ele>88.8</ele>
        <time>2019-07-16T06:40:44Z</time>
      </trkpt>
      <trkpt lat="48.27525" lon="-2.02908">
        <ele>88.3</ele>
        <time>2019-07-16T06:40:45Z</time>
      </trkpt>
      <trkpt lat="48.27524" lon="-2.02917">
        <ele>88.3</ele>
        <time>2019-07-16T06:40:46Z</time>
      </trkpt>
      <trkpt lat="48.27523" lon="-2.02927">
        <ele>88</ele>
        <time>2019-07-16T06:40:47Z</time>
      </trkpt>
      <trkpt lat="48.27522" lon="-2.02937">
        <ele>87.8</ele>
        <time>2019-07-16T06:40:48Z</time>
      </trkpt>
      <trkpt lat="48.27522" lon="-2.02946">
        <ele>87.9</ele>
        <time>2019-07-16T06:40:49Z</time>
      </trkpt>
      <trkpt lat="48.2752" lon="-2.02956">
        <ele>87.7</ele>
        <time>2019-07-16T06:40:50Z</time>
      </trkpt>
      <trkpt lat="48.27519" lon="-2.02976">
        <ele>86.8</ele>
        <time>2019-07-16T06:40:52Z</time>
      </trkpt>
      <trkpt lat="48.27518" lon="-2.02986">
        <ele>86.8</ele>
        <time>2019-07-16T06:40:53Z</time>
      </trkpt>
      <trkpt lat="48.27518" lon="-2.02995">
        <ele>86.4</ele>
        <time>2019-07-16T06:40:54Z</time>
      </trkpt>
      <trkpt lat="48.27517" lon="-2.03005">
        <ele>86.1</ele>
        <time>2019-07-16T06:40:55Z</time>
      </trkpt>
      <trkpt lat="48.27516" lon="-2.03014">
        <ele>86.8</ele>
        <time>2019-07-16T06:40:56Z</time>
      </trkpt>
      <trkpt lat="48.27515" lon="-2.03023">
        <ele>87.1</ele>
        <time>2019-07-16T06:40:57Z</time>
      </trkpt>
      <trkpt lat="48.27515" lon="-2.03031">
        <ele>87</ele>
        <time>2019-07-16T06:40:58Z</time>
      </trkpt>
      <trkpt lat="48.27514" lon="-2.03038">
        <ele>86.8</ele>
        <time>2019-07-16T06:40:59Z</time>
      </trkpt>
      <trkpt lat="48.27514" lon="-2.03043">
        <ele>86.6</ele>
        <time>2019-07-16T06:41:00Z</time>
      </trkpt>
      <trkpt lat="48.27514" lon="-2.03047">
        <ele>86.2</ele>
        <time>2019-07-16T06:41:01Z</time>
      </trkpt>
      <trkpt lat="48.27514" lon="-2.0305">
        <ele>86.8</ele>
        <time>2019-07-16T06:41:02Z</time>
      </trkpt>
      <trkpt lat="48.27514" lon="-2.03052">
        <ele>86.2</ele>
        <time>2019-07-16T06:41:03Z</time>
      </trkpt>
      <trkpt lat="48.27515" lon="-2.03054">
        <ele>85.6</ele>
        <time>2019-07-16T06:41:04Z</time>
      </trkpt>
      <trkpt lat="48.27515" lon="-2.03055">
        <ele>85.7</ele>
        <time>2019-07-16T06:41:05Z</time>
      </trkpt>
      <trkpt lat="48.27516" lon="-2.03055">
        <ele>85.7</ele>
        <time>2019-07-16T06:41:06Z</time>
      </trkpt>
      <trkpt lat="48.27516" lon="-2.03054">
        <ele>86.1</ele>
        <time>2019-07-16T06:41:07Z</time>
      </trkpt>
      <trkpt lat="48.27517" lon="-2.03053">
        <ele>86.5</ele>
        <time>2019-07-16T06:41:08Z</time>
      </trkpt>
      <trkpt lat="48.27517" lon="-2.03051">
        <ele>86.6</ele>
        <time>2019-07-16T06:41:09Z</time>
      </trkpt>
      <trkpt lat="48.27519" lon="-2.0305">
        <ele>86.9</ele>
        <time>2019-07-16T06:41:10Z</time>
      </trkpt>
      <trkpt lat="48.2752" lon="-2.0305">
        <ele>87.2</ele>
        <time>2019-07-16T06:41:11Z</time>
      </trkpt>
      <trkpt lat="48.27522" lon="-2.03049">
        <ele>87.2</ele>
        <time>2019-07-16T06:41:12Z</time>
      </trkpt>
      <trkpt lat="48.27523" lon="-2.03048">
        <ele>87.4</ele>
        <time>2019-07-16T06:41:13Z</time>
      </trkpt>
      <trkpt lat="48.27525" lon="-2.03047">
        <ele>87.8</ele>
        <time>2019-07-16T06:41:14Z</time>
      </trkpt>
      <trkpt lat="48.27527" lon="-2.03045">
        <ele>88</ele>
        <time>2019-07-16T06:41:15Z</time>
      </trkpt>
      <trkpt lat="48.27529" lon="-2.03043">
        <ele>88.1</ele>
        <time>2019-07-16T06:41:16Z</time>
      </trkpt>
      <trkpt lat="48.27531" lon="-2.03041">
        <ele>87.9</ele>
        <time>2019-07-16T06:41:17Z</time>
      </trkpt>
      <trkpt lat="48.27533" lon="-2.03039">
        <ele>87.7</ele>
        <time>2019-07-16T06:41:18Z</time>
      </trkpt>
      <trkpt lat="48.27536" lon="-2.03037">
        <ele>87.9</ele>
        <time>2019-07-16T06:41:19Z</time>
      </trkpt>
      <trkpt lat="48.27538" lon="-2.03035">
        <ele>87.8</ele>
        <time>2019-07-16T06:41:20Z</time>
      </trkpt>
      <trkpt lat="48.27541" lon="-2.03033">
        <ele>87.4</ele>
        <time>2019-07-16T06:41:21Z</time>
      </trkpt>
      <trkpt lat="48.27543" lon="-2.03031">
        <ele>86.8</ele>
        <time>2019-07-16T06:41:22Z</time>
      </trkpt>
      <trkpt lat="48.27546" lon="-2.03028">
        <ele>86.4</ele>
        <time>2019-07-16T06:41:23Z</time>
      </trkpt>
      <trkpt lat="48.27549" lon="-2.03025">
        <ele>86.1</ele>
        <time>2019-07-16T06:41:24Z</time>
      </trkpt>
      <trkpt lat="48.27552" lon="-2.03023">
        <ele>86.4</ele>
        <time>2019-07-16T06:41:25Z</time>
      </trkpt>
      <trkpt lat="48.27554" lon="-2.03022">
        <ele>86.9</ele>
        <time>2019-07-16T06:41:26Z</time>
      </trkpt>
      <trkpt lat="48.27557" lon="-2.0302">
        <ele>87.6</ele>
        <time>2019-07-16T06:41:27Z</time>
      </trkpt>
      <trkpt lat="48.27559" lon="-2.0302">
        <ele>88.1</ele>
        <time>2019-07-16T06:41:28Z</time>
      </trkpt>
      <trkpt lat="48.27561" lon="-2.03019">
        <ele>88.9</ele>
        <time>2019-07-16T06:41:29Z</time>
      </trkpt>
      <trkpt lat="48.27564" lon="-2.03018">
        <ele>89.3</ele>
        <time>2019-07-16T06:41:30Z</time>
      </trkpt>
      <trkpt lat="48.27566" lon="-2.03017">
        <ele>90.3</ele>
        <time>2019-07-16T06:41:31Z</time>
      </trkpt>
      <trkpt lat="48.27568" lon="-2.03015">
        <ele>90.9</ele>
        <time>2019-07-16T06:41:32Z</time>
      </trkpt>
      <trkpt lat="48.27571" lon="-2.03014">
        <ele>91.5</ele>
        <time>2019-07-16T06:41:33Z</time>
      </trkpt>
      <trkpt lat="48.27573" lon="-2.03013">
        <ele>91.5</ele>
        <time>2019-07-16T06:41:34Z</time>
      </trkpt>
      <trkpt lat="48.27576" lon="-2.03012">
        <ele>91.9</ele>
        <time>2019-07-16T06:41:35Z</time>
      </trkpt>
      <trkpt lat="48.27579" lon="-2.0301">
        <ele>92.4</ele>
        <time>2019-07-16T06:41:36Z</time>
      </trkpt>
      <trkpt lat="48.27582" lon="-2.03008">
        <ele>92.6</ele>
        <time>2019-07-16T06:41:37Z</time>
      </trkpt>
      <trkpt lat="48.27586" lon="-2.03006">
        <ele>92.7</ele>
        <time>2019-07-16T06:41:38Z</time>
      </trkpt>
      <trkpt lat="48.27588" lon="-2.03006">
        <ele>93</ele>
        <time>2019-07-16T06:41:39Z</time>
      </trkpt>
      <trkpt lat="48.2759" lon="-2.03004">
        <ele>93.4</ele>
        <time>2019-07-16T06:41:40Z</time>
      </trkpt>
      <trkpt lat="48.27593" lon="-2.03003">
        <ele>93.4</ele>
        <time>2019-07-16T06:41:41Z</time>
      </trkpt>
      <trkpt lat="48.27596" lon="-2.03001">
        <ele>93.8</ele>
        <time>2019-07-16T06:41:42Z</time>
      </trkpt>
      <trkpt lat="48.27599" lon="-2.02999">
        <ele>93.6</ele>
        <time>2019-07-16T06:41:43Z</time>
      </trkpt>
      <trkpt lat="48.27602" lon="-2.02997">
        <ele>93.6</ele>
        <time>2019-07-16T06:41:44Z</time>
      </trkpt>
      <trkpt lat="48.27606" lon="-2.02995">
        <ele>94.4</ele>
        <time>2019-07-16T06:41:45Z</time>
      </trkpt>
      <trkpt lat="48.27609" lon="-2.02994">
        <ele>94.8</ele>
        <time>2019-07-16T06:41:46Z</time>
      </trkpt>
      <trkpt lat="48.27613" lon="-2.02992">
        <ele>94.2</ele>
        <time>2019-07-16T06:41:47Z</time>
      </trkpt>
      <trkpt lat="48.27615" lon="-2.02991">
        <ele>94.5</ele>
        <time>2019-07-16T06:41:48Z</time>
      </trkpt>
      <trkpt lat="48.27618" lon="-2.0299">
        <ele>94.9</ele>
        <time>2019-07-16T06:41:49Z</time>
      </trkpt>
      <trkpt lat="48.27622" lon="-2.02988">
        <ele>95.4</ele>
        <time>2019-07-16T06:41:50Z</time>
      </trkpt>
      <trkpt lat="48.27625" lon="-2.02986">
        <ele>95.4</ele>
        <time>2019-07-16T06:41:51Z</time>
      </trkpt>
      <trkpt lat="48.27628" lon="-2.02985">
        <ele>95.6</ele>
        <time>2019-07-16T06:41:52Z</time>
      </trkpt>
      <trkpt lat="48.27632" lon="-2.02983">
        <ele>94.6</ele>
        <time>2019-07-16T06:41:53Z</time>
      </trkpt>
      <trkpt lat="48.27635" lon="-2.02981">
        <ele>94.2</ele>
        <time>2019-07-16T06:41:54Z</time>
      </trkpt>
      <trkpt lat="48.27638" lon="-2.02981">
        <ele>94.2</ele>
        <time>2019-07-16T06:41:55Z</time>
      </trkpt>
      <trkpt lat="48.27642" lon="-2.02979">
        <ele>93.6</ele>
        <time>2019-07-16T06:41:56Z</time>
      </trkpt>
      <trkpt lat="48.27645" lon="-2.02977">
        <ele>93.8</ele>
        <time>2019-07-16T06:41:57Z</time>
      </trkpt>
      <trkpt lat="48.27648" lon="-2.02976">
        <ele>94.2</ele>
        <time>2019-07-16T06:41:58Z</time>
      </trkpt>
      <trkpt lat="48.27651" lon="-2.02976">
        <ele>94.4</ele>
        <time>2019-07-16T06:41:59Z</time>
      </trkpt>
      <trkpt lat="48.27654" lon="-2.02974">
        <ele>94.3</ele>
        <time>2019-07-16T06:42:00Z</time>
      </trkpt>
      <trkpt lat="48.27657" lon="-2.02973">
        <ele>94.1</ele>
        <time>2019-07-16T06:42:01Z</time>
      </trkpt>
      <trkpt lat="48.27661" lon="-2.02972">
        <ele>93.5</ele>
        <time>2019-07-16T06:42:02Z</time>
      </trkpt>
      <trkpt lat="48.27665" lon="-2.02971">
        <ele>92.9</ele>
        <time>2019-07-16T06:42:03Z</time>
      </trkpt>
      <trkpt lat="48.27668" lon="-2.0297">
        <ele>92.9</ele>
        <time>2019-07-16T06:42:04Z</time>
      </trkpt>
      <trkpt lat="48.27671" lon="-2.02969">
        <ele>92.7</ele>
        <time>2019-07-16T06:42:05Z</time>
      </trkpt>
      <trkpt lat="48.27675" lon="-2.02968">
        <ele>92.4</ele>
        <time>2019-07-16T06:42:06Z</time>
      </trkpt>
      <trkpt lat="48.27678" lon="-2.02967">
        <ele>92</ele>
        <time>2019-07-16T06:42:07Z</time>
      </trkpt>
      <trkpt lat="48.27682" lon="-2.02966">
        <ele>90.9</ele>
        <time>2019-07-16T06:42:08Z</time>
      </trkpt>
      <trkpt lat="48.27685" lon="-2.02965">
        <ele>90.8</ele>
        <time>2019-07-16T06:42:09Z</time>
      </trkpt>
      <trkpt lat="48.27689" lon="-2.02963">
        <ele>90.7</ele>
        <time>2019-07-16T06:42:10Z</time>
      </trkpt>
      <trkpt lat="48.27693" lon="-2.02963">
        <ele>90.8</ele>
        <time>2019-07-16T06:42:11Z</time>
      </trkpt>
      <trkpt lat="48.27696" lon="-2.02962">
        <ele>90.3</ele>
        <time>2019-07-16T06:42:12Z</time>
      </trkpt>
      <trkpt lat="48.27699" lon="-2.02961">
        <ele>90.2</ele>
        <time>2019-07-16T06:42:13Z</time>
      </trkpt>
      <trkpt lat="48.27702" lon="-2.0296">
        <ele>89.8</ele>
        <time>2019-07-16T06:42:14Z</time>
      </trkpt>
      <trkpt lat="48.27706" lon="-2.02958">
        <ele>89</ele>
        <time>2019-07-16T06:42:15Z</time>
      </trkpt>
      <trkpt lat="48.2771" lon="-2.02956">
        <ele>89.1</ele>
        <time>2019-07-16T06:42:16Z</time>
      </trkpt>
      <trkpt lat="48.27714" lon="-2.02955">
        <ele>88.8</ele>
        <time>2019-07-16T06:42:17Z</time>
      </trkpt>
      <trkpt lat="48.27718" lon="-2.02953">
        <ele>88.2</ele>
        <time>2019-07-16T06:42:18Z</time>
      </trkpt>
      <trkpt lat="48.27721" lon="-2.02952">
        <ele>88.2</ele>
        <time>2019-07-16T06:42:19Z</time>
      </trkpt>
      <trkpt lat="48.27725" lon="-2.02951">
        <ele>88.2</ele>
        <time>2019-07-16T06:42:20Z</time>
      </trkpt>
      <trkpt lat="48.27728" lon="-2.0295">
        <ele>87.6</ele>
        <time>2019-07-16T06:42:21Z</time>
      </trkpt>
      <trkpt lat="48.27731" lon="-2.02949">
        <ele>87.3</ele>
        <time>2019-07-16T06:42:22Z</time>
      </trkpt>
      <trkpt lat="48.27734" lon="-2.02949">
        <ele>87.6</ele>
        <time>2019-07-16T06:42:23Z</time>
      </trkpt>
      <trkpt lat="48.27737" lon="-2.02948">
        <ele>87.9</ele>
        <time>2019-07-16T06:42:24Z</time>
      </trkpt>
      <trkpt lat="48.27741" lon="-2.02946">
        <ele>87.7</ele>
        <time>2019-07-16T06:42:25Z</time>
      </trkpt>
      <trkpt lat="48.27744" lon="-2.02946">
        <ele>87.9</ele>
        <time>2019-07-16T06:42:26Z</time>
      </trkpt>
      <trkpt lat="48.27747" lon="-2.02945">
        <ele>87.9</ele>
        <time>2019-07-16T06:42:27Z</time>
      </trkpt>
      <trkpt lat="48.2775" lon="-2.02944">
        <ele>87.9</ele>
        <time>2019-07-16T06:42:28Z</time>
      </trkpt>
      <trkpt lat="48.27753" lon="-2.02943">
        <ele>88.2</ele>
        <time>2019-07-16T06:42:29Z</time>
      </trkpt>
      <trkpt lat="48.27757" lon="-2.02942">
        <ele>88.4</ele>
        <time>2019-07-16T06:42:30Z</time>
      </trkpt>
      <trkpt lat="48.2776" lon="-2.02941">
        <ele>88.5</ele>
        <time>2019-07-16T06:42:31Z</time>
      </trkpt>
      <trkpt lat="48.27763" lon="-2.0294">
        <ele>88.4</ele>
        <time>2019-07-16T06:42:32Z</time>
      </trkpt>
      <trkpt lat="48.27767" lon="-2.02939">
        <ele>89.5</ele>
        <time>2019-07-16T06:42:33Z</time>
      </trkpt>
      <trkpt lat="48.27771" lon="-2.02937">
        <ele>89.1</ele>
        <time>2019-07-16T06:42:34Z</time>
      </trkpt>
      <trkpt lat="48.27774" lon="-2.02936">
        <ele>89.2</ele>
        <time>2019-07-16T06:42:35Z</time>
      </trkpt>
      <trkpt lat="48.27779" lon="-2.02934">
        <ele>89.1</ele>
        <time>2019-07-16T06:42:36Z</time>
      </trkpt>
      <trkpt lat="48.27782" lon="-2.02933">
        <ele>89.1</ele>
        <time>2019-07-16T06:42:37Z</time>
      </trkpt>
      <trkpt lat="48.27786" lon="-2.02931">
        <ele>89.2</ele>
        <time>2019-07-16T06:42:38Z</time>
      </trkpt>
      <trkpt lat="48.27789" lon="-2.0293">
        <ele>89.4</ele>
        <time>2019-07-16T06:42:39Z</time>
      </trkpt>
      <trkpt lat="48.27792" lon="-2.02929">
        <ele>89.9</ele>
        <time>2019-07-16T06:42:40Z</time>
      </trkpt>
      <trkpt lat="48.27795" lon="-2.02928">
        <ele>90</ele>
        <time>2019-07-16T06:42:41Z</time>
      </trkpt>
      <trkpt lat="48.27799" lon="-2.02928">
        <ele>89.7</ele>
        <time>2019-07-16T06:42:42Z</time>
      </trkpt>
      <trkpt lat="48.27802" lon="-2.02927">
        <ele>90</ele>
        <time>2019-07-16T06:42:43Z</time>
      </trkpt>
      <trkpt lat="48.27805" lon="-2.02926">
        <ele>89.7</ele>
        <time>2019-07-16T06:42:44Z</time>
      </trkpt>
      <trkpt lat="48.27809" lon="-2.02925">
        <ele>89.2</ele>
        <time>2019-07-16T06:42:45Z</time>
      </trkpt>
      <trkpt lat="48.27812" lon="-2.02924">
        <ele>89.5</ele>
        <time>2019-07-16T06:42:46Z</time>
      </trkpt>
      <trkpt lat="48.27815" lon="-2.02923">
        <ele>89.3</ele>
        <time>2019-07-16T06:42:47Z</time>
      </trkpt>
      <trkpt lat="48.27819" lon="-2.02922">
        <ele>88.8</ele>
        <time>2019-07-16T06:42:48Z</time>
      </trkpt>
      <trkpt lat="48.27821" lon="-2.02921">
        <ele>88.9</ele>
        <time>2019-07-16T06:42:49Z</time>
      </trkpt>
      <trkpt lat="48.27824" lon="-2.02921">
        <ele>88.9</ele>
        <time>2019-07-16T06:42:50Z</time>
      </trkpt>
      <trkpt lat="48.27828" lon="-2.02919">
        <ele>88.7</ele>
        <time>2019-07-16T06:42:51Z</time>
      </trkpt>
      <trkpt lat="48.27831" lon="-2.02919">
        <ele>88.8</ele>
        <time>2019-07-16T06:42:52Z</time>
      </trkpt>
      <trkpt lat="48.27834" lon="-2.02918">
        <ele>89.1</ele>
        <time>2019-07-16T06:42:53Z</time>
      </trkpt>
      <trkpt lat="48.27838" lon="-2.02917">
        <ele>88.7</ele>
        <time>2019-07-16T06:42:54Z</time>
      </trkpt>
      <trkpt lat="48.27841" lon="-2.02915">
        <ele>88.4</ele>
        <time>2019-07-16T06:42:55Z</time>
      </trkpt>
      <trkpt lat="48.27845" lon="-2.02914">
        <ele>88.2</ele>
        <time>2019-07-16T06:42:56Z</time>
      </trkpt>
      <trkpt lat="48.27848" lon="-2.02912">
        <ele>87.7</ele>
        <time>2019-07-16T06:42:57Z</time>
      </trkpt>
      <trkpt lat="48.27852" lon="-2.02911">
        <ele>88.1</ele>
        <time>2019-07-16T06:42:58Z</time>
      </trkpt>
      <trkpt lat="48.27855" lon="-2.0291">
        <ele>88.3</ele>
        <time>2019-07-16T06:42:59Z</time>
      </trkpt>
      <trkpt lat="48.27858" lon="-2.02909">
        <ele>88.1</ele>
        <time>2019-07-16T06:43:00Z</time>
      </trkpt>
      <trkpt lat="48.27862" lon="-2.02907">
        <ele>88.4</ele>
        <time>2019-07-16T06:43:01Z</time>
      </trkpt>
      <trkpt lat="48.27866" lon="-2.02906">
        <ele>89</ele>
        <time>2019-07-16T06:43:02Z</time>
      </trkpt>
      <trkpt lat="48.27869" lon="-2.02904">
        <ele>89</ele>
        <time>2019-07-16T06:43:03Z</time>
      </trkpt>
      <trkpt lat="48.27873" lon="-2.02903">
        <ele>88.7</ele>
        <time>2019-07-16T06:43:04Z</time>
      </trkpt>
      <trkpt lat="48.27876" lon="-2.02902">
        <ele>88.8</ele>
        <time>2019-07-16T06:43:05Z</time>
      </trkpt>
      <trkpt lat="48.2788" lon="-2.02901">
        <ele>88.2</ele>
        <time>2019-07-16T06:43:06Z</time>
      </trkpt>
      <trkpt lat="48.27884" lon="-2.02899">
        <ele>88.3</ele>
        <time>2019-07-16T06:43:07Z</time>
      </trkpt>
      <trkpt lat="48.27887" lon="-2.02898">
        <ele>88.5</ele>
        <time>2019-07-16T06:43:08Z</time>
      </trkpt>
      <trkpt lat="48.27891" lon="-2.02897">
        <ele>88.7</ele>
        <time>2019-07-16T06:43:09Z</time>
      </trkpt>
      <trkpt lat="48.27895" lon="-2.02896">
        <ele>88.7</ele>
        <time>2019-07-16T06:43:10Z</time>
      </trkpt>
      <trkpt lat="48.27898" lon="-2.02894">
        <ele>88.9</ele>
        <time>2019-07-16T06:43:11Z</time>
      </trkpt>
      <trkpt lat="48.27902" lon="-2.02893">
        <ele>89.1</ele>
        <time>2019-07-16T06:43:12Z</time>
      </trkpt>
      <trkpt lat="48.27905" lon="-2.02891">
        <ele>89.4</ele>
        <time>2019-07-16T06:43:13Z</time>
      </trkpt>
      <trkpt lat="48.27908" lon="-2.0289">
        <ele>90.2</ele>
        <time>2019-07-16T06:43:14Z</time>
      </trkpt>
      <trkpt lat="48.27911" lon="-2.02889">
        <ele>90.6</ele>
        <time>2019-07-16T06:43:15Z</time>
      </trkpt>
      <trkpt lat="48.27914" lon="-2.02888">
        <ele>91.2</ele>
        <time>2019-07-16T06:43:16Z</time>
      </trkpt>
      <trkpt lat="48.27918" lon="-2.02887">
        <ele>92</ele>
        <time>2019-07-16T06:43:17Z</time>
      </trkpt>
      <trkpt lat="48.27921" lon="-2.02886">
        <ele>92.4</ele>
        <time>2019-07-16T06:43:18Z</time>
      </trkpt>
      <trkpt lat="48.27926" lon="-2.02885">
        <ele>92.8</ele>
        <time>2019-07-16T06:43:19Z</time>
      </trkpt>
      <trkpt lat="48.27929" lon="-2.02884">
        <ele>93.1</ele>
        <time>2019-07-16T06:43:20Z</time>
      </trkpt>
      <trkpt lat="48.27932" lon="-2.02883">
        <ele>93.4</ele>
        <time>2019-07-16T06:43:21Z</time>
      </trkpt>
      <trkpt lat="48.27935" lon="-2.02882">
        <ele>93.7</ele>
        <time>2019-07-16T06:43:22Z</time>
      </trkpt>
      <trkpt lat="48.27939" lon="-2.02881">
        <ele>94</ele>
        <time>2019-07-16T06:43:23Z</time>
      </trkpt>
      <trkpt lat="48.27943" lon="-2.0288">
        <ele>94.5</ele>
        <time>2019-07-16T06:43:24Z</time>
      </trkpt>
      <trkpt lat="48.27947" lon="-2.02879">
        <ele>94.9</ele>
        <time>2019-07-16T06:43:25Z</time>
      </trkpt>
      <trkpt lat="48.2795" lon="-2.02878">
        <ele>95.4</ele>
        <time>2019-07-16T06:43:26Z</time>
      </trkpt>
      <trkpt lat="48.27954" lon="-2.02877">
        <ele>95.9</ele>
        <time>2019-07-16T06:43:27Z</time>
      </trkpt>
      <trkpt lat="48.27957" lon="-2.02876">
        <ele>96.2</ele>
        <time>2019-07-16T06:43:28Z</time>
      </trkpt>
      <trkpt lat="48.27961" lon="-2.02875">
        <ele>96.6</ele>
        <time>2019-07-16T06:43:29Z</time>
      </trkpt>
      <trkpt lat="48.27965" lon="-2.02874">
        <ele>96.9</ele>
        <time>2019-07-16T06:43:30Z</time>
      </trkpt>
      <trkpt lat="48.27968" lon="-2.02873">
        <ele>96.7</ele>
        <time>2019-07-16T06:43:31Z</time>
      </trkpt>
      <trkpt lat="48.27972" lon="-2.02872">
        <ele>96.1</ele>
        <time>2019-07-16T06:43:32Z</time>
      </trkpt>
      <trkpt lat="48.27976" lon="-2.0287">
        <ele>95.9</ele>
        <time>2019-07-16T06:43:33Z</time>
      </trkpt>
      <trkpt lat="48.2798" lon="-2.02868">
        <ele>95.9</ele>
        <time>2019-07-16T06:43:34Z</time>
      </trkpt>
      <trkpt lat="48.27985" lon="-2.02866">
        <ele>95.3</ele>
        <time>2019-07-16T06:43:35Z</time>
      </trkpt>
      <trkpt lat="48.27989" lon="-2.02864">
        <ele>94.8</ele>
        <time>2019-07-16T06:43:36Z</time>
      </trkpt>
      <trkpt lat="48.27993" lon="-2.02862">
        <ele>94.2</ele>
        <time>2019-07-16T06:43:37Z</time>
      </trkpt>
      <trkpt lat="48.27998" lon="-2.02861">
        <ele>94.3</ele>
        <time>2019-07-16T06:43:38Z</time>
      </trkpt>
      <trkpt lat="48.28002" lon="-2.0286">
        <ele>94.3</ele>
        <time>2019-07-16T06:43:39Z</time>
      </trkpt>
      <trkpt lat="48.28006" lon="-2.02858">
        <ele>94</ele>
        <time>2019-07-16T06:43:40Z</time>
      </trkpt>
      <trkpt lat="48.2801" lon="-2.02857">
        <ele>94.2</ele>
        <time>2019-07-16T06:43:41Z</time>
      </trkpt>
      <trkpt lat="48.28014" lon="-2.02856">
        <ele>94.2</ele>
        <time>2019-07-16T06:43:42Z</time>
      </trkpt>
      <trkpt lat="48.28018" lon="-2.02854">
        <ele>94.3</ele>
        <time>2019-07-16T06:43:43Z</time>
      </trkpt>
      <trkpt lat="48.28022" lon="-2.02853">
        <ele>94.4</ele>
        <time>2019-07-16T06:43:44Z</time>
      </trkpt>
      <trkpt lat="48.28027" lon="-2.02851">
        <ele>94.5</ele>
        <time>2019-07-16T06:43:45Z</time>
      </trkpt>
      <trkpt lat="48.28031" lon="-2.0285">
        <ele>94.5</ele>
        <time>2019-07-16T06:43:46Z</time>
      </trkpt>
      <trkpt lat="48.28035" lon="-2.02849">
        <ele>94.3</ele>
        <time>2019-07-16T06:43:47Z</time>
      </trkpt>
      <trkpt lat="48.2804" lon="-2.02847">
        <ele>94.3</ele>
        <time>2019-07-16T06:43:48Z</time>
      </trkpt>
      <trkpt lat="48.28044" lon="-2.02846">
        <ele>94.1</ele>
        <time>2019-07-16T06:43:49Z</time>
      </trkpt>
      <trkpt lat="48.28048" lon="-2.02844">
        <ele>93.9</ele>
        <time>2019-07-16T06:43:50Z</time>
      </trkpt>
      <trkpt lat="48.28053" lon="-2.02842">
        <ele>93.4</ele>
        <time>2019-07-16T06:43:51Z</time>
      </trkpt>
      <trkpt lat="48.28058" lon="-2.02841">
        <ele>93.2</ele>
        <time>2019-07-16T06:43:52Z</time>
      </trkpt>
      <trkpt lat="48.28062" lon="-2.02839">
        <ele>93.2</ele>
        <time>2019-07-16T06:43:53Z</time>
      </trkpt>
      <trkpt lat="48.28066" lon="-2.02837">
        <ele>93.1</ele>
        <time>2019-07-16T06:43:54Z</time>
      </trkpt>
      <trkpt lat="48.28071" lon="-2.02836">
        <ele>93.2</ele>
        <time>2019-07-16T06:43:55Z</time>
      </trkpt>
      <trkpt lat="48.28075" lon="-2.02835">
        <ele>93.4</ele>
        <time>2019-07-16T06:43:56Z</time>
      </trkpt>
      <trkpt lat="48.2808" lon="-2.02833">
        <ele>93.4</ele>
        <time>2019-07-16T06:43:57Z</time>
      </trkpt>
      <trkpt lat="48.28084" lon="-2.02832">
        <ele>93.6</ele>
        <time>2019-07-16T06:43:58Z</time>
      </trkpt>
      <trkpt lat="48.28089" lon="-2.0283">
        <ele>93.8</ele>
        <time>2019-07-16T06:43:59Z</time>
      </trkpt>
      <trkpt lat="48.28093" lon="-2.02829">
        <ele>93.7</ele>
        <time>2019-07-16T06:44:00Z</time>
      </trkpt>
      <trkpt lat="48.28098" lon="-2.02827">
        <ele>93.5</ele>
        <time>2019-07-16T06:44:01Z</time>
      </trkpt>
      <trkpt lat="48.28103" lon="-2.02825">
        <ele>93.5</ele>
        <time>2019-07-16T06:44:02Z</time>
      </trkpt>
      <trkpt lat="48.28108" lon="-2.02824">
        <ele>93.2</ele>
        <time>2019-07-16T06:44:03Z</time>
      </trkpt>
      <trkpt lat="48.28112" lon="-2.02822">
        <ele>93</ele>
        <time>2019-07-16T06:44:04Z</time>
      </trkpt>
      <trkpt lat="48.28117" lon="-2.0282">
        <ele>92.9</ele>
        <time>2019-07-16T06:44:05Z</time>
      </trkpt>
      <trkpt lat="48.28124" lon="-2.02816">
        <ele>93</ele>
        <time>2019-07-16T06:44:07Z</time>
      </trkpt>
      <trkpt lat="48.28128" lon="-2.02814">
        <ele>93</ele>
        <time>2019-07-16T06:44:08Z</time>
      </trkpt>
      <trkpt lat="48.28133" lon="-2.02813">
        <ele>93.1</ele>
        <time>2019-07-16T06:44:09Z</time>
      </trkpt>
      <trkpt lat="48.28138" lon="-2.0281">
        <ele>93.3</ele>
        <time>2019-07-16T06:44:10Z</time>
      </trkpt>
      <trkpt lat="48.28142" lon="-2.02808">
        <ele>93.5</ele>
        <time>2019-07-16T06:44:11Z</time>
      </trkpt>
      <trkpt lat="48.28148" lon="-2.02805">
        <ele>93.1</ele>
        <time>2019-07-16T06:44:12Z</time>
      </trkpt>
      <trkpt lat="48.28152" lon="-2.02802">
        <ele>93.6</ele>
        <time>2019-07-16T06:44:13Z</time>
      </trkpt>
      <trkpt lat="48.28156" lon="-2.02798">
        <ele>93.7</ele>
        <time>2019-07-16T06:44:14Z</time>
      </trkpt>
      <trkpt lat="48.28162" lon="-2.02795">
        <ele>94</ele>
        <time>2019-07-16T06:44:15Z</time>
      </trkpt>
      <trkpt lat="48.28167" lon="-2.02792">
        <ele>94.7</ele>
        <time>2019-07-16T06:44:16Z</time>
      </trkpt>
      <trkpt lat="48.28172" lon="-2.02788">
        <ele>95.5</ele>
        <time>2019-07-16T06:44:17Z</time>
      </trkpt>
      <trkpt lat="48.28177" lon="-2.02784">
        <ele>95.7</ele>
        <time>2019-07-16T06:44:18Z</time>
      </trkpt>
      <trkpt lat="48.28181" lon="-2.02781">
        <ele>96</ele>
        <time>2019-07-16T06:44:19Z</time>
      </trkpt>
      <trkpt lat="48.28186" lon="-2.02777">
        <ele>96.4</ele>
        <time>2019-07-16T06:44:20Z</time>
      </trkpt>
      <trkpt lat="48.28191" lon="-2.02773">
        <ele>96.9</ele>
        <time>2019-07-16T06:44:21Z</time>
      </trkpt>
      <trkpt lat="48.28195" lon="-2.02769">
        <ele>97</ele>
        <time>2019-07-16T06:44:22Z</time>
      </trkpt>
      <trkpt lat="48.28198" lon="-2.02765">
        <ele>97.2</ele>
        <time>2019-07-16T06:44:23Z</time>
      </trkpt>
      <trkpt lat="48.28203" lon="-2.0276">
        <ele>98</ele>
        <time>2019-07-16T06:44:24Z</time>
      </trkpt>
      <trkpt lat="48.28207" lon="-2.02756">
        <ele>98.2</ele>
        <time>2019-07-16T06:44:25Z</time>
      </trkpt>
      <trkpt lat="48.28211" lon="-2.02752">
        <ele>98.7</ele>
        <time>2019-07-16T06:44:26Z</time>
      </trkpt>
      <trkpt lat="48.28216" lon="-2.02747">
        <ele>98.8</ele>
        <time>2019-07-16T06:44:27Z</time>
      </trkpt>
      <trkpt lat="48.2822" lon="-2.02743">
        <ele>98.9</ele>
        <time>2019-07-16T06:44:28Z</time>
      </trkpt>
      <trkpt lat="48.28225" lon="-2.02738">
        <ele>98.6</ele>
        <time>2019-07-16T06:44:29Z</time>
      </trkpt>
      <trkpt lat="48.28229" lon="-2.02733">
        <ele>98.6</ele>
        <time>2019-07-16T06:44:30Z</time>
      </trkpt>
      <trkpt lat="48.28232" lon="-2.02727">
        <ele>98.3</ele>
        <time>2019-07-16T06:44:31Z</time>
      </trkpt>
      <trkpt lat="48.28236" lon="-2.02722">
        <ele>97.7</ele>
        <time>2019-07-16T06:44:32Z</time>
      </trkpt>
      <trkpt lat="48.2824" lon="-2.02716">
        <ele>97</ele>
        <time>2019-07-16T06:44:33Z</time>
      </trkpt>
      <trkpt lat="48.28244" lon="-2.0271">
        <ele>96.2</ele>
        <time>2019-07-16T06:44:34Z</time>
      </trkpt>
      <trkpt lat="48.28249" lon="-2.02704">
        <ele>95.5</ele>
        <time>2019-07-16T06:44:35Z</time>
      </trkpt>
      <trkpt lat="48.28253" lon="-2.02698">
        <ele>94.8</ele>
        <time>2019-07-16T06:44:36Z</time>
      </trkpt>
      <trkpt lat="48.28259" lon="-2.02692">
        <ele>93.9</ele>
        <time>2019-07-16T06:44:37Z</time>
      </trkpt>
      <trkpt lat="48.28263" lon="-2.02686">
        <ele>93.5</ele>
        <time>2019-07-16T06:44:38Z</time>
      </trkpt>
      <trkpt lat="48.28268" lon="-2.0268">
        <ele>92.4</ele>
        <time>2019-07-16T06:44:39Z</time>
      </trkpt>
      <trkpt lat="48.28272" lon="-2.02674">
        <ele>92.1</ele>
        <time>2019-07-16T06:44:40Z</time>
      </trkpt>
      <trkpt lat="48.28276" lon="-2.02667">
        <ele>91.4</ele>
        <time>2019-07-16T06:44:41Z</time>
      </trkpt>
      <trkpt lat="48.2828" lon="-2.0266">
        <ele>91</ele>
        <time>2019-07-16T06:44:42Z</time>
      </trkpt>
      <trkpt lat="48.28286" lon="-2.02655">
        <ele>90.5</ele>
        <time>2019-07-16T06:44:43Z</time>
      </trkpt>
      <trkpt lat="48.28291" lon="-2.0265">
        <ele>90.5</ele>
        <time>2019-07-16T06:44:44Z</time>
      </trkpt>
      <trkpt lat="48.28297" lon="-2.02643">
        <ele>90.6</ele>
        <time>2019-07-16T06:44:45Z</time>
      </trkpt>
      <trkpt lat="48.28301" lon="-2.02638">
        <ele>90.4</ele>
        <time>2019-07-16T06:44:46Z</time>
      </trkpt>
      <trkpt lat="48.28306" lon="-2.02633">
        <ele>90.7</ele>
        <time>2019-07-16T06:44:47Z</time>
      </trkpt>
      <trkpt lat="48.28311" lon="-2.02627">
        <ele>90.2</ele>
        <time>2019-07-16T06:44:48Z</time>
      </trkpt>
      <trkpt lat="48.28316" lon="-2.02621">
        <ele>89.9</ele>
        <time>2019-07-16T06:44:49Z</time>
      </trkpt>
      <trkpt lat="48.2832" lon="-2.02615">
        <ele>90</ele>
        <time>2019-07-16T06:44:50Z</time>
      </trkpt>
      <trkpt lat="48.28325" lon="-2.02609">
        <ele>89.8</ele>
        <time>2019-07-16T06:44:51Z</time>
      </trkpt>
      <trkpt lat="48.2833" lon="-2.02602">
        <ele>89.4</ele>
        <time>2019-07-16T06:44:52Z</time>
      </trkpt>
      <trkpt lat="48.28334" lon="-2.02597">
        <ele>89.4</ele>
        <time>2019-07-16T06:44:53Z</time>
      </trkpt>
      <trkpt lat="48.28339" lon="-2.02591">
        <ele>89.6</ele>
        <time>2019-07-16T06:44:54Z</time>
      </trkpt>
      <trkpt lat="48.28343" lon="-2.02585">
        <ele>89.6</ele>
        <time>2019-07-16T06:44:55Z</time>
      </trkpt>
      <trkpt lat="48.28348" lon="-2.0258">
        <ele>89.9</ele>
        <time>2019-07-16T06:44:56Z</time>
      </trkpt>
      <trkpt lat="48.28352" lon="-2.02574">
        <ele>89.7</ele>
        <time>2019-07-16T06:44:57Z</time>
      </trkpt>
      <trkpt lat="48.28356" lon="-2.02569">
        <ele>89.8</ele>
        <time>2019-07-16T06:44:58Z</time>
      </trkpt>
      <trkpt lat="48.28361" lon="-2.02564">
        <ele>90.4</ele>
        <time>2019-07-16T06:44:59Z</time>
      </trkpt>
      <trkpt lat="48.28365" lon="-2.02558">
        <ele>90.7</ele>
        <time>2019-07-16T06:45:00Z</time>
      </trkpt>
      <trkpt lat="48.28369" lon="-2.02553">
        <ele>91.2</ele>
        <time>2019-07-16T06:45:01Z</time>
      </trkpt>
      <trkpt lat="48.28374" lon="-2.02547">
        <ele>91.6</ele>
        <time>2019-07-16T06:45:02Z</time>
      </trkpt>
      <trkpt lat="48.28378" lon="-2.02541">
        <ele>91.7</ele>
        <time>2019-07-16T06:45:03Z</time>
      </trkpt>
      <trkpt lat="48.28383" lon="-2.02535">
        <ele>91.8</ele>
        <time>2019-07-16T06:45:04Z</time>
      </trkpt>
      <trkpt lat="48.28387" lon="-2.02529">
        <ele>91.4</ele>
        <time>2019-07-16T06:45:05Z</time>
      </trkpt>
      <trkpt lat="48.28391" lon="-2.02523">
        <ele>91.2</ele>
        <time>2019-07-16T06:45:06Z</time>
      </trkpt>
      <trkpt lat="48.28396" lon="-2.02518">
        <ele>90.8</ele>
        <time>2019-07-16T06:45:07Z</time>
      </trkpt>
      <trkpt lat="48.284" lon="-2.02512">
        <ele>90.7</ele>
        <time>2019-07-16T06:45:08Z</time>
      </trkpt>
      <trkpt lat="48.28405" lon="-2.02506">
        <ele>90.6</ele>
        <time>2019-07-16T06:45:09Z</time>
      </trkpt>
      <trkpt lat="48.2841" lon="-2.02501">
        <ele>90.4</ele>
        <time>2019-07-16T06:45:10Z</time>
      </trkpt>
      <trkpt lat="48.28414" lon="-2.02495">
        <ele>90.4</ele>
        <time>2019-07-16T06:45:11Z</time>
      </trkpt>
      <trkpt lat="48.28419" lon="-2.02489">
        <ele>90.4</ele>
        <time>2019-07-16T06:45:12Z</time>
      </trkpt>
      <trkpt lat="48.28423" lon="-2.02484">
        <ele>90.4</ele>
        <time>2019-07-16T06:45:13Z</time>
      </trkpt>
      <trkpt lat="48.28428" lon="-2.02478">
        <ele>90.1</ele>
        <time>2019-07-16T06:45:14Z</time>
      </trkpt>
      <trkpt lat="48.28432" lon="-2.02473">
        <ele>90.7</ele>
        <time>2019-07-16T06:45:15Z</time>
      </trkpt>
      <trkpt lat="48.28436" lon="-2.02467">
        <ele>90.9</ele>
        <time>2019-07-16T06:45:16Z</time>
      </trkpt>
      <trkpt lat="48.28441" lon="-2.02461">
        <ele>90.8</ele>
        <time>2019-07-16T06:45:17Z</time>
      </trkpt>
      <trkpt lat="48.28445" lon="-2.02456">
        <ele>90.8</ele>
        <time>2019-07-16T06:45:18Z</time>
      </trkpt>
      <trkpt lat="48.28449" lon="-2.0245">
        <ele>90.5</ele>
        <time>2019-07-16T06:45:19Z</time>
      </trkpt>
      <trkpt lat="48.28454" lon="-2.02444">
        <ele>89.9</ele>
        <time>2019-07-16T06:45:20Z</time>
      </trkpt>
      <trkpt lat="48.28458" lon="-2.02438">
        <ele>89.2</ele>
        <time>2019-07-16T06:45:21Z</time>
      </trkpt>
      <trkpt lat="48.28463" lon="-2.02433">
        <ele>88.9</ele>
        <time>2019-07-16T06:45:22Z</time>
      </trkpt>
      <trkpt lat="48.28467" lon="-2.02428">
        <ele>89.2</ele>
        <time>2019-07-16T06:45:23Z</time>
      </trkpt>
      <trkpt lat="48.28472" lon="-2.02423">
        <ele>89.3</ele>
        <time>2019-07-16T06:45:24Z</time>
      </trkpt>
      <trkpt lat="48.28476" lon="-2.02417">
        <ele>89.2</ele>
        <time>2019-07-16T06:45:25Z</time>
      </trkpt>
      <trkpt lat="48.28481" lon="-2.02412">
        <ele>88.7</ele>
        <time>2019-07-16T06:45:26Z</time>
      </trkpt>
      <trkpt lat="48.28486" lon="-2.02406">
        <ele>88.6</ele>
        <time>2019-07-16T06:45:27Z</time>
      </trkpt>
      <trkpt lat="48.2849" lon="-2.024">
        <ele>88.2</ele>
        <time>2019-07-16T06:45:28Z</time>
      </trkpt>
      <trkpt lat="48.28495" lon="-2.02395">
        <ele>87.4</ele>
        <time>2019-07-16T06:45:29Z</time>
      </trkpt>
      <trkpt lat="48.28499" lon="-2.0239">
        <ele>87</ele>
        <time>2019-07-16T06:45:30Z</time>
      </trkpt>
      <trkpt lat="48.28502" lon="-2.02386">
        <ele>86.5</ele>
        <time>2019-07-16T06:45:31Z</time>
      </trkpt>
      <trkpt lat="48.28505" lon="-2.02383">
        <ele>86</ele>
        <time>2019-07-16T06:45:32Z</time>
      </trkpt>
      <trkpt lat="48.28507" lon="-2.02381">
        <ele>85.4</ele>
        <time>2019-07-16T06:45:33Z</time>
      </trkpt>
      <trkpt lat="48.28508" lon="-2.02378">
        <ele>85</ele>
        <time>2019-07-16T06:45:34Z</time>
      </trkpt>
      <trkpt lat="48.2851" lon="-2.02376">
        <ele>84.9</ele>
        <time>2019-07-16T06:45:35Z</time>
      </trkpt>
      <trkpt lat="48.2851" lon="-2.02375">
        <ele>84.6</ele>
        <time>2019-07-16T06:45:36Z</time>
      </trkpt>
      <trkpt lat="48.28512" lon="-2.02373">
        <ele>84.7</ele>
        <time>2019-07-16T06:45:37Z</time>
      </trkpt>
      <trkpt lat="48.28513" lon="-2.02371">
        <ele>84.6</ele>
        <time>2019-07-16T06:45:38Z</time>
      </trkpt>
      <trkpt lat="48.28516" lon="-2.02369">
        <ele>84.4</ele>
        <time>2019-07-16T06:45:39Z</time>
      </trkpt>
      <trkpt lat="48.28518" lon="-2.02367">
        <ele>84.2</ele>
        <time>2019-07-16T06:45:40Z</time>
      </trkpt>
      <trkpt lat="48.2852" lon="-2.02365">
        <ele>84.4</ele>
        <time>2019-07-16T06:45:41Z</time>
      </trkpt>
      <trkpt lat="48.28523" lon="-2.02362">
        <ele>84.6</ele>
        <time>2019-07-16T06:45:42Z</time>
      </trkpt>
      <trkpt lat="48.28526" lon="-2.02358">
        <ele>84.5</ele>
        <time>2019-07-16T06:45:43Z</time>
      </trkpt>
      <trkpt lat="48.2853" lon="-2.02354">
        <ele>84.7</ele>
        <time>2019-07-16T06:45:44Z</time>
      </trkpt>
      <trkpt lat="48.28534" lon="-2.0235">
        <ele>85.1</ele>
        <time>2019-07-16T06:45:45Z</time>
      </trkpt>
      <trkpt lat="48.28537" lon="-2.02347">
        <ele>85.4</ele>
        <time>2019-07-16T06:45:46Z</time>
      </trkpt>
      <trkpt lat="48.28542" lon="-2.02343">
        <ele>85.5</ele>
        <time>2019-07-16T06:45:47Z</time>
      </trkpt>
      <trkpt lat="48.28546" lon="-2.0234">
        <ele>85.2</ele>
        <time>2019-07-16T06:45:48Z</time>
      </trkpt>
      <trkpt lat="48.2855" lon="-2.02336">
        <ele>85.1</ele>
        <time>2019-07-16T06:45:49Z</time>
      </trkpt>
      <trkpt lat="48.28554" lon="-2.02333">
        <ele>85</ele>
        <time>2019-07-16T06:45:50Z</time>
      </trkpt>
      <trkpt lat="48.28558" lon="-2.02329">
        <ele>85</ele>
        <time>2019-07-16T06:45:51Z</time>
      </trkpt>
      <trkpt lat="48.28562" lon="-2.02326">
        <ele>84.8</ele>
        <time>2019-07-16T06:45:52Z</time>
      </trkpt>
      <trkpt lat="48.28567" lon="-2.02323">
        <ele>85</ele>
        <time>2019-07-16T06:45:53Z</time>
      </trkpt>
      <trkpt lat="48.28571" lon="-2.0232">
        <ele>84.8</ele>
        <time>2019-07-16T06:45:54Z</time>
      </trkpt>
      <trkpt lat="48.28576" lon="-2.02317">
        <ele>84.4</ele>
        <time>2019-07-16T06:45:55Z</time>
      </trkpt>
      <trkpt lat="48.28582" lon="-2.02314">
        <ele>84.3</ele>
        <time>2019-07-16T06:45:56Z</time>
      </trkpt>
      <trkpt lat="48.28587" lon="-2.02312">
        <ele>84.4</ele>
        <time>2019-07-16T06:45:57Z</time>
      </trkpt>
      <trkpt lat="48.28593" lon="-2.02309">
        <ele>83.7</ele>
        <time>2019-07-16T06:45:58Z</time>
      </trkpt>
      <trkpt lat="48.28598" lon="-2.02307">
        <ele>83.7</ele>
        <time>2019-07-16T06:45:59Z</time>
      </trkpt>
      <trkpt lat="48.28603" lon="-2.02305">
        <ele>83.5</ele>
        <time>2019-07-16T06:46:00Z</time>
      </trkpt>
      <trkpt lat="48.28608" lon="-2.02303">
        <ele>83.5</ele>
        <time>2019-07-16T06:46:01Z</time>
      </trkpt>
      <trkpt lat="48.28613" lon="-2.02302">
        <ele>83.6</ele>
        <time>2019-07-16T06:46:02Z</time>
      </trkpt>
      <trkpt lat="48.28619" lon="-2.023">
        <ele>83.1</ele>
        <time>2019-07-16T06:46:03Z</time>
      </trkpt>
      <trkpt lat="48.28624" lon="-2.02298">
        <ele>83.1</ele>
        <time>2019-07-16T06:46:04Z</time>
      </trkpt>
      <trkpt lat="48.2863" lon="-2.02297">
        <ele>83.4</ele>
        <time>2019-07-16T06:46:05Z</time>
      </trkpt>
      <trkpt lat="48.28635" lon="-2.02296">
        <ele>83.7</ele>
        <time>2019-07-16T06:46:06Z</time>
      </trkpt>
      <trkpt lat="48.2864" lon="-2.02294">
        <ele>83.2</ele>
        <time>2019-07-16T06:46:07Z</time>
      </trkpt>
      <trkpt lat="48.28646" lon="-2.02293">
        <ele>83.2</ele>
        <time>2019-07-16T06:46:08Z</time>
      </trkpt>
      <trkpt lat="48.28651" lon="-2.02291">
        <ele>83.2</ele>
        <time>2019-07-16T06:46:09Z</time>
      </trkpt>
      <trkpt lat="48.28658" lon="-2.02289">
        <ele>83.2</ele>
        <time>2019-07-16T06:46:10Z</time>
      </trkpt>
      <trkpt lat="48.28664" lon="-2.02288">
        <ele>82.5</ele>
        <time>2019-07-16T06:46:11Z</time>
      </trkpt>
      <trkpt lat="48.2867" lon="-2.02288">
        <ele>82.1</ele>
        <time>2019-07-16T06:46:12Z</time>
      </trkpt>
      <trkpt lat="48.28676" lon="-2.02287">
        <ele>81.7</ele>
        <time>2019-07-16T06:46:13Z</time>
      </trkpt>
      <trkpt lat="48.28682" lon="-2.02287">
        <ele>80.9</ele>
        <time>2019-07-16T06:46:14Z</time>
      </trkpt>
      <trkpt lat="48.28689" lon="-2.02287">
        <ele>79.8</ele>
        <time>2019-07-16T06:46:15Z</time>
      </trkpt>
      <trkpt lat="48.28695" lon="-2.02286">
        <ele>79.3</ele>
        <time>2019-07-16T06:46:16Z</time>
      </trkpt>
      <trkpt lat="48.28701" lon="-2.02286">
        <ele>78.6</ele>
        <time>2019-07-16T06:46:17Z</time>
      </trkpt>
      <trkpt lat="48.28706" lon="-2.02285">
        <ele>78.6</ele>
        <time>2019-07-16T06:46:18Z</time>
      </trkpt>
      <trkpt lat="48.28711" lon="-2.02284">
        <ele>78.6</ele>
        <time>2019-07-16T06:46:19Z</time>
      </trkpt>
      <trkpt lat="48.28717" lon="-2.02283">
        <ele>78.7</ele>
        <time>2019-07-16T06:46:20Z</time>
      </trkpt>
      <trkpt lat="48.28722" lon="-2.02282">
        <ele>78.6</ele>
        <time>2019-07-16T06:46:21Z</time>
      </trkpt>
      <trkpt lat="48.28728" lon="-2.02281">
        <ele>78.7</ele>
        <time>2019-07-16T06:46:22Z</time>
      </trkpt>
      <trkpt lat="48.28733" lon="-2.02281">
        <ele>78.9</ele>
        <time>2019-07-16T06:46:23Z</time>
      </trkpt>
      <trkpt lat="48.28738" lon="-2.0228">
        <ele>79.1</ele>
        <time>2019-07-16T06:46:24Z</time>
      </trkpt>
      <trkpt lat="48.28743" lon="-2.02279">
        <ele>79</ele>
        <time>2019-07-16T06:46:25Z</time>
      </trkpt>
      <trkpt lat="48.2875" lon="-2.02279">
        <ele>77.9</ele>
        <time>2019-07-16T06:46:26Z</time>
      </trkpt>
      <trkpt lat="48.28756" lon="-2.02282">
        <ele>74</ele>
        <time>2019-07-16T06:46:27Z</time>
      </trkpt>
      <trkpt lat="48.2876" lon="-2.02283">
        <ele>71.5</ele>
        <time>2019-07-16T06:46:28Z</time>
      </trkpt>
      <trkpt lat="48.28763" lon="-2.02281">
        <ele>72.8</ele>
        <time>2019-07-16T06:46:29Z</time>
      </trkpt>
      <trkpt lat="48.28765" lon="-2.0228">
        <ele>74</ele>
        <time>2019-07-16T06:46:30Z</time>
      </trkpt>
      <trkpt lat="48.28766" lon="-2.02279">
        <ele>74.7</ele>
        <time>2019-07-16T06:46:31Z</time>
      </trkpt>
      <trkpt lat="48.28769" lon="-2.02278">
        <ele>75.1</ele>
        <time>2019-07-16T06:46:32Z</time>
      </trkpt>
      <trkpt lat="48.28772" lon="-2.02278">
        <ele>75.5</ele>
        <time>2019-07-16T06:46:33Z</time>
      </trkpt>
      <trkpt lat="48.28777" lon="-2.02277">
        <ele>75.9</ele>
        <time>2019-07-16T06:46:34Z</time>
      </trkpt>
      <trkpt lat="48.28781" lon="-2.02277">
        <ele>76.7</ele>
        <time>2019-07-16T06:46:35Z</time>
      </trkpt>
      <trkpt lat="48.28785" lon="-2.02276">
        <ele>76.8</ele>
        <time>2019-07-16T06:46:36Z</time>
      </trkpt>
      <trkpt lat="48.28789" lon="-2.02276">
        <ele>76.7</ele>
        <time>2019-07-16T06:46:37Z</time>
      </trkpt>
      <trkpt lat="48.28793" lon="-2.02275">
        <ele>76.8</ele>
        <time>2019-07-16T06:46:38Z</time>
      </trkpt>
      <trkpt lat="48.28798" lon="-2.02274">
        <ele>77</ele>
        <time>2019-07-16T06:46:39Z</time>
      </trkpt>
      <trkpt lat="48.28803" lon="-2.02273">
        <ele>76.9</ele>
        <time>2019-07-16T06:46:40Z</time>
      </trkpt>
      <trkpt lat="48.28807" lon="-2.02273">
        <ele>76.8</ele>
        <time>2019-07-16T06:46:41Z</time>
      </trkpt>
      <trkpt lat="48.28812" lon="-2.02272">
        <ele>76.7</ele>
        <time>2019-07-16T06:46:42Z</time>
      </trkpt>
      <trkpt lat="48.28816" lon="-2.02272">
        <ele>76.5</ele>
        <time>2019-07-16T06:46:43Z</time>
      </trkpt>
      <trkpt lat="48.28821" lon="-2.02272">
        <ele>76.6</ele>
        <time>2019-07-16T06:46:44Z</time>
      </trkpt>
      <trkpt lat="48.28826" lon="-2.02271">
        <ele>76.5</ele>
        <time>2019-07-16T06:46:45Z</time>
      </trkpt>
      <trkpt lat="48.28831" lon="-2.02271">
        <ele>76.5</ele>
        <time>2019-07-16T06:46:46Z</time>
      </trkpt>
      <trkpt lat="48.28836" lon="-2.0227">
        <ele>76.6</ele>
        <time>2019-07-16T06:46:47Z</time>
      </trkpt>
      <trkpt lat="48.28841" lon="-2.0227">
        <ele>76.7</ele>
        <time>2019-07-16T06:46:48Z</time>
      </trkpt>
      <trkpt lat="48.28846" lon="-2.02269">
        <ele>76.7</ele>
        <time>2019-07-16T06:46:49Z</time>
      </trkpt>
      <trkpt lat="48.28852" lon="-2.02269">
        <ele>76.5</ele>
        <time>2019-07-16T06:46:50Z</time>
      </trkpt>
      <trkpt lat="48.28857" lon="-2.02268">
        <ele>76.2</ele>
        <time>2019-07-16T06:46:51Z</time>
      </trkpt>
      <trkpt lat="48.28863" lon="-2.02268">
        <ele>75.9</ele>
        <time>2019-07-16T06:46:52Z</time>
      </trkpt>
      <trkpt lat="48.28869" lon="-2.02268">
        <ele>75.8</ele>
        <time>2019-07-16T06:46:53Z</time>
      </trkpt>
      <trkpt lat="48.28874" lon="-2.02267">
        <ele>75.6</ele>
        <time>2019-07-16T06:46:54Z</time>
      </trkpt>
      <trkpt lat="48.28879" lon="-2.02267">
        <ele>75.5</ele>
        <time>2019-07-16T06:46:55Z</time>
      </trkpt>
      <trkpt lat="48.28885" lon="-2.02267">
        <ele>75.5</ele>
        <time>2019-07-16T06:46:56Z</time>
      </trkpt>
      <trkpt lat="48.2889" lon="-2.02267">
        <ele>75.7</ele>
        <time>2019-07-16T06:46:57Z</time>
      </trkpt>
      <trkpt lat="48.28895" lon="-2.02267">
        <ele>76</ele>
        <time>2019-07-16T06:46:58Z</time>
      </trkpt>
      <trkpt lat="48.28901" lon="-2.02267">
        <ele>76.1</ele>
        <time>2019-07-16T06:46:59Z</time>
      </trkpt>
      <trkpt lat="48.28906" lon="-2.02268">
        <ele>75.9</ele>
        <time>2019-07-16T06:47:00Z</time>
      </trkpt>
      <trkpt lat="48.28911" lon="-2.02269">
        <ele>75.7</ele>
        <time>2019-07-16T06:47:01Z</time>
      </trkpt>
      <trkpt lat="48.28917" lon="-2.02269">
        <ele>75.8</ele>
        <time>2019-07-16T06:47:02Z</time>
      </trkpt>
      <trkpt lat="48.28922" lon="-2.0227">
        <ele>76</ele>
        <time>2019-07-16T06:47:03Z</time>
      </trkpt>
      <trkpt lat="48.28928" lon="-2.02272">
        <ele>76.3</ele>
        <time>2019-07-16T06:47:04Z</time>
      </trkpt>
      <trkpt lat="48.28933" lon="-2.02273">
        <ele>76.2</ele>
        <time>2019-07-16T06:47:05Z</time>
      </trkpt>
      <trkpt lat="48.28939" lon="-2.02273">
        <ele>76</ele>
        <time>2019-07-16T06:47:06Z</time>
      </trkpt>
      <trkpt lat="48.28944" lon="-2.02274">
        <ele>75.6</ele>
        <time>2019-07-16T06:47:07Z</time>
      </trkpt>
      <trkpt lat="48.2895" lon="-2.02275">
        <ele>75.5</ele>
        <time>2019-07-16T06:47:08Z</time>
      </trkpt>
      <trkpt lat="48.28956" lon="-2.02277">
        <ele>75.4</ele>
        <time>2019-07-16T06:47:09Z</time>
      </trkpt>
      <trkpt lat="48.28961" lon="-2.02279">
        <ele>75.3</ele>
        <time>2019-07-16T06:47:10Z</time>
      </trkpt>
      <trkpt lat="48.28967" lon="-2.0228">
        <ele>75.2</ele>
        <time>2019-07-16T06:47:11Z</time>
      </trkpt>
      <trkpt lat="48.28972" lon="-2.02282">
        <ele>75.2</ele>
        <time>2019-07-16T06:47:12Z</time>
      </trkpt>
      <trkpt lat="48.28978" lon="-2.02284">
        <ele>75.5</ele>
        <time>2019-07-16T06:47:13Z</time>
      </trkpt>
      <trkpt lat="48.28984" lon="-2.02285">
        <ele>75.5</ele>
        <time>2019-07-16T06:47:14Z</time>
      </trkpt>
      <trkpt lat="48.28989" lon="-2.02287">
        <ele>75.4</ele>
        <time>2019-07-16T06:47:15Z</time>
      </trkpt>
      <trkpt lat="48.28995" lon="-2.02288">
        <ele>74.8</ele>
        <time>2019-07-16T06:47:16Z</time>
      </trkpt>
      <trkpt lat="48.29001" lon="-2.02289">
        <ele>74.6</ele>
        <time>2019-07-16T06:47:17Z</time>
      </trkpt>
      <trkpt lat="48.29006" lon="-2.02291">
        <ele>74.9</ele>
        <time>2019-07-16T06:47:18Z</time>
      </trkpt>
      <trkpt lat="48.29012" lon="-2.02293">
        <ele>75</ele>
        <time>2019-07-16T06:47:19Z</time>
      </trkpt>
      <trkpt lat="48.29018" lon="-2.02294">
        <ele>74.4</ele>
        <time>2019-07-16T06:47:20Z</time>
      </trkpt>
      <trkpt lat="48.29023" lon="-2.02296">
        <ele>74.5</ele>
        <time>2019-07-16T06:47:21Z</time>
      </trkpt>
      <trkpt lat="48.29028" lon="-2.02298">
        <ele>74.2</ele>
        <time>2019-07-16T06:47:22Z</time>
      </trkpt>
      <trkpt lat="48.29034" lon="-2.023">
        <ele>74.4</ele>
        <time>2019-07-16T06:47:23Z</time>
      </trkpt>
      <trkpt lat="48.2904" lon="-2.02302">
        <ele>74.5</ele>
        <time>2019-07-16T06:47:24Z</time>
      </trkpt>
      <trkpt lat="48.29046" lon="-2.02304">
        <ele>74.6</ele>
        <time>2019-07-16T06:47:25Z</time>
      </trkpt>
      <trkpt lat="48.29052" lon="-2.02306">
        <ele>74.5</ele>
        <time>2019-07-16T06:47:26Z</time>
      </trkpt>
      <trkpt lat="48.29058" lon="-2.02309">
        <ele>74.6</ele>
        <time>2019-07-16T06:47:27Z</time>
      </trkpt>
      <trkpt lat="48.29064" lon="-2.0231">
        <ele>74.5</ele>
        <time>2019-07-16T06:47:28Z</time>
      </trkpt>
      <trkpt lat="48.2907" lon="-2.02312">
        <ele>74.5</ele>
        <time>2019-07-16T06:47:29Z</time>
      </trkpt>
      <trkpt lat="48.29076" lon="-2.02314">
        <ele>74.7</ele>
        <time>2019-07-16T06:47:30Z</time>
      </trkpt>
      <trkpt lat="48.29081" lon="-2.02315">
        <ele>74.7</ele>
        <time>2019-07-16T06:47:31Z</time>
      </trkpt>
      <trkpt lat="48.29087" lon="-2.02317">
        <ele>74.8</ele>
        <time>2019-07-16T06:47:32Z</time>
      </trkpt>
      <trkpt lat="48.29093" lon="-2.02318">
        <ele>74.9</ele>
        <time>2019-07-16T06:47:33Z</time>
      </trkpt>
      <trkpt lat="48.29099" lon="-2.0232">
        <ele>75.1</ele>
        <time>2019-07-16T06:47:34Z</time>
      </trkpt>
      <trkpt lat="48.29105" lon="-2.02322">
        <ele>75.1</ele>
        <time>2019-07-16T06:47:35Z</time>
      </trkpt>
      <trkpt lat="48.29111" lon="-2.02323">
        <ele>74.9</ele>
        <time>2019-07-16T06:47:36Z</time>
      </trkpt>
      <trkpt lat="48.29117" lon="-2.02325">
        <ele>74.9</ele>
        <time>2019-07-16T06:47:37Z</time>
      </trkpt>
      <trkpt lat="48.29123" lon="-2.02327">
        <ele>74.9</ele>
        <time>2019-07-16T06:47:38Z</time>
      </trkpt>
      <trkpt lat="48.29129" lon="-2.02329">
        <ele>74.7</ele>
        <time>2019-07-16T06:47:39Z</time>
      </trkpt>
      <trkpt lat="48.29134" lon="-2.02331">
        <ele>74.6</ele>
        <time>2019-07-16T06:47:40Z</time>
      </trkpt>
      <trkpt lat="48.2914" lon="-2.02333">
        <ele>74.7</ele>
        <time>2019-07-16T06:47:41Z</time>
      </trkpt>
      <trkpt lat="48.29145" lon="-2.02335">
        <ele>74.8</ele>
        <time>2019-07-16T06:47:42Z</time>
      </trkpt>
      <trkpt lat="48.29151" lon="-2.02337">
        <ele>74.9</ele>
        <time>2019-07-16T06:47:43Z</time>
      </trkpt>
      <trkpt lat="48.29158" lon="-2.02339">
        <ele>75.1</ele>
        <time>2019-07-16T06:47:44Z</time>
      </trkpt>
      <trkpt lat="48.29164" lon="-2.0234">
        <ele>75.1</ele>
        <time>2019-07-16T06:47:45Z</time>
      </trkpt>
      <trkpt lat="48.2917" lon="-2.02342">
        <ele>74.8</ele>
        <time>2019-07-16T06:47:46Z</time>
      </trkpt>
      <trkpt lat="48.29176" lon="-2.02344">
        <ele>74.5</ele>
        <time>2019-07-16T06:47:47Z</time>
      </trkpt>
      <trkpt lat="48.29182" lon="-2.02347">
        <ele>73.9</ele>
        <time>2019-07-16T06:47:48Z</time>
      </trkpt>
      <trkpt lat="48.29188" lon="-2.02351">
        <ele>73.3</ele>
        <time>2019-07-16T06:47:49Z</time>
      </trkpt>
      <trkpt lat="48.29194" lon="-2.02355">
        <ele>72.9</ele>
        <time>2019-07-16T06:47:50Z</time>
      </trkpt>
      <trkpt lat="48.29199" lon="-2.02359">
        <ele>72.5</ele>
        <time>2019-07-16T06:47:51Z</time>
      </trkpt>
      <trkpt lat="48.29204" lon="-2.02363">
        <ele>72.2</ele>
        <time>2019-07-16T06:47:52Z</time>
      </trkpt>
      <trkpt lat="48.2921" lon="-2.02367">
        <ele>71.8</ele>
        <time>2019-07-16T06:47:53Z</time>
      </trkpt>
      <trkpt lat="48.29215" lon="-2.02372">
        <ele>71.6</ele>
        <time>2019-07-16T06:47:54Z</time>
      </trkpt>
      <trkpt lat="48.29221" lon="-2.02377">
        <ele>71.8</ele>
        <time>2019-07-16T06:47:55Z</time>
      </trkpt>
      <trkpt lat="48.29226" lon="-2.02381">
        <ele>71.8</ele>
        <time>2019-07-16T06:47:56Z</time>
      </trkpt>
      <trkpt lat="48.29232" lon="-2.02386">
        <ele>71.7</ele>
        <time>2019-07-16T06:47:57Z</time>
      </trkpt>
      <trkpt lat="48.29237" lon="-2.0239">
        <ele>71.4</ele>
        <time>2019-07-16T06:47:58Z</time>
      </trkpt>
      <trkpt lat="48.29243" lon="-2.02395">
        <ele>71.4</ele>
        <time>2019-07-16T06:47:59Z</time>
      </trkpt>
      <trkpt lat="48.29249" lon="-2.02402">
        <ele>71.1</ele>
        <time>2019-07-16T06:48:00Z</time>
      </trkpt>
      <trkpt lat="48.29253" lon="-2.02407">
        <ele>70.9</ele>
        <time>2019-07-16T06:48:01Z</time>
      </trkpt>
      <trkpt lat="48.29259" lon="-2.02412">
        <ele>70.5</ele>
        <time>2019-07-16T06:48:02Z</time>
      </trkpt>
      <trkpt lat="48.29265" lon="-2.02417">
        <ele>70.7</ele>
        <time>2019-07-16T06:48:03Z</time>
      </trkpt>
      <trkpt lat="48.2927" lon="-2.02421">
        <ele>70</ele>
        <time>2019-07-16T06:48:04Z</time>
      </trkpt>
      <trkpt lat="48.29276" lon="-2.02425">
        <ele>69.3</ele>
        <time>2019-07-16T06:48:05Z</time>
      </trkpt>
      <trkpt lat="48.29282" lon="-2.02429">
        <ele>68.4</ele>
        <time>2019-07-16T06:48:06Z</time>
      </trkpt>
      <trkpt lat="48.29287" lon="-2.02433">
        <ele>68</ele>
        <time>2019-07-16T06:48:07Z</time>
      </trkpt>
      <trkpt lat="48.29293" lon="-2.02437">
        <ele>67.4</ele>
        <time>2019-07-16T06:48:08Z</time>
      </trkpt>
      <trkpt lat="48.29298" lon="-2.02441">
        <ele>67.2</ele>
        <time>2019-07-16T06:48:09Z</time>
      </trkpt>
      <trkpt lat="48.29305" lon="-2.02444">
        <ele>66.7</ele>
        <time>2019-07-16T06:48:10Z</time>
      </trkpt>
      <trkpt lat="48.2931" lon="-2.02448">
        <ele>66.3</ele>
        <time>2019-07-16T06:48:11Z</time>
      </trkpt>
      <trkpt lat="48.29314" lon="-2.02451">
        <ele>66.2</ele>
        <time>2019-07-16T06:48:12Z</time>
      </trkpt>
      <trkpt lat="48.29319" lon="-2.02454">
        <ele>65.8</ele>
        <time>2019-07-16T06:48:13Z</time>
      </trkpt>
      <trkpt lat="48.29324" lon="-2.02457">
        <ele>65.5</ele>
        <time>2019-07-16T06:48:14Z</time>
      </trkpt>
      <trkpt lat="48.2933" lon="-2.0246">
        <ele>65.5</ele>
        <time>2019-07-16T06:48:15Z</time>
      </trkpt>
      <trkpt lat="48.29335" lon="-2.02463">
        <ele>65.6</ele>
        <time>2019-07-16T06:48:16Z</time>
      </trkpt>
      <trkpt lat="48.29341" lon="-2.02466">
        <ele>66</ele>
        <time>2019-07-16T06:48:17Z</time>
      </trkpt>
      <trkpt lat="48.29347" lon="-2.02469">
        <ele>66.3</ele>
        <time>2019-07-16T06:48:18Z</time>
      </trkpt>
      <trkpt lat="48.29352" lon="-2.02471">
        <ele>66.5</ele>
        <time>2019-07-16T06:48:19Z</time>
      </trkpt>
      <trkpt lat="48.29357" lon="-2.02473">
        <ele>66.8</ele>
        <time>2019-07-16T06:48:20Z</time>
      </trkpt>
      <trkpt lat="48.29363" lon="-2.02475">
        <ele>66.9</ele>
        <time>2019-07-16T06:48:21Z</time>
      </trkpt>
      <trkpt lat="48.29368" lon="-2.02475">
        <ele>67.1</ele>
        <time>2019-07-16T06:48:22Z</time>
      </trkpt>
      <trkpt lat="48.29374" lon="-2.02477">
        <ele>67.7</ele>
        <time>2019-07-16T06:48:23Z</time>
      </trkpt>
      <trkpt lat="48.29379" lon="-2.02479">
        <ele>68.5</ele>
        <time>2019-07-16T06:48:24Z</time>
      </trkpt>
      <trkpt lat="48.29384" lon="-2.02479">
        <ele>68.8</ele>
        <time>2019-07-16T06:48:25Z</time>
      </trkpt>
      <trkpt lat="48.29389" lon="-2.0248">
        <ele>68.9</ele>
        <time>2019-07-16T06:48:26Z</time>
      </trkpt>
      <trkpt lat="48.29393" lon="-2.02481">
        <ele>69</ele>
        <time>2019-07-16T06:48:27Z</time>
      </trkpt>
      <trkpt lat="48.29398" lon="-2.02482">
        <ele>69.2</ele>
        <time>2019-07-16T06:48:28Z</time>
      </trkpt>
      <trkpt lat="48.29403" lon="-2.02482">
        <ele>69.5</ele>
        <time>2019-07-16T06:48:29Z</time>
      </trkpt>
      <trkpt lat="48.29408" lon="-2.02482">
        <ele>69.8</ele>
        <time>2019-07-16T06:48:30Z</time>
      </trkpt>
      <trkpt lat="48.29413" lon="-2.02482">
        <ele>70.1</ele>
        <time>2019-07-16T06:48:31Z</time>
      </trkpt>
      <trkpt lat="48.29417" lon="-2.02482">
        <ele>70.5</ele>
        <time>2019-07-16T06:48:32Z</time>
      </trkpt>
      <trkpt lat="48.29423" lon="-2.02482">
        <ele>70.1</ele>
        <time>2019-07-16T06:48:33Z</time>
      </trkpt>
      <trkpt lat="48.29428" lon="-2.02481">
        <ele>70</ele>
        <time>2019-07-16T06:48:34Z</time>
      </trkpt>
      <trkpt lat="48.29432" lon="-2.02481">
        <ele>69.9</ele>
        <time>2019-07-16T06:48:35Z</time>
      </trkpt>
      <trkpt lat="48.29437" lon="-2.02482">
        <ele>68.4</ele>
        <time>2019-07-16T06:48:36Z</time>
      </trkpt>
      <trkpt lat="48.2944" lon="-2.02481">
        <ele>68.4</ele>
        <time>2019-07-16T06:48:37Z</time>
      </trkpt>
      <trkpt lat="48.29444" lon="-2.02481">
        <ele>68.3</ele>
        <time>2019-07-16T06:48:38Z</time>
      </trkpt>
      <trkpt lat="48.29448" lon="-2.0248">
        <ele>67.5</ele>
        <time>2019-07-16T06:48:39Z</time>
      </trkpt>
      <trkpt lat="48.29453" lon="-2.0248">
        <ele>67.1</ele>
        <time>2019-07-16T06:48:40Z</time>
      </trkpt>
      <trkpt lat="48.29458" lon="-2.0248">
        <ele>66.7</ele>
        <time>2019-07-16T06:48:41Z</time>
      </trkpt>
      <trkpt lat="48.29463" lon="-2.02479">
        <ele>65.9</ele>
        <time>2019-07-16T06:48:42Z</time>
      </trkpt>
      <trkpt lat="48.29468" lon="-2.02478">
        <ele>65.2</ele>
        <time>2019-07-16T06:48:43Z</time>
      </trkpt>
      <trkpt lat="48.29473" lon="-2.02477">
        <ele>65.4</ele>
        <time>2019-07-16T06:48:44Z</time>
      </trkpt>
      <trkpt lat="48.29478" lon="-2.02476">
        <ele>65.5</ele>
        <time>2019-07-16T06:48:45Z</time>
      </trkpt>
      <trkpt lat="48.29483" lon="-2.02475">
        <ele>65.5</ele>
        <time>2019-07-16T06:48:46Z</time>
      </trkpt>
      <trkpt lat="48.29488" lon="-2.02473">
        <ele>65.5</ele>
        <time>2019-07-16T06:48:47Z</time>
      </trkpt>
      <trkpt lat="48.29493" lon="-2.02471">
        <ele>65.1</ele>
        <time>2019-07-16T06:48:48Z</time>
      </trkpt>
      <trkpt lat="48.29499" lon="-2.0247">
        <ele>65.4</ele>
        <time>2019-07-16T06:48:49Z</time>
      </trkpt>
      <trkpt lat="48.29504" lon="-2.02468">
        <ele>65.4</ele>
        <time>2019-07-16T06:48:50Z</time>
      </trkpt>
      <trkpt lat="48.29509" lon="-2.02466">
        <ele>65.5</ele>
        <time>2019-07-16T06:48:51Z</time>
      </trkpt>
      <trkpt lat="48.29514" lon="-2.02464">
        <ele>65.3</ele>
        <time>2019-07-16T06:48:52Z</time>
      </trkpt>
      <trkpt lat="48.29519" lon="-2.02461">
        <ele>65.5</ele>
        <time>2019-07-16T06:48:53Z</time>
      </trkpt>
      <trkpt lat="48.29525" lon="-2.02458">
        <ele>65.7</ele>
        <time>2019-07-16T06:48:54Z</time>
      </trkpt>
      <trkpt lat="48.29532" lon="-2.02454">
        <ele>66.6</ele>
        <time>2019-07-16T06:48:55Z</time>
      </trkpt>
      <trkpt lat="48.29538" lon="-2.0245">
        <ele>67.4</ele>
        <time>2019-07-16T06:48:56Z</time>
      </trkpt>
      <trkpt lat="48.29543" lon="-2.02446">
        <ele>67.6</ele>
        <time>2019-07-16T06:48:57Z</time>
      </trkpt>
      <trkpt lat="48.29549" lon="-2.02442">
        <ele>67.5</ele>
        <time>2019-07-16T06:48:58Z</time>
      </trkpt>
      <trkpt lat="48.29554" lon="-2.02437">
        <ele>66.8</ele>
        <time>2019-07-16T06:48:59Z</time>
      </trkpt>
      <trkpt lat="48.2956" lon="-2.02433">
        <ele>66.4</ele>
        <time>2019-07-16T06:49:00Z</time>
      </trkpt>
      <trkpt lat="48.29565" lon="-2.02429">
        <ele>66</ele>
        <time>2019-07-16T06:49:01Z</time>
      </trkpt>
      <trkpt lat="48.2957" lon="-2.02425">
        <ele>66.4</ele>
        <time>2019-07-16T06:49:02Z</time>
      </trkpt>
      <trkpt lat="48.29575" lon="-2.02421">
        <ele>66.9</ele>
        <time>2019-07-16T06:49:03Z</time>
      </trkpt>
      <trkpt lat="48.2958" lon="-2.02417">
        <ele>67.3</ele>
        <time>2019-07-16T06:49:04Z</time>
      </trkpt>
      <trkpt lat="48.29586" lon="-2.02412">
        <ele>67.5</ele>
        <time>2019-07-16T06:49:05Z</time>
      </trkpt>
      <trkpt lat="48.2959" lon="-2.02408">
        <ele>68.4</ele>
        <time>2019-07-16T06:49:06Z</time>
      </trkpt>
      <trkpt lat="48.29595" lon="-2.02403">
        <ele>68.7</ele>
        <time>2019-07-16T06:49:07Z</time>
      </trkpt>
      <trkpt lat="48.296" lon="-2.02397">
        <ele>69.3</ele>
        <time>2019-07-16T06:49:08Z</time>
      </trkpt>
      <trkpt lat="48.29604" lon="-2.0239">
        <ele>69.5</ele>
        <time>2019-07-16T06:49:09Z</time>
      </trkpt>
      <trkpt lat="48.29608" lon="-2.02384">
        <ele>69.6</ele>
        <time>2019-07-16T06:49:10Z</time>
      </trkpt>
      <trkpt lat="48.29612" lon="-2.02377">
        <ele>69.7</ele>
        <time>2019-07-16T06:49:11Z</time>
      </trkpt>
      <trkpt lat="48.29616" lon="-2.0237">
        <ele>69.1</ele>
        <time>2019-07-16T06:49:12Z</time>
      </trkpt>
      <trkpt lat="48.2962" lon="-2.02362">
        <ele>68.7</ele>
        <time>2019-07-16T06:49:13Z</time>
      </trkpt>
      <trkpt lat="48.29625" lon="-2.02355">
        <ele>68.5</ele>
        <time>2019-07-16T06:49:14Z</time>
      </trkpt>
      <trkpt lat="48.29629" lon="-2.02347">
        <ele>68.3</ele>
        <time>2019-07-16T06:49:15Z</time>
      </trkpt>
      <trkpt lat="48.29633" lon="-2.0234">
        <ele>68.1</ele>
        <time>2019-07-16T06:49:16Z</time>
      </trkpt>
      <trkpt lat="48.29638" lon="-2.02332">
        <ele>68.1</ele>
        <time>2019-07-16T06:49:17Z</time>
      </trkpt>
      <trkpt lat="48.29642" lon="-2.02325">
        <ele>68.2</ele>
        <time>2019-07-16T06:49:18Z</time>
      </trkpt>
      <trkpt lat="48.29647" lon="-2.02318">
        <ele>68.1</ele>
        <time>2019-07-16T06:49:19Z</time>
      </trkpt>
      <trkpt lat="48.29652" lon="-2.02311">
        <ele>68.2</ele>
        <time>2019-07-16T06:49:20Z</time>
      </trkpt>
      <trkpt lat="48.29657" lon="-2.02304">
        <ele>68.4</ele>
        <time>2019-07-16T06:49:21Z</time>
      </trkpt>
      <trkpt lat="48.29661" lon="-2.02296">
        <ele>68.4</ele>
        <time>2019-07-16T06:49:22Z</time>
      </trkpt>
      <trkpt lat="48.29665" lon="-2.0229">
        <ele>68.2</ele>
        <time>2019-07-16T06:49:23Z</time>
      </trkpt>
      <trkpt lat="48.2967" lon="-2.02283">
        <ele>67.7</ele>
        <time>2019-07-16T06:49:24Z</time>
      </trkpt>
      <trkpt lat="48.29675" lon="-2.02277">
        <ele>67.6</ele>
        <time>2019-07-16T06:49:25Z</time>
      </trkpt>
      <trkpt lat="48.29679" lon="-2.0227">
        <ele>67.5</ele>
        <time>2019-07-16T06:49:26Z</time>
      </trkpt>
      <trkpt lat="48.29683" lon="-2.02265">
        <ele>67.5</ele>
        <time>2019-07-16T06:49:27Z</time>
      </trkpt>
      <trkpt lat="48.29688" lon="-2.02259">
        <ele>67</ele>
        <time>2019-07-16T06:49:28Z</time>
      </trkpt>
      <trkpt lat="48.29692" lon="-2.02253">
        <ele>66.6</ele>
        <time>2019-07-16T06:49:29Z</time>
      </trkpt>
      <trkpt lat="48.29697" lon="-2.02247">
        <ele>66.3</ele>
        <time>2019-07-16T06:49:30Z</time>
      </trkpt>
      <trkpt lat="48.29702" lon="-2.02241">
        <ele>65.8</ele>
        <time>2019-07-16T06:49:31Z</time>
      </trkpt>
      <trkpt lat="48.29707" lon="-2.02236">
        <ele>65.5</ele>
        <time>2019-07-16T06:49:32Z</time>
      </trkpt>
      <trkpt lat="48.2971" lon="-2.02231">
        <ele>65.8</ele>
        <time>2019-07-16T06:49:33Z</time>
      </trkpt>
      <trkpt lat="48.29715" lon="-2.02226">
        <ele>65.5</ele>
        <time>2019-07-16T06:49:34Z</time>
      </trkpt>
      <trkpt lat="48.2972" lon="-2.02222">
        <ele>65.1</ele>
        <time>2019-07-16T06:49:35Z</time>
      </trkpt>
      <trkpt lat="48.29725" lon="-2.02217">
        <ele>64.7</ele>
        <time>2019-07-16T06:49:36Z</time>
      </trkpt>
      <trkpt lat="48.29729" lon="-2.02211">
        <ele>64.5</ele>
        <time>2019-07-16T06:49:37Z</time>
      </trkpt>
      <trkpt lat="48.29734" lon="-2.02206">
        <ele>64.7</ele>
        <time>2019-07-16T06:49:38Z</time>
      </trkpt>
      <trkpt lat="48.29739" lon="-2.02202">
        <ele>64.8</ele>
        <time>2019-07-16T06:49:39Z</time>
      </trkpt>
      <trkpt lat="48.29743" lon="-2.02197">
        <ele>65.1</ele>
        <time>2019-07-16T06:49:40Z</time>
      </trkpt>
      <trkpt lat="48.29748" lon="-2.02193">
        <ele>65.2</ele>
        <time>2019-07-16T06:49:41Z</time>
      </trkpt>
      <trkpt lat="48.29753" lon="-2.02189">
        <ele>65.4</ele>
        <time>2019-07-16T06:49:42Z</time>
      </trkpt>
      <trkpt lat="48.29759" lon="-2.02185">
        <ele>65.9</ele>
        <time>2019-07-16T06:49:43Z</time>
      </trkpt>
      <trkpt lat="48.29765" lon="-2.02181">
        <ele>66.7</ele>
        <time>2019-07-16T06:49:44Z</time>
      </trkpt>
      <trkpt lat="48.2977" lon="-2.02177">
        <ele>67.2</ele>
        <time>2019-07-16T06:49:45Z</time>
      </trkpt>
      <trkpt lat="48.29775" lon="-2.02175">
        <ele>67.6</ele>
        <time>2019-07-16T06:49:46Z</time>
      </trkpt>
      <trkpt lat="48.29781" lon="-2.02173">
        <ele>67.9</ele>
        <time>2019-07-16T06:49:47Z</time>
      </trkpt>
      <trkpt lat="48.29786" lon="-2.0217">
        <ele>68.3</ele>
        <time>2019-07-16T06:49:48Z</time>
      </trkpt>
      <trkpt lat="48.29792" lon="-2.02167">
        <ele>68.4</ele>
        <time>2019-07-16T06:49:49Z</time>
      </trkpt>
      <trkpt lat="48.29798" lon="-2.02164">
        <ele>68.3</ele>
        <time>2019-07-16T06:49:50Z</time>
      </trkpt>
      <trkpt lat="48.29803" lon="-2.02161">
        <ele>68.2</ele>
        <time>2019-07-16T06:49:51Z</time>
      </trkpt>
      <trkpt lat="48.29807" lon="-2.02159">
        <ele>67.7</ele>
        <time>2019-07-16T06:49:52Z</time>
      </trkpt>
      <trkpt lat="48.29812" lon="-2.02157">
        <ele>67.7</ele>
        <time>2019-07-16T06:49:53Z</time>
      </trkpt>
      <trkpt lat="48.29815" lon="-2.02155">
        <ele>67</ele>
        <time>2019-07-16T06:49:54Z</time>
      </trkpt>
      <trkpt lat="48.29818" lon="-2.02153">
        <ele>66.4</ele>
        <time>2019-07-16T06:49:55Z</time>
      </trkpt>
      <trkpt lat="48.2982" lon="-2.02151">
        <ele>65.1</ele>
        <time>2019-07-16T06:49:56Z</time>
      </trkpt>
      <trkpt lat="48.29823" lon="-2.02148">
        <ele>64.2</ele>
        <time>2019-07-16T06:49:57Z</time>
      </trkpt>
      <trkpt lat="48.29825" lon="-2.02145">
        <ele>63.8</ele>
        <time>2019-07-16T06:49:58Z</time>
      </trkpt>
      <trkpt lat="48.29829" lon="-2.02143">
        <ele>62.6</ele>
        <time>2019-07-16T06:49:59Z</time>
      </trkpt>
      <trkpt lat="48.29834" lon="-2.02141">
        <ele>62.6</ele>
        <time>2019-07-16T06:50:00Z</time>
      </trkpt>
      <trkpt lat="48.29838" lon="-2.02139">
        <ele>62.3</ele>
        <time>2019-07-16T06:50:01Z</time>
      </trkpt>
      <trkpt lat="48.29842" lon="-2.02137">
        <ele>61.5</ele>
        <time>2019-07-16T06:50:02Z</time>
      </trkpt>
      <trkpt lat="48.29846" lon="-2.02134">
        <ele>60.8</ele>
        <time>2019-07-16T06:50:03Z</time>
      </trkpt>
      <trkpt lat="48.2985" lon="-2.02132">
        <ele>60.3</ele>
        <time>2019-07-16T06:50:04Z</time>
      </trkpt>
      <trkpt lat="48.29854" lon="-2.0213">
        <ele>60</ele>
        <time>2019-07-16T06:50:05Z</time>
      </trkpt>
      <trkpt lat="48.29858" lon="-2.02128">
        <ele>59.8</ele>
        <time>2019-07-16T06:50:06Z</time>
      </trkpt>
      <trkpt lat="48.29862" lon="-2.02126">
        <ele>59.4</ele>
        <time>2019-07-16T06:50:07Z</time>
      </trkpt>
      <trkpt lat="48.29866" lon="-2.02124">
        <ele>58.7</ele>
        <time>2019-07-16T06:50:08Z</time>
      </trkpt>
      <trkpt lat="48.2987" lon="-2.02123">
        <ele>58</ele>
        <time>2019-07-16T06:50:09Z</time>
      </trkpt>
      <trkpt lat="48.29875" lon="-2.0212">
        <ele>57.9</ele>
        <time>2019-07-16T06:50:10Z</time>
      </trkpt>
      <trkpt lat="48.29879" lon="-2.02119">
        <ele>58.3</ele>
        <time>2019-07-16T06:50:11Z</time>
      </trkpt>
      <trkpt lat="48.29883" lon="-2.02118">
        <ele>58.7</ele>
        <time>2019-07-16T06:50:12Z</time>
      </trkpt>
      <trkpt lat="48.29887" lon="-2.02116">
        <ele>58.8</ele>
        <time>2019-07-16T06:50:13Z</time>
      </trkpt>
      <trkpt lat="48.29892" lon="-2.02115">
        <ele>59.3</ele>
        <time>2019-07-16T06:50:14Z</time>
      </trkpt>
      <trkpt lat="48.29895" lon="-2.02114">
        <ele>59.6</ele>
        <time>2019-07-16T06:50:15Z</time>
      </trkpt>
      <trkpt lat="48.29899" lon="-2.02113">
        <ele>60.2</ele>
        <time>2019-07-16T06:50:16Z</time>
      </trkpt>
      <trkpt lat="48.29903" lon="-2.02111">
        <ele>60.9</ele>
        <time>2019-07-16T06:50:17Z</time>
      </trkpt>
      <trkpt lat="48.29908" lon="-2.0211">
        <ele>60.6</ele>
        <time>2019-07-16T06:50:18Z</time>
      </trkpt>
      <trkpt lat="48.29913" lon="-2.02108">
        <ele>60.9</ele>
        <time>2019-07-16T06:50:19Z</time>
      </trkpt>
      <trkpt lat="48.29918" lon="-2.02105">
        <ele>60.9</ele>
        <time>2019-07-16T06:50:20Z</time>
      </trkpt>
      <trkpt lat="48.29922" lon="-2.02103">
        <ele>60.8</ele>
        <time>2019-07-16T06:50:21Z</time>
      </trkpt>
      <trkpt lat="48.29926" lon="-2.02101">
        <ele>60.7</ele>
        <time>2019-07-16T06:50:22Z</time>
      </trkpt>
      <trkpt lat="48.29931" lon="-2.02099">
        <ele>60.5</ele>
        <time>2019-07-16T06:50:23Z</time>
      </trkpt>
      <trkpt lat="48.29935" lon="-2.02096">
        <ele>60.2</ele>
        <time>2019-07-16T06:50:24Z</time>
      </trkpt>
      <trkpt lat="48.29939" lon="-2.02094">
        <ele>60.1</ele>
        <time>2019-07-16T06:50:25Z</time>
      </trkpt>
      <trkpt lat="48.29943" lon="-2.02091">
        <ele>59.9</ele>
        <time>2019-07-16T06:50:26Z</time>
      </trkpt>
      <trkpt lat="48.29947" lon="-2.02088">
        <ele>59.5</ele>
        <time>2019-07-16T06:50:27Z</time>
      </trkpt>
      <trkpt lat="48.29951" lon="-2.02085">
        <ele>58.9</ele>
        <time>2019-07-16T06:50:28Z</time>
      </trkpt>
      <trkpt lat="48.29955" lon="-2.02083">
        <ele>58.6</ele>
        <time>2019-07-16T06:50:29Z</time>
      </trkpt>
      <trkpt lat="48.29959" lon="-2.02081">
        <ele>58.2</ele>
        <time>2019-07-16T06:50:30Z</time>
      </trkpt>
      <trkpt lat="48.29963" lon="-2.02078">
        <ele>57.9</ele>
        <time>2019-07-16T06:50:31Z</time>
      </trkpt>
      <trkpt lat="48.29967" lon="-2.02076">
        <ele>57.7</ele>
        <time>2019-07-16T06:50:32Z</time>
      </trkpt>
      <trkpt lat="48.29971" lon="-2.02073">
        <ele>57.6</ele>
        <time>2019-07-16T06:50:33Z</time>
      </trkpt>
      <trkpt lat="48.29974" lon="-2.0207">
        <ele>57.6</ele>
        <time>2019-07-16T06:50:34Z</time>
      </trkpt>
      <trkpt lat="48.29978" lon="-2.02067">
        <ele>57.5</ele>
        <time>2019-07-16T06:50:35Z</time>
      </trkpt>
      <trkpt lat="48.29982" lon="-2.02065">
        <ele>57.4</ele>
        <time>2019-07-16T06:50:36Z</time>
      </trkpt>
      <trkpt lat="48.29987" lon="-2.02062">
        <ele>57.2</ele>
        <time>2019-07-16T06:50:37Z</time>
      </trkpt>
      <trkpt lat="48.29991" lon="-2.02058">
        <ele>57.3</ele>
        <time>2019-07-16T06:50:38Z</time>
      </trkpt>
      <trkpt lat="48.29995" lon="-2.02054">
        <ele>57.2</ele>
        <time>2019-07-16T06:50:39Z</time>
      </trkpt>
      <trkpt lat="48.3" lon="-2.02051">
        <ele>57.2</ele>
        <time>2019-07-16T06:50:40Z</time>
      </trkpt>
      <trkpt lat="48.30003" lon="-2.02048">
        <ele>57.6</ele>
        <time>2019-07-16T06:50:41Z</time>
      </trkpt>
      <trkpt lat="48.30007" lon="-2.02045">
        <ele>57.7</ele>
        <time>2019-07-16T06:50:42Z</time>
      </trkpt>
      <trkpt lat="48.3001" lon="-2.0204">
        <ele>57.7</ele>
        <time>2019-07-16T06:50:43Z</time>
      </trkpt>
      <trkpt lat="48.30014" lon="-2.02036">
        <ele>57.7</ele>
        <time>2019-07-16T06:50:44Z</time>
      </trkpt>
      <trkpt lat="48.30017" lon="-2.02032">
        <ele>57.7</ele>
        <time>2019-07-16T06:50:45Z</time>
      </trkpt>
      <trkpt lat="48.30021" lon="-2.02025">
        <ele>55</ele>
        <time>2019-07-16T06:50:46Z</time>
      </trkpt>
      <trkpt lat="48.30025" lon="-2.02021">
        <ele>54.9</ele>
        <time>2019-07-16T06:50:47Z</time>
      </trkpt>
      <trkpt lat="48.30029" lon="-2.02017">
        <ele>54.9</ele>
        <time>2019-07-16T06:50:48Z</time>
      </trkpt>
      <trkpt lat="48.30032" lon="-2.02013">
        <ele>54.9</ele>
        <time>2019-07-16T06:50:49Z</time>
      </trkpt>
      <trkpt lat="48.30034" lon="-2.0201">
        <ele>55.3</ele>
        <time>2019-07-16T06:50:50Z</time>
      </trkpt>
      <trkpt lat="48.30038" lon="-2.02005">
        <ele>55.5</ele>
        <time>2019-07-16T06:50:51Z</time>
      </trkpt>
      <trkpt lat="48.30042" lon="-2.02001">
        <ele>55.6</ele>
        <time>2019-07-16T06:50:52Z</time>
      </trkpt>
      <trkpt lat="48.30045" lon="-2.01996">
        <ele>55.5</ele>
        <time>2019-07-16T06:50:53Z</time>
      </trkpt>
      <trkpt lat="48.30049" lon="-2.0199">
        <ele>55.1</ele>
        <time>2019-07-16T06:50:54Z</time>
      </trkpt>
      <trkpt lat="48.30052" lon="-2.01985">
        <ele>55.4</ele>
        <time>2019-07-16T06:50:55Z</time>
      </trkpt>
      <trkpt lat="48.30056" lon="-2.01979">
        <ele>55.2</ele>
        <time>2019-07-16T06:50:56Z</time>
      </trkpt>
      <trkpt lat="48.30059" lon="-2.01973">
        <ele>55.2</ele>
        <time>2019-07-16T06:50:57Z</time>
      </trkpt>
      <trkpt lat="48.30063" lon="-2.01967">
        <ele>55.4</ele>
        <time>2019-07-16T06:50:58Z</time>
      </trkpt>
      <trkpt lat="48.30066" lon="-2.01962">
        <ele>55.6</ele>
        <time>2019-07-16T06:50:59Z</time>
      </trkpt>
      <trkpt lat="48.3007" lon="-2.01957">
        <ele>55.7</ele>
        <time>2019-07-16T06:51:00Z</time>
      </trkpt>
      <trkpt lat="48.30073" lon="-2.01951">
        <ele>55.8</ele>
        <time>2019-07-16T06:51:01Z</time>
      </trkpt>
      <trkpt lat="48.30076" lon="-2.01945">
        <ele>56.3</ele>
        <time>2019-07-16T06:51:02Z</time>
      </trkpt>
      <trkpt lat="48.30079" lon="-2.01939">
        <ele>56.9</ele>
        <time>2019-07-16T06:51:03Z</time>
      </trkpt>
      <trkpt lat="48.30082" lon="-2.01933">
        <ele>57.3</ele>
        <time>2019-07-16T06:51:04Z</time>
      </trkpt>
      <trkpt lat="48.30085" lon="-2.01928">
        <ele>57.5</ele>
        <time>2019-07-16T06:51:05Z</time>
      </trkpt>
      <trkpt lat="48.30088" lon="-2.01923">
        <ele>57.7</ele>
        <time>2019-07-16T06:51:06Z</time>
      </trkpt>
      <trkpt lat="48.30091" lon="-2.01917">
        <ele>57.7</ele>
        <time>2019-07-16T06:51:07Z</time>
      </trkpt>
      <trkpt lat="48.30094" lon="-2.01912">
        <ele>57.8</ele>
        <time>2019-07-16T06:51:08Z</time>
      </trkpt>
      <trkpt lat="48.30097" lon="-2.01906">
        <ele>57.7</ele>
        <time>2019-07-16T06:51:09Z</time>
      </trkpt>
      <trkpt lat="48.301" lon="-2.019">
        <ele>57.8</ele>
        <time>2019-07-16T06:51:10Z</time>
      </trkpt>
      <trkpt lat="48.30103" lon="-2.01894">
        <ele>57.9</ele>
        <time>2019-07-16T06:51:11Z</time>
      </trkpt>
      <trkpt lat="48.30105" lon="-2.01888">
        <ele>58.2</ele>
        <time>2019-07-16T06:51:12Z</time>
      </trkpt>
      <trkpt lat="48.30108" lon="-2.01882">
        <ele>58.5</ele>
        <time>2019-07-16T06:51:13Z</time>
      </trkpt>
      <trkpt lat="48.30111" lon="-2.01876">
        <ele>58.5</ele>
        <time>2019-07-16T06:51:14Z</time>
      </trkpt>
      <trkpt lat="48.30113" lon="-2.01871">
        <ele>57.4</ele>
        <time>2019-07-16T06:51:15Z</time>
      </trkpt>
      <trkpt lat="48.30116" lon="-2.01865">
        <ele>57.1</ele>
        <time>2019-07-16T06:51:16Z</time>
      </trkpt>
      <trkpt lat="48.30118" lon="-2.01858">
        <ele>56.9</ele>
        <time>2019-07-16T06:51:17Z</time>
      </trkpt>
      <trkpt lat="48.3012" lon="-2.01852">
        <ele>56.8</ele>
        <time>2019-07-16T06:51:18Z</time>
      </trkpt>
      <trkpt lat="48.30123" lon="-2.01846">
        <ele>56.5</ele>
        <time>2019-07-16T06:51:19Z</time>
      </trkpt>
      <trkpt lat="48.30125" lon="-2.0184">
        <ele>56</ele>
        <time>2019-07-16T06:51:20Z</time>
      </trkpt>
      <trkpt lat="48.30128" lon="-2.01834">
        <ele>55.8</ele>
        <time>2019-07-16T06:51:21Z</time>
      </trkpt>
      <trkpt lat="48.3013" lon="-2.01828">
        <ele>55.8</ele>
        <time>2019-07-16T06:51:22Z</time>
      </trkpt>
      <trkpt lat="48.30133" lon="-2.01822">
        <ele>55.7</ele>
        <time>2019-07-16T06:51:23Z</time>
      </trkpt>
      <trkpt lat="48.30135" lon="-2.01815">
        <ele>55.5</ele>
        <time>2019-07-16T06:51:24Z</time>
      </trkpt>
      <trkpt lat="48.30137" lon="-2.01809">
        <ele>55.4</ele>
        <time>2019-07-16T06:51:25Z</time>
      </trkpt>
      <trkpt lat="48.3014" lon="-2.01802">
        <ele>55.5</ele>
        <time>2019-07-16T06:51:26Z</time>
      </trkpt>
      <trkpt lat="48.30142" lon="-2.01795">
        <ele>55.4</ele>
        <time>2019-07-16T06:51:27Z</time>
      </trkpt>
      <trkpt lat="48.30145" lon="-2.01788">
        <ele>55.4</ele>
        <time>2019-07-16T06:51:28Z</time>
      </trkpt>
      <trkpt lat="48.30147" lon="-2.01782">
        <ele>55.4</ele>
        <time>2019-07-16T06:51:29Z</time>
      </trkpt>
      <trkpt lat="48.3015" lon="-2.01775">
        <ele>55.5</ele>
        <time>2019-07-16T06:51:30Z</time>
      </trkpt>
      <trkpt lat="48.30152" lon="-2.01768">
        <ele>55.3</ele>
        <time>2019-07-16T06:51:31Z</time>
      </trkpt>
      <trkpt lat="48.30154" lon="-2.01761">
        <ele>55</ele>
        <time>2019-07-16T06:51:32Z</time>
      </trkpt>
      <trkpt lat="48.30157" lon="-2.01754">
        <ele>54.8</ele>
        <time>2019-07-16T06:51:33Z</time>
      </trkpt>
      <trkpt lat="48.3016" lon="-2.01747">
        <ele>54.6</ele>
        <time>2019-07-16T06:51:34Z</time>
      </trkpt>
      <trkpt lat="48.30162" lon="-2.0174">
        <ele>54.7</ele>
        <time>2019-07-16T06:51:35Z</time>
      </trkpt>
      <trkpt lat="48.30164" lon="-2.01733">
        <ele>54.9</ele>
        <time>2019-07-16T06:51:36Z</time>
      </trkpt>
      <trkpt lat="48.30167" lon="-2.01726">
        <ele>54.9</ele>
        <time>2019-07-16T06:51:37Z</time>
      </trkpt>
      <trkpt lat="48.3017" lon="-2.01719">
        <ele>54.5</ele>
        <time>2019-07-16T06:51:38Z</time>
      </trkpt>
      <trkpt lat="48.30172" lon="-2.01712">
        <ele>54.1</ele>
        <time>2019-07-16T06:51:39Z</time>
      </trkpt>
      <trkpt lat="48.30174" lon="-2.01705">
        <ele>53.7</ele>
        <time>2019-07-16T06:51:40Z</time>
      </trkpt>
      <trkpt lat="48.30176" lon="-2.01699">
        <ele>53.2</ele>
        <time>2019-07-16T06:51:41Z</time>
      </trkpt>
      <trkpt lat="48.30179" lon="-2.01692">
        <ele>53.3</ele>
        <time>2019-07-16T06:51:42Z</time>
      </trkpt>
      <trkpt lat="48.30181" lon="-2.01685">
        <ele>53.4</ele>
        <time>2019-07-16T06:51:43Z</time>
      </trkpt>
      <trkpt lat="48.30183" lon="-2.01678">
        <ele>53.8</ele>
        <time>2019-07-16T06:51:44Z</time>
      </trkpt>
      <trkpt lat="48.30185" lon="-2.0167">
        <ele>53.7</ele>
        <time>2019-07-16T06:51:45Z</time>
      </trkpt>
      <trkpt lat="48.30188" lon="-2.01663">
        <ele>53.6</ele>
        <time>2019-07-16T06:51:46Z</time>
      </trkpt>
      <trkpt lat="48.30191" lon="-2.01656">
        <ele>53.7</ele>
        <time>2019-07-16T06:51:47Z</time>
      </trkpt>
      <trkpt lat="48.30194" lon="-2.01649">
        <ele>53.5</ele>
        <time>2019-07-16T06:51:48Z</time>
      </trkpt>
      <trkpt lat="48.30196" lon="-2.01642">
        <ele>53.3</ele>
        <time>2019-07-16T06:51:49Z</time>
      </trkpt>
      <trkpt lat="48.30199" lon="-2.01634">
        <ele>53.2</ele>
        <time>2019-07-16T06:51:50Z</time>
      </trkpt>
      <trkpt lat="48.30201" lon="-2.01627">
        <ele>53</ele>
        <time>2019-07-16T06:51:51Z</time>
      </trkpt>
      <trkpt lat="48.30204" lon="-2.0162">
        <ele>52.8</ele>
        <time>2019-07-16T06:51:52Z</time>
      </trkpt>
      <trkpt lat="48.30206" lon="-2.01613">
        <ele>52.8</ele>
        <time>2019-07-16T06:51:53Z</time>
      </trkpt>
      <trkpt lat="48.30209" lon="-2.01606">
        <ele>52.8</ele>
        <time>2019-07-16T06:51:54Z</time>
      </trkpt>
      <trkpt lat="48.30211" lon="-2.01599">
        <ele>53.4</ele>
        <time>2019-07-16T06:51:55Z</time>
      </trkpt>
      <trkpt lat="48.30214" lon="-2.01592">
        <ele>54.1</ele>
        <time>2019-07-16T06:51:56Z</time>
      </trkpt>
      <trkpt lat="48.30217" lon="-2.01585">
        <ele>54.2</ele>
        <time>2019-07-16T06:51:57Z</time>
      </trkpt>
      <trkpt lat="48.30219" lon="-2.01578">
        <ele>54.2</ele>
        <time>2019-07-16T06:51:58Z</time>
      </trkpt>
      <trkpt lat="48.30221" lon="-2.01571">
        <ele>54.5</ele>
        <time>2019-07-16T06:51:59Z</time>
      </trkpt>
      <trkpt lat="48.30223" lon="-2.01564">
        <ele>54.5</ele>
        <time>2019-07-16T06:52:00Z</time>
      </trkpt>
      <trkpt lat="48.30226" lon="-2.01557">
        <ele>54.7</ele>
        <time>2019-07-16T06:52:01Z</time>
      </trkpt>
      <trkpt lat="48.30228" lon="-2.01551">
        <ele>55.9</ele>
        <time>2019-07-16T06:52:02Z</time>
      </trkpt>
      <trkpt lat="48.30231" lon="-2.01544">
        <ele>56.5</ele>
        <time>2019-07-16T06:52:03Z</time>
      </trkpt>
      <trkpt lat="48.30233" lon="-2.01538">
        <ele>57.2</ele>
        <time>2019-07-16T06:52:04Z</time>
      </trkpt>
      <trkpt lat="48.30236" lon="-2.01531">
        <ele>57.6</ele>
        <time>2019-07-16T06:52:05Z</time>
      </trkpt>
      <trkpt lat="48.30238" lon="-2.01524">
        <ele>57.4</ele>
        <time>2019-07-16T06:52:06Z</time>
      </trkpt>
      <trkpt lat="48.30241" lon="-2.01517">
        <ele>57.8</ele>
        <time>2019-07-16T06:52:07Z</time>
      </trkpt>
      <trkpt lat="48.30243" lon="-2.0151">
        <ele>57.6</ele>
        <time>2019-07-16T06:52:08Z</time>
      </trkpt>
      <trkpt lat="48.30246" lon="-2.01503">
        <ele>57.1</ele>
        <time>2019-07-16T06:52:09Z</time>
      </trkpt>
      <trkpt lat="48.30248" lon="-2.01497">
        <ele>56.7</ele>
        <time>2019-07-16T06:52:10Z</time>
      </trkpt>
      <trkpt lat="48.3025" lon="-2.0149">
        <ele>56.3</ele>
        <time>2019-07-16T06:52:11Z</time>
      </trkpt>
      <trkpt lat="48.30253" lon="-2.01484">
        <ele>55.6</ele>
        <time>2019-07-16T06:52:12Z</time>
      </trkpt>
      <trkpt lat="48.30254" lon="-2.01477">
        <ele>55.4</ele>
        <time>2019-07-16T06:52:13Z</time>
      </trkpt>
      <trkpt lat="48.30257" lon="-2.01472">
        <ele>55</ele>
        <time>2019-07-16T06:52:14Z</time>
      </trkpt>
      <trkpt lat="48.30258" lon="-2.01468">
        <ele>54.5</ele>
        <time>2019-07-16T06:52:15Z</time>
      </trkpt>
      <trkpt lat="48.3026" lon="-2.01464">
        <ele>54.2</ele>
        <time>2019-07-16T06:52:16Z</time>
      </trkpt>
      <trkpt lat="48.30261" lon="-2.0146">
        <ele>54.1</ele>
        <time>2019-07-16T06:52:17Z</time>
      </trkpt>
      <trkpt lat="48.30262" lon="-2.01456">
        <ele>54</ele>
        <time>2019-07-16T06:52:18Z</time>
      </trkpt>
      <trkpt lat="48.30264" lon="-2.01452">
        <ele>54.5</ele>
        <time>2019-07-16T06:52:19Z</time>
      </trkpt>
      <trkpt lat="48.30265" lon="-2.01447">
        <ele>54.4</ele>
        <time>2019-07-16T06:52:20Z</time>
      </trkpt>
      <trkpt lat="48.30268" lon="-2.01443">
        <ele>54.9</ele>
        <time>2019-07-16T06:52:21Z</time>
      </trkpt>
      <trkpt lat="48.3027" lon="-2.01437">
        <ele>55.1</ele>
        <time>2019-07-16T06:52:22Z</time>
      </trkpt>
      <trkpt lat="48.30273" lon="-2.01432">
        <ele>55.4</ele>
        <time>2019-07-16T06:52:23Z</time>
      </trkpt>
      <trkpt lat="48.30275" lon="-2.01426">
        <ele>55.7</ele>
        <time>2019-07-16T06:52:24Z</time>
      </trkpt>
      <trkpt lat="48.30278" lon="-2.0142">
        <ele>55.7</ele>
        <time>2019-07-16T06:52:25Z</time>
      </trkpt>
      <trkpt lat="48.3028" lon="-2.01414">
        <ele>55.6</ele>
        <time>2019-07-16T06:52:26Z</time>
      </trkpt>
      <trkpt lat="48.30281" lon="-2.01408">
        <ele>55.7</ele>
        <time>2019-07-16T06:52:27Z</time>
      </trkpt>
      <trkpt lat="48.30283" lon="-2.01402">
        <ele>56</ele>
        <time>2019-07-16T06:52:28Z</time>
      </trkpt>
      <trkpt lat="48.30286" lon="-2.01396">
        <ele>55.8</ele>
        <time>2019-07-16T06:52:29Z</time>
      </trkpt>
      <trkpt lat="48.30288" lon="-2.0139">
        <ele>55.7</ele>
        <time>2019-07-16T06:52:30Z</time>
      </trkpt>
      <trkpt lat="48.3029" lon="-2.01384">
        <ele>55.5</ele>
        <time>2019-07-16T06:52:31Z</time>
      </trkpt>
      <trkpt lat="48.30293" lon="-2.01378">
        <ele>55.6</ele>
        <time>2019-07-16T06:52:32Z</time>
      </trkpt>
      <trkpt lat="48.30295" lon="-2.01372">
        <ele>55.5</ele>
        <time>2019-07-16T06:52:33Z</time>
      </trkpt>
      <trkpt lat="48.30297" lon="-2.01366">
        <ele>55.8</ele>
        <time>2019-07-16T06:52:34Z</time>
      </trkpt>
      <trkpt lat="48.303" lon="-2.0136">
        <ele>55.9</ele>
        <time>2019-07-16T06:52:35Z</time>
      </trkpt>
      <trkpt lat="48.30303" lon="-2.01354">
        <ele>56</ele>
        <time>2019-07-16T06:52:36Z</time>
      </trkpt>
      <trkpt lat="48.30306" lon="-2.01348">
        <ele>55.9</ele>
        <time>2019-07-16T06:52:37Z</time>
      </trkpt>
      <trkpt lat="48.30309" lon="-2.01343">
        <ele>56.5</ele>
        <time>2019-07-16T06:52:38Z</time>
      </trkpt>
      <trkpt lat="48.30312" lon="-2.01337">
        <ele>56.5</ele>
        <time>2019-07-16T06:52:39Z</time>
      </trkpt>
      <trkpt lat="48.30315" lon="-2.01331">
        <ele>56.9</ele>
        <time>2019-07-16T06:52:40Z</time>
      </trkpt>
      <trkpt lat="48.30319" lon="-2.01326">
        <ele>56.8</ele>
        <time>2019-07-16T06:52:41Z</time>
      </trkpt>
      <trkpt lat="48.30322" lon="-2.0132">
        <ele>57.4</ele>
        <time>2019-07-16T06:52:42Z</time>
      </trkpt>
      <trkpt lat="48.30325" lon="-2.01315">
        <ele>57.6</ele>
        <time>2019-07-16T06:52:43Z</time>
      </trkpt>
      <trkpt lat="48.30329" lon="-2.0131">
        <ele>57.5</ele>
        <time>2019-07-16T06:52:44Z</time>
      </trkpt>
      <trkpt lat="48.30332" lon="-2.01305">
        <ele>57.7</ele>
        <time>2019-07-16T06:52:45Z</time>
      </trkpt>
      <trkpt lat="48.30335" lon="-2.013">
        <ele>57.7</ele>
        <time>2019-07-16T06:52:46Z</time>
      </trkpt>
      <trkpt lat="48.30339" lon="-2.01296">
        <ele>57.7</ele>
        <time>2019-07-16T06:52:47Z</time>
      </trkpt>
      <trkpt lat="48.30343" lon="-2.01291">
        <ele>57.9</ele>
        <time>2019-07-16T06:52:48Z</time>
      </trkpt>
      <trkpt lat="48.30347" lon="-2.01286">
        <ele>58</ele>
        <time>2019-07-16T06:52:49Z</time>
      </trkpt>
      <trkpt lat="48.30352" lon="-2.0128">
        <ele>57.2</ele>
        <time>2019-07-16T06:52:50Z</time>
      </trkpt>
      <trkpt lat="48.30355" lon="-2.01276">
        <ele>57.6</ele>
        <time>2019-07-16T06:52:51Z</time>
      </trkpt>
      <trkpt lat="48.30359" lon="-2.01271">
        <ele>57.7</ele>
        <time>2019-07-16T06:52:52Z</time>
      </trkpt>
      <trkpt lat="48.30364" lon="-2.01267">
        <ele>57.5</ele>
        <time>2019-07-16T06:52:53Z</time>
      </trkpt>
      <trkpt lat="48.30368" lon="-2.01263">
        <ele>57.3</ele>
        <time>2019-07-16T06:52:54Z</time>
      </trkpt>
      <trkpt lat="48.30373" lon="-2.0126">
        <ele>57</ele>
        <time>2019-07-16T06:52:55Z</time>
      </trkpt>
      <trkpt lat="48.30379" lon="-2.01257">
        <ele>56.7</ele>
        <time>2019-07-16T06:52:56Z</time>
      </trkpt>
      <trkpt lat="48.30384" lon="-2.01254">
        <ele>56.2</ele>
        <time>2019-07-16T06:52:57Z</time>
      </trkpt>
      <trkpt lat="48.30389" lon="-2.01251">
        <ele>55.8</ele>
        <time>2019-07-16T06:52:58Z</time>
      </trkpt>
      <trkpt lat="48.30394" lon="-2.01248">
        <ele>55.7</ele>
        <time>2019-07-16T06:52:59Z</time>
      </trkpt>
      <trkpt lat="48.30399" lon="-2.01244">
        <ele>55.5</ele>
        <time>2019-07-16T06:53:00Z</time>
      </trkpt>
      <trkpt lat="48.30404" lon="-2.0124">
        <ele>55.4</ele>
        <time>2019-07-16T06:53:01Z</time>
      </trkpt>
      <trkpt lat="48.30408" lon="-2.01236">
        <ele>55.1</ele>
        <time>2019-07-16T06:53:02Z</time>
      </trkpt>
      <trkpt lat="48.30413" lon="-2.01232">
        <ele>54.8</ele>
        <time>2019-07-16T06:53:03Z</time>
      </trkpt>
      <trkpt lat="48.30417" lon="-2.01228">
        <ele>54.3</ele>
        <time>2019-07-16T06:53:04Z</time>
      </trkpt>
      <trkpt lat="48.30421" lon="-2.01226">
        <ele>53.6</ele>
        <time>2019-07-16T06:53:05Z</time>
      </trkpt>
      <trkpt lat="48.30425" lon="-2.01222">
        <ele>53.2</ele>
        <time>2019-07-16T06:53:06Z</time>
      </trkpt>
      <trkpt lat="48.3043" lon="-2.0122">
        <ele>52.6</ele>
        <time>2019-07-16T06:53:07Z</time>
      </trkpt>
      <trkpt lat="48.30435" lon="-2.01217">
        <ele>52</ele>
        <time>2019-07-16T06:53:08Z</time>
      </trkpt>
      <trkpt lat="48.3044" lon="-2.01214">
        <ele>52</ele>
        <time>2019-07-16T06:53:09Z</time>
      </trkpt>
      <trkpt lat="48.30445" lon="-2.01212">
        <ele>51.8</ele>
        <time>2019-07-16T06:53:10Z</time>
      </trkpt>
      <trkpt lat="48.3045" lon="-2.0121">
        <ele>52.2</ele>
        <time>2019-07-16T06:53:11Z</time>
      </trkpt>
      <trkpt lat="48.30454" lon="-2.01207">
        <ele>52.4</ele>
        <time>2019-07-16T06:53:12Z</time>
      </trkpt>
      <trkpt lat="48.30458" lon="-2.01205">
        <ele>52.4</ele>
        <time>2019-07-16T06:53:13Z</time>
      </trkpt>
      <trkpt lat="48.30462" lon="-2.01204">
        <ele>52.6</ele>
        <time>2019-07-16T06:53:14Z</time>
      </trkpt>
      <trkpt lat="48.30467" lon="-2.01203">
        <ele>53.6</ele>
        <time>2019-07-16T06:53:15Z</time>
      </trkpt>
      <trkpt lat="48.30471" lon="-2.01201">
        <ele>53.6</ele>
        <time>2019-07-16T06:53:16Z</time>
      </trkpt>
      <trkpt lat="48.30475" lon="-2.012">
        <ele>53.7</ele>
        <time>2019-07-16T06:53:17Z</time>
      </trkpt>
      <trkpt lat="48.30476" lon="-2.01199">
        <ele>53.9</ele>
        <time>2019-07-16T06:53:18Z</time>
      </trkpt>
      <trkpt lat="48.30478" lon="-2.01198">
        <ele>53.6</ele>
        <time>2019-07-16T06:53:19Z</time>
      </trkpt>
      <trkpt lat="48.3048" lon="-2.01198">
        <ele>53.7</ele>
        <time>2019-07-16T06:53:20Z</time>
      </trkpt>
      <trkpt lat="48.30483" lon="-2.01196">
        <ele>53.6</ele>
        <time>2019-07-16T06:53:21Z</time>
      </trkpt>
      <trkpt lat="48.30485" lon="-2.01196">
        <ele>53.8</ele>
        <time>2019-07-16T06:53:22Z</time>
      </trkpt>
      <trkpt lat="48.30487" lon="-2.01194">
        <ele>53.8</ele>
        <time>2019-07-16T06:53:23Z</time>
      </trkpt>
      <trkpt lat="48.3049" lon="-2.01193">
        <ele>53.9</ele>
        <time>2019-07-16T06:53:24Z</time>
      </trkpt>
      <trkpt lat="48.30493" lon="-2.01192">
        <ele>53.8</ele>
        <time>2019-07-16T06:53:25Z</time>
      </trkpt>
      <trkpt lat="48.30496" lon="-2.01191">
        <ele>53.6</ele>
        <time>2019-07-16T06:53:26Z</time>
      </trkpt>
      <trkpt lat="48.30498" lon="-2.0119">
        <ele>53.6</ele>
        <time>2019-07-16T06:53:27Z</time>
      </trkpt>
      <trkpt lat="48.30501" lon="-2.0119">
        <ele>53.7</ele>
        <time>2019-07-16T06:53:28Z</time>
      </trkpt>
      <trkpt lat="48.30503" lon="-2.01188">
        <ele>52.8</ele>
        <time>2019-07-16T06:53:29Z</time>
      </trkpt>
      <trkpt lat="48.30506" lon="-2.01186">
        <ele>51.8</ele>
        <time>2019-07-16T06:53:30Z</time>
      </trkpt>
      <trkpt lat="48.30508" lon="-2.01185">
        <ele>51.2</ele>
        <time>2019-07-16T06:53:31Z</time>
      </trkpt>
      <trkpt lat="48.3051" lon="-2.01184">
        <ele>50.6</ele>
        <time>2019-07-16T06:53:32Z</time>
      </trkpt>
      <trkpt lat="48.30513" lon="-2.01184">
        <ele>50.1</ele>
        <time>2019-07-16T06:53:33Z</time>
      </trkpt>
      <trkpt lat="48.30516" lon="-2.01183">
        <ele>49.8</ele>
        <time>2019-07-16T06:53:34Z</time>
      </trkpt>
      <trkpt lat="48.30518" lon="-2.01183">
        <ele>49.9</ele>
        <time>2019-07-16T06:53:35Z</time>
      </trkpt>
      <trkpt lat="48.3052" lon="-2.01182">
        <ele>49.8</ele>
        <time>2019-07-16T06:53:36Z</time>
      </trkpt>
      <trkpt lat="48.30523" lon="-2.01182">
        <ele>49.7</ele>
        <time>2019-07-16T06:53:37Z</time>
      </trkpt>
      <trkpt lat="48.30525" lon="-2.01182">
        <ele>49.8</ele>
        <time>2019-07-16T06:53:38Z</time>
      </trkpt>
      <trkpt lat="48.30528" lon="-2.01182">
        <ele>49.9</ele>
        <time>2019-07-16T06:53:39Z</time>
      </trkpt>
      <trkpt lat="48.30531" lon="-2.01181">
        <ele>50.1</ele>
        <time>2019-07-16T06:53:40Z</time>
      </trkpt>
      <trkpt lat="48.30535" lon="-2.01182">
        <ele>49.8</ele>
        <time>2019-07-16T06:53:41Z</time>
      </trkpt>
      <trkpt lat="48.30538" lon="-2.01183">
        <ele>50.1</ele>
        <time>2019-07-16T06:53:42Z</time>
      </trkpt>
      <trkpt lat="48.30542" lon="-2.01186">
        <ele>49.6</ele>
        <time>2019-07-16T06:53:43Z</time>
      </trkpt>
      <trkpt lat="48.30544" lon="-2.01189">
        <ele>49.8</ele>
        <time>2019-07-16T06:53:44Z</time>
      </trkpt>
      <trkpt lat="48.30547" lon="-2.01193">
        <ele>50.3</ele>
        <time>2019-07-16T06:53:45Z</time>
      </trkpt>
      <trkpt lat="48.30549" lon="-2.01197">
        <ele>49.9</ele>
        <time>2019-07-16T06:53:46Z</time>
      </trkpt>
      <trkpt lat="48.30552" lon="-2.01198">
        <ele>49.2</ele>
        <time>2019-07-16T06:53:47Z</time>
      </trkpt>
      <trkpt lat="48.30555" lon="-2.01199">
        <ele>49.1</ele>
        <time>2019-07-16T06:53:48Z</time>
      </trkpt>
      <trkpt lat="48.30559" lon="-2.01198">
        <ele>48.2</ele>
        <time>2019-07-16T06:53:49Z</time>
      </trkpt>
      <trkpt lat="48.30562" lon="-2.01197">
        <ele>48.3</ele>
        <time>2019-07-16T06:53:50Z</time>
      </trkpt>
      <trkpt lat="48.30564" lon="-2.01197">
        <ele>48.5</ele>
        <time>2019-07-16T06:53:51Z</time>
      </trkpt>
      <trkpt lat="48.30566" lon="-2.01197">
        <ele>48.5</ele>
        <time>2019-07-16T06:53:52Z</time>
      </trkpt>
      <trkpt lat="48.30568" lon="-2.01196">
        <ele>48.3</ele>
        <time>2019-07-16T06:53:53Z</time>
      </trkpt>
      <trkpt lat="48.3057" lon="-2.01194">
        <ele>45.2</ele>
        <time>2019-07-16T06:55:51Z</time>
      </trkpt>
      <trkpt lat="48.30565" lon="-2.01196">
        <ele>46</ele>
        <time>2019-07-16T06:55:58Z</time>
      </trkpt>
      <trkpt lat="48.30562" lon="-2.01197">
        <ele>46.1</ele>
        <time>2019-07-16T06:55:59Z</time>
      </trkpt>
      <trkpt lat="48.3056" lon="-2.01198">
        <ele>46.2</ele>
        <time>2019-07-16T06:56:00Z</time>
      </trkpt>
      <trkpt lat="48.30557" lon="-2.01198">
        <ele>46.4</ele>
        <time>2019-07-16T06:56:01Z</time>
      </trkpt>
      <trkpt lat="48.30554" lon="-2.01198">
        <ele>46.6</ele>
        <time>2019-07-16T06:56:02Z</time>
      </trkpt>
      <trkpt lat="48.30551" lon="-2.01197">
        <ele>46.7</ele>
        <time>2019-07-16T06:56:03Z</time>
      </trkpt>
      <trkpt lat="48.30549" lon="-2.01196">
        <ele>46.9</ele>
        <time>2019-07-16T06:56:04Z</time>
      </trkpt>
      <trkpt lat="48.30547" lon="-2.01194">
        <ele>47.3</ele>
        <time>2019-07-16T06:56:05Z</time>
      </trkpt>
      <trkpt lat="48.30545" lon="-2.01191">
        <ele>47.4</ele>
        <time>2019-07-16T06:56:06Z</time>
      </trkpt>
      <trkpt lat="48.30542" lon="-2.01188">
        <ele>47.8</ele>
        <time>2019-07-16T06:56:07Z</time>
      </trkpt>
      <trkpt lat="48.3054" lon="-2.01185">
        <ele>47.9</ele>
        <time>2019-07-16T06:56:08Z</time>
      </trkpt>
      <trkpt lat="48.30538" lon="-2.01183">
        <ele>48.4</ele>
        <time>2019-07-16T06:56:09Z</time>
      </trkpt>
      <trkpt lat="48.30536" lon="-2.01182">
        <ele>49.8</ele>
        <time>2019-07-16T06:56:10Z</time>
      </trkpt>
      <trkpt lat="48.30533" lon="-2.01183">
        <ele>51</ele>
        <time>2019-07-16T06:56:11Z</time>
      </trkpt>
      <trkpt lat="48.3053" lon="-2.01183">
        <ele>51.6</ele>
        <time>2019-07-16T06:56:12Z</time>
      </trkpt>
      <trkpt lat="48.30526" lon="-2.01183">
        <ele>52</ele>
        <time>2019-07-16T06:56:13Z</time>
      </trkpt>
      <trkpt lat="48.30523" lon="-2.01184">
        <ele>52.9</ele>
        <time>2019-07-16T06:56:14Z</time>
      </trkpt>
      <trkpt lat="48.3052" lon="-2.01184">
        <ele>53.2</ele>
        <time>2019-07-16T06:56:15Z</time>
      </trkpt>
      <trkpt lat="48.30516" lon="-2.01184">
        <ele>53.2</ele>
        <time>2019-07-16T06:56:16Z</time>
      </trkpt>
      <trkpt lat="48.30513" lon="-2.01185">
        <ele>53.5</ele>
        <time>2019-07-16T06:56:17Z</time>
      </trkpt>
      <trkpt lat="48.30509" lon="-2.01186">
        <ele>53.8</ele>
        <time>2019-07-16T06:56:18Z</time>
      </trkpt>
      <trkpt lat="48.30506" lon="-2.01187">
        <ele>54.2</ele>
        <time>2019-07-16T06:56:19Z</time>
      </trkpt>
      <trkpt lat="48.30502" lon="-2.01187">
        <ele>54.7</ele>
        <time>2019-07-16T06:56:20Z</time>
      </trkpt>
      <trkpt lat="48.30499" lon="-2.01188">
        <ele>55.1</ele>
        <time>2019-07-16T06:56:21Z</time>
      </trkpt>
      <trkpt lat="48.30496" lon="-2.01188">
        <ele>55.9</ele>
        <time>2019-07-16T06:56:22Z</time>
      </trkpt>
      <trkpt lat="48.30493" lon="-2.01189">
        <ele>56.2</ele>
        <time>2019-07-16T06:56:23Z</time>
      </trkpt>
      <trkpt lat="48.30491" lon="-2.0119">
        <ele>56.2</ele>
        <time>2019-07-16T06:56:24Z</time>
      </trkpt>
      <trkpt lat="48.30489" lon="-2.0119">
        <ele>56.2</ele>
        <time>2019-07-16T06:56:25Z</time>
      </trkpt>
      <trkpt lat="48.30487" lon="-2.01189">
        <ele>56.5</ele>
        <time>2019-07-16T06:56:26Z</time>
      </trkpt>
      <trkpt lat="48.30486" lon="-2.01188">
        <ele>56.6</ele>
        <time>2019-07-16T06:56:27Z</time>
      </trkpt>
      <trkpt lat="48.30484" lon="-2.01186">
        <ele>56.5</ele>
        <time>2019-07-16T06:56:28Z</time>
      </trkpt>
      <trkpt lat="48.30482" lon="-2.01183">
        <ele>56.5</ele>
        <time>2019-07-16T06:56:29Z</time>
      </trkpt>
      <trkpt lat="48.30481" lon="-2.01179">
        <ele>56.4</ele>
        <time>2019-07-16T06:56:30Z</time>
      </trkpt>
      <trkpt lat="48.30479" lon="-2.01174">
        <ele>56.4</ele>
        <time>2019-07-16T06:56:31Z</time>
      </trkpt>
      <trkpt lat="48.30478" lon="-2.01169">
        <ele>56.1</ele>
        <time>2019-07-16T06:56:32Z</time>
      </trkpt>
      <trkpt lat="48.30476" lon="-2.01164">
        <ele>56.3</ele>
        <time>2019-07-16T06:56:33Z</time>
      </trkpt>
      <trkpt lat="48.30474" lon="-2.01159">
        <ele>56.1</ele>
        <time>2019-07-16T06:56:34Z</time>
      </trkpt>
      <trkpt lat="48.30472" lon="-2.01154">
        <ele>56.4</ele>
        <time>2019-07-16T06:56:35Z</time>
      </trkpt>
      <trkpt lat="48.30471" lon="-2.01149">
        <ele>56.6</ele>
        <time>2019-07-16T06:56:36Z</time>
      </trkpt>
      <trkpt lat="48.30469" lon="-2.01144">
        <ele>56.7</ele>
        <time>2019-07-16T06:56:37Z</time>
      </trkpt>
      <trkpt lat="48.30468" lon="-2.0114">
        <ele>56.5</ele>
        <time>2019-07-16T06:56:38Z</time>
      </trkpt>
      <trkpt lat="48.30466" lon="-2.01135">
        <ele>56.4</ele>
        <time>2019-07-16T06:56:39Z</time>
      </trkpt>
      <trkpt lat="48.30465" lon="-2.01129">
        <ele>56.8</ele>
        <time>2019-07-16T06:56:40Z</time>
      </trkpt>
      <trkpt lat="48.30463" lon="-2.01125">
        <ele>56.8</ele>
        <time>2019-07-16T06:56:41Z</time>
      </trkpt>
      <trkpt lat="48.30461" lon="-2.0112">
        <ele>57.1</ele>
        <time>2019-07-16T06:56:42Z</time>
      </trkpt>
      <trkpt lat="48.30459" lon="-2.01116">
        <ele>57</ele>
        <time>2019-07-16T06:56:43Z</time>
      </trkpt>
      <trkpt lat="48.30455" lon="-2.01111">
        <ele>55.6</ele>
        <time>2019-07-16T06:56:44Z</time>
      </trkpt>
      <trkpt lat="48.30453" lon="-2.01107">
        <ele>55.5</ele>
        <time>2019-07-16T06:56:45Z</time>
      </trkpt>
      <trkpt lat="48.3045" lon="-2.01102">
        <ele>55.3</ele>
        <time>2019-07-16T06:56:46Z</time>
      </trkpt>
      <trkpt lat="48.30448" lon="-2.01098">
        <ele>55.2</ele>
        <time>2019-07-16T06:56:47Z</time>
      </trkpt>
      <trkpt lat="48.30446" lon="-2.01095">
        <ele>55</ele>
        <time>2019-07-16T06:56:48Z</time>
      </trkpt>
      <trkpt lat="48.30443" lon="-2.01091">
        <ele>55</ele>
        <time>2019-07-16T06:56:49Z</time>
      </trkpt>
      <trkpt lat="48.30441" lon="-2.01088">
        <ele>54.7</ele>
        <time>2019-07-16T06:56:50Z</time>
      </trkpt>
      <trkpt lat="48.30438" lon="-2.01086">
        <ele>54.3</ele>
        <time>2019-07-16T06:56:51Z</time>
      </trkpt>
      <trkpt lat="48.30434" lon="-2.01083">
        <ele>54</ele>
        <time>2019-07-16T06:56:52Z</time>
      </trkpt>
      <trkpt lat="48.30431" lon="-2.0108">
        <ele>53.9</ele>
        <time>2019-07-16T06:56:53Z</time>
      </trkpt>
      <trkpt lat="48.30428" lon="-2.01077">
        <ele>54.2</ele>
        <time>2019-07-16T06:56:54Z</time>
      </trkpt>
      <trkpt lat="48.30425" lon="-2.01074">
        <ele>54.5</ele>
        <time>2019-07-16T06:56:55Z</time>
      </trkpt>
      <trkpt lat="48.30422" lon="-2.01072">
        <ele>54.5</ele>
        <time>2019-07-16T06:56:56Z</time>
      </trkpt>
      <trkpt lat="48.30419" lon="-2.01069">
        <ele>54.3</ele>
        <time>2019-07-16T06:56:57Z</time>
      </trkpt>
      <trkpt lat="48.30416" lon="-2.01066">
        <ele>54</ele>
        <time>2019-07-16T06:56:58Z</time>
      </trkpt>
      <trkpt lat="48.30413" lon="-2.01063">
        <ele>54</ele>
        <time>2019-07-16T06:56:59Z</time>
      </trkpt>
      <trkpt lat="48.30409" lon="-2.0106">
        <ele>54.2</ele>
        <time>2019-07-16T06:57:00Z</time>
      </trkpt>
      <trkpt lat="48.30406" lon="-2.01057">
        <ele>54.7</ele>
        <time>2019-07-16T06:57:01Z</time>
      </trkpt>
      <trkpt lat="48.30403" lon="-2.01054">
        <ele>54.5</ele>
        <time>2019-07-16T06:57:02Z</time>
      </trkpt>
      <trkpt lat="48.30401" lon="-2.01051">
        <ele>54.1</ele>
        <time>2019-07-16T06:57:03Z</time>
      </trkpt>
      <trkpt lat="48.30397" lon="-2.01048">
        <ele>53.9</ele>
        <time>2019-07-16T06:57:04Z</time>
      </trkpt>
      <trkpt lat="48.30394" lon="-2.01045">
        <ele>53.8</ele>
        <time>2019-07-16T06:57:05Z</time>
      </trkpt>
      <trkpt lat="48.30391" lon="-2.01042">
        <ele>53.7</ele>
        <time>2019-07-16T06:57:06Z</time>
      </trkpt>
      <trkpt lat="48.30388" lon="-2.01039">
        <ele>53.7</ele>
        <time>2019-07-16T06:57:07Z</time>
      </trkpt>
      <trkpt lat="48.30384" lon="-2.01036">
        <ele>53.7</ele>
        <time>2019-07-16T06:57:08Z</time>
      </trkpt>
      <trkpt lat="48.30381" lon="-2.01032">
        <ele>53.6</ele>
        <time>2019-07-16T06:57:09Z</time>
      </trkpt>
      <trkpt lat="48.30378" lon="-2.01029">
        <ele>53.6</ele>
        <time>2019-07-16T06:57:10Z</time>
      </trkpt>
      <trkpt lat="48.30375" lon="-2.01026">
        <ele>53.6</ele>
        <time>2019-07-16T06:57:11Z</time>
      </trkpt>
      <trkpt lat="48.30372" lon="-2.01023">
        <ele>53.5</ele>
        <time>2019-07-16T06:57:12Z</time>
      </trkpt>
      <trkpt lat="48.30368" lon="-2.0102">
        <ele>53.3</ele>
        <time>2019-07-16T06:57:13Z</time>
      </trkpt>
      <trkpt lat="48.30365" lon="-2.01017">
        <ele>52.9</ele>
        <time>2019-07-16T06:57:14Z</time>
      </trkpt>
      <trkpt lat="48.30362" lon="-2.01014">
        <ele>53.9</ele>
        <time>2019-07-16T06:57:15Z</time>
      </trkpt>
      <trkpt lat="48.30358" lon="-2.01011">
        <ele>54.8</ele>
        <time>2019-07-16T06:57:16Z</time>
      </trkpt>
      <trkpt lat="48.30355" lon="-2.01007">
        <ele>55</ele>
        <time>2019-07-16T06:57:17Z</time>
      </trkpt>
      <trkpt lat="48.30351" lon="-2.01004">
        <ele>55</ele>
        <time>2019-07-16T06:57:18Z</time>
      </trkpt>
      <trkpt lat="48.30347" lon="-2.01">
        <ele>55.3</ele>
        <time>2019-07-16T06:57:19Z</time>
      </trkpt>
      <trkpt lat="48.30344" lon="-2.00996">
        <ele>55.1</ele>
        <time>2019-07-16T06:57:20Z</time>
      </trkpt>
      <trkpt lat="48.3034" lon="-2.00993">
        <ele>54.9</ele>
        <time>2019-07-16T06:57:21Z</time>
      </trkpt>
      <trkpt lat="48.30337" lon="-2.00989">
        <ele>55.2</ele>
        <time>2019-07-16T06:57:22Z</time>
      </trkpt>
      <trkpt lat="48.30334" lon="-2.00986">
        <ele>55.3</ele>
        <time>2019-07-16T06:57:23Z</time>
      </trkpt>
      <trkpt lat="48.3033" lon="-2.00983">
        <ele>55.1</ele>
        <time>2019-07-16T06:57:24Z</time>
      </trkpt>
      <trkpt lat="48.30327" lon="-2.00979">
        <ele>55.2</ele>
        <time>2019-07-16T06:57:25Z</time>
      </trkpt>
      <trkpt lat="48.30324" lon="-2.00976">
        <ele>54.9</ele>
        <time>2019-07-16T06:57:26Z</time>
      </trkpt>
      <trkpt lat="48.30321" lon="-2.00972">
        <ele>54.6</ele>
        <time>2019-07-16T06:57:27Z</time>
      </trkpt>
      <trkpt lat="48.30317" lon="-2.00969">
        <ele>54.8</ele>
        <time>2019-07-16T06:57:28Z</time>
      </trkpt>
      <trkpt lat="48.30314" lon="-2.00965">
        <ele>54.6</ele>
        <time>2019-07-16T06:57:29Z</time>
      </trkpt>
      <trkpt lat="48.3031" lon="-2.00962">
        <ele>54.5</ele>
        <time>2019-07-16T06:57:30Z</time>
      </trkpt>
      <trkpt lat="48.30306" lon="-2.00958">
        <ele>54.2</ele>
        <time>2019-07-16T06:57:31Z</time>
      </trkpt>
      <trkpt lat="48.30302" lon="-2.00955">
        <ele>54.3</ele>
        <time>2019-07-16T06:57:32Z</time>
      </trkpt>
      <trkpt lat="48.30299" lon="-2.00952">
        <ele>53.9</ele>
        <time>2019-07-16T06:57:33Z</time>
      </trkpt>
      <trkpt lat="48.30296" lon="-2.00949">
        <ele>53.2</ele>
        <time>2019-07-16T06:57:34Z</time>
      </trkpt>
      <trkpt lat="48.30292" lon="-2.00945">
        <ele>53.1</ele>
        <time>2019-07-16T06:57:35Z</time>
      </trkpt>
      <trkpt lat="48.30288" lon="-2.00942">
        <ele>53.1</ele>
        <time>2019-07-16T06:57:36Z</time>
      </trkpt>
      <trkpt lat="48.30285" lon="-2.00939">
        <ele>52.6</ele>
        <time>2019-07-16T06:57:37Z</time>
      </trkpt>
      <trkpt lat="48.30282" lon="-2.00935">
        <ele>52.6</ele>
        <time>2019-07-16T06:57:38Z</time>
      </trkpt>
      <trkpt lat="48.30277" lon="-2.00933">
        <ele>52.1</ele>
        <time>2019-07-16T06:57:39Z</time>
      </trkpt>
      <trkpt lat="48.30273" lon="-2.0093">
        <ele>51.7</ele>
        <time>2019-07-16T06:57:40Z</time>
      </trkpt>
      <trkpt lat="48.30269" lon="-2.00926">
        <ele>51.5</ele>
        <time>2019-07-16T06:57:41Z</time>
      </trkpt>
      <trkpt lat="48.30265" lon="-2.00923">
        <ele>51</ele>
        <time>2019-07-16T06:57:42Z</time>
      </trkpt>
      <trkpt lat="48.30261" lon="-2.00918">
        <ele>50.8</ele>
        <time>2019-07-16T06:57:43Z</time>
      </trkpt>
      <trkpt lat="48.30257" lon="-2.00914">
        <ele>50.2</ele>
        <time>2019-07-16T06:57:44Z</time>
      </trkpt>
      <trkpt lat="48.30254" lon="-2.0091">
        <ele>49.8</ele>
        <time>2019-07-16T06:57:45Z</time>
      </trkpt>
      <trkpt lat="48.3025" lon="-2.00907">
        <ele>49.9</ele>
        <time>2019-07-16T06:57:46Z</time>
      </trkpt>
      <trkpt lat="48.30246" lon="-2.00903">
        <ele>50.2</ele>
        <time>2019-07-16T06:57:47Z</time>
      </trkpt>
      <trkpt lat="48.30242" lon="-2.009">
        <ele>50.3</ele>
        <time>2019-07-16T06:57:48Z</time>
      </trkpt>
      <trkpt lat="48.30239" lon="-2.00896">
        <ele>50.2</ele>
        <time>2019-07-16T06:57:49Z</time>
      </trkpt>
      <trkpt lat="48.30236" lon="-2.00892">
        <ele>50</ele>
        <time>2019-07-16T06:57:50Z</time>
      </trkpt>
      <trkpt lat="48.30232" lon="-2.00888">
        <ele>49.9</ele>
        <time>2019-07-16T06:57:51Z</time>
      </trkpt>
      <trkpt lat="48.30229" lon="-2.00885">
        <ele>49.9</ele>
        <time>2019-07-16T06:57:52Z</time>
      </trkpt>
      <trkpt lat="48.30226" lon="-2.00881">
        <ele>50</ele>
        <time>2019-07-16T06:57:53Z</time>
      </trkpt>
      <trkpt lat="48.30222" lon="-2.00878">
        <ele>50.5</ele>
        <time>2019-07-16T06:57:54Z</time>
      </trkpt>
      <trkpt lat="48.30219" lon="-2.00874">
        <ele>50.9</ele>
        <time>2019-07-16T06:57:55Z</time>
      </trkpt>
      <trkpt lat="48.30216" lon="-2.00871">
        <ele>51.4</ele>
        <time>2019-07-16T06:57:56Z</time>
      </trkpt>
      <trkpt lat="48.30213" lon="-2.00868">
        <ele>51.4</ele>
        <time>2019-07-16T06:57:57Z</time>
      </trkpt>
      <trkpt lat="48.30209" lon="-2.00865">
        <ele>51.8</ele>
        <time>2019-07-16T06:57:58Z</time>
      </trkpt>
      <trkpt lat="48.30206" lon="-2.00862">
        <ele>52.1</ele>
        <time>2019-07-16T06:57:59Z</time>
      </trkpt>
      <trkpt lat="48.30203" lon="-2.00858">
        <ele>52.6</ele>
        <time>2019-07-16T06:58:00Z</time>
      </trkpt>
      <trkpt lat="48.302" lon="-2.00854">
        <ele>53.2</ele>
        <time>2019-07-16T06:58:01Z</time>
      </trkpt>
      <trkpt lat="48.30197" lon="-2.00851">
        <ele>53.8</ele>
        <time>2019-07-16T06:58:02Z</time>
      </trkpt>
      <trkpt lat="48.30193" lon="-2.00847">
        <ele>54.1</ele>
        <time>2019-07-16T06:58:03Z</time>
      </trkpt>
      <trkpt lat="48.3019" lon="-2.00844">
        <ele>54.3</ele>
        <time>2019-07-16T06:58:04Z</time>
      </trkpt>
      <trkpt lat="48.30187" lon="-2.00841">
        <ele>54</ele>
        <time>2019-07-16T06:58:05Z</time>
      </trkpt>
      <trkpt lat="48.30184" lon="-2.00838">
        <ele>54</ele>
        <time>2019-07-16T06:58:06Z</time>
      </trkpt>
      <trkpt lat="48.30181" lon="-2.00835">
        <ele>54.4</ele>
        <time>2019-07-16T06:58:07Z</time>
      </trkpt>
      <trkpt lat="48.30178" lon="-2.00832">
        <ele>54.6</ele>
        <time>2019-07-16T06:58:08Z</time>
      </trkpt>
      <trkpt lat="48.30174" lon="-2.0083">
        <ele>54.8</ele>
        <time>2019-07-16T06:58:09Z</time>
      </trkpt>
      <trkpt lat="48.30171" lon="-2.00827">
        <ele>55</ele>
        <time>2019-07-16T06:58:10Z</time>
      </trkpt>
      <trkpt lat="48.30167" lon="-2.00824">
        <ele>55</ele>
        <time>2019-07-16T06:58:11Z</time>
      </trkpt>
      <trkpt lat="48.30164" lon="-2.00821">
        <ele>55.1</ele>
        <time>2019-07-16T06:58:12Z</time>
      </trkpt>
      <trkpt lat="48.30162" lon="-2.00818">
        <ele>55.2</ele>
        <time>2019-07-16T06:58:13Z</time>
      </trkpt>
      <trkpt lat="48.30159" lon="-2.00815">
        <ele>55.3</ele>
        <time>2019-07-16T06:58:14Z</time>
      </trkpt>
      <trkpt lat="48.30156" lon="-2.00811">
        <ele>55.7</ele>
        <time>2019-07-16T06:58:15Z</time>
      </trkpt>
      <trkpt lat="48.30153" lon="-2.00808">
        <ele>55.8</ele>
        <time>2019-07-16T06:58:16Z</time>
      </trkpt>
      <trkpt lat="48.3015" lon="-2.00804">
        <ele>55.7</ele>
        <time>2019-07-16T06:58:17Z</time>
      </trkpt>
      <trkpt lat="48.30147" lon="-2.00801">
        <ele>55.8</ele>
        <time>2019-07-16T06:58:18Z</time>
      </trkpt>
      <trkpt lat="48.30144" lon="-2.00798">
        <ele>55.8</ele>
        <time>2019-07-16T06:58:19Z</time>
      </trkpt>
      <trkpt lat="48.30141" lon="-2.00795">
        <ele>55.3</ele>
        <time>2019-07-16T06:58:20Z</time>
      </trkpt>
      <trkpt lat="48.30138" lon="-2.00792">
        <ele>54.9</ele>
        <time>2019-07-16T06:58:21Z</time>
      </trkpt>
      <trkpt lat="48.30134" lon="-2.0079">
        <ele>54.5</ele>
        <time>2019-07-16T06:58:22Z</time>
      </trkpt>
      <trkpt lat="48.30131" lon="-2.00787">
        <ele>54.2</ele>
        <time>2019-07-16T06:58:23Z</time>
      </trkpt>
      <trkpt lat="48.30125" lon="-2.00783">
        <ele>53.7</ele>
        <time>2019-07-16T06:58:25Z</time>
      </trkpt>
      <trkpt lat="48.30123" lon="-2.00779">
        <ele>53.5</ele>
        <time>2019-07-16T06:58:26Z</time>
      </trkpt>
      <trkpt lat="48.30121" lon="-2.00777">
        <ele>53.5</ele>
        <time>2019-07-16T06:58:27Z</time>
      </trkpt>
      <trkpt lat="48.30118" lon="-2.00774">
        <ele>53.6</ele>
        <time>2019-07-16T06:58:28Z</time>
      </trkpt>
      <trkpt lat="48.30115" lon="-2.00772">
        <ele>53.6</ele>
        <time>2019-07-16T06:58:29Z</time>
      </trkpt>
      <trkpt lat="48.30112" lon="-2.00769">
        <ele>53.6</ele>
        <time>2019-07-16T06:58:30Z</time>
      </trkpt>
      <trkpt lat="48.30109" lon="-2.00766">
        <ele>53.5</ele>
        <time>2019-07-16T06:58:31Z</time>
      </trkpt>
      <trkpt lat="48.30106" lon="-2.00762">
        <ele>53.7</ele>
        <time>2019-07-16T06:58:32Z</time>
      </trkpt>
      <trkpt lat="48.30103" lon="-2.00758">
        <ele>53.5</ele>
        <time>2019-07-16T06:58:33Z</time>
      </trkpt>
      <trkpt lat="48.30101" lon="-2.00755">
        <ele>53.4</ele>
        <time>2019-07-16T06:58:34Z</time>
      </trkpt>
      <trkpt lat="48.30098" lon="-2.00751">
        <ele>53.8</ele>
        <time>2019-07-16T06:58:35Z</time>
      </trkpt>
      <trkpt lat="48.30095" lon="-2.00748">
        <ele>54.1</ele>
        <time>2019-07-16T06:58:36Z</time>
      </trkpt>
      <trkpt lat="48.30092" lon="-2.00746">
        <ele>54.6</ele>
        <time>2019-07-16T06:58:37Z</time>
      </trkpt>
      <trkpt lat="48.30089" lon="-2.00743">
        <ele>54.9</ele>
        <time>2019-07-16T06:58:38Z</time>
      </trkpt>
      <trkpt lat="48.30086" lon="-2.00739">
        <ele>55.9</ele>
        <time>2019-07-16T06:58:39Z</time>
      </trkpt>
      <trkpt lat="48.30082" lon="-2.00736">
        <ele>56.6</ele>
        <time>2019-07-16T06:58:40Z</time>
      </trkpt>
      <trkpt lat="48.30079" lon="-2.00733">
        <ele>56.6</ele>
        <time>2019-07-16T06:58:41Z</time>
      </trkpt>
      <trkpt lat="48.30076" lon="-2.0073">
        <ele>56.3</ele>
        <time>2019-07-16T06:58:42Z</time>
      </trkpt>
      <trkpt lat="48.30073" lon="-2.00727">
        <ele>55.9</ele>
        <time>2019-07-16T06:58:43Z</time>
      </trkpt>
      <trkpt lat="48.30069" lon="-2.00723">
        <ele>55.9</ele>
        <time>2019-07-16T06:58:44Z</time>
      </trkpt>
      <trkpt lat="48.30067" lon="-2.00719">
        <ele>56.4</ele>
        <time>2019-07-16T06:58:45Z</time>
      </trkpt>
      <trkpt lat="48.30065" lon="-2.00715">
        <ele>56.1</ele>
        <time>2019-07-16T06:58:46Z</time>
      </trkpt>
      <trkpt lat="48.30063" lon="-2.00712">
        <ele>56.2</ele>
        <time>2019-07-16T06:58:47Z</time>
      </trkpt>
      <trkpt lat="48.30061" lon="-2.00708">
        <ele>56.1</ele>
        <time>2019-07-16T06:58:48Z</time>
      </trkpt>
      <trkpt lat="48.3006" lon="-2.00705">
        <ele>55.9</ele>
        <time>2019-07-16T06:58:49Z</time>
      </trkpt>
      <trkpt lat="48.30058" lon="-2.00701">
        <ele>55.6</ele>
        <time>2019-07-16T06:58:50Z</time>
      </trkpt>
      <trkpt lat="48.30057" lon="-2.00697">
        <ele>55.3</ele>
        <time>2019-07-16T06:58:51Z</time>
      </trkpt>
      <trkpt lat="48.30055" lon="-2.00693">
        <ele>55.1</ele>
        <time>2019-07-16T06:58:52Z</time>
      </trkpt>
      <trkpt lat="48.30053" lon="-2.00688">
        <ele>54.8</ele>
        <time>2019-07-16T06:58:53Z</time>
      </trkpt>
      <trkpt lat="48.30051" lon="-2.00684">
        <ele>55.1</ele>
        <time>2019-07-16T06:58:54Z</time>
      </trkpt>
      <trkpt lat="48.30049" lon="-2.00679">
        <ele>54.9</ele>
        <time>2019-07-16T06:58:55Z</time>
      </trkpt>
      <trkpt lat="48.30049" lon="-2.00674">
        <ele>55.3</ele>
        <time>2019-07-16T06:58:56Z</time>
      </trkpt>
      <trkpt lat="48.30047" lon="-2.0067">
        <ele>55.4</ele>
        <time>2019-07-16T06:58:57Z</time>
      </trkpt>
      <trkpt lat="48.30046" lon="-2.00667">
        <ele>55.7</ele>
        <time>2019-07-16T06:58:58Z</time>
      </trkpt>
      <trkpt lat="48.30045" lon="-2.00664">
        <ele>55.5</ele>
        <time>2019-07-16T06:58:59Z</time>
      </trkpt>
      <trkpt lat="48.30043" lon="-2.00661">
        <ele>55.2</ele>
        <time>2019-07-16T06:59:00Z</time>
      </trkpt>
      <trkpt lat="48.30042" lon="-2.00658">
        <ele>54.6</ele>
        <time>2019-07-16T06:59:01Z</time>
      </trkpt>
      <trkpt lat="48.30042" lon="-2.00655">
        <ele>54.8</ele>
        <time>2019-07-16T06:59:02Z</time>
      </trkpt>
      <trkpt lat="48.3004" lon="-2.00653">
        <ele>54.4</ele>
        <time>2019-07-16T06:59:03Z</time>
      </trkpt>
      <trkpt lat="48.3004" lon="-2.00651">
        <ele>54</ele>
        <time>2019-07-16T06:59:04Z</time>
      </trkpt>
      <trkpt lat="48.30039" lon="-2.0065">
        <ele>53.8</ele>
        <time>2019-07-16T06:59:05Z</time>
      </trkpt>
      <trkpt lat="48.30038" lon="-2.00648">
        <ele>53.8</ele>
        <time>2019-07-16T06:59:06Z</time>
      </trkpt>
      <trkpt lat="48.30036" lon="-2.00647">
        <ele>53.8</ele>
        <time>2019-07-16T06:59:07Z</time>
      </trkpt>
      <trkpt lat="48.30035" lon="-2.00645">
        <ele>53.5</ele>
        <time>2019-07-16T06:59:08Z</time>
      </trkpt>
      <trkpt lat="48.30033" lon="-2.00644">
        <ele>53.3</ele>
        <time>2019-07-16T06:59:09Z</time>
      </trkpt>
      <trkpt lat="48.30032" lon="-2.00642">
        <ele>53</ele>
        <time>2019-07-16T06:59:10Z</time>
      </trkpt>
      <trkpt lat="48.30031" lon="-2.0064">
        <ele>52.7</ele>
        <time>2019-07-16T06:59:11Z</time>
      </trkpt>
      <trkpt lat="48.30028" lon="-2.00633">
        <ele>52.5</ele>
        <time>2019-07-16T07:02:50Z</time>
      </trkpt>
      <trkpt lat="48.30027" lon="-2.00631">
        <ele>52.5</ele>
        <time>2019-07-16T07:02:51Z</time>
      </trkpt>
      <trkpt lat="48.30027" lon="-2.00628">
        <ele>52.6</ele>
        <time>2019-07-16T07:02:52Z</time>
      </trkpt>
      <trkpt lat="48.30026" lon="-2.00625">
        <ele>52.8</ele>
        <time>2019-07-16T07:02:53Z</time>
      </trkpt>
      <trkpt lat="48.30024" lon="-2.00621">
        <ele>52.9</ele>
        <time>2019-07-16T07:02:54Z</time>
      </trkpt>
      <trkpt lat="48.30024" lon="-2.00617">
        <ele>53.1</ele>
        <time>2019-07-16T07:02:55Z</time>
      </trkpt>
      <trkpt lat="48.30023" lon="-2.00614">
        <ele>53.3</ele>
        <time>2019-07-16T07:02:56Z</time>
      </trkpt>
      <trkpt lat="48.30022" lon="-2.0061">
        <ele>53.7</ele>
        <time>2019-07-16T07:02:57Z</time>
      </trkpt>
      <trkpt lat="48.30022" lon="-2.00606">
        <ele>54</ele>
        <time>2019-07-16T07:02:58Z</time>
      </trkpt>
      <trkpt lat="48.30022" lon="-2.00602">
        <ele>54.2</ele>
        <time>2019-07-16T07:02:59Z</time>
      </trkpt>
      <trkpt lat="48.30021" lon="-2.00597">
        <ele>54.1</ele>
        <time>2019-07-16T07:03:00Z</time>
      </trkpt>
      <trkpt lat="48.3002" lon="-2.00592">
        <ele>54</ele>
        <time>2019-07-16T07:03:01Z</time>
      </trkpt>
      <trkpt lat="48.30018" lon="-2.00588">
        <ele>54.3</ele>
        <time>2019-07-16T07:03:02Z</time>
      </trkpt>
      <trkpt lat="48.30016" lon="-2.00584">
        <ele>54.5</ele>
        <time>2019-07-16T07:03:03Z</time>
      </trkpt>
      <trkpt lat="48.30014" lon="-2.0058">
        <ele>54.8</ele>
        <time>2019-07-16T07:03:04Z</time>
      </trkpt>
      <trkpt lat="48.30013" lon="-2.00576">
        <ele>55.1</ele>
        <time>2019-07-16T07:03:05Z</time>
      </trkpt>
      <trkpt lat="48.30011" lon="-2.00572">
        <ele>55.4</ele>
        <time>2019-07-16T07:03:06Z</time>
      </trkpt>
      <trkpt lat="48.30009" lon="-2.00568">
        <ele>55.6</ele>
        <time>2019-07-16T07:03:07Z</time>
      </trkpt>
      <trkpt lat="48.30007" lon="-2.00564">
        <ele>55.8</ele>
        <time>2019-07-16T07:03:08Z</time>
      </trkpt>
      <trkpt lat="48.30005" lon="-2.0056">
        <ele>55.8</ele>
        <time>2019-07-16T07:03:09Z</time>
      </trkpt>
      <trkpt lat="48.30003" lon="-2.00556">
        <ele>55.7</ele>
        <time>2019-07-16T07:03:10Z</time>
      </trkpt>
      <trkpt lat="48.30002" lon="-2.00552">
        <ele>55.8</ele>
        <time>2019-07-16T07:03:11Z</time>
      </trkpt>
      <trkpt lat="48.3" lon="-2.00548">
        <ele>55.9</ele>
        <time>2019-07-16T07:03:12Z</time>
      </trkpt>
      <trkpt lat="48.29999" lon="-2.00544">
        <ele>56.1</ele>
        <time>2019-07-16T07:03:13Z</time>
      </trkpt>
      <trkpt lat="48.29997" lon="-2.0054">
        <ele>56.1</ele>
        <time>2019-07-16T07:03:14Z</time>
      </trkpt>
      <trkpt lat="48.29995" lon="-2.00535">
        <ele>56.4</ele>
        <time>2019-07-16T07:03:15Z</time>
      </trkpt>
      <trkpt lat="48.29994" lon="-2.00531">
        <ele>56.7</ele>
        <time>2019-07-16T07:03:16Z</time>
      </trkpt>
      <trkpt lat="48.29992" lon="-2.00528">
        <ele>57.3</ele>
        <time>2019-07-16T07:03:17Z</time>
      </trkpt>
      <trkpt lat="48.2999" lon="-2.00524">
        <ele>57.7</ele>
        <time>2019-07-16T07:03:18Z</time>
      </trkpt>
      <trkpt lat="48.29989" lon="-2.00519">
        <ele>58</ele>
        <time>2019-07-16T07:03:19Z</time>
      </trkpt>
      <trkpt lat="48.29987" lon="-2.00515">
        <ele>58.3</ele>
        <time>2019-07-16T07:03:20Z</time>
      </trkpt>
      <trkpt lat="48.29985" lon="-2.00511">
        <ele>58.7</ele>
        <time>2019-07-16T07:03:21Z</time>
      </trkpt>
      <trkpt lat="48.29984" lon="-2.00507">
        <ele>59.2</ele>
        <time>2019-07-16T07:03:22Z</time>
      </trkpt>
      <trkpt lat="48.29982" lon="-2.00502">
        <ele>59.2</ele>
        <time>2019-07-16T07:03:23Z</time>
      </trkpt>
      <trkpt lat="48.29979" lon="-2.00498">
        <ele>59.3</ele>
        <time>2019-07-16T07:03:24Z</time>
      </trkpt>
      <trkpt lat="48.29977" lon="-2.00494">
        <ele>59.4</ele>
        <time>2019-07-16T07:03:25Z</time>
      </trkpt>
      <trkpt lat="48.29975" lon="-2.0049">
        <ele>59.5</ele>
        <time>2019-07-16T07:03:26Z</time>
      </trkpt>
      <trkpt lat="48.29974" lon="-2.00485">
        <ele>59.3</ele>
        <time>2019-07-16T07:03:27Z</time>
      </trkpt>
      <trkpt lat="48.29971" lon="-2.00481">
        <ele>59.4</ele>
        <time>2019-07-16T07:03:28Z</time>
      </trkpt>
      <trkpt lat="48.29969" lon="-2.00477">
        <ele>59.4</ele>
        <time>2019-07-16T07:03:29Z</time>
      </trkpt>
      <trkpt lat="48.29967" lon="-2.00473">
        <ele>59.2</ele>
        <time>2019-07-16T07:03:30Z</time>
      </trkpt>
      <trkpt lat="48.29965" lon="-2.00468">
        <ele>59.3</ele>
        <time>2019-07-16T07:03:31Z</time>
      </trkpt>
      <trkpt lat="48.29963" lon="-2.00464">
        <ele>59.4</ele>
        <time>2019-07-16T07:03:32Z</time>
      </trkpt>
      <trkpt lat="48.29961" lon="-2.00459">
        <ele>59.3</ele>
        <time>2019-07-16T07:03:33Z</time>
      </trkpt>
      <trkpt lat="48.29959" lon="-2.00455">
        <ele>59</ele>
        <time>2019-07-16T07:03:34Z</time>
      </trkpt>
      <trkpt lat="48.29957" lon="-2.00451">
        <ele>59.1</ele>
        <time>2019-07-16T07:03:35Z</time>
      </trkpt>
      <trkpt lat="48.29955" lon="-2.00446">
        <ele>59</ele>
        <time>2019-07-16T07:03:36Z</time>
      </trkpt>
      <trkpt lat="48.29953" lon="-2.00442">
        <ele>59</ele>
        <time>2019-07-16T07:03:37Z</time>
      </trkpt>
      <trkpt lat="48.29952" lon="-2.00438">
        <ele>58.9</ele>
        <time>2019-07-16T07:03:38Z</time>
      </trkpt>
      <trkpt lat="48.2995" lon="-2.00433">
        <ele>59.1</ele>
        <time>2019-07-16T07:03:39Z</time>
      </trkpt>
      <trkpt lat="48.29949" lon="-2.00429">
        <ele>59.1</ele>
        <time>2019-07-16T07:03:40Z</time>
      </trkpt>
      <trkpt lat="48.29947" lon="-2.00424">
        <ele>58.9</ele>
        <time>2019-07-16T07:03:41Z</time>
      </trkpt>
      <trkpt lat="48.29946" lon="-2.0042">
        <ele>58.8</ele>
        <time>2019-07-16T07:03:42Z</time>
      </trkpt>
      <trkpt lat="48.29944" lon="-2.00416">
        <ele>58.8</ele>
        <time>2019-07-16T07:03:43Z</time>
      </trkpt>
      <trkpt lat="48.29944" lon="-2.00411">
        <ele>59.3</ele>
        <time>2019-07-16T07:03:44Z</time>
      </trkpt>
      <trkpt lat="48.29942" lon="-2.00407">
        <ele>59.4</ele>
        <time>2019-07-16T07:03:45Z</time>
      </trkpt>
      <trkpt lat="48.2994" lon="-2.00402">
        <ele>59.6</ele>
        <time>2019-07-16T07:03:46Z</time>
      </trkpt>
      <trkpt lat="48.29938" lon="-2.00398">
        <ele>59.5</ele>
        <time>2019-07-16T07:03:47Z</time>
      </trkpt>
      <trkpt lat="48.29936" lon="-2.00393">
        <ele>59.6</ele>
        <time>2019-07-16T07:03:48Z</time>
      </trkpt>
      <trkpt lat="48.29934" lon="-2.00389">
        <ele>59.4</ele>
        <time>2019-07-16T07:03:49Z</time>
      </trkpt>
      <trkpt lat="48.29932" lon="-2.00384">
        <ele>59.5</ele>
        <time>2019-07-16T07:03:50Z</time>
      </trkpt>
      <trkpt lat="48.2993" lon="-2.00379">
        <ele>59.5</ele>
        <time>2019-07-16T07:03:51Z</time>
      </trkpt>
      <trkpt lat="48.29929" lon="-2.00374">
        <ele>59.6</ele>
        <time>2019-07-16T07:03:52Z</time>
      </trkpt>
      <trkpt lat="48.29927" lon="-2.00369">
        <ele>60.2</ele>
        <time>2019-07-16T07:03:53Z</time>
      </trkpt>
      <trkpt lat="48.29924" lon="-2.00364">
        <ele>60.5</ele>
        <time>2019-07-16T07:03:54Z</time>
      </trkpt>
      <trkpt lat="48.29923" lon="-2.00359">
        <ele>60.6</ele>
        <time>2019-07-16T07:03:55Z</time>
      </trkpt>
      <trkpt lat="48.2992" lon="-2.00354">
        <ele>60.4</ele>
        <time>2019-07-16T07:03:56Z</time>
      </trkpt>
      <trkpt lat="48.29918" lon="-2.00348">
        <ele>60</ele>
        <time>2019-07-16T07:03:57Z</time>
      </trkpt>
      <trkpt lat="48.29916" lon="-2.00343">
        <ele>59.5</ele>
        <time>2019-07-16T07:03:58Z</time>
      </trkpt>
      <trkpt lat="48.29913" lon="-2.00337">
        <ele>59.6</ele>
        <time>2019-07-16T07:03:59Z</time>
      </trkpt>
      <trkpt lat="48.29911" lon="-2.00332">
        <ele>59.8</ele>
        <time>2019-07-16T07:04:00Z</time>
      </trkpt>
      <trkpt lat="48.2991" lon="-2.00327">
        <ele>59.7</ele>
        <time>2019-07-16T07:04:01Z</time>
      </trkpt>
      <trkpt lat="48.29908" lon="-2.00321">
        <ele>59.1</ele>
        <time>2019-07-16T07:04:02Z</time>
      </trkpt>
      <trkpt lat="48.29906" lon="-2.00315">
        <ele>58.7</ele>
        <time>2019-07-16T07:04:03Z</time>
      </trkpt>
      <trkpt lat="48.29904" lon="-2.0031">
        <ele>58.5</ele>
        <time>2019-07-16T07:04:04Z</time>
      </trkpt>
      <trkpt lat="48.29902" lon="-2.00304">
        <ele>58.5</ele>
        <time>2019-07-16T07:04:05Z</time>
      </trkpt>
      <trkpt lat="48.299" lon="-2.00298">
        <ele>58.9</ele>
        <time>2019-07-16T07:04:06Z</time>
      </trkpt>
      <trkpt lat="48.29898" lon="-2.00293">
        <ele>58.8</ele>
        <time>2019-07-16T07:04:07Z</time>
      </trkpt>
      <trkpt lat="48.29896" lon="-2.00287">
        <ele>58.8</ele>
        <time>2019-07-16T07:04:08Z</time>
      </trkpt>
      <trkpt lat="48.29894" lon="-2.00281">
        <ele>58.7</ele>
        <time>2019-07-16T07:04:09Z</time>
      </trkpt>
      <trkpt lat="48.29891" lon="-2.00275">
        <ele>58.9</ele>
        <time>2019-07-16T07:04:10Z</time>
      </trkpt>
      <trkpt lat="48.29889" lon="-2.00269">
        <ele>59.1</ele>
        <time>2019-07-16T07:04:11Z</time>
      </trkpt>
      <trkpt lat="48.29887" lon="-2.00263">
        <ele>59.1</ele>
        <time>2019-07-16T07:04:12Z</time>
      </trkpt>
      <trkpt lat="48.29884" lon="-2.00257">
        <ele>59.4</ele>
        <time>2019-07-16T07:04:13Z</time>
      </trkpt>
      <trkpt lat="48.29882" lon="-2.00251">
        <ele>59.3</ele>
        <time>2019-07-16T07:04:14Z</time>
      </trkpt>
      <trkpt lat="48.29879" lon="-2.00245">
        <ele>58.8</ele>
        <time>2019-07-16T07:04:15Z</time>
      </trkpt>
      <trkpt lat="48.29876" lon="-2.00239">
        <ele>58.8</ele>
        <time>2019-07-16T07:04:16Z</time>
      </trkpt>
      <trkpt lat="48.29874" lon="-2.00233">
        <ele>58.7</ele>
        <time>2019-07-16T07:04:17Z</time>
      </trkpt>
      <trkpt lat="48.29872" lon="-2.00227">
        <ele>58.5</ele>
        <time>2019-07-16T07:04:18Z</time>
      </trkpt>
      <trkpt lat="48.2987" lon="-2.00222">
        <ele>58.4</ele>
        <time>2019-07-16T07:04:19Z</time>
      </trkpt>
      <trkpt lat="48.29868" lon="-2.00216">
        <ele>58.2</ele>
        <time>2019-07-16T07:04:20Z</time>
      </trkpt>
      <trkpt lat="48.29865" lon="-2.00209">
        <ele>57.7</ele>
        <time>2019-07-16T07:04:21Z</time>
      </trkpt>
      <trkpt lat="48.29863" lon="-2.00203">
        <ele>57.7</ele>
        <time>2019-07-16T07:04:22Z</time>
      </trkpt>
      <trkpt lat="48.2986" lon="-2.00197">
        <ele>57.4</ele>
        <time>2019-07-16T07:04:23Z</time>
      </trkpt>
      <trkpt lat="48.29858" lon="-2.0019">
        <ele>57.4</ele>
        <time>2019-07-16T07:04:24Z</time>
      </trkpt>
      <trkpt lat="48.29855" lon="-2.00184">
        <ele>57.3</ele>
        <time>2019-07-16T07:04:25Z</time>
      </trkpt>
      <trkpt lat="48.29852" lon="-2.00178">
        <ele>56.9</ele>
        <time>2019-07-16T07:04:26Z</time>
      </trkpt>
      <trkpt lat="48.2985" lon="-2.00171">
        <ele>57.2</ele>
        <time>2019-07-16T07:04:27Z</time>
      </trkpt>
      <trkpt lat="48.29847" lon="-2.00164">
        <ele>57.7</ele>
        <time>2019-07-16T07:04:28Z</time>
      </trkpt>
      <trkpt lat="48.29845" lon="-2.00157">
        <ele>58</ele>
        <time>2019-07-16T07:04:29Z</time>
      </trkpt>
      <trkpt lat="48.29842" lon="-2.0015">
        <ele>57.9</ele>
        <time>2019-07-16T07:04:30Z</time>
      </trkpt>
      <trkpt lat="48.29839" lon="-2.00144">
        <ele>57.8</ele>
        <time>2019-07-16T07:04:31Z</time>
      </trkpt>
      <trkpt lat="48.29836" lon="-2.00136">
        <ele>57.8</ele>
        <time>2019-07-16T07:04:32Z</time>
      </trkpt>
      <trkpt lat="48.29834" lon="-2.00129">
        <ele>58.5</ele>
        <time>2019-07-16T07:04:33Z</time>
      </trkpt>
      <trkpt lat="48.29831" lon="-2.00122">
        <ele>58.7</ele>
        <time>2019-07-16T07:04:34Z</time>
      </trkpt>
      <trkpt lat="48.29828" lon="-2.00116">
        <ele>58.8</ele>
        <time>2019-07-16T07:04:35Z</time>
      </trkpt>
      <trkpt lat="48.29825" lon="-2.00109">
        <ele>58.8</ele>
        <time>2019-07-16T07:04:36Z</time>
      </trkpt>
      <trkpt lat="48.29823" lon="-2.00102">
        <ele>58.7</ele>
        <time>2019-07-16T07:04:37Z</time>
      </trkpt>
      <trkpt lat="48.2982" lon="-2.00095">
        <ele>58.7</ele>
        <time>2019-07-16T07:04:38Z</time>
      </trkpt>
      <trkpt lat="48.29817" lon="-2.00088">
        <ele>58.3</ele>
        <time>2019-07-16T07:04:39Z</time>
      </trkpt>
      <trkpt lat="48.29815" lon="-2.00081">
        <ele>58.7</ele>
        <time>2019-07-16T07:04:40Z</time>
      </trkpt>
      <trkpt lat="48.29812" lon="-2.00075">
        <ele>58.6</ele>
        <time>2019-07-16T07:04:41Z</time>
      </trkpt>
      <trkpt lat="48.2981" lon="-2.00068">
        <ele>58.8</ele>
        <time>2019-07-16T07:04:42Z</time>
      </trkpt>
      <trkpt lat="48.29807" lon="-2.00062">
        <ele>58.8</ele>
        <time>2019-07-16T07:04:43Z</time>
      </trkpt>
      <trkpt lat="48.29805" lon="-2.00056">
        <ele>58.7</ele>
        <time>2019-07-16T07:04:44Z</time>
      </trkpt>
      <trkpt lat="48.29802" lon="-2.00051">
        <ele>58.3</ele>
        <time>2019-07-16T07:04:45Z</time>
      </trkpt>
      <trkpt lat="48.29801" lon="-2.00045">
        <ele>58.5</ele>
        <time>2019-07-16T07:04:46Z</time>
      </trkpt>
      <trkpt lat="48.29799" lon="-2.00039">
        <ele>58.5</ele>
        <time>2019-07-16T07:04:47Z</time>
      </trkpt>
      <trkpt lat="48.29797" lon="-2.00034">
        <ele>58.5</ele>
        <time>2019-07-16T07:04:48Z</time>
      </trkpt>
      <trkpt lat="48.29796" lon="-2.00028">
        <ele>58.7</ele>
        <time>2019-07-16T07:04:49Z</time>
      </trkpt>
      <trkpt lat="48.29793" lon="-2.00023">
        <ele>58.7</ele>
        <time>2019-07-16T07:04:50Z</time>
      </trkpt>
      <trkpt lat="48.29791" lon="-2.00017">
        <ele>58.7</ele>
        <time>2019-07-16T07:04:51Z</time>
      </trkpt>
      <trkpt lat="48.29789" lon="-2.00012">
        <ele>58.6</ele>
        <time>2019-07-16T07:04:52Z</time>
      </trkpt>
      <trkpt lat="48.29787" lon="-2.00006">
        <ele>58.6</ele>
        <time>2019-07-16T07:04:53Z</time>
      </trkpt>
      <trkpt lat="48.29785" lon="-2.00001">
        <ele>58.4</ele>
        <time>2019-07-16T07:04:54Z</time>
      </trkpt>
      <trkpt lat="48.29783" lon="-1.99995">
        <ele>58.5</ele>
        <time>2019-07-16T07:04:55Z</time>
      </trkpt>
      <trkpt lat="48.29781" lon="-1.99989">
        <ele>58.2</ele>
        <time>2019-07-16T07:04:56Z</time>
      </trkpt>
      <trkpt lat="48.29779" lon="-1.99983">
        <ele>58.4</ele>
        <time>2019-07-16T07:04:57Z</time>
      </trkpt>
      <trkpt lat="48.29776" lon="-1.99977">
        <ele>58.2</ele>
        <time>2019-07-16T07:04:58Z</time>
      </trkpt>
      <trkpt lat="48.29774" lon="-1.99971">
        <ele>58.1</ele>
        <time>2019-07-16T07:04:59Z</time>
      </trkpt>
      <trkpt lat="48.29771" lon="-1.99965">
        <ele>57.9</ele>
        <time>2019-07-16T07:05:00Z</time>
      </trkpt>
      <trkpt lat="48.2977" lon="-1.99959">
        <ele>58.1</ele>
        <time>2019-07-16T07:05:01Z</time>
      </trkpt>
      <trkpt lat="48.29767" lon="-1.99952">
        <ele>58.1</ele>
        <time>2019-07-16T07:05:02Z</time>
      </trkpt>
      <trkpt lat="48.29765" lon="-1.99947">
        <ele>58.4</ele>
        <time>2019-07-16T07:05:03Z</time>
      </trkpt>
      <trkpt lat="48.29763" lon="-1.9994">
        <ele>58.3</ele>
        <time>2019-07-16T07:05:04Z</time>
      </trkpt>
      <trkpt lat="48.2976" lon="-1.99934">
        <ele>58.2</ele>
        <time>2019-07-16T07:05:05Z</time>
      </trkpt>
      <trkpt lat="48.29758" lon="-1.99928">
        <ele>58.2</ele>
        <time>2019-07-16T07:05:06Z</time>
      </trkpt>
      <trkpt lat="48.29755" lon="-1.99922">
        <ele>58.1</ele>
        <time>2019-07-16T07:05:07Z</time>
      </trkpt>
      <trkpt lat="48.29753" lon="-1.99916">
        <ele>58</ele>
        <time>2019-07-16T07:05:08Z</time>
      </trkpt>
      <trkpt lat="48.29751" lon="-1.9991">
        <ele>58.1</ele>
        <time>2019-07-16T07:05:09Z</time>
      </trkpt>
      <trkpt lat="48.29749" lon="-1.99904">
        <ele>58</ele>
        <time>2019-07-16T07:05:10Z</time>
      </trkpt>
      <trkpt lat="48.29747" lon="-1.99898">
        <ele>57.9</ele>
        <time>2019-07-16T07:05:11Z</time>
      </trkpt>
      <trkpt lat="48.29745" lon="-1.99892">
        <ele>57.7</ele>
        <time>2019-07-16T07:05:12Z</time>
      </trkpt>
      <trkpt lat="48.29743" lon="-1.99886">
        <ele>57.7</ele>
        <time>2019-07-16T07:05:13Z</time>
      </trkpt>
      <trkpt lat="48.29741" lon="-1.9988">
        <ele>57.7</ele>
        <time>2019-07-16T07:05:14Z</time>
      </trkpt>
      <trkpt lat="48.29739" lon="-1.99874">
        <ele>57.8</ele>
        <time>2019-07-16T07:05:15Z</time>
      </trkpt>
      <trkpt lat="48.29738" lon="-1.99868">
        <ele>57.9</ele>
        <time>2019-07-16T07:05:16Z</time>
      </trkpt>
      <trkpt lat="48.29736" lon="-1.99862">
        <ele>58.1</ele>
        <time>2019-07-16T07:05:17Z</time>
      </trkpt>
      <trkpt lat="48.29734" lon="-1.99856">
        <ele>58</ele>
        <time>2019-07-16T07:05:18Z</time>
      </trkpt>
      <trkpt lat="48.29733" lon="-1.9985">
        <ele>58.2</ele>
        <time>2019-07-16T07:05:19Z</time>
      </trkpt>
      <trkpt lat="48.29731" lon="-1.99844">
        <ele>58.2</ele>
        <time>2019-07-16T07:05:20Z</time>
      </trkpt>
      <trkpt lat="48.2973" lon="-1.99838">
        <ele>58.1</ele>
        <time>2019-07-16T07:05:21Z</time>
      </trkpt>
      <trkpt lat="48.29728" lon="-1.99832">
        <ele>58.1</ele>
        <time>2019-07-16T07:05:22Z</time>
      </trkpt>
      <trkpt lat="48.29726" lon="-1.99826">
        <ele>58.3</ele>
        <time>2019-07-16T07:05:23Z</time>
      </trkpt>
      <trkpt lat="48.29725" lon="-1.9982">
        <ele>58.4</ele>
        <time>2019-07-16T07:05:24Z</time>
      </trkpt>
      <trkpt lat="48.29723" lon="-1.99815">
        <ele>58.6</ele>
        <time>2019-07-16T07:05:25Z</time>
      </trkpt>
      <trkpt lat="48.29721" lon="-1.99809">
        <ele>59.1</ele>
        <time>2019-07-16T07:05:26Z</time>
      </trkpt>
      <trkpt lat="48.29719" lon="-1.99804">
        <ele>59.4</ele>
        <time>2019-07-16T07:05:27Z</time>
      </trkpt>
      <trkpt lat="48.29717" lon="-1.99799">
        <ele>59.7</ele>
        <time>2019-07-16T07:05:28Z</time>
      </trkpt>
      <trkpt lat="48.29715" lon="-1.99794">
        <ele>59.8</ele>
        <time>2019-07-16T07:05:29Z</time>
      </trkpt>
      <trkpt lat="48.29713" lon="-1.9979">
        <ele>59.8</ele>
        <time>2019-07-16T07:05:30Z</time>
      </trkpt>
      <trkpt lat="48.2971" lon="-1.99785">
        <ele>59.8</ele>
        <time>2019-07-16T07:05:31Z</time>
      </trkpt>
      <trkpt lat="48.29707" lon="-1.99781">
        <ele>59.7</ele>
        <time>2019-07-16T07:05:32Z</time>
      </trkpt>
      <trkpt lat="48.29705" lon="-1.99776">
        <ele>59.5</ele>
        <time>2019-07-16T07:05:33Z</time>
      </trkpt>
      <trkpt lat="48.29703" lon="-1.99771">
        <ele>59.4</ele>
        <time>2019-07-16T07:05:34Z</time>
      </trkpt>
      <trkpt lat="48.29701" lon="-1.99766">
        <ele>59.1</ele>
        <time>2019-07-16T07:05:35Z</time>
      </trkpt>
      <trkpt lat="48.29699" lon="-1.99763">
        <ele>59.3</ele>
        <time>2019-07-16T07:05:36Z</time>
      </trkpt>
      <trkpt lat="48.29697" lon="-1.99759">
        <ele>59.3</ele>
        <time>2019-07-16T07:05:37Z</time>
      </trkpt>
      <trkpt lat="48.29695" lon="-1.99756">
        <ele>60</ele>
        <time>2019-07-16T07:05:38Z</time>
      </trkpt>
      <trkpt lat="48.29693" lon="-1.99753">
        <ele>60.4</ele>
        <time>2019-07-16T07:05:39Z</time>
      </trkpt>
      <trkpt lat="48.29689" lon="-1.9975">
        <ele>60.6</ele>
        <time>2019-07-16T07:05:40Z</time>
      </trkpt>
      <trkpt lat="48.29686" lon="-1.99747">
        <ele>61.2</ele>
        <time>2019-07-16T07:05:41Z</time>
      </trkpt>
      <trkpt lat="48.29683" lon="-1.99744">
        <ele>61.5</ele>
        <time>2019-07-16T07:05:42Z</time>
      </trkpt>
      <trkpt lat="48.2968" lon="-1.99741">
        <ele>61.3</ele>
        <time>2019-07-16T07:05:43Z</time>
      </trkpt>
      <trkpt lat="48.29677" lon="-1.99738">
        <ele>61.7</ele>
        <time>2019-07-16T07:05:44Z</time>
      </trkpt>
      <trkpt lat="48.29674" lon="-1.99735">
        <ele>61.7</ele>
        <time>2019-07-16T07:05:45Z</time>
      </trkpt>
      <trkpt lat="48.2967" lon="-1.99733">
        <ele>61.9</ele>
        <time>2019-07-16T07:05:46Z</time>
      </trkpt>
      <trkpt lat="48.29667" lon="-1.9973">
        <ele>62</ele>
        <time>2019-07-16T07:05:47Z</time>
      </trkpt>
      <trkpt lat="48.29664" lon="-1.99727">
        <ele>61.9</ele>
        <time>2019-07-16T07:05:48Z</time>
      </trkpt>
      <trkpt lat="48.29661" lon="-1.99724">
        <ele>61.5</ele>
        <time>2019-07-16T07:05:49Z</time>
      </trkpt>
      <trkpt lat="48.29658" lon="-1.99721">
        <ele>61</ele>
        <time>2019-07-16T07:05:50Z</time>
      </trkpt>
      <trkpt lat="48.29655" lon="-1.99718">
        <ele>60.5</ele>
        <time>2019-07-16T07:05:51Z</time>
      </trkpt>
      <trkpt lat="48.29652" lon="-1.99715">
        <ele>59.7</ele>
        <time>2019-07-16T07:05:52Z</time>
      </trkpt>
      <trkpt lat="48.29649" lon="-1.99712">
        <ele>59</ele>
        <time>2019-07-16T07:05:53Z</time>
      </trkpt>
      <trkpt lat="48.29647" lon="-1.99709">
        <ele>58.4</ele>
        <time>2019-07-16T07:05:54Z</time>
      </trkpt>
      <trkpt lat="48.29644" lon="-1.99706">
        <ele>57.9</ele>
        <time>2019-07-16T07:05:55Z</time>
      </trkpt>
      <trkpt lat="48.29641" lon="-1.99703">
        <ele>57</ele>
        <time>2019-07-16T07:05:56Z</time>
      </trkpt>
      <trkpt lat="48.29638" lon="-1.99701">
        <ele>56.2</ele>
        <time>2019-07-16T07:05:57Z</time>
      </trkpt>
      <trkpt lat="48.29635" lon="-1.99698">
        <ele>55.6</ele>
        <time>2019-07-16T07:05:58Z</time>
      </trkpt>
      <trkpt lat="48.29632" lon="-1.99695">
        <ele>55.4</ele>
        <time>2019-07-16T07:05:59Z</time>
      </trkpt>
      <trkpt lat="48.2963" lon="-1.99693">
        <ele>55.8</ele>
        <time>2019-07-16T07:06:00Z</time>
      </trkpt>
      <trkpt lat="48.29627" lon="-1.9969">
        <ele>56.3</ele>
        <time>2019-07-16T07:06:01Z</time>
      </trkpt>
      <trkpt lat="48.29624" lon="-1.99688">
        <ele>56.9</ele>
        <time>2019-07-16T07:06:02Z</time>
      </trkpt>
      <trkpt lat="48.29621" lon="-1.99685">
        <ele>57</ele>
        <time>2019-07-16T07:06:03Z</time>
      </trkpt>
      <trkpt lat="48.29619" lon="-1.99683">
        <ele>57.1</ele>
        <time>2019-07-16T07:06:04Z</time>
      </trkpt>
      <trkpt lat="48.29616" lon="-1.99681">
        <ele>57.8</ele>
        <time>2019-07-16T07:06:05Z</time>
      </trkpt>
      <trkpt lat="48.29614" lon="-1.99679">
        <ele>58</ele>
        <time>2019-07-16T07:06:06Z</time>
      </trkpt>
      <trkpt lat="48.29611" lon="-1.99676">
        <ele>58.2</ele>
        <time>2019-07-16T07:06:07Z</time>
      </trkpt>
      <trkpt lat="48.29609" lon="-1.99674">
        <ele>58.7</ele>
        <time>2019-07-16T07:06:08Z</time>
      </trkpt>
      <trkpt lat="48.29606" lon="-1.99672">
        <ele>59.1</ele>
        <time>2019-07-16T07:06:09Z</time>
      </trkpt>
      <trkpt lat="48.29603" lon="-1.9967">
        <ele>59</ele>
        <time>2019-07-16T07:06:10Z</time>
      </trkpt>
      <trkpt lat="48.296" lon="-1.99668">
        <ele>59.5</ele>
        <time>2019-07-16T07:06:11Z</time>
      </trkpt>
      <trkpt lat="48.29598" lon="-1.99667">
        <ele>60.6</ele>
        <time>2019-07-16T07:06:12Z</time>
      </trkpt>
      <trkpt lat="48.29594" lon="-1.99665">
        <ele>61.5</ele>
        <time>2019-07-16T07:06:13Z</time>
      </trkpt>
      <trkpt lat="48.29592" lon="-1.99664">
        <ele>62.2</ele>
        <time>2019-07-16T07:06:14Z</time>
      </trkpt>
      <trkpt lat="48.2959" lon="-1.99662">
        <ele>63</ele>
        <time>2019-07-16T07:06:15Z</time>
      </trkpt>
      <trkpt lat="48.29587" lon="-1.9966">
        <ele>63.8</ele>
        <time>2019-07-16T07:06:16Z</time>
      </trkpt>
      <trkpt lat="48.29585" lon="-1.99659">
        <ele>64</ele>
        <time>2019-07-16T07:06:17Z</time>
      </trkpt>
      <trkpt lat="48.29583" lon="-1.99658">
        <ele>64.8</ele>
        <time>2019-07-16T07:06:18Z</time>
      </trkpt>
      <trkpt lat="48.29581" lon="-1.99656">
        <ele>65.2</ele>
        <time>2019-07-16T07:06:19Z</time>
      </trkpt>
      <trkpt lat="48.29579" lon="-1.99654">
        <ele>66.2</ele>
        <time>2019-07-16T07:06:20Z</time>
      </trkpt>
      <trkpt lat="48.29577" lon="-1.99653">
        <ele>67.1</ele>
        <time>2019-07-16T07:06:21Z</time>
      </trkpt>
      <trkpt lat="48.29575" lon="-1.99651">
        <ele>67.5</ele>
        <time>2019-07-16T07:06:22Z</time>
      </trkpt>
      <trkpt lat="48.29572" lon="-1.9965">
        <ele>67.5</ele>
        <time>2019-07-16T07:06:23Z</time>
      </trkpt>
      <trkpt lat="48.2957" lon="-1.99648">
        <ele>67.1</ele>
        <time>2019-07-16T07:06:24Z</time>
      </trkpt>
      <trkpt lat="48.29568" lon="-1.99646">
        <ele>67.1</ele>
        <time>2019-07-16T07:06:25Z</time>
      </trkpt>
      <trkpt lat="48.29566" lon="-1.99645">
        <ele>67.6</ele>
        <time>2019-07-16T07:06:26Z</time>
      </trkpt>
      <trkpt lat="48.29564" lon="-1.99643">
        <ele>67.6</ele>
        <time>2019-07-16T07:06:27Z</time>
      </trkpt>
      <trkpt lat="48.29562" lon="-1.99642">
        <ele>67.9</ele>
        <time>2019-07-16T07:06:28Z</time>
      </trkpt>
      <trkpt lat="48.29561" lon="-1.99641">
        <ele>68.2</ele>
        <time>2019-07-16T07:06:29Z</time>
      </trkpt>
      <trkpt lat="48.29559" lon="-1.9964">
        <ele>69.2</ele>
        <time>2019-07-16T07:06:30Z</time>
      </trkpt>
      <trkpt lat="48.29557" lon="-1.99639">
        <ele>69.6</ele>
        <time>2019-07-16T07:06:31Z</time>
      </trkpt>
      <trkpt lat="48.29554" lon="-1.99637">
        <ele>69.6</ele>
        <time>2019-07-16T07:06:32Z</time>
      </trkpt>
      <trkpt lat="48.29552" lon="-1.99636">
        <ele>70</ele>
        <time>2019-07-16T07:06:33Z</time>
      </trkpt>
      <trkpt lat="48.29549" lon="-1.99635">
        <ele>70.3</ele>
        <time>2019-07-16T07:06:34Z</time>
      </trkpt>
      <trkpt lat="48.29548" lon="-1.99633">
        <ele>70</ele>
        <time>2019-07-16T07:06:35Z</time>
      </trkpt>
      <trkpt lat="48.29545" lon="-1.99632">
        <ele>70.6</ele>
        <time>2019-07-16T07:06:36Z</time>
      </trkpt>
      <trkpt lat="48.29543" lon="-1.99631">
        <ele>71</ele>
        <time>2019-07-16T07:06:37Z</time>
      </trkpt>
      <trkpt lat="48.29542" lon="-1.99631">
        <ele>72.2</ele>
        <time>2019-07-16T07:06:38Z</time>
      </trkpt>
      <trkpt lat="48.2954" lon="-1.99629">
        <ele>73</ele>
        <time>2019-07-16T07:06:39Z</time>
      </trkpt>
      <trkpt lat="48.29539" lon="-1.99628">
        <ele>74</ele>
        <time>2019-07-16T07:06:40Z</time>
      </trkpt>
      <trkpt lat="48.29537" lon="-1.99627">
        <ele>74.5</ele>
        <time>2019-07-16T07:06:41Z</time>
      </trkpt>
      <trkpt lat="48.29536" lon="-1.99625">
        <ele>74.4</ele>
        <time>2019-07-16T07:06:42Z</time>
      </trkpt>
      <trkpt lat="48.29534" lon="-1.99623">
        <ele>74.3</ele>
        <time>2019-07-16T07:06:43Z</time>
      </trkpt>
      <trkpt lat="48.29532" lon="-1.99621">
        <ele>73.8</ele>
        <time>2019-07-16T07:06:44Z</time>
      </trkpt>
      <trkpt lat="48.2953" lon="-1.99619">
        <ele>73.6</ele>
        <time>2019-07-16T07:06:45Z</time>
      </trkpt>
      <trkpt lat="48.29528" lon="-1.99617">
        <ele>73.4</ele>
        <time>2019-07-16T07:06:46Z</time>
      </trkpt>
      <trkpt lat="48.29526" lon="-1.99615">
        <ele>73.2</ele>
        <time>2019-07-16T07:06:47Z</time>
      </trkpt>
      <trkpt lat="48.29524" lon="-1.99613">
        <ele>72.6</ele>
        <time>2019-07-16T07:06:48Z</time>
      </trkpt>
      <trkpt lat="48.29521" lon="-1.99612">
        <ele>72.4</ele>
        <time>2019-07-16T07:06:49Z</time>
      </trkpt>
      <trkpt lat="48.29519" lon="-1.9961">
        <ele>72.2</ele>
        <time>2019-07-16T07:06:50Z</time>
      </trkpt>
      <trkpt lat="48.29517" lon="-1.99608">
        <ele>72</ele>
        <time>2019-07-16T07:06:51Z</time>
      </trkpt>
      <trkpt lat="48.29516" lon="-1.99607">
        <ele>72</ele>
        <time>2019-07-16T07:06:52Z</time>
      </trkpt>
      <trkpt lat="48.29514" lon="-1.99605">
        <ele>72.4</ele>
        <time>2019-07-16T07:06:53Z</time>
      </trkpt>
      <trkpt lat="48.29512" lon="-1.99604">
        <ele>72.7</ele>
        <time>2019-07-16T07:06:54Z</time>
      </trkpt>
      <trkpt lat="48.29509" lon="-1.99602">
        <ele>73</ele>
        <time>2019-07-16T07:06:55Z</time>
      </trkpt>
      <trkpt lat="48.29507" lon="-1.99601">
        <ele>73.1</ele>
        <time>2019-07-16T07:06:56Z</time>
      </trkpt>
      <trkpt lat="48.29505" lon="-1.996">
        <ele>73.5</ele>
        <time>2019-07-16T07:06:57Z</time>
      </trkpt>
      <trkpt lat="48.29503" lon="-1.99599">
        <ele>74</ele>
        <time>2019-07-16T07:06:58Z</time>
      </trkpt>
      <trkpt lat="48.295" lon="-1.99598">
        <ele>74.5</ele>
        <time>2019-07-16T07:06:59Z</time>
      </trkpt>
      <trkpt lat="48.29498" lon="-1.99597">
        <ele>74.5</ele>
        <time>2019-07-16T07:07:00Z</time>
      </trkpt>
      <trkpt lat="48.29496" lon="-1.99595">
        <ele>74.9</ele>
        <time>2019-07-16T07:07:01Z</time>
      </trkpt>
      <trkpt lat="48.29495" lon="-1.99594">
        <ele>74.9</ele>
        <time>2019-07-16T07:07:02Z</time>
      </trkpt>
      <trkpt lat="48.29493" lon="-1.99593">
        <ele>75.5</ele>
        <time>2019-07-16T07:07:03Z</time>
      </trkpt>
      <trkpt lat="48.29491" lon="-1.99591">
        <ele>76</ele>
        <time>2019-07-16T07:07:04Z</time>
      </trkpt>
      <trkpt lat="48.29489" lon="-1.99591">
        <ele>76.8</ele>
        <time>2019-07-16T07:07:05Z</time>
      </trkpt>
      <trkpt lat="48.29487" lon="-1.99589">
        <ele>77.3</ele>
        <time>2019-07-16T07:07:06Z</time>
      </trkpt>
      <trkpt lat="48.29485" lon="-1.99588">
        <ele>77.4</ele>
        <time>2019-07-16T07:07:07Z</time>
      </trkpt>
      <trkpt lat="48.29483" lon="-1.99587">
        <ele>77.6</ele>
        <time>2019-07-16T07:07:08Z</time>
      </trkpt>
      <trkpt lat="48.2948" lon="-1.99586">
        <ele>78.1</ele>
        <time>2019-07-16T07:07:09Z</time>
      </trkpt>
      <trkpt lat="48.29478" lon="-1.99585">
        <ele>78.1</ele>
        <time>2019-07-16T07:07:10Z</time>
      </trkpt>
      <trkpt lat="48.29476" lon="-1.99585">
        <ele>78.7</ele>
        <time>2019-07-16T07:07:11Z</time>
      </trkpt>
      <trkpt lat="48.29474" lon="-1.99584">
        <ele>79.5</ele>
        <time>2019-07-16T07:07:12Z</time>
      </trkpt>
      <trkpt lat="48.29471" lon="-1.99583">
        <ele>80.3</ele>
        <time>2019-07-16T07:07:13Z</time>
      </trkpt>
      <trkpt lat="48.29468" lon="-1.99581">
        <ele>80.7</ele>
        <time>2019-07-16T07:07:14Z</time>
      </trkpt>
      <trkpt lat="48.29466" lon="-1.9958">
        <ele>81.5</ele>
        <time>2019-07-16T07:07:15Z</time>
      </trkpt>
      <trkpt lat="48.29464" lon="-1.99579">
        <ele>81.9</ele>
        <time>2019-07-16T07:07:16Z</time>
      </trkpt>
      <trkpt lat="48.29461" lon="-1.99578">
        <ele>81.5</ele>
        <time>2019-07-16T07:07:17Z</time>
      </trkpt>
      <trkpt lat="48.29459" lon="-1.99577">
        <ele>81.7</ele>
        <time>2019-07-16T07:07:18Z</time>
      </trkpt>
      <trkpt lat="48.29457" lon="-1.99575">
        <ele>82.1</ele>
        <time>2019-07-16T07:07:19Z</time>
      </trkpt>
      <trkpt lat="48.29454" lon="-1.99575">
        <ele>82.4</ele>
        <time>2019-07-16T07:07:20Z</time>
      </trkpt>
      <trkpt lat="48.29452" lon="-1.99574">
        <ele>83</ele>
        <time>2019-07-16T07:07:21Z</time>
      </trkpt>
      <trkpt lat="48.2945" lon="-1.99573">
        <ele>83.6</ele>
        <time>2019-07-16T07:07:22Z</time>
      </trkpt>
      <trkpt lat="48.29448" lon="-1.99572">
        <ele>83.7</ele>
        <time>2019-07-16T07:07:23Z</time>
      </trkpt>
      <trkpt lat="48.29446" lon="-1.99572">
        <ele>83.9</ele>
        <time>2019-07-16T07:07:24Z</time>
      </trkpt>
      <trkpt lat="48.29443" lon="-1.99571">
        <ele>84.2</ele>
        <time>2019-07-16T07:07:25Z</time>
      </trkpt>
      <trkpt lat="48.29441" lon="-1.99571">
        <ele>84.1</ele>
        <time>2019-07-16T07:07:26Z</time>
      </trkpt>
      <trkpt lat="48.29439" lon="-1.9957">
        <ele>84.6</ele>
        <time>2019-07-16T07:07:27Z</time>
      </trkpt>
      <trkpt lat="48.29437" lon="-1.99569">
        <ele>85.3</ele>
        <time>2019-07-16T07:07:28Z</time>
      </trkpt>
      <trkpt lat="48.29435" lon="-1.99568">
        <ele>85.5</ele>
        <time>2019-07-16T07:07:29Z</time>
      </trkpt>
      <trkpt lat="48.29432" lon="-1.99567">
        <ele>84.9</ele>
        <time>2019-07-16T07:07:30Z</time>
      </trkpt>
      <trkpt lat="48.2943" lon="-1.99565">
        <ele>83.9</ele>
        <time>2019-07-16T07:07:31Z</time>
      </trkpt>
      <trkpt lat="48.29427" lon="-1.99564">
        <ele>83.5</ele>
        <time>2019-07-16T07:07:32Z</time>
      </trkpt>
      <trkpt lat="48.29425" lon="-1.99563">
        <ele>83.4</ele>
        <time>2019-07-16T07:07:33Z</time>
      </trkpt>
      <trkpt lat="48.29423" lon="-1.99562">
        <ele>83.1</ele>
        <time>2019-07-16T07:07:34Z</time>
      </trkpt>
      <trkpt lat="48.29421" lon="-1.99561">
        <ele>83.3</ele>
        <time>2019-07-16T07:07:35Z</time>
      </trkpt>
      <trkpt lat="48.29419" lon="-1.99561">
        <ele>84.2</ele>
        <time>2019-07-16T07:07:36Z</time>
      </trkpt>
      <trkpt lat="48.29417" lon="-1.99561">
        <ele>84.7</ele>
        <time>2019-07-16T07:07:37Z</time>
      </trkpt>
      <trkpt lat="48.29414" lon="-1.99561">
        <ele>85.1</ele>
        <time>2019-07-16T07:07:38Z</time>
      </trkpt>
      <trkpt lat="48.29411" lon="-1.9956">
        <ele>85.4</ele>
        <time>2019-07-16T07:07:39Z</time>
      </trkpt>
      <trkpt lat="48.29409" lon="-1.99561">
        <ele>86.5</ele>
        <time>2019-07-16T07:07:40Z</time>
      </trkpt>
      <trkpt lat="48.29407" lon="-1.9956">
        <ele>86.5</ele>
        <time>2019-07-16T07:07:41Z</time>
      </trkpt>
      <trkpt lat="48.29404" lon="-1.99559">
        <ele>85.7</ele>
        <time>2019-07-16T07:07:42Z</time>
      </trkpt>
      <trkpt lat="48.29402" lon="-1.99558">
        <ele>84.8</ele>
        <time>2019-07-16T07:07:43Z</time>
      </trkpt>
      <trkpt lat="48.294" lon="-1.99557">
        <ele>84.1</ele>
        <time>2019-07-16T07:07:44Z</time>
      </trkpt>
      <trkpt lat="48.29397" lon="-1.99555">
        <ele>83.7</ele>
        <time>2019-07-16T07:07:45Z</time>
      </trkpt>
      <trkpt lat="48.29394" lon="-1.99554">
        <ele>83.1</ele>
        <time>2019-07-16T07:07:46Z</time>
      </trkpt>
      <trkpt lat="48.29392" lon="-1.99553">
        <ele>83.3</ele>
        <time>2019-07-16T07:07:47Z</time>
      </trkpt>
      <trkpt lat="48.2939" lon="-1.99553">
        <ele>83.4</ele>
        <time>2019-07-16T07:07:48Z</time>
      </trkpt>
      <trkpt lat="48.29387" lon="-1.99552">
        <ele>83.3</ele>
        <time>2019-07-16T07:07:49Z</time>
      </trkpt>
      <trkpt lat="48.29385" lon="-1.99551">
        <ele>83.7</ele>
        <time>2019-07-16T07:07:50Z</time>
      </trkpt>
      <trkpt lat="48.29382" lon="-1.9955">
        <ele>83.3</ele>
        <time>2019-07-16T07:07:51Z</time>
      </trkpt>
      <trkpt lat="48.2938" lon="-1.9955">
        <ele>83.5</ele>
        <time>2019-07-16T07:07:52Z</time>
      </trkpt>
      <trkpt lat="48.29377" lon="-1.99549">
        <ele>83</ele>
        <time>2019-07-16T07:07:53Z</time>
      </trkpt>
      <trkpt lat="48.29375" lon="-1.99548">
        <ele>83</ele>
        <time>2019-07-16T07:07:54Z</time>
      </trkpt>
      <trkpt lat="48.29372" lon="-1.99547">
        <ele>83</ele>
        <time>2019-07-16T07:07:55Z</time>
      </trkpt>
      <trkpt lat="48.29369" lon="-1.99546">
        <ele>82.6</ele>
        <time>2019-07-16T07:07:56Z</time>
      </trkpt>
      <trkpt lat="48.29367" lon="-1.99546">
        <ele>82.8</ele>
        <time>2019-07-16T07:07:57Z</time>
      </trkpt>
      <trkpt lat="48.29365" lon="-1.99544">
        <ele>82.8</ele>
        <time>2019-07-16T07:07:58Z</time>
      </trkpt>
      <trkpt lat="48.29362" lon="-1.99543">
        <ele>82.5</ele>
        <time>2019-07-16T07:07:59Z</time>
      </trkpt>
      <trkpt lat="48.2936" lon="-1.99541">
        <ele>82.4</ele>
        <time>2019-07-16T07:08:00Z</time>
      </trkpt>
      <trkpt lat="48.29357" lon="-1.9954">
        <ele>82.7</ele>
        <time>2019-07-16T07:08:01Z</time>
      </trkpt>
      <trkpt lat="48.29355" lon="-1.99539">
        <ele>82.6</ele>
        <time>2019-07-16T07:08:02Z</time>
      </trkpt>
      <trkpt lat="48.29352" lon="-1.99537">
        <ele>82.6</ele>
        <time>2019-07-16T07:08:03Z</time>
      </trkpt>
      <trkpt lat="48.2935" lon="-1.99536">
        <ele>82.8</ele>
        <time>2019-07-16T07:08:04Z</time>
      </trkpt>
      <trkpt lat="48.29348" lon="-1.99534">
        <ele>82.8</ele>
        <time>2019-07-16T07:08:05Z</time>
      </trkpt>
      <trkpt lat="48.29346" lon="-1.99533">
        <ele>83.1</ele>
        <time>2019-07-16T07:08:06Z</time>
      </trkpt>
      <trkpt lat="48.29343" lon="-1.99532">
        <ele>83.6</ele>
        <time>2019-07-16T07:08:07Z</time>
      </trkpt>
      <trkpt lat="48.29342" lon="-1.9953">
        <ele>84.3</ele>
        <time>2019-07-16T07:08:08Z</time>
      </trkpt>
      <trkpt lat="48.29339" lon="-1.99529">
        <ele>84.1</ele>
        <time>2019-07-16T07:08:09Z</time>
      </trkpt>
      <trkpt lat="48.29337" lon="-1.99528">
        <ele>84.1</ele>
        <time>2019-07-16T07:08:10Z</time>
      </trkpt>
      <trkpt lat="48.29335" lon="-1.99526">
        <ele>84.2</ele>
        <time>2019-07-16T07:08:11Z</time>
      </trkpt>
      <trkpt lat="48.29332" lon="-1.99524">
        <ele>84.5</ele>
        <time>2019-07-16T07:08:12Z</time>
      </trkpt>
      <trkpt lat="48.2933" lon="-1.99522">
        <ele>84.6</ele>
        <time>2019-07-16T07:08:13Z</time>
      </trkpt>
      <trkpt lat="48.29328" lon="-1.9952">
        <ele>84.5</ele>
        <time>2019-07-16T07:08:14Z</time>
      </trkpt>
      <trkpt lat="48.29326" lon="-1.99518">
        <ele>84.6</ele>
        <time>2019-07-16T07:08:15Z</time>
      </trkpt>
      <trkpt lat="48.29324" lon="-1.99516">
        <ele>84.6</ele>
        <time>2019-07-16T07:08:16Z</time>
      </trkpt>
      <trkpt lat="48.29322" lon="-1.99515">
        <ele>84.4</ele>
        <time>2019-07-16T07:08:17Z</time>
      </trkpt>
      <trkpt lat="48.29319" lon="-1.99513">
        <ele>84</ele>
        <time>2019-07-16T07:08:18Z</time>
      </trkpt>
      <trkpt lat="48.29317" lon="-1.99511">
        <ele>83.7</ele>
        <time>2019-07-16T07:08:19Z</time>
      </trkpt>
      <trkpt lat="48.29315" lon="-1.99509">
        <ele>83.5</ele>
        <time>2019-07-16T07:08:20Z</time>
      </trkpt>
      <trkpt lat="48.29313" lon="-1.99507">
        <ele>83.4</ele>
        <time>2019-07-16T07:08:21Z</time>
      </trkpt>
      <trkpt lat="48.29311" lon="-1.99505">
        <ele>84</ele>
        <time>2019-07-16T07:08:22Z</time>
      </trkpt>
      <trkpt lat="48.29309" lon="-1.99503">
        <ele>83.6</ele>
        <time>2019-07-16T07:08:23Z</time>
      </trkpt>
      <trkpt lat="48.29307" lon="-1.99501">
        <ele>83.1</ele>
        <time>2019-07-16T07:08:24Z</time>
      </trkpt>
      <trkpt lat="48.29305" lon="-1.99499">
        <ele>82.8</ele>
        <time>2019-07-16T07:08:25Z</time>
      </trkpt>
      <trkpt lat="48.29303" lon="-1.99497">
        <ele>82.8</ele>
        <time>2019-07-16T07:08:26Z</time>
      </trkpt>
      <trkpt lat="48.293" lon="-1.99495">
        <ele>82.9</ele>
        <time>2019-07-16T07:08:27Z</time>
      </trkpt>
      <trkpt lat="48.29298" lon="-1.99492">
        <ele>83.4</ele>
        <time>2019-07-16T07:08:28Z</time>
      </trkpt>
      <trkpt lat="48.29295" lon="-1.9949">
        <ele>83.8</ele>
        <time>2019-07-16T07:08:29Z</time>
      </trkpt>
      <trkpt lat="48.29293" lon="-1.99488">
        <ele>83.7</ele>
        <time>2019-07-16T07:08:30Z</time>
      </trkpt>
      <trkpt lat="48.2929" lon="-1.99486">
        <ele>83.8</ele>
        <time>2019-07-16T07:08:31Z</time>
      </trkpt>
      <trkpt lat="48.29288" lon="-1.99484">
        <ele>84.1</ele>
        <time>2019-07-16T07:08:32Z</time>
      </trkpt>
      <trkpt lat="48.29285" lon="-1.99482">
        <ele>84.2</ele>
        <time>2019-07-16T07:08:33Z</time>
      </trkpt>
      <trkpt lat="48.29283" lon="-1.9948">
        <ele>84</ele>
        <time>2019-07-16T07:08:34Z</time>
      </trkpt>
      <trkpt lat="48.29281" lon="-1.99478">
        <ele>84.1</ele>
        <time>2019-07-16T07:08:35Z</time>
      </trkpt>
      <trkpt lat="48.29278" lon="-1.99476">
        <ele>84.2</ele>
        <time>2019-07-16T07:08:36Z</time>
      </trkpt>
      <trkpt lat="48.29276" lon="-1.99474">
        <ele>83.7</ele>
        <time>2019-07-16T07:08:37Z</time>
      </trkpt>
      <trkpt lat="48.29274" lon="-1.99472">
        <ele>83.7</ele>
        <time>2019-07-16T07:08:38Z</time>
      </trkpt>
      <trkpt lat="48.29272" lon="-1.9947">
        <ele>83.6</ele>
        <time>2019-07-16T07:08:39Z</time>
      </trkpt>
      <trkpt lat="48.29269" lon="-1.99468">
        <ele>83.3</ele>
        <time>2019-07-16T07:08:40Z</time>
      </trkpt>
      <trkpt lat="48.29267" lon="-1.99466">
        <ele>83.3</ele>
        <time>2019-07-16T07:08:41Z</time>
      </trkpt>
      <trkpt lat="48.29265" lon="-1.99464">
        <ele>82.8</ele>
        <time>2019-07-16T07:08:42Z</time>
      </trkpt>
      <trkpt lat="48.29262" lon="-1.99462">
        <ele>82.4</ele>
        <time>2019-07-16T07:08:43Z</time>
      </trkpt>
      <trkpt lat="48.29259" lon="-1.9946">
        <ele>82.4</ele>
        <time>2019-07-16T07:08:44Z</time>
      </trkpt>
      <trkpt lat="48.29256" lon="-1.99458">
        <ele>82.5</ele>
        <time>2019-07-16T07:08:45Z</time>
      </trkpt>
      <trkpt lat="48.29254" lon="-1.99455">
        <ele>82.4</ele>
        <time>2019-07-16T07:08:46Z</time>
      </trkpt>
      <trkpt lat="48.29251" lon="-1.99453">
        <ele>81.9</ele>
        <time>2019-07-16T07:08:47Z</time>
      </trkpt>
      <trkpt lat="48.29248" lon="-1.9945">
        <ele>82.3</ele>
        <time>2019-07-16T07:08:48Z</time>
      </trkpt>
      <trkpt lat="48.29245" lon="-1.99448">
        <ele>82.7</ele>
        <time>2019-07-16T07:08:49Z</time>
      </trkpt>
      <trkpt lat="48.29242" lon="-1.99446">
        <ele>82.7</ele>
        <time>2019-07-16T07:08:50Z</time>
      </trkpt>
      <trkpt lat="48.2924" lon="-1.99444">
        <ele>82.8</ele>
        <time>2019-07-16T07:08:51Z</time>
      </trkpt>
      <trkpt lat="48.29237" lon="-1.99442">
        <ele>83.5</ele>
        <time>2019-07-16T07:08:52Z</time>
      </trkpt>
      <trkpt lat="48.29235" lon="-1.9944">
        <ele>83.5</ele>
        <time>2019-07-16T07:08:53Z</time>
      </trkpt>
      <trkpt lat="48.29232" lon="-1.99438">
        <ele>83</ele>
        <time>2019-07-16T07:08:54Z</time>
      </trkpt>
      <trkpt lat="48.2923" lon="-1.99436">
        <ele>83.2</ele>
        <time>2019-07-16T07:08:55Z</time>
      </trkpt>
      <trkpt lat="48.29227" lon="-1.99433">
        <ele>83.1</ele>
        <time>2019-07-16T07:08:56Z</time>
      </trkpt>
      <trkpt lat="48.29224" lon="-1.9943">
        <ele>83.5</ele>
        <time>2019-07-16T07:08:57Z</time>
      </trkpt>
      <trkpt lat="48.29221" lon="-1.99428">
        <ele>84.4</ele>
        <time>2019-07-16T07:08:58Z</time>
      </trkpt>
      <trkpt lat="48.29219" lon="-1.99426">
        <ele>85.2</ele>
        <time>2019-07-16T07:08:59Z</time>
      </trkpt>
      <trkpt lat="48.29216" lon="-1.99425">
        <ele>85.4</ele>
        <time>2019-07-16T07:09:00Z</time>
      </trkpt>
      <trkpt lat="48.29213" lon="-1.99423">
        <ele>85.5</ele>
        <time>2019-07-16T07:09:01Z</time>
      </trkpt>
      <trkpt lat="48.2921" lon="-1.99421">
        <ele>85.9</ele>
        <time>2019-07-16T07:09:02Z</time>
      </trkpt>
      <trkpt lat="48.29207" lon="-1.99418">
        <ele>86.4</ele>
        <time>2019-07-16T07:09:03Z</time>
      </trkpt>
      <trkpt lat="48.29205" lon="-1.99417">
        <ele>87.5</ele>
        <time>2019-07-16T07:09:04Z</time>
      </trkpt>
      <trkpt lat="48.29202" lon="-1.99415">
        <ele>88.3</ele>
        <time>2019-07-16T07:09:05Z</time>
      </trkpt>
      <trkpt lat="48.29199" lon="-1.99413">
        <ele>87.6</ele>
        <time>2019-07-16T07:09:06Z</time>
      </trkpt>
      <trkpt lat="48.29195" lon="-1.9941">
        <ele>87.7</ele>
        <time>2019-07-16T07:09:07Z</time>
      </trkpt>
      <trkpt lat="48.29192" lon="-1.99407">
        <ele>87.5</ele>
        <time>2019-07-16T07:09:08Z</time>
      </trkpt>
      <trkpt lat="48.2919" lon="-1.99404">
        <ele>87.2</ele>
        <time>2019-07-16T07:09:09Z</time>
      </trkpt>
      <trkpt lat="48.29187" lon="-1.99402">
        <ele>86.6</ele>
        <time>2019-07-16T07:09:10Z</time>
      </trkpt>
      <trkpt lat="48.29184" lon="-1.99399">
        <ele>86.8</ele>
        <time>2019-07-16T07:09:11Z</time>
      </trkpt>
      <trkpt lat="48.29181" lon="-1.99397">
        <ele>87.1</ele>
        <time>2019-07-16T07:09:12Z</time>
      </trkpt>
      <trkpt lat="48.29179" lon="-1.99395">
        <ele>87.7</ele>
        <time>2019-07-16T07:09:13Z</time>
      </trkpt>
      <trkpt lat="48.29176" lon="-1.99392">
        <ele>87.9</ele>
        <time>2019-07-16T07:09:14Z</time>
      </trkpt>
      <trkpt lat="48.29173" lon="-1.99389">
        <ele>87.5</ele>
        <time>2019-07-16T07:09:15Z</time>
      </trkpt>
      <trkpt lat="48.29171" lon="-1.99386">
        <ele>87.4</ele>
        <time>2019-07-16T07:09:16Z</time>
      </trkpt>
      <trkpt lat="48.29168" lon="-1.99383">
        <ele>86.6</ele>
        <time>2019-07-16T07:09:17Z</time>
      </trkpt>
      <trkpt lat="48.29165" lon="-1.9938">
        <ele>86.5</ele>
        <time>2019-07-16T07:09:18Z</time>
      </trkpt>
      <trkpt lat="48.29162" lon="-1.99378">
        <ele>87.3</ele>
        <time>2019-07-16T07:09:19Z</time>
      </trkpt>
      <trkpt lat="48.29159" lon="-1.99376">
        <ele>88</ele>
        <time>2019-07-16T07:09:20Z</time>
      </trkpt>
      <trkpt lat="48.29156" lon="-1.99374">
        <ele>88.6</ele>
        <time>2019-07-16T07:09:21Z</time>
      </trkpt>
      <trkpt lat="48.29153" lon="-1.99372">
        <ele>88.9</ele>
        <time>2019-07-16T07:09:22Z</time>
      </trkpt>
      <trkpt lat="48.2915" lon="-1.9937">
        <ele>90.1</ele>
        <time>2019-07-16T07:09:23Z</time>
      </trkpt>
      <trkpt lat="48.29147" lon="-1.99368">
        <ele>90.7</ele>
        <time>2019-07-16T07:09:24Z</time>
      </trkpt>
      <trkpt lat="48.29144" lon="-1.99365">
        <ele>91.1</ele>
        <time>2019-07-16T07:09:25Z</time>
      </trkpt>
      <trkpt lat="48.29141" lon="-1.99363">
        <ele>91.7</ele>
        <time>2019-07-16T07:09:26Z</time>
      </trkpt>
      <trkpt lat="48.29137" lon="-1.9936">
        <ele>91.8</ele>
        <time>2019-07-16T07:09:27Z</time>
      </trkpt>
      <trkpt lat="48.29134" lon="-1.99357">
        <ele>91.7</ele>
        <time>2019-07-16T07:09:28Z</time>
      </trkpt>
      <trkpt lat="48.29131" lon="-1.99354">
        <ele>90.9</ele>
        <time>2019-07-16T07:09:29Z</time>
      </trkpt>
      <trkpt lat="48.29128" lon="-1.99351">
        <ele>90.5</ele>
        <time>2019-07-16T07:09:30Z</time>
      </trkpt>
      <trkpt lat="48.29125" lon="-1.99349">
        <ele>90.4</ele>
        <time>2019-07-16T07:09:31Z</time>
      </trkpt>
      <trkpt lat="48.29122" lon="-1.99346">
        <ele>90.3</ele>
        <time>2019-07-16T07:09:32Z</time>
      </trkpt>
      <trkpt lat="48.29119" lon="-1.99344">
        <ele>90.4</ele>
        <time>2019-07-16T07:09:33Z</time>
      </trkpt>
      <trkpt lat="48.29116" lon="-1.99341">
        <ele>90.3</ele>
        <time>2019-07-16T07:09:34Z</time>
      </trkpt>
      <trkpt lat="48.29113" lon="-1.99339">
        <ele>90.3</ele>
        <time>2019-07-16T07:09:35Z</time>
      </trkpt>
      <trkpt lat="48.29111" lon="-1.99337">
        <ele>90.5</ele>
        <time>2019-07-16T07:09:36Z</time>
      </trkpt>
      <trkpt lat="48.29108" lon="-1.99334">
        <ele>90.5</ele>
        <time>2019-07-16T07:09:37Z</time>
      </trkpt>
      <trkpt lat="48.29105" lon="-1.99332">
        <ele>90.5</ele>
        <time>2019-07-16T07:09:38Z</time>
      </trkpt>
      <trkpt lat="48.29102" lon="-1.99329">
        <ele>89.9</ele>
        <time>2019-07-16T07:09:39Z</time>
      </trkpt>
      <trkpt lat="48.29099" lon="-1.99326">
        <ele>90</ele>
        <time>2019-07-16T07:09:40Z</time>
      </trkpt>
      <trkpt lat="48.29096" lon="-1.99323">
        <ele>89.8</ele>
        <time>2019-07-16T07:09:41Z</time>
      </trkpt>
      <trkpt lat="48.29093" lon="-1.99321">
        <ele>89.4</ele>
        <time>2019-07-16T07:09:42Z</time>
      </trkpt>
      <trkpt lat="48.29089" lon="-1.99318">
        <ele>89.3</ele>
        <time>2019-07-16T07:09:43Z</time>
      </trkpt>
      <trkpt lat="48.29086" lon="-1.99316">
        <ele>89.3</ele>
        <time>2019-07-16T07:09:44Z</time>
      </trkpt>
      <trkpt lat="48.29084" lon="-1.99313">
        <ele>89.4</ele>
        <time>2019-07-16T07:09:45Z</time>
      </trkpt>
      <trkpt lat="48.29081" lon="-1.9931">
        <ele>88.9</ele>
        <time>2019-07-16T07:09:46Z</time>
      </trkpt>
      <trkpt lat="48.29078" lon="-1.99308">
        <ele>88.6</ele>
        <time>2019-07-16T07:09:47Z</time>
      </trkpt>
      <trkpt lat="48.29075" lon="-1.99305">
        <ele>88.7</ele>
        <time>2019-07-16T07:09:48Z</time>
      </trkpt>
      <trkpt lat="48.29072" lon="-1.99303">
        <ele>88.4</ele>
        <time>2019-07-16T07:09:49Z</time>
      </trkpt>
      <trkpt lat="48.29069" lon="-1.993">
        <ele>88</ele>
        <time>2019-07-16T07:09:50Z</time>
      </trkpt>
      <trkpt lat="48.29066" lon="-1.99298">
        <ele>87.8</ele>
        <time>2019-07-16T07:09:51Z</time>
      </trkpt>
      <trkpt lat="48.29063" lon="-1.99295">
        <ele>87.8</ele>
        <time>2019-07-16T07:09:52Z</time>
      </trkpt>
      <trkpt lat="48.29061" lon="-1.99292">
        <ele>88</ele>
        <time>2019-07-16T07:09:53Z</time>
      </trkpt>
      <trkpt lat="48.29058" lon="-1.9929">
        <ele>88.2</ele>
        <time>2019-07-16T07:09:54Z</time>
      </trkpt>
      <trkpt lat="48.29055" lon="-1.99287">
        <ele>88.6</ele>
        <time>2019-07-16T07:09:55Z</time>
      </trkpt>
      <trkpt lat="48.29052" lon="-1.99284">
        <ele>88.7</ele>
        <time>2019-07-16T07:09:56Z</time>
      </trkpt>
      <trkpt lat="48.29049" lon="-1.99281">
        <ele>89</ele>
        <time>2019-07-16T07:09:57Z</time>
      </trkpt>
      <trkpt lat="48.29046" lon="-1.99279">
        <ele>89.5</ele>
        <time>2019-07-16T07:09:58Z</time>
      </trkpt>
      <trkpt lat="48.29044" lon="-1.99276">
        <ele>90.1</ele>
        <time>2019-07-16T07:09:59Z</time>
      </trkpt>
      <trkpt lat="48.29041" lon="-1.99273">
        <ele>90.5</ele>
        <time>2019-07-16T07:10:00Z</time>
      </trkpt>
      <trkpt lat="48.29039" lon="-1.9927">
        <ele>91</ele>
        <time>2019-07-16T07:10:01Z</time>
      </trkpt>
      <trkpt lat="48.29036" lon="-1.99267">
        <ele>91.7</ele>
        <time>2019-07-16T07:10:02Z</time>
      </trkpt>
      <trkpt lat="48.29034" lon="-1.99263">
        <ele>92.3</ele>
        <time>2019-07-16T07:10:03Z</time>
      </trkpt>
      <trkpt lat="48.29031" lon="-1.9926">
        <ele>92.9</ele>
        <time>2019-07-16T07:10:04Z</time>
      </trkpt>
      <trkpt lat="48.29029" lon="-1.99256">
        <ele>93.3</ele>
        <time>2019-07-16T07:10:05Z</time>
      </trkpt>
      <trkpt lat="48.29027" lon="-1.99253">
        <ele>94.4</ele>
        <time>2019-07-16T07:10:06Z</time>
      </trkpt>
      <trkpt lat="48.29025" lon="-1.9925">
        <ele>95</ele>
        <time>2019-07-16T07:10:07Z</time>
      </trkpt>
      <trkpt lat="48.29024" lon="-1.99246">
        <ele>95.3</ele>
        <time>2019-07-16T07:10:08Z</time>
      </trkpt>
      <trkpt lat="48.29023" lon="-1.99242">
        <ele>96</ele>
        <time>2019-07-16T07:10:09Z</time>
      </trkpt>
      <trkpt lat="48.29022" lon="-1.99237">
        <ele>96.4</ele>
        <time>2019-07-16T07:10:10Z</time>
      </trkpt>
      <trkpt lat="48.2902" lon="-1.99232">
        <ele>96.2</ele>
        <time>2019-07-16T07:10:11Z</time>
      </trkpt>
      <trkpt lat="48.29019" lon="-1.99227">
        <ele>96.1</ele>
        <time>2019-07-16T07:10:12Z</time>
      </trkpt>
      <trkpt lat="48.29017" lon="-1.99223">
        <ele>96.1</ele>
        <time>2019-07-16T07:10:13Z</time>
      </trkpt>
      <trkpt lat="48.29017" lon="-1.99219">
        <ele>96.6</ele>
        <time>2019-07-16T07:10:14Z</time>
      </trkpt>
      <trkpt lat="48.29015" lon="-1.99214">
        <ele>96.8</ele>
        <time>2019-07-16T07:10:15Z</time>
      </trkpt>
      <trkpt lat="48.29015" lon="-1.99209">
        <ele>96</ele>
        <time>2019-07-16T07:10:16Z</time>
      </trkpt>
      <trkpt lat="48.29014" lon="-1.99204">
        <ele>95.4</ele>
        <time>2019-07-16T07:10:17Z</time>
      </trkpt>
      <trkpt lat="48.29013" lon="-1.99199">
        <ele>95.2</ele>
        <time>2019-07-16T07:10:18Z</time>
      </trkpt>
      <trkpt lat="48.29012" lon="-1.99194">
        <ele>95.1</ele>
        <time>2019-07-16T07:10:19Z</time>
      </trkpt>
      <trkpt lat="48.2901" lon="-1.99189">
        <ele>94.9</ele>
        <time>2019-07-16T07:10:20Z</time>
      </trkpt>
      <trkpt lat="48.29009" lon="-1.99184">
        <ele>94.6</ele>
        <time>2019-07-16T07:10:21Z</time>
      </trkpt>
      <trkpt lat="48.29008" lon="-1.99179">
        <ele>94.1</ele>
        <time>2019-07-16T07:10:22Z</time>
      </trkpt>
      <trkpt lat="48.29007" lon="-1.99174">
        <ele>93.7</ele>
        <time>2019-07-16T07:10:23Z</time>
      </trkpt>
      <trkpt lat="48.29005" lon="-1.99169">
        <ele>93.5</ele>
        <time>2019-07-16T07:10:24Z</time>
      </trkpt>
      <trkpt lat="48.29004" lon="-1.99164">
        <ele>93.3</ele>
        <time>2019-07-16T07:10:25Z</time>
      </trkpt>
      <trkpt lat="48.29002" lon="-1.99159">
        <ele>93.1</ele>
        <time>2019-07-16T07:10:26Z</time>
      </trkpt>
      <trkpt lat="48.29001" lon="-1.99154">
        <ele>92.9</ele>
        <time>2019-07-16T07:10:27Z</time>
      </trkpt>
      <trkpt lat="48.28999" lon="-1.99149">
        <ele>92.8</ele>
        <time>2019-07-16T07:10:28Z</time>
      </trkpt>
      <trkpt lat="48.28998" lon="-1.99144">
        <ele>93</ele>
        <time>2019-07-16T07:10:29Z</time>
      </trkpt>
      <trkpt lat="48.28997" lon="-1.99139">
        <ele>92.8</ele>
        <time>2019-07-16T07:10:30Z</time>
      </trkpt>
      <trkpt lat="48.28995" lon="-1.99133">
        <ele>92.2</ele>
        <time>2019-07-16T07:10:31Z</time>
      </trkpt>
      <trkpt lat="48.28994" lon="-1.99128">
        <ele>91.7</ele>
        <time>2019-07-16T07:10:32Z</time>
      </trkpt>
      <trkpt lat="48.28993" lon="-1.99123">
        <ele>91.3</ele>
        <time>2019-07-16T07:10:33Z</time>
      </trkpt>
      <trkpt lat="48.28992" lon="-1.99118">
        <ele>90.9</ele>
        <time>2019-07-16T07:10:34Z</time>
      </trkpt>
      <trkpt lat="48.2899" lon="-1.99113">
        <ele>90.5</ele>
        <time>2019-07-16T07:10:35Z</time>
      </trkpt>
      <trkpt lat="48.28989" lon="-1.99108">
        <ele>90.3</ele>
        <time>2019-07-16T07:10:36Z</time>
      </trkpt>
      <trkpt lat="48.28988" lon="-1.99103">
        <ele>90.1</ele>
        <time>2019-07-16T07:10:37Z</time>
      </trkpt>
      <trkpt lat="48.28987" lon="-1.99098">
        <ele>89.8</ele>
        <time>2019-07-16T07:10:38Z</time>
      </trkpt>
      <trkpt lat="48.28986" lon="-1.99093">
        <ele>89.8</ele>
        <time>2019-07-16T07:10:39Z</time>
      </trkpt>
      <trkpt lat="48.28985" lon="-1.99089">
        <ele>89.8</ele>
        <time>2019-07-16T07:10:40Z</time>
      </trkpt>
      <trkpt lat="48.28983" lon="-1.99084">
        <ele>89.8</ele>
        <time>2019-07-16T07:10:41Z</time>
      </trkpt>
      <trkpt lat="48.28982" lon="-1.99079">
        <ele>89.7</ele>
        <time>2019-07-16T07:10:42Z</time>
      </trkpt>
      <trkpt lat="48.28981" lon="-1.99074">
        <ele>89.6</ele>
        <time>2019-07-16T07:10:43Z</time>
      </trkpt>
      <trkpt lat="48.2898" lon="-1.9907">
        <ele>89.5</ele>
        <time>2019-07-16T07:10:44Z</time>
      </trkpt>
      <trkpt lat="48.28978" lon="-1.99065">
        <ele>89.5</ele>
        <time>2019-07-16T07:10:45Z</time>
      </trkpt>
      <trkpt lat="48.28977" lon="-1.99061">
        <ele>89.6</ele>
        <time>2019-07-16T07:10:46Z</time>
      </trkpt>
      <trkpt lat="48.28976" lon="-1.99056">
        <ele>89.8</ele>
        <time>2019-07-16T07:10:47Z</time>
      </trkpt>
      <trkpt lat="48.28974" lon="-1.99051">
        <ele>89.9</ele>
        <time>2019-07-16T07:10:48Z</time>
      </trkpt>
      <trkpt lat="48.28973" lon="-1.99046">
        <ele>89.9</ele>
        <time>2019-07-16T07:10:49Z</time>
      </trkpt>
      <trkpt lat="48.28972" lon="-1.99041">
        <ele>90.1</ele>
        <time>2019-07-16T07:10:50Z</time>
      </trkpt>
      <trkpt lat="48.2897" lon="-1.99036">
        <ele>89.9</ele>
        <time>2019-07-16T07:10:51Z</time>
      </trkpt>
      <trkpt lat="48.28969" lon="-1.99031">
        <ele>89.7</ele>
        <time>2019-07-16T07:10:52Z</time>
      </trkpt>
      <trkpt lat="48.28967" lon="-1.99026">
        <ele>89.9</ele>
        <time>2019-07-16T07:10:53Z</time>
      </trkpt>
      <trkpt lat="48.28965" lon="-1.99021">
        <ele>90.3</ele>
        <time>2019-07-16T07:10:54Z</time>
      </trkpt>
      <trkpt lat="48.28964" lon="-1.99017">
        <ele>90.3</ele>
        <time>2019-07-16T07:10:55Z</time>
      </trkpt>
      <trkpt lat="48.28962" lon="-1.99012">
        <ele>90.5</ele>
        <time>2019-07-16T07:10:56Z</time>
      </trkpt>
      <trkpt lat="48.28961" lon="-1.99007">
        <ele>90.3</ele>
        <time>2019-07-16T07:10:57Z</time>
      </trkpt>
      <trkpt lat="48.2896" lon="-1.99002">
        <ele>90.4</ele>
        <time>2019-07-16T07:10:58Z</time>
      </trkpt>
      <trkpt lat="48.28959" lon="-1.98997">
        <ele>90.5</ele>
        <time>2019-07-16T07:10:59Z</time>
      </trkpt>
      <trkpt lat="48.28957" lon="-1.98993">
        <ele>90.5</ele>
        <time>2019-07-16T07:11:00Z</time>
      </trkpt>
      <trkpt lat="48.28956" lon="-1.98988">
        <ele>90.4</ele>
        <time>2019-07-16T07:11:01Z</time>
      </trkpt>
      <trkpt lat="48.28954" lon="-1.98983">
        <ele>90.3</ele>
        <time>2019-07-16T07:11:02Z</time>
      </trkpt>
      <trkpt lat="48.28954" lon="-1.98978">
        <ele>90.5</ele>
        <time>2019-07-16T07:11:03Z</time>
      </trkpt>
      <trkpt lat="48.28952" lon="-1.98973">
        <ele>91</ele>
        <time>2019-07-16T07:11:04Z</time>
      </trkpt>
      <trkpt lat="48.28951" lon="-1.98969">
        <ele>91.4</ele>
        <time>2019-07-16T07:11:05Z</time>
      </trkpt>
      <trkpt lat="48.28949" lon="-1.98964">
        <ele>91.5</ele>
        <time>2019-07-16T07:11:06Z</time>
      </trkpt>
      <trkpt lat="48.28947" lon="-1.98959">
        <ele>91.5</ele>
        <time>2019-07-16T07:11:07Z</time>
      </trkpt>
      <trkpt lat="48.28947" lon="-1.98954">
        <ele>91.8</ele>
        <time>2019-07-16T07:11:08Z</time>
      </trkpt>
      <trkpt lat="48.28945" lon="-1.98949">
        <ele>92</ele>
        <time>2019-07-16T07:11:09Z</time>
      </trkpt>
      <trkpt lat="48.28944" lon="-1.98944">
        <ele>92.2</ele>
        <time>2019-07-16T07:11:10Z</time>
      </trkpt>
      <trkpt lat="48.28943" lon="-1.98939">
        <ele>92.3</ele>
        <time>2019-07-16T07:11:11Z</time>
      </trkpt>
      <trkpt lat="48.28941" lon="-1.98935">
        <ele>92.3</ele>
        <time>2019-07-16T07:11:12Z</time>
      </trkpt>
      <trkpt lat="48.2894" lon="-1.9893">
        <ele>92.2</ele>
        <time>2019-07-16T07:11:13Z</time>
      </trkpt>
      <trkpt lat="48.28938" lon="-1.98925">
        <ele>92.3</ele>
        <time>2019-07-16T07:11:14Z</time>
      </trkpt>
      <trkpt lat="48.28937" lon="-1.98921">
        <ele>92.2</ele>
        <time>2019-07-16T07:11:15Z</time>
      </trkpt>
      <trkpt lat="48.28935" lon="-1.98916">
        <ele>92.3</ele>
        <time>2019-07-16T07:11:16Z</time>
      </trkpt>
      <trkpt lat="48.28934" lon="-1.98911">
        <ele>92.3</ele>
        <time>2019-07-16T07:11:17Z</time>
      </trkpt>
      <trkpt lat="48.28932" lon="-1.98907">
        <ele>92.4</ele>
        <time>2019-07-16T07:11:18Z</time>
      </trkpt>
      <trkpt lat="48.2893" lon="-1.98903">
        <ele>92.5</ele>
        <time>2019-07-16T07:11:19Z</time>
      </trkpt>
      <trkpt lat="48.28928" lon="-1.98899">
        <ele>92.3</ele>
        <time>2019-07-16T07:11:20Z</time>
      </trkpt>
      <trkpt lat="48.28926" lon="-1.98894">
        <ele>92.1</ele>
        <time>2019-07-16T07:11:21Z</time>
      </trkpt>
      <trkpt lat="48.28924" lon="-1.9889">
        <ele>91.9</ele>
        <time>2019-07-16T07:11:22Z</time>
      </trkpt>
      <trkpt lat="48.28922" lon="-1.98886">
        <ele>91.9</ele>
        <time>2019-07-16T07:11:23Z</time>
      </trkpt>
      <trkpt lat="48.2892" lon="-1.98882">
        <ele>91.8</ele>
        <time>2019-07-16T07:11:24Z</time>
      </trkpt>
      <trkpt lat="48.28918" lon="-1.98878">
        <ele>91.8</ele>
        <time>2019-07-16T07:11:25Z</time>
      </trkpt>
      <trkpt lat="48.28916" lon="-1.98873">
        <ele>91.9</ele>
        <time>2019-07-16T07:11:26Z</time>
      </trkpt>
      <trkpt lat="48.28915" lon="-1.98869">
        <ele>91.9</ele>
        <time>2019-07-16T07:11:27Z</time>
      </trkpt>
      <trkpt lat="48.28912" lon="-1.98865">
        <ele>92.1</ele>
        <time>2019-07-16T07:11:28Z</time>
      </trkpt>
      <trkpt lat="48.28909" lon="-1.98862">
        <ele>92.2</ele>
        <time>2019-07-16T07:11:29Z</time>
      </trkpt>
      <trkpt lat="48.28907" lon="-1.98858">
        <ele>92.4</ele>
        <time>2019-07-16T07:11:30Z</time>
      </trkpt>
      <trkpt lat="48.28904" lon="-1.98855">
        <ele>92.3</ele>
        <time>2019-07-16T07:11:31Z</time>
      </trkpt>
      <trkpt lat="48.28902" lon="-1.98851">
        <ele>92.1</ele>
        <time>2019-07-16T07:11:32Z</time>
      </trkpt>
      <trkpt lat="48.28899" lon="-1.98848">
        <ele>92.1</ele>
        <time>2019-07-16T07:11:33Z</time>
      </trkpt>
      <trkpt lat="48.28896" lon="-1.98844">
        <ele>92</ele>
        <time>2019-07-16T07:11:34Z</time>
      </trkpt>
      <trkpt lat="48.28894" lon="-1.98841">
        <ele>92.1</ele>
        <time>2019-07-16T07:11:35Z</time>
      </trkpt>
      <trkpt lat="48.28891" lon="-1.98837">
        <ele>91.9</ele>
        <time>2019-07-16T07:11:36Z</time>
      </trkpt>
      <trkpt lat="48.28889" lon="-1.98835">
        <ele>92</ele>
        <time>2019-07-16T07:11:37Z</time>
      </trkpt>
      <trkpt lat="48.28886" lon="-1.98831">
        <ele>91.9</ele>
        <time>2019-07-16T07:11:38Z</time>
      </trkpt>
      <trkpt lat="48.28883" lon="-1.98828">
        <ele>91.8</ele>
        <time>2019-07-16T07:11:39Z</time>
      </trkpt>
      <trkpt lat="48.28881" lon="-1.98825">
        <ele>91.7</ele>
        <time>2019-07-16T07:11:40Z</time>
      </trkpt>
      <trkpt lat="48.28878" lon="-1.98821">
        <ele>91.5</ele>
        <time>2019-07-16T07:11:41Z</time>
      </trkpt>
      <trkpt lat="48.28876" lon="-1.98818">
        <ele>91.3</ele>
        <time>2019-07-16T07:11:42Z</time>
      </trkpt>
      <trkpt lat="48.28873" lon="-1.98815">
        <ele>91.5</ele>
        <time>2019-07-16T07:11:43Z</time>
      </trkpt>
      <trkpt lat="48.2887" lon="-1.98812">
        <ele>91.4</ele>
        <time>2019-07-16T07:11:44Z</time>
      </trkpt>
      <trkpt lat="48.28868" lon="-1.98808">
        <ele>91.4</ele>
        <time>2019-07-16T07:11:45Z</time>
      </trkpt>
      <trkpt lat="48.28865" lon="-1.98805">
        <ele>91.4</ele>
        <time>2019-07-16T07:11:46Z</time>
      </trkpt>
      <trkpt lat="48.28863" lon="-1.98802">
        <ele>91.5</ele>
        <time>2019-07-16T07:11:47Z</time>
      </trkpt>
      <trkpt lat="48.28861" lon="-1.988">
        <ele>91.6</ele>
        <time>2019-07-16T07:11:48Z</time>
      </trkpt>
      <trkpt lat="48.28859" lon="-1.98798">
        <ele>92</ele>
        <time>2019-07-16T07:11:49Z</time>
      </trkpt>
      <trkpt lat="48.28857" lon="-1.98796">
        <ele>92.3</ele>
        <time>2019-07-16T07:11:50Z</time>
      </trkpt>
      <trkpt lat="48.28855" lon="-1.98795">
        <ele>92.4</ele>
        <time>2019-07-16T07:11:51Z</time>
      </trkpt>
      <trkpt lat="48.28853" lon="-1.98792">
        <ele>92.1</ele>
        <time>2019-07-16T07:11:52Z</time>
      </trkpt>
      <trkpt lat="48.2885" lon="-1.9879">
        <ele>92.4</ele>
        <time>2019-07-16T07:11:53Z</time>
      </trkpt>
      <trkpt lat="48.28847" lon="-1.98789">
        <ele>92.7</ele>
        <time>2019-07-16T07:11:54Z</time>
      </trkpt>
      <trkpt lat="48.28844" lon="-1.98787">
        <ele>92.8</ele>
        <time>2019-07-16T07:11:55Z</time>
      </trkpt>
      <trkpt lat="48.28841" lon="-1.98786">
        <ele>93.5</ele>
        <time>2019-07-16T07:11:56Z</time>
      </trkpt>
      <trkpt lat="48.28838" lon="-1.98784">
        <ele>94</ele>
        <time>2019-07-16T07:11:57Z</time>
      </trkpt>
      <trkpt lat="48.28836" lon="-1.98782">
        <ele>94.5</ele>
        <time>2019-07-16T07:11:58Z</time>
      </trkpt>
      <trkpt lat="48.28833" lon="-1.9878">
        <ele>95</ele>
        <time>2019-07-16T07:11:59Z</time>
      </trkpt>
      <trkpt lat="48.2883" lon="-1.98778">
        <ele>95.4</ele>
        <time>2019-07-16T07:12:00Z</time>
      </trkpt>
      <trkpt lat="48.28827" lon="-1.98776">
        <ele>95.3</ele>
        <time>2019-07-16T07:12:01Z</time>
      </trkpt>
      <trkpt lat="48.28826" lon="-1.98772">
        <ele>95.2</ele>
        <time>2019-07-16T07:12:02Z</time>
      </trkpt>
      <trkpt lat="48.28825" lon="-1.98768">
        <ele>95.3</ele>
        <time>2019-07-16T07:12:03Z</time>
      </trkpt>
      <trkpt lat="48.28824" lon="-1.98764">
        <ele>95.4</ele>
        <time>2019-07-16T07:12:04Z</time>
      </trkpt>
      <trkpt lat="48.28822" lon="-1.9876">
        <ele>95.5</ele>
        <time>2019-07-16T07:12:05Z</time>
      </trkpt>
      <trkpt lat="48.28821" lon="-1.98756">
        <ele>95.6</ele>
        <time>2019-07-16T07:12:06Z</time>
      </trkpt>
      <trkpt lat="48.28821" lon="-1.98751">
        <ele>95.8</ele>
        <time>2019-07-16T07:12:07Z</time>
      </trkpt>
      <trkpt lat="48.2882" lon="-1.98747">
        <ele>95.9</ele>
        <time>2019-07-16T07:12:08Z</time>
      </trkpt>
      <trkpt lat="48.28819" lon="-1.98742">
        <ele>96.1</ele>
        <time>2019-07-16T07:12:09Z</time>
      </trkpt>
      <trkpt lat="48.28817" lon="-1.98738">
        <ele>96.5</ele>
        <time>2019-07-16T07:12:10Z</time>
      </trkpt>
      <trkpt lat="48.28816" lon="-1.98734">
        <ele>96.8</ele>
        <time>2019-07-16T07:12:11Z</time>
      </trkpt>
      <trkpt lat="48.28816" lon="-1.9873">
        <ele>97</ele>
        <time>2019-07-16T07:12:12Z</time>
      </trkpt>
      <trkpt lat="48.28814" lon="-1.98725">
        <ele>97.4</ele>
        <time>2019-07-16T07:12:13Z</time>
      </trkpt>
      <trkpt lat="48.28814" lon="-1.98721">
        <ele>97.7</ele>
        <time>2019-07-16T07:12:14Z</time>
      </trkpt>
      <trkpt lat="48.28812" lon="-1.98717">
        <ele>97.8</ele>
        <time>2019-07-16T07:12:15Z</time>
      </trkpt>
      <trkpt lat="48.28812" lon="-1.98713">
        <ele>97.9</ele>
        <time>2019-07-16T07:12:16Z</time>
      </trkpt>
      <trkpt lat="48.28809" lon="-1.9871">
        <ele>97.4</ele>
        <time>2019-07-16T07:12:17Z</time>
      </trkpt>
      <trkpt lat="48.28808" lon="-1.98706">
        <ele>97.2</ele>
        <time>2019-07-16T07:12:18Z</time>
      </trkpt>
      <trkpt lat="48.28807" lon="-1.98702">
        <ele>97.2</ele>
        <time>2019-07-16T07:12:19Z</time>
      </trkpt>
      <trkpt lat="48.28805" lon="-1.98698">
        <ele>97.1</ele>
        <time>2019-07-16T07:12:20Z</time>
      </trkpt>
      <trkpt lat="48.28803" lon="-1.98694">
        <ele>97.1</ele>
        <time>2019-07-16T07:12:21Z</time>
      </trkpt>
      <trkpt lat="48.28802" lon="-1.98689">
        <ele>96.8</ele>
        <time>2019-07-16T07:12:22Z</time>
      </trkpt>
      <trkpt lat="48.28801" lon="-1.98686">
        <ele>96.7</ele>
        <time>2019-07-16T07:12:23Z</time>
      </trkpt>
      <trkpt lat="48.28799" lon="-1.98682">
        <ele>96.5</ele>
        <time>2019-07-16T07:12:24Z</time>
      </trkpt>
      <trkpt lat="48.28799" lon="-1.98677">
        <ele>96.6</ele>
        <time>2019-07-16T07:12:25Z</time>
      </trkpt>
      <trkpt lat="48.28798" lon="-1.98673">
        <ele>96.9</ele>
        <time>2019-07-16T07:12:26Z</time>
      </trkpt>
      <trkpt lat="48.28796" lon="-1.9867">
        <ele>97.1</ele>
        <time>2019-07-16T07:12:27Z</time>
      </trkpt>
      <trkpt lat="48.28795" lon="-1.98666">
        <ele>97.2</ele>
        <time>2019-07-16T07:12:28Z</time>
      </trkpt>
      <trkpt lat="48.28793" lon="-1.98663">
        <ele>97.1</ele>
        <time>2019-07-16T07:12:29Z</time>
      </trkpt>
      <trkpt lat="48.28791" lon="-1.98659">
        <ele>97.2</ele>
        <time>2019-07-16T07:12:30Z</time>
      </trkpt>
      <trkpt lat="48.2879" lon="-1.98655">
        <ele>97.1</ele>
        <time>2019-07-16T07:12:31Z</time>
      </trkpt>
      <trkpt lat="48.28788" lon="-1.98652">
        <ele>96.9</ele>
        <time>2019-07-16T07:12:32Z</time>
      </trkpt>
      <trkpt lat="48.28787" lon="-1.98648">
        <ele>97</ele>
        <time>2019-07-16T07:12:33Z</time>
      </trkpt>
      <trkpt lat="48.28785" lon="-1.98645">
        <ele>97.2</ele>
        <time>2019-07-16T07:12:34Z</time>
      </trkpt>
      <trkpt lat="48.28783" lon="-1.98642">
        <ele>97.4</ele>
        <time>2019-07-16T07:12:35Z</time>
      </trkpt>
      <trkpt lat="48.28782" lon="-1.98639">
        <ele>98</ele>
        <time>2019-07-16T07:12:36Z</time>
      </trkpt>
      <trkpt lat="48.28779" lon="-1.98636">
        <ele>98.5</ele>
        <time>2019-07-16T07:12:37Z</time>
      </trkpt>
      <trkpt lat="48.28777" lon="-1.98633">
        <ele>99.3</ele>
        <time>2019-07-16T07:12:38Z</time>
      </trkpt>
      <trkpt lat="48.28776" lon="-1.98629">
        <ele>99.7</ele>
        <time>2019-07-16T07:12:39Z</time>
      </trkpt>
      <trkpt lat="48.28775" lon="-1.98626">
        <ele>99.8</ele>
        <time>2019-07-16T07:12:40Z</time>
      </trkpt>
      <trkpt lat="48.28774" lon="-1.98622">
        <ele>100.2</ele>
        <time>2019-07-16T07:12:41Z</time>
      </trkpt>
      <trkpt lat="48.28772" lon="-1.98619">
        <ele>100.5</ele>
        <time>2019-07-16T07:12:42Z</time>
      </trkpt>
      <trkpt lat="48.28771" lon="-1.98615">
        <ele>100.7</ele>
        <time>2019-07-16T07:12:43Z</time>
      </trkpt>
      <trkpt lat="48.28769" lon="-1.98612">
        <ele>100.8</ele>
        <time>2019-07-16T07:12:44Z</time>
      </trkpt>
      <trkpt lat="48.28767" lon="-1.98609">
        <ele>101</ele>
        <time>2019-07-16T07:12:45Z</time>
      </trkpt>
      <trkpt lat="48.28766" lon="-1.98605">
        <ele>101.1</ele>
        <time>2019-07-16T07:12:46Z</time>
      </trkpt>
      <trkpt lat="48.28764" lon="-1.98602">
        <ele>101.1</ele>
        <time>2019-07-16T07:12:47Z</time>
      </trkpt>
      <trkpt lat="48.28763" lon="-1.98598">
        <ele>101.3</ele>
        <time>2019-07-16T07:12:48Z</time>
      </trkpt>
      <trkpt lat="48.28762" lon="-1.98595">
        <ele>101.4</ele>
        <time>2019-07-16T07:12:49Z</time>
      </trkpt>
      <trkpt lat="48.2876" lon="-1.98592">
        <ele>101.6</ele>
        <time>2019-07-16T07:12:50Z</time>
      </trkpt>
      <trkpt lat="48.28759" lon="-1.98589">
        <ele>102.1</ele>
        <time>2019-07-16T07:12:51Z</time>
      </trkpt>
      <trkpt lat="48.28758" lon="-1.98585">
        <ele>102.1</ele>
        <time>2019-07-16T07:12:52Z</time>
      </trkpt>
      <trkpt lat="48.28756" lon="-1.98582">
        <ele>102.1</ele>
        <time>2019-07-16T07:12:53Z</time>
      </trkpt>
      <trkpt lat="48.28755" lon="-1.98578">
        <ele>102</ele>
        <time>2019-07-16T07:12:54Z</time>
      </trkpt>
      <trkpt lat="48.28753" lon="-1.98575">
        <ele>101.9</ele>
        <time>2019-07-16T07:12:55Z</time>
      </trkpt>
      <trkpt lat="48.28751" lon="-1.98572">
        <ele>101.9</ele>
        <time>2019-07-16T07:12:56Z</time>
      </trkpt>
      <trkpt lat="48.28748" lon="-1.9857">
        <ele>102.3</ele>
        <time>2019-07-16T07:12:57Z</time>
      </trkpt>
      <trkpt lat="48.28746" lon="-1.98567">
        <ele>102.8</ele>
        <time>2019-07-16T07:12:58Z</time>
      </trkpt>
      <trkpt lat="48.28744" lon="-1.98564">
        <ele>103.1</ele>
        <time>2019-07-16T07:12:59Z</time>
      </trkpt>
      <trkpt lat="48.28742" lon="-1.98562">
        <ele>103.6</ele>
        <time>2019-07-16T07:13:00Z</time>
      </trkpt>
      <trkpt lat="48.28739" lon="-1.9856">
        <ele>103.7</ele>
        <time>2019-07-16T07:13:01Z</time>
      </trkpt>
      <trkpt lat="48.28737" lon="-1.98558">
        <ele>103.8</ele>
        <time>2019-07-16T07:13:02Z</time>
      </trkpt>
      <trkpt lat="48.28734" lon="-1.98556">
        <ele>103.9</ele>
        <time>2019-07-16T07:13:03Z</time>
      </trkpt>
      <trkpt lat="48.28732" lon="-1.98554">
        <ele>103.9</ele>
        <time>2019-07-16T07:13:04Z</time>
      </trkpt>
      <trkpt lat="48.2873" lon="-1.98552">
        <ele>104.2</ele>
        <time>2019-07-16T07:13:05Z</time>
      </trkpt>
      <trkpt lat="48.28728" lon="-1.98551">
        <ele>104.5</ele>
        <time>2019-07-16T07:13:06Z</time>
      </trkpt>
      <trkpt lat="48.28726" lon="-1.9855">
        <ele>105</ele>
        <time>2019-07-16T07:13:07Z</time>
      </trkpt>
      <trkpt lat="48.28723" lon="-1.98548">
        <ele>105.2</ele>
        <time>2019-07-16T07:13:08Z</time>
      </trkpt>
      <trkpt lat="48.28721" lon="-1.98547">
        <ele>105.6</ele>
        <time>2019-07-16T07:13:09Z</time>
      </trkpt>
      <trkpt lat="48.28719" lon="-1.98545">
        <ele>106.1</ele>
        <time>2019-07-16T07:13:10Z</time>
      </trkpt>
      <trkpt lat="48.28717" lon="-1.98544">
        <ele>106.8</ele>
        <time>2019-07-16T07:13:11Z</time>
      </trkpt>
      <trkpt lat="48.28714" lon="-1.98543">
        <ele>106.8</ele>
        <time>2019-07-16T07:13:12Z</time>
      </trkpt>
      <trkpt lat="48.28711" lon="-1.98542">
        <ele>106.6</ele>
        <time>2019-07-16T07:13:13Z</time>
      </trkpt>
      <trkpt lat="48.28709" lon="-1.98541">
        <ele>106.8</ele>
        <time>2019-07-16T07:13:14Z</time>
      </trkpt>
      <trkpt lat="48.28707" lon="-1.9854">
        <ele>106.8</ele>
        <time>2019-07-16T07:13:15Z</time>
      </trkpt>
      <trkpt lat="48.28705" lon="-1.98538">
        <ele>106.8</ele>
        <time>2019-07-16T07:13:16Z</time>
      </trkpt>
      <trkpt lat="48.28702" lon="-1.98537">
        <ele>106.9</ele>
        <time>2019-07-16T07:13:17Z</time>
      </trkpt>
      <trkpt lat="48.28699" lon="-1.98536">
        <ele>107</ele>
        <time>2019-07-16T07:13:18Z</time>
      </trkpt>
      <trkpt lat="48.28697" lon="-1.98534">
        <ele>107.6</ele>
        <time>2019-07-16T07:13:19Z</time>
      </trkpt>
      <trkpt lat="48.28695" lon="-1.98533">
        <ele>107.9</ele>
        <time>2019-07-16T07:13:20Z</time>
      </trkpt>
      <trkpt lat="48.28693" lon="-1.98532">
        <ele>108.3</ele>
        <time>2019-07-16T07:13:21Z</time>
      </trkpt>
      <trkpt lat="48.2869" lon="-1.9853">
        <ele>108.3</ele>
        <time>2019-07-16T07:13:22Z</time>
      </trkpt>
      <trkpt lat="48.28688" lon="-1.98529">
        <ele>108.5</ele>
        <time>2019-07-16T07:13:23Z</time>
      </trkpt>
      <trkpt lat="48.28686" lon="-1.98528">
        <ele>108.8</ele>
        <time>2019-07-16T07:13:24Z</time>
      </trkpt>
      <trkpt lat="48.28684" lon="-1.98527">
        <ele>109.1</ele>
        <time>2019-07-16T07:13:25Z</time>
      </trkpt>
      <trkpt lat="48.28682" lon="-1.98526">
        <ele>109.6</ele>
        <time>2019-07-16T07:13:26Z</time>
      </trkpt>
      <trkpt lat="48.2868" lon="-1.98524">
        <ele>109.8</ele>
        <time>2019-07-16T07:13:27Z</time>
      </trkpt>
      <trkpt lat="48.28678" lon="-1.98523">
        <ele>110.1</ele>
        <time>2019-07-16T07:13:28Z</time>
      </trkpt>
      <trkpt lat="48.28676" lon="-1.98522">
        <ele>110.2</ele>
        <time>2019-07-16T07:13:29Z</time>
      </trkpt>
      <trkpt lat="48.28673" lon="-1.98521">
        <ele>110.6</ele>
        <time>2019-07-16T07:13:30Z</time>
      </trkpt>
      <trkpt lat="48.28671" lon="-1.9852">
        <ele>110.7</ele>
        <time>2019-07-16T07:13:31Z</time>
      </trkpt>
      <trkpt lat="48.28668" lon="-1.98519">
        <ele>110.8</ele>
        <time>2019-07-16T07:13:32Z</time>
      </trkpt>
      <trkpt lat="48.28666" lon="-1.98518">
        <ele>110.7</ele>
        <time>2019-07-16T07:13:33Z</time>
      </trkpt>
      <trkpt lat="48.28663" lon="-1.98516">
        <ele>110.5</ele>
        <time>2019-07-16T07:13:34Z</time>
      </trkpt>
      <trkpt lat="48.28661" lon="-1.98515">
        <ele>110.8</ele>
        <time>2019-07-16T07:13:35Z</time>
      </trkpt>
      <trkpt lat="48.2866" lon="-1.98512">
        <ele>112.8</ele>
        <time>2019-07-16T07:13:36Z</time>
      </trkpt>
      <trkpt lat="48.28658" lon="-1.98511">
        <ele>113</ele>
        <time>2019-07-16T07:13:37Z</time>
      </trkpt>
      <trkpt lat="48.28655" lon="-1.98509">
        <ele>112.7</ele>
        <time>2019-07-16T07:13:38Z</time>
      </trkpt>
      <trkpt lat="48.28653" lon="-1.98507">
        <ele>112.4</ele>
        <time>2019-07-16T07:13:39Z</time>
      </trkpt>
      <trkpt lat="48.28651" lon="-1.98506">
        <ele>112.6</ele>
        <time>2019-07-16T07:13:40Z</time>
      </trkpt>
      <trkpt lat="48.2865" lon="-1.98504">
        <ele>112.7</ele>
        <time>2019-07-16T07:13:41Z</time>
      </trkpt>
      <trkpt lat="48.28647" lon="-1.98502">
        <ele>112.6</ele>
        <time>2019-07-16T07:13:42Z</time>
      </trkpt>
      <trkpt lat="48.28645" lon="-1.98499">
        <ele>112</ele>
        <time>2019-07-16T07:13:43Z</time>
      </trkpt>
      <trkpt lat="48.28643" lon="-1.98497">
        <ele>111.4</ele>
        <time>2019-07-16T07:13:44Z</time>
      </trkpt>
      <trkpt lat="48.28642" lon="-1.98494">
        <ele>111.2</ele>
        <time>2019-07-16T07:13:45Z</time>
      </trkpt>
      <trkpt lat="48.28639" lon="-1.98492">
        <ele>110.9</ele>
        <time>2019-07-16T07:13:46Z</time>
      </trkpt>
      <trkpt lat="48.28637" lon="-1.9849">
        <ele>110.7</ele>
        <time>2019-07-16T07:13:47Z</time>
      </trkpt>
      <trkpt lat="48.28635" lon="-1.98487">
        <ele>110.4</ele>
        <time>2019-07-16T07:13:48Z</time>
      </trkpt>
      <trkpt lat="48.28633" lon="-1.98485">
        <ele>110.2</ele>
        <time>2019-07-16T07:13:49Z</time>
      </trkpt>
      <trkpt lat="48.28631" lon="-1.98482">
        <ele>109.7</ele>
        <time>2019-07-16T07:13:50Z</time>
      </trkpt>
      <trkpt lat="48.28629" lon="-1.9848">
        <ele>109.7</ele>
        <time>2019-07-16T07:13:51Z</time>
      </trkpt>
      <trkpt lat="48.28627" lon="-1.98477">
        <ele>109.7</ele>
        <time>2019-07-16T07:13:52Z</time>
      </trkpt>
      <trkpt lat="48.28626" lon="-1.98475">
        <ele>109.6</ele>
        <time>2019-07-16T07:13:53Z</time>
      </trkpt>
      <trkpt lat="48.28624" lon="-1.98473">
        <ele>109.5</ele>
        <time>2019-07-16T07:13:54Z</time>
      </trkpt>
      <trkpt lat="48.28622" lon="-1.9847">
        <ele>109.9</ele>
        <time>2019-07-16T07:13:55Z</time>
      </trkpt>
      <trkpt lat="48.28621" lon="-1.98468">
        <ele>110</ele>
        <time>2019-07-16T07:13:56Z</time>
      </trkpt>
      <trkpt lat="48.28619" lon="-1.98465">
        <ele>109.9</ele>
        <time>2019-07-16T07:13:57Z</time>
      </trkpt>
      <trkpt lat="48.28617" lon="-1.98463">
        <ele>109.7</ele>
        <time>2019-07-16T07:13:58Z</time>
      </trkpt>
      <trkpt lat="48.28616" lon="-1.98461">
        <ele>109.8</ele>
        <time>2019-07-16T07:13:59Z</time>
      </trkpt>
      <trkpt lat="48.28614" lon="-1.98458">
        <ele>109.7</ele>
        <time>2019-07-16T07:14:00Z</time>
      </trkpt>
      <trkpt lat="48.28613" lon="-1.98456">
        <ele>109.7</ele>
        <time>2019-07-16T07:14:01Z</time>
      </trkpt>
      <trkpt lat="48.28611" lon="-1.98453">
        <ele>109.9</ele>
        <time>2019-07-16T07:14:02Z</time>
      </trkpt>
      <trkpt lat="48.28609" lon="-1.98451">
        <ele>110</ele>
        <time>2019-07-16T07:14:03Z</time>
      </trkpt>
      <trkpt lat="48.28607" lon="-1.98448">
        <ele>110.3</ele>
        <time>2019-07-16T07:14:04Z</time>
      </trkpt>
      <trkpt lat="48.28606" lon="-1.98445">
        <ele>110.3</ele>
        <time>2019-07-16T07:14:05Z</time>
      </trkpt>
      <trkpt lat="48.28604" lon="-1.98443">
        <ele>110</ele>
        <time>2019-07-16T07:14:06Z</time>
      </trkpt>
      <trkpt lat="48.28603" lon="-1.9844">
        <ele>109.9</ele>
        <time>2019-07-16T07:14:07Z</time>
      </trkpt>
      <trkpt lat="48.28602" lon="-1.98438">
        <ele>110</ele>
        <time>2019-07-16T07:14:08Z</time>
      </trkpt>
      <trkpt lat="48.28601" lon="-1.98436">
        <ele>110.2</ele>
        <time>2019-07-16T07:14:09Z</time>
      </trkpt>
      <trkpt lat="48.28599" lon="-1.98434">
        <ele>110</ele>
        <time>2019-07-16T07:14:10Z</time>
      </trkpt>
      <trkpt lat="48.28598" lon="-1.98432">
        <ele>110</ele>
        <time>2019-07-16T07:14:11Z</time>
      </trkpt>
      <trkpt lat="48.28597" lon="-1.9843">
        <ele>110.1</ele>
        <time>2019-07-16T07:14:12Z</time>
      </trkpt>
      <trkpt lat="48.28596" lon="-1.98428">
        <ele>110.1</ele>
        <time>2019-07-16T07:14:13Z</time>
      </trkpt>
      <trkpt lat="48.28595" lon="-1.98426">
        <ele>110.2</ele>
        <time>2019-07-16T07:14:14Z</time>
      </trkpt>
      <trkpt lat="48.28594" lon="-1.98424">
        <ele>110.3</ele>
        <time>2019-07-16T07:14:15Z</time>
      </trkpt>
      <trkpt lat="48.28593" lon="-1.98422">
        <ele>110.6</ele>
        <time>2019-07-16T07:14:16Z</time>
      </trkpt>
      <trkpt lat="48.28592" lon="-1.98419">
        <ele>110.9</ele>
        <time>2019-07-16T07:14:17Z</time>
      </trkpt>
      <trkpt lat="48.2859" lon="-1.98417">
        <ele>111.1</ele>
        <time>2019-07-16T07:14:18Z</time>
      </trkpt>
      <trkpt lat="48.28589" lon="-1.98415">
        <ele>111.2</ele>
        <time>2019-07-16T07:14:19Z</time>
      </trkpt>
      <trkpt lat="48.28588" lon="-1.98413">
        <ele>111.4</ele>
        <time>2019-07-16T07:14:20Z</time>
      </trkpt>
      <trkpt lat="48.28586" lon="-1.98411">
        <ele>111.7</ele>
        <time>2019-07-16T07:14:21Z</time>
      </trkpt>
      <trkpt lat="48.28585" lon="-1.98409">
        <ele>111.7</ele>
        <time>2019-07-16T07:14:22Z</time>
      </trkpt>
      <trkpt lat="48.28584" lon="-1.98407">
        <ele>111.9</ele>
        <time>2019-07-16T07:14:23Z</time>
      </trkpt>
      <trkpt lat="48.28583" lon="-1.98405">
        <ele>112.3</ele>
        <time>2019-07-16T07:14:24Z</time>
      </trkpt>
      <trkpt lat="48.28582" lon="-1.98403">
        <ele>112.6</ele>
        <time>2019-07-16T07:14:25Z</time>
      </trkpt>
      <trkpt lat="48.28581" lon="-1.98401">
        <ele>112.9</ele>
        <time>2019-07-16T07:14:26Z</time>
      </trkpt>
      <trkpt lat="48.28579" lon="-1.98399">
        <ele>113.1</ele>
        <time>2019-07-16T07:14:27Z</time>
      </trkpt>
      <trkpt lat="48.28578" lon="-1.98397">
        <ele>113.3</ele>
        <time>2019-07-16T07:14:28Z</time>
      </trkpt>
      <trkpt lat="48.28577" lon="-1.98395">
        <ele>113.5</ele>
        <time>2019-07-16T07:14:29Z</time>
      </trkpt>
      <trkpt lat="48.28576" lon="-1.98393">
        <ele>113.8</ele>
        <time>2019-07-16T07:14:30Z</time>
      </trkpt>
      <trkpt lat="48.28576" lon="-1.98391">
        <ele>114.3</ele>
        <time>2019-07-16T07:14:31Z</time>
      </trkpt>
      <trkpt lat="48.28575" lon="-1.98389">
        <ele>114.9</ele>
        <time>2019-07-16T07:14:32Z</time>
      </trkpt>
      <trkpt lat="48.28574" lon="-1.98387">
        <ele>115.3</ele>
        <time>2019-07-16T07:14:33Z</time>
      </trkpt>
      <trkpt lat="48.28573" lon="-1.98385">
        <ele>115.6</ele>
        <time>2019-07-16T07:14:34Z</time>
      </trkpt>
      <trkpt lat="48.28571" lon="-1.98383">
        <ele>115.8</ele>
        <time>2019-07-16T07:14:35Z</time>
      </trkpt>
      <trkpt lat="48.2857" lon="-1.98381">
        <ele>116</ele>
        <time>2019-07-16T07:14:36Z</time>
      </trkpt>
      <trkpt lat="48.28569" lon="-1.98379">
        <ele>116.3</ele>
        <time>2019-07-16T07:14:37Z</time>
      </trkpt>
      <trkpt lat="48.28568" lon="-1.98377">
        <ele>116.6</ele>
        <time>2019-07-16T07:14:38Z</time>
      </trkpt>
      <trkpt lat="48.28567" lon="-1.98375">
        <ele>117</ele>
        <time>2019-07-16T07:14:39Z</time>
      </trkpt>
      <trkpt lat="48.28566" lon="-1.98373">
        <ele>117.5</ele>
        <time>2019-07-16T07:14:40Z</time>
      </trkpt>
      <trkpt lat="48.28565" lon="-1.9837">
        <ele>117.8</ele>
        <time>2019-07-16T07:14:41Z</time>
      </trkpt>
      <trkpt lat="48.28564" lon="-1.98368">
        <ele>118</ele>
        <time>2019-07-16T07:14:42Z</time>
      </trkpt>
      <trkpt lat="48.28563" lon="-1.98367">
        <ele>118.1</ele>
        <time>2019-07-16T07:14:43Z</time>
      </trkpt>
      <trkpt lat="48.28562" lon="-1.98365">
        <ele>118.5</ele>
        <time>2019-07-16T07:14:44Z</time>
      </trkpt>
      <trkpt lat="48.28561" lon="-1.98363">
        <ele>118.7</ele>
        <time>2019-07-16T07:14:45Z</time>
      </trkpt>
      <trkpt lat="48.28559" lon="-1.98361">
        <ele>118.8</ele>
        <time>2019-07-16T07:14:46Z</time>
      </trkpt>
      <trkpt lat="48.28558" lon="-1.98359">
        <ele>119</ele>
        <time>2019-07-16T07:14:47Z</time>
      </trkpt>
      <trkpt lat="48.28556" lon="-1.98357">
        <ele>119.1</ele>
        <time>2019-07-16T07:14:48Z</time>
      </trkpt>
      <trkpt lat="48.28555" lon="-1.98356">
        <ele>119.3</ele>
        <time>2019-07-16T07:14:49Z</time>
      </trkpt>
      <trkpt lat="48.28554" lon="-1.98353">
        <ele>119.6</ele>
        <time>2019-07-16T07:14:50Z</time>
      </trkpt>
      <trkpt lat="48.28553" lon="-1.98351">
        <ele>119.8</ele>
        <time>2019-07-16T07:14:51Z</time>
      </trkpt>
      <trkpt lat="48.28551" lon="-1.98349">
        <ele>119.8</ele>
        <time>2019-07-16T07:14:52Z</time>
      </trkpt>
      <trkpt lat="48.2855" lon="-1.98347">
        <ele>120</ele>
        <time>2019-07-16T07:14:53Z</time>
      </trkpt>
      <trkpt lat="48.28548" lon="-1.98345">
        <ele>120</ele>
        <time>2019-07-16T07:14:54Z</time>
      </trkpt>
      <trkpt lat="48.28548" lon="-1.98343">
        <ele>119.9</ele>
        <time>2019-07-16T07:14:55Z</time>
      </trkpt>
      <trkpt lat="48.28547" lon="-1.98341">
        <ele>119.8</ele>
        <time>2019-07-16T07:14:56Z</time>
      </trkpt>
      <trkpt lat="48.28545" lon="-1.98338">
        <ele>119.9</ele>
        <time>2019-07-16T07:14:57Z</time>
      </trkpt>
      <trkpt lat="48.28544" lon="-1.98336">
        <ele>119.9</ele>
        <time>2019-07-16T07:14:58Z</time>
      </trkpt>
      <trkpt lat="48.28543" lon="-1.98334">
        <ele>119.9</ele>
        <time>2019-07-16T07:14:59Z</time>
      </trkpt>
      <trkpt lat="48.28542" lon="-1.98332">
        <ele>120.2</ele>
        <time>2019-07-16T07:15:00Z</time>
      </trkpt>
      <trkpt lat="48.2854" lon="-1.9833">
        <ele>120.3</ele>
        <time>2019-07-16T07:15:01Z</time>
      </trkpt>
      <trkpt lat="48.28539" lon="-1.98328">
        <ele>120.5</ele>
        <time>2019-07-16T07:15:02Z</time>
      </trkpt>
      <trkpt lat="48.28538" lon="-1.98325">
        <ele>120.8</ele>
        <time>2019-07-16T07:15:03Z</time>
      </trkpt>
      <trkpt lat="48.28537" lon="-1.98323">
        <ele>121.2</ele>
        <time>2019-07-16T07:15:04Z</time>
      </trkpt>
      <trkpt lat="48.28536" lon="-1.98321">
        <ele>121.4</ele>
        <time>2019-07-16T07:15:05Z</time>
      </trkpt>
      <trkpt lat="48.28534" lon="-1.98319">
        <ele>121.5</ele>
        <time>2019-07-16T07:15:06Z</time>
      </trkpt>
      <trkpt lat="48.28533" lon="-1.98318">
        <ele>121.9</ele>
        <time>2019-07-16T07:15:07Z</time>
      </trkpt>
      <trkpt lat="48.28532" lon="-1.98316">
        <ele>122.1</ele>
        <time>2019-07-16T07:15:08Z</time>
      </trkpt>
      <trkpt lat="48.28531" lon="-1.98314">
        <ele>122.4</ele>
        <time>2019-07-16T07:15:09Z</time>
      </trkpt>
      <trkpt lat="48.2853" lon="-1.98311">
        <ele>122.6</ele>
        <time>2019-07-16T07:15:10Z</time>
      </trkpt>
      <trkpt lat="48.28529" lon="-1.98309">
        <ele>123</ele>
        <time>2019-07-16T07:15:11Z</time>
      </trkpt>
      <trkpt lat="48.28528" lon="-1.98307">
        <ele>123.2</ele>
        <time>2019-07-16T07:15:12Z</time>
      </trkpt>
      <trkpt lat="48.28527" lon="-1.98305">
        <ele>123.3</ele>
        <time>2019-07-16T07:15:13Z</time>
      </trkpt>
      <trkpt lat="48.28525" lon="-1.98303">
        <ele>123.4</ele>
        <time>2019-07-16T07:15:14Z</time>
      </trkpt>
      <trkpt lat="48.28524" lon="-1.98301">
        <ele>123.8</ele>
        <time>2019-07-16T07:15:15Z</time>
      </trkpt>
      <trkpt lat="48.28523" lon="-1.98299">
        <ele>124</ele>
        <time>2019-07-16T07:15:16Z</time>
      </trkpt>
      <trkpt lat="48.28522" lon="-1.98297">
        <ele>124.2</ele>
        <time>2019-07-16T07:15:17Z</time>
      </trkpt>
      <trkpt lat="48.28521" lon="-1.98295">
        <ele>124.1</ele>
        <time>2019-07-16T07:15:18Z</time>
      </trkpt>
      <trkpt lat="48.28519" lon="-1.98293">
        <ele>124</ele>
        <time>2019-07-16T07:15:19Z</time>
      </trkpt>
      <trkpt lat="48.28517" lon="-1.98291">
        <ele>124.3</ele>
        <time>2019-07-16T07:15:20Z</time>
      </trkpt>
      <trkpt lat="48.28516" lon="-1.98289">
        <ele>124.4</ele>
        <time>2019-07-16T07:15:21Z</time>
      </trkpt>
      <trkpt lat="48.28515" lon="-1.98287">
        <ele>124.2</ele>
        <time>2019-07-16T07:15:22Z</time>
      </trkpt>
      <trkpt lat="48.28514" lon="-1.98285">
        <ele>124.2</ele>
        <time>2019-07-16T07:15:23Z</time>
      </trkpt>
      <trkpt lat="48.28513" lon="-1.98283">
        <ele>124.2</ele>
        <time>2019-07-16T07:15:24Z</time>
      </trkpt>
      <trkpt lat="48.28512" lon="-1.98281">
        <ele>123.9</ele>
        <time>2019-07-16T07:15:25Z</time>
      </trkpt>
      <trkpt lat="48.28511" lon="-1.98279">
        <ele>123.7</ele>
        <time>2019-07-16T07:15:26Z</time>
      </trkpt>
      <trkpt lat="48.2851" lon="-1.98276">
        <ele>123.6</ele>
        <time>2019-07-16T07:15:27Z</time>
      </trkpt>
      <trkpt lat="48.2851" lon="-1.98274">
        <ele>123.3</ele>
        <time>2019-07-16T07:15:28Z</time>
      </trkpt>
      <trkpt lat="48.28509" lon="-1.98271">
        <ele>122.8</ele>
        <time>2019-07-16T07:15:29Z</time>
      </trkpt>
      <trkpt lat="48.28508" lon="-1.98269">
        <ele>122.4</ele>
        <time>2019-07-16T07:15:30Z</time>
      </trkpt>
      <trkpt lat="48.28506" lon="-1.98267">
        <ele>123</ele>
        <time>2019-07-16T07:15:31Z</time>
      </trkpt>
      <trkpt lat="48.28504" lon="-1.98266">
        <ele>123.5</ele>
        <time>2019-07-16T07:15:32Z</time>
      </trkpt>
      <trkpt lat="48.28502" lon="-1.98266">
        <ele>124</ele>
        <time>2019-07-16T07:15:33Z</time>
      </trkpt>
      <trkpt lat="48.285" lon="-1.98265">
        <ele>124.7</ele>
        <time>2019-07-16T07:15:34Z</time>
      </trkpt>
      <trkpt lat="48.28498" lon="-1.98265">
        <ele>125.3</ele>
        <time>2019-07-16T07:15:35Z</time>
      </trkpt>
      <trkpt lat="48.28497" lon="-1.98263">
        <ele>125.7</ele>
        <time>2019-07-16T07:15:36Z</time>
      </trkpt>
      <trkpt lat="48.28495" lon="-1.98261">
        <ele>125.9</ele>
        <time>2019-07-16T07:15:37Z</time>
      </trkpt>
      <trkpt lat="48.28494" lon="-1.98259">
        <ele>126.3</ele>
        <time>2019-07-16T07:15:38Z</time>
      </trkpt>
      <trkpt lat="48.28493" lon="-1.98256">
        <ele>126.8</ele>
        <time>2019-07-16T07:15:39Z</time>
      </trkpt>
      <trkpt lat="48.28492" lon="-1.98253">
        <ele>127.6</ele>
        <time>2019-07-16T07:15:40Z</time>
      </trkpt>
      <trkpt lat="48.28492" lon="-1.9825">
        <ele>128.4</ele>
        <time>2019-07-16T07:15:41Z</time>
      </trkpt>
      <trkpt lat="48.28492" lon="-1.98248">
        <ele>129.2</ele>
        <time>2019-07-16T07:15:42Z</time>
      </trkpt>
      <trkpt lat="48.28492" lon="-1.98245">
        <ele>129.4</ele>
        <time>2019-07-16T07:15:43Z</time>
      </trkpt>
      <trkpt lat="48.28492" lon="-1.98242">
        <ele>129.3</ele>
        <time>2019-07-16T07:15:44Z</time>
      </trkpt>
      <trkpt lat="48.28492" lon="-1.98239">
        <ele>129.1</ele>
        <time>2019-07-16T07:15:45Z</time>
      </trkpt>
      <trkpt lat="48.28492" lon="-1.98236">
        <ele>129.1</ele>
        <time>2019-07-16T07:15:46Z</time>
      </trkpt>
      <trkpt lat="48.28492" lon="-1.98233">
        <ele>129</ele>
        <time>2019-07-16T07:15:47Z</time>
      </trkpt>
      <trkpt lat="48.28492" lon="-1.9823">
        <ele>128.9</ele>
        <time>2019-07-16T07:15:48Z</time>
      </trkpt>
      <trkpt lat="48.28492" lon="-1.98227">
        <ele>128.8</ele>
        <time>2019-07-16T07:15:49Z</time>
      </trkpt>
      <trkpt lat="48.28492" lon="-1.98224">
        <ele>129.1</ele>
        <time>2019-07-16T07:15:50Z</time>
      </trkpt>
      <trkpt lat="48.28493" lon="-1.98221">
        <ele>129.4</ele>
        <time>2019-07-16T07:15:51Z</time>
      </trkpt>
      <trkpt lat="48.28493" lon="-1.98218">
        <ele>129.5</ele>
        <time>2019-07-16T07:15:52Z</time>
      </trkpt>
      <trkpt lat="48.28493" lon="-1.98215">
        <ele>129.9</ele>
        <time>2019-07-16T07:15:53Z</time>
      </trkpt>
      <trkpt lat="48.28493" lon="-1.98212">
        <ele>130.2</ele>
        <time>2019-07-16T07:15:54Z</time>
      </trkpt>
      <trkpt lat="48.28493" lon="-1.9821">
        <ele>130.5</ele>
        <time>2019-07-16T07:15:55Z</time>
      </trkpt>
      <trkpt lat="48.28493" lon="-1.98207">
        <ele>130.8</ele>
        <time>2019-07-16T07:15:56Z</time>
      </trkpt>
      <trkpt lat="48.28493" lon="-1.98205">
        <ele>131.3</ele>
        <time>2019-07-16T07:15:57Z</time>
      </trkpt>
      <trkpt lat="48.28494" lon="-1.982">
        <ele>131.8</ele>
        <time>2019-07-16T07:16:34Z</time>
      </trkpt>
      <trkpt lat="48.28494" lon="-1.98198">
        <ele>132</ele>
        <time>2019-07-16T07:16:35Z</time>
      </trkpt>
      <trkpt lat="48.28495" lon="-1.98196">
        <ele>132.3</ele>
        <time>2019-07-16T07:16:36Z</time>
      </trkpt>
      <trkpt lat="48.28495" lon="-1.98193">
        <ele>132.4</ele>
        <time>2019-07-16T07:16:37Z</time>
      </trkpt>
      <trkpt lat="48.28495" lon="-1.98191">
        <ele>132.7</ele>
        <time>2019-07-16T07:16:38Z</time>
      </trkpt>
      <trkpt lat="48.28495" lon="-1.98188">
        <ele>132.8</ele>
        <time>2019-07-16T07:16:39Z</time>
      </trkpt>
      <trkpt lat="48.28495" lon="-1.98185">
        <ele>133</ele>
        <time>2019-07-16T07:16:40Z</time>
      </trkpt>
      <trkpt lat="48.28495" lon="-1.98182">
        <ele>133.2</ele>
        <time>2019-07-16T07:16:41Z</time>
      </trkpt>
      <trkpt lat="48.28495" lon="-1.98179">
        <ele>133.6</ele>
        <time>2019-07-16T07:16:42Z</time>
      </trkpt>
      <trkpt lat="48.28496" lon="-1.98176">
        <ele>133.8</ele>
        <time>2019-07-16T07:16:43Z</time>
      </trkpt>
      <trkpt lat="48.28495" lon="-1.98174">
        <ele>134</ele>
        <time>2019-07-16T07:16:44Z</time>
      </trkpt>
      <trkpt lat="48.28495" lon="-1.98171">
        <ele>134.4</ele>
        <time>2019-07-16T07:16:45Z</time>
      </trkpt>
      <trkpt lat="48.28496" lon="-1.98168">
        <ele>134.5</ele>
        <time>2019-07-16T07:16:46Z</time>
      </trkpt>
      <trkpt lat="48.28496" lon="-1.98164">
        <ele>134.7</ele>
        <time>2019-07-16T07:16:47Z</time>
      </trkpt>
      <trkpt lat="48.28496" lon="-1.98161">
        <ele>134.9</ele>
        <time>2019-07-16T07:16:48Z</time>
      </trkpt>
      <trkpt lat="48.28497" lon="-1.98158">
        <ele>135.1</ele>
        <time>2019-07-16T07:16:49Z</time>
      </trkpt>
      <trkpt lat="48.28497" lon="-1.98155">
        <ele>135.3</ele>
        <time>2019-07-16T07:16:50Z</time>
      </trkpt>
      <trkpt lat="48.28497" lon="-1.98152">
        <ele>135.4</ele>
        <time>2019-07-16T07:16:51Z</time>
      </trkpt>
      <trkpt lat="48.28498" lon="-1.98148">
        <ele>135.8</ele>
        <time>2019-07-16T07:16:52Z</time>
      </trkpt>
      <trkpt lat="48.28499" lon="-1.98145">
        <ele>136.1</ele>
        <time>2019-07-16T07:16:53Z</time>
      </trkpt>
      <trkpt lat="48.28499" lon="-1.98141">
        <ele>136.4</ele>
        <time>2019-07-16T07:16:54Z</time>
      </trkpt>
      <trkpt lat="48.28499" lon="-1.98138">
        <ele>136.5</ele>
        <time>2019-07-16T07:16:55Z</time>
      </trkpt>
      <trkpt lat="48.28499" lon="-1.98135">
        <ele>136.6</ele>
        <time>2019-07-16T07:16:56Z</time>
      </trkpt>
      <trkpt lat="48.28499" lon="-1.98132">
        <ele>136.5</ele>
        <time>2019-07-16T07:16:57Z</time>
      </trkpt>
      <trkpt lat="48.28499" lon="-1.98128">
        <ele>136.4</ele>
        <time>2019-07-16T07:16:58Z</time>
      </trkpt>
      <trkpt lat="48.28499" lon="-1.98125">
        <ele>136.4</ele>
        <time>2019-07-16T07:16:59Z</time>
      </trkpt>
      <trkpt lat="48.28499" lon="-1.98122">
        <ele>136.2</ele>
        <time>2019-07-16T07:17:00Z</time>
      </trkpt>
      <trkpt lat="48.28499" lon="-1.98118">
        <ele>136.3</ele>
        <time>2019-07-16T07:17:01Z</time>
      </trkpt>
      <trkpt lat="48.28499" lon="-1.98115">
        <ele>136.4</ele>
        <time>2019-07-16T07:17:02Z</time>
      </trkpt>
      <trkpt lat="48.28499" lon="-1.98112">
        <ele>136.4</ele>
        <time>2019-07-16T07:17:03Z</time>
      </trkpt>
      <trkpt lat="48.285" lon="-1.98109">
        <ele>136.4</ele>
        <time>2019-07-16T07:17:04Z</time>
      </trkpt>
      <trkpt lat="48.285" lon="-1.98106">
        <ele>136.3</ele>
        <time>2019-07-16T07:17:05Z</time>
      </trkpt>
      <trkpt lat="48.285" lon="-1.98103">
        <ele>136.4</ele>
        <time>2019-07-16T07:17:06Z</time>
      </trkpt>
      <trkpt lat="48.285" lon="-1.981">
        <ele>136.3</ele>
        <time>2019-07-16T07:17:07Z</time>
      </trkpt>
      <trkpt lat="48.285" lon="-1.98096">
        <ele>136.3</ele>
        <time>2019-07-16T07:17:08Z</time>
      </trkpt>
      <trkpt lat="48.285" lon="-1.98093">
        <ele>136.4</ele>
        <time>2019-07-16T07:17:09Z</time>
      </trkpt>
      <trkpt lat="48.285" lon="-1.9809">
        <ele>136.4</ele>
        <time>2019-07-16T07:17:10Z</time>
      </trkpt>
      <trkpt lat="48.285" lon="-1.98086">
        <ele>136.5</ele>
        <time>2019-07-16T07:17:11Z</time>
      </trkpt>
      <trkpt lat="48.285" lon="-1.98083">
        <ele>136.5</ele>
        <time>2019-07-16T07:17:12Z</time>
      </trkpt>
      <trkpt lat="48.285" lon="-1.9808">
        <ele>136.5</ele>
        <time>2019-07-16T07:17:13Z</time>
      </trkpt>
      <trkpt lat="48.285" lon="-1.98076">
        <ele>136.3</ele>
        <time>2019-07-16T07:17:14Z</time>
      </trkpt>
      <trkpt lat="48.285" lon="-1.98073">
        <ele>136.1</ele>
        <time>2019-07-16T07:17:15Z</time>
      </trkpt>
      <trkpt lat="48.28501" lon="-1.9807">
        <ele>135.9</ele>
        <time>2019-07-16T07:17:16Z</time>
      </trkpt>
      <trkpt lat="48.28501" lon="-1.98067">
        <ele>136</ele>
        <time>2019-07-16T07:17:17Z</time>
      </trkpt>
      <trkpt lat="48.28501" lon="-1.98063">
        <ele>136</ele>
        <time>2019-07-16T07:17:18Z</time>
      </trkpt>
      <trkpt lat="48.28501" lon="-1.9806">
        <ele>136</ele>
        <time>2019-07-16T07:17:19Z</time>
      </trkpt>
      <trkpt lat="48.28502" lon="-1.98056">
        <ele>136.2</ele>
        <time>2019-07-16T07:17:20Z</time>
      </trkpt>
      <trkpt lat="48.28502" lon="-1.98053">
        <ele>136.4</ele>
        <time>2019-07-16T07:17:21Z</time>
      </trkpt>
      <trkpt lat="48.28502" lon="-1.9805">
        <ele>136.5</ele>
        <time>2019-07-16T07:17:22Z</time>
      </trkpt>
      <trkpt lat="48.28502" lon="-1.98046">
        <ele>136.5</ele>
        <time>2019-07-16T07:17:23Z</time>
      </trkpt>
      <trkpt lat="48.28502" lon="-1.98042">
        <ele>136.7</ele>
        <time>2019-07-16T07:17:24Z</time>
      </trkpt>
      <trkpt lat="48.28502" lon="-1.98038">
        <ele>136.8</ele>
        <time>2019-07-16T07:17:25Z</time>
      </trkpt>
      <trkpt lat="48.28502" lon="-1.98034">
        <ele>136.5</ele>
        <time>2019-07-16T07:17:26Z</time>
      </trkpt>
      <trkpt lat="48.28502" lon="-1.98031">
        <ele>136.9</ele>
        <time>2019-07-16T07:17:27Z</time>
      </trkpt>
      <trkpt lat="48.28502" lon="-1.98027">
        <ele>136.9</ele>
        <time>2019-07-16T07:17:28Z</time>
      </trkpt>
      <trkpt lat="48.28503" lon="-1.98024">
        <ele>137.3</ele>
        <time>2019-07-16T07:17:29Z</time>
      </trkpt>
      <trkpt lat="48.28503" lon="-1.9802">
        <ele>137.2</ele>
        <time>2019-07-16T07:17:30Z</time>
      </trkpt>
      <trkpt lat="48.28503" lon="-1.98017">
        <ele>137.2</ele>
        <time>2019-07-16T07:17:31Z</time>
      </trkpt>
      <trkpt lat="48.28503" lon="-1.98013">
        <ele>137.4</ele>
        <time>2019-07-16T07:17:32Z</time>
      </trkpt>
      <trkpt lat="48.28504" lon="-1.9801">
        <ele>137.6</ele>
        <time>2019-07-16T07:17:33Z</time>
      </trkpt>
      <trkpt lat="48.28504" lon="-1.98006">
        <ele>137.7</ele>
        <time>2019-07-16T07:17:34Z</time>
      </trkpt>
      <trkpt lat="48.28504" lon="-1.98003">
        <ele>137.9</ele>
        <time>2019-07-16T07:17:35Z</time>
      </trkpt>
      <trkpt lat="48.28504" lon="-1.97999">
        <ele>138</ele>
        <time>2019-07-16T07:17:36Z</time>
      </trkpt>
      <trkpt lat="48.28504" lon="-1.97996">
        <ele>138</ele>
        <time>2019-07-16T07:17:37Z</time>
      </trkpt>
      <trkpt lat="48.28504" lon="-1.97992">
        <ele>138</ele>
        <time>2019-07-16T07:17:38Z</time>
      </trkpt>
      <trkpt lat="48.28504" lon="-1.97989">
        <ele>138.1</ele>
        <time>2019-07-16T07:17:39Z</time>
      </trkpt>
      <trkpt lat="48.28504" lon="-1.97985">
        <ele>138.2</ele>
        <time>2019-07-16T07:17:40Z</time>
      </trkpt>
      <trkpt lat="48.28505" lon="-1.97981">
        <ele>138</ele>
        <time>2019-07-16T07:17:41Z</time>
      </trkpt>
      <trkpt lat="48.28505" lon="-1.97977">
        <ele>138</ele>
        <time>2019-07-16T07:17:42Z</time>
      </trkpt>
      <trkpt lat="48.28505" lon="-1.97973">
        <ele>138</ele>
        <time>2019-07-16T07:17:43Z</time>
      </trkpt>
      <trkpt lat="48.28505" lon="-1.9797">
        <ele>137.9</ele>
        <time>2019-07-16T07:17:44Z</time>
      </trkpt>
      <trkpt lat="48.28505" lon="-1.97966">
        <ele>138</ele>
        <time>2019-07-16T07:17:45Z</time>
      </trkpt>
      <trkpt lat="48.28505" lon="-1.97962">
        <ele>138</ele>
        <time>2019-07-16T07:17:46Z</time>
      </trkpt>
      <trkpt lat="48.28505" lon="-1.97958">
        <ele>138</ele>
        <time>2019-07-16T07:17:47Z</time>
      </trkpt>
      <trkpt lat="48.28506" lon="-1.97954">
        <ele>138.2</ele>
        <time>2019-07-16T07:17:48Z</time>
      </trkpt>
      <trkpt lat="48.28506" lon="-1.97951">
        <ele>138.3</ele>
        <time>2019-07-16T07:17:49Z</time>
      </trkpt>
      <trkpt lat="48.28506" lon="-1.97947">
        <ele>138.6</ele>
        <time>2019-07-16T07:17:50Z</time>
      </trkpt>
      <trkpt lat="48.28506" lon="-1.97943">
        <ele>138.5</ele>
        <time>2019-07-16T07:17:51Z</time>
      </trkpt>
      <trkpt lat="48.28506" lon="-1.97939">
        <ele>138.6</ele>
        <time>2019-07-16T07:17:52Z</time>
      </trkpt>
      <trkpt lat="48.28507" lon="-1.97935">
        <ele>138.9</ele>
        <time>2019-07-16T07:17:53Z</time>
      </trkpt>
      <trkpt lat="48.28507" lon="-1.97931">
        <ele>139.2</ele>
        <time>2019-07-16T07:17:54Z</time>
      </trkpt>
      <trkpt lat="48.28508" lon="-1.97927">
        <ele>139.4</ele>
        <time>2019-07-16T07:17:55Z</time>
      </trkpt>
      <trkpt lat="48.28508" lon="-1.97923">
        <ele>139.5</ele>
        <time>2019-07-16T07:17:56Z</time>
      </trkpt>
      <trkpt lat="48.28508" lon="-1.97919">
        <ele>139.7</ele>
        <time>2019-07-16T07:17:57Z</time>
      </trkpt>
      <trkpt lat="48.28509" lon="-1.97915">
        <ele>140</ele>
        <time>2019-07-16T07:17:58Z</time>
      </trkpt>
      <trkpt lat="48.28509" lon="-1.97911">
        <ele>140</ele>
        <time>2019-07-16T07:17:59Z</time>
      </trkpt>
      <trkpt lat="48.2851" lon="-1.97907">
        <ele>140.1</ele>
        <time>2019-07-16T07:18:00Z</time>
      </trkpt>
      <trkpt lat="48.2851" lon="-1.97904">
        <ele>140.1</ele>
        <time>2019-07-16T07:18:01Z</time>
      </trkpt>
      <trkpt lat="48.2851" lon="-1.97901">
        <ele>140.3</ele>
        <time>2019-07-16T07:18:02Z</time>
      </trkpt>
      <trkpt lat="48.2851" lon="-1.97898">
        <ele>140.4</ele>
        <time>2019-07-16T07:18:03Z</time>
      </trkpt>
      <trkpt lat="48.28511" lon="-1.97894">
        <ele>140.2</ele>
        <time>2019-07-16T07:18:04Z</time>
      </trkpt>
      <trkpt lat="48.28511" lon="-1.97891">
        <ele>140.1</ele>
        <time>2019-07-16T07:18:05Z</time>
      </trkpt>
      <trkpt lat="48.28511" lon="-1.97887">
        <ele>140</ele>
        <time>2019-07-16T07:18:06Z</time>
      </trkpt>
      <trkpt lat="48.28511" lon="-1.97884">
        <ele>140.1</ele>
        <time>2019-07-16T07:18:07Z</time>
      </trkpt>
      <trkpt lat="48.28511" lon="-1.9788">
        <ele>140.3</ele>
        <time>2019-07-16T07:18:08Z</time>
      </trkpt>
      <trkpt lat="48.28511" lon="-1.97876">
        <ele>139.9</ele>
        <time>2019-07-16T07:18:09Z</time>
      </trkpt>
      <trkpt lat="48.28511" lon="-1.97872">
        <ele>139.6</ele>
        <time>2019-07-16T07:18:10Z</time>
      </trkpt>
      <trkpt lat="48.28511" lon="-1.97868">
        <ele>139.5</ele>
        <time>2019-07-16T07:18:11Z</time>
      </trkpt>
      <trkpt lat="48.28511" lon="-1.97864">
        <ele>139.3</ele>
        <time>2019-07-16T07:18:12Z</time>
      </trkpt>
      <trkpt lat="48.28511" lon="-1.9786">
        <ele>139.5</ele>
        <time>2019-07-16T07:18:13Z</time>
      </trkpt>
      <trkpt lat="48.28511" lon="-1.97855">
        <ele>139.7</ele>
        <time>2019-07-16T07:18:14Z</time>
      </trkpt>
      <trkpt lat="48.28511" lon="-1.97851">
        <ele>139.7</ele>
        <time>2019-07-16T07:18:15Z</time>
      </trkpt>
      <trkpt lat="48.28511" lon="-1.97846">
        <ele>139.7</ele>
        <time>2019-07-16T07:18:16Z</time>
      </trkpt>
      <trkpt lat="48.28511" lon="-1.97842">
        <ele>139.9</ele>
        <time>2019-07-16T07:18:17Z</time>
      </trkpt>
      <trkpt lat="48.28511" lon="-1.97838">
        <ele>139.9</ele>
        <time>2019-07-16T07:18:18Z</time>
      </trkpt>
      <trkpt lat="48.28511" lon="-1.97833">
        <ele>140</ele>
        <time>2019-07-16T07:18:19Z</time>
      </trkpt>
      <trkpt lat="48.28512" lon="-1.97828">
        <ele>140</ele>
        <time>2019-07-16T07:18:20Z</time>
      </trkpt>
      <trkpt lat="48.28512" lon="-1.97824">
        <ele>140</ele>
        <time>2019-07-16T07:18:21Z</time>
      </trkpt>
      <trkpt lat="48.28512" lon="-1.97819">
        <ele>139.9</ele>
        <time>2019-07-16T07:18:22Z</time>
      </trkpt>
      <trkpt lat="48.28513" lon="-1.97814">
        <ele>139.6</ele>
        <time>2019-07-16T07:18:23Z</time>
      </trkpt>
      <trkpt lat="48.28513" lon="-1.97809">
        <ele>139.5</ele>
        <time>2019-07-16T07:18:24Z</time>
      </trkpt>
      <trkpt lat="48.28513" lon="-1.97804">
        <ele>139.6</ele>
        <time>2019-07-16T07:18:25Z</time>
      </trkpt>
      <trkpt lat="48.28514" lon="-1.97799">
        <ele>139.7</ele>
        <time>2019-07-16T07:18:26Z</time>
      </trkpt>
      <trkpt lat="48.28514" lon="-1.97794">
        <ele>139.8</ele>
        <time>2019-07-16T07:18:27Z</time>
      </trkpt>
      <trkpt lat="48.28514" lon="-1.97789">
        <ele>139.8</ele>
        <time>2019-07-16T07:18:28Z</time>
      </trkpt>
      <trkpt lat="48.28515" lon="-1.97784">
        <ele>140</ele>
        <time>2019-07-16T07:18:29Z</time>
      </trkpt>
      <trkpt lat="48.28515" lon="-1.97779">
        <ele>140.1</ele>
        <time>2019-07-16T07:18:30Z</time>
      </trkpt>
      <trkpt lat="48.28516" lon="-1.97774">
        <ele>140.2</ele>
        <time>2019-07-16T07:18:31Z</time>
      </trkpt>
      <trkpt lat="48.28516" lon="-1.97769">
        <ele>139.9</ele>
        <time>2019-07-16T07:18:32Z</time>
      </trkpt>
      <trkpt lat="48.28516" lon="-1.97764">
        <ele>139.5</ele>
        <time>2019-07-16T07:18:33Z</time>
      </trkpt>
      <trkpt lat="48.28516" lon="-1.97759">
        <ele>139.1</ele>
        <time>2019-07-16T07:18:34Z</time>
      </trkpt>
      <trkpt lat="48.28516" lon="-1.97754">
        <ele>138.8</ele>
        <time>2019-07-16T07:18:35Z</time>
      </trkpt>
      <trkpt lat="48.28516" lon="-1.97749">
        <ele>138.9</ele>
        <time>2019-07-16T07:18:36Z</time>
      </trkpt>
      <trkpt lat="48.28516" lon="-1.97744">
        <ele>138.9</ele>
        <time>2019-07-16T07:18:37Z</time>
      </trkpt>
      <trkpt lat="48.28516" lon="-1.97739">
        <ele>139.1</ele>
        <time>2019-07-16T07:18:38Z</time>
      </trkpt>
      <trkpt lat="48.28516" lon="-1.97734">
        <ele>139.2</ele>
        <time>2019-07-16T07:18:39Z</time>
      </trkpt>
      <trkpt lat="48.28517" lon="-1.97729">
        <ele>139.2</ele>
        <time>2019-07-16T07:18:40Z</time>
      </trkpt>
      <trkpt lat="48.28517" lon="-1.97723">
        <ele>139.5</ele>
        <time>2019-07-16T07:18:41Z</time>
      </trkpt>
      <trkpt lat="48.28517" lon="-1.97718">
        <ele>139.6</ele>
        <time>2019-07-16T07:18:42Z</time>
      </trkpt>
      <trkpt lat="48.28517" lon="-1.97713">
        <ele>140.2</ele>
        <time>2019-07-16T07:18:43Z</time>
      </trkpt>
      <trkpt lat="48.28517" lon="-1.97708">
        <ele>140.4</ele>
        <time>2019-07-16T07:18:44Z</time>
      </trkpt>
      <trkpt lat="48.28518" lon="-1.97703">
        <ele>140.5</ele>
        <time>2019-07-16T07:18:45Z</time>
      </trkpt>
      <trkpt lat="48.28518" lon="-1.97698">
        <ele>140.8</ele>
        <time>2019-07-16T07:18:46Z</time>
      </trkpt>
      <trkpt lat="48.28518" lon="-1.97693">
        <ele>140.9</ele>
        <time>2019-07-16T07:18:47Z</time>
      </trkpt>
      <trkpt lat="48.28518" lon="-1.97687">
        <ele>140.9</ele>
        <time>2019-07-16T07:18:48Z</time>
      </trkpt>
      <trkpt lat="48.28518" lon="-1.97682">
        <ele>141.2</ele>
        <time>2019-07-16T07:18:49Z</time>
      </trkpt>
      <trkpt lat="48.28518" lon="-1.97677">
        <ele>141.2</ele>
        <time>2019-07-16T07:18:50Z</time>
      </trkpt>
      <trkpt lat="48.28518" lon="-1.97672">
        <ele>141.4</ele>
        <time>2019-07-16T07:18:51Z</time>
      </trkpt>
      <trkpt lat="48.28517" lon="-1.97667">
        <ele>141.5</ele>
        <time>2019-07-16T07:18:52Z</time>
      </trkpt>
      <trkpt lat="48.28517" lon="-1.97662">
        <ele>141.5</ele>
        <time>2019-07-16T07:18:53Z</time>
      </trkpt>
      <trkpt lat="48.28517" lon="-1.97657">
        <ele>141.9</ele>
        <time>2019-07-16T07:18:54Z</time>
      </trkpt>
      <trkpt lat="48.28517" lon="-1.97652">
        <ele>142.1</ele>
        <time>2019-07-16T07:18:55Z</time>
      </trkpt>
      <trkpt lat="48.28517" lon="-1.97647">
        <ele>142.3</ele>
        <time>2019-07-16T07:18:56Z</time>
      </trkpt>
      <trkpt lat="48.28517" lon="-1.97642">
        <ele>142.4</ele>
        <time>2019-07-16T07:18:57Z</time>
      </trkpt>
      <trkpt lat="48.28517" lon="-1.97637">
        <ele>142.4</ele>
        <time>2019-07-16T07:18:58Z</time>
      </trkpt>
      <trkpt lat="48.28517" lon="-1.97632">
        <ele>142.4</ele>
        <time>2019-07-16T07:18:59Z</time>
      </trkpt>
      <trkpt lat="48.28517" lon="-1.97627">
        <ele>142.3</ele>
        <time>2019-07-16T07:19:00Z</time>
      </trkpt>
      <trkpt lat="48.28516" lon="-1.97622">
        <ele>142.1</ele>
        <time>2019-07-16T07:19:01Z</time>
      </trkpt>
      <trkpt lat="48.28516" lon="-1.97617">
        <ele>141.9</ele>
        <time>2019-07-16T07:19:02Z</time>
      </trkpt>
      <trkpt lat="48.28516" lon="-1.97612">
        <ele>141.8</ele>
        <time>2019-07-16T07:19:03Z</time>
      </trkpt>
      <trkpt lat="48.28516" lon="-1.97607">
        <ele>141.7</ele>
        <time>2019-07-16T07:19:04Z</time>
      </trkpt>
      <trkpt lat="48.28515" lon="-1.97602">
        <ele>141.7</ele>
        <time>2019-07-16T07:19:05Z</time>
      </trkpt>
      <trkpt lat="48.28515" lon="-1.97597">
        <ele>141.5</ele>
        <time>2019-07-16T07:19:06Z</time>
      </trkpt>
      <trkpt lat="48.28515" lon="-1.97592">
        <ele>141.4</ele>
        <time>2019-07-16T07:19:07Z</time>
      </trkpt>
      <trkpt lat="48.28515" lon="-1.97587">
        <ele>141.4</ele>
        <time>2019-07-16T07:19:08Z</time>
      </trkpt>
      <trkpt lat="48.28515" lon="-1.97582">
        <ele>141.3</ele>
        <time>2019-07-16T07:19:09Z</time>
      </trkpt>
      <trkpt lat="48.28514" lon="-1.97577">
        <ele>141.4</ele>
        <time>2019-07-16T07:19:10Z</time>
      </trkpt>
      <trkpt lat="48.28514" lon="-1.97572">
        <ele>141.5</ele>
        <time>2019-07-16T07:19:11Z</time>
      </trkpt>
      <trkpt lat="48.28514" lon="-1.97567">
        <ele>141.5</ele>
        <time>2019-07-16T07:19:12Z</time>
      </trkpt>
      <trkpt lat="48.28513" lon="-1.97562">
        <ele>141.6</ele>
        <time>2019-07-16T07:19:13Z</time>
      </trkpt>
      <trkpt lat="48.28513" lon="-1.97557">
        <ele>141.7</ele>
        <time>2019-07-16T07:19:14Z</time>
      </trkpt>
      <trkpt lat="48.28513" lon="-1.97552">
        <ele>141.9</ele>
        <time>2019-07-16T07:19:15Z</time>
      </trkpt>
      <trkpt lat="48.28513" lon="-1.97547">
        <ele>142.3</ele>
        <time>2019-07-16T07:19:16Z</time>
      </trkpt>
      <trkpt lat="48.28513" lon="-1.97542">
        <ele>142.6</ele>
        <time>2019-07-16T07:19:17Z</time>
      </trkpt>
      <trkpt lat="48.28513" lon="-1.97536">
        <ele>142.8</ele>
        <time>2019-07-16T07:19:18Z</time>
      </trkpt>
      <trkpt lat="48.28513" lon="-1.97531">
        <ele>143.1</ele>
        <time>2019-07-16T07:19:19Z</time>
      </trkpt>
      <trkpt lat="48.28512" lon="-1.97526">
        <ele>143.3</ele>
        <time>2019-07-16T07:19:20Z</time>
      </trkpt>
      <trkpt lat="48.28512" lon="-1.97521">
        <ele>143.4</ele>
        <time>2019-07-16T07:19:21Z</time>
      </trkpt>
      <trkpt lat="48.28512" lon="-1.97516">
        <ele>143.6</ele>
        <time>2019-07-16T07:19:22Z</time>
      </trkpt>
      <trkpt lat="48.28512" lon="-1.97511">
        <ele>143.6</ele>
        <time>2019-07-16T07:19:23Z</time>
      </trkpt>
      <trkpt lat="48.28512" lon="-1.97506">
        <ele>143.5</ele>
        <time>2019-07-16T07:19:24Z</time>
      </trkpt>
      <trkpt lat="48.28512" lon="-1.975">
        <ele>143.4</ele>
        <time>2019-07-16T07:19:25Z</time>
      </trkpt>
      <trkpt lat="48.28511" lon="-1.97495">
        <ele>143.2</ele>
        <time>2019-07-16T07:19:26Z</time>
      </trkpt>
      <trkpt lat="48.28511" lon="-1.9749">
        <ele>143.1</ele>
        <time>2019-07-16T07:19:27Z</time>
      </trkpt>
      <trkpt lat="48.28511" lon="-1.97485">
        <ele>142.8</ele>
        <time>2019-07-16T07:19:28Z</time>
      </trkpt>
      <trkpt lat="48.2851" lon="-1.9748">
        <ele>142.6</ele>
        <time>2019-07-16T07:19:29Z</time>
      </trkpt>
      <trkpt lat="48.2851" lon="-1.97474">
        <ele>142.6</ele>
        <time>2019-07-16T07:19:30Z</time>
      </trkpt>
      <trkpt lat="48.2851" lon="-1.97468">
        <ele>142.7</ele>
        <time>2019-07-16T07:19:31Z</time>
      </trkpt>
      <trkpt lat="48.2851" lon="-1.97463">
        <ele>142.8</ele>
        <time>2019-07-16T07:19:32Z</time>
      </trkpt>
      <trkpt lat="48.2851" lon="-1.97457">
        <ele>142.8</ele>
        <time>2019-07-16T07:19:33Z</time>
      </trkpt>
      <trkpt lat="48.28509" lon="-1.97451">
        <ele>142.9</ele>
        <time>2019-07-16T07:19:34Z</time>
      </trkpt>
      <trkpt lat="48.28508" lon="-1.97445">
        <ele>143</ele>
        <time>2019-07-16T07:19:35Z</time>
      </trkpt>
      <trkpt lat="48.28508" lon="-1.97439">
        <ele>143</ele>
        <time>2019-07-16T07:19:36Z</time>
      </trkpt>
      <trkpt lat="48.28508" lon="-1.97433">
        <ele>143.2</ele>
        <time>2019-07-16T07:19:37Z</time>
      </trkpt>
      <trkpt lat="48.28507" lon="-1.97427">
        <ele>143.2</ele>
        <time>2019-07-16T07:19:38Z</time>
      </trkpt>
      <trkpt lat="48.28507" lon="-1.97421">
        <ele>143</ele>
        <time>2019-07-16T07:19:39Z</time>
      </trkpt>
      <trkpt lat="48.28507" lon="-1.97415">
        <ele>143</ele>
        <time>2019-07-16T07:19:40Z</time>
      </trkpt>
      <trkpt lat="48.28507" lon="-1.9741">
        <ele>142.8</ele>
        <time>2019-07-16T07:19:41Z</time>
      </trkpt>
      <trkpt lat="48.28506" lon="-1.97404">
        <ele>142.8</ele>
        <time>2019-07-16T07:19:42Z</time>
      </trkpt>
      <trkpt lat="48.28506" lon="-1.97398">
        <ele>142.9</ele>
        <time>2019-07-16T07:19:43Z</time>
      </trkpt>
      <trkpt lat="48.28506" lon="-1.97392">
        <ele>143.1</ele>
        <time>2019-07-16T07:19:44Z</time>
      </trkpt>
      <trkpt lat="48.28506" lon="-1.97387">
        <ele>143.3</ele>
        <time>2019-07-16T07:19:45Z</time>
      </trkpt>
      <trkpt lat="48.28505" lon="-1.97381">
        <ele>143.6</ele>
        <time>2019-07-16T07:19:46Z</time>
      </trkpt>
      <trkpt lat="48.28505" lon="-1.97375">
        <ele>144</ele>
        <time>2019-07-16T07:19:47Z</time>
      </trkpt>
      <trkpt lat="48.28505" lon="-1.9737">
        <ele>144.2</ele>
        <time>2019-07-16T07:19:48Z</time>
      </trkpt>
      <trkpt lat="48.28504" lon="-1.97364">
        <ele>144.3</ele>
        <time>2019-07-16T07:19:49Z</time>
      </trkpt>
      <trkpt lat="48.28504" lon="-1.97358">
        <ele>144.3</ele>
        <time>2019-07-16T07:19:50Z</time>
      </trkpt>
      <trkpt lat="48.28503" lon="-1.97352">
        <ele>144.5</ele>
        <time>2019-07-16T07:19:51Z</time>
      </trkpt>
      <trkpt lat="48.28503" lon="-1.97346">
        <ele>144.5</ele>
        <time>2019-07-16T07:19:52Z</time>
      </trkpt>
      <trkpt lat="48.28503" lon="-1.97341">
        <ele>144.4</ele>
        <time>2019-07-16T07:19:53Z</time>
      </trkpt>
      <trkpt lat="48.28503" lon="-1.97335">
        <ele>144.3</ele>
        <time>2019-07-16T07:19:54Z</time>
      </trkpt>
      <trkpt lat="48.28502" lon="-1.97329">
        <ele>144</ele>
        <time>2019-07-16T07:19:55Z</time>
      </trkpt>
      <trkpt lat="48.28502" lon="-1.97324">
        <ele>143.8</ele>
        <time>2019-07-16T07:19:56Z</time>
      </trkpt>
      <trkpt lat="48.28502" lon="-1.97318">
        <ele>143.6</ele>
        <time>2019-07-16T07:19:57Z</time>
      </trkpt>
      <trkpt lat="48.28501" lon="-1.97312">
        <ele>143.5</ele>
        <time>2019-07-16T07:19:58Z</time>
      </trkpt>
      <trkpt lat="48.28501" lon="-1.97307">
        <ele>143.5</ele>
        <time>2019-07-16T07:19:59Z</time>
      </trkpt>
      <trkpt lat="48.28501" lon="-1.97302">
        <ele>143.7</ele>
        <time>2019-07-16T07:20:00Z</time>
      </trkpt>
      <trkpt lat="48.285" lon="-1.97296">
        <ele>143.8</ele>
        <time>2019-07-16T07:20:01Z</time>
      </trkpt>
      <trkpt lat="48.285" lon="-1.97291">
        <ele>144</ele>
        <time>2019-07-16T07:20:02Z</time>
      </trkpt>
      <trkpt lat="48.285" lon="-1.97286">
        <ele>144.1</ele>
        <time>2019-07-16T07:20:03Z</time>
      </trkpt>
      <trkpt lat="48.285" lon="-1.97281">
        <ele>144.3</ele>
        <time>2019-07-16T07:20:04Z</time>
      </trkpt>
      <trkpt lat="48.28499" lon="-1.97276">
        <ele>144.2</ele>
        <time>2019-07-16T07:20:05Z</time>
      </trkpt>
      <trkpt lat="48.28499" lon="-1.9727">
        <ele>144.2</ele>
        <time>2019-07-16T07:20:06Z</time>
      </trkpt>
      <trkpt lat="48.28498" lon="-1.97265">
        <ele>144.2</ele>
        <time>2019-07-16T07:20:07Z</time>
      </trkpt>
      <trkpt lat="48.28498" lon="-1.9726">
        <ele>144.2</ele>
        <time>2019-07-16T07:20:08Z</time>
      </trkpt>
      <trkpt lat="48.28498" lon="-1.97255">
        <ele>144.5</ele>
        <time>2019-07-16T07:20:09Z</time>
      </trkpt>
      <trkpt lat="48.28498" lon="-1.9725">
        <ele>144.7</ele>
        <time>2019-07-16T07:20:10Z</time>
      </trkpt>
      <trkpt lat="48.28498" lon="-1.97245">
        <ele>144.9</ele>
        <time>2019-07-16T07:20:11Z</time>
      </trkpt>
      <trkpt lat="48.28498" lon="-1.9724">
        <ele>145</ele>
        <time>2019-07-16T07:20:12Z</time>
      </trkpt>
      <trkpt lat="48.28497" lon="-1.97236">
        <ele>145.1</ele>
        <time>2019-07-16T07:20:13Z</time>
      </trkpt>
      <trkpt lat="48.28497" lon="-1.97231">
        <ele>144.8</ele>
        <time>2019-07-16T07:20:14Z</time>
      </trkpt>
      <trkpt lat="48.28497" lon="-1.97226">
        <ele>144.5</ele>
        <time>2019-07-16T07:20:15Z</time>
      </trkpt>
      <trkpt lat="48.28497" lon="-1.97222">
        <ele>144.3</ele>
        <time>2019-07-16T07:20:16Z</time>
      </trkpt>
      <trkpt lat="48.28497" lon="-1.97217">
        <ele>144</ele>
        <time>2019-07-16T07:20:17Z</time>
      </trkpt>
      <trkpt lat="48.28497" lon="-1.97213">
        <ele>143.9</ele>
        <time>2019-07-16T07:20:18Z</time>
      </trkpt>
      <trkpt lat="48.28497" lon="-1.97209">
        <ele>144.1</ele>
        <time>2019-07-16T07:20:19Z</time>
      </trkpt>
      <trkpt lat="48.28497" lon="-1.97205">
        <ele>144.2</ele>
        <time>2019-07-16T07:20:20Z</time>
      </trkpt>
      <trkpt lat="48.28497" lon="-1.972">
        <ele>144.3</ele>
        <time>2019-07-16T07:20:21Z</time>
      </trkpt>
      <trkpt lat="48.28497" lon="-1.97196">
        <ele>144.5</ele>
        <time>2019-07-16T07:20:22Z</time>
      </trkpt>
      <trkpt lat="48.28497" lon="-1.97191">
        <ele>144.7</ele>
        <time>2019-07-16T07:20:23Z</time>
      </trkpt>
      <trkpt lat="48.28497" lon="-1.97187">
        <ele>144.8</ele>
        <time>2019-07-16T07:20:24Z</time>
      </trkpt>
      <trkpt lat="48.28497" lon="-1.97182">
        <ele>145</ele>
        <time>2019-07-16T07:20:25Z</time>
      </trkpt>
      <trkpt lat="48.28497" lon="-1.97178">
        <ele>145.3</ele>
        <time>2019-07-16T07:20:26Z</time>
      </trkpt>
      <trkpt lat="48.28497" lon="-1.97174">
        <ele>145.9</ele>
        <time>2019-07-16T07:20:27Z</time>
      </trkpt>
      <trkpt lat="48.28496" lon="-1.9717">
        <ele>146</ele>
        <time>2019-07-16T07:20:28Z</time>
      </trkpt>
      <trkpt lat="48.28496" lon="-1.97165">
        <ele>146.4</ele>
        <time>2019-07-16T07:20:29Z</time>
      </trkpt>
      <trkpt lat="48.28496" lon="-1.97161">
        <ele>146.7</ele>
        <time>2019-07-16T07:20:30Z</time>
      </trkpt>
      <trkpt lat="48.28496" lon="-1.97157">
        <ele>146.9</ele>
        <time>2019-07-16T07:20:31Z</time>
      </trkpt>
      <trkpt lat="48.28496" lon="-1.97152">
        <ele>147.2</ele>
        <time>2019-07-16T07:20:32Z</time>
      </trkpt>
      <trkpt lat="48.28496" lon="-1.97148">
        <ele>147.2</ele>
        <time>2019-07-16T07:20:33Z</time>
      </trkpt>
      <trkpt lat="48.28496" lon="-1.97144">
        <ele>147.1</ele>
        <time>2019-07-16T07:20:34Z</time>
      </trkpt>
      <trkpt lat="48.28496" lon="-1.97139">
        <ele>147</ele>
        <time>2019-07-16T07:20:35Z</time>
      </trkpt>
      <trkpt lat="48.28496" lon="-1.97135">
        <ele>146.9</ele>
        <time>2019-07-16T07:20:36Z</time>
      </trkpt>
      <trkpt lat="48.28496" lon="-1.9713">
        <ele>147.1</ele>
        <time>2019-07-16T07:20:37Z</time>
      </trkpt>
      <trkpt lat="48.28496" lon="-1.97126">
        <ele>147.6</ele>
        <time>2019-07-16T07:20:38Z</time>
      </trkpt>
      <trkpt lat="48.28496" lon="-1.97121">
        <ele>148.1</ele>
        <time>2019-07-16T07:20:39Z</time>
      </trkpt>
      <trkpt lat="48.28497" lon="-1.97117">
        <ele>148.2</ele>
        <time>2019-07-16T07:20:40Z</time>
      </trkpt>
      <trkpt lat="48.28497" lon="-1.97112">
        <ele>148.3</ele>
        <time>2019-07-16T07:20:41Z</time>
      </trkpt>
      <trkpt lat="48.28497" lon="-1.97108">
        <ele>148.4</ele>
        <time>2019-07-16T07:20:42Z</time>
      </trkpt>
      <trkpt lat="48.28497" lon="-1.97103">
        <ele>148.6</ele>
        <time>2019-07-16T07:20:43Z</time>
      </trkpt>
      <trkpt lat="48.28497" lon="-1.97098">
        <ele>148.7</ele>
        <time>2019-07-16T07:20:44Z</time>
      </trkpt>
      <trkpt lat="48.28497" lon="-1.97094">
        <ele>148.7</ele>
        <time>2019-07-16T07:20:45Z</time>
      </trkpt>
      <trkpt lat="48.28498" lon="-1.97089">
        <ele>148.7</ele>
        <time>2019-07-16T07:20:46Z</time>
      </trkpt>
      <trkpt lat="48.28499" lon="-1.97084">
        <ele>148.7</ele>
        <time>2019-07-16T07:20:47Z</time>
      </trkpt>
      <trkpt lat="48.28499" lon="-1.97079">
        <ele>148.7</ele>
        <time>2019-07-16T07:20:48Z</time>
      </trkpt>
      <trkpt lat="48.285" lon="-1.97074">
        <ele>148.6</ele>
        <time>2019-07-16T07:20:49Z</time>
      </trkpt>
      <trkpt lat="48.28501" lon="-1.97069">
        <ele>148.6</ele>
        <time>2019-07-16T07:20:50Z</time>
      </trkpt>
      <trkpt lat="48.28502" lon="-1.97064">
        <ele>148.6</ele>
        <time>2019-07-16T07:20:51Z</time>
      </trkpt>
      <trkpt lat="48.28503" lon="-1.97059">
        <ele>148.5</ele>
        <time>2019-07-16T07:20:52Z</time>
      </trkpt>
      <trkpt lat="48.28504" lon="-1.97054">
        <ele>148.5</ele>
        <time>2019-07-16T07:20:53Z</time>
      </trkpt>
      <trkpt lat="48.28506" lon="-1.97049">
        <ele>148.7</ele>
        <time>2019-07-16T07:20:54Z</time>
      </trkpt>
      <trkpt lat="48.28508" lon="-1.97043">
        <ele>148.6</ele>
        <time>2019-07-16T07:20:55Z</time>
      </trkpt>
      <trkpt lat="48.28511" lon="-1.97039">
        <ele>148.5</ele>
        <time>2019-07-16T07:20:56Z</time>
      </trkpt>
      <trkpt lat="48.28513" lon="-1.97033">
        <ele>148.2</ele>
        <time>2019-07-16T07:20:57Z</time>
      </trkpt>
      <trkpt lat="48.28515" lon="-1.97028">
        <ele>148.1</ele>
        <time>2019-07-16T07:20:58Z</time>
      </trkpt>
      <trkpt lat="48.28518" lon="-1.97023">
        <ele>147.7</ele>
        <time>2019-07-16T07:20:59Z</time>
      </trkpt>
      <trkpt lat="48.28521" lon="-1.97018">
        <ele>147.2</ele>
        <time>2019-07-16T07:21:00Z</time>
      </trkpt>
      <trkpt lat="48.28524" lon="-1.97013">
        <ele>146.7</ele>
        <time>2019-07-16T07:21:01Z</time>
      </trkpt>
      <trkpt lat="48.28528" lon="-1.97009">
        <ele>147</ele>
        <time>2019-07-16T07:21:02Z</time>
      </trkpt>
      <trkpt lat="48.28532" lon="-1.97004">
        <ele>147.2</ele>
        <time>2019-07-16T07:21:03Z</time>
      </trkpt>
      <trkpt lat="48.28536" lon="-1.97001">
        <ele>147.5</ele>
        <time>2019-07-16T07:21:04Z</time>
      </trkpt>
      <trkpt lat="48.2854" lon="-1.96996">
        <ele>147.5</ele>
        <time>2019-07-16T07:21:05Z</time>
      </trkpt>
      <trkpt lat="48.28544" lon="-1.96993">
        <ele>147.6</ele>
        <time>2019-07-16T07:21:06Z</time>
      </trkpt>
      <trkpt lat="48.28548" lon="-1.96989">
        <ele>147.5</ele>
        <time>2019-07-16T07:21:07Z</time>
      </trkpt>
      <trkpt lat="48.28552" lon="-1.96986">
        <ele>147.4</ele>
        <time>2019-07-16T07:21:08Z</time>
      </trkpt>
      <trkpt lat="48.28556" lon="-1.96982">
        <ele>147.5</ele>
        <time>2019-07-16T07:21:09Z</time>
      </trkpt>
      <trkpt lat="48.2856" lon="-1.96979">
        <ele>147.7</ele>
        <time>2019-07-16T07:21:10Z</time>
      </trkpt>
      <trkpt lat="48.28564" lon="-1.96976">
        <ele>147.7</ele>
        <time>2019-07-16T07:21:11Z</time>
      </trkpt>
      <trkpt lat="48.28569" lon="-1.96973">
        <ele>147.9</ele>
        <time>2019-07-16T07:21:12Z</time>
      </trkpt>
      <trkpt lat="48.28573" lon="-1.9697">
        <ele>148.2</ele>
        <time>2019-07-16T07:21:13Z</time>
      </trkpt>
      <trkpt lat="48.28577" lon="-1.96968">
        <ele>148.6</ele>
        <time>2019-07-16T07:21:14Z</time>
      </trkpt>
      <trkpt lat="48.28582" lon="-1.96965">
        <ele>148.4</ele>
        <time>2019-07-16T07:21:15Z</time>
      </trkpt>
      <trkpt lat="48.28586" lon="-1.96963">
        <ele>148.3</ele>
        <time>2019-07-16T07:21:16Z</time>
      </trkpt>
      <trkpt lat="48.2859" lon="-1.9696">
        <ele>148</ele>
        <time>2019-07-16T07:21:17Z</time>
      </trkpt>
      <trkpt lat="48.28595" lon="-1.96958">
        <ele>147.6</ele>
        <time>2019-07-16T07:21:18Z</time>
      </trkpt>
      <trkpt lat="48.28598" lon="-1.96956">
        <ele>147.5</ele>
        <time>2019-07-16T07:21:19Z</time>
      </trkpt>
      <trkpt lat="48.28603" lon="-1.96953">
        <ele>147.6</ele>
        <time>2019-07-16T07:21:20Z</time>
      </trkpt>
      <trkpt lat="48.28607" lon="-1.96951">
        <ele>147.7</ele>
        <time>2019-07-16T07:21:21Z</time>
      </trkpt>
      <trkpt lat="48.28612" lon="-1.96949">
        <ele>147.8</ele>
        <time>2019-07-16T07:21:22Z</time>
      </trkpt>
      <trkpt lat="48.28617" lon="-1.96947">
        <ele>147.8</ele>
        <time>2019-07-16T07:21:23Z</time>
      </trkpt>
      <trkpt lat="48.28622" lon="-1.96946">
        <ele>147.7</ele>
        <time>2019-07-16T07:21:24Z</time>
      </trkpt>
      <trkpt lat="48.28627" lon="-1.96944">
        <ele>148.2</ele>
        <time>2019-07-16T07:21:25Z</time>
      </trkpt>
      <trkpt lat="48.28632" lon="-1.96942">
        <ele>148.5</ele>
        <time>2019-07-16T07:21:26Z</time>
      </trkpt>
      <trkpt lat="48.28637" lon="-1.96941">
        <ele>148.4</ele>
        <time>2019-07-16T07:21:27Z</time>
      </trkpt>
      <trkpt lat="48.28642" lon="-1.96939">
        <ele>148</ele>
        <time>2019-07-16T07:21:28Z</time>
      </trkpt>
      <trkpt lat="48.28647" lon="-1.96936">
        <ele>147.7</ele>
        <time>2019-07-16T07:21:29Z</time>
      </trkpt>
      <trkpt lat="48.28653" lon="-1.96934">
        <ele>147.6</ele>
        <time>2019-07-16T07:21:30Z</time>
      </trkpt>
      <trkpt lat="48.28658" lon="-1.96932">
        <ele>147.5</ele>
        <time>2019-07-16T07:21:31Z</time>
      </trkpt>
      <trkpt lat="48.28664" lon="-1.9693">
        <ele>147.4</ele>
        <time>2019-07-16T07:21:32Z</time>
      </trkpt>
      <trkpt lat="48.28669" lon="-1.96928">
        <ele>147.2</ele>
        <time>2019-07-16T07:21:33Z</time>
      </trkpt>
      <trkpt lat="48.28674" lon="-1.96926">
        <ele>147</ele>
        <time>2019-07-16T07:21:34Z</time>
      </trkpt>
      <trkpt lat="48.2868" lon="-1.96924">
        <ele>147</ele>
        <time>2019-07-16T07:21:35Z</time>
      </trkpt>
      <trkpt lat="48.28685" lon="-1.96922">
        <ele>147.1</ele>
        <time>2019-07-16T07:21:36Z</time>
      </trkpt>
      <trkpt lat="48.2869" lon="-1.96919">
        <ele>147.3</ele>
        <time>2019-07-16T07:21:37Z</time>
      </trkpt>
      <trkpt lat="48.28695" lon="-1.96917">
        <ele>147.3</ele>
        <time>2019-07-16T07:21:38Z</time>
      </trkpt>
      <trkpt lat="48.287" lon="-1.96914">
        <ele>147.4</ele>
        <time>2019-07-16T07:21:39Z</time>
      </trkpt>
      <trkpt lat="48.28705" lon="-1.9691">
        <ele>146.9</ele>
        <time>2019-07-16T07:21:40Z</time>
      </trkpt>
      <trkpt lat="48.28709" lon="-1.96904">
        <ele>146.2</ele>
        <time>2019-07-16T07:21:41Z</time>
      </trkpt>
      <trkpt lat="48.28712" lon="-1.96898">
        <ele>146.5</ele>
        <time>2019-07-16T07:21:42Z</time>
      </trkpt>
      <trkpt lat="48.28715" lon="-1.96892">
        <ele>146.5</ele>
        <time>2019-07-16T07:21:43Z</time>
      </trkpt>
      <trkpt lat="48.28717" lon="-1.96885">
        <ele>146.6</ele>
        <time>2019-07-16T07:21:44Z</time>
      </trkpt>
      <trkpt lat="48.28719" lon="-1.96878">
        <ele>146.6</ele>
        <time>2019-07-16T07:21:45Z</time>
      </trkpt>
      <trkpt lat="48.28721" lon="-1.9687">
        <ele>146.6</ele>
        <time>2019-07-16T07:21:46Z</time>
      </trkpt>
      <trkpt lat="48.28722" lon="-1.96863">
        <ele>146.5</ele>
        <time>2019-07-16T07:21:47Z</time>
      </trkpt>
      <trkpt lat="48.28724" lon="-1.96856">
        <ele>146.7</ele>
        <time>2019-07-16T07:21:48Z</time>
      </trkpt>
      <trkpt lat="48.28726" lon="-1.9685">
        <ele>146.5</ele>
        <time>2019-07-16T07:21:49Z</time>
      </trkpt>
      <trkpt lat="48.28728" lon="-1.96843">
        <ele>146.8</ele>
        <time>2019-07-16T07:21:50Z</time>
      </trkpt>
      <trkpt lat="48.2873" lon="-1.96837">
        <ele>146.7</ele>
        <time>2019-07-16T07:21:51Z</time>
      </trkpt>
      <trkpt lat="48.28732" lon="-1.9683">
        <ele>146.7</ele>
        <time>2019-07-16T07:21:52Z</time>
      </trkpt>
      <trkpt lat="48.28733" lon="-1.96823">
        <ele>146.8</ele>
        <time>2019-07-16T07:21:53Z</time>
      </trkpt>
      <trkpt lat="48.28735" lon="-1.96817">
        <ele>146.9</ele>
        <time>2019-07-16T07:21:54Z</time>
      </trkpt>
      <trkpt lat="48.28737" lon="-1.9681">
        <ele>146.6</ele>
        <time>2019-07-16T07:21:55Z</time>
      </trkpt>
      <trkpt lat="48.28738" lon="-1.96803">
        <ele>146.7</ele>
        <time>2019-07-16T07:21:56Z</time>
      </trkpt>
      <trkpt lat="48.2874" lon="-1.96797">
        <ele>146.6</ele>
        <time>2019-07-16T07:21:57Z</time>
      </trkpt>
      <trkpt lat="48.28742" lon="-1.96791">
        <ele>146.3</ele>
        <time>2019-07-16T07:21:58Z</time>
      </trkpt>
      <trkpt lat="48.28744" lon="-1.96784">
        <ele>146.5</ele>
        <time>2019-07-16T07:21:59Z</time>
      </trkpt>
      <trkpt lat="48.28745" lon="-1.96778">
        <ele>146.1</ele>
        <time>2019-07-16T07:22:00Z</time>
      </trkpt>
      <trkpt lat="48.28747" lon="-1.96771">
        <ele>145.8</ele>
        <time>2019-07-16T07:22:01Z</time>
      </trkpt>
      <trkpt lat="48.28748" lon="-1.96765">
        <ele>145.4</ele>
        <time>2019-07-16T07:22:02Z</time>
      </trkpt>
      <trkpt lat="48.2875" lon="-1.96759">
        <ele>145.3</ele>
        <time>2019-07-16T07:22:03Z</time>
      </trkpt>
      <trkpt lat="48.28752" lon="-1.96753">
        <ele>145.6</ele>
        <time>2019-07-16T07:22:04Z</time>
      </trkpt>
      <trkpt lat="48.28754" lon="-1.96747">
        <ele>145.8</ele>
        <time>2019-07-16T07:22:05Z</time>
      </trkpt>
      <trkpt lat="48.28756" lon="-1.96741">
        <ele>146.3</ele>
        <time>2019-07-16T07:22:06Z</time>
      </trkpt>
      <trkpt lat="48.28758" lon="-1.96734">
        <ele>146.7</ele>
        <time>2019-07-16T07:22:07Z</time>
      </trkpt>
      <trkpt lat="48.28759" lon="-1.96728">
        <ele>146.6</ele>
        <time>2019-07-16T07:22:08Z</time>
      </trkpt>
      <trkpt lat="48.28761" lon="-1.96722">
        <ele>146.6</ele>
        <time>2019-07-16T07:22:09Z</time>
      </trkpt>
      <trkpt lat="48.28762" lon="-1.96716">
        <ele>146.9</ele>
        <time>2019-07-16T07:22:10Z</time>
      </trkpt>
      <trkpt lat="48.28764" lon="-1.9671">
        <ele>147.1</ele>
        <time>2019-07-16T07:22:11Z</time>
      </trkpt>
      <trkpt lat="48.28766" lon="-1.96704">
        <ele>147.4</ele>
        <time>2019-07-16T07:22:12Z</time>
      </trkpt>
      <trkpt lat="48.28767" lon="-1.96698">
        <ele>147.4</ele>
        <time>2019-07-16T07:22:13Z</time>
      </trkpt>
      <trkpt lat="48.28769" lon="-1.96692">
        <ele>147.7</ele>
        <time>2019-07-16T07:22:14Z</time>
      </trkpt>
      <trkpt lat="48.28771" lon="-1.96687">
        <ele>148.2</ele>
        <time>2019-07-16T07:22:15Z</time>
      </trkpt>
      <trkpt lat="48.28772" lon="-1.96681">
        <ele>148.5</ele>
        <time>2019-07-16T07:22:16Z</time>
      </trkpt>
      <trkpt lat="48.28774" lon="-1.96676">
        <ele>148.8</ele>
        <time>2019-07-16T07:22:17Z</time>
      </trkpt>
      <trkpt lat="48.28776" lon="-1.9667">
        <ele>148.9</ele>
        <time>2019-07-16T07:22:18Z</time>
      </trkpt>
      <trkpt lat="48.28777" lon="-1.96664">
        <ele>149.1</ele>
        <time>2019-07-16T07:22:19Z</time>
      </trkpt>
      <trkpt lat="48.28779" lon="-1.96659">
        <ele>149.3</ele>
        <time>2019-07-16T07:22:20Z</time>
      </trkpt>
      <trkpt lat="48.2878" lon="-1.96653">
        <ele>149.5</ele>
        <time>2019-07-16T07:22:21Z</time>
      </trkpt>
      <trkpt lat="48.28781" lon="-1.96647">
        <ele>149.9</ele>
        <time>2019-07-16T07:22:22Z</time>
      </trkpt>
      <trkpt lat="48.28782" lon="-1.96642">
        <ele>150</ele>
        <time>2019-07-16T07:22:23Z</time>
      </trkpt>
      <trkpt lat="48.28783" lon="-1.96636">
        <ele>149.9</ele>
        <time>2019-07-16T07:22:24Z</time>
      </trkpt>
      <trkpt lat="48.28784" lon="-1.9663">
        <ele>150</ele>
        <time>2019-07-16T07:22:25Z</time>
      </trkpt>
      <trkpt lat="48.28785" lon="-1.96624">
        <ele>149.7</ele>
        <time>2019-07-16T07:22:26Z</time>
      </trkpt>
      <trkpt lat="48.28786" lon="-1.96619">
        <ele>149.6</ele>
        <time>2019-07-16T07:22:27Z</time>
      </trkpt>
      <trkpt lat="48.28787" lon="-1.96613">
        <ele>149.7</ele>
        <time>2019-07-16T07:22:28Z</time>
      </trkpt>
      <trkpt lat="48.28788" lon="-1.96608">
        <ele>149.7</ele>
        <time>2019-07-16T07:22:29Z</time>
      </trkpt>
      <trkpt lat="48.28789" lon="-1.96603">
        <ele>149.7</ele>
        <time>2019-07-16T07:22:30Z</time>
      </trkpt>
      <trkpt lat="48.2879" lon="-1.96598">
        <ele>150.1</ele>
        <time>2019-07-16T07:22:31Z</time>
      </trkpt>
      <trkpt lat="48.2879" lon="-1.96593">
        <ele>150</ele>
        <time>2019-07-16T07:22:32Z</time>
      </trkpt>
      <trkpt lat="48.28791" lon="-1.96588">
        <ele>149.9</ele>
        <time>2019-07-16T07:22:33Z</time>
      </trkpt>
      <trkpt lat="48.28791" lon="-1.96584">
        <ele>149.8</ele>
        <time>2019-07-16T07:22:34Z</time>
      </trkpt>
      <trkpt lat="48.28792" lon="-1.96579">
        <ele>150</ele>
        <time>2019-07-16T07:22:35Z</time>
      </trkpt>
      <trkpt lat="48.28793" lon="-1.96575">
        <ele>150</ele>
        <time>2019-07-16T07:22:36Z</time>
      </trkpt>
      <trkpt lat="48.28793" lon="-1.96571">
        <ele>150</ele>
        <time>2019-07-16T07:22:37Z</time>
      </trkpt>
      <trkpt lat="48.28794" lon="-1.96566">
        <ele>150</ele>
        <time>2019-07-16T07:22:38Z</time>
      </trkpt>
      <trkpt lat="48.28795" lon="-1.96562">
        <ele>150.3</ele>
        <time>2019-07-16T07:22:39Z</time>
      </trkpt>
      <trkpt lat="48.28796" lon="-1.96558">
        <ele>150.6</ele>
        <time>2019-07-16T07:22:40Z</time>
      </trkpt>
      <trkpt lat="48.28796" lon="-1.96554">
        <ele>150.8</ele>
        <time>2019-07-16T07:22:41Z</time>
      </trkpt>
      <trkpt lat="48.28797" lon="-1.96549">
        <ele>150.9</ele>
        <time>2019-07-16T07:22:42Z</time>
      </trkpt>
      <trkpt lat="48.28797" lon="-1.96545">
        <ele>151.1</ele>
        <time>2019-07-16T07:22:43Z</time>
      </trkpt>
      <trkpt lat="48.28798" lon="-1.9654">
        <ele>151.1</ele>
        <time>2019-07-16T07:22:44Z</time>
      </trkpt>
      <trkpt lat="48.28798" lon="-1.96535">
        <ele>151.4</ele>
        <time>2019-07-16T07:22:45Z</time>
      </trkpt>
      <trkpt lat="48.28799" lon="-1.96531">
        <ele>151.4</ele>
        <time>2019-07-16T07:22:46Z</time>
      </trkpt>
      <trkpt lat="48.28799" lon="-1.96526">
        <ele>151.3</ele>
        <time>2019-07-16T07:22:47Z</time>
      </trkpt>
      <trkpt lat="48.288" lon="-1.96522">
        <ele>151.2</ele>
        <time>2019-07-16T07:22:48Z</time>
      </trkpt>
      <trkpt lat="48.28801" lon="-1.96517">
        <ele>151.3</ele>
        <time>2019-07-16T07:22:49Z</time>
      </trkpt>
      <trkpt lat="48.28801" lon="-1.96513">
        <ele>151.3</ele>
        <time>2019-07-16T07:22:50Z</time>
      </trkpt>
      <trkpt lat="48.28802" lon="-1.96509">
        <ele>151.3</ele>
        <time>2019-07-16T07:22:51Z</time>
      </trkpt>
      <trkpt lat="48.28802" lon="-1.96504">
        <ele>151.2</ele>
        <time>2019-07-16T07:22:52Z</time>
      </trkpt>
      <trkpt lat="48.28803" lon="-1.965">
        <ele>151.1</ele>
        <time>2019-07-16T07:22:53Z</time>
      </trkpt>
      <trkpt lat="48.28803" lon="-1.96496">
        <ele>151.1</ele>
        <time>2019-07-16T07:22:54Z</time>
      </trkpt>
      <trkpt lat="48.28804" lon="-1.96491">
        <ele>151.1</ele>
        <time>2019-07-16T07:22:55Z</time>
      </trkpt>
      <trkpt lat="48.28804" lon="-1.96487">
        <ele>151</ele>
        <time>2019-07-16T07:22:56Z</time>
      </trkpt>
      <trkpt lat="48.28804" lon="-1.96483">
        <ele>150.9</ele>
        <time>2019-07-16T07:22:57Z</time>
      </trkpt>
      <trkpt lat="48.28805" lon="-1.96478">
        <ele>150.7</ele>
        <time>2019-07-16T07:22:58Z</time>
      </trkpt>
      <trkpt lat="48.28806" lon="-1.96474">
        <ele>150.7</ele>
        <time>2019-07-16T07:22:59Z</time>
      </trkpt>
      <trkpt lat="48.28806" lon="-1.9647">
        <ele>150.8</ele>
        <time>2019-07-16T07:23:00Z</time>
      </trkpt>
      <trkpt lat="48.28807" lon="-1.96466">
        <ele>151</ele>
        <time>2019-07-16T07:23:01Z</time>
      </trkpt>
      <trkpt lat="48.28807" lon="-1.96462">
        <ele>151.1</ele>
        <time>2019-07-16T07:23:02Z</time>
      </trkpt>
      <trkpt lat="48.28808" lon="-1.96458">
        <ele>151.4</ele>
        <time>2019-07-16T07:23:03Z</time>
      </trkpt>
      <trkpt lat="48.28809" lon="-1.96454">
        <ele>151.8</ele>
        <time>2019-07-16T07:23:04Z</time>
      </trkpt>
      <trkpt lat="48.2881" lon="-1.96449">
        <ele>151.8</ele>
        <time>2019-07-16T07:23:05Z</time>
      </trkpt>
      <trkpt lat="48.28811" lon="-1.96445">
        <ele>152.1</ele>
        <time>2019-07-16T07:23:06Z</time>
      </trkpt>
      <trkpt lat="48.28811" lon="-1.96441">
        <ele>152</ele>
        <time>2019-07-16T07:23:07Z</time>
      </trkpt>
      <trkpt lat="48.28812" lon="-1.96437">
        <ele>152.2</ele>
        <time>2019-07-16T07:23:08Z</time>
      </trkpt>
      <trkpt lat="48.28813" lon="-1.96434">
        <ele>152.7</ele>
        <time>2019-07-16T07:23:09Z</time>
      </trkpt>
      <trkpt lat="48.28814" lon="-1.9643">
        <ele>153</ele>
        <time>2019-07-16T07:23:10Z</time>
      </trkpt>
      <trkpt lat="48.28815" lon="-1.96426">
        <ele>153.2</ele>
        <time>2019-07-16T07:23:11Z</time>
      </trkpt>
      <trkpt lat="48.28816" lon="-1.96422">
        <ele>153.4</ele>
        <time>2019-07-16T07:23:12Z</time>
      </trkpt>
      <trkpt lat="48.28817" lon="-1.96419">
        <ele>153.7</ele>
        <time>2019-07-16T07:23:13Z</time>
      </trkpt>
      <trkpt lat="48.28819" lon="-1.96415">
        <ele>153.9</ele>
        <time>2019-07-16T07:23:14Z</time>
      </trkpt>
      <trkpt lat="48.2882" lon="-1.96412">
        <ele>154.2</ele>
        <time>2019-07-16T07:23:15Z</time>
      </trkpt>
      <trkpt lat="48.28821" lon="-1.96409">
        <ele>154.5</ele>
        <time>2019-07-16T07:23:16Z</time>
      </trkpt>
      <trkpt lat="48.28823" lon="-1.96405">
        <ele>154.9</ele>
        <time>2019-07-16T07:23:17Z</time>
      </trkpt>
      <trkpt lat="48.28824" lon="-1.96402">
        <ele>155.1</ele>
        <time>2019-07-16T07:23:18Z</time>
      </trkpt>
      <trkpt lat="48.28826" lon="-1.96398">
        <ele>155</ele>
        <time>2019-07-16T07:23:19Z</time>
      </trkpt>
      <trkpt lat="48.28827" lon="-1.96395">
        <ele>155.4</ele>
        <time>2019-07-16T07:23:20Z</time>
      </trkpt>
      <trkpt lat="48.28829" lon="-1.96391">
        <ele>155.8</ele>
        <time>2019-07-16T07:23:21Z</time>
      </trkpt>
      <trkpt lat="48.28831" lon="-1.96388">
        <ele>156.1</ele>
        <time>2019-07-16T07:23:22Z</time>
      </trkpt>
      <trkpt lat="48.28833" lon="-1.96385">
        <ele>156.4</ele>
        <time>2019-07-16T07:23:23Z</time>
      </trkpt>
      <trkpt lat="48.28834" lon="-1.96383">
        <ele>156.5</ele>
        <time>2019-07-16T07:23:24Z</time>
      </trkpt>
      <trkpt lat="48.28836" lon="-1.9638">
        <ele>157</ele>
        <time>2019-07-16T07:23:25Z</time>
      </trkpt>
      <trkpt lat="48.28838" lon="-1.96377">
        <ele>157.2</ele>
        <time>2019-07-16T07:23:26Z</time>
      </trkpt>
      <trkpt lat="48.2884" lon="-1.96375">
        <ele>157.6</ele>
        <time>2019-07-16T07:23:27Z</time>
      </trkpt>
      <trkpt lat="48.28842" lon="-1.96372">
        <ele>158.4</ele>
        <time>2019-07-16T07:23:28Z</time>
      </trkpt>
      <trkpt lat="48.28844" lon="-1.9637">
        <ele>158.6</ele>
        <time>2019-07-16T07:23:29Z</time>
      </trkpt>
      <trkpt lat="48.28846" lon="-1.96367">
        <ele>158.9</ele>
        <time>2019-07-16T07:23:30Z</time>
      </trkpt>
      <trkpt lat="48.28848" lon="-1.96365">
        <ele>159.3</ele>
        <time>2019-07-16T07:23:31Z</time>
      </trkpt>
      <trkpt lat="48.28849" lon="-1.96362">
        <ele>159.5</ele>
        <time>2019-07-16T07:23:32Z</time>
      </trkpt>
      <trkpt lat="48.28851" lon="-1.9636">
        <ele>159.5</ele>
        <time>2019-07-16T07:23:33Z</time>
      </trkpt>
      <trkpt lat="48.28853" lon="-1.96357">
        <ele>159.9</ele>
        <time>2019-07-16T07:23:34Z</time>
      </trkpt>
      <trkpt lat="48.28854" lon="-1.96354">
        <ele>160</ele>
        <time>2019-07-16T07:23:35Z</time>
      </trkpt>
      <trkpt lat="48.28856" lon="-1.96352">
        <ele>160.2</ele>
        <time>2019-07-16T07:23:36Z</time>
      </trkpt>
      <trkpt lat="48.28857" lon="-1.9635">
        <ele>160.3</ele>
        <time>2019-07-16T07:23:37Z</time>
      </trkpt>
      <trkpt lat="48.28859" lon="-1.96347">
        <ele>160.2</ele>
        <time>2019-07-16T07:23:38Z</time>
      </trkpt>
      <trkpt lat="48.2886" lon="-1.96344">
        <ele>160.1</ele>
        <time>2019-07-16T07:23:39Z</time>
      </trkpt>
      <trkpt lat="48.28862" lon="-1.96342">
        <ele>160</ele>
        <time>2019-07-16T07:23:40Z</time>
      </trkpt>
      <trkpt lat="48.28863" lon="-1.9634">
        <ele>160</ele>
        <time>2019-07-16T07:23:41Z</time>
      </trkpt>
      <trkpt lat="48.28865" lon="-1.96338">
        <ele>160.2</ele>
        <time>2019-07-16T07:23:42Z</time>
      </trkpt>
      <trkpt lat="48.28867" lon="-1.96335">
        <ele>160.1</ele>
        <time>2019-07-16T07:23:43Z</time>
      </trkpt>
      <trkpt lat="48.28869" lon="-1.96333">
        <ele>160.1</ele>
        <time>2019-07-16T07:23:44Z</time>
      </trkpt>
      <trkpt lat="48.28871" lon="-1.96331">
        <ele>160.2</ele>
        <time>2019-07-16T07:23:45Z</time>
      </trkpt>
      <trkpt lat="48.28873" lon="-1.96328">
        <ele>160.1</ele>
        <time>2019-07-16T07:23:46Z</time>
      </trkpt>
      <trkpt lat="48.28875" lon="-1.96326">
        <ele>160.3</ele>
        <time>2019-07-16T07:23:47Z</time>
      </trkpt>
      <trkpt lat="48.28877" lon="-1.96324">
        <ele>160.5</ele>
        <time>2019-07-16T07:23:48Z</time>
      </trkpt>
      <trkpt lat="48.28878" lon="-1.96322">
        <ele>160.6</ele>
        <time>2019-07-16T07:23:49Z</time>
      </trkpt>
      <trkpt lat="48.2888" lon="-1.9632">
        <ele>160.7</ele>
        <time>2019-07-16T07:23:50Z</time>
      </trkpt>
      <trkpt lat="48.28882" lon="-1.96318">
        <ele>160.5</ele>
        <time>2019-07-16T07:23:51Z</time>
      </trkpt>
      <trkpt lat="48.28883" lon="-1.96316">
        <ele>160.9</ele>
        <time>2019-07-16T07:23:52Z</time>
      </trkpt>
      <trkpt lat="48.28884" lon="-1.96313">
        <ele>160.7</ele>
        <time>2019-07-16T07:23:53Z</time>
      </trkpt>
      <trkpt lat="48.28886" lon="-1.96311">
        <ele>160.8</ele>
        <time>2019-07-16T07:23:54Z</time>
      </trkpt>
      <trkpt lat="48.28887" lon="-1.9631">
        <ele>161</ele>
        <time>2019-07-16T07:23:55Z</time>
      </trkpt>
      <trkpt lat="48.28889" lon="-1.96308">
        <ele>161.2</ele>
        <time>2019-07-16T07:23:56Z</time>
      </trkpt>
      <trkpt lat="48.28891" lon="-1.96306">
        <ele>161.1</ele>
        <time>2019-07-16T07:23:57Z</time>
      </trkpt>
      <trkpt lat="48.28892" lon="-1.96305">
        <ele>161.6</ele>
        <time>2019-07-16T07:23:58Z</time>
      </trkpt>
      <trkpt lat="48.28894" lon="-1.96303">
        <ele>162.1</ele>
        <time>2019-07-16T07:23:59Z</time>
      </trkpt>
      <trkpt lat="48.28895" lon="-1.96301">
        <ele>162.5</ele>
        <time>2019-07-16T07:24:00Z</time>
      </trkpt>
      <trkpt lat="48.28896" lon="-1.96299">
        <ele>162.9</ele>
        <time>2019-07-16T07:24:01Z</time>
      </trkpt>
      <trkpt lat="48.28898" lon="-1.96296">
        <ele>163.3</ele>
        <time>2019-07-16T07:24:02Z</time>
      </trkpt>
      <trkpt lat="48.28899" lon="-1.96294">
        <ele>163.4</ele>
        <time>2019-07-16T07:24:03Z</time>
      </trkpt>
      <trkpt lat="48.28899" lon="-1.96291">
        <ele>163.7</ele>
        <time>2019-07-16T07:24:04Z</time>
      </trkpt>
      <trkpt lat="48.289" lon="-1.96289">
        <ele>164</ele>
        <time>2019-07-16T07:24:05Z</time>
      </trkpt>
      <trkpt lat="48.28901" lon="-1.96287">
        <ele>164.5</ele>
        <time>2019-07-16T07:24:06Z</time>
      </trkpt>
      <trkpt lat="48.28902" lon="-1.96284">
        <ele>164.5</ele>
        <time>2019-07-16T07:24:07Z</time>
      </trkpt>
      <trkpt lat="48.28902" lon="-1.96282">
        <ele>164.5</ele>
        <time>2019-07-16T07:24:08Z</time>
      </trkpt>
      <trkpt lat="48.28903" lon="-1.96279">
        <ele>164.6</ele>
        <time>2019-07-16T07:24:09Z</time>
      </trkpt>
      <trkpt lat="48.28904" lon="-1.96276">
        <ele>164.1</ele>
        <time>2019-07-16T07:24:10Z</time>
      </trkpt>
      <trkpt lat="48.28904" lon="-1.96273">
        <ele>164</ele>
        <time>2019-07-16T07:24:11Z</time>
      </trkpt>
      <trkpt lat="48.28904" lon="-1.9627">
        <ele>163.4</ele>
        <time>2019-07-16T07:24:12Z</time>
      </trkpt>
      <trkpt lat="48.28905" lon="-1.96267">
        <ele>163.1</ele>
        <time>2019-07-16T07:24:13Z</time>
      </trkpt>
      <trkpt lat="48.28905" lon="-1.96264">
        <ele>162.7</ele>
        <time>2019-07-16T07:24:14Z</time>
      </trkpt>
      <trkpt lat="48.28905" lon="-1.9626">
        <ele>162.2</ele>
        <time>2019-07-16T07:24:15Z</time>
      </trkpt>
      <trkpt lat="48.28905" lon="-1.96257">
        <ele>161.7</ele>
        <time>2019-07-16T07:24:16Z</time>
      </trkpt>
      <trkpt lat="48.28906" lon="-1.96253">
        <ele>161.3</ele>
        <time>2019-07-16T07:24:17Z</time>
      </trkpt>
      <trkpt lat="48.28906" lon="-1.9625">
        <ele>161.2</ele>
        <time>2019-07-16T07:24:18Z</time>
      </trkpt>
      <trkpt lat="48.28906" lon="-1.96247">
        <ele>161.4</ele>
        <time>2019-07-16T07:24:19Z</time>
      </trkpt>
      <trkpt lat="48.28907" lon="-1.96244">
        <ele>161.6</ele>
        <time>2019-07-16T07:24:20Z</time>
      </trkpt>
      <trkpt lat="48.28907" lon="-1.96241">
        <ele>161.7</ele>
        <time>2019-07-16T07:24:21Z</time>
      </trkpt>
      <trkpt lat="48.28907" lon="-1.96239">
        <ele>161.8</ele>
        <time>2019-07-16T07:24:22Z</time>
      </trkpt>
      <trkpt lat="48.28907" lon="-1.96236">
        <ele>162.3</ele>
        <time>2019-07-16T07:24:23Z</time>
      </trkpt>
      <trkpt lat="48.28907" lon="-1.96233">
        <ele>162.1</ele>
        <time>2019-07-16T07:24:24Z</time>
      </trkpt>
      <trkpt lat="48.28907" lon="-1.9623">
        <ele>162.2</ele>
        <time>2019-07-16T07:24:25Z</time>
      </trkpt>
      <trkpt lat="48.28907" lon="-1.96226">
        <ele>162</ele>
        <time>2019-07-16T07:24:26Z</time>
      </trkpt>
      <trkpt lat="48.28907" lon="-1.96223">
        <ele>162</ele>
        <time>2019-07-16T07:24:27Z</time>
      </trkpt>
      <trkpt lat="48.28906" lon="-1.9622">
        <ele>162.2</ele>
        <time>2019-07-16T07:24:28Z</time>
      </trkpt>
      <trkpt lat="48.28906" lon="-1.96217">
        <ele>162.4</ele>
        <time>2019-07-16T07:24:29Z</time>
      </trkpt>
      <trkpt lat="48.28906" lon="-1.96214">
        <ele>162.2</ele>
        <time>2019-07-16T07:24:30Z</time>
      </trkpt>
      <trkpt lat="48.28905" lon="-1.9621">
        <ele>162.5</ele>
        <time>2019-07-16T07:24:31Z</time>
      </trkpt>
      <trkpt lat="48.28905" lon="-1.96207">
        <ele>162.7</ele>
        <time>2019-07-16T07:24:32Z</time>
      </trkpt>
      <trkpt lat="48.28904" lon="-1.96204">
        <ele>162.9</ele>
        <time>2019-07-16T07:24:33Z</time>
      </trkpt>
      <trkpt lat="48.28904" lon="-1.96201">
        <ele>163</ele>
        <time>2019-07-16T07:24:34Z</time>
      </trkpt>
      <trkpt lat="48.28903" lon="-1.96197">
        <ele>162.9</ele>
        <time>2019-07-16T07:24:35Z</time>
      </trkpt>
      <trkpt lat="48.28903" lon="-1.96195">
        <ele>163</ele>
        <time>2019-07-16T07:24:36Z</time>
      </trkpt>
      <trkpt lat="48.28903" lon="-1.96192">
        <ele>163.5</ele>
        <time>2019-07-16T07:24:37Z</time>
      </trkpt>
      <trkpt lat="48.28903" lon="-1.96189">
        <ele>164.3</ele>
        <time>2019-07-16T07:24:38Z</time>
      </trkpt>
      <trkpt lat="48.28903" lon="-1.96186">
        <ele>164.8</ele>
        <time>2019-07-16T07:24:39Z</time>
      </trkpt>
      <trkpt lat="48.28903" lon="-1.96183">
        <ele>165.5</ele>
        <time>2019-07-16T07:24:40Z</time>
      </trkpt>
      <trkpt lat="48.28903" lon="-1.9618">
        <ele>166.3</ele>
        <time>2019-07-16T07:24:41Z</time>
      </trkpt>
      <trkpt lat="48.28903" lon="-1.96177">
        <ele>166.9</ele>
        <time>2019-07-16T07:24:42Z</time>
      </trkpt>
      <trkpt lat="48.28902" lon="-1.96174">
        <ele>167.2</ele>
        <time>2019-07-16T07:24:43Z</time>
      </trkpt>
      <trkpt lat="48.28902" lon="-1.96171">
        <ele>168</ele>
        <time>2019-07-16T07:24:44Z</time>
      </trkpt>
      <trkpt lat="48.28902" lon="-1.96168">
        <ele>168.3</ele>
        <time>2019-07-16T07:24:45Z</time>
      </trkpt>
      <trkpt lat="48.28902" lon="-1.96165">
        <ele>168.9</ele>
        <time>2019-07-16T07:24:46Z</time>
      </trkpt>
      <trkpt lat="48.28902" lon="-1.96162">
        <ele>169.3</ele>
        <time>2019-07-16T07:24:47Z</time>
      </trkpt>
      <trkpt lat="48.28902" lon="-1.96159">
        <ele>169.7</ele>
        <time>2019-07-16T07:24:48Z</time>
      </trkpt>
      <trkpt lat="48.28901" lon="-1.96156">
        <ele>170.1</ele>
        <time>2019-07-16T07:24:49Z</time>
      </trkpt>
      <trkpt lat="48.28901" lon="-1.96153">
        <ele>170.5</ele>
        <time>2019-07-16T07:24:50Z</time>
      </trkpt>
      <trkpt lat="48.28901" lon="-1.9615">
        <ele>171</ele>
        <time>2019-07-16T07:24:51Z</time>
      </trkpt>
      <trkpt lat="48.28901" lon="-1.96148">
        <ele>171.6</ele>
        <time>2019-07-16T07:24:52Z</time>
      </trkpt>
      <trkpt lat="48.289" lon="-1.96145">
        <ele>172.3</ele>
        <time>2019-07-16T07:24:53Z</time>
      </trkpt>
      <trkpt lat="48.289" lon="-1.96143">
        <ele>172.7</ele>
        <time>2019-07-16T07:24:54Z</time>
      </trkpt>
      <trkpt lat="48.289" lon="-1.9614">
        <ele>173.2</ele>
        <time>2019-07-16T07:24:55Z</time>
      </trkpt>
      <trkpt lat="48.289" lon="-1.96137">
        <ele>173.7</ele>
        <time>2019-07-16T07:24:56Z</time>
      </trkpt>
      <trkpt lat="48.28901" lon="-1.96134">
        <ele>173.9</ele>
        <time>2019-07-16T07:24:57Z</time>
      </trkpt>
      <trkpt lat="48.28901" lon="-1.9613">
        <ele>174</ele>
        <time>2019-07-16T07:24:58Z</time>
      </trkpt>
      <trkpt lat="48.28901" lon="-1.96127">
        <ele>174.1</ele>
        <time>2019-07-16T07:24:59Z</time>
      </trkpt>
      <trkpt lat="48.28901" lon="-1.96124">
        <ele>174.4</ele>
        <time>2019-07-16T07:25:00Z</time>
      </trkpt>
      <trkpt lat="48.28902" lon="-1.96121">
        <ele>174.5</ele>
        <time>2019-07-16T07:25:01Z</time>
      </trkpt>
      <trkpt lat="48.28902" lon="-1.96118">
        <ele>174.8</ele>
        <time>2019-07-16T07:25:02Z</time>
      </trkpt>
      <trkpt lat="48.28903" lon="-1.96116">
        <ele>175.2</ele>
        <time>2019-07-16T07:25:03Z</time>
      </trkpt>
      <trkpt lat="48.28904" lon="-1.96113">
        <ele>175.5</ele>
        <time>2019-07-16T07:25:04Z</time>
      </trkpt>
      <trkpt lat="48.28905" lon="-1.96111">
        <ele>176</ele>
        <time>2019-07-16T07:25:05Z</time>
      </trkpt>
      <trkpt lat="48.28906" lon="-1.96109">
        <ele>176.2</ele>
        <time>2019-07-16T07:25:06Z</time>
      </trkpt>
      <trkpt lat="48.28907" lon="-1.96106">
        <ele>176.5</ele>
        <time>2019-07-16T07:25:07Z</time>
      </trkpt>
      <trkpt lat="48.28908" lon="-1.96104">
        <ele>176.6</ele>
        <time>2019-07-16T07:25:08Z</time>
      </trkpt>
      <trkpt lat="48.28909" lon="-1.96101">
        <ele>176.4</ele>
        <time>2019-07-16T07:25:09Z</time>
      </trkpt>
      <trkpt lat="48.2891" lon="-1.96098">
        <ele>176.6</ele>
        <time>2019-07-16T07:25:10Z</time>
      </trkpt>
      <trkpt lat="48.28911" lon="-1.96096">
        <ele>176.6</ele>
        <time>2019-07-16T07:25:11Z</time>
      </trkpt>
      <trkpt lat="48.28912" lon="-1.96093">
        <ele>176.1</ele>
        <time>2019-07-16T07:25:12Z</time>
      </trkpt>
      <trkpt lat="48.28914" lon="-1.96091">
        <ele>176</ele>
        <time>2019-07-16T07:25:13Z</time>
      </trkpt>
      <trkpt lat="48.28915" lon="-1.96088">
        <ele>175.5</ele>
        <time>2019-07-16T07:25:14Z</time>
      </trkpt>
      <trkpt lat="48.28916" lon="-1.96085">
        <ele>175.1</ele>
        <time>2019-07-16T07:25:15Z</time>
      </trkpt>
      <trkpt lat="48.28917" lon="-1.96083">
        <ele>174.8</ele>
        <time>2019-07-16T07:25:16Z</time>
      </trkpt>
      <trkpt lat="48.28917" lon="-1.9608">
        <ele>175</ele>
        <time>2019-07-16T07:25:17Z</time>
      </trkpt>
      <trkpt lat="48.28918" lon="-1.96078">
        <ele>175.5</ele>
        <time>2019-07-16T07:25:18Z</time>
      </trkpt>
      <trkpt lat="48.28919" lon="-1.96075">
        <ele>175.8</ele>
        <time>2019-07-16T07:25:19Z</time>
      </trkpt>
      <trkpt lat="48.2892" lon="-1.96072">
        <ele>176.3</ele>
        <time>2019-07-16T07:25:20Z</time>
      </trkpt>
      <trkpt lat="48.2892" lon="-1.96069">
        <ele>176.7</ele>
        <time>2019-07-16T07:25:21Z</time>
      </trkpt>
      <trkpt lat="48.28922" lon="-1.96067">
        <ele>176.6</ele>
        <time>2019-07-16T07:25:22Z</time>
      </trkpt>
      <trkpt lat="48.28922" lon="-1.96064">
        <ele>176.4</ele>
        <time>2019-07-16T07:25:23Z</time>
      </trkpt>
      <trkpt lat="48.28923" lon="-1.96061">
        <ele>176.6</ele>
        <time>2019-07-16T07:25:24Z</time>
      </trkpt>
      <trkpt lat="48.28924" lon="-1.96059">
        <ele>177</ele>
        <time>2019-07-16T07:25:25Z</time>
      </trkpt>
      <trkpt lat="48.28925" lon="-1.96057">
        <ele>177.3</ele>
        <time>2019-07-16T07:25:26Z</time>
      </trkpt>
      <trkpt lat="48.28926" lon="-1.96054">
        <ele>177.4</ele>
        <time>2019-07-16T07:25:27Z</time>
      </trkpt>
      <trkpt lat="48.28927" lon="-1.96052">
        <ele>177.1</ele>
        <time>2019-07-16T07:25:28Z</time>
      </trkpt>
      <trkpt lat="48.28928" lon="-1.9605">
        <ele>177.4</ele>
        <time>2019-07-16T07:25:29Z</time>
      </trkpt>
      <trkpt lat="48.28929" lon="-1.96047">
        <ele>177.5</ele>
        <time>2019-07-16T07:25:30Z</time>
      </trkpt>
      <trkpt lat="48.2893" lon="-1.96044">
        <ele>177.7</ele>
        <time>2019-07-16T07:25:31Z</time>
      </trkpt>
      <trkpt lat="48.2893" lon="-1.96042">
        <ele>177.6</ele>
        <time>2019-07-16T07:25:32Z</time>
      </trkpt>
      <trkpt lat="48.28931" lon="-1.96039">
        <ele>177.8</ele>
        <time>2019-07-16T07:25:33Z</time>
      </trkpt>
      <trkpt lat="48.28932" lon="-1.96036">
        <ele>178</ele>
        <time>2019-07-16T07:25:34Z</time>
      </trkpt>
      <trkpt lat="48.28933" lon="-1.96033">
        <ele>178.1</ele>
        <time>2019-07-16T07:25:35Z</time>
      </trkpt>
      <trkpt lat="48.28933" lon="-1.96031">
        <ele>178.2</ele>
        <time>2019-07-16T07:25:36Z</time>
      </trkpt>
      <trkpt lat="48.28935" lon="-1.96028">
        <ele>178.1</ele>
        <time>2019-07-16T07:25:37Z</time>
      </trkpt>
      <trkpt lat="48.28935" lon="-1.96026">
        <ele>178.1</ele>
        <time>2019-07-16T07:25:38Z</time>
      </trkpt>
      <trkpt lat="48.28936" lon="-1.96024">
        <ele>178.5</ele>
        <time>2019-07-16T07:25:39Z</time>
      </trkpt>
      <trkpt lat="48.28937" lon="-1.96022">
        <ele>178.9</ele>
        <time>2019-07-16T07:25:40Z</time>
      </trkpt>
      <trkpt lat="48.28938" lon="-1.9602">
        <ele>179.7</ele>
        <time>2019-07-16T07:25:41Z</time>
      </trkpt>
      <trkpt lat="48.28939" lon="-1.96018">
        <ele>179.9</ele>
        <time>2019-07-16T07:25:42Z</time>
      </trkpt>
      <trkpt lat="48.28941" lon="-1.96015">
        <ele>180</ele>
        <time>2019-07-16T07:25:43Z</time>
      </trkpt>
      <trkpt lat="48.28941" lon="-1.96013">
        <ele>180.1</ele>
        <time>2019-07-16T07:25:44Z</time>
      </trkpt>
      <trkpt lat="48.28942" lon="-1.9601">
        <ele>180.6</ele>
        <time>2019-07-16T07:25:45Z</time>
      </trkpt>
      <trkpt lat="48.28943" lon="-1.96008">
        <ele>181.1</ele>
        <time>2019-07-16T07:25:46Z</time>
      </trkpt>
      <trkpt lat="48.28944" lon="-1.96005">
        <ele>181.3</ele>
        <time>2019-07-16T07:25:47Z</time>
      </trkpt>
      <trkpt lat="48.28945" lon="-1.96002">
        <ele>181.1</ele>
        <time>2019-07-16T07:25:48Z</time>
      </trkpt>
      <trkpt lat="48.28946" lon="-1.96">
        <ele>181</ele>
        <time>2019-07-16T07:25:49Z</time>
      </trkpt>
      <trkpt lat="48.28947" lon="-1.95998">
        <ele>181.6</ele>
        <time>2019-07-16T07:25:50Z</time>
      </trkpt>
      <trkpt lat="48.28948" lon="-1.95995">
        <ele>181.4</ele>
        <time>2019-07-16T07:25:51Z</time>
      </trkpt>
      <trkpt lat="48.28949" lon="-1.95992">
        <ele>181.4</ele>
        <time>2019-07-16T07:25:52Z</time>
      </trkpt>
      <trkpt lat="48.28951" lon="-1.9599">
        <ele>181.7</ele>
        <time>2019-07-16T07:25:53Z</time>
      </trkpt>
      <trkpt lat="48.28952" lon="-1.95988">
        <ele>181.9</ele>
        <time>2019-07-16T07:25:54Z</time>
      </trkpt>
      <trkpt lat="48.28953" lon="-1.95985">
        <ele>182</ele>
        <time>2019-07-16T07:25:55Z</time>
      </trkpt>
      <trkpt lat="48.28954" lon="-1.95982">
        <ele>181.7</ele>
        <time>2019-07-16T07:25:56Z</time>
      </trkpt>
      <trkpt lat="48.28955" lon="-1.95979">
        <ele>181.4</ele>
        <time>2019-07-16T07:25:57Z</time>
      </trkpt>
      <trkpt lat="48.28956" lon="-1.95976">
        <ele>180.9</ele>
        <time>2019-07-16T07:25:58Z</time>
      </trkpt>
      <trkpt lat="48.28957" lon="-1.95973">
        <ele>180.4</ele>
        <time>2019-07-16T07:25:59Z</time>
      </trkpt>
      <trkpt lat="48.28959" lon="-1.9597">
        <ele>179.8</ele>
        <time>2019-07-16T07:26:00Z</time>
      </trkpt>
      <trkpt lat="48.2896" lon="-1.95967">
        <ele>179.4</ele>
        <time>2019-07-16T07:26:01Z</time>
      </trkpt>
      <trkpt lat="48.2896" lon="-1.95964">
        <ele>179.1</ele>
        <time>2019-07-16T07:26:02Z</time>
      </trkpt>
      <trkpt lat="48.28962" lon="-1.95961">
        <ele>179.1</ele>
        <time>2019-07-16T07:26:03Z</time>
      </trkpt>
      <trkpt lat="48.28962" lon="-1.95957">
        <ele>179.4</ele>
        <time>2019-07-16T07:26:04Z</time>
      </trkpt>
      <trkpt lat="48.28964" lon="-1.95954">
        <ele>179.1</ele>
        <time>2019-07-16T07:26:05Z</time>
      </trkpt>
      <trkpt lat="48.28965" lon="-1.95951">
        <ele>179</ele>
        <time>2019-07-16T07:26:06Z</time>
      </trkpt>
      <trkpt lat="48.28966" lon="-1.95947">
        <ele>179.3</ele>
        <time>2019-07-16T07:26:07Z</time>
      </trkpt>
      <trkpt lat="48.28967" lon="-1.95944">
        <ele>179.1</ele>
        <time>2019-07-16T07:26:08Z</time>
      </trkpt>
      <trkpt lat="48.28968" lon="-1.95941">
        <ele>178.3</ele>
        <time>2019-07-16T07:26:09Z</time>
      </trkpt>
      <trkpt lat="48.28969" lon="-1.95938">
        <ele>178.3</ele>
        <time>2019-07-16T07:26:10Z</time>
      </trkpt>
      <trkpt lat="48.2897" lon="-1.95935">
        <ele>178.5</ele>
        <time>2019-07-16T07:26:11Z</time>
      </trkpt>
      <trkpt lat="48.28972" lon="-1.95932">
        <ele>178.5</ele>
        <time>2019-07-16T07:26:12Z</time>
      </trkpt>
      <trkpt lat="48.28973" lon="-1.95929">
        <ele>178.1</ele>
        <time>2019-07-16T07:26:13Z</time>
      </trkpt>
      <trkpt lat="48.28975" lon="-1.95926">
        <ele>178.4</ele>
        <time>2019-07-16T07:26:14Z</time>
      </trkpt>
      <trkpt lat="48.28976" lon="-1.95922">
        <ele>178.4</ele>
        <time>2019-07-16T07:26:15Z</time>
      </trkpt>
      <trkpt lat="48.28977" lon="-1.95919">
        <ele>178.2</ele>
        <time>2019-07-16T07:26:16Z</time>
      </trkpt>
      <trkpt lat="48.28978" lon="-1.95915">
        <ele>178.4</ele>
        <time>2019-07-16T07:26:17Z</time>
      </trkpt>
      <trkpt lat="48.2898" lon="-1.95911">
        <ele>178.6</ele>
        <time>2019-07-16T07:26:18Z</time>
      </trkpt>
      <trkpt lat="48.28981" lon="-1.95908">
        <ele>179.2</ele>
        <time>2019-07-16T07:26:19Z</time>
      </trkpt>
      <trkpt lat="48.28983" lon="-1.95904">
        <ele>179.3</ele>
        <time>2019-07-16T07:26:20Z</time>
      </trkpt>
      <trkpt lat="48.28985" lon="-1.95901">
        <ele>179.4</ele>
        <time>2019-07-16T07:26:21Z</time>
      </trkpt>
      <trkpt lat="48.28986" lon="-1.95897">
        <ele>179.7</ele>
        <time>2019-07-16T07:26:22Z</time>
      </trkpt>
      <trkpt lat="48.28988" lon="-1.95893">
        <ele>179.8</ele>
        <time>2019-07-16T07:26:23Z</time>
      </trkpt>
      <trkpt lat="48.28989" lon="-1.9589">
        <ele>179.7</ele>
        <time>2019-07-16T07:26:24Z</time>
      </trkpt>
      <trkpt lat="48.28991" lon="-1.95887">
        <ele>179.8</ele>
        <time>2019-07-16T07:26:25Z</time>
      </trkpt>
      <trkpt lat="48.28992" lon="-1.95883">
        <ele>179.3</ele>
        <time>2019-07-16T07:26:26Z</time>
      </trkpt>
      <trkpt lat="48.28993" lon="-1.9588">
        <ele>179.4</ele>
        <time>2019-07-16T07:26:27Z</time>
      </trkpt>
      <trkpt lat="48.28994" lon="-1.95876">
        <ele>179.3</ele>
        <time>2019-07-16T07:26:28Z</time>
      </trkpt>
      <trkpt lat="48.28996" lon="-1.95872">
        <ele>178.8</ele>
        <time>2019-07-16T07:26:29Z</time>
      </trkpt>
      <trkpt lat="48.28997" lon="-1.95869">
        <ele>178.3</ele>
        <time>2019-07-16T07:26:30Z</time>
      </trkpt>
      <trkpt lat="48.28999" lon="-1.95865">
        <ele>178.2</ele>
        <time>2019-07-16T07:26:31Z</time>
      </trkpt>
      <trkpt lat="48.29" lon="-1.95861">
        <ele>177.8</ele>
        <time>2019-07-16T07:26:32Z</time>
      </trkpt>
      <trkpt lat="48.29001" lon="-1.95857">
        <ele>177.3</ele>
        <time>2019-07-16T07:26:33Z</time>
      </trkpt>
      <trkpt lat="48.29003" lon="-1.95853">
        <ele>177.4</ele>
        <time>2019-07-16T07:26:34Z</time>
      </trkpt>
      <trkpt lat="48.29004" lon="-1.95849">
        <ele>177.1</ele>
        <time>2019-07-16T07:26:35Z</time>
      </trkpt>
      <trkpt lat="48.29005" lon="-1.95845">
        <ele>177.5</ele>
        <time>2019-07-16T07:26:36Z</time>
      </trkpt>
      <trkpt lat="48.29007" lon="-1.95841">
        <ele>177.2</ele>
        <time>2019-07-16T07:26:37Z</time>
      </trkpt>
      <trkpt lat="48.29009" lon="-1.95836">
        <ele>176.6</ele>
        <time>2019-07-16T07:26:38Z</time>
      </trkpt>
      <trkpt lat="48.2901" lon="-1.95831">
        <ele>176.4</ele>
        <time>2019-07-16T07:26:39Z</time>
      </trkpt>
      <trkpt lat="48.29012" lon="-1.95826">
        <ele>176.1</ele>
        <time>2019-07-16T07:26:40Z</time>
      </trkpt>
      <trkpt lat="48.29014" lon="-1.9582">
        <ele>175.5</ele>
        <time>2019-07-16T07:26:41Z</time>
      </trkpt>
      <trkpt lat="48.29016" lon="-1.95815">
        <ele>175.1</ele>
        <time>2019-07-16T07:26:42Z</time>
      </trkpt>
      <trkpt lat="48.29018" lon="-1.95809">
        <ele>174.4</ele>
        <time>2019-07-16T07:26:43Z</time>
      </trkpt>
      <trkpt lat="48.2902" lon="-1.95802">
        <ele>173.5</ele>
        <time>2019-07-16T07:26:44Z</time>
      </trkpt>
      <trkpt lat="48.29022" lon="-1.95795">
        <ele>172.7</ele>
        <time>2019-07-16T07:26:45Z</time>
      </trkpt>
      <trkpt lat="48.29025" lon="-1.95787">
        <ele>172</ele>
        <time>2019-07-16T07:26:46Z</time>
      </trkpt>
      <trkpt lat="48.29027" lon="-1.95779">
        <ele>170.9</ele>
        <time>2019-07-16T07:26:47Z</time>
      </trkpt>
      <trkpt lat="48.29031" lon="-1.95771">
        <ele>170.3</ele>
        <time>2019-07-16T07:26:48Z</time>
      </trkpt>
      <trkpt lat="48.29034" lon="-1.95763">
        <ele>169.7</ele>
        <time>2019-07-16T07:26:49Z</time>
      </trkpt>
      <trkpt lat="48.29036" lon="-1.95754">
        <ele>168.8</ele>
        <time>2019-07-16T07:26:50Z</time>
      </trkpt>
      <trkpt lat="48.2904" lon="-1.95746">
        <ele>168.8</ele>
        <time>2019-07-16T07:26:51Z</time>
      </trkpt>
      <trkpt lat="48.29042" lon="-1.95737">
        <ele>168.6</ele>
        <time>2019-07-16T07:26:52Z</time>
      </trkpt>
      <trkpt lat="48.29045" lon="-1.95729">
        <ele>168.8</ele>
        <time>2019-07-16T07:26:53Z</time>
      </trkpt>
      <trkpt lat="48.29048" lon="-1.95719">
        <ele>168.9</ele>
        <time>2019-07-16T07:26:54Z</time>
      </trkpt>
      <trkpt lat="48.29051" lon="-1.9571">
        <ele>168.9</ele>
        <time>2019-07-16T07:26:55Z</time>
      </trkpt>
      <trkpt lat="48.29055" lon="-1.95701">
        <ele>168.9</ele>
        <time>2019-07-16T07:26:56Z</time>
      </trkpt>
      <trkpt lat="48.29059" lon="-1.95692">
        <ele>169</ele>
        <time>2019-07-16T07:26:57Z</time>
      </trkpt>
      <trkpt lat="48.29062" lon="-1.95682">
        <ele>168.3</ele>
        <time>2019-07-16T07:26:58Z</time>
      </trkpt>
      <trkpt lat="48.29067" lon="-1.95672">
        <ele>167.9</ele>
        <time>2019-07-16T07:26:59Z</time>
      </trkpt>
      <trkpt lat="48.29071" lon="-1.95661">
        <ele>167.1</ele>
        <time>2019-07-16T07:27:00Z</time>
      </trkpt>
      <trkpt lat="48.29076" lon="-1.95651">
        <ele>166.7</ele>
        <time>2019-07-16T07:27:01Z</time>
      </trkpt>
      <trkpt lat="48.2908" lon="-1.95641">
        <ele>167.4</ele>
        <time>2019-07-16T07:27:02Z</time>
      </trkpt>
      <trkpt lat="48.29084" lon="-1.95629">
        <ele>167.2</ele>
        <time>2019-07-16T07:27:03Z</time>
      </trkpt>
      <trkpt lat="48.29089" lon="-1.95617">
        <ele>166.4</ele>
        <time>2019-07-16T07:27:04Z</time>
      </trkpt>
      <trkpt lat="48.29094" lon="-1.95607">
        <ele>165.8</ele>
        <time>2019-07-16T07:27:05Z</time>
      </trkpt>
      <trkpt lat="48.29099" lon="-1.95596">
        <ele>165.2</ele>
        <time>2019-07-16T07:27:06Z</time>
      </trkpt>
      <trkpt lat="48.29105" lon="-1.95587">
        <ele>165.5</ele>
        <time>2019-07-16T07:27:07Z</time>
      </trkpt>
      <trkpt lat="48.2911" lon="-1.95578">
        <ele>165.8</ele>
        <time>2019-07-16T07:27:08Z</time>
      </trkpt>
      <trkpt lat="48.29116" lon="-1.9557">
        <ele>166</ele>
        <time>2019-07-16T07:27:09Z</time>
      </trkpt>
      <trkpt lat="48.29121" lon="-1.95561">
        <ele>165.8</ele>
        <time>2019-07-16T07:27:10Z</time>
      </trkpt>
      <trkpt lat="48.29126" lon="-1.95554">
        <ele>166</ele>
        <time>2019-07-16T07:27:11Z</time>
      </trkpt>
      <trkpt lat="48.29131" lon="-1.95546">
        <ele>166.2</ele>
        <time>2019-07-16T07:27:12Z</time>
      </trkpt>
      <trkpt lat="48.29136" lon="-1.95539">
        <ele>166.4</ele>
        <time>2019-07-16T07:27:13Z</time>
      </trkpt>
      <trkpt lat="48.2914" lon="-1.95531">
        <ele>166.7</ele>
        <time>2019-07-16T07:27:14Z</time>
      </trkpt>
      <trkpt lat="48.29145" lon="-1.95525">
        <ele>167.2</ele>
        <time>2019-07-16T07:27:15Z</time>
      </trkpt>
      <trkpt lat="48.29149" lon="-1.95518">
        <ele>167.5</ele>
        <time>2019-07-16T07:27:16Z</time>
      </trkpt>
      <trkpt lat="48.29153" lon="-1.95511">
        <ele>168.1</ele>
        <time>2019-07-16T07:27:17Z</time>
      </trkpt>
      <trkpt lat="48.29157" lon="-1.95505">
        <ele>168.3</ele>
        <time>2019-07-16T07:27:18Z</time>
      </trkpt>
      <trkpt lat="48.29161" lon="-1.95499">
        <ele>168.4</ele>
        <time>2019-07-16T07:27:19Z</time>
      </trkpt>
      <trkpt lat="48.29165" lon="-1.95493">
        <ele>168.5</ele>
        <time>2019-07-16T07:27:20Z</time>
      </trkpt>
      <trkpt lat="48.29168" lon="-1.95486">
        <ele>167.4</ele>
        <time>2019-07-16T07:27:21Z</time>
      </trkpt>
      <trkpt lat="48.29172" lon="-1.9548">
        <ele>167.3</ele>
        <time>2019-07-16T07:27:22Z</time>
      </trkpt>
      <trkpt lat="48.29176" lon="-1.95473">
        <ele>167.3</ele>
        <time>2019-07-16T07:27:23Z</time>
      </trkpt>
      <trkpt lat="48.29179" lon="-1.95466">
        <ele>166</ele>
        <time>2019-07-16T07:27:24Z</time>
      </trkpt>
      <trkpt lat="48.29183" lon="-1.95459">
        <ele>165.9</ele>
        <time>2019-07-16T07:27:25Z</time>
      </trkpt>
      <trkpt lat="48.29186" lon="-1.95453">
        <ele>165.7</ele>
        <time>2019-07-16T07:27:26Z</time>
      </trkpt>
      <trkpt lat="48.2919" lon="-1.95446">
        <ele>165.4</ele>
        <time>2019-07-16T07:27:27Z</time>
      </trkpt>
      <trkpt lat="48.29194" lon="-1.9544">
        <ele>165.3</ele>
        <time>2019-07-16T07:27:28Z</time>
      </trkpt>
      <trkpt lat="48.29197" lon="-1.95433">
        <ele>165.5</ele>
        <time>2019-07-16T07:27:29Z</time>
      </trkpt>
      <trkpt lat="48.29202" lon="-1.95427">
        <ele>166</ele>
        <time>2019-07-16T07:27:30Z</time>
      </trkpt>
      <trkpt lat="48.29205" lon="-1.9542">
        <ele>166.3</ele>
        <time>2019-07-16T07:27:31Z</time>
      </trkpt>
      <trkpt lat="48.29208" lon="-1.95414">
        <ele>166.5</ele>
        <time>2019-07-16T07:27:32Z</time>
      </trkpt>
      <trkpt lat="48.29212" lon="-1.95407">
        <ele>166.4</ele>
        <time>2019-07-16T07:27:33Z</time>
      </trkpt>
      <trkpt lat="48.29215" lon="-1.954">
        <ele>166.6</ele>
        <time>2019-07-16T07:27:34Z</time>
      </trkpt>
      <trkpt lat="48.29218" lon="-1.95393">
        <ele>166.9</ele>
        <time>2019-07-16T07:27:35Z</time>
      </trkpt>
      <trkpt lat="48.29221" lon="-1.95385">
        <ele>167.1</ele>
        <time>2019-07-16T07:27:36Z</time>
      </trkpt>
      <trkpt lat="48.29224" lon="-1.95378">
        <ele>167.3</ele>
        <time>2019-07-16T07:27:37Z</time>
      </trkpt>
      <trkpt lat="48.29227" lon="-1.95371">
        <ele>167.1</ele>
        <time>2019-07-16T07:27:38Z</time>
      </trkpt>
      <trkpt lat="48.2923" lon="-1.95363">
        <ele>167.3</ele>
        <time>2019-07-16T07:27:39Z</time>
      </trkpt>
      <trkpt lat="48.29232" lon="-1.95355">
        <ele>167.2</ele>
        <time>2019-07-16T07:27:40Z</time>
      </trkpt>
      <trkpt lat="48.29234" lon="-1.95348">
        <ele>167.3</ele>
        <time>2019-07-16T07:27:41Z</time>
      </trkpt>
      <trkpt lat="48.29236" lon="-1.9534">
        <ele>167.2</ele>
        <time>2019-07-16T07:27:42Z</time>
      </trkpt>
      <trkpt lat="48.29237" lon="-1.95331">
        <ele>167.1</ele>
        <time>2019-07-16T07:27:43Z</time>
      </trkpt>
      <trkpt lat="48.29238" lon="-1.95322">
        <ele>167.1</ele>
        <time>2019-07-16T07:27:44Z</time>
      </trkpt>
      <trkpt lat="48.2924" lon="-1.95315">
        <ele>167</ele>
        <time>2019-07-16T07:27:45Z</time>
      </trkpt>
      <trkpt lat="48.29241" lon="-1.95307">
        <ele>167.4</ele>
        <time>2019-07-16T07:27:46Z</time>
      </trkpt>
      <trkpt lat="48.29243" lon="-1.953">
        <ele>167.3</ele>
        <time>2019-07-16T07:27:47Z</time>
      </trkpt>
      <trkpt lat="48.29244" lon="-1.95293">
        <ele>166.8</ele>
        <time>2019-07-16T07:27:48Z</time>
      </trkpt>
      <trkpt lat="48.29245" lon="-1.95285">
        <ele>166.8</ele>
        <time>2019-07-16T07:27:49Z</time>
      </trkpt>
      <trkpt lat="48.29247" lon="-1.95278">
        <ele>166.7</ele>
        <time>2019-07-16T07:27:50Z</time>
      </trkpt>
      <trkpt lat="48.29248" lon="-1.9527">
        <ele>166.4</ele>
        <time>2019-07-16T07:27:51Z</time>
      </trkpt>
      <trkpt lat="48.29249" lon="-1.95263">
        <ele>166.1</ele>
        <time>2019-07-16T07:27:52Z</time>
      </trkpt>
      <trkpt lat="48.2925" lon="-1.95256">
        <ele>165.8</ele>
        <time>2019-07-16T07:27:53Z</time>
      </trkpt>
      <trkpt lat="48.29252" lon="-1.95249">
        <ele>165.5</ele>
        <time>2019-07-16T07:27:54Z</time>
      </trkpt>
      <trkpt lat="48.29253" lon="-1.95242">
        <ele>165.5</ele>
        <time>2019-07-16T07:27:55Z</time>
      </trkpt>
      <trkpt lat="48.29254" lon="-1.95235">
        <ele>165.5</ele>
        <time>2019-07-16T07:27:56Z</time>
      </trkpt>
      <trkpt lat="48.29255" lon="-1.95228">
        <ele>165.6</ele>
        <time>2019-07-16T07:27:57Z</time>
      </trkpt>
      <trkpt lat="48.29256" lon="-1.95222">
        <ele>165.5</ele>
        <time>2019-07-16T07:27:58Z</time>
      </trkpt>
      <trkpt lat="48.29258" lon="-1.95215">
        <ele>165.8</ele>
        <time>2019-07-16T07:27:59Z</time>
      </trkpt>
      <trkpt lat="48.29259" lon="-1.95209">
        <ele>166.4</ele>
        <time>2019-07-16T07:28:00Z</time>
      </trkpt>
      <trkpt lat="48.2926" lon="-1.95203">
        <ele>167.6</ele>
        <time>2019-07-16T07:28:01Z</time>
      </trkpt>
      <trkpt lat="48.29261" lon="-1.95197">
        <ele>168.8</ele>
        <time>2019-07-16T07:28:02Z</time>
      </trkpt>
      <trkpt lat="48.29263" lon="-1.95191">
        <ele>169.2</ele>
        <time>2019-07-16T07:28:03Z</time>
      </trkpt>
      <trkpt lat="48.29263" lon="-1.95186">
        <ele>169.7</ele>
        <time>2019-07-16T07:28:04Z</time>
      </trkpt>
      <trkpt lat="48.29265" lon="-1.9518">
        <ele>170.3</ele>
        <time>2019-07-16T07:28:05Z</time>
      </trkpt>
      <trkpt lat="48.29266" lon="-1.95174">
        <ele>170.5</ele>
        <time>2019-07-16T07:28:06Z</time>
      </trkpt>
      <trkpt lat="48.29266" lon="-1.95168">
        <ele>170.8</ele>
        <time>2019-07-16T07:28:07Z</time>
      </trkpt>
      <trkpt lat="48.29268" lon="-1.95163">
        <ele>171.2</ele>
        <time>2019-07-16T07:28:08Z</time>
      </trkpt>
      <trkpt lat="48.29269" lon="-1.95158">
        <ele>171.2</ele>
        <time>2019-07-16T07:28:09Z</time>
      </trkpt>
      <trkpt lat="48.2927" lon="-1.95153">
        <ele>171.4</ele>
        <time>2019-07-16T07:28:10Z</time>
      </trkpt>
      <trkpt lat="48.2927" lon="-1.95148">
        <ele>171.5</ele>
        <time>2019-07-16T07:28:11Z</time>
      </trkpt>
      <trkpt lat="48.29271" lon="-1.95142">
        <ele>170.8</ele>
        <time>2019-07-16T07:28:12Z</time>
      </trkpt>
      <trkpt lat="48.29273" lon="-1.95137">
        <ele>170.9</ele>
        <time>2019-07-16T07:28:13Z</time>
      </trkpt>
      <trkpt lat="48.29274" lon="-1.95131">
        <ele>170.4</ele>
        <time>2019-07-16T07:28:14Z</time>
      </trkpt>
      <trkpt lat="48.29275" lon="-1.95125">
        <ele>170</ele>
        <time>2019-07-16T07:28:15Z</time>
      </trkpt>
      <trkpt lat="48.29276" lon="-1.9512">
        <ele>169.7</ele>
        <time>2019-07-16T07:28:16Z</time>
      </trkpt>
      <trkpt lat="48.29277" lon="-1.95114">
        <ele>169.4</ele>
        <time>2019-07-16T07:28:17Z</time>
      </trkpt>
      <trkpt lat="48.29278" lon="-1.95109">
        <ele>169.8</ele>
        <time>2019-07-16T07:28:18Z</time>
      </trkpt>
      <trkpt lat="48.29279" lon="-1.95105">
        <ele>170.5</ele>
        <time>2019-07-16T07:28:19Z</time>
      </trkpt>
      <trkpt lat="48.29281" lon="-1.951">
        <ele>170.5</ele>
        <time>2019-07-16T07:28:20Z</time>
      </trkpt>
      <trkpt lat="48.29281" lon="-1.95095">
        <ele>170.3</ele>
        <time>2019-07-16T07:28:21Z</time>
      </trkpt>
      <trkpt lat="48.29282" lon="-1.9509">
        <ele>170.3</ele>
        <time>2019-07-16T07:28:22Z</time>
      </trkpt>
      <trkpt lat="48.29283" lon="-1.95085">
        <ele>170.2</ele>
        <time>2019-07-16T07:28:23Z</time>
      </trkpt>
      <trkpt lat="48.29284" lon="-1.9508">
        <ele>170.1</ele>
        <time>2019-07-16T07:28:24Z</time>
      </trkpt>
      <trkpt lat="48.29285" lon="-1.95075">
        <ele>169.9</ele>
        <time>2019-07-16T07:28:25Z</time>
      </trkpt>
      <trkpt lat="48.29285" lon="-1.95069">
        <ele>169.7</ele>
        <time>2019-07-16T07:28:26Z</time>
      </trkpt>
      <trkpt lat="48.29287" lon="-1.95065">
        <ele>169.7</ele>
        <time>2019-07-16T07:28:27Z</time>
      </trkpt>
      <trkpt lat="48.29287" lon="-1.9506">
        <ele>169.5</ele>
        <time>2019-07-16T07:28:28Z</time>
      </trkpt>
      <trkpt lat="48.29289" lon="-1.95055">
        <ele>169.6</ele>
        <time>2019-07-16T07:28:29Z</time>
      </trkpt>
      <trkpt lat="48.29289" lon="-1.95049">
        <ele>169.6</ele>
        <time>2019-07-16T07:28:30Z</time>
      </trkpt>
      <trkpt lat="48.29289" lon="-1.95044">
        <ele>169.6</ele>
        <time>2019-07-16T07:28:31Z</time>
      </trkpt>
      <trkpt lat="48.2929" lon="-1.95039">
        <ele>169.7</ele>
        <time>2019-07-16T07:28:32Z</time>
      </trkpt>
      <trkpt lat="48.2929" lon="-1.95034">
        <ele>169.5</ele>
        <time>2019-07-16T07:28:33Z</time>
      </trkpt>
      <trkpt lat="48.29291" lon="-1.95028">
        <ele>169.7</ele>
        <time>2019-07-16T07:28:34Z</time>
      </trkpt>
      <trkpt lat="48.29292" lon="-1.95023">
        <ele>169.7</ele>
        <time>2019-07-16T07:28:35Z</time>
      </trkpt>
      <trkpt lat="48.29292" lon="-1.95018">
        <ele>169.7</ele>
        <time>2019-07-16T07:28:36Z</time>
      </trkpt>
      <trkpt lat="48.29293" lon="-1.95013">
        <ele>169.8</ele>
        <time>2019-07-16T07:28:37Z</time>
      </trkpt>
      <trkpt lat="48.29294" lon="-1.95009">
        <ele>169.9</ele>
        <time>2019-07-16T07:28:38Z</time>
      </trkpt>
      <trkpt lat="48.29294" lon="-1.95004">
        <ele>169.8</ele>
        <time>2019-07-16T07:28:39Z</time>
      </trkpt>
      <trkpt lat="48.29295" lon="-1.94999">
        <ele>169.5</ele>
        <time>2019-07-16T07:28:40Z</time>
      </trkpt>
      <trkpt lat="48.29296" lon="-1.94994">
        <ele>169.4</ele>
        <time>2019-07-16T07:28:41Z</time>
      </trkpt>
      <trkpt lat="48.29297" lon="-1.94989">
        <ele>169.3</ele>
        <time>2019-07-16T07:28:42Z</time>
      </trkpt>
      <trkpt lat="48.29298" lon="-1.94985">
        <ele>169.4</ele>
        <time>2019-07-16T07:28:43Z</time>
      </trkpt>
      <trkpt lat="48.29298" lon="-1.9498">
        <ele>169.3</ele>
        <time>2019-07-16T07:28:44Z</time>
      </trkpt>
      <trkpt lat="48.29299" lon="-1.94975">
        <ele>169.5</ele>
        <time>2019-07-16T07:28:45Z</time>
      </trkpt>
      <trkpt lat="48.293" lon="-1.9497">
        <ele>169.7</ele>
        <time>2019-07-16T07:28:46Z</time>
      </trkpt>
      <trkpt lat="48.29301" lon="-1.94966">
        <ele>169.7</ele>
        <time>2019-07-16T07:28:47Z</time>
      </trkpt>
      <trkpt lat="48.29301" lon="-1.94961">
        <ele>169.8</ele>
        <time>2019-07-16T07:28:48Z</time>
      </trkpt>
      <trkpt lat="48.29302" lon="-1.94956">
        <ele>169.6</ele>
        <time>2019-07-16T07:28:49Z</time>
      </trkpt>
      <trkpt lat="48.29303" lon="-1.94952">
        <ele>169.9</ele>
        <time>2019-07-16T07:28:50Z</time>
      </trkpt>
      <trkpt lat="48.29304" lon="-1.94947">
        <ele>169.8</ele>
        <time>2019-07-16T07:28:51Z</time>
      </trkpt>
      <trkpt lat="48.29305" lon="-1.94943">
        <ele>170.1</ele>
        <time>2019-07-16T07:28:52Z</time>
      </trkpt>
      <trkpt lat="48.29306" lon="-1.94938">
        <ele>170.3</ele>
        <time>2019-07-16T07:28:53Z</time>
      </trkpt>
      <trkpt lat="48.29306" lon="-1.94933">
        <ele>170.5</ele>
        <time>2019-07-16T07:28:54Z</time>
      </trkpt>
      <trkpt lat="48.29307" lon="-1.94929">
        <ele>170.7</ele>
        <time>2019-07-16T07:28:55Z</time>
      </trkpt>
      <trkpt lat="48.29307" lon="-1.94924">
        <ele>170.5</ele>
        <time>2019-07-16T07:28:56Z</time>
      </trkpt>
      <trkpt lat="48.29308" lon="-1.94919">
        <ele>170.3</ele>
        <time>2019-07-16T07:28:57Z</time>
      </trkpt>
      <trkpt lat="48.29308" lon="-1.94914">
        <ele>170.3</ele>
        <time>2019-07-16T07:28:58Z</time>
      </trkpt>
      <trkpt lat="48.29309" lon="-1.9491">
        <ele>170.1</ele>
        <time>2019-07-16T07:28:59Z</time>
      </trkpt>
      <trkpt lat="48.2931" lon="-1.94905">
        <ele>170</ele>
        <time>2019-07-16T07:29:00Z</time>
      </trkpt>
      <trkpt lat="48.29311" lon="-1.949">
        <ele>170</ele>
        <time>2019-07-16T07:29:01Z</time>
      </trkpt>
      <trkpt lat="48.29311" lon="-1.94895">
        <ele>170.2</ele>
        <time>2019-07-16T07:29:02Z</time>
      </trkpt>
      <trkpt lat="48.29312" lon="-1.9489">
        <ele>170.3</ele>
        <time>2019-07-16T07:29:03Z</time>
      </trkpt>
      <trkpt lat="48.29313" lon="-1.94886">
        <ele>170.4</ele>
        <time>2019-07-16T07:29:04Z</time>
      </trkpt>
      <trkpt lat="48.29313" lon="-1.94882">
        <ele>170.5</ele>
        <time>2019-07-16T07:29:05Z</time>
      </trkpt>
      <trkpt lat="48.29314" lon="-1.94877">
        <ele>170.6</ele>
        <time>2019-07-16T07:29:06Z</time>
      </trkpt>
      <trkpt lat="48.29316" lon="-1.94873">
        <ele>170.6</ele>
        <time>2019-07-16T07:29:07Z</time>
      </trkpt>
      <trkpt lat="48.29316" lon="-1.94869">
        <ele>170.9</ele>
        <time>2019-07-16T07:29:08Z</time>
      </trkpt>
      <trkpt lat="48.29317" lon="-1.94864">
        <ele>171.3</ele>
        <time>2019-07-16T07:29:09Z</time>
      </trkpt>
      <trkpt lat="48.29318" lon="-1.9486">
        <ele>171.5</ele>
        <time>2019-07-16T07:29:10Z</time>
      </trkpt>
      <trkpt lat="48.29319" lon="-1.94855">
        <ele>171.4</ele>
        <time>2019-07-16T07:29:11Z</time>
      </trkpt>
      <trkpt lat="48.29319" lon="-1.94851">
        <ele>171.3</ele>
        <time>2019-07-16T07:29:12Z</time>
      </trkpt>
      <trkpt lat="48.2932" lon="-1.94846">
        <ele>171.3</ele>
        <time>2019-07-16T07:29:13Z</time>
      </trkpt>
      <trkpt lat="48.29321" lon="-1.94842">
        <ele>171.8</ele>
        <time>2019-07-16T07:29:14Z</time>
      </trkpt>
      <trkpt lat="48.29322" lon="-1.94838">
        <ele>172.3</ele>
        <time>2019-07-16T07:29:15Z</time>
      </trkpt>
      <trkpt lat="48.29323" lon="-1.94834">
        <ele>172.5</ele>
        <time>2019-07-16T07:29:16Z</time>
      </trkpt>
      <trkpt lat="48.29324" lon="-1.9483">
        <ele>172.9</ele>
        <time>2019-07-16T07:29:17Z</time>
      </trkpt>
      <trkpt lat="48.29326" lon="-1.94826">
        <ele>173.5</ele>
        <time>2019-07-16T07:29:18Z</time>
      </trkpt>
      <trkpt lat="48.29327" lon="-1.94822">
        <ele>173.7</ele>
        <time>2019-07-16T07:29:19Z</time>
      </trkpt>
      <trkpt lat="48.29328" lon="-1.94818">
        <ele>174.1</ele>
        <time>2019-07-16T07:29:20Z</time>
      </trkpt>
      <trkpt lat="48.29329" lon="-1.94814">
        <ele>174.1</ele>
        <time>2019-07-16T07:29:21Z</time>
      </trkpt>
      <trkpt lat="48.29331" lon="-1.94811">
        <ele>174.3</ele>
        <time>2019-07-16T07:29:22Z</time>
      </trkpt>
      <trkpt lat="48.29332" lon="-1.94807">
        <ele>174.5</ele>
        <time>2019-07-16T07:29:23Z</time>
      </trkpt>
      <trkpt lat="48.29334" lon="-1.94804">
        <ele>174.7</ele>
        <time>2019-07-16T07:29:24Z</time>
      </trkpt>
      <trkpt lat="48.29335" lon="-1.94801">
        <ele>174.9</ele>
        <time>2019-07-16T07:29:25Z</time>
      </trkpt>
      <trkpt lat="48.29337" lon="-1.94797">
        <ele>174.5</ele>
        <time>2019-07-16T07:29:26Z</time>
      </trkpt>
      <trkpt lat="48.29339" lon="-1.94794">
        <ele>174.3</ele>
        <time>2019-07-16T07:29:27Z</time>
      </trkpt>
      <trkpt lat="48.2934" lon="-1.9479">
        <ele>174.3</ele>
        <time>2019-07-16T07:29:28Z</time>
      </trkpt>
      <trkpt lat="48.29342" lon="-1.94786">
        <ele>174.2</ele>
        <time>2019-07-16T07:29:29Z</time>
      </trkpt>
      <trkpt lat="48.29343" lon="-1.94782">
        <ele>174</ele>
        <time>2019-07-16T07:29:30Z</time>
      </trkpt>
      <trkpt lat="48.29344" lon="-1.94778">
        <ele>173.9</ele>
        <time>2019-07-16T07:29:31Z</time>
      </trkpt>
      <trkpt lat="48.29346" lon="-1.94774">
        <ele>173.5</ele>
        <time>2019-07-16T07:29:32Z</time>
      </trkpt>
      <trkpt lat="48.29348" lon="-1.9477">
        <ele>173.5</ele>
        <time>2019-07-16T07:29:33Z</time>
      </trkpt>
      <trkpt lat="48.2935" lon="-1.94766">
        <ele>173.6</ele>
        <time>2019-07-16T07:29:34Z</time>
      </trkpt>
      <trkpt lat="48.29351" lon="-1.94762">
        <ele>173.6</ele>
        <time>2019-07-16T07:29:35Z</time>
      </trkpt>
      <trkpt lat="48.29354" lon="-1.94759">
        <ele>173.5</ele>
        <time>2019-07-16T07:29:36Z</time>
      </trkpt>
      <trkpt lat="48.29356" lon="-1.94755">
        <ele>173.3</ele>
        <time>2019-07-16T07:29:37Z</time>
      </trkpt>
      <trkpt lat="48.29358" lon="-1.94751">
        <ele>173.4</ele>
        <time>2019-07-16T07:29:38Z</time>
      </trkpt>
      <trkpt lat="48.29359" lon="-1.94747">
        <ele>173.6</ele>
        <time>2019-07-16T07:29:39Z</time>
      </trkpt>
      <trkpt lat="48.29361" lon="-1.94743">
        <ele>174</ele>
        <time>2019-07-16T07:29:40Z</time>
      </trkpt>
      <trkpt lat="48.29363" lon="-1.94739">
        <ele>174.2</ele>
        <time>2019-07-16T07:29:41Z</time>
      </trkpt>
      <trkpt lat="48.29364" lon="-1.94734">
        <ele>174.2</ele>
        <time>2019-07-16T07:29:42Z</time>
      </trkpt>
      <trkpt lat="48.29366" lon="-1.94729">
        <ele>174.1</ele>
        <time>2019-07-16T07:29:43Z</time>
      </trkpt>
      <trkpt lat="48.29368" lon="-1.94725">
        <ele>174.1</ele>
        <time>2019-07-16T07:29:44Z</time>
      </trkpt>
      <trkpt lat="48.29369" lon="-1.94721">
        <ele>174.3</ele>
        <time>2019-07-16T07:29:45Z</time>
      </trkpt>
      <trkpt lat="48.29371" lon="-1.94717">
        <ele>174.7</ele>
        <time>2019-07-16T07:29:46Z</time>
      </trkpt>
      <trkpt lat="48.29374" lon="-1.94712">
        <ele>175.1</ele>
        <time>2019-07-16T07:29:47Z</time>
      </trkpt>
      <trkpt lat="48.29376" lon="-1.94708">
        <ele>175.3</ele>
        <time>2019-07-16T07:29:48Z</time>
      </trkpt>
      <trkpt lat="48.29378" lon="-1.94703">
        <ele>175.3</ele>
        <time>2019-07-16T07:29:49Z</time>
      </trkpt>
      <trkpt lat="48.2938" lon="-1.94698">
        <ele>175.4</ele>
        <time>2019-07-16T07:29:50Z</time>
      </trkpt>
      <trkpt lat="48.29382" lon="-1.94693">
        <ele>175.5</ele>
        <time>2019-07-16T07:29:51Z</time>
      </trkpt>
      <trkpt lat="48.29385" lon="-1.94688">
        <ele>175.6</ele>
        <time>2019-07-16T07:29:52Z</time>
      </trkpt>
      <trkpt lat="48.29387" lon="-1.94683">
        <ele>175.4</ele>
        <time>2019-07-16T07:29:53Z</time>
      </trkpt>
      <trkpt lat="48.29388" lon="-1.94679">
        <ele>175.5</ele>
        <time>2019-07-16T07:29:54Z</time>
      </trkpt>
      <trkpt lat="48.29391" lon="-1.94675">
        <ele>175.7</ele>
        <time>2019-07-16T07:29:55Z</time>
      </trkpt>
      <trkpt lat="48.29393" lon="-1.9467">
        <ele>175.5</ele>
        <time>2019-07-16T07:29:56Z</time>
      </trkpt>
      <trkpt lat="48.29396" lon="-1.94666">
        <ele>175.4</ele>
        <time>2019-07-16T07:29:57Z</time>
      </trkpt>
      <trkpt lat="48.29399" lon="-1.94662">
        <ele>175.6</ele>
        <time>2019-07-16T07:29:58Z</time>
      </trkpt>
      <trkpt lat="48.29402" lon="-1.94657">
        <ele>175.7</ele>
        <time>2019-07-16T07:29:59Z</time>
      </trkpt>
      <trkpt lat="48.29405" lon="-1.94652">
        <ele>176.1</ele>
        <time>2019-07-16T07:30:00Z</time>
      </trkpt>
      <trkpt lat="48.29408" lon="-1.94648">
        <ele>176.5</ele>
        <time>2019-07-16T07:30:01Z</time>
      </trkpt>
      <trkpt lat="48.29411" lon="-1.94642">
        <ele>176.2</ele>
        <time>2019-07-16T07:30:02Z</time>
      </trkpt>
      <trkpt lat="48.29414" lon="-1.94638">
        <ele>176.2</ele>
        <time>2019-07-16T07:30:03Z</time>
      </trkpt>
      <trkpt lat="48.29416" lon="-1.94633">
        <ele>175.8</ele>
        <time>2019-07-16T07:30:04Z</time>
      </trkpt>
      <trkpt lat="48.29417" lon="-1.94628">
        <ele>175.1</ele>
        <time>2019-07-16T07:30:05Z</time>
      </trkpt>
      <trkpt lat="48.29417" lon="-1.94624">
        <ele>174.3</ele>
        <time>2019-07-16T07:30:06Z</time>
      </trkpt>
      <trkpt lat="48.29417" lon="-1.94622">
        <ele>174</ele>
        <time>2019-07-16T07:30:07Z</time>
      </trkpt>
      <trkpt lat="48.29418" lon="-1.94618">
        <ele>173.5</ele>
        <time>2019-07-16T07:30:30Z</time>
      </trkpt>
      <trkpt lat="48.29419" lon="-1.94616">
        <ele>173.7</ele>
        <time>2019-07-16T07:30:31Z</time>
      </trkpt>
      <trkpt lat="48.2942" lon="-1.94615">
        <ele>173.8</ele>
        <time>2019-07-16T07:30:32Z</time>
      </trkpt>
      <trkpt lat="48.29421" lon="-1.94613">
        <ele>174</ele>
        <time>2019-07-16T07:30:33Z</time>
      </trkpt>
      <trkpt lat="48.29423" lon="-1.94611">
        <ele>174.1</ele>
        <time>2019-07-16T07:30:34Z</time>
      </trkpt>
      <trkpt lat="48.29424" lon="-1.94608">
        <ele>174.3</ele>
        <time>2019-07-16T07:30:35Z</time>
      </trkpt>
      <trkpt lat="48.29426" lon="-1.94602">
        <ele>174.4</ele>
        <time>2019-07-16T07:30:36Z</time>
      </trkpt>
      <trkpt lat="48.29427" lon="-1.94596">
        <ele>174.3</ele>
        <time>2019-07-16T07:30:37Z</time>
      </trkpt>
      <trkpt lat="48.2943" lon="-1.94589">
        <ele>174.3</ele>
        <time>2019-07-16T07:30:38Z</time>
      </trkpt>
      <trkpt lat="48.29433" lon="-1.94583">
        <ele>174.4</ele>
        <time>2019-07-16T07:30:39Z</time>
      </trkpt>
      <trkpt lat="48.29436" lon="-1.94576">
        <ele>174.3</ele>
        <time>2019-07-16T07:30:40Z</time>
      </trkpt>
      <trkpt lat="48.29439" lon="-1.9457">
        <ele>174.4</ele>
        <time>2019-07-16T07:30:41Z</time>
      </trkpt>
      <trkpt lat="48.29443" lon="-1.94564">
        <ele>174.6</ele>
        <time>2019-07-16T07:30:42Z</time>
      </trkpt>
      <trkpt lat="48.29446" lon="-1.94557">
        <ele>174.6</ele>
        <time>2019-07-16T07:30:43Z</time>
      </trkpt>
      <trkpt lat="48.29449" lon="-1.94551">
        <ele>174.4</ele>
        <time>2019-07-16T07:30:44Z</time>
      </trkpt>
      <trkpt lat="48.29451" lon="-1.94544">
        <ele>173.9</ele>
        <time>2019-07-16T07:30:45Z</time>
      </trkpt>
      <trkpt lat="48.29453" lon="-1.94537">
        <ele>173.2</ele>
        <time>2019-07-16T07:30:46Z</time>
      </trkpt>
      <trkpt lat="48.29455" lon="-1.94531">
        <ele>172.8</ele>
        <time>2019-07-16T07:30:47Z</time>
      </trkpt>
      <trkpt lat="48.29458" lon="-1.94527">
        <ele>172.4</ele>
        <time>2019-07-16T07:30:48Z</time>
      </trkpt>
      <trkpt lat="48.2946" lon="-1.94523">
        <ele>172.6</ele>
        <time>2019-07-16T07:30:49Z</time>
      </trkpt>
      <trkpt lat="48.29462" lon="-1.9452">
        <ele>172.8</ele>
        <time>2019-07-16T07:30:50Z</time>
      </trkpt>
      <trkpt lat="48.29463" lon="-1.94517">
        <ele>173.1</ele>
        <time>2019-07-16T07:30:51Z</time>
      </trkpt>
      <trkpt lat="48.29466" lon="-1.94514">
        <ele>173.3</ele>
        <time>2019-07-16T07:30:52Z</time>
      </trkpt>
      <trkpt lat="48.29467" lon="-1.94511">
        <ele>173.5</ele>
        <time>2019-07-16T07:30:53Z</time>
      </trkpt>
      <trkpt lat="48.29469" lon="-1.94509">
        <ele>173.5</ele>
        <time>2019-07-16T07:30:54Z</time>
      </trkpt>
      <trkpt lat="48.29471" lon="-1.94507">
        <ele>173.8</ele>
        <time>2019-07-16T07:30:55Z</time>
      </trkpt>
      <trkpt lat="48.29474" lon="-1.94505">
        <ele>173.9</ele>
        <time>2019-07-16T07:30:56Z</time>
      </trkpt>
      <trkpt lat="48.29476" lon="-1.94504">
        <ele>174.1</ele>
        <time>2019-07-16T07:30:57Z</time>
      </trkpt>
      <trkpt lat="48.29478" lon="-1.94503">
        <ele>174.4</ele>
        <time>2019-07-16T07:30:58Z</time>
      </trkpt>
      <trkpt lat="48.2948" lon="-1.94501">
        <ele>174.8</ele>
        <time>2019-07-16T07:30:59Z</time>
      </trkpt>
      <trkpt lat="48.29482" lon="-1.945">
        <ele>175.1</ele>
        <time>2019-07-16T07:31:00Z</time>
      </trkpt>
      <trkpt lat="48.29484" lon="-1.94497">
        <ele>174.8</ele>
        <time>2019-07-16T07:31:01Z</time>
      </trkpt>
      <trkpt lat="48.29487" lon="-1.94496">
        <ele>174.9</ele>
        <time>2019-07-16T07:31:02Z</time>
      </trkpt>
      <trkpt lat="48.29489" lon="-1.94494">
        <ele>174.8</ele>
        <time>2019-07-16T07:31:03Z</time>
      </trkpt>
      <trkpt lat="48.29491" lon="-1.94493">
        <ele>174.7</ele>
        <time>2019-07-16T07:31:04Z</time>
      </trkpt>
      <trkpt lat="48.29491" lon="-1.94491">
        <ele>174.1</ele>
        <time>2019-07-16T07:31:05Z</time>
      </trkpt>
      <trkpt lat="48.29491" lon="-1.94489">
        <ele>174.3</ele>
        <time>2019-07-16T07:31:06Z</time>
      </trkpt>
      <trkpt lat="48.29492" lon="-1.94486">
        <ele>174.4</ele>
        <time>2019-07-16T07:31:07Z</time>
      </trkpt>
      <trkpt lat="48.29492" lon="-1.94483">
        <ele>174.5</ele>
        <time>2019-07-16T07:31:08Z</time>
      </trkpt>
      <trkpt lat="48.29492" lon="-1.9448">
        <ele>174.5</ele>
        <time>2019-07-16T07:31:09Z</time>
      </trkpt>
      <trkpt lat="48.29493" lon="-1.94477">
        <ele>174.4</ele>
        <time>2019-07-16T07:31:10Z</time>
      </trkpt>
      <trkpt lat="48.29493" lon="-1.94472">
        <ele>173.9</ele>
        <time>2019-07-16T07:31:11Z</time>
      </trkpt>
      <trkpt lat="48.29493" lon="-1.94469">
        <ele>173.9</ele>
        <time>2019-07-16T07:31:12Z</time>
      </trkpt>
      <trkpt lat="48.29493" lon="-1.94466">
        <ele>174</ele>
        <time>2019-07-16T07:31:13Z</time>
      </trkpt>
      <trkpt lat="48.29492" lon="-1.94462">
        <ele>173.6</ele>
        <time>2019-07-16T07:31:14Z</time>
      </trkpt>
      <trkpt lat="48.29491" lon="-1.94459">
        <ele>172.7</ele>
        <time>2019-07-16T07:31:15Z</time>
      </trkpt>
      <trkpt lat="48.2949" lon="-1.94456">
        <ele>171.9</ele>
        <time>2019-07-16T07:31:16Z</time>
      </trkpt>
      <trkpt lat="48.29489" lon="-1.94452">
        <ele>172.4</ele>
        <time>2019-07-16T07:31:17Z</time>
      </trkpt>
      <trkpt lat="48.29488" lon="-1.94447">
        <ele>172.9</ele>
        <time>2019-07-16T07:31:18Z</time>
      </trkpt>
      <trkpt lat="48.29488" lon="-1.94443">
        <ele>173.4</ele>
        <time>2019-07-16T07:31:19Z</time>
      </trkpt>
      <trkpt lat="48.29488" lon="-1.94439">
        <ele>173.8</ele>
        <time>2019-07-16T07:31:20Z</time>
      </trkpt>
      <trkpt lat="48.29487" lon="-1.94435">
        <ele>174.3</ele>
        <time>2019-07-16T07:31:21Z</time>
      </trkpt>
      <trkpt lat="48.29487" lon="-1.94432">
        <ele>174.9</ele>
        <time>2019-07-16T07:31:22Z</time>
      </trkpt>
      <trkpt lat="48.29488" lon="-1.94429">
        <ele>175.6</ele>
        <time>2019-07-16T07:31:23Z</time>
      </trkpt>
      <trkpt lat="48.29488" lon="-1.94426">
        <ele>176.1</ele>
        <time>2019-07-16T07:31:24Z</time>
      </trkpt>
      <trkpt lat="48.29489" lon="-1.94422">
        <ele>176.9</ele>
        <time>2019-07-16T07:31:25Z</time>
      </trkpt>
      <trkpt lat="48.2949" lon="-1.9442">
        <ele>177.4</ele>
        <time>2019-07-16T07:31:26Z</time>
      </trkpt>
      <trkpt lat="48.2949" lon="-1.94417">
        <ele>178.2</ele>
        <time>2019-07-16T07:31:27Z</time>
      </trkpt>
      <trkpt lat="48.29491" lon="-1.94415">
        <ele>179.3</ele>
        <time>2019-07-16T07:31:28Z</time>
      </trkpt>
      <trkpt lat="48.29492" lon="-1.94412">
        <ele>180.6</ele>
        <time>2019-07-16T07:31:29Z</time>
      </trkpt>
      <trkpt lat="48.29493" lon="-1.94409">
        <ele>182.2</ele>
        <time>2019-07-16T07:31:30Z</time>
      </trkpt>
      <trkpt lat="48.29495" lon="-1.94406">
        <ele>183.4</ele>
        <time>2019-07-16T07:31:31Z</time>
      </trkpt>
      <trkpt lat="48.29498" lon="-1.94402">
        <ele>186.9</ele>
        <time>2019-07-16T07:31:33Z</time>
      </trkpt>
      <trkpt lat="48.29499" lon="-1.94399">
        <ele>187.7</ele>
        <time>2019-07-16T07:31:34Z</time>
      </trkpt>
      <trkpt lat="48.29499" lon="-1.94396">
        <ele>188.4</ele>
        <time>2019-07-16T07:31:35Z</time>
      </trkpt>
      <trkpt lat="48.295" lon="-1.94393">
        <ele>189.3</ele>
        <time>2019-07-16T07:31:36Z</time>
      </trkpt>
      <trkpt lat="48.29501" lon="-1.9439">
        <ele>189.7</ele>
        <time>2019-07-16T07:31:37Z</time>
      </trkpt>
      <trkpt lat="48.29502" lon="-1.94388">
        <ele>189.8</ele>
        <time>2019-07-16T07:31:38Z</time>
      </trkpt>
      <trkpt lat="48.29504" lon="-1.94386">
        <ele>189.8</ele>
        <time>2019-07-16T07:31:39Z</time>
      </trkpt>
      <trkpt lat="48.29505" lon="-1.94385">
        <ele>190.1</ele>
        <time>2019-07-16T07:31:40Z</time>
      </trkpt>
      <trkpt lat="48.29506" lon="-1.94383">
        <ele>190</ele>
        <time>2019-07-16T07:31:41Z</time>
      </trkpt>
      <trkpt lat="48.29509" lon="-1.94378">
        <ele>189.3</ele>
        <time>2019-07-16T07:31:54Z</time>
      </trkpt>
      <trkpt lat="48.29509" lon="-1.94378">
        <ele>189.7</ele>
        <time>2019-07-16T07:31:55Z</time>
      </trkpt>
      <trkpt lat="48.29511" lon="-1.94378">
        <ele>189.5</ele>
        <time>2019-07-16T07:31:56Z</time>
      </trkpt>
      <trkpt lat="48.29513" lon="-1.94377">
        <ele>189.4</ele>
        <time>2019-07-16T07:31:57Z</time>
      </trkpt>
      <trkpt lat="48.29516" lon="-1.94377">
        <ele>189</ele>
        <time>2019-07-16T07:31:59Z</time>
      </trkpt>
      <trkpt lat="48.29517" lon="-1.94377">
        <ele>188.9</ele>
        <time>2019-07-16T07:32:00Z</time>
      </trkpt>
      <trkpt lat="48.29522" lon="-1.94377">
        <ele>187.9</ele>
        <time>2019-07-16T07:32:09Z</time>
      </trkpt>
      <trkpt lat="48.29525" lon="-1.94381">
        <ele>187.9</ele>
        <time>2019-07-16T07:32:11Z</time>
      </trkpt>
      <trkpt lat="48.29526" lon="-1.94386">
        <ele>188</ele>
        <time>2019-07-16T07:32:12Z</time>
      </trkpt>
      <trkpt lat="48.29527" lon="-1.9439">
        <ele>187.8</ele>
        <time>2019-07-16T07:32:13Z</time>
      </trkpt>
      <trkpt lat="48.29529" lon="-1.94393">
        <ele>188.3</ele>
        <time>2019-07-16T07:32:14Z</time>
      </trkpt>
      <trkpt lat="48.2953" lon="-1.94396">
        <ele>188.6</ele>
        <time>2019-07-16T07:32:15Z</time>
      </trkpt>
      <trkpt lat="48.29531" lon="-1.94398">
        <ele>188.8</ele>
        <time>2019-07-16T07:32:16Z</time>
      </trkpt>
      <trkpt lat="48.29532" lon="-1.94399">
        <ele>189.5</ele>
        <time>2019-07-16T07:32:17Z</time>
      </trkpt>
      <trkpt lat="48.29534" lon="-1.94401">
        <ele>190.6</ele>
        <time>2019-07-16T07:32:18Z</time>
      </trkpt>
      <trkpt lat="48.29536" lon="-1.94404">
        <ele>191.1</ele>
        <time>2019-07-16T07:32:19Z</time>
      </trkpt>
      <trkpt lat="48.29538" lon="-1.94406">
        <ele>191.8</ele>
        <time>2019-07-16T07:32:20Z</time>
      </trkpt>
      <trkpt lat="48.29538" lon="-1.94409">
        <ele>192</ele>
        <time>2019-07-16T07:32:21Z</time>
      </trkpt>
      <trkpt lat="48.29538" lon="-1.94412">
        <ele>192.1</ele>
        <time>2019-07-16T07:32:22Z</time>
      </trkpt>
      <trkpt lat="48.29539" lon="-1.94416">
        <ele>192.1</ele>
        <time>2019-07-16T07:32:23Z</time>
      </trkpt>
      <trkpt lat="48.2954" lon="-1.94419">
        <ele>192.1</ele>
        <time>2019-07-16T07:32:24Z</time>
      </trkpt>
      <trkpt lat="48.29541" lon="-1.94422">
        <ele>192</ele>
        <time>2019-07-16T07:32:25Z</time>
      </trkpt>
      <trkpt lat="48.29542" lon="-1.94426">
        <ele>191.9</ele>
        <time>2019-07-16T07:32:26Z</time>
      </trkpt>
      <trkpt lat="48.29543" lon="-1.94429">
        <ele>190.9</ele>
        <time>2019-07-16T07:32:27Z</time>
      </trkpt>
      <trkpt lat="48.29544" lon="-1.94432">
        <ele>190</ele>
        <time>2019-07-16T07:32:28Z</time>
      </trkpt>
      <trkpt lat="48.29545" lon="-1.94434">
        <ele>189</ele>
        <time>2019-07-16T07:32:29Z</time>
      </trkpt>
      <trkpt lat="48.29545" lon="-1.94436">
        <ele>188</ele>
        <time>2019-07-16T07:32:30Z</time>
      </trkpt>
      <trkpt lat="48.29545" lon="-1.94439">
        <ele>187.1</ele>
        <time>2019-07-16T07:32:31Z</time>
      </trkpt>
      <trkpt lat="48.29546" lon="-1.94443">
        <ele>186.9</ele>
        <time>2019-07-16T07:32:32Z</time>
      </trkpt>
      <trkpt lat="48.29547" lon="-1.94446">
        <ele>186.2</ele>
        <time>2019-07-16T07:32:33Z</time>
      </trkpt>
      <trkpt lat="48.29549" lon="-1.94449">
        <ele>186.5</ele>
        <time>2019-07-16T07:32:34Z</time>
      </trkpt>
      <trkpt lat="48.2955" lon="-1.94452">
        <ele>186.8</ele>
        <time>2019-07-16T07:32:35Z</time>
      </trkpt>
      <trkpt lat="48.29551" lon="-1.94454">
        <ele>187.1</ele>
        <time>2019-07-16T07:32:36Z</time>
      </trkpt>
      <trkpt lat="48.29552" lon="-1.94456">
        <ele>187.2</ele>
        <time>2019-07-16T07:32:37Z</time>
      </trkpt>
      <trkpt lat="48.29553" lon="-1.94457">
        <ele>187.3</ele>
        <time>2019-07-16T07:32:38Z</time>
      </trkpt>
      <trkpt lat="48.29553" lon="-1.94458">
        <ele>187.4</ele>
        <time>2019-07-16T07:32:39Z</time>
      </trkpt>
      <trkpt lat="48.29555" lon="-1.9446">
        <ele>187.5</ele>
        <time>2019-07-16T07:32:40Z</time>
      </trkpt>
      <trkpt lat="48.29556" lon="-1.94462">
        <ele>187.9</ele>
        <time>2019-07-16T07:32:41Z</time>
      </trkpt>
      <trkpt lat="48.29557" lon="-1.94465">
        <ele>188</ele>
        <time>2019-07-16T07:32:42Z</time>
      </trkpt>
      <trkpt lat="48.29559" lon="-1.94468">
        <ele>188</ele>
        <time>2019-07-16T07:32:43Z</time>
      </trkpt>
      <trkpt lat="48.2956" lon="-1.9447">
        <ele>187.8</ele>
        <time>2019-07-16T07:32:44Z</time>
      </trkpt>
      <trkpt lat="48.29561" lon="-1.94471">
        <ele>187.6</ele>
        <time>2019-07-16T07:32:45Z</time>
      </trkpt>
      <trkpt lat="48.29569" lon="-1.94476">
        <ele>186.9</ele>
        <time>2019-07-16T07:32:56Z</time>
      </trkpt>
      <trkpt lat="48.29569" lon="-1.94479">
        <ele>187</ele>
        <time>2019-07-16T07:32:57Z</time>
      </trkpt>
      <trkpt lat="48.2957" lon="-1.94481">
        <ele>187.1</ele>
        <time>2019-07-16T07:32:58Z</time>
      </trkpt>
      <trkpt lat="48.29571" lon="-1.94483">
        <ele>187.3</ele>
        <time>2019-07-16T07:32:59Z</time>
      </trkpt>
      <trkpt lat="48.29572" lon="-1.94485">
        <ele>186.9</ele>
        <time>2019-07-16T07:33:00Z</time>
      </trkpt>
      <trkpt lat="48.29573" lon="-1.94485">
        <ele>185.7</ele>
        <time>2019-07-16T07:33:01Z</time>
      </trkpt>
      <trkpt lat="48.29575" lon="-1.94488">
        <ele>185.3</ele>
        <time>2019-07-16T07:33:02Z</time>
      </trkpt>
      <trkpt lat="48.29576" lon="-1.94489">
        <ele>184.9</ele>
        <time>2019-07-16T07:33:03Z</time>
      </trkpt>
      <trkpt lat="48.29575" lon="-1.9449">
        <ele>184.7</ele>
        <time>2019-07-16T07:33:04Z</time>
      </trkpt>
      <trkpt lat="48.29577" lon="-1.94489">
        <ele>184.8</ele>
        <time>2019-07-16T07:33:05Z</time>
      </trkpt>
      <trkpt lat="48.29578" lon="-1.94488">
        <ele>184.8</ele>
        <time>2019-07-16T07:33:06Z</time>
      </trkpt>
      <trkpt lat="48.2958" lon="-1.94486">
        <ele>184.6</ele>
        <time>2019-07-16T07:33:07Z</time>
      </trkpt>
      <trkpt lat="48.29581" lon="-1.94485">
        <ele>184.3</ele>
        <time>2019-07-16T07:33:08Z</time>
      </trkpt>
      <trkpt lat="48.29582" lon="-1.94483">
        <ele>183.8</ele>
        <time>2019-07-16T07:33:09Z</time>
      </trkpt>
      <trkpt lat="48.29584" lon="-1.94479">
        <ele>182.8</ele>
        <time>2019-07-16T07:33:10Z</time>
      </trkpt>
      <trkpt lat="48.29585" lon="-1.94477">
        <ele>182.6</ele>
        <time>2019-07-16T07:33:11Z</time>
      </trkpt>
      <trkpt lat="48.29587" lon="-1.94474">
        <ele>182.4</ele>
        <time>2019-07-16T07:33:12Z</time>
      </trkpt>
      <trkpt lat="48.29588" lon="-1.94471">
        <ele>182.2</ele>
        <time>2019-07-16T07:33:13Z</time>
      </trkpt>
      <trkpt lat="48.29589" lon="-1.94468">
        <ele>182.4</ele>
        <time>2019-07-16T07:33:14Z</time>
      </trkpt>
      <trkpt lat="48.2959" lon="-1.94467">
        <ele>182.5</ele>
        <time>2019-07-16T07:33:15Z</time>
      </trkpt>
      <trkpt lat="48.29592" lon="-1.94466">
        <ele>182.7</ele>
        <time>2019-07-16T07:33:16Z</time>
      </trkpt>
      <trkpt lat="48.29592" lon="-1.94464">
        <ele>182.9</ele>
        <time>2019-07-16T07:33:17Z</time>
      </trkpt>
      <trkpt lat="48.29598" lon="-1.94452">
        <ele>181.4</ele>
        <time>2019-07-16T07:33:36Z</time>
      </trkpt>
      <trkpt lat="48.296" lon="-1.9445">
        <ele>180.8</ele>
        <time>2019-07-16T07:33:37Z</time>
      </trkpt>
      <trkpt lat="48.29599" lon="-1.94448">
        <ele>179.9</ele>
        <time>2019-07-16T07:33:38Z</time>
      </trkpt>
      <trkpt lat="48.296" lon="-1.94444">
        <ele>179.8</ele>
        <time>2019-07-16T07:33:39Z</time>
      </trkpt>
      <trkpt lat="48.29601" lon="-1.94441">
        <ele>180</ele>
        <time>2019-07-16T07:33:40Z</time>
      </trkpt>
      <trkpt lat="48.296" lon="-1.94437">
        <ele>180.4</ele>
        <time>2019-07-16T07:33:41Z</time>
      </trkpt>
      <trkpt lat="48.296" lon="-1.94435">
        <ele>179.8</ele>
        <time>2019-07-16T07:33:42Z</time>
      </trkpt>
      <trkpt lat="48.29601" lon="-1.94432">
        <ele>179.9</ele>
        <time>2019-07-16T07:33:43Z</time>
      </trkpt>
      <trkpt lat="48.29599" lon="-1.94428">
        <ele>179.3</ele>
        <time>2019-07-16T07:33:44Z</time>
      </trkpt>
      <trkpt lat="48.29599" lon="-1.94425">
        <ele>178.9</ele>
        <time>2019-07-16T07:33:45Z</time>
      </trkpt>
      <trkpt lat="48.29599" lon="-1.94423">
        <ele>178.6</ele>
        <time>2019-07-16T07:33:46Z</time>
      </trkpt>
      <trkpt lat="48.29599" lon="-1.94419">
        <ele>178.5</ele>
        <time>2019-07-16T07:33:47Z</time>
      </trkpt>
      <trkpt lat="48.296" lon="-1.94416">
        <ele>178.4</ele>
        <time>2019-07-16T07:33:48Z</time>
      </trkpt>
      <trkpt lat="48.29601" lon="-1.94413">
        <ele>178.5</ele>
        <time>2019-07-16T07:33:49Z</time>
      </trkpt>
      <trkpt lat="48.29601" lon="-1.94409">
        <ele>178.4</ele>
        <time>2019-07-16T07:33:50Z</time>
      </trkpt>
      <trkpt lat="48.29601" lon="-1.94406">
        <ele>178.4</ele>
        <time>2019-07-16T07:33:51Z</time>
      </trkpt>
      <trkpt lat="48.29599" lon="-1.94404">
        <ele>178.2</ele>
        <time>2019-07-16T07:33:52Z</time>
      </trkpt>
      <trkpt lat="48.29598" lon="-1.94402">
        <ele>178.1</ele>
        <time>2019-07-16T07:33:53Z</time>
      </trkpt>
      <trkpt lat="48.29596" lon="-1.94402">
        <ele>178.6</ele>
        <time>2019-07-16T07:33:54Z</time>
      </trkpt>
      <trkpt lat="48.29594" lon="-1.94402">
        <ele>179.3</ele>
        <time>2019-07-16T07:33:55Z</time>
      </trkpt>
      <trkpt lat="48.29593" lon="-1.94403">
        <ele>179.7</ele>
        <time>2019-07-16T07:33:56Z</time>
      </trkpt>
      <trkpt lat="48.29591" lon="-1.94404">
        <ele>180.3</ele>
        <time>2019-07-16T07:33:57Z</time>
      </trkpt>
      <trkpt lat="48.2959" lon="-1.94405">
        <ele>181</ele>
        <time>2019-07-16T07:33:58Z</time>
      </trkpt>
      <trkpt lat="48.29588" lon="-1.94407">
        <ele>181.3</ele>
        <time>2019-07-16T07:33:59Z</time>
      </trkpt>
      <trkpt lat="48.29587" lon="-1.94407">
        <ele>182</ele>
        <time>2019-07-16T07:34:00Z</time>
      </trkpt>
      <trkpt lat="48.29588" lon="-1.94409">
        <ele>180.3</ele>
        <time>2019-07-16T07:36:00Z</time>
      </trkpt>
      <trkpt lat="48.29587" lon="-1.94407">
        <ele>180.2</ele>
        <time>2019-07-16T07:36:01Z</time>
      </trkpt>
      <trkpt lat="48.29587" lon="-1.94404">
        <ele>180.1</ele>
        <time>2019-07-16T07:36:02Z</time>
      </trkpt>
      <trkpt lat="48.29588" lon="-1.94401">
        <ele>180</ele>
        <time>2019-07-16T07:36:03Z</time>
      </trkpt>
      <trkpt lat="48.29589" lon="-1.94398">
        <ele>180</ele>
        <time>2019-07-16T07:36:04Z</time>
      </trkpt>
      <trkpt lat="48.29591" lon="-1.94395">
        <ele>179.9</ele>
        <time>2019-07-16T07:36:05Z</time>
      </trkpt>
      <trkpt lat="48.29592" lon="-1.94392">
        <ele>179.9</ele>
        <time>2019-07-16T07:36:06Z</time>
      </trkpt>
      <trkpt lat="48.29594" lon="-1.94389">
        <ele>179.9</ele>
        <time>2019-07-16T07:36:07Z</time>
      </trkpt>
      <trkpt lat="48.29594" lon="-1.94386">
        <ele>179.8</ele>
        <time>2019-07-16T07:36:08Z</time>
      </trkpt>
      <trkpt lat="48.29595" lon="-1.94382">
        <ele>180.2</ele>
        <time>2019-07-16T07:36:09Z</time>
      </trkpt>
      <trkpt lat="48.29596" lon="-1.94379">
        <ele>180.6</ele>
        <time>2019-07-16T07:36:10Z</time>
      </trkpt>
      <trkpt lat="48.29597" lon="-1.94376">
        <ele>181.1</ele>
        <time>2019-07-16T07:36:11Z</time>
      </trkpt>
      <trkpt lat="48.29598" lon="-1.94372">
        <ele>181.7</ele>
        <time>2019-07-16T07:36:12Z</time>
      </trkpt>
      <trkpt lat="48.29599" lon="-1.94369">
        <ele>182.4</ele>
        <time>2019-07-16T07:36:13Z</time>
      </trkpt>
      <trkpt lat="48.296" lon="-1.94366">
        <ele>182.8</ele>
        <time>2019-07-16T07:36:14Z</time>
      </trkpt>
      <trkpt lat="48.29601" lon="-1.94363">
        <ele>183</ele>
        <time>2019-07-16T07:36:15Z</time>
      </trkpt>
      <trkpt lat="48.29602" lon="-1.94361">
        <ele>183.1</ele>
        <time>2019-07-16T07:36:16Z</time>
      </trkpt>
      <trkpt lat="48.29603" lon="-1.94359">
        <ele>183.4</ele>
        <time>2019-07-16T07:36:17Z</time>
      </trkpt>
      <trkpt lat="48.29603" lon="-1.94357">
        <ele>183.5</ele>
        <time>2019-07-16T07:36:18Z</time>
      </trkpt>
      <trkpt lat="48.29601" lon="-1.94359">
        <ele>184.3</ele>
        <time>2019-07-16T07:36:25Z</time>
      </trkpt>
      <trkpt lat="48.296" lon="-1.94361">
        <ele>184.3</ele>
        <time>2019-07-16T07:36:26Z</time>
      </trkpt>
      <trkpt lat="48.29599" lon="-1.94363">
        <ele>184.5</ele>
        <time>2019-07-16T07:36:27Z</time>
      </trkpt>
      <trkpt lat="48.29599" lon="-1.94366">
        <ele>184.5</ele>
        <time>2019-07-16T07:36:28Z</time>
      </trkpt>
      <trkpt lat="48.29598" lon="-1.94369">
        <ele>184.5</ele>
        <time>2019-07-16T07:36:29Z</time>
      </trkpt>
      <trkpt lat="48.29598" lon="-1.94372">
        <ele>184.4</ele>
        <time>2019-07-16T07:36:30Z</time>
      </trkpt>
      <trkpt lat="48.29597" lon="-1.94375">
        <ele>184.3</ele>
        <time>2019-07-16T07:36:31Z</time>
      </trkpt>
      <trkpt lat="48.29596" lon="-1.94377">
        <ele>184.1</ele>
        <time>2019-07-16T07:36:32Z</time>
      </trkpt>
      <trkpt lat="48.29595" lon="-1.9438">
        <ele>184.1</ele>
        <time>2019-07-16T07:36:33Z</time>
      </trkpt>
      <trkpt lat="48.29594" lon="-1.94382">
        <ele>184.2</ele>
        <time>2019-07-16T07:36:34Z</time>
      </trkpt>
      <trkpt lat="48.29594" lon="-1.94385">
        <ele>184.3</ele>
        <time>2019-07-16T07:36:35Z</time>
      </trkpt>
      <trkpt lat="48.29593" lon="-1.94387">
        <ele>184.2</ele>
        <time>2019-07-16T07:36:36Z</time>
      </trkpt>
      <trkpt lat="48.29592" lon="-1.9439">
        <ele>184</ele>
        <time>2019-07-16T07:36:37Z</time>
      </trkpt>
      <trkpt lat="48.29591" lon="-1.94393">
        <ele>183.6</ele>
        <time>2019-07-16T07:36:38Z</time>
      </trkpt>
      <trkpt lat="48.2959" lon="-1.94395">
        <ele>183.5</ele>
        <time>2019-07-16T07:36:39Z</time>
      </trkpt>
      <trkpt lat="48.29588" lon="-1.94398">
        <ele>183.9</ele>
        <time>2019-07-16T07:36:40Z</time>
      </trkpt>
      <trkpt lat="48.29586" lon="-1.944">
        <ele>184.4</ele>
        <time>2019-07-16T07:36:41Z</time>
      </trkpt>
      <trkpt lat="48.29585" lon="-1.94403">
        <ele>184.4</ele>
        <time>2019-07-16T07:36:42Z</time>
      </trkpt>
      <trkpt lat="48.29584" lon="-1.94405">
        <ele>184</ele>
        <time>2019-07-16T07:36:43Z</time>
      </trkpt>
      <trkpt lat="48.29583" lon="-1.94407">
        <ele>183.5</ele>
        <time>2019-07-16T07:36:44Z</time>
      </trkpt>
      <trkpt lat="48.29582" lon="-1.9441">
        <ele>183.6</ele>
        <time>2019-07-16T07:36:45Z</time>
      </trkpt>
      <trkpt lat="48.29582" lon="-1.94413">
        <ele>183.7</ele>
        <time>2019-07-16T07:36:46Z</time>
      </trkpt>
      <trkpt lat="48.2958" lon="-1.94415">
        <ele>183.9</ele>
        <time>2019-07-16T07:36:47Z</time>
      </trkpt>
      <trkpt lat="48.29579" lon="-1.94418">
        <ele>183.3</ele>
        <time>2019-07-16T07:36:48Z</time>
      </trkpt>
      <trkpt lat="48.29577" lon="-1.9442">
        <ele>183.8</ele>
        <time>2019-07-16T07:36:49Z</time>
      </trkpt>
      <trkpt lat="48.29576" lon="-1.94424">
        <ele>183.9</ele>
        <time>2019-07-16T07:36:50Z</time>
      </trkpt>
      <trkpt lat="48.29573" lon="-1.94428">
        <ele>183.2</ele>
        <time>2019-07-16T07:36:51Z</time>
      </trkpt>
      <trkpt lat="48.29572" lon="-1.94432">
        <ele>182.8</ele>
        <time>2019-07-16T07:36:52Z</time>
      </trkpt>
      <trkpt lat="48.2957" lon="-1.94436">
        <ele>182.4</ele>
        <time>2019-07-16T07:36:53Z</time>
      </trkpt>
      <trkpt lat="48.29568" lon="-1.9444">
        <ele>182.3</ele>
        <time>2019-07-16T07:36:54Z</time>
      </trkpt>
      <trkpt lat="48.29567" lon="-1.94444">
        <ele>182.7</ele>
        <time>2019-07-16T07:36:55Z</time>
      </trkpt>
      <trkpt lat="48.29564" lon="-1.94447">
        <ele>182.6</ele>
        <time>2019-07-16T07:36:56Z</time>
      </trkpt>
      <trkpt lat="48.29562" lon="-1.9445">
        <ele>182.3</ele>
        <time>2019-07-16T07:36:57Z</time>
      </trkpt>
      <trkpt lat="48.2956" lon="-1.94453">
        <ele>182.7</ele>
        <time>2019-07-16T07:36:58Z</time>
      </trkpt>
      <trkpt lat="48.29558" lon="-1.94455">
        <ele>182.5</ele>
        <time>2019-07-16T07:36:59Z</time>
      </trkpt>
      <trkpt lat="48.29557" lon="-1.94456">
        <ele>182.5</ele>
        <time>2019-07-16T07:37:00Z</time>
      </trkpt>
      <trkpt lat="48.29556" lon="-1.94457">
        <ele>182.3</ele>
        <time>2019-07-16T07:37:01Z</time>
      </trkpt>
      <trkpt lat="48.29555" lon="-1.94457">
        <ele>183.2</ele>
        <time>2019-07-16T07:37:02Z</time>
      </trkpt>
      <trkpt lat="48.29553" lon="-1.94458">
        <ele>183.4</ele>
        <time>2019-07-16T07:37:03Z</time>
      </trkpt>
      <trkpt lat="48.29551" lon="-1.94458">
        <ele>183.5</ele>
        <time>2019-07-16T07:37:04Z</time>
      </trkpt>
      <trkpt lat="48.2955" lon="-1.94458">
        <ele>183.6</ele>
        <time>2019-07-16T07:37:05Z</time>
      </trkpt>
      <trkpt lat="48.29548" lon="-1.94459">
        <ele>183.3</ele>
        <time>2019-07-16T07:37:06Z</time>
      </trkpt>
      <trkpt lat="48.29546" lon="-1.9446">
        <ele>182.7</ele>
        <time>2019-07-16T07:37:07Z</time>
      </trkpt>
      <trkpt lat="48.29544" lon="-1.94461">
        <ele>181.8</ele>
        <time>2019-07-16T07:37:08Z</time>
      </trkpt>
      <trkpt lat="48.29542" lon="-1.94463">
        <ele>181.5</ele>
        <time>2019-07-16T07:37:09Z</time>
      </trkpt>
      <trkpt lat="48.2954" lon="-1.94463">
        <ele>181.7</ele>
        <time>2019-07-16T07:37:10Z</time>
      </trkpt>
      <trkpt lat="48.29536" lon="-1.94464">
        <ele>181.8</ele>
        <time>2019-07-16T07:37:11Z</time>
      </trkpt>
      <trkpt lat="48.29534" lon="-1.94464">
        <ele>182.1</ele>
        <time>2019-07-16T07:37:12Z</time>
      </trkpt>
      <trkpt lat="48.29531" lon="-1.94465">
        <ele>182.4</ele>
        <time>2019-07-16T07:37:13Z</time>
      </trkpt>
      <trkpt lat="48.29528" lon="-1.94466">
        <ele>182.4</ele>
        <time>2019-07-16T07:37:14Z</time>
      </trkpt>
      <trkpt lat="48.29525" lon="-1.94467">
        <ele>182.4</ele>
        <time>2019-07-16T07:37:15Z</time>
      </trkpt>
      <trkpt lat="48.29522" lon="-1.94468">
        <ele>182.3</ele>
        <time>2019-07-16T07:37:16Z</time>
      </trkpt>
      <trkpt lat="48.2952" lon="-1.94469">
        <ele>182.4</ele>
        <time>2019-07-16T07:37:17Z</time>
      </trkpt>
      <trkpt lat="48.29517" lon="-1.9447">
        <ele>182.4</ele>
        <time>2019-07-16T07:37:18Z</time>
      </trkpt>
      <trkpt lat="48.29515" lon="-1.94469">
        <ele>182.3</ele>
        <time>2019-07-16T07:37:19Z</time>
      </trkpt>
      <trkpt lat="48.29512" lon="-1.94468">
        <ele>182.3</ele>
        <time>2019-07-16T07:37:20Z</time>
      </trkpt>
      <trkpt lat="48.29509" lon="-1.94468">
        <ele>182.3</ele>
        <time>2019-07-16T07:37:21Z</time>
      </trkpt>
      <trkpt lat="48.29507" lon="-1.94469">
        <ele>182.4</ele>
        <time>2019-07-16T07:37:22Z</time>
      </trkpt>
      <trkpt lat="48.29504" lon="-1.9447">
        <ele>182.5</ele>
        <time>2019-07-16T07:37:23Z</time>
      </trkpt>
      <trkpt lat="48.29501" lon="-1.94471">
        <ele>182.8</ele>
        <time>2019-07-16T07:37:24Z</time>
      </trkpt>
      <trkpt lat="48.29498" lon="-1.94471">
        <ele>183</ele>
        <time>2019-07-16T07:37:25Z</time>
      </trkpt>
      <trkpt lat="48.29496" lon="-1.94469">
        <ele>183.3</ele>
        <time>2019-07-16T07:37:26Z</time>
      </trkpt>
      <trkpt lat="48.29494" lon="-1.94465">
        <ele>183.6</ele>
        <time>2019-07-16T07:37:27Z</time>
      </trkpt>
      <trkpt lat="48.29495" lon="-1.94466">
        <ele>183.3</ele>
        <time>2019-07-16T07:37:28Z</time>
      </trkpt>
      <trkpt lat="48.29494" lon="-1.94464">
        <ele>183</ele>
        <time>2019-07-16T07:37:29Z</time>
      </trkpt>
      <trkpt lat="48.29493" lon="-1.9446">
        <ele>183.4</ele>
        <time>2019-07-16T07:37:30Z</time>
      </trkpt>
      <trkpt lat="48.29493" lon="-1.94456">
        <ele>183.2</ele>
        <time>2019-07-16T07:37:31Z</time>
      </trkpt>
      <trkpt lat="48.29492" lon="-1.94453">
        <ele>183.2</ele>
        <time>2019-07-16T07:37:32Z</time>
      </trkpt>
      <trkpt lat="48.29491" lon="-1.94451">
        <ele>183.1</ele>
        <time>2019-07-16T07:37:33Z</time>
      </trkpt>
      <trkpt lat="48.29491" lon="-1.94448">
        <ele>183</ele>
        <time>2019-07-16T07:37:34Z</time>
      </trkpt>
      <trkpt lat="48.2949" lon="-1.94445">
        <ele>183</ele>
        <time>2019-07-16T07:37:35Z</time>
      </trkpt>
      <trkpt lat="48.2949" lon="-1.94442">
        <ele>182.3</ele>
        <time>2019-07-16T07:37:36Z</time>
      </trkpt>
      <trkpt lat="48.2949" lon="-1.94439">
        <ele>182.1</ele>
        <time>2019-07-16T07:37:37Z</time>
      </trkpt>
      <trkpt lat="48.2949" lon="-1.94435">
        <ele>182.1</ele>
        <time>2019-07-16T07:37:38Z</time>
      </trkpt>
      <trkpt lat="48.2949" lon="-1.94432">
        <ele>182</ele>
        <time>2019-07-16T07:37:39Z</time>
      </trkpt>
      <trkpt lat="48.2949" lon="-1.94429">
        <ele>182.5</ele>
        <time>2019-07-16T07:37:40Z</time>
      </trkpt>
      <trkpt lat="48.2949" lon="-1.94426">
        <ele>183</ele>
        <time>2019-07-16T07:37:41Z</time>
      </trkpt>
      <trkpt lat="48.2949" lon="-1.94423">
        <ele>183</ele>
        <time>2019-07-16T07:37:42Z</time>
      </trkpt>
      <trkpt lat="48.2949" lon="-1.9442">
        <ele>183</ele>
        <time>2019-07-16T07:37:43Z</time>
      </trkpt>
      <trkpt lat="48.29491" lon="-1.94417">
        <ele>183.4</ele>
        <time>2019-07-16T07:37:44Z</time>
      </trkpt>
      <trkpt lat="48.29491" lon="-1.94414">
        <ele>183.9</ele>
        <time>2019-07-16T07:37:45Z</time>
      </trkpt>
      <trkpt lat="48.29492" lon="-1.94412">
        <ele>184.3</ele>
        <time>2019-07-16T07:37:46Z</time>
      </trkpt>
      <trkpt lat="48.29493" lon="-1.94409">
        <ele>184.1</ele>
        <time>2019-07-16T07:37:47Z</time>
      </trkpt>
      <trkpt lat="48.29493" lon="-1.94407">
        <ele>184.2</ele>
        <time>2019-07-16T07:37:48Z</time>
      </trkpt>
      <trkpt lat="48.29495" lon="-1.94404">
        <ele>184.5</ele>
        <time>2019-07-16T07:37:49Z</time>
      </trkpt>
      <trkpt lat="48.29496" lon="-1.94401">
        <ele>184.4</ele>
        <time>2019-07-16T07:37:50Z</time>
      </trkpt>
      <trkpt lat="48.29498" lon="-1.944">
        <ele>185.7</ele>
        <time>2019-07-16T07:37:51Z</time>
      </trkpt>
      <trkpt lat="48.295" lon="-1.94398">
        <ele>185.9</ele>
        <time>2019-07-16T07:37:52Z</time>
      </trkpt>
      <trkpt lat="48.29501" lon="-1.94396">
        <ele>186.3</ele>
        <time>2019-07-16T07:37:53Z</time>
      </trkpt>
      <trkpt lat="48.29502" lon="-1.94394">
        <ele>186.4</ele>
        <time>2019-07-16T07:37:54Z</time>
      </trkpt>
      <trkpt lat="48.29504" lon="-1.94391">
        <ele>186.9</ele>
        <time>2019-07-16T07:37:55Z</time>
      </trkpt>
      <trkpt lat="48.29504" lon="-1.94389">
        <ele>187.4</ele>
        <time>2019-07-16T07:37:56Z</time>
      </trkpt>
      <trkpt lat="48.29505" lon="-1.94386">
        <ele>187.6</ele>
        <time>2019-07-16T07:37:57Z</time>
      </trkpt>
      <trkpt lat="48.29506" lon="-1.94384">
        <ele>188.4</ele>
        <time>2019-07-16T07:37:58Z</time>
      </trkpt>
      <trkpt lat="48.29507" lon="-1.94382">
        <ele>189.1</ele>
        <time>2019-07-16T07:37:59Z</time>
      </trkpt>
      <trkpt lat="48.29508" lon="-1.9438">
        <ele>189.8</ele>
        <time>2019-07-16T07:38:00Z</time>
      </trkpt>
      <trkpt lat="48.29509" lon="-1.94378">
        <ele>190.2</ele>
        <time>2019-07-16T07:38:01Z</time>
      </trkpt>
      <trkpt lat="48.29509" lon="-1.94375">
        <ele>190.9</ele>
        <time>2019-07-16T07:38:02Z</time>
      </trkpt>
      <trkpt lat="48.29511" lon="-1.94372">
        <ele>191.5</ele>
        <time>2019-07-16T07:38:03Z</time>
      </trkpt>
      <trkpt lat="48.29511" lon="-1.94369">
        <ele>192</ele>
        <time>2019-07-16T07:38:04Z</time>
      </trkpt>
      <trkpt lat="48.29515" lon="-1.94363">
        <ele>190.6</ele>
        <time>2019-07-16T07:38:05Z</time>
      </trkpt>
      <trkpt lat="48.29519" lon="-1.94358">
        <ele>189.3</ele>
        <time>2019-07-16T07:38:06Z</time>
      </trkpt>
      <trkpt lat="48.2952" lon="-1.94354">
        <ele>189.5</ele>
        <time>2019-07-16T07:38:07Z</time>
      </trkpt>
      <trkpt lat="48.29522" lon="-1.9435">
        <ele>189.8</ele>
        <time>2019-07-16T07:38:08Z</time>
      </trkpt>
      <trkpt lat="48.29523" lon="-1.94346">
        <ele>189.9</ele>
        <time>2019-07-16T07:38:09Z</time>
      </trkpt>
      <trkpt lat="48.29523" lon="-1.94342">
        <ele>189</ele>
        <time>2019-07-16T07:38:10Z</time>
      </trkpt>
      <trkpt lat="48.29525" lon="-1.94338">
        <ele>188.8</ele>
        <time>2019-07-16T07:38:11Z</time>
      </trkpt>
      <trkpt lat="48.29528" lon="-1.94333">
        <ele>187.8</ele>
        <time>2019-07-16T07:38:12Z</time>
      </trkpt>
      <trkpt lat="48.29531" lon="-1.94329">
        <ele>187.5</ele>
        <time>2019-07-16T07:38:13Z</time>
      </trkpt>
      <trkpt lat="48.29534" lon="-1.94324">
        <ele>187.4</ele>
        <time>2019-07-16T07:38:14Z</time>
      </trkpt>
      <trkpt lat="48.29537" lon="-1.94319">
        <ele>186.9</ele>
        <time>2019-07-16T07:38:15Z</time>
      </trkpt>
      <trkpt lat="48.2954" lon="-1.94315">
        <ele>186.8</ele>
        <time>2019-07-16T07:38:16Z</time>
      </trkpt>
      <trkpt lat="48.29543" lon="-1.9431">
        <ele>186.7</ele>
        <time>2019-07-16T07:38:17Z</time>
      </trkpt>
      <trkpt lat="48.29546" lon="-1.94305">
        <ele>186.3</ele>
        <time>2019-07-16T07:38:18Z</time>
      </trkpt>
      <trkpt lat="48.29546" lon="-1.94296">
        <ele>184.9</ele>
        <time>2019-07-16T07:38:19Z</time>
      </trkpt>
      <trkpt lat="48.29548" lon="-1.94291">
        <ele>184.5</ele>
        <time>2019-07-16T07:38:20Z</time>
      </trkpt>
      <trkpt lat="48.29551" lon="-1.94285">
        <ele>184</ele>
        <time>2019-07-16T07:38:21Z</time>
      </trkpt>
      <trkpt lat="48.29555" lon="-1.94282">
        <ele>183.4</ele>
        <time>2019-07-16T07:38:22Z</time>
      </trkpt>
      <trkpt lat="48.29557" lon="-1.94276">
        <ele>182.1</ele>
        <time>2019-07-16T07:38:23Z</time>
      </trkpt>
      <trkpt lat="48.2956" lon="-1.94271">
        <ele>181.5</ele>
        <time>2019-07-16T07:38:24Z</time>
      </trkpt>
      <trkpt lat="48.29562" lon="-1.94266">
        <ele>180.9</ele>
        <time>2019-07-16T07:38:25Z</time>
      </trkpt>
      <trkpt lat="48.29565" lon="-1.94261">
        <ele>179.5</ele>
        <time>2019-07-16T07:38:26Z</time>
      </trkpt>
      <trkpt lat="48.29568" lon="-1.94257">
        <ele>178.5</ele>
        <time>2019-07-16T07:38:27Z</time>
      </trkpt>
      <trkpt lat="48.29571" lon="-1.94252">
        <ele>177.7</ele>
        <time>2019-07-16T07:38:28Z</time>
      </trkpt>
      <trkpt lat="48.29574" lon="-1.94248">
        <ele>177.1</ele>
        <time>2019-07-16T07:38:29Z</time>
      </trkpt>
      <trkpt lat="48.29578" lon="-1.94245">
        <ele>176.8</ele>
        <time>2019-07-16T07:38:30Z</time>
      </trkpt>
      <trkpt lat="48.29582" lon="-1.94243">
        <ele>176.4</ele>
        <time>2019-07-16T07:38:31Z</time>
      </trkpt>
      <trkpt lat="48.29585" lon="-1.94241">
        <ele>176</ele>
        <time>2019-07-16T07:38:32Z</time>
      </trkpt>
      <trkpt lat="48.2959" lon="-1.94239">
        <ele>175.4</ele>
        <time>2019-07-16T07:38:33Z</time>
      </trkpt>
      <trkpt lat="48.29594" lon="-1.94236">
        <ele>174.9</ele>
        <time>2019-07-16T07:38:34Z</time>
      </trkpt>
      <trkpt lat="48.29599" lon="-1.94235">
        <ele>174.6</ele>
        <time>2019-07-16T07:38:35Z</time>
      </trkpt>
      <trkpt lat="48.29603" lon="-1.94234">
        <ele>174.4</ele>
        <time>2019-07-16T07:38:36Z</time>
      </trkpt>
      <trkpt lat="48.29608" lon="-1.94232">
        <ele>174.3</ele>
        <time>2019-07-16T07:38:37Z</time>
      </trkpt>
      <trkpt lat="48.29612" lon="-1.9423">
        <ele>174.3</ele>
        <time>2019-07-16T07:38:38Z</time>
      </trkpt>
      <trkpt lat="48.29617" lon="-1.94228">
        <ele>173.9</ele>
        <time>2019-07-16T07:38:39Z</time>
      </trkpt>
      <trkpt lat="48.29622" lon="-1.94228">
        <ele>173.4</ele>
        <time>2019-07-16T07:38:40Z</time>
      </trkpt>
      <trkpt lat="48.29628" lon="-1.94226">
        <ele>172.3</ele>
        <time>2019-07-16T07:38:41Z</time>
      </trkpt>
      <trkpt lat="48.29633" lon="-1.94225">
        <ele>171.1</ele>
        <time>2019-07-16T07:38:42Z</time>
      </trkpt>
      <trkpt lat="48.29639" lon="-1.94224">
        <ele>170</ele>
        <time>2019-07-16T07:38:43Z</time>
      </trkpt>
      <trkpt lat="48.29644" lon="-1.94223">
        <ele>168.9</ele>
        <time>2019-07-16T07:38:44Z</time>
      </trkpt>
      <trkpt lat="48.2965" lon="-1.94222">
        <ele>168.2</ele>
        <time>2019-07-16T07:38:45Z</time>
      </trkpt>
      <trkpt lat="48.29656" lon="-1.94223">
        <ele>167.6</ele>
        <time>2019-07-16T07:38:46Z</time>
      </trkpt>
      <trkpt lat="48.29661" lon="-1.94225">
        <ele>166.6</ele>
        <time>2019-07-16T07:38:47Z</time>
      </trkpt>
      <trkpt lat="48.29667" lon="-1.94225">
        <ele>166.3</ele>
        <time>2019-07-16T07:38:48Z</time>
      </trkpt>
      <trkpt lat="48.29673" lon="-1.94224">
        <ele>165.7</ele>
        <time>2019-07-16T07:38:49Z</time>
      </trkpt>
      <trkpt lat="48.29679" lon="-1.94225">
        <ele>165.7</ele>
        <time>2019-07-16T07:38:50Z</time>
      </trkpt>
      <trkpt lat="48.29685" lon="-1.94225">
        <ele>165.5</ele>
        <time>2019-07-16T07:38:51Z</time>
      </trkpt>
      <trkpt lat="48.29689" lon="-1.94228">
        <ele>166.3</ele>
        <time>2019-07-16T07:38:52Z</time>
      </trkpt>
      <trkpt lat="48.29692" lon="-1.94227">
        <ele>167.8</ele>
        <time>2019-07-16T07:38:53Z</time>
      </trkpt>
      <trkpt lat="48.29691" lon="-1.94221">
        <ele>168.1</ele>
        <time>2019-07-16T07:38:54Z</time>
      </trkpt>
      <trkpt lat="48.2969" lon="-1.94214">
        <ele>167.9</ele>
        <time>2019-07-16T07:38:55Z</time>
      </trkpt>
      <trkpt lat="48.29689" lon="-1.94207">
        <ele>167.6</ele>
        <time>2019-07-16T07:38:56Z</time>
      </trkpt>
      <trkpt lat="48.29689" lon="-1.94199">
        <ele>167.1</ele>
        <time>2019-07-16T07:38:57Z</time>
      </trkpt>
      <trkpt lat="48.29689" lon="-1.94191">
        <ele>165.7</ele>
        <time>2019-07-16T07:38:58Z</time>
      </trkpt>
      <trkpt lat="48.29689" lon="-1.94183">
        <ele>164.6</ele>
        <time>2019-07-16T07:38:59Z</time>
      </trkpt>
      <trkpt lat="48.29689" lon="-1.94174">
        <ele>163.7</ele>
        <time>2019-07-16T07:39:00Z</time>
      </trkpt>
      <trkpt lat="48.29688" lon="-1.94165">
        <ele>162.1</ele>
        <time>2019-07-16T07:39:01Z</time>
      </trkpt>
      <trkpt lat="48.29686" lon="-1.94156">
        <ele>160.9</ele>
        <time>2019-07-16T07:39:02Z</time>
      </trkpt>
      <trkpt lat="48.29685" lon="-1.94149">
        <ele>160.1</ele>
        <time>2019-07-16T07:39:03Z</time>
      </trkpt>
      <trkpt lat="48.29683" lon="-1.94142">
        <ele>159.3</ele>
        <time>2019-07-16T07:39:04Z</time>
      </trkpt>
      <trkpt lat="48.2968" lon="-1.94135">
        <ele>159</ele>
        <time>2019-07-16T07:39:05Z</time>
      </trkpt>
      <trkpt lat="48.29678" lon="-1.94128">
        <ele>158.4</ele>
        <time>2019-07-16T07:39:06Z</time>
      </trkpt>
      <trkpt lat="48.29674" lon="-1.94121">
        <ele>158.7</ele>
        <time>2019-07-16T07:39:07Z</time>
      </trkpt>
      <trkpt lat="48.29671" lon="-1.94115">
        <ele>158.5</ele>
        <time>2019-07-16T07:39:08Z</time>
      </trkpt>
      <trkpt lat="48.29667" lon="-1.94109">
        <ele>158.4</ele>
        <time>2019-07-16T07:39:09Z</time>
      </trkpt>
      <trkpt lat="48.29664" lon="-1.94103">
        <ele>158</ele>
        <time>2019-07-16T07:39:10Z</time>
      </trkpt>
      <trkpt lat="48.2966" lon="-1.94097">
        <ele>157.6</ele>
        <time>2019-07-16T07:39:11Z</time>
      </trkpt>
      <trkpt lat="48.29657" lon="-1.9409">
        <ele>156.5</ele>
        <time>2019-07-16T07:39:12Z</time>
      </trkpt>
      <trkpt lat="48.29654" lon="-1.94083">
        <ele>155.3</ele>
        <time>2019-07-16T07:39:13Z</time>
      </trkpt>
      <trkpt lat="48.29651" lon="-1.94076">
        <ele>154.1</ele>
        <time>2019-07-16T07:39:14Z</time>
      </trkpt>
      <trkpt lat="48.29648" lon="-1.94068">
        <ele>153.6</ele>
        <time>2019-07-16T07:39:15Z</time>
      </trkpt>
      <trkpt lat="48.29644" lon="-1.94061">
        <ele>153</ele>
        <time>2019-07-16T07:39:16Z</time>
      </trkpt>
      <trkpt lat="48.29641" lon="-1.94053">
        <ele>152.2</ele>
        <time>2019-07-16T07:39:17Z</time>
      </trkpt>
      <trkpt lat="48.29636" lon="-1.94045">
        <ele>150.3</ele>
        <time>2019-07-16T07:39:18Z</time>
      </trkpt>
      <trkpt lat="48.29632" lon="-1.94038">
        <ele>148.4</ele>
        <time>2019-07-16T07:39:19Z</time>
      </trkpt>
      <trkpt lat="48.29627" lon="-1.9403">
        <ele>146.5</ele>
        <time>2019-07-16T07:39:20Z</time>
      </trkpt>
      <trkpt lat="48.29624" lon="-1.94023">
        <ele>144.9</ele>
        <time>2019-07-16T07:39:21Z</time>
      </trkpt>
      <trkpt lat="48.29621" lon="-1.94017">
        <ele>143.4</ele>
        <time>2019-07-16T07:39:22Z</time>
      </trkpt>
      <trkpt lat="48.29619" lon="-1.94012">
        <ele>142.9</ele>
        <time>2019-07-16T07:39:23Z</time>
      </trkpt>
      <trkpt lat="48.29616" lon="-1.94009">
        <ele>142.8</ele>
        <time>2019-07-16T07:39:24Z</time>
      </trkpt>
      <trkpt lat="48.29613" lon="-1.94007">
        <ele>144.4</ele>
        <time>2019-07-16T07:39:25Z</time>
      </trkpt>
      <trkpt lat="48.2961" lon="-1.94006">
        <ele>145</ele>
        <time>2019-07-16T07:39:26Z</time>
      </trkpt>
      <trkpt lat="48.29606" lon="-1.94005">
        <ele>144.4</ele>
        <time>2019-07-16T07:39:27Z</time>
      </trkpt>
      <trkpt lat="48.29601" lon="-1.94006">
        <ele>143.9</ele>
        <time>2019-07-16T07:39:28Z</time>
      </trkpt>
      <trkpt lat="48.29596" lon="-1.94006">
        <ele>143.1</ele>
        <time>2019-07-16T07:39:29Z</time>
      </trkpt>
      <trkpt lat="48.29592" lon="-1.94007">
        <ele>142.3</ele>
        <time>2019-07-16T07:39:30Z</time>
      </trkpt>
      <trkpt lat="48.29587" lon="-1.94007">
        <ele>141.6</ele>
        <time>2019-07-16T07:39:31Z</time>
      </trkpt>
      <trkpt lat="48.29582" lon="-1.94007">
        <ele>140.6</ele>
        <time>2019-07-16T07:39:32Z</time>
      </trkpt>
      <trkpt lat="48.29577" lon="-1.94008">
        <ele>140.1</ele>
        <time>2019-07-16T07:39:33Z</time>
      </trkpt>
      <trkpt lat="48.29571" lon="-1.94009">
        <ele>139.6</ele>
        <time>2019-07-16T07:39:34Z</time>
      </trkpt>
      <trkpt lat="48.29566" lon="-1.94011">
        <ele>139.3</ele>
        <time>2019-07-16T07:39:35Z</time>
      </trkpt>
      <trkpt lat="48.29559" lon="-1.94014">
        <ele>139</ele>
        <time>2019-07-16T07:39:36Z</time>
      </trkpt>
      <trkpt lat="48.29553" lon="-1.94016">
        <ele>138.6</ele>
        <time>2019-07-16T07:39:37Z</time>
      </trkpt>
      <trkpt lat="48.29546" lon="-1.94019">
        <ele>137.9</ele>
        <time>2019-07-16T07:39:38Z</time>
      </trkpt>
      <trkpt lat="48.29539" lon="-1.94022">
        <ele>137.2</ele>
        <time>2019-07-16T07:39:39Z</time>
      </trkpt>
      <trkpt lat="48.29532" lon="-1.94026">
        <ele>136.5</ele>
        <time>2019-07-16T07:39:40Z</time>
      </trkpt>
      <trkpt lat="48.29525" lon="-1.94031">
        <ele>136</ele>
        <time>2019-07-16T07:39:41Z</time>
      </trkpt>
      <trkpt lat="48.29519" lon="-1.94036">
        <ele>135.4</ele>
        <time>2019-07-16T07:39:42Z</time>
      </trkpt>
      <trkpt lat="48.29514" lon="-1.94042">
        <ele>135.2</ele>
        <time>2019-07-16T07:39:43Z</time>
      </trkpt>
      <trkpt lat="48.29509" lon="-1.9405">
        <ele>134.6</ele>
        <time>2019-07-16T07:39:44Z</time>
      </trkpt>
      <trkpt lat="48.29505" lon="-1.94058">
        <ele>134.2</ele>
        <time>2019-07-16T07:39:45Z</time>
      </trkpt>
      <trkpt lat="48.29501" lon="-1.94066">
        <ele>134.1</ele>
        <time>2019-07-16T07:39:46Z</time>
      </trkpt>
      <trkpt lat="48.29497" lon="-1.94074">
        <ele>133.8</ele>
        <time>2019-07-16T07:39:47Z</time>
      </trkpt>
      <trkpt lat="48.29493" lon="-1.94081">
        <ele>133.4</ele>
        <time>2019-07-16T07:39:48Z</time>
      </trkpt>
      <trkpt lat="48.2949" lon="-1.94088">
        <ele>133</ele>
        <time>2019-07-16T07:39:49Z</time>
      </trkpt>
      <trkpt lat="48.29487" lon="-1.94094">
        <ele>132.8</ele>
        <time>2019-07-16T07:39:50Z</time>
      </trkpt>
      <trkpt lat="48.29485" lon="-1.94099">
        <ele>132.7</ele>
        <time>2019-07-16T07:39:51Z</time>
      </trkpt>
      <trkpt lat="48.29482" lon="-1.94104">
        <ele>132.6</ele>
        <time>2019-07-16T07:39:52Z</time>
      </trkpt>
      <trkpt lat="48.29479" lon="-1.94107">
        <ele>132.4</ele>
        <time>2019-07-16T07:39:53Z</time>
      </trkpt>
      <trkpt lat="48.29476" lon="-1.94109">
        <ele>132.4</ele>
        <time>2019-07-16T07:39:54Z</time>
      </trkpt>
      <trkpt lat="48.29474" lon="-1.9411">
        <ele>132.5</ele>
        <time>2019-07-16T07:39:55Z</time>
      </trkpt>
      <trkpt lat="48.2947" lon="-1.9411">
        <ele>132.5</ele>
        <time>2019-07-16T07:39:56Z</time>
      </trkpt>
      <trkpt lat="48.29467" lon="-1.94109">
        <ele>132.6</ele>
        <time>2019-07-16T07:39:57Z</time>
      </trkpt>
      <trkpt lat="48.29464" lon="-1.94108">
        <ele>132.8</ele>
        <time>2019-07-16T07:39:58Z</time>
      </trkpt>
      <trkpt lat="48.29462" lon="-1.94106">
        <ele>133.8</ele>
        <time>2019-07-16T07:39:59Z</time>
      </trkpt>
      <trkpt lat="48.29459" lon="-1.94106">
        <ele>134.5</ele>
        <time>2019-07-16T07:40:00Z</time>
      </trkpt>
      <trkpt lat="48.29457" lon="-1.94106">
        <ele>135.2</ele>
        <time>2019-07-16T07:40:01Z</time>
      </trkpt>
      <trkpt lat="48.29454" lon="-1.94106">
        <ele>135.3</ele>
        <time>2019-07-16T07:40:02Z</time>
      </trkpt>
      <trkpt lat="48.29451" lon="-1.94106">
        <ele>135.8</ele>
        <time>2019-07-16T07:40:03Z</time>
      </trkpt>
      <trkpt lat="48.29447" lon="-1.94107">
        <ele>136</ele>
        <time>2019-07-16T07:40:04Z</time>
      </trkpt>
      <trkpt lat="48.29443" lon="-1.94107">
        <ele>136.2</ele>
        <time>2019-07-16T07:40:05Z</time>
      </trkpt>
      <trkpt lat="48.2944" lon="-1.94107">
        <ele>136.6</ele>
        <time>2019-07-16T07:40:06Z</time>
      </trkpt>
      <trkpt lat="48.29436" lon="-1.94108">
        <ele>136.7</ele>
        <time>2019-07-16T07:40:07Z</time>
      </trkpt>
      <trkpt lat="48.29433" lon="-1.94108">
        <ele>137.2</ele>
        <time>2019-07-16T07:40:08Z</time>
      </trkpt>
      <trkpt lat="48.29429" lon="-1.94108">
        <ele>137.4</ele>
        <time>2019-07-16T07:40:09Z</time>
      </trkpt>
      <trkpt lat="48.29425" lon="-1.94109">
        <ele>137.6</ele>
        <time>2019-07-16T07:40:10Z</time>
      </trkpt>
      <trkpt lat="48.29422" lon="-1.94109">
        <ele>137.4</ele>
        <time>2019-07-16T07:40:11Z</time>
      </trkpt>
      <trkpt lat="48.29418" lon="-1.94107">
        <ele>137.5</ele>
        <time>2019-07-16T07:40:12Z</time>
      </trkpt>
      <trkpt lat="48.29415" lon="-1.94105">
        <ele>137.8</ele>
        <time>2019-07-16T07:40:13Z</time>
      </trkpt>
      <trkpt lat="48.29413" lon="-1.94103">
        <ele>138.3</ele>
        <time>2019-07-16T07:40:14Z</time>
      </trkpt>
      <trkpt lat="48.29411" lon="-1.94101">
        <ele>138.6</ele>
        <time>2019-07-16T07:40:15Z</time>
      </trkpt>
      <trkpt lat="48.2941" lon="-1.94098">
        <ele>139.2</ele>
        <time>2019-07-16T07:40:16Z</time>
      </trkpt>
      <trkpt lat="48.29409" lon="-1.94096">
        <ele>139.7</ele>
        <time>2019-07-16T07:40:17Z</time>
      </trkpt>
      <trkpt lat="48.29408" lon="-1.94093">
        <ele>140</ele>
        <time>2019-07-16T07:40:18Z</time>
      </trkpt>
      <trkpt lat="48.29407" lon="-1.94091">
        <ele>140.5</ele>
        <time>2019-07-16T07:40:19Z</time>
      </trkpt>
      <trkpt lat="48.29406" lon="-1.94089">
        <ele>141.6</ele>
        <time>2019-07-16T07:40:20Z</time>
      </trkpt>
      <trkpt lat="48.29405" lon="-1.94086">
        <ele>142.5</ele>
        <time>2019-07-16T07:40:21Z</time>
      </trkpt>
      <trkpt lat="48.29404" lon="-1.94084">
        <ele>143.1</ele>
        <time>2019-07-16T07:40:22Z</time>
      </trkpt>
      <trkpt lat="48.29403" lon="-1.94082">
        <ele>143.6</ele>
        <time>2019-07-16T07:40:23Z</time>
      </trkpt>
      <trkpt lat="48.29401" lon="-1.9408">
        <ele>143.7</ele>
        <time>2019-07-16T07:40:24Z</time>
      </trkpt>
      <trkpt lat="48.29401" lon="-1.94077">
        <ele>144.1</ele>
        <time>2019-07-16T07:40:25Z</time>
      </trkpt>
      <trkpt lat="48.294" lon="-1.94075">
        <ele>144.5</ele>
        <time>2019-07-16T07:40:26Z</time>
      </trkpt>
      <trkpt lat="48.29398" lon="-1.94073">
        <ele>144.9</ele>
        <time>2019-07-16T07:40:27Z</time>
      </trkpt>
      <trkpt lat="48.29397" lon="-1.9407">
        <ele>145</ele>
        <time>2019-07-16T07:40:28Z</time>
      </trkpt>
      <trkpt lat="48.29396" lon="-1.94068">
        <ele>145.4</ele>
        <time>2019-07-16T07:40:29Z</time>
      </trkpt>
      <trkpt lat="48.29395" lon="-1.94066">
        <ele>146</ele>
        <time>2019-07-16T07:40:30Z</time>
      </trkpt>
      <trkpt lat="48.29394" lon="-1.94064">
        <ele>146.5</ele>
        <time>2019-07-16T07:40:31Z</time>
      </trkpt>
      <trkpt lat="48.29393" lon="-1.94062">
        <ele>147.3</ele>
        <time>2019-07-16T07:40:32Z</time>
      </trkpt>
      <trkpt lat="48.29392" lon="-1.94061">
        <ele>147.7</ele>
        <time>2019-07-16T07:40:33Z</time>
      </trkpt>
      <trkpt lat="48.29391" lon="-1.94059">
        <ele>148.3</ele>
        <time>2019-07-16T07:40:34Z</time>
      </trkpt>
      <trkpt lat="48.29389" lon="-1.94057">
        <ele>148.6</ele>
        <time>2019-07-16T07:40:35Z</time>
      </trkpt>
      <trkpt lat="48.29388" lon="-1.94054">
        <ele>148.9</ele>
        <time>2019-07-16T07:40:36Z</time>
      </trkpt>
      <trkpt lat="48.29385" lon="-1.94052">
        <ele>148.7</ele>
        <time>2019-07-16T07:40:37Z</time>
      </trkpt>
      <trkpt lat="48.29383" lon="-1.94049">
        <ele>148.2</ele>
        <time>2019-07-16T07:40:38Z</time>
      </trkpt>
      <trkpt lat="48.2938" lon="-1.94047">
        <ele>147.8</ele>
        <time>2019-07-16T07:40:39Z</time>
      </trkpt>
      <trkpt lat="48.29377" lon="-1.94044">
        <ele>147.9</ele>
        <time>2019-07-16T07:40:40Z</time>
      </trkpt>
      <trkpt lat="48.29375" lon="-1.94042">
        <ele>148.3</ele>
        <time>2019-07-16T07:40:41Z</time>
      </trkpt>
      <trkpt lat="48.29372" lon="-1.9404">
        <ele>148.3</ele>
        <time>2019-07-16T07:40:42Z</time>
      </trkpt>
      <trkpt lat="48.2937" lon="-1.94038">
        <ele>148.4</ele>
        <time>2019-07-16T07:40:43Z</time>
      </trkpt>
      <trkpt lat="48.29368" lon="-1.94038">
        <ele>148</ele>
        <time>2019-07-16T07:40:44Z</time>
      </trkpt>
      <trkpt lat="48.29366" lon="-1.94037">
        <ele>147.8</ele>
        <time>2019-07-16T07:40:45Z</time>
      </trkpt>
      <trkpt lat="48.29363" lon="-1.94036">
        <ele>147.5</ele>
        <time>2019-07-16T07:40:46Z</time>
      </trkpt>
      <trkpt lat="48.29361" lon="-1.94034">
        <ele>147.4</ele>
        <time>2019-07-16T07:40:47Z</time>
      </trkpt>
      <trkpt lat="48.2936" lon="-1.94032">
        <ele>147.6</ele>
        <time>2019-07-16T07:40:48Z</time>
      </trkpt>
      <trkpt lat="48.29359" lon="-1.9403">
        <ele>147.6</ele>
        <time>2019-07-16T07:40:49Z</time>
      </trkpt>
      <trkpt lat="48.29358" lon="-1.94027">
        <ele>147.5</ele>
        <time>2019-07-16T07:40:50Z</time>
      </trkpt>
      <trkpt lat="48.29357" lon="-1.94024">
        <ele>147.5</ele>
        <time>2019-07-16T07:40:51Z</time>
      </trkpt>
      <trkpt lat="48.29357" lon="-1.94021">
        <ele>147.7</ele>
        <time>2019-07-16T07:40:52Z</time>
      </trkpt>
      <trkpt lat="48.29356" lon="-1.94018">
        <ele>147.6</ele>
        <time>2019-07-16T07:40:53Z</time>
      </trkpt>
      <trkpt lat="48.29355" lon="-1.94016">
        <ele>147.5</ele>
        <time>2019-07-16T07:40:54Z</time>
      </trkpt>
      <trkpt lat="48.29353" lon="-1.94013">
        <ele>147.3</ele>
        <time>2019-07-16T07:40:55Z</time>
      </trkpt>
      <trkpt lat="48.29352" lon="-1.94011">
        <ele>147.2</ele>
        <time>2019-07-16T07:40:56Z</time>
      </trkpt>
      <trkpt lat="48.29351" lon="-1.94009">
        <ele>147.3</ele>
        <time>2019-07-16T07:40:57Z</time>
      </trkpt>
      <trkpt lat="48.2935" lon="-1.94007">
        <ele>147.1</ele>
        <time>2019-07-16T07:40:58Z</time>
      </trkpt>
      <trkpt lat="48.29348" lon="-1.94005">
        <ele>147.3</ele>
        <time>2019-07-16T07:40:59Z</time>
      </trkpt>
      <trkpt lat="48.29347" lon="-1.94003">
        <ele>147.2</ele>
        <time>2019-07-16T07:41:00Z</time>
      </trkpt>
      <trkpt lat="48.29346" lon="-1.94">
        <ele>147.4</ele>
        <time>2019-07-16T07:41:01Z</time>
      </trkpt>
      <trkpt lat="48.29344" lon="-1.93998">
        <ele>147.6</ele>
        <time>2019-07-16T07:41:02Z</time>
      </trkpt>
      <trkpt lat="48.29343" lon="-1.93995">
        <ele>147.7</ele>
        <time>2019-07-16T07:41:03Z</time>
      </trkpt>
      <trkpt lat="48.29342" lon="-1.93993">
        <ele>147.8</ele>
        <time>2019-07-16T07:41:04Z</time>
      </trkpt>
      <trkpt lat="48.2934" lon="-1.93991">
        <ele>148.1</ele>
        <time>2019-07-16T07:41:05Z</time>
      </trkpt>
      <trkpt lat="48.29339" lon="-1.93989">
        <ele>148.5</ele>
        <time>2019-07-16T07:41:06Z</time>
      </trkpt>
      <trkpt lat="48.29337" lon="-1.93987">
        <ele>148.6</ele>
        <time>2019-07-16T07:41:07Z</time>
      </trkpt>
      <trkpt lat="48.29335" lon="-1.93985">
        <ele>148.5</ele>
        <time>2019-07-16T07:41:08Z</time>
      </trkpt>
      <trkpt lat="48.29333" lon="-1.93982">
        <ele>148.4</ele>
        <time>2019-07-16T07:41:09Z</time>
      </trkpt>
      <trkpt lat="48.29331" lon="-1.9398">
        <ele>148.6</ele>
        <time>2019-07-16T07:41:10Z</time>
      </trkpt>
      <trkpt lat="48.2933" lon="-1.93978">
        <ele>148.8</ele>
        <time>2019-07-16T07:41:11Z</time>
      </trkpt>
      <trkpt lat="48.29328" lon="-1.93976">
        <ele>149</ele>
        <time>2019-07-16T07:41:12Z</time>
      </trkpt>
      <trkpt lat="48.29327" lon="-1.93974">
        <ele>149</ele>
        <time>2019-07-16T07:41:13Z</time>
      </trkpt>
      <trkpt lat="48.29325" lon="-1.93973">
        <ele>148.9</ele>
        <time>2019-07-16T07:41:14Z</time>
      </trkpt>
      <trkpt lat="48.29323" lon="-1.93971">
        <ele>148.9</ele>
        <time>2019-07-16T07:41:15Z</time>
      </trkpt>
      <trkpt lat="48.29321" lon="-1.93969">
        <ele>148.9</ele>
        <time>2019-07-16T07:41:16Z</time>
      </trkpt>
      <trkpt lat="48.29319" lon="-1.93968">
        <ele>148.8</ele>
        <time>2019-07-16T07:41:17Z</time>
      </trkpt>
      <trkpt lat="48.29318" lon="-1.93966">
        <ele>148.6</ele>
        <time>2019-07-16T07:41:18Z</time>
      </trkpt>
      <trkpt lat="48.29316" lon="-1.93965">
        <ele>148</ele>
        <time>2019-07-16T07:41:19Z</time>
      </trkpt>
      <trkpt lat="48.29314" lon="-1.93963">
        <ele>147.9</ele>
        <time>2019-07-16T07:41:20Z</time>
      </trkpt>
      <trkpt lat="48.29312" lon="-1.93961">
        <ele>147.7</ele>
        <time>2019-07-16T07:41:21Z</time>
      </trkpt>
      <trkpt lat="48.2931" lon="-1.9396">
        <ele>147.7</ele>
        <time>2019-07-16T07:41:22Z</time>
      </trkpt>
      <trkpt lat="48.29308" lon="-1.93958">
        <ele>147.9</ele>
        <time>2019-07-16T07:41:23Z</time>
      </trkpt>
      <trkpt lat="48.29306" lon="-1.93957">
        <ele>148.1</ele>
        <time>2019-07-16T07:41:24Z</time>
      </trkpt>
      <trkpt lat="48.29304" lon="-1.93956">
        <ele>148.3</ele>
        <time>2019-07-16T07:41:25Z</time>
      </trkpt>
      <trkpt lat="48.29302" lon="-1.93954">
        <ele>148.6</ele>
        <time>2019-07-16T07:41:26Z</time>
      </trkpt>
      <trkpt lat="48.293" lon="-1.93953">
        <ele>149</ele>
        <time>2019-07-16T07:41:27Z</time>
      </trkpt>
      <trkpt lat="48.29298" lon="-1.93951">
        <ele>149.3</ele>
        <time>2019-07-16T07:41:28Z</time>
      </trkpt>
      <trkpt lat="48.29297" lon="-1.9395">
        <ele>149.4</ele>
        <time>2019-07-16T07:41:29Z</time>
      </trkpt>
      <trkpt lat="48.29295" lon="-1.93948">
        <ele>149.7</ele>
        <time>2019-07-16T07:41:30Z</time>
      </trkpt>
      <trkpt lat="48.29291" lon="-1.93945">
        <ele>150.3</ele>
        <time>2019-07-16T07:41:32Z</time>
      </trkpt>
      <trkpt lat="48.2929" lon="-1.93943">
        <ele>150.2</ele>
        <time>2019-07-16T07:41:33Z</time>
      </trkpt>
      <trkpt lat="48.29288" lon="-1.93941">
        <ele>150.2</ele>
        <time>2019-07-16T07:41:34Z</time>
      </trkpt>
      <trkpt lat="48.29286" lon="-1.9394">
        <ele>150.2</ele>
        <time>2019-07-16T07:41:35Z</time>
      </trkpt>
      <trkpt lat="48.29284" lon="-1.93938">
        <ele>150.1</ele>
        <time>2019-07-16T07:41:36Z</time>
      </trkpt>
      <trkpt lat="48.29282" lon="-1.93936">
        <ele>150.1</ele>
        <time>2019-07-16T07:41:37Z</time>
      </trkpt>
      <trkpt lat="48.29281" lon="-1.93935">
        <ele>150.3</ele>
        <time>2019-07-16T07:41:38Z</time>
      </trkpt>
      <trkpt lat="48.29279" lon="-1.93933">
        <ele>150.6</ele>
        <time>2019-07-16T07:41:39Z</time>
      </trkpt>
      <trkpt lat="48.29277" lon="-1.93931">
        <ele>150.8</ele>
        <time>2019-07-16T07:41:40Z</time>
      </trkpt>
      <trkpt lat="48.29275" lon="-1.93929">
        <ele>150.6</ele>
        <time>2019-07-16T07:41:41Z</time>
      </trkpt>
      <trkpt lat="48.29273" lon="-1.93927">
        <ele>150.6</ele>
        <time>2019-07-16T07:41:42Z</time>
      </trkpt>
      <trkpt lat="48.29271" lon="-1.93925">
        <ele>150.5</ele>
        <time>2019-07-16T07:41:43Z</time>
      </trkpt>
      <trkpt lat="48.29269" lon="-1.93924">
        <ele>150.6</ele>
        <time>2019-07-16T07:41:44Z</time>
      </trkpt>
      <trkpt lat="48.29267" lon="-1.93921">
        <ele>150.7</ele>
        <time>2019-07-16T07:41:45Z</time>
      </trkpt>
      <trkpt lat="48.29265" lon="-1.93919">
        <ele>150.7</ele>
        <time>2019-07-16T07:41:46Z</time>
      </trkpt>
      <trkpt lat="48.29264" lon="-1.93917">
        <ele>150.8</ele>
        <time>2019-07-16T07:41:47Z</time>
      </trkpt>
      <trkpt lat="48.29262" lon="-1.93915">
        <ele>150.9</ele>
        <time>2019-07-16T07:41:48Z</time>
      </trkpt>
      <trkpt lat="48.2926" lon="-1.93912">
        <ele>151</ele>
        <time>2019-07-16T07:41:49Z</time>
      </trkpt>
      <trkpt lat="48.29258" lon="-1.9391">
        <ele>151</ele>
        <time>2019-07-16T07:41:50Z</time>
      </trkpt>
      <trkpt lat="48.29257" lon="-1.93908">
        <ele>151</ele>
        <time>2019-07-16T07:41:51Z</time>
      </trkpt>
      <trkpt lat="48.29255" lon="-1.93905">
        <ele>151.1</ele>
        <time>2019-07-16T07:41:52Z</time>
      </trkpt>
      <trkpt lat="48.29254" lon="-1.93903">
        <ele>151.3</ele>
        <time>2019-07-16T07:41:53Z</time>
      </trkpt>
      <trkpt lat="48.29253" lon="-1.93901">
        <ele>151.4</ele>
        <time>2019-07-16T07:41:54Z</time>
      </trkpt>
      <trkpt lat="48.29251" lon="-1.93898">
        <ele>151.3</ele>
        <time>2019-07-16T07:41:55Z</time>
      </trkpt>
      <trkpt lat="48.29249" lon="-1.93896">
        <ele>151.1</ele>
        <time>2019-07-16T07:41:56Z</time>
      </trkpt>
      <trkpt lat="48.29248" lon="-1.93894">
        <ele>151.1</ele>
        <time>2019-07-16T07:41:57Z</time>
      </trkpt>
      <trkpt lat="48.29247" lon="-1.93891">
        <ele>151.1</ele>
        <time>2019-07-16T07:41:58Z</time>
      </trkpt>
      <trkpt lat="48.29245" lon="-1.93889">
        <ele>150.9</ele>
        <time>2019-07-16T07:41:59Z</time>
      </trkpt>
      <trkpt lat="48.29244" lon="-1.93887">
        <ele>150.9</ele>
        <time>2019-07-16T07:42:00Z</time>
      </trkpt>
      <trkpt lat="48.29242" lon="-1.93884">
        <ele>150.6</ele>
        <time>2019-07-16T07:42:01Z</time>
      </trkpt>
      <trkpt lat="48.2924" lon="-1.93882">
        <ele>150.4</ele>
        <time>2019-07-16T07:42:02Z</time>
      </trkpt>
      <trkpt lat="48.29239" lon="-1.9388">
        <ele>150.4</ele>
        <time>2019-07-16T07:42:03Z</time>
      </trkpt>
      <trkpt lat="48.29238" lon="-1.93877">
        <ele>150.6</ele>
        <time>2019-07-16T07:42:04Z</time>
      </trkpt>
      <trkpt lat="48.29236" lon="-1.93875">
        <ele>150.7</ele>
        <time>2019-07-16T07:42:05Z</time>
      </trkpt>
      <trkpt lat="48.29235" lon="-1.93873">
        <ele>151.2</ele>
        <time>2019-07-16T07:42:06Z</time>
      </trkpt>
      <trkpt lat="48.29234" lon="-1.93871">
        <ele>151.2</ele>
        <time>2019-07-16T07:42:07Z</time>
      </trkpt>
      <trkpt lat="48.29232" lon="-1.93869">
        <ele>151.4</ele>
        <time>2019-07-16T07:42:08Z</time>
      </trkpt>
      <trkpt lat="48.29231" lon="-1.93866">
        <ele>151.5</ele>
        <time>2019-07-16T07:42:09Z</time>
      </trkpt>
      <trkpt lat="48.29229" lon="-1.93864">
        <ele>151.9</ele>
        <time>2019-07-16T07:42:10Z</time>
      </trkpt>
      <trkpt lat="48.29227" lon="-1.93862">
        <ele>151.8</ele>
        <time>2019-07-16T07:42:11Z</time>
      </trkpt>
      <trkpt lat="48.29226" lon="-1.93859">
        <ele>152</ele>
        <time>2019-07-16T07:42:12Z</time>
      </trkpt>
      <trkpt lat="48.29225" lon="-1.93857">
        <ele>152.3</ele>
        <time>2019-07-16T07:42:13Z</time>
      </trkpt>
      <trkpt lat="48.29224" lon="-1.93854">
        <ele>152.4</ele>
        <time>2019-07-16T07:42:14Z</time>
      </trkpt>
      <trkpt lat="48.29222" lon="-1.93852">
        <ele>152.6</ele>
        <time>2019-07-16T07:42:15Z</time>
      </trkpt>
      <trkpt lat="48.29221" lon="-1.9385">
        <ele>152.9</ele>
        <time>2019-07-16T07:42:16Z</time>
      </trkpt>
      <trkpt lat="48.29219" lon="-1.93847">
        <ele>153.2</ele>
        <time>2019-07-16T07:42:17Z</time>
      </trkpt>
      <trkpt lat="48.29218" lon="-1.93845">
        <ele>153.4</ele>
        <time>2019-07-16T07:42:18Z</time>
      </trkpt>
      <trkpt lat="48.29216" lon="-1.93843">
        <ele>153.3</ele>
        <time>2019-07-16T07:42:19Z</time>
      </trkpt>
      <trkpt lat="48.29215" lon="-1.93841">
        <ele>153.2</ele>
        <time>2019-07-16T07:42:20Z</time>
      </trkpt>
      <trkpt lat="48.29213" lon="-1.93839">
        <ele>153.1</ele>
        <time>2019-07-16T07:42:21Z</time>
      </trkpt>
      <trkpt lat="48.29212" lon="-1.93836">
        <ele>153.2</ele>
        <time>2019-07-16T07:42:22Z</time>
      </trkpt>
      <trkpt lat="48.29211" lon="-1.93834">
        <ele>153.3</ele>
        <time>2019-07-16T07:42:23Z</time>
      </trkpt>
      <trkpt lat="48.29209" lon="-1.93831">
        <ele>153.5</ele>
        <time>2019-07-16T07:42:24Z</time>
      </trkpt>
      <trkpt lat="48.29208" lon="-1.93828">
        <ele>153.6</ele>
        <time>2019-07-16T07:42:25Z</time>
      </trkpt>
      <trkpt lat="48.29206" lon="-1.93826">
        <ele>153.6</ele>
        <time>2019-07-16T07:42:26Z</time>
      </trkpt>
      <trkpt lat="48.29205" lon="-1.93823">
        <ele>153.8</ele>
        <time>2019-07-16T07:42:27Z</time>
      </trkpt>
      <trkpt lat="48.29203" lon="-1.9382">
        <ele>154.1</ele>
        <time>2019-07-16T07:42:28Z</time>
      </trkpt>
      <trkpt lat="48.29202" lon="-1.93818">
        <ele>154.4</ele>
        <time>2019-07-16T07:42:29Z</time>
      </trkpt>
      <trkpt lat="48.29201" lon="-1.93815">
        <ele>154.3</ele>
        <time>2019-07-16T07:42:30Z</time>
      </trkpt>
      <trkpt lat="48.292" lon="-1.93813">
        <ele>154.2</ele>
        <time>2019-07-16T07:42:31Z</time>
      </trkpt>
      <trkpt lat="48.29199" lon="-1.93811">
        <ele>154.4</ele>
        <time>2019-07-16T07:42:32Z</time>
      </trkpt>
      <trkpt lat="48.29197" lon="-1.93808">
        <ele>154.5</ele>
        <time>2019-07-16T07:42:33Z</time>
      </trkpt>
      <trkpt lat="48.29196" lon="-1.93806">
        <ele>154.9</ele>
        <time>2019-07-16T07:42:34Z</time>
      </trkpt>
      <trkpt lat="48.29195" lon="-1.93803">
        <ele>155.1</ele>
        <time>2019-07-16T07:42:35Z</time>
      </trkpt>
      <trkpt lat="48.29193" lon="-1.93801">
        <ele>155.2</ele>
        <time>2019-07-16T07:42:36Z</time>
      </trkpt>
      <trkpt lat="48.29192" lon="-1.93798">
        <ele>155.3</ele>
        <time>2019-07-16T07:42:37Z</time>
      </trkpt>
      <trkpt lat="48.2919" lon="-1.93796">
        <ele>155.3</ele>
        <time>2019-07-16T07:42:38Z</time>
      </trkpt>
      <trkpt lat="48.29189" lon="-1.93793">
        <ele>155.3</ele>
        <time>2019-07-16T07:42:39Z</time>
      </trkpt>
      <trkpt lat="48.29188" lon="-1.9379">
        <ele>155.2</ele>
        <time>2019-07-16T07:42:40Z</time>
      </trkpt>
      <trkpt lat="48.29186" lon="-1.93787">
        <ele>155.2</ele>
        <time>2019-07-16T07:42:41Z</time>
      </trkpt>
      <trkpt lat="48.29185" lon="-1.93784">
        <ele>155.2</ele>
        <time>2019-07-16T07:42:42Z</time>
      </trkpt>
      <trkpt lat="48.29184" lon="-1.93781">
        <ele>155.2</ele>
        <time>2019-07-16T07:42:43Z</time>
      </trkpt>
      <trkpt lat="48.29182" lon="-1.93778">
        <ele>155.3</ele>
        <time>2019-07-16T07:42:44Z</time>
      </trkpt>
      <trkpt lat="48.2918" lon="-1.93775">
        <ele>155.2</ele>
        <time>2019-07-16T07:42:45Z</time>
      </trkpt>
      <trkpt lat="48.29179" lon="-1.93771">
        <ele>155.2</ele>
        <time>2019-07-16T07:42:46Z</time>
      </trkpt>
      <trkpt lat="48.29177" lon="-1.93768">
        <ele>155.2</ele>
        <time>2019-07-16T07:42:47Z</time>
      </trkpt>
      <trkpt lat="48.29175" lon="-1.93763">
        <ele>155</ele>
        <time>2019-07-16T07:42:48Z</time>
      </trkpt>
      <trkpt lat="48.29174" lon="-1.93759">
        <ele>155.1</ele>
        <time>2019-07-16T07:42:49Z</time>
      </trkpt>
      <trkpt lat="48.29172" lon="-1.93754">
        <ele>154.8</ele>
        <time>2019-07-16T07:42:50Z</time>
      </trkpt>
      <trkpt lat="48.29171" lon="-1.93749">
        <ele>154.7</ele>
        <time>2019-07-16T07:42:51Z</time>
      </trkpt>
      <trkpt lat="48.29169" lon="-1.93744">
        <ele>154.9</ele>
        <time>2019-07-16T07:42:52Z</time>
      </trkpt>
      <trkpt lat="48.29168" lon="-1.93739">
        <ele>155.1</ele>
        <time>2019-07-16T07:42:53Z</time>
      </trkpt>
      <trkpt lat="48.29166" lon="-1.93734">
        <ele>155.3</ele>
        <time>2019-07-16T07:42:54Z</time>
      </trkpt>
      <trkpt lat="48.29165" lon="-1.93729">
        <ele>155.6</ele>
        <time>2019-07-16T07:42:55Z</time>
      </trkpt>
      <trkpt lat="48.29163" lon="-1.93724">
        <ele>155.6</ele>
        <time>2019-07-16T07:42:56Z</time>
      </trkpt>
      <trkpt lat="48.29162" lon="-1.9372">
        <ele>155.3</ele>
        <time>2019-07-16T07:42:57Z</time>
      </trkpt>
      <trkpt lat="48.29159" lon="-1.93715">
        <ele>155</ele>
        <time>2019-07-16T07:42:58Z</time>
      </trkpt>
      <trkpt lat="48.29156" lon="-1.9371">
        <ele>155.3</ele>
        <time>2019-07-16T07:42:59Z</time>
      </trkpt>
      <trkpt lat="48.29153" lon="-1.93704">
        <ele>155.4</ele>
        <time>2019-07-16T07:43:00Z</time>
      </trkpt>
      <trkpt lat="48.29151" lon="-1.93698">
        <ele>155.8</ele>
        <time>2019-07-16T07:43:01Z</time>
      </trkpt>
      <trkpt lat="48.29149" lon="-1.93693">
        <ele>155.9</ele>
        <time>2019-07-16T07:43:02Z</time>
      </trkpt>
      <trkpt lat="48.29145" lon="-1.93687">
        <ele>155.8</ele>
        <time>2019-07-16T07:43:03Z</time>
      </trkpt>
      <trkpt lat="48.29142" lon="-1.93682">
        <ele>155.6</ele>
        <time>2019-07-16T07:43:04Z</time>
      </trkpt>
      <trkpt lat="48.29139" lon="-1.93676">
        <ele>155.4</ele>
        <time>2019-07-16T07:43:05Z</time>
      </trkpt>
      <trkpt lat="48.29136" lon="-1.93671">
        <ele>155.2</ele>
        <time>2019-07-16T07:43:06Z</time>
      </trkpt>
      <trkpt lat="48.29133" lon="-1.93666">
        <ele>155.3</ele>
        <time>2019-07-16T07:43:07Z</time>
      </trkpt>
      <trkpt lat="48.2913" lon="-1.9366">
        <ele>155.4</ele>
        <time>2019-07-16T07:43:08Z</time>
      </trkpt>
      <trkpt lat="48.29126" lon="-1.93654">
        <ele>154.8</ele>
        <time>2019-07-16T07:43:09Z</time>
      </trkpt>
      <trkpt lat="48.29123" lon="-1.93649">
        <ele>154</ele>
        <time>2019-07-16T07:43:10Z</time>
      </trkpt>
      <trkpt lat="48.29119" lon="-1.93643">
        <ele>153.7</ele>
        <time>2019-07-16T07:43:11Z</time>
      </trkpt>
      <trkpt lat="48.29116" lon="-1.93638">
        <ele>153.3</ele>
        <time>2019-07-16T07:43:12Z</time>
      </trkpt>
      <trkpt lat="48.29112" lon="-1.93632">
        <ele>153</ele>
        <time>2019-07-16T07:43:13Z</time>
      </trkpt>
      <trkpt lat="48.29109" lon="-1.93626">
        <ele>153.2</ele>
        <time>2019-07-16T07:43:14Z</time>
      </trkpt>
      <trkpt lat="48.29105" lon="-1.9362">
        <ele>153.3</ele>
        <time>2019-07-16T07:43:15Z</time>
      </trkpt>
      <trkpt lat="48.29102" lon="-1.93615">
        <ele>153.3</ele>
        <time>2019-07-16T07:43:16Z</time>
      </trkpt>
      <trkpt lat="48.29099" lon="-1.93609">
        <ele>153.4</ele>
        <time>2019-07-16T07:43:17Z</time>
      </trkpt>
      <trkpt lat="48.29096" lon="-1.93603">
        <ele>153.4</ele>
        <time>2019-07-16T07:43:18Z</time>
      </trkpt>
      <trkpt lat="48.29092" lon="-1.93597">
        <ele>153.3</ele>
        <time>2019-07-16T07:43:19Z</time>
      </trkpt>
      <trkpt lat="48.29089" lon="-1.93592">
        <ele>153.1</ele>
        <time>2019-07-16T07:43:20Z</time>
      </trkpt>
      <trkpt lat="48.29086" lon="-1.93586">
        <ele>153</ele>
        <time>2019-07-16T07:43:21Z</time>
      </trkpt>
      <trkpt lat="48.29083" lon="-1.93581">
        <ele>152.8</ele>
        <time>2019-07-16T07:43:22Z</time>
      </trkpt>
      <trkpt lat="48.2908" lon="-1.93576">
        <ele>152.7</ele>
        <time>2019-07-16T07:43:23Z</time>
      </trkpt>
      <trkpt lat="48.29077" lon="-1.9357">
        <ele>152.7</ele>
        <time>2019-07-16T07:43:24Z</time>
      </trkpt>
      <trkpt lat="48.29075" lon="-1.93565">
        <ele>152.7</ele>
        <time>2019-07-16T07:43:25Z</time>
      </trkpt>
      <trkpt lat="48.29072" lon="-1.93561">
        <ele>152.8</ele>
        <time>2019-07-16T07:43:26Z</time>
      </trkpt>
      <trkpt lat="48.29069" lon="-1.93556">
        <ele>152.8</ele>
        <time>2019-07-16T07:43:27Z</time>
      </trkpt>
      <trkpt lat="48.29066" lon="-1.93551">
        <ele>152.7</ele>
        <time>2019-07-16T07:43:28Z</time>
      </trkpt>
      <trkpt lat="48.29063" lon="-1.93547">
        <ele>152.5</ele>
        <time>2019-07-16T07:43:29Z</time>
      </trkpt>
      <trkpt lat="48.29061" lon="-1.93544">
        <ele>151.9</ele>
        <time>2019-07-16T07:43:30Z</time>
      </trkpt>
      <trkpt lat="48.29058" lon="-1.9354">
        <ele>151.4</ele>
        <time>2019-07-16T07:43:31Z</time>
      </trkpt>
      <trkpt lat="48.29055" lon="-1.93536">
        <ele>151.1</ele>
        <time>2019-07-16T07:43:32Z</time>
      </trkpt>
      <trkpt lat="48.29051" lon="-1.93533">
        <ele>151</ele>
        <time>2019-07-16T07:43:33Z</time>
      </trkpt>
      <trkpt lat="48.29048" lon="-1.9353">
        <ele>151.2</ele>
        <time>2019-07-16T07:43:34Z</time>
      </trkpt>
      <trkpt lat="48.29045" lon="-1.93528">
        <ele>151.7</ele>
        <time>2019-07-16T07:43:35Z</time>
      </trkpt>
      <trkpt lat="48.29041" lon="-1.93525">
        <ele>151.9</ele>
        <time>2019-07-16T07:43:36Z</time>
      </trkpt>
      <trkpt lat="48.29038" lon="-1.93523">
        <ele>152</ele>
        <time>2019-07-16T07:43:37Z</time>
      </trkpt>
      <trkpt lat="48.29034" lon="-1.93522">
        <ele>151.9</ele>
        <time>2019-07-16T07:43:38Z</time>
      </trkpt>
      <trkpt lat="48.2903" lon="-1.9352">
        <ele>152.1</ele>
        <time>2019-07-16T07:43:39Z</time>
      </trkpt>
      <trkpt lat="48.29026" lon="-1.93519">
        <ele>152.3</ele>
        <time>2019-07-16T07:43:40Z</time>
      </trkpt>
      <trkpt lat="48.29023" lon="-1.93517">
        <ele>152.7</ele>
        <time>2019-07-16T07:43:41Z</time>
      </trkpt>
      <trkpt lat="48.2902" lon="-1.93516">
        <ele>153.1</ele>
        <time>2019-07-16T07:43:42Z</time>
      </trkpt>
      <trkpt lat="48.29016" lon="-1.93515">
        <ele>153.6</ele>
        <time>2019-07-16T07:43:43Z</time>
      </trkpt>
      <trkpt lat="48.29013" lon="-1.93514">
        <ele>154.2</ele>
        <time>2019-07-16T07:43:44Z</time>
      </trkpt>
      <trkpt lat="48.29009" lon="-1.93513">
        <ele>154.7</ele>
        <time>2019-07-16T07:43:45Z</time>
      </trkpt>
      <trkpt lat="48.29005" lon="-1.93512">
        <ele>155.1</ele>
        <time>2019-07-16T07:43:46Z</time>
      </trkpt>
      <trkpt lat="48.29002" lon="-1.93511">
        <ele>155.1</ele>
        <time>2019-07-16T07:43:47Z</time>
      </trkpt>
      <trkpt lat="48.28998" lon="-1.9351">
        <ele>155</ele>
        <time>2019-07-16T07:43:48Z</time>
      </trkpt>
      <trkpt lat="48.28994" lon="-1.93508">
        <ele>154.9</ele>
        <time>2019-07-16T07:43:49Z</time>
      </trkpt>
      <trkpt lat="48.2899" lon="-1.93507">
        <ele>154.8</ele>
        <time>2019-07-16T07:43:50Z</time>
      </trkpt>
      <trkpt lat="48.28986" lon="-1.93506">
        <ele>154.8</ele>
        <time>2019-07-16T07:43:51Z</time>
      </trkpt>
      <trkpt lat="48.28983" lon="-1.93504">
        <ele>154.6</ele>
        <time>2019-07-16T07:43:52Z</time>
      </trkpt>
      <trkpt lat="48.28979" lon="-1.93503">
        <ele>154.6</ele>
        <time>2019-07-16T07:43:53Z</time>
      </trkpt>
      <trkpt lat="48.28975" lon="-1.93502">
        <ele>154.5</ele>
        <time>2019-07-16T07:43:54Z</time>
      </trkpt>
      <trkpt lat="48.28972" lon="-1.93501">
        <ele>154.6</ele>
        <time>2019-07-16T07:43:55Z</time>
      </trkpt>
      <trkpt lat="48.28968" lon="-1.935">
        <ele>154.9</ele>
        <time>2019-07-16T07:43:56Z</time>
      </trkpt>
      <trkpt lat="48.28964" lon="-1.93499">
        <ele>155</ele>
        <time>2019-07-16T07:43:57Z</time>
      </trkpt>
      <trkpt lat="48.2896" lon="-1.93498">
        <ele>155.1</ele>
        <time>2019-07-16T07:43:58Z</time>
      </trkpt>
      <trkpt lat="48.28957" lon="-1.93497">
        <ele>155.5</ele>
        <time>2019-07-16T07:43:59Z</time>
      </trkpt>
      <trkpt lat="48.28954" lon="-1.93497">
        <ele>155.9</ele>
        <time>2019-07-16T07:44:00Z</time>
      </trkpt>
      <trkpt lat="48.28951" lon="-1.93496">
        <ele>156.3</ele>
        <time>2019-07-16T07:44:01Z</time>
      </trkpt>
      <trkpt lat="48.28947" lon="-1.93495">
        <ele>156.8</ele>
        <time>2019-07-16T07:44:02Z</time>
      </trkpt>
      <trkpt lat="48.28944" lon="-1.93495">
        <ele>157.1</ele>
        <time>2019-07-16T07:44:03Z</time>
      </trkpt>
      <trkpt lat="48.28941" lon="-1.93494">
        <ele>157.3</ele>
        <time>2019-07-16T07:44:04Z</time>
      </trkpt>
      <trkpt lat="48.28938" lon="-1.93493">
        <ele>157.6</ele>
        <time>2019-07-16T07:44:05Z</time>
      </trkpt>
      <trkpt lat="48.28934" lon="-1.93492">
        <ele>157.9</ele>
        <time>2019-07-16T07:44:06Z</time>
      </trkpt>
      <trkpt lat="48.28931" lon="-1.9349">
        <ele>158.2</ele>
        <time>2019-07-16T07:44:07Z</time>
      </trkpt>
      <trkpt lat="48.28927" lon="-1.93489">
        <ele>158.2</ele>
        <time>2019-07-16T07:44:08Z</time>
      </trkpt>
      <trkpt lat="48.28923" lon="-1.93487">
        <ele>157.9</ele>
        <time>2019-07-16T07:44:09Z</time>
      </trkpt>
      <trkpt lat="48.28919" lon="-1.93485">
        <ele>157.5</ele>
        <time>2019-07-16T07:44:10Z</time>
      </trkpt>
      <trkpt lat="48.28915" lon="-1.93484">
        <ele>157.2</ele>
        <time>2019-07-16T07:44:11Z</time>
      </trkpt>
      <trkpt lat="48.28912" lon="-1.93482">
        <ele>156.7</ele>
        <time>2019-07-16T07:44:12Z</time>
      </trkpt>
      <trkpt lat="48.28909" lon="-1.9348">
        <ele>156.3</ele>
        <time>2019-07-16T07:44:13Z</time>
      </trkpt>
      <trkpt lat="48.28906" lon="-1.93479">
        <ele>155.9</ele>
        <time>2019-07-16T07:44:14Z</time>
      </trkpt>
      <trkpt lat="48.28902" lon="-1.93477">
        <ele>155.6</ele>
        <time>2019-07-16T07:44:15Z</time>
      </trkpt>
      <trkpt lat="48.28899" lon="-1.93475">
        <ele>155.3</ele>
        <time>2019-07-16T07:44:16Z</time>
      </trkpt>
      <trkpt lat="48.28896" lon="-1.93473">
        <ele>155.2</ele>
        <time>2019-07-16T07:44:17Z</time>
      </trkpt>
      <trkpt lat="48.28893" lon="-1.93471">
        <ele>155.3</ele>
        <time>2019-07-16T07:44:18Z</time>
      </trkpt>
      <trkpt lat="48.2889" lon="-1.93469">
        <ele>155.4</ele>
        <time>2019-07-16T07:44:19Z</time>
      </trkpt>
      <trkpt lat="48.28887" lon="-1.93467">
        <ele>155.7</ele>
        <time>2019-07-16T07:44:20Z</time>
      </trkpt>
      <trkpt lat="48.28885" lon="-1.93465">
        <ele>156</ele>
        <time>2019-07-16T07:44:21Z</time>
      </trkpt>
      <trkpt lat="48.28882" lon="-1.93464">
        <ele>156.2</ele>
        <time>2019-07-16T07:44:22Z</time>
      </trkpt>
      <trkpt lat="48.28879" lon="-1.93462">
        <ele>156.5</ele>
        <time>2019-07-16T07:44:23Z</time>
      </trkpt>
      <trkpt lat="48.28877" lon="-1.9346">
        <ele>157.1</ele>
        <time>2019-07-16T07:44:24Z</time>
      </trkpt>
      <trkpt lat="48.28875" lon="-1.93458">
        <ele>157.5</ele>
        <time>2019-07-16T07:44:25Z</time>
      </trkpt>
      <trkpt lat="48.28872" lon="-1.93456">
        <ele>158</ele>
        <time>2019-07-16T07:44:26Z</time>
      </trkpt>
      <trkpt lat="48.2887" lon="-1.93454">
        <ele>158.5</ele>
        <time>2019-07-16T07:44:27Z</time>
      </trkpt>
      <trkpt lat="48.28867" lon="-1.93452">
        <ele>159</ele>
        <time>2019-07-16T07:44:28Z</time>
      </trkpt>
      <trkpt lat="48.28865" lon="-1.9345">
        <ele>159.3</ele>
        <time>2019-07-16T07:44:29Z</time>
      </trkpt>
      <trkpt lat="48.28862" lon="-1.93448">
        <ele>159.1</ele>
        <time>2019-07-16T07:44:30Z</time>
      </trkpt>
      <trkpt lat="48.2886" lon="-1.93445">
        <ele>159.3</ele>
        <time>2019-07-16T07:44:31Z</time>
      </trkpt>
      <trkpt lat="48.28857" lon="-1.93443">
        <ele>159.2</ele>
        <time>2019-07-16T07:44:32Z</time>
      </trkpt>
      <trkpt lat="48.28856" lon="-1.9344">
        <ele>158.8</ele>
        <time>2019-07-16T07:44:33Z</time>
      </trkpt>
      <trkpt lat="48.28854" lon="-1.93437">
        <ele>159</ele>
        <time>2019-07-16T07:44:34Z</time>
      </trkpt>
      <trkpt lat="48.28852" lon="-1.93435">
        <ele>159.3</ele>
        <time>2019-07-16T07:44:35Z</time>
      </trkpt>
      <trkpt lat="48.28849" lon="-1.93432">
        <ele>159.3</ele>
        <time>2019-07-16T07:44:36Z</time>
      </trkpt>
      <trkpt lat="48.28847" lon="-1.93429">
        <ele>159.5</ele>
        <time>2019-07-16T07:44:37Z</time>
      </trkpt>
      <trkpt lat="48.28845" lon="-1.93427">
        <ele>160.1</ele>
        <time>2019-07-16T07:44:38Z</time>
      </trkpt>
      <trkpt lat="48.28843" lon="-1.93424">
        <ele>160.5</ele>
        <time>2019-07-16T07:44:39Z</time>
      </trkpt>
      <trkpt lat="48.2884" lon="-1.93421">
        <ele>160.8</ele>
        <time>2019-07-16T07:44:40Z</time>
      </trkpt>
      <trkpt lat="48.28838" lon="-1.93418">
        <ele>160.7</ele>
        <time>2019-07-16T07:44:41Z</time>
      </trkpt>
      <trkpt lat="48.28836" lon="-1.93415">
        <ele>160.8</ele>
        <time>2019-07-16T07:44:42Z</time>
      </trkpt>
      <trkpt lat="48.28833" lon="-1.93412">
        <ele>160.6</ele>
        <time>2019-07-16T07:44:43Z</time>
      </trkpt>
      <trkpt lat="48.28831" lon="-1.93409">
        <ele>160.7</ele>
        <time>2019-07-16T07:44:44Z</time>
      </trkpt>
      <trkpt lat="48.28829" lon="-1.93406">
        <ele>160.7</ele>
        <time>2019-07-16T07:44:45Z</time>
      </trkpt>
      <trkpt lat="48.28827" lon="-1.93403">
        <ele>160.7</ele>
        <time>2019-07-16T07:44:46Z</time>
      </trkpt>
      <trkpt lat="48.28824" lon="-1.934">
        <ele>160.6</ele>
        <time>2019-07-16T07:44:47Z</time>
      </trkpt>
      <trkpt lat="48.28822" lon="-1.93397">
        <ele>160.9</ele>
        <time>2019-07-16T07:44:48Z</time>
      </trkpt>
      <trkpt lat="48.2882" lon="-1.93395">
        <ele>160.7</ele>
        <time>2019-07-16T07:44:49Z</time>
      </trkpt>
      <trkpt lat="48.28817" lon="-1.93392">
        <ele>160.6</ele>
        <time>2019-07-16T07:44:50Z</time>
      </trkpt>
      <trkpt lat="48.28815" lon="-1.93389">
        <ele>160.5</ele>
        <time>2019-07-16T07:44:51Z</time>
      </trkpt>
      <trkpt lat="48.28812" lon="-1.93386">
        <ele>160.5</ele>
        <time>2019-07-16T07:44:52Z</time>
      </trkpt>
      <trkpt lat="48.2881" lon="-1.93384">
        <ele>160.3</ele>
        <time>2019-07-16T07:44:53Z</time>
      </trkpt>
      <trkpt lat="48.28808" lon="-1.9338">
        <ele>160.4</ele>
        <time>2019-07-16T07:44:54Z</time>
      </trkpt>
      <trkpt lat="48.28805" lon="-1.93377">
        <ele>160.3</ele>
        <time>2019-07-16T07:44:55Z</time>
      </trkpt>
      <trkpt lat="48.28803" lon="-1.93374">
        <ele>160.3</ele>
        <time>2019-07-16T07:44:56Z</time>
      </trkpt>
      <trkpt lat="48.28801" lon="-1.93371">
        <ele>160.5</ele>
        <time>2019-07-16T07:44:57Z</time>
      </trkpt>
      <trkpt lat="48.28799" lon="-1.93369">
        <ele>160.7</ele>
        <time>2019-07-16T07:44:58Z</time>
      </trkpt>
      <trkpt lat="48.28796" lon="-1.93366">
        <ele>160.7</ele>
        <time>2019-07-16T07:44:59Z</time>
      </trkpt>
      <trkpt lat="48.28794" lon="-1.93363">
        <ele>160.8</ele>
        <time>2019-07-16T07:45:00Z</time>
      </trkpt>
      <trkpt lat="48.28791" lon="-1.93361">
        <ele>160.7</ele>
        <time>2019-07-16T07:45:01Z</time>
      </trkpt>
      <trkpt lat="48.28788" lon="-1.93358">
        <ele>160.9</ele>
        <time>2019-07-16T07:45:02Z</time>
      </trkpt>
      <trkpt lat="48.28786" lon="-1.93355">
        <ele>160.8</ele>
        <time>2019-07-16T07:45:03Z</time>
      </trkpt>
      <trkpt lat="48.28783" lon="-1.93353">
        <ele>160.9</ele>
        <time>2019-07-16T07:45:04Z</time>
      </trkpt>
      <trkpt lat="48.28781" lon="-1.9335">
        <ele>160.8</ele>
        <time>2019-07-16T07:45:05Z</time>
      </trkpt>
      <trkpt lat="48.28779" lon="-1.93348">
        <ele>160.8</ele>
        <time>2019-07-16T07:45:06Z</time>
      </trkpt>
      <trkpt lat="48.28776" lon="-1.93346">
        <ele>160.8</ele>
        <time>2019-07-16T07:45:07Z</time>
      </trkpt>
      <trkpt lat="48.28773" lon="-1.93344">
        <ele>160.7</ele>
        <time>2019-07-16T07:45:08Z</time>
      </trkpt>
      <trkpt lat="48.2877" lon="-1.93341">
        <ele>160.9</ele>
        <time>2019-07-16T07:45:09Z</time>
      </trkpt>
      <trkpt lat="48.28768" lon="-1.93339">
        <ele>161.3</ele>
        <time>2019-07-16T07:45:10Z</time>
      </trkpt>
      <trkpt lat="48.28765" lon="-1.93337">
        <ele>161.5</ele>
        <time>2019-07-16T07:45:11Z</time>
      </trkpt>
      <trkpt lat="48.28762" lon="-1.93336">
        <ele>161.9</ele>
        <time>2019-07-16T07:45:12Z</time>
      </trkpt>
      <trkpt lat="48.28759" lon="-1.93334">
        <ele>161.9</ele>
        <time>2019-07-16T07:45:13Z</time>
      </trkpt>
      <trkpt lat="48.28756" lon="-1.93333">
        <ele>162.3</ele>
        <time>2019-07-16T07:45:14Z</time>
      </trkpt>
      <trkpt lat="48.28753" lon="-1.93331">
        <ele>162.6</ele>
        <time>2019-07-16T07:45:15Z</time>
      </trkpt>
      <trkpt lat="48.2875" lon="-1.9333">
        <ele>162.9</ele>
        <time>2019-07-16T07:45:16Z</time>
      </trkpt>
      <trkpt lat="48.28747" lon="-1.93329">
        <ele>163.1</ele>
        <time>2019-07-16T07:45:17Z</time>
      </trkpt>
      <trkpt lat="48.28745" lon="-1.93328">
        <ele>163.4</ele>
        <time>2019-07-16T07:45:18Z</time>
      </trkpt>
      <trkpt lat="48.28742" lon="-1.93327">
        <ele>163.6</ele>
        <time>2019-07-16T07:45:19Z</time>
      </trkpt>
      <trkpt lat="48.28739" lon="-1.93326">
        <ele>163.6</ele>
        <time>2019-07-16T07:45:20Z</time>
      </trkpt>
      <trkpt lat="48.28736" lon="-1.93325">
        <ele>163.7</ele>
        <time>2019-07-16T07:45:21Z</time>
      </trkpt>
      <trkpt lat="48.28733" lon="-1.93323">
        <ele>163.9</ele>
        <time>2019-07-16T07:45:22Z</time>
      </trkpt>
      <trkpt lat="48.2873" lon="-1.93322">
        <ele>164</ele>
        <time>2019-07-16T07:45:23Z</time>
      </trkpt>
      <trkpt lat="48.28728" lon="-1.93321">
        <ele>164.2</ele>
        <time>2019-07-16T07:45:24Z</time>
      </trkpt>
      <trkpt lat="48.28725" lon="-1.9332">
        <ele>164.1</ele>
        <time>2019-07-16T07:45:25Z</time>
      </trkpt>
      <trkpt lat="48.28722" lon="-1.93318">
        <ele>164.3</ele>
        <time>2019-07-16T07:45:26Z</time>
      </trkpt>
      <trkpt lat="48.2872" lon="-1.93317">
        <ele>164.6</ele>
        <time>2019-07-16T07:45:27Z</time>
      </trkpt>
      <trkpt lat="48.28717" lon="-1.93316">
        <ele>164.9</ele>
        <time>2019-07-16T07:45:28Z</time>
      </trkpt>
      <trkpt lat="48.28715" lon="-1.93315">
        <ele>165.1</ele>
        <time>2019-07-16T07:45:29Z</time>
      </trkpt>
      <trkpt lat="48.28713" lon="-1.93315">
        <ele>165.3</ele>
        <time>2019-07-16T07:45:30Z</time>
      </trkpt>
      <trkpt lat="48.2871" lon="-1.93315">
        <ele>165.4</ele>
        <time>2019-07-16T07:45:31Z</time>
      </trkpt>
      <trkpt lat="48.28708" lon="-1.93314">
        <ele>165.5</ele>
        <time>2019-07-16T07:45:32Z</time>
      </trkpt>
      <trkpt lat="48.28705" lon="-1.93314">
        <ele>165.6</ele>
        <time>2019-07-16T07:45:33Z</time>
      </trkpt>
      <trkpt lat="48.28703" lon="-1.93313">
        <ele>165.5</ele>
        <time>2019-07-16T07:45:34Z</time>
      </trkpt>
      <trkpt lat="48.28701" lon="-1.93313">
        <ele>165.6</ele>
        <time>2019-07-16T07:45:35Z</time>
      </trkpt>
      <trkpt lat="48.28698" lon="-1.93312">
        <ele>165.7</ele>
        <time>2019-07-16T07:45:36Z</time>
      </trkpt>
      <trkpt lat="48.28696" lon="-1.93312">
        <ele>166</ele>
        <time>2019-07-16T07:45:37Z</time>
      </trkpt>
      <trkpt lat="48.28694" lon="-1.93311">
        <ele>166.3</ele>
        <time>2019-07-16T07:45:38Z</time>
      </trkpt>
      <trkpt lat="48.28692" lon="-1.9331">
        <ele>166.4</ele>
        <time>2019-07-16T07:45:39Z</time>
      </trkpt>
      <trkpt lat="48.28689" lon="-1.93309">
        <ele>166.6</ele>
        <time>2019-07-16T07:45:40Z</time>
      </trkpt>
      <trkpt lat="48.28687" lon="-1.93309">
        <ele>167</ele>
        <time>2019-07-16T07:45:41Z</time>
      </trkpt>
      <trkpt lat="48.28684" lon="-1.93308">
        <ele>167</ele>
        <time>2019-07-16T07:45:42Z</time>
      </trkpt>
      <trkpt lat="48.28682" lon="-1.93307">
        <ele>167.1</ele>
        <time>2019-07-16T07:45:43Z</time>
      </trkpt>
      <trkpt lat="48.28679" lon="-1.93307">
        <ele>167.2</ele>
        <time>2019-07-16T07:45:44Z</time>
      </trkpt>
      <trkpt lat="48.28677" lon="-1.93306">
        <ele>167.5</ele>
        <time>2019-07-16T07:45:45Z</time>
      </trkpt>
      <trkpt lat="48.28674" lon="-1.93306">
        <ele>167.7</ele>
        <time>2019-07-16T07:45:46Z</time>
      </trkpt>
      <trkpt lat="48.28672" lon="-1.93305">
        <ele>167.5</ele>
        <time>2019-07-16T07:45:47Z</time>
      </trkpt>
      <trkpt lat="48.28669" lon="-1.93305">
        <ele>167.5</ele>
        <time>2019-07-16T07:45:48Z</time>
      </trkpt>
      <trkpt lat="48.28667" lon="-1.93305">
        <ele>167.6</ele>
        <time>2019-07-16T07:45:49Z</time>
      </trkpt>
      <trkpt lat="48.28664" lon="-1.93304">
        <ele>167.4</ele>
        <time>2019-07-16T07:45:50Z</time>
      </trkpt>
      <trkpt lat="48.28661" lon="-1.93304">
        <ele>167.4</ele>
        <time>2019-07-16T07:45:51Z</time>
      </trkpt>
      <trkpt lat="48.28659" lon="-1.93303">
        <ele>167.5</ele>
        <time>2019-07-16T07:45:52Z</time>
      </trkpt>
      <trkpt lat="48.28657" lon="-1.93303">
        <ele>167.7</ele>
        <time>2019-07-16T07:45:53Z</time>
      </trkpt>
      <trkpt lat="48.28655" lon="-1.93303">
        <ele>167.4</ele>
        <time>2019-07-16T07:45:54Z</time>
      </trkpt>
      <trkpt lat="48.28652" lon="-1.93302">
        <ele>167.6</ele>
        <time>2019-07-16T07:45:55Z</time>
      </trkpt>
      <trkpt lat="48.2865" lon="-1.93301">
        <ele>167.8</ele>
        <time>2019-07-16T07:45:56Z</time>
      </trkpt>
      <trkpt lat="48.28648" lon="-1.93301">
        <ele>167.7</ele>
        <time>2019-07-16T07:45:57Z</time>
      </trkpt>
      <trkpt lat="48.28645" lon="-1.933">
        <ele>167.5</ele>
        <time>2019-07-16T07:45:58Z</time>
      </trkpt>
      <trkpt lat="48.28643" lon="-1.93299">
        <ele>167.5</ele>
        <time>2019-07-16T07:45:59Z</time>
      </trkpt>
      <trkpt lat="48.28641" lon="-1.93298">
        <ele>167.4</ele>
        <time>2019-07-16T07:46:00Z</time>
      </trkpt>
      <trkpt lat="48.28639" lon="-1.93297">
        <ele>167.9</ele>
        <time>2019-07-16T07:46:01Z</time>
      </trkpt>
      <trkpt lat="48.28637" lon="-1.93297">
        <ele>168.4</ele>
        <time>2019-07-16T07:46:02Z</time>
      </trkpt>
      <trkpt lat="48.28635" lon="-1.93296">
        <ele>168.3</ele>
        <time>2019-07-16T07:46:03Z</time>
      </trkpt>
      <trkpt lat="48.28633" lon="-1.93296">
        <ele>168.4</ele>
        <time>2019-07-16T07:46:04Z</time>
      </trkpt>
      <trkpt lat="48.2863" lon="-1.93296">
        <ele>168.4</ele>
        <time>2019-07-16T07:46:05Z</time>
      </trkpt>
      <trkpt lat="48.28628" lon="-1.93295">
        <ele>168.7</ele>
        <time>2019-07-16T07:46:06Z</time>
      </trkpt>
      <trkpt lat="48.28625" lon="-1.93295">
        <ele>169.5</ele>
        <time>2019-07-16T07:46:07Z</time>
      </trkpt>
      <trkpt lat="48.28622" lon="-1.93295">
        <ele>170.3</ele>
        <time>2019-07-16T07:46:08Z</time>
      </trkpt>
      <trkpt lat="48.2862" lon="-1.93295">
        <ele>170.8</ele>
        <time>2019-07-16T07:46:09Z</time>
      </trkpt>
      <trkpt lat="48.28617" lon="-1.93294">
        <ele>171.1</ele>
        <time>2019-07-16T07:46:10Z</time>
      </trkpt>
      <trkpt lat="48.28614" lon="-1.93294">
        <ele>171.4</ele>
        <time>2019-07-16T07:46:11Z</time>
      </trkpt>
      <trkpt lat="48.28611" lon="-1.93293">
        <ele>172.1</ele>
        <time>2019-07-16T07:46:12Z</time>
      </trkpt>
      <trkpt lat="48.28608" lon="-1.93292">
        <ele>172.3</ele>
        <time>2019-07-16T07:46:13Z</time>
      </trkpt>
      <trkpt lat="48.28605" lon="-1.93291">
        <ele>172.1</ele>
        <time>2019-07-16T07:46:14Z</time>
      </trkpt>
      <trkpt lat="48.28602" lon="-1.93291">
        <ele>172</ele>
        <time>2019-07-16T07:46:15Z</time>
      </trkpt>
      <trkpt lat="48.286" lon="-1.9329">
        <ele>172.3</ele>
        <time>2019-07-16T07:46:16Z</time>
      </trkpt>
      <trkpt lat="48.28597" lon="-1.9329">
        <ele>172.3</ele>
        <time>2019-07-16T07:46:17Z</time>
      </trkpt>
      <trkpt lat="48.28594" lon="-1.93289">
        <ele>172.3</ele>
        <time>2019-07-16T07:46:18Z</time>
      </trkpt>
      <trkpt lat="48.28592" lon="-1.93289">
        <ele>172.4</ele>
        <time>2019-07-16T07:46:19Z</time>
      </trkpt>
      <trkpt lat="48.28589" lon="-1.93288">
        <ele>172.5</ele>
        <time>2019-07-16T07:46:20Z</time>
      </trkpt>
      <trkpt lat="48.28586" lon="-1.93287">
        <ele>172.7</ele>
        <time>2019-07-16T07:46:21Z</time>
      </trkpt>
      <trkpt lat="48.28584" lon="-1.93287">
        <ele>172.9</ele>
        <time>2019-07-16T07:46:22Z</time>
      </trkpt>
      <trkpt lat="48.28581" lon="-1.93286">
        <ele>173.1</ele>
        <time>2019-07-16T07:46:23Z</time>
      </trkpt>
      <trkpt lat="48.28578" lon="-1.93285">
        <ele>173.1</ele>
        <time>2019-07-16T07:46:24Z</time>
      </trkpt>
      <trkpt lat="48.28575" lon="-1.93284">
        <ele>173.3</ele>
        <time>2019-07-16T07:46:25Z</time>
      </trkpt>
      <trkpt lat="48.28573" lon="-1.93284">
        <ele>173.7</ele>
        <time>2019-07-16T07:46:26Z</time>
      </trkpt>
      <trkpt lat="48.2857" lon="-1.93283">
        <ele>173.6</ele>
        <time>2019-07-16T07:46:27Z</time>
      </trkpt>
      <trkpt lat="48.28569" lon="-1.93283">
        <ele>173.4</ele>
        <time>2019-07-16T07:46:28Z</time>
      </trkpt>
      <trkpt lat="48.28565" lon="-1.9328">
        <ele>173.6</ele>
        <time>2019-07-16T07:46:36Z</time>
      </trkpt>
      <trkpt lat="48.28565" lon="-1.93276">
        <ele>173.4</ele>
        <time>2019-07-16T07:46:37Z</time>
      </trkpt>
      <trkpt lat="48.28564" lon="-1.93272">
        <ele>173.3</ele>
        <time>2019-07-16T07:46:38Z</time>
      </trkpt>
      <trkpt lat="48.28565" lon="-1.93268">
        <ele>173.5</ele>
        <time>2019-07-16T07:46:39Z</time>
      </trkpt>
      <trkpt lat="48.28565" lon="-1.93264">
        <ele>173.8</ele>
        <time>2019-07-16T07:46:40Z</time>
      </trkpt>
      <trkpt lat="48.28565" lon="-1.9326">
        <ele>173.9</ele>
        <time>2019-07-16T07:46:41Z</time>
      </trkpt>
      <trkpt lat="48.28566" lon="-1.93256">
        <ele>173.9</ele>
        <time>2019-07-16T07:46:42Z</time>
      </trkpt>
      <trkpt lat="48.28566" lon="-1.93253">
        <ele>173.6</ele>
        <time>2019-07-16T07:46:43Z</time>
      </trkpt>
      <trkpt lat="48.28568" lon="-1.93249">
        <ele>173.6</ele>
        <time>2019-07-16T07:46:44Z</time>
      </trkpt>
      <trkpt lat="48.28568" lon="-1.93245">
        <ele>173.5</ele>
        <time>2019-07-16T07:46:45Z</time>
      </trkpt>
      <trkpt lat="48.28569" lon="-1.9324">
        <ele>173.4</ele>
        <time>2019-07-16T07:46:46Z</time>
      </trkpt>
      <trkpt lat="48.28569" lon="-1.93236">
        <ele>173.3</ele>
        <time>2019-07-16T07:46:47Z</time>
      </trkpt>
      <trkpt lat="48.2857" lon="-1.93232">
        <ele>173.3</ele>
        <time>2019-07-16T07:46:48Z</time>
      </trkpt>
      <trkpt lat="48.28571" lon="-1.93228">
        <ele>173</ele>
        <time>2019-07-16T07:46:49Z</time>
      </trkpt>
      <trkpt lat="48.28571" lon="-1.93223">
        <ele>173</ele>
        <time>2019-07-16T07:46:50Z</time>
      </trkpt>
      <trkpt lat="48.28572" lon="-1.93219">
        <ele>172.7</ele>
        <time>2019-07-16T07:46:51Z</time>
      </trkpt>
      <trkpt lat="48.28573" lon="-1.93214">
        <ele>172.6</ele>
        <time>2019-07-16T07:46:52Z</time>
      </trkpt>
      <trkpt lat="48.28573" lon="-1.9321">
        <ele>172.5</ele>
        <time>2019-07-16T07:46:53Z</time>
      </trkpt>
      <trkpt lat="48.28574" lon="-1.93205">
        <ele>172.1</ele>
        <time>2019-07-16T07:46:54Z</time>
      </trkpt>
      <trkpt lat="48.28575" lon="-1.932">
        <ele>172.2</ele>
        <time>2019-07-16T07:46:55Z</time>
      </trkpt>
      <trkpt lat="48.28576" lon="-1.93195">
        <ele>172.1</ele>
        <time>2019-07-16T07:46:56Z</time>
      </trkpt>
      <trkpt lat="48.28576" lon="-1.93189">
        <ele>171.4</ele>
        <time>2019-07-16T07:46:57Z</time>
      </trkpt>
      <trkpt lat="48.28577" lon="-1.93184">
        <ele>170.8</ele>
        <time>2019-07-16T07:46:58Z</time>
      </trkpt>
      <trkpt lat="48.28577" lon="-1.93179">
        <ele>170.2</ele>
        <time>2019-07-16T07:46:59Z</time>
      </trkpt>
      <trkpt lat="48.28578" lon="-1.93173">
        <ele>170.2</ele>
        <time>2019-07-16T07:47:00Z</time>
      </trkpt>
      <trkpt lat="48.28577" lon="-1.93167">
        <ele>170.4</ele>
        <time>2019-07-16T07:47:01Z</time>
      </trkpt>
      <trkpt lat="48.28576" lon="-1.93162">
        <ele>170.4</ele>
        <time>2019-07-16T07:47:02Z</time>
      </trkpt>
      <trkpt lat="48.28574" lon="-1.93157">
        <ele>170.2</ele>
        <time>2019-07-16T07:47:03Z</time>
      </trkpt>
      <trkpt lat="48.28571" lon="-1.93154">
        <ele>170.4</ele>
        <time>2019-07-16T07:47:04Z</time>
      </trkpt>
      <trkpt lat="48.28568" lon="-1.93152">
        <ele>170.7</ele>
        <time>2019-07-16T07:47:05Z</time>
      </trkpt>
      <trkpt lat="48.28565" lon="-1.93152">
        <ele>170.8</ele>
        <time>2019-07-16T07:47:06Z</time>
      </trkpt>
      <trkpt lat="48.28562" lon="-1.93151">
        <ele>170.7</ele>
        <time>2019-07-16T07:47:07Z</time>
      </trkpt>
      <trkpt lat="48.28559" lon="-1.93152">
        <ele>170.5</ele>
        <time>2019-07-16T07:47:08Z</time>
      </trkpt>
      <trkpt lat="48.28556" lon="-1.93152">
        <ele>170.8</ele>
        <time>2019-07-16T07:47:09Z</time>
      </trkpt>
      <trkpt lat="48.28553" lon="-1.93152">
        <ele>171</ele>
        <time>2019-07-16T07:47:10Z</time>
      </trkpt>
      <trkpt lat="48.2855" lon="-1.93152">
        <ele>170.7</ele>
        <time>2019-07-16T07:47:11Z</time>
      </trkpt>
      <trkpt lat="48.28547" lon="-1.93151">
        <ele>170.6</ele>
        <time>2019-07-16T07:47:12Z</time>
      </trkpt>
      <trkpt lat="48.28542" lon="-1.93151">
        <ele>170.4</ele>
        <time>2019-07-16T07:47:13Z</time>
      </trkpt>
      <trkpt lat="48.28539" lon="-1.9315">
        <ele>169.8</ele>
        <time>2019-07-16T07:47:14Z</time>
      </trkpt>
      <trkpt lat="48.28535" lon="-1.9315">
        <ele>169.8</ele>
        <time>2019-07-16T07:47:15Z</time>
      </trkpt>
      <trkpt lat="48.28531" lon="-1.93149">
        <ele>169.9</ele>
        <time>2019-07-16T07:47:16Z</time>
      </trkpt>
      <trkpt lat="48.28528" lon="-1.93149">
        <ele>169.9</ele>
        <time>2019-07-16T07:47:17Z</time>
      </trkpt>
      <trkpt lat="48.28524" lon="-1.9315">
        <ele>169.1</ele>
        <time>2019-07-16T07:47:18Z</time>
      </trkpt>
      <trkpt lat="48.28518" lon="-1.93148">
        <ele>168.9</ele>
        <time>2019-07-16T07:47:19Z</time>
      </trkpt>
      <trkpt lat="48.28514" lon="-1.93148">
        <ele>169.6</ele>
        <time>2019-07-16T07:47:20Z</time>
      </trkpt>
      <trkpt lat="48.28509" lon="-1.93147">
        <ele>170.3</ele>
        <time>2019-07-16T07:47:21Z</time>
      </trkpt>
      <trkpt lat="48.28505" lon="-1.93145">
        <ele>170.8</ele>
        <time>2019-07-16T07:47:22Z</time>
      </trkpt>
      <trkpt lat="48.285" lon="-1.93142">
        <ele>170.4</ele>
        <time>2019-07-16T07:47:23Z</time>
      </trkpt>
      <trkpt lat="48.28496" lon="-1.93138">
        <ele>169.9</ele>
        <time>2019-07-16T07:47:24Z</time>
      </trkpt>
      <trkpt lat="48.28492" lon="-1.93135">
        <ele>169.6</ele>
        <time>2019-07-16T07:47:25Z</time>
      </trkpt>
      <trkpt lat="48.28488" lon="-1.93133">
        <ele>169.1</ele>
        <time>2019-07-16T07:47:26Z</time>
      </trkpt>
      <trkpt lat="48.28484" lon="-1.93131">
        <ele>168.6</ele>
        <time>2019-07-16T07:47:27Z</time>
      </trkpt>
      <trkpt lat="48.2848" lon="-1.93128">
        <ele>168.4</ele>
        <time>2019-07-16T07:47:28Z</time>
      </trkpt>
      <trkpt lat="48.28476" lon="-1.93126">
        <ele>167.7</ele>
        <time>2019-07-16T07:47:29Z</time>
      </trkpt>
      <trkpt lat="48.28473" lon="-1.93123">
        <ele>167.3</ele>
        <time>2019-07-16T07:47:30Z</time>
      </trkpt>
      <trkpt lat="48.28469" lon="-1.9312">
        <ele>167.1</ele>
        <time>2019-07-16T07:47:31Z</time>
      </trkpt>
      <trkpt lat="48.28465" lon="-1.93118">
        <ele>165.8</ele>
        <time>2019-07-16T07:47:32Z</time>
      </trkpt>
      <trkpt lat="48.28463" lon="-1.93114">
        <ele>166.9</ele>
        <time>2019-07-16T07:47:33Z</time>
      </trkpt>
      <trkpt lat="48.2846" lon="-1.93111">
        <ele>167</ele>
        <time>2019-07-16T07:47:34Z</time>
      </trkpt>
      <trkpt lat="48.2846" lon="-1.93106">
        <ele>168</ele>
        <time>2019-07-16T07:47:35Z</time>
      </trkpt>
      <trkpt lat="48.28458" lon="-1.93104">
        <ele>168.2</ele>
        <time>2019-07-16T07:47:36Z</time>
      </trkpt>
      <trkpt lat="48.28457" lon="-1.93102">
        <ele>169</ele>
        <time>2019-07-16T07:47:37Z</time>
      </trkpt>
      <trkpt lat="48.28457" lon="-1.93101">
        <ele>169.7</ele>
        <time>2019-07-16T07:47:38Z</time>
      </trkpt>
      <trkpt lat="48.28455" lon="-1.93099">
        <ele>171.6</ele>
        <time>2019-07-16T07:49:42Z</time>
      </trkpt>
      <trkpt lat="48.28454" lon="-1.93096">
        <ele>171.4</ele>
        <time>2019-07-16T07:49:43Z</time>
      </trkpt>
      <trkpt lat="48.28454" lon="-1.93094">
        <ele>171</ele>
        <time>2019-07-16T07:49:44Z</time>
      </trkpt>
      <trkpt lat="48.28455" lon="-1.93091">
        <ele>170.6</ele>
        <time>2019-07-16T07:49:45Z</time>
      </trkpt>
      <trkpt lat="48.28458" lon="-1.93089">
        <ele>170.6</ele>
        <time>2019-07-16T07:49:46Z</time>
      </trkpt>
      <trkpt lat="48.28459" lon="-1.93086">
        <ele>170.5</ele>
        <time>2019-07-16T07:49:47Z</time>
      </trkpt>
      <trkpt lat="48.28461" lon="-1.93083">
        <ele>170.8</ele>
        <time>2019-07-16T07:49:48Z</time>
      </trkpt>
      <trkpt lat="48.28462" lon="-1.9308">
        <ele>171</ele>
        <time>2019-07-16T07:49:49Z</time>
      </trkpt>
      <trkpt lat="48.28463" lon="-1.93076">
        <ele>170.6</ele>
        <time>2019-07-16T07:49:50Z</time>
      </trkpt>
      <trkpt lat="48.28464" lon="-1.93072">
        <ele>170.2</ele>
        <time>2019-07-16T07:49:51Z</time>
      </trkpt>
      <trkpt lat="48.28464" lon="-1.93068">
        <ele>169.9</ele>
        <time>2019-07-16T07:49:52Z</time>
      </trkpt>
      <trkpt lat="48.28464" lon="-1.93065">
        <ele>169.9</ele>
        <time>2019-07-16T07:49:53Z</time>
      </trkpt>
      <trkpt lat="48.28464" lon="-1.93061">
        <ele>169.7</ele>
        <time>2019-07-16T07:49:54Z</time>
      </trkpt>
      <trkpt lat="48.28465" lon="-1.93057">
        <ele>169.9</ele>
        <time>2019-07-16T07:49:55Z</time>
      </trkpt>
      <trkpt lat="48.28465" lon="-1.93054">
        <ele>169.9</ele>
        <time>2019-07-16T07:49:56Z</time>
      </trkpt>
      <trkpt lat="48.28465" lon="-1.93051">
        <ele>169.9</ele>
        <time>2019-07-16T07:49:57Z</time>
      </trkpt>
      <trkpt lat="48.28466" lon="-1.93048">
        <ele>171</ele>
        <time>2019-07-16T07:49:58Z</time>
      </trkpt>
      <trkpt lat="48.28467" lon="-1.93047">
        <ele>171.8</ele>
        <time>2019-07-16T07:49:59Z</time>
      </trkpt>
      <trkpt lat="48.28468" lon="-1.93046">
        <ele>172.8</ele>
        <time>2019-07-16T07:50:00Z</time>
      </trkpt>
      <trkpt lat="48.2847" lon="-1.93046">
        <ele>173.2</ele>
        <time>2019-07-16T07:50:01Z</time>
      </trkpt>
      <trkpt lat="48.28472" lon="-1.93046">
        <ele>173.7</ele>
        <time>2019-07-16T07:50:02Z</time>
      </trkpt>
      <trkpt lat="48.28474" lon="-1.93046">
        <ele>174</ele>
        <time>2019-07-16T07:50:03Z</time>
      </trkpt>
      <trkpt lat="48.28476" lon="-1.93047">
        <ele>174.4</ele>
        <time>2019-07-16T07:50:04Z</time>
      </trkpt>
      <trkpt lat="48.28479" lon="-1.93047">
        <ele>174.6</ele>
        <time>2019-07-16T07:50:05Z</time>
      </trkpt>
      <trkpt lat="48.28481" lon="-1.93048">
        <ele>174.9</ele>
        <time>2019-07-16T07:50:06Z</time>
      </trkpt>
      <trkpt lat="48.28483" lon="-1.93049">
        <ele>175.9</ele>
        <time>2019-07-16T07:50:07Z</time>
      </trkpt>
      <trkpt lat="48.28486" lon="-1.9305">
        <ele>176.1</ele>
        <time>2019-07-16T07:50:08Z</time>
      </trkpt>
      <trkpt lat="48.28489" lon="-1.93051">
        <ele>176.5</ele>
        <time>2019-07-16T07:50:09Z</time>
      </trkpt>
      <trkpt lat="48.28491" lon="-1.93051">
        <ele>176.7</ele>
        <time>2019-07-16T07:50:10Z</time>
      </trkpt>
      <trkpt lat="48.28494" lon="-1.93052">
        <ele>176.2</ele>
        <time>2019-07-16T07:50:11Z</time>
      </trkpt>
      <trkpt lat="48.28497" lon="-1.93053">
        <ele>175.4</ele>
        <time>2019-07-16T07:50:12Z</time>
      </trkpt>
      <trkpt lat="48.285" lon="-1.93053">
        <ele>174.8</ele>
        <time>2019-07-16T07:50:13Z</time>
      </trkpt>
      <trkpt lat="48.28503" lon="-1.93054">
        <ele>174.2</ele>
        <time>2019-07-16T07:50:14Z</time>
      </trkpt>
      <trkpt lat="48.28506" lon="-1.93054">
        <ele>173.7</ele>
        <time>2019-07-16T07:50:15Z</time>
      </trkpt>
      <trkpt lat="48.28509" lon="-1.93056">
        <ele>173.2</ele>
        <time>2019-07-16T07:50:16Z</time>
      </trkpt>
      <trkpt lat="48.28511" lon="-1.93058">
        <ele>172.9</ele>
        <time>2019-07-16T07:50:17Z</time>
      </trkpt>
      <trkpt lat="48.28513" lon="-1.93059">
        <ele>173.9</ele>
        <time>2019-07-16T07:50:18Z</time>
      </trkpt>
      <trkpt lat="48.28516" lon="-1.9306">
        <ele>174.7</ele>
        <time>2019-07-16T07:50:19Z</time>
      </trkpt>
      <trkpt lat="48.28519" lon="-1.93061">
        <ele>175.4</ele>
        <time>2019-07-16T07:50:20Z</time>
      </trkpt>
      <trkpt lat="48.28521" lon="-1.93063">
        <ele>176.1</ele>
        <time>2019-07-16T07:50:21Z</time>
      </trkpt>
      <trkpt lat="48.28524" lon="-1.93063">
        <ele>176.4</ele>
        <time>2019-07-16T07:50:22Z</time>
      </trkpt>
      <trkpt lat="48.28527" lon="-1.93063">
        <ele>175.9</ele>
        <time>2019-07-16T07:50:23Z</time>
      </trkpt>
      <trkpt lat="48.28529" lon="-1.93063">
        <ele>175.5</ele>
        <time>2019-07-16T07:50:24Z</time>
      </trkpt>
      <trkpt lat="48.28532" lon="-1.93063">
        <ele>175.1</ele>
        <time>2019-07-16T07:50:25Z</time>
      </trkpt>
      <trkpt lat="48.28534" lon="-1.93062">
        <ele>174.7</ele>
        <time>2019-07-16T07:50:26Z</time>
      </trkpt>
      <trkpt lat="48.28537" lon="-1.93062">
        <ele>173.7</ele>
        <time>2019-07-16T07:50:27Z</time>
      </trkpt>
      <trkpt lat="48.2854" lon="-1.93063">
        <ele>172.7</ele>
        <time>2019-07-16T07:50:28Z</time>
      </trkpt>
      <trkpt lat="48.28544" lon="-1.93062">
        <ele>171.2</ele>
        <time>2019-07-16T07:50:29Z</time>
      </trkpt>
      <trkpt lat="48.28547" lon="-1.93062">
        <ele>170.3</ele>
        <time>2019-07-16T07:50:30Z</time>
      </trkpt>
      <trkpt lat="48.2855" lon="-1.93061">
        <ele>170.3</ele>
        <time>2019-07-16T07:50:31Z</time>
      </trkpt>
      <trkpt lat="48.28553" lon="-1.9306">
        <ele>169.6</ele>
        <time>2019-07-16T07:50:32Z</time>
      </trkpt>
      <trkpt lat="48.28556" lon="-1.93059">
        <ele>169.3</ele>
        <time>2019-07-16T07:50:33Z</time>
      </trkpt>
      <trkpt lat="48.2856" lon="-1.93059">
        <ele>168.9</ele>
        <time>2019-07-16T07:50:34Z</time>
      </trkpt>
      <trkpt lat="48.28563" lon="-1.93059">
        <ele>168.6</ele>
        <time>2019-07-16T07:50:35Z</time>
      </trkpt>
      <trkpt lat="48.28565" lon="-1.93059">
        <ele>168.2</ele>
        <time>2019-07-16T07:50:36Z</time>
      </trkpt>
      <trkpt lat="48.28568" lon="-1.93058">
        <ele>167.8</ele>
        <time>2019-07-16T07:50:37Z</time>
      </trkpt>
      <trkpt lat="48.28573" lon="-1.93049">
        <ele>166.8</ele>
        <time>2019-07-16T07:50:44Z</time>
      </trkpt>
      <trkpt lat="48.28573" lon="-1.93046">
        <ele>166.9</ele>
        <time>2019-07-16T07:50:45Z</time>
      </trkpt>
      <trkpt lat="48.28574" lon="-1.93043">
        <ele>167</ele>
        <time>2019-07-16T07:50:46Z</time>
      </trkpt>
      <trkpt lat="48.28574" lon="-1.93039">
        <ele>167.3</ele>
        <time>2019-07-16T07:50:47Z</time>
      </trkpt>
      <trkpt lat="48.28574" lon="-1.93036">
        <ele>167.4</ele>
        <time>2019-07-16T07:50:48Z</time>
      </trkpt>
      <trkpt lat="48.28574" lon="-1.93032">
        <ele>167.6</ele>
        <time>2019-07-16T07:50:49Z</time>
      </trkpt>
      <trkpt lat="48.28573" lon="-1.93028">
        <ele>167.9</ele>
        <time>2019-07-16T07:50:50Z</time>
      </trkpt>
      <trkpt lat="48.28573" lon="-1.93024">
        <ele>168</ele>
        <time>2019-07-16T07:50:51Z</time>
      </trkpt>
      <trkpt lat="48.28573" lon="-1.9302">
        <ele>168.3</ele>
        <time>2019-07-16T07:50:52Z</time>
      </trkpt>
      <trkpt lat="48.28573" lon="-1.93016">
        <ele>168.6</ele>
        <time>2019-07-16T07:50:53Z</time>
      </trkpt>
      <trkpt lat="48.28573" lon="-1.93012">
        <ele>169.1</ele>
        <time>2019-07-16T07:50:54Z</time>
      </trkpt>
      <trkpt lat="48.28573" lon="-1.93008">
        <ele>169.5</ele>
        <time>2019-07-16T07:50:55Z</time>
      </trkpt>
      <trkpt lat="48.28573" lon="-1.93004">
        <ele>170.2</ele>
        <time>2019-07-16T07:50:56Z</time>
      </trkpt>
      <trkpt lat="48.28573" lon="-1.93">
        <ele>170.2</ele>
        <time>2019-07-16T07:50:57Z</time>
      </trkpt>
      <trkpt lat="48.28573" lon="-1.92995">
        <ele>170.2</ele>
        <time>2019-07-16T07:50:58Z</time>
      </trkpt>
      <trkpt lat="48.28571" lon="-1.9299">
        <ele>170.7</ele>
        <time>2019-07-16T07:50:59Z</time>
      </trkpt>
      <trkpt lat="48.28571" lon="-1.92986">
        <ele>170.9</ele>
        <time>2019-07-16T07:51:00Z</time>
      </trkpt>
      <trkpt lat="48.2857" lon="-1.92982">
        <ele>171.1</ele>
        <time>2019-07-16T07:51:01Z</time>
      </trkpt>
      <trkpt lat="48.2857" lon="-1.92976">
        <ele>171.2</ele>
        <time>2019-07-16T07:51:02Z</time>
      </trkpt>
      <trkpt lat="48.28569" lon="-1.92971">
        <ele>171</ele>
        <time>2019-07-16T07:51:03Z</time>
      </trkpt>
      <trkpt lat="48.28569" lon="-1.92965">
        <ele>170.5</ele>
        <time>2019-07-16T07:51:04Z</time>
      </trkpt>
      <trkpt lat="48.28569" lon="-1.9296">
        <ele>170.1</ele>
        <time>2019-07-16T07:51:05Z</time>
      </trkpt>
      <trkpt lat="48.28569" lon="-1.92954">
        <ele>169.5</ele>
        <time>2019-07-16T07:51:06Z</time>
      </trkpt>
      <trkpt lat="48.28569" lon="-1.92948">
        <ele>169.3</ele>
        <time>2019-07-16T07:51:07Z</time>
      </trkpt>
      <trkpt lat="48.28569" lon="-1.92942">
        <ele>168.9</ele>
        <time>2019-07-16T07:51:08Z</time>
      </trkpt>
      <trkpt lat="48.28569" lon="-1.92936">
        <ele>169.1</ele>
        <time>2019-07-16T07:51:09Z</time>
      </trkpt>
      <trkpt lat="48.28569" lon="-1.9293">
        <ele>169.4</ele>
        <time>2019-07-16T07:51:10Z</time>
      </trkpt>
      <trkpt lat="48.28569" lon="-1.92924">
        <ele>169.4</ele>
        <time>2019-07-16T07:51:11Z</time>
      </trkpt>
      <trkpt lat="48.28569" lon="-1.92918">
        <ele>169.4</ele>
        <time>2019-07-16T07:51:12Z</time>
      </trkpt>
      <trkpt lat="48.28569" lon="-1.92911">
        <ele>169.5</ele>
        <time>2019-07-16T07:51:13Z</time>
      </trkpt>
      <trkpt lat="48.28569" lon="-1.92905">
        <ele>169.4</ele>
        <time>2019-07-16T07:51:14Z</time>
      </trkpt>
      <trkpt lat="48.28569" lon="-1.92898">
        <ele>169.5</ele>
        <time>2019-07-16T07:51:15Z</time>
      </trkpt>
      <trkpt lat="48.2857" lon="-1.92891">
        <ele>169.5</ele>
        <time>2019-07-16T07:51:16Z</time>
      </trkpt>
      <trkpt lat="48.28571" lon="-1.92884">
        <ele>169.2</ele>
        <time>2019-07-16T07:51:17Z</time>
      </trkpt>
      <trkpt lat="48.28571" lon="-1.92876">
        <ele>168.6</ele>
        <time>2019-07-16T07:51:18Z</time>
      </trkpt>
      <trkpt lat="48.28572" lon="-1.92869">
        <ele>168.2</ele>
        <time>2019-07-16T07:51:19Z</time>
      </trkpt>
      <trkpt lat="48.28573" lon="-1.92861">
        <ele>167.8</ele>
        <time>2019-07-16T07:51:20Z</time>
      </trkpt>
      <trkpt lat="48.28573" lon="-1.92852">
        <ele>167.3</ele>
        <time>2019-07-16T07:51:21Z</time>
      </trkpt>
      <trkpt lat="48.28573" lon="-1.92844">
        <ele>167.4</ele>
        <time>2019-07-16T07:51:22Z</time>
      </trkpt>
      <trkpt lat="48.28574" lon="-1.92835">
        <ele>167.2</ele>
        <time>2019-07-16T07:51:23Z</time>
      </trkpt>
      <trkpt lat="48.28574" lon="-1.92827">
        <ele>167.1</ele>
        <time>2019-07-16T07:51:24Z</time>
      </trkpt>
      <trkpt lat="48.28576" lon="-1.92817">
        <ele>167</ele>
        <time>2019-07-16T07:51:25Z</time>
      </trkpt>
      <trkpt lat="48.28577" lon="-1.92808">
        <ele>166.7</ele>
        <time>2019-07-16T07:51:26Z</time>
      </trkpt>
      <trkpt lat="48.28577" lon="-1.928">
        <ele>166.5</ele>
        <time>2019-07-16T07:51:27Z</time>
      </trkpt>
      <trkpt lat="48.28578" lon="-1.92791">
        <ele>166.2</ele>
        <time>2019-07-16T07:51:28Z</time>
      </trkpt>
      <trkpt lat="48.28578" lon="-1.92782">
        <ele>165.7</ele>
        <time>2019-07-16T07:51:29Z</time>
      </trkpt>
      <trkpt lat="48.28579" lon="-1.92774">
        <ele>165.5</ele>
        <time>2019-07-16T07:51:30Z</time>
      </trkpt>
      <trkpt lat="48.2858" lon="-1.92766">
        <ele>165.2</ele>
        <time>2019-07-16T07:51:31Z</time>
      </trkpt>
      <trkpt lat="48.28581" lon="-1.92758">
        <ele>165</ele>
        <time>2019-07-16T07:51:32Z</time>
      </trkpt>
      <trkpt lat="48.28581" lon="-1.92749">
        <ele>164.8</ele>
        <time>2019-07-16T07:51:33Z</time>
      </trkpt>
      <trkpt lat="48.28581" lon="-1.92741">
        <ele>163.4</ele>
        <time>2019-07-16T07:51:34Z</time>
      </trkpt>
      <trkpt lat="48.28581" lon="-1.92733">
        <ele>162.3</ele>
        <time>2019-07-16T07:51:35Z</time>
      </trkpt>
      <trkpt lat="48.28582" lon="-1.92726">
        <ele>162.4</ele>
        <time>2019-07-16T07:51:36Z</time>
      </trkpt>
      <trkpt lat="48.28583" lon="-1.92719">
        <ele>163.3</ele>
        <time>2019-07-16T07:51:37Z</time>
      </trkpt>
      <trkpt lat="48.28584" lon="-1.92712">
        <ele>163.4</ele>
        <time>2019-07-16T07:51:38Z</time>
      </trkpt>
      <trkpt lat="48.28585" lon="-1.92705">
        <ele>163.6</ele>
        <time>2019-07-16T07:51:39Z</time>
      </trkpt>
      <trkpt lat="48.28586" lon="-1.92698">
        <ele>164</ele>
        <time>2019-07-16T07:51:40Z</time>
      </trkpt>
      <trkpt lat="48.28587" lon="-1.92692">
        <ele>164.5</ele>
        <time>2019-07-16T07:51:41Z</time>
      </trkpt>
      <trkpt lat="48.28589" lon="-1.92686">
        <ele>164.6</ele>
        <time>2019-07-16T07:51:42Z</time>
      </trkpt>
      <trkpt lat="48.28589" lon="-1.92679">
        <ele>164.7</ele>
        <time>2019-07-16T07:51:43Z</time>
      </trkpt>
      <trkpt lat="48.2859" lon="-1.92673">
        <ele>164.9</ele>
        <time>2019-07-16T07:51:44Z</time>
      </trkpt>
      <trkpt lat="48.2859" lon="-1.92666">
        <ele>165.2</ele>
        <time>2019-07-16T07:51:45Z</time>
      </trkpt>
      <trkpt lat="48.28591" lon="-1.92659">
        <ele>165.1</ele>
        <time>2019-07-16T07:51:46Z</time>
      </trkpt>
      <trkpt lat="48.28592" lon="-1.92652">
        <ele>164.9</ele>
        <time>2019-07-16T07:51:47Z</time>
      </trkpt>
      <trkpt lat="48.28593" lon="-1.92646">
        <ele>164.6</ele>
        <time>2019-07-16T07:51:48Z</time>
      </trkpt>
      <trkpt lat="48.28593" lon="-1.92639">
        <ele>164.3</ele>
        <time>2019-07-16T07:51:49Z</time>
      </trkpt>
      <trkpt lat="48.28594" lon="-1.92632">
        <ele>164.1</ele>
        <time>2019-07-16T07:51:50Z</time>
      </trkpt>
      <trkpt lat="48.28594" lon="-1.92625">
        <ele>163.7</ele>
        <time>2019-07-16T07:51:51Z</time>
      </trkpt>
      <trkpt lat="48.28595" lon="-1.92618">
        <ele>163.5</ele>
        <time>2019-07-16T07:51:52Z</time>
      </trkpt>
      <trkpt lat="48.28595" lon="-1.92611">
        <ele>163.5</ele>
        <time>2019-07-16T07:51:53Z</time>
      </trkpt>
      <trkpt lat="48.28596" lon="-1.92604">
        <ele>163.2</ele>
        <time>2019-07-16T07:51:54Z</time>
      </trkpt>
      <trkpt lat="48.28596" lon="-1.92597">
        <ele>162.9</ele>
        <time>2019-07-16T07:51:55Z</time>
      </trkpt>
      <trkpt lat="48.28597" lon="-1.9259">
        <ele>162.5</ele>
        <time>2019-07-16T07:51:56Z</time>
      </trkpt>
      <trkpt lat="48.28597" lon="-1.92583">
        <ele>162.5</ele>
        <time>2019-07-16T07:51:57Z</time>
      </trkpt>
      <trkpt lat="48.28597" lon="-1.92576">
        <ele>162.9</ele>
        <time>2019-07-16T07:51:58Z</time>
      </trkpt>
      <trkpt lat="48.28598" lon="-1.92569">
        <ele>163.2</ele>
        <time>2019-07-16T07:51:59Z</time>
      </trkpt>
      <trkpt lat="48.28599" lon="-1.92562">
        <ele>163.5</ele>
        <time>2019-07-16T07:52:00Z</time>
      </trkpt>
      <trkpt lat="48.28599" lon="-1.92556">
        <ele>163.3</ele>
        <time>2019-07-16T07:52:01Z</time>
      </trkpt>
      <trkpt lat="48.28599" lon="-1.92549">
        <ele>163.1</ele>
        <time>2019-07-16T07:52:02Z</time>
      </trkpt>
      <trkpt lat="48.28599" lon="-1.92542">
        <ele>162.9</ele>
        <time>2019-07-16T07:52:03Z</time>
      </trkpt>
      <trkpt lat="48.286" lon="-1.92535">
        <ele>162.5</ele>
        <time>2019-07-16T07:52:04Z</time>
      </trkpt>
      <trkpt lat="48.286" lon="-1.92528">
        <ele>162.4</ele>
        <time>2019-07-16T07:52:05Z</time>
      </trkpt>
      <trkpt lat="48.286" lon="-1.92521">
        <ele>162.2</ele>
        <time>2019-07-16T07:52:06Z</time>
      </trkpt>
      <trkpt lat="48.286" lon="-1.92515">
        <ele>162.1</ele>
        <time>2019-07-16T07:52:07Z</time>
      </trkpt>
      <trkpt lat="48.286" lon="-1.92508">
        <ele>162</ele>
        <time>2019-07-16T07:52:08Z</time>
      </trkpt>
      <trkpt lat="48.28601" lon="-1.92502">
        <ele>162</ele>
        <time>2019-07-16T07:52:09Z</time>
      </trkpt>
      <trkpt lat="48.28601" lon="-1.92495">
        <ele>161.9</ele>
        <time>2019-07-16T07:52:10Z</time>
      </trkpt>
      <trkpt lat="48.28601" lon="-1.92489">
        <ele>161.8</ele>
        <time>2019-07-16T07:52:11Z</time>
      </trkpt>
      <trkpt lat="48.28602" lon="-1.92482">
        <ele>161.6</ele>
        <time>2019-07-16T07:52:12Z</time>
      </trkpt>
      <trkpt lat="48.28602" lon="-1.92476">
        <ele>161.6</ele>
        <time>2019-07-16T07:52:13Z</time>
      </trkpt>
      <trkpt lat="48.28602" lon="-1.92469">
        <ele>161.6</ele>
        <time>2019-07-16T07:52:14Z</time>
      </trkpt>
      <trkpt lat="48.28602" lon="-1.92463">
        <ele>161.6</ele>
        <time>2019-07-16T07:52:15Z</time>
      </trkpt>
      <trkpt lat="48.28602" lon="-1.92457">
        <ele>161.6</ele>
        <time>2019-07-16T07:52:16Z</time>
      </trkpt>
      <trkpt lat="48.28602" lon="-1.92451">
        <ele>161.6</ele>
        <time>2019-07-16T07:52:17Z</time>
      </trkpt>
      <trkpt lat="48.28602" lon="-1.92444">
        <ele>161.6</ele>
        <time>2019-07-16T07:52:18Z</time>
      </trkpt>
      <trkpt lat="48.28601" lon="-1.92438">
        <ele>161.4</ele>
        <time>2019-07-16T07:52:19Z</time>
      </trkpt>
      <trkpt lat="48.28601" lon="-1.92432">
        <ele>161.2</ele>
        <time>2019-07-16T07:52:20Z</time>
      </trkpt>
      <trkpt lat="48.28601" lon="-1.92426">
        <ele>161.1</ele>
        <time>2019-07-16T07:52:21Z</time>
      </trkpt>
      <trkpt lat="48.286" lon="-1.9242">
        <ele>160.3</ele>
        <time>2019-07-16T07:52:22Z</time>
      </trkpt>
      <trkpt lat="48.286" lon="-1.92413">
        <ele>160.1</ele>
        <time>2019-07-16T07:52:23Z</time>
      </trkpt>
      <trkpt lat="48.286" lon="-1.92406">
        <ele>160.1</ele>
        <time>2019-07-16T07:52:24Z</time>
      </trkpt>
      <trkpt lat="48.286" lon="-1.92399">
        <ele>160.1</ele>
        <time>2019-07-16T07:52:25Z</time>
      </trkpt>
      <trkpt lat="48.286" lon="-1.92392">
        <ele>160.3</ele>
        <time>2019-07-16T07:52:26Z</time>
      </trkpt>
      <trkpt lat="48.286" lon="-1.92385">
        <ele>160.4</ele>
        <time>2019-07-16T07:52:27Z</time>
      </trkpt>
      <trkpt lat="48.286" lon="-1.92378">
        <ele>160.8</ele>
        <time>2019-07-16T07:52:28Z</time>
      </trkpt>
      <trkpt lat="48.286" lon="-1.92371">
        <ele>161.1</ele>
        <time>2019-07-16T07:52:29Z</time>
      </trkpt>
      <trkpt lat="48.286" lon="-1.92365">
        <ele>161.2</ele>
        <time>2019-07-16T07:52:30Z</time>
      </trkpt>
      <trkpt lat="48.286" lon="-1.92357">
        <ele>161.4</ele>
        <time>2019-07-16T07:52:31Z</time>
      </trkpt>
      <trkpt lat="48.28601" lon="-1.9235">
        <ele>161.4</ele>
        <time>2019-07-16T07:52:32Z</time>
      </trkpt>
      <trkpt lat="48.28601" lon="-1.92342">
        <ele>161.6</ele>
        <time>2019-07-16T07:52:33Z</time>
      </trkpt>
      <trkpt lat="48.28601" lon="-1.92334">
        <ele>161.5</ele>
        <time>2019-07-16T07:52:34Z</time>
      </trkpt>
      <trkpt lat="48.28601" lon="-1.92326">
        <ele>161.7</ele>
        <time>2019-07-16T07:52:35Z</time>
      </trkpt>
      <trkpt lat="48.28601" lon="-1.92319">
        <ele>161.7</ele>
        <time>2019-07-16T07:52:36Z</time>
      </trkpt>
      <trkpt lat="48.28601" lon="-1.9231">
        <ele>161.7</ele>
        <time>2019-07-16T07:52:37Z</time>
      </trkpt>
      <trkpt lat="48.28601" lon="-1.92302">
        <ele>161.6</ele>
        <time>2019-07-16T07:52:38Z</time>
      </trkpt>
      <trkpt lat="48.28601" lon="-1.92294">
        <ele>161.3</ele>
        <time>2019-07-16T07:52:39Z</time>
      </trkpt>
      <trkpt lat="48.286" lon="-1.92285">
        <ele>160.9</ele>
        <time>2019-07-16T07:52:40Z</time>
      </trkpt>
      <trkpt lat="48.286" lon="-1.92277">
        <ele>160.7</ele>
        <time>2019-07-16T07:52:41Z</time>
      </trkpt>
      <trkpt lat="48.286" lon="-1.92268">
        <ele>160.6</ele>
        <time>2019-07-16T07:52:42Z</time>
      </trkpt>
      <trkpt lat="48.28599" lon="-1.9226">
        <ele>160.6</ele>
        <time>2019-07-16T07:52:43Z</time>
      </trkpt>
      <trkpt lat="48.28599" lon="-1.92251">
        <ele>160.5</ele>
        <time>2019-07-16T07:52:44Z</time>
      </trkpt>
      <trkpt lat="48.28598" lon="-1.92243">
        <ele>160.4</ele>
        <time>2019-07-16T07:52:45Z</time>
      </trkpt>
      <trkpt lat="48.28597" lon="-1.92234">
        <ele>160.2</ele>
        <time>2019-07-16T07:52:46Z</time>
      </trkpt>
      <trkpt lat="48.28595" lon="-1.92225">
        <ele>160.1</ele>
        <time>2019-07-16T07:52:47Z</time>
      </trkpt>
      <trkpt lat="48.28593" lon="-1.92217">
        <ele>159.9</ele>
        <time>2019-07-16T07:52:48Z</time>
      </trkpt>
      <trkpt lat="48.28592" lon="-1.92208">
        <ele>160</ele>
        <time>2019-07-16T07:52:49Z</time>
      </trkpt>
      <trkpt lat="48.28589" lon="-1.922">
        <ele>159.8</ele>
        <time>2019-07-16T07:52:50Z</time>
      </trkpt>
      <trkpt lat="48.28587" lon="-1.92191">
        <ele>159.6</ele>
        <time>2019-07-16T07:52:51Z</time>
      </trkpt>
      <trkpt lat="48.28584" lon="-1.92183">
        <ele>159.2</ele>
        <time>2019-07-16T07:52:52Z</time>
      </trkpt>
      <trkpt lat="48.28581" lon="-1.92175">
        <ele>159</ele>
        <time>2019-07-16T07:52:53Z</time>
      </trkpt>
      <trkpt lat="48.28578" lon="-1.92168">
        <ele>158.8</ele>
        <time>2019-07-16T07:52:54Z</time>
      </trkpt>
      <trkpt lat="48.28575" lon="-1.9216">
        <ele>158.7</ele>
        <time>2019-07-16T07:52:55Z</time>
      </trkpt>
      <trkpt lat="48.28573" lon="-1.92153">
        <ele>158.7</ele>
        <time>2019-07-16T07:52:56Z</time>
      </trkpt>
      <trkpt lat="48.2857" lon="-1.92146">
        <ele>158.9</ele>
        <time>2019-07-16T07:52:57Z</time>
      </trkpt>
      <trkpt lat="48.28567" lon="-1.92139">
        <ele>159</ele>
        <time>2019-07-16T07:52:58Z</time>
      </trkpt>
      <trkpt lat="48.28565" lon="-1.92131">
        <ele>158.9</ele>
        <time>2019-07-16T07:52:59Z</time>
      </trkpt>
      <trkpt lat="48.28562" lon="-1.92125">
        <ele>158.9</ele>
        <time>2019-07-16T07:53:00Z</time>
      </trkpt>
      <trkpt lat="48.28559" lon="-1.92118">
        <ele>158.7</ele>
        <time>2019-07-16T07:53:01Z</time>
      </trkpt>
      <trkpt lat="48.28557" lon="-1.92112">
        <ele>158.6</ele>
        <time>2019-07-16T07:53:02Z</time>
      </trkpt>
      <trkpt lat="48.28555" lon="-1.92104">
        <ele>158.3</ele>
        <time>2019-07-16T07:53:03Z</time>
      </trkpt>
      <trkpt lat="48.28553" lon="-1.92097">
        <ele>158.1</ele>
        <time>2019-07-16T07:53:04Z</time>
      </trkpt>
      <trkpt lat="48.28552" lon="-1.9209">
        <ele>158</ele>
        <time>2019-07-16T07:53:05Z</time>
      </trkpt>
      <trkpt lat="48.28551" lon="-1.92083">
        <ele>157.7</ele>
        <time>2019-07-16T07:53:06Z</time>
      </trkpt>
      <trkpt lat="48.2855" lon="-1.92075">
        <ele>157.6</ele>
        <time>2019-07-16T07:53:07Z</time>
      </trkpt>
      <trkpt lat="48.2855" lon="-1.92068">
        <ele>157.1</ele>
        <time>2019-07-16T07:53:08Z</time>
      </trkpt>
      <trkpt lat="48.28549" lon="-1.9206">
        <ele>156.8</ele>
        <time>2019-07-16T07:53:09Z</time>
      </trkpt>
      <trkpt lat="48.28549" lon="-1.92052">
        <ele>156.8</ele>
        <time>2019-07-16T07:53:10Z</time>
      </trkpt>
      <trkpt lat="48.28548" lon="-1.92044">
        <ele>156.8</ele>
        <time>2019-07-16T07:53:11Z</time>
      </trkpt>
      <trkpt lat="48.28548" lon="-1.92036">
        <ele>156.7</ele>
        <time>2019-07-16T07:53:12Z</time>
      </trkpt>
      <trkpt lat="48.28548" lon="-1.92028">
        <ele>156.2</ele>
        <time>2019-07-16T07:53:13Z</time>
      </trkpt>
      <trkpt lat="48.28548" lon="-1.9202">
        <ele>156</ele>
        <time>2019-07-16T07:53:14Z</time>
      </trkpt>
      <trkpt lat="48.28548" lon="-1.92011">
        <ele>155.5</ele>
        <time>2019-07-16T07:53:15Z</time>
      </trkpt>
      <trkpt lat="48.28548" lon="-1.92003">
        <ele>155.1</ele>
        <time>2019-07-16T07:53:16Z</time>
      </trkpt>
      <trkpt lat="48.28548" lon="-1.91994">
        <ele>154.7</ele>
        <time>2019-07-16T07:53:17Z</time>
      </trkpt>
      <trkpt lat="48.28548" lon="-1.91985">
        <ele>154.3</ele>
        <time>2019-07-16T07:53:18Z</time>
      </trkpt>
      <trkpt lat="48.28548" lon="-1.91976">
        <ele>154.1</ele>
        <time>2019-07-16T07:53:19Z</time>
      </trkpt>
      <trkpt lat="48.28548" lon="-1.91967">
        <ele>153.8</ele>
        <time>2019-07-16T07:53:20Z</time>
      </trkpt>
      <trkpt lat="48.28547" lon="-1.91957">
        <ele>153.5</ele>
        <time>2019-07-16T07:53:21Z</time>
      </trkpt>
      <trkpt lat="48.28547" lon="-1.91948">
        <ele>153.6</ele>
        <time>2019-07-16T07:53:22Z</time>
      </trkpt>
      <trkpt lat="48.28548" lon="-1.91938">
        <ele>153.5</ele>
        <time>2019-07-16T07:53:23Z</time>
      </trkpt>
      <trkpt lat="48.28547" lon="-1.91929">
        <ele>153.6</ele>
        <time>2019-07-16T07:53:24Z</time>
      </trkpt>
      <trkpt lat="48.28547" lon="-1.91919">
        <ele>153.6</ele>
        <time>2019-07-16T07:53:25Z</time>
      </trkpt>
      <trkpt lat="48.28547" lon="-1.91909">
        <ele>153.5</ele>
        <time>2019-07-16T07:53:26Z</time>
      </trkpt>
      <trkpt lat="48.28548" lon="-1.919">
        <ele>153.5</ele>
        <time>2019-07-16T07:53:27Z</time>
      </trkpt>
      <trkpt lat="48.28548" lon="-1.9189">
        <ele>153.6</ele>
        <time>2019-07-16T07:53:28Z</time>
      </trkpt>
      <trkpt lat="48.28548" lon="-1.9188">
        <ele>153.6</ele>
        <time>2019-07-16T07:53:29Z</time>
      </trkpt>
      <trkpt lat="48.28547" lon="-1.91871">
        <ele>153.3</ele>
        <time>2019-07-16T07:53:30Z</time>
      </trkpt>
      <trkpt lat="48.28547" lon="-1.91861">
        <ele>152.8</ele>
        <time>2019-07-16T07:53:31Z</time>
      </trkpt>
      <trkpt lat="48.28547" lon="-1.91851">
        <ele>152.6</ele>
        <time>2019-07-16T07:53:32Z</time>
      </trkpt>
      <trkpt lat="48.28547" lon="-1.91841">
        <ele>152.4</ele>
        <time>2019-07-16T07:53:33Z</time>
      </trkpt>
      <trkpt lat="48.28547" lon="-1.91831">
        <ele>152.3</ele>
        <time>2019-07-16T07:53:34Z</time>
      </trkpt>
      <trkpt lat="48.28547" lon="-1.91821">
        <ele>152.6</ele>
        <time>2019-07-16T07:53:35Z</time>
      </trkpt>
      <trkpt lat="48.28546" lon="-1.91812">
        <ele>152.6</ele>
        <time>2019-07-16T07:53:36Z</time>
      </trkpt>
      <trkpt lat="48.28546" lon="-1.91802">
        <ele>152.5</ele>
        <time>2019-07-16T07:53:37Z</time>
      </trkpt>
      <trkpt lat="48.28546" lon="-1.91792">
        <ele>152.3</ele>
        <time>2019-07-16T07:53:38Z</time>
      </trkpt>
      <trkpt lat="48.28547" lon="-1.91783">
        <ele>152.6</ele>
        <time>2019-07-16T07:53:39Z</time>
      </trkpt>
      <trkpt lat="48.28547" lon="-1.91773">
        <ele>152.5</ele>
        <time>2019-07-16T07:53:40Z</time>
      </trkpt>
      <trkpt lat="48.28546" lon="-1.91764">
        <ele>152.4</ele>
        <time>2019-07-16T07:53:41Z</time>
      </trkpt>
      <trkpt lat="48.28546" lon="-1.91754">
        <ele>152.5</ele>
        <time>2019-07-16T07:53:42Z</time>
      </trkpt>
      <trkpt lat="48.28547" lon="-1.91745">
        <ele>152.1</ele>
        <time>2019-07-16T07:53:43Z</time>
      </trkpt>
      <trkpt lat="48.28547" lon="-1.91735">
        <ele>151.8</ele>
        <time>2019-07-16T07:53:44Z</time>
      </trkpt>
      <trkpt lat="48.28546" lon="-1.91725">
        <ele>152</ele>
        <time>2019-07-16T07:53:45Z</time>
      </trkpt>
      <trkpt lat="48.28547" lon="-1.91716">
        <ele>151.7</ele>
        <time>2019-07-16T07:53:46Z</time>
      </trkpt>
      <trkpt lat="48.28547" lon="-1.91706">
        <ele>151.5</ele>
        <time>2019-07-16T07:53:47Z</time>
      </trkpt>
      <trkpt lat="48.28547" lon="-1.91696">
        <ele>151.5</ele>
        <time>2019-07-16T07:53:48Z</time>
      </trkpt>
      <trkpt lat="48.28547" lon="-1.91687">
        <ele>151.2</ele>
        <time>2019-07-16T07:53:49Z</time>
      </trkpt>
      <trkpt lat="48.28547" lon="-1.91677">
        <ele>150.9</ele>
        <time>2019-07-16T07:53:50Z</time>
      </trkpt>
      <trkpt lat="48.28547" lon="-1.91667">
        <ele>150.9</ele>
        <time>2019-07-16T07:53:51Z</time>
      </trkpt>
      <trkpt lat="48.28546" lon="-1.91657">
        <ele>151.2</ele>
        <time>2019-07-16T07:53:52Z</time>
      </trkpt>
      <trkpt lat="48.28546" lon="-1.91648">
        <ele>151.1</ele>
        <time>2019-07-16T07:53:53Z</time>
      </trkpt>
      <trkpt lat="48.28547" lon="-1.91638">
        <ele>150.8</ele>
        <time>2019-07-16T07:53:54Z</time>
      </trkpt>
      <trkpt lat="48.28547" lon="-1.91629">
        <ele>150.6</ele>
        <time>2019-07-16T07:53:55Z</time>
      </trkpt>
      <trkpt lat="48.28547" lon="-1.91619">
        <ele>150.8</ele>
        <time>2019-07-16T07:53:56Z</time>
      </trkpt>
      <trkpt lat="48.28546" lon="-1.9161">
        <ele>151.2</ele>
        <time>2019-07-16T07:53:57Z</time>
      </trkpt>
      <trkpt lat="48.28546" lon="-1.916">
        <ele>151.2</ele>
        <time>2019-07-16T07:53:58Z</time>
      </trkpt>
      <trkpt lat="48.28545" lon="-1.91591">
        <ele>151.5</ele>
        <time>2019-07-16T07:53:59Z</time>
      </trkpt>
      <trkpt lat="48.28545" lon="-1.91582">
        <ele>151.6</ele>
        <time>2019-07-16T07:54:00Z</time>
      </trkpt>
      <trkpt lat="48.28545" lon="-1.91572">
        <ele>151.7</ele>
        <time>2019-07-16T07:54:01Z</time>
      </trkpt>
      <trkpt lat="48.28545" lon="-1.91563">
        <ele>151.5</ele>
        <time>2019-07-16T07:54:02Z</time>
      </trkpt>
      <trkpt lat="48.28545" lon="-1.91554">
        <ele>151.3</ele>
        <time>2019-07-16T07:54:03Z</time>
      </trkpt>
      <trkpt lat="48.28545" lon="-1.91545">
        <ele>151.5</ele>
        <time>2019-07-16T07:54:04Z</time>
      </trkpt>
      <trkpt lat="48.28545" lon="-1.91536">
        <ele>151.6</ele>
        <time>2019-07-16T07:54:05Z</time>
      </trkpt>
      <trkpt lat="48.28545" lon="-1.91528">
        <ele>151.7</ele>
        <time>2019-07-16T07:54:06Z</time>
      </trkpt>
      <trkpt lat="48.28545" lon="-1.91519">
        <ele>151.7</ele>
        <time>2019-07-16T07:54:07Z</time>
      </trkpt>
      <trkpt lat="48.28545" lon="-1.91511">
        <ele>151.7</ele>
        <time>2019-07-16T07:54:08Z</time>
      </trkpt>
      <trkpt lat="48.28545" lon="-1.91502">
        <ele>151.5</ele>
        <time>2019-07-16T07:54:09Z</time>
      </trkpt>
      <trkpt lat="48.28545" lon="-1.91494">
        <ele>151.3</ele>
        <time>2019-07-16T07:54:10Z</time>
      </trkpt>
      <trkpt lat="48.28545" lon="-1.91486">
        <ele>150.9</ele>
        <time>2019-07-16T07:54:11Z</time>
      </trkpt>
      <trkpt lat="48.28546" lon="-1.91478">
        <ele>150.3</ele>
        <time>2019-07-16T07:54:12Z</time>
      </trkpt>
      <trkpt lat="48.28546" lon="-1.91469">
        <ele>150.1</ele>
        <time>2019-07-16T07:54:13Z</time>
      </trkpt>
      <trkpt lat="48.28546" lon="-1.91461">
        <ele>149.9</ele>
        <time>2019-07-16T07:54:14Z</time>
      </trkpt>
      <trkpt lat="48.28546" lon="-1.91453">
        <ele>149.5</ele>
        <time>2019-07-16T07:54:15Z</time>
      </trkpt>
      <trkpt lat="48.28546" lon="-1.91445">
        <ele>149.6</ele>
        <time>2019-07-16T07:54:16Z</time>
      </trkpt>
      <trkpt lat="48.28544" lon="-1.91436">
        <ele>150.7</ele>
        <time>2019-07-16T07:54:17Z</time>
      </trkpt>
      <trkpt lat="48.28543" lon="-1.91428">
        <ele>151.5</ele>
        <time>2019-07-16T07:54:18Z</time>
      </trkpt>
      <trkpt lat="48.28543" lon="-1.91421">
        <ele>151.9</ele>
        <time>2019-07-16T07:54:19Z</time>
      </trkpt>
      <trkpt lat="48.28542" lon="-1.91413">
        <ele>152</ele>
        <time>2019-07-16T07:54:20Z</time>
      </trkpt>
      <trkpt lat="48.28542" lon="-1.91406">
        <ele>152.3</ele>
        <time>2019-07-16T07:54:21Z</time>
      </trkpt>
      <trkpt lat="48.28542" lon="-1.91398">
        <ele>152.6</ele>
        <time>2019-07-16T07:54:22Z</time>
      </trkpt>
      <trkpt lat="48.28541" lon="-1.91391">
        <ele>153</ele>
        <time>2019-07-16T07:54:23Z</time>
      </trkpt>
      <trkpt lat="48.28541" lon="-1.91383">
        <ele>153.2</ele>
        <time>2019-07-16T07:54:24Z</time>
      </trkpt>
      <trkpt lat="48.2854" lon="-1.91376">
        <ele>153.4</ele>
        <time>2019-07-16T07:54:25Z</time>
      </trkpt>
      <trkpt lat="48.2854" lon="-1.91368">
        <ele>153.4</ele>
        <time>2019-07-16T07:54:26Z</time>
      </trkpt>
      <trkpt lat="48.2854" lon="-1.91361">
        <ele>153.4</ele>
        <time>2019-07-16T07:54:27Z</time>
      </trkpt>
      <trkpt lat="48.2854" lon="-1.91353">
        <ele>153.2</ele>
        <time>2019-07-16T07:54:28Z</time>
      </trkpt>
      <trkpt lat="48.2854" lon="-1.91346">
        <ele>152.9</ele>
        <time>2019-07-16T07:54:29Z</time>
      </trkpt>
      <trkpt lat="48.2854" lon="-1.91338">
        <ele>152.4</ele>
        <time>2019-07-16T07:54:30Z</time>
      </trkpt>
      <trkpt lat="48.28539" lon="-1.9133">
        <ele>152.1</ele>
        <time>2019-07-16T07:54:31Z</time>
      </trkpt>
      <trkpt lat="48.28539" lon="-1.91323">
        <ele>151.9</ele>
        <time>2019-07-16T07:54:32Z</time>
      </trkpt>
      <trkpt lat="48.28539" lon="-1.91316">
        <ele>151.9</ele>
        <time>2019-07-16T07:54:33Z</time>
      </trkpt>
      <trkpt lat="48.28538" lon="-1.91308">
        <ele>152.1</ele>
        <time>2019-07-16T07:54:34Z</time>
      </trkpt>
      <trkpt lat="48.28537" lon="-1.91301">
        <ele>152</ele>
        <time>2019-07-16T07:54:35Z</time>
      </trkpt>
      <trkpt lat="48.28537" lon="-1.91293">
        <ele>151.8</ele>
        <time>2019-07-16T07:54:36Z</time>
      </trkpt>
      <trkpt lat="48.28537" lon="-1.91285">
        <ele>151.6</ele>
        <time>2019-07-16T07:54:37Z</time>
      </trkpt>
      <trkpt lat="48.28536" lon="-1.91277">
        <ele>151.6</ele>
        <time>2019-07-16T07:54:38Z</time>
      </trkpt>
      <trkpt lat="48.28536" lon="-1.91269">
        <ele>151.4</ele>
        <time>2019-07-16T07:54:39Z</time>
      </trkpt>
      <trkpt lat="48.28536" lon="-1.91261">
        <ele>151.4</ele>
        <time>2019-07-16T07:54:40Z</time>
      </trkpt>
      <trkpt lat="48.28535" lon="-1.91254">
        <ele>151.3</ele>
        <time>2019-07-16T07:54:41Z</time>
      </trkpt>
      <trkpt lat="48.28535" lon="-1.91246">
        <ele>151.2</ele>
        <time>2019-07-16T07:54:42Z</time>
      </trkpt>
      <trkpt lat="48.28534" lon="-1.91238">
        <ele>151.1</ele>
        <time>2019-07-16T07:54:43Z</time>
      </trkpt>
      <trkpt lat="48.28534" lon="-1.91231">
        <ele>151.1</ele>
        <time>2019-07-16T07:54:44Z</time>
      </trkpt>
      <trkpt lat="48.28533" lon="-1.91223">
        <ele>151.4</ele>
        <time>2019-07-16T07:54:45Z</time>
      </trkpt>
      <trkpt lat="48.28532" lon="-1.91216">
        <ele>151.7</ele>
        <time>2019-07-16T07:54:46Z</time>
      </trkpt>
      <trkpt lat="48.28532" lon="-1.91209">
        <ele>151.6</ele>
        <time>2019-07-16T07:54:47Z</time>
      </trkpt>
      <trkpt lat="48.28531" lon="-1.91202">
        <ele>151.4</ele>
        <time>2019-07-16T07:54:48Z</time>
      </trkpt>
      <trkpt lat="48.28531" lon="-1.91195">
        <ele>151.3</ele>
        <time>2019-07-16T07:54:49Z</time>
      </trkpt>
      <trkpt lat="48.2853" lon="-1.91187">
        <ele>151.1</ele>
        <time>2019-07-16T07:54:50Z</time>
      </trkpt>
      <trkpt lat="48.28529" lon="-1.9118">
        <ele>150.9</ele>
        <time>2019-07-16T07:54:51Z</time>
      </trkpt>
      <trkpt lat="48.28529" lon="-1.91172">
        <ele>150.9</ele>
        <time>2019-07-16T07:54:52Z</time>
      </trkpt>
      <trkpt lat="48.28528" lon="-1.91164">
        <ele>150.8</ele>
        <time>2019-07-16T07:54:53Z</time>
      </trkpt>
      <trkpt lat="48.28527" lon="-1.91156">
        <ele>150.6</ele>
        <time>2019-07-16T07:54:54Z</time>
      </trkpt>
      <trkpt lat="48.28526" lon="-1.91149">
        <ele>150.6</ele>
        <time>2019-07-16T07:54:55Z</time>
      </trkpt>
      <trkpt lat="48.28525" lon="-1.91141">
        <ele>150.4</ele>
        <time>2019-07-16T07:54:56Z</time>
      </trkpt>
      <trkpt lat="48.28524" lon="-1.91133">
        <ele>150.2</ele>
        <time>2019-07-16T07:54:57Z</time>
      </trkpt>
      <trkpt lat="48.28523" lon="-1.91125">
        <ele>150.2</ele>
        <time>2019-07-16T07:54:58Z</time>
      </trkpt>
      <trkpt lat="48.28521" lon="-1.91117">
        <ele>149.9</ele>
        <time>2019-07-16T07:54:59Z</time>
      </trkpt>
      <trkpt lat="48.2852" lon="-1.91108">
        <ele>150</ele>
        <time>2019-07-16T07:55:00Z</time>
      </trkpt>
      <trkpt lat="48.28519" lon="-1.911">
        <ele>149.7</ele>
        <time>2019-07-16T07:55:01Z</time>
      </trkpt>
      <trkpt lat="48.28517" lon="-1.91092">
        <ele>149.4</ele>
        <time>2019-07-16T07:55:02Z</time>
      </trkpt>
      <trkpt lat="48.28515" lon="-1.91084">
        <ele>149.4</ele>
        <time>2019-07-16T07:55:03Z</time>
      </trkpt>
      <trkpt lat="48.28514" lon="-1.91076">
        <ele>149.1</ele>
        <time>2019-07-16T07:55:04Z</time>
      </trkpt>
      <trkpt lat="48.28513" lon="-1.91067">
        <ele>149.1</ele>
        <time>2019-07-16T07:55:05Z</time>
      </trkpt>
      <trkpt lat="48.28511" lon="-1.91059">
        <ele>149</ele>
        <time>2019-07-16T07:55:06Z</time>
      </trkpt>
      <trkpt lat="48.2851" lon="-1.91051">
        <ele>148.9</ele>
        <time>2019-07-16T07:55:07Z</time>
      </trkpt>
      <trkpt lat="48.28509" lon="-1.91042">
        <ele>148.7</ele>
        <time>2019-07-16T07:55:08Z</time>
      </trkpt>
      <trkpt lat="48.28508" lon="-1.91034">
        <ele>148.8</ele>
        <time>2019-07-16T07:55:09Z</time>
      </trkpt>
      <trkpt lat="48.28507" lon="-1.91026">
        <ele>148.9</ele>
        <time>2019-07-16T07:55:10Z</time>
      </trkpt>
      <trkpt lat="48.28505" lon="-1.91017">
        <ele>148.7</ele>
        <time>2019-07-16T07:55:11Z</time>
      </trkpt>
      <trkpt lat="48.28504" lon="-1.9101">
        <ele>148.8</ele>
        <time>2019-07-16T07:55:12Z</time>
      </trkpt>
      <trkpt lat="48.28503" lon="-1.91002">
        <ele>149.1</ele>
        <time>2019-07-16T07:55:13Z</time>
      </trkpt>
      <trkpt lat="48.28501" lon="-1.90994">
        <ele>149.2</ele>
        <time>2019-07-16T07:55:14Z</time>
      </trkpt>
      <trkpt lat="48.285" lon="-1.90986">
        <ele>149.3</ele>
        <time>2019-07-16T07:55:15Z</time>
      </trkpt>
      <trkpt lat="48.28498" lon="-1.90978">
        <ele>149.2</ele>
        <time>2019-07-16T07:55:16Z</time>
      </trkpt>
      <trkpt lat="48.28497" lon="-1.90971">
        <ele>148.9</ele>
        <time>2019-07-16T07:55:17Z</time>
      </trkpt>
      <trkpt lat="48.28496" lon="-1.90965">
        <ele>149</ele>
        <time>2019-07-16T07:55:18Z</time>
      </trkpt>
      <trkpt lat="48.28495" lon="-1.9096">
        <ele>148.9</ele>
        <time>2019-07-16T07:55:19Z</time>
      </trkpt>
      <trkpt lat="48.28495" lon="-1.90955">
        <ele>148.8</ele>
        <time>2019-07-16T07:55:20Z</time>
      </trkpt>
      <trkpt lat="48.28494" lon="-1.90951">
        <ele>148.7</ele>
        <time>2019-07-16T07:55:21Z</time>
      </trkpt>
      <trkpt lat="48.28493" lon="-1.90949">
        <ele>148.4</ele>
        <time>2019-07-16T07:55:22Z</time>
      </trkpt>
      <trkpt lat="48.2849" lon="-1.90938">
        <ele>148.5</ele>
        <time>2019-07-16T07:57:44Z</time>
      </trkpt>
      <trkpt lat="48.2849" lon="-1.90935">
        <ele>148.6</ele>
        <time>2019-07-16T07:57:45Z</time>
      </trkpt>
      <trkpt lat="48.2849" lon="-1.90932">
        <ele>148.7</ele>
        <time>2019-07-16T07:57:46Z</time>
      </trkpt>
      <trkpt lat="48.2849" lon="-1.90929">
        <ele>148.7</ele>
        <time>2019-07-16T07:57:47Z</time>
      </trkpt>
      <trkpt lat="48.2849" lon="-1.90926">
        <ele>148.7</ele>
        <time>2019-07-16T07:57:48Z</time>
      </trkpt>
      <trkpt lat="48.2849" lon="-1.90922">
        <ele>148.7</ele>
        <time>2019-07-16T07:57:49Z</time>
      </trkpt>
      <trkpt lat="48.28489" lon="-1.90919">
        <ele>148.7</ele>
        <time>2019-07-16T07:57:50Z</time>
      </trkpt>
      <trkpt lat="48.28489" lon="-1.90916">
        <ele>148.7</ele>
        <time>2019-07-16T07:57:51Z</time>
      </trkpt>
      <trkpt lat="48.28489" lon="-1.90912">
        <ele>148.5</ele>
        <time>2019-07-16T07:57:52Z</time>
      </trkpt>
      <trkpt lat="48.28488" lon="-1.90909">
        <ele>148.4</ele>
        <time>2019-07-16T07:57:53Z</time>
      </trkpt>
      <trkpt lat="48.28488" lon="-1.90905">
        <ele>148.3</ele>
        <time>2019-07-16T07:57:54Z</time>
      </trkpt>
      <trkpt lat="48.28487" lon="-1.90901">
        <ele>148.2</ele>
        <time>2019-07-16T07:57:55Z</time>
      </trkpt>
      <trkpt lat="48.28487" lon="-1.90897">
        <ele>148.1</ele>
        <time>2019-07-16T07:57:56Z</time>
      </trkpt>
      <trkpt lat="48.28487" lon="-1.90893">
        <ele>148.1</ele>
        <time>2019-07-16T07:57:57Z</time>
      </trkpt>
      <trkpt lat="48.28487" lon="-1.90889">
        <ele>147.9</ele>
        <time>2019-07-16T07:57:58Z</time>
      </trkpt>
      <trkpt lat="48.28487" lon="-1.90885">
        <ele>148.2</ele>
        <time>2019-07-16T07:57:59Z</time>
      </trkpt>
      <trkpt lat="48.28487" lon="-1.90881">
        <ele>148.2</ele>
        <time>2019-07-16T07:58:00Z</time>
      </trkpt>
      <trkpt lat="48.28487" lon="-1.90876">
        <ele>148.5</ele>
        <time>2019-07-16T07:58:01Z</time>
      </trkpt>
      <trkpt lat="48.28486" lon="-1.90872">
        <ele>148.5</ele>
        <time>2019-07-16T07:58:02Z</time>
      </trkpt>
      <trkpt lat="48.28486" lon="-1.90868">
        <ele>148.7</ele>
        <time>2019-07-16T07:58:03Z</time>
      </trkpt>
      <trkpt lat="48.28486" lon="-1.90863">
        <ele>148.9</ele>
        <time>2019-07-16T07:58:04Z</time>
      </trkpt>
      <trkpt lat="48.28485" lon="-1.90859">
        <ele>149.1</ele>
        <time>2019-07-16T07:58:05Z</time>
      </trkpt>
      <trkpt lat="48.28485" lon="-1.90854">
        <ele>149.2</ele>
        <time>2019-07-16T07:58:06Z</time>
      </trkpt>
      <trkpt lat="48.28484" lon="-1.9085">
        <ele>149.3</ele>
        <time>2019-07-16T07:58:07Z</time>
      </trkpt>
      <trkpt lat="48.28484" lon="-1.90845">
        <ele>149.4</ele>
        <time>2019-07-16T07:58:08Z</time>
      </trkpt>
      <trkpt lat="48.28484" lon="-1.9084">
        <ele>149.3</ele>
        <time>2019-07-16T07:58:09Z</time>
      </trkpt>
      <trkpt lat="48.28483" lon="-1.90836">
        <ele>149.2</ele>
        <time>2019-07-16T07:58:10Z</time>
      </trkpt>
      <trkpt lat="48.28483" lon="-1.90831">
        <ele>149.3</ele>
        <time>2019-07-16T07:58:11Z</time>
      </trkpt>
      <trkpt lat="48.28483" lon="-1.90827">
        <ele>149.4</ele>
        <time>2019-07-16T07:58:12Z</time>
      </trkpt>
      <trkpt lat="48.28482" lon="-1.90822">
        <ele>149.4</ele>
        <time>2019-07-16T07:58:13Z</time>
      </trkpt>
      <trkpt lat="48.28482" lon="-1.90817">
        <ele>149</ele>
        <time>2019-07-16T07:58:14Z</time>
      </trkpt>
      <trkpt lat="48.28482" lon="-1.90811">
        <ele>148.7</ele>
        <time>2019-07-16T07:58:15Z</time>
      </trkpt>
      <trkpt lat="48.28481" lon="-1.90806">
        <ele>148.5</ele>
        <time>2019-07-16T07:58:16Z</time>
      </trkpt>
      <trkpt lat="48.28481" lon="-1.908">
        <ele>148.1</ele>
        <time>2019-07-16T07:58:17Z</time>
      </trkpt>
      <trkpt lat="48.28481" lon="-1.90795">
        <ele>147.8</ele>
        <time>2019-07-16T07:58:18Z</time>
      </trkpt>
      <trkpt lat="48.2848" lon="-1.90789">
        <ele>147.4</ele>
        <time>2019-07-16T07:58:19Z</time>
      </trkpt>
      <trkpt lat="48.2848" lon="-1.90783">
        <ele>147.2</ele>
        <time>2019-07-16T07:58:20Z</time>
      </trkpt>
      <trkpt lat="48.28479" lon="-1.90777">
        <ele>147</ele>
        <time>2019-07-16T07:58:21Z</time>
      </trkpt>
      <trkpt lat="48.28479" lon="-1.90771">
        <ele>146.8</ele>
        <time>2019-07-16T07:58:22Z</time>
      </trkpt>
      <trkpt lat="48.28479" lon="-1.90766">
        <ele>146.5</ele>
        <time>2019-07-16T07:58:23Z</time>
      </trkpt>
      <trkpt lat="48.28478" lon="-1.90762">
        <ele>146.4</ele>
        <time>2019-07-16T07:58:24Z</time>
      </trkpt>
      <trkpt lat="48.28478" lon="-1.90758">
        <ele>146.4</ele>
        <time>2019-07-16T07:58:25Z</time>
      </trkpt>
      <trkpt lat="48.28478" lon="-1.90755">
        <ele>146.6</ele>
        <time>2019-07-16T07:58:26Z</time>
      </trkpt>
      <trkpt lat="48.28477" lon="-1.90753">
        <ele>146.7</ele>
        <time>2019-07-16T07:58:27Z</time>
      </trkpt>
      <trkpt lat="48.28476" lon="-1.9075">
        <ele>147.1</ele>
        <time>2019-07-16T07:59:32Z</time>
      </trkpt>
      <trkpt lat="48.28476" lon="-1.90748">
        <ele>147.1</ele>
        <time>2019-07-16T07:59:33Z</time>
      </trkpt>
      <trkpt lat="48.28476" lon="-1.90745">
        <ele>147</ele>
        <time>2019-07-16T07:59:34Z</time>
      </trkpt>
      <trkpt lat="48.28476" lon="-1.90742">
        <ele>147</ele>
        <time>2019-07-16T07:59:35Z</time>
      </trkpt>
      <trkpt lat="48.28476" lon="-1.90738">
        <ele>146.7</ele>
        <time>2019-07-16T07:59:36Z</time>
      </trkpt>
      <trkpt lat="48.28476" lon="-1.90734">
        <ele>146.5</ele>
        <time>2019-07-16T07:59:37Z</time>
      </trkpt>
      <trkpt lat="48.28476" lon="-1.90729">
        <ele>146.3</ele>
        <time>2019-07-16T07:59:38Z</time>
      </trkpt>
      <trkpt lat="48.28475" lon="-1.90724">
        <ele>146.2</ele>
        <time>2019-07-16T07:59:39Z</time>
      </trkpt>
      <trkpt lat="48.28475" lon="-1.90718">
        <ele>146.2</ele>
        <time>2019-07-16T07:59:40Z</time>
      </trkpt>
      <trkpt lat="48.28475" lon="-1.90712">
        <ele>146.2</ele>
        <time>2019-07-16T07:59:41Z</time>
      </trkpt>
      <trkpt lat="48.28475" lon="-1.90706">
        <ele>146.3</ele>
        <time>2019-07-16T07:59:42Z</time>
      </trkpt>
      <trkpt lat="48.28474" lon="-1.90699">
        <ele>146.3</ele>
        <time>2019-07-16T07:59:43Z</time>
      </trkpt>
      <trkpt lat="48.28474" lon="-1.90692">
        <ele>146</ele>
        <time>2019-07-16T07:59:44Z</time>
      </trkpt>
      <trkpt lat="48.28474" lon="-1.90684">
        <ele>145.7</ele>
        <time>2019-07-16T07:59:45Z</time>
      </trkpt>
      <trkpt lat="48.28473" lon="-1.90677">
        <ele>145</ele>
        <time>2019-07-16T07:59:46Z</time>
      </trkpt>
      <trkpt lat="48.28473" lon="-1.90669">
        <ele>144.6</ele>
        <time>2019-07-16T07:59:47Z</time>
      </trkpt>
      <trkpt lat="48.28473" lon="-1.90662">
        <ele>144</ele>
        <time>2019-07-16T07:59:48Z</time>
      </trkpt>
      <trkpt lat="48.28473" lon="-1.90655">
        <ele>144</ele>
        <time>2019-07-16T07:59:49Z</time>
      </trkpt>
      <trkpt lat="48.28471" lon="-1.90648">
        <ele>143.8</ele>
        <time>2019-07-16T07:59:50Z</time>
      </trkpt>
      <trkpt lat="48.2847" lon="-1.90643">
        <ele>143.3</ele>
        <time>2019-07-16T07:59:51Z</time>
      </trkpt>
      <trkpt lat="48.28466" lon="-1.9064">
        <ele>143.3</ele>
        <time>2019-07-16T07:59:52Z</time>
      </trkpt>
      <trkpt lat="48.28462" lon="-1.90639">
        <ele>143</ele>
        <time>2019-07-16T07:59:53Z</time>
      </trkpt>
      <trkpt lat="48.28457" lon="-1.9064">
        <ele>142.6</ele>
        <time>2019-07-16T07:59:54Z</time>
      </trkpt>
      <trkpt lat="48.28453" lon="-1.90642">
        <ele>142.6</ele>
        <time>2019-07-16T07:59:55Z</time>
      </trkpt>
      <trkpt lat="48.28449" lon="-1.90645">
        <ele>142.3</ele>
        <time>2019-07-16T07:59:56Z</time>
      </trkpt>
      <trkpt lat="48.28445" lon="-1.90647">
        <ele>142</ele>
        <time>2019-07-16T07:59:57Z</time>
      </trkpt>
      <trkpt lat="48.28441" lon="-1.90649">
        <ele>141.7</ele>
        <time>2019-07-16T07:59:58Z</time>
      </trkpt>
      <trkpt lat="48.28437" lon="-1.90652">
        <ele>141.8</ele>
        <time>2019-07-16T07:59:59Z</time>
      </trkpt>
      <trkpt lat="48.28433" lon="-1.90654">
        <ele>141.6</ele>
        <time>2019-07-16T08:00:00Z</time>
      </trkpt>
      <trkpt lat="48.28429" lon="-1.90657">
        <ele>141.6</ele>
        <time>2019-07-16T08:00:01Z</time>
      </trkpt>
      <trkpt lat="48.28425" lon="-1.90659">
        <ele>141.7</ele>
        <time>2019-07-16T08:00:02Z</time>
      </trkpt>
      <trkpt lat="48.2842" lon="-1.90662">
        <ele>141.7</ele>
        <time>2019-07-16T08:00:03Z</time>
      </trkpt>
      <trkpt lat="48.28416" lon="-1.90665">
        <ele>141.5</ele>
        <time>2019-07-16T08:00:04Z</time>
      </trkpt>
      <trkpt lat="48.28412" lon="-1.90668">
        <ele>141.2</ele>
        <time>2019-07-16T08:00:05Z</time>
      </trkpt>
      <trkpt lat="48.28408" lon="-1.90672">
        <ele>141.3</ele>
        <time>2019-07-16T08:00:06Z</time>
      </trkpt>
      <trkpt lat="48.28404" lon="-1.90675">
        <ele>141.4</ele>
        <time>2019-07-16T08:00:07Z</time>
      </trkpt>
      <trkpt lat="48.284" lon="-1.9068">
        <ele>141.7</ele>
        <time>2019-07-16T08:00:08Z</time>
      </trkpt>
      <trkpt lat="48.28397" lon="-1.90684">
        <ele>141.8</ele>
        <time>2019-07-16T08:00:09Z</time>
      </trkpt>
      <trkpt lat="48.28393" lon="-1.90688">
        <ele>141.9</ele>
        <time>2019-07-16T08:00:10Z</time>
      </trkpt>
      <trkpt lat="48.2839" lon="-1.90694">
        <ele>141.9</ele>
        <time>2019-07-16T08:00:11Z</time>
      </trkpt>
      <trkpt lat="48.28387" lon="-1.90699">
        <ele>141.9</ele>
        <time>2019-07-16T08:00:12Z</time>
      </trkpt>
      <trkpt lat="48.28383" lon="-1.90705">
        <ele>141.9</ele>
        <time>2019-07-16T08:00:13Z</time>
      </trkpt>
      <trkpt lat="48.2838" lon="-1.9071">
        <ele>141.8</ele>
        <time>2019-07-16T08:00:14Z</time>
      </trkpt>
      <trkpt lat="48.28377" lon="-1.90717">
        <ele>141.8</ele>
        <time>2019-07-16T08:00:15Z</time>
      </trkpt>
      <trkpt lat="48.28375" lon="-1.90722">
        <ele>141.8</ele>
        <time>2019-07-16T08:00:16Z</time>
      </trkpt>
      <trkpt lat="48.28372" lon="-1.90728">
        <ele>141.7</ele>
        <time>2019-07-16T08:00:17Z</time>
      </trkpt>
      <trkpt lat="48.28371" lon="-1.90735">
        <ele>141.6</ele>
        <time>2019-07-16T08:00:18Z</time>
      </trkpt>
      <trkpt lat="48.28369" lon="-1.90742">
        <ele>141.6</ele>
        <time>2019-07-16T08:00:19Z</time>
      </trkpt>
      <trkpt lat="48.28366" lon="-1.90747">
        <ele>141.5</ele>
        <time>2019-07-16T08:00:20Z</time>
      </trkpt>
      <trkpt lat="48.28363" lon="-1.90753">
        <ele>141.6</ele>
        <time>2019-07-16T08:00:21Z</time>
      </trkpt>
      <trkpt lat="48.28361" lon="-1.90759">
        <ele>141.2</ele>
        <time>2019-07-16T08:00:22Z</time>
      </trkpt>
      <trkpt lat="48.28359" lon="-1.90764">
        <ele>140.6</ele>
        <time>2019-07-16T08:00:23Z</time>
      </trkpt>
      <trkpt lat="48.28356" lon="-1.90769">
        <ele>140.3</ele>
        <time>2019-07-16T08:00:24Z</time>
      </trkpt>
      <trkpt lat="48.28352" lon="-1.90773">
        <ele>140.2</ele>
        <time>2019-07-16T08:00:25Z</time>
      </trkpt>
      <trkpt lat="48.28349" lon="-1.90777">
        <ele>140.4</ele>
        <time>2019-07-16T08:00:26Z</time>
      </trkpt>
      <trkpt lat="48.28345" lon="-1.9078">
        <ele>140.6</ele>
        <time>2019-07-16T08:00:27Z</time>
      </trkpt>
      <trkpt lat="48.2834" lon="-1.90784">
        <ele>140.7</ele>
        <time>2019-07-16T08:00:28Z</time>
      </trkpt>
      <trkpt lat="48.28336" lon="-1.90787">
        <ele>140.8</ele>
        <time>2019-07-16T08:00:29Z</time>
      </trkpt>
      <trkpt lat="48.28331" lon="-1.90789">
        <ele>140.9</ele>
        <time>2019-07-16T08:00:30Z</time>
      </trkpt>
      <trkpt lat="48.28325" lon="-1.9079">
        <ele>140.7</ele>
        <time>2019-07-16T08:00:31Z</time>
      </trkpt>
      <trkpt lat="48.28319" lon="-1.90791">
        <ele>141</ele>
        <time>2019-07-16T08:00:32Z</time>
      </trkpt>
      <trkpt lat="48.28313" lon="-1.90793">
        <ele>141.1</ele>
        <time>2019-07-16T08:00:33Z</time>
      </trkpt>
      <trkpt lat="48.28307" lon="-1.90794">
        <ele>141</ele>
        <time>2019-07-16T08:00:34Z</time>
      </trkpt>
      <trkpt lat="48.28302" lon="-1.90798">
        <ele>140.4</ele>
        <time>2019-07-16T08:00:35Z</time>
      </trkpt>
      <trkpt lat="48.28298" lon="-1.908">
        <ele>140.2</ele>
        <time>2019-07-16T08:00:36Z</time>
      </trkpt>
      <trkpt lat="48.28295" lon="-1.90802">
        <ele>140.2</ele>
        <time>2019-07-16T08:00:37Z</time>
      </trkpt>
      <trkpt lat="48.28293" lon="-1.90809">
        <ele>141.8</ele>
        <time>2019-07-16T08:00:38Z</time>
      </trkpt>
      <trkpt lat="48.28288" lon="-1.90809">
        <ele>141.4</ele>
        <time>2019-07-16T08:00:39Z</time>
      </trkpt>
      <trkpt lat="48.28284" lon="-1.90809">
        <ele>141.6</ele>
        <time>2019-07-16T08:00:40Z</time>
      </trkpt>
      <trkpt lat="48.2828" lon="-1.90809">
        <ele>141.2</ele>
        <time>2019-07-16T08:00:41Z</time>
      </trkpt>
      <trkpt lat="48.28276" lon="-1.90809">
        <ele>140.9</ele>
        <time>2019-07-16T08:00:42Z</time>
      </trkpt>
      <trkpt lat="48.28271" lon="-1.90809">
        <ele>140.8</ele>
        <time>2019-07-16T08:00:43Z</time>
      </trkpt>
      <trkpt lat="48.28267" lon="-1.90809">
        <ele>140.9</ele>
        <time>2019-07-16T08:00:44Z</time>
      </trkpt>
      <trkpt lat="48.28263" lon="-1.90809">
        <ele>141</ele>
        <time>2019-07-16T08:00:45Z</time>
      </trkpt>
      <trkpt lat="48.28259" lon="-1.9081">
        <ele>141.1</ele>
        <time>2019-07-16T08:00:46Z</time>
      </trkpt>
      <trkpt lat="48.28254" lon="-1.9081">
        <ele>141.4</ele>
        <time>2019-07-16T08:00:47Z</time>
      </trkpt>
      <trkpt lat="48.28249" lon="-1.90811">
        <ele>140.9</ele>
        <time>2019-07-16T08:00:48Z</time>
      </trkpt>
      <trkpt lat="48.28245" lon="-1.90812">
        <ele>140.6</ele>
        <time>2019-07-16T08:00:49Z</time>
      </trkpt>
      <trkpt lat="48.2824" lon="-1.90814">
        <ele>140.2</ele>
        <time>2019-07-16T08:00:50Z</time>
      </trkpt>
      <trkpt lat="48.28236" lon="-1.90816">
        <ele>139.9</ele>
        <time>2019-07-16T08:00:51Z</time>
      </trkpt>
      <trkpt lat="48.28231" lon="-1.90817">
        <ele>139.6</ele>
        <time>2019-07-16T08:00:52Z</time>
      </trkpt>
      <trkpt lat="48.28226" lon="-1.90818">
        <ele>139.6</ele>
        <time>2019-07-16T08:00:53Z</time>
      </trkpt>
      <trkpt lat="48.28222" lon="-1.90819">
        <ele>139.2</ele>
        <time>2019-07-16T08:00:54Z</time>
      </trkpt>
      <trkpt lat="48.28217" lon="-1.9082">
        <ele>139.1</ele>
        <time>2019-07-16T08:00:55Z</time>
      </trkpt>
      <trkpt lat="48.28212" lon="-1.90821">
        <ele>139</ele>
        <time>2019-07-16T08:00:56Z</time>
      </trkpt>
      <trkpt lat="48.28207" lon="-1.90823">
        <ele>138.9</ele>
        <time>2019-07-16T08:00:57Z</time>
      </trkpt>
      <trkpt lat="48.28202" lon="-1.90824">
        <ele>139</ele>
        <time>2019-07-16T08:00:58Z</time>
      </trkpt>
      <trkpt lat="48.28196" lon="-1.90826">
        <ele>139.3</ele>
        <time>2019-07-16T08:00:59Z</time>
      </trkpt>
      <trkpt lat="48.28191" lon="-1.90826">
        <ele>139.7</ele>
        <time>2019-07-16T08:01:00Z</time>
      </trkpt>
      <trkpt lat="48.28185" lon="-1.90827">
        <ele>139.8</ele>
        <time>2019-07-16T08:01:01Z</time>
      </trkpt>
      <trkpt lat="48.28179" lon="-1.90829">
        <ele>139.8</ele>
        <time>2019-07-16T08:01:02Z</time>
      </trkpt>
      <trkpt lat="48.28172" lon="-1.90831">
        <ele>139.9</ele>
        <time>2019-07-16T08:01:03Z</time>
      </trkpt>
      <trkpt lat="48.28165" lon="-1.90831">
        <ele>140</ele>
        <time>2019-07-16T08:01:04Z</time>
      </trkpt>
      <trkpt lat="48.28157" lon="-1.9083">
        <ele>140.3</ele>
        <time>2019-07-16T08:01:05Z</time>
      </trkpt>
      <trkpt lat="48.28149" lon="-1.90828">
        <ele>139.6</ele>
        <time>2019-07-16T08:01:06Z</time>
      </trkpt>
      <trkpt lat="48.28142" lon="-1.90826">
        <ele>139.3</ele>
        <time>2019-07-16T08:01:07Z</time>
      </trkpt>
      <trkpt lat="48.28136" lon="-1.90824">
        <ele>139.4</ele>
        <time>2019-07-16T08:01:08Z</time>
      </trkpt>
      <trkpt lat="48.28131" lon="-1.90823">
        <ele>139.2</ele>
        <time>2019-07-16T08:01:09Z</time>
      </trkpt>
      <trkpt lat="48.28126" lon="-1.90824">
        <ele>139</ele>
        <time>2019-07-16T08:01:10Z</time>
      </trkpt>
      <trkpt lat="48.28122" lon="-1.90822">
        <ele>138.5</ele>
        <time>2019-07-16T08:01:11Z</time>
      </trkpt>
      <trkpt lat="48.28117" lon="-1.90823">
        <ele>138.4</ele>
        <time>2019-07-16T08:01:12Z</time>
      </trkpt>
      <trkpt lat="48.28114" lon="-1.90825">
        <ele>138.5</ele>
        <time>2019-07-16T08:01:13Z</time>
      </trkpt>
      <trkpt lat="48.28111" lon="-1.90825">
        <ele>138.3</ele>
        <time>2019-07-16T08:01:14Z</time>
      </trkpt>
      <trkpt lat="48.28108" lon="-1.90824">
        <ele>138.2</ele>
        <time>2019-07-16T08:01:15Z</time>
      </trkpt>
      <trkpt lat="48.28106" lon="-1.90824">
        <ele>138.4</ele>
        <time>2019-07-16T08:01:16Z</time>
      </trkpt>
      <trkpt lat="48.28103" lon="-1.90823">
        <ele>139.1</ele>
        <time>2019-07-16T08:01:17Z</time>
      </trkpt>
      <trkpt lat="48.28099" lon="-1.90822">
        <ele>139.3</ele>
        <time>2019-07-16T08:01:18Z</time>
      </trkpt>
      <trkpt lat="48.28097" lon="-1.90822">
        <ele>139.4</ele>
        <time>2019-07-16T08:01:19Z</time>
      </trkpt>
      <trkpt lat="48.28094" lon="-1.90821">
        <ele>139.2</ele>
        <time>2019-07-16T08:01:20Z</time>
      </trkpt>
      <trkpt lat="48.28091" lon="-1.90822">
        <ele>138.6</ele>
        <time>2019-07-16T08:01:21Z</time>
      </trkpt>
      <trkpt lat="48.28089" lon="-1.90822">
        <ele>137.9</ele>
        <time>2019-07-16T08:01:22Z</time>
      </trkpt>
      <trkpt lat="48.28086" lon="-1.90823">
        <ele>137.5</ele>
        <time>2019-07-16T08:01:23Z</time>
      </trkpt>
      <trkpt lat="48.28084" lon="-1.90823">
        <ele>137.1</ele>
        <time>2019-07-16T08:01:24Z</time>
      </trkpt>
      <trkpt lat="48.28082" lon="-1.90822">
        <ele>137.5</ele>
        <time>2019-07-16T08:01:25Z</time>
      </trkpt>
      <trkpt lat="48.28079" lon="-1.9082">
        <ele>137.7</ele>
        <time>2019-07-16T08:01:26Z</time>
      </trkpt>
      <trkpt lat="48.28077" lon="-1.90819">
        <ele>138</ele>
        <time>2019-07-16T08:01:27Z</time>
      </trkpt>
      <trkpt lat="48.28074" lon="-1.90819">
        <ele>138</ele>
        <time>2019-07-16T08:01:28Z</time>
      </trkpt>
      <trkpt lat="48.28072" lon="-1.90818">
        <ele>138.1</ele>
        <time>2019-07-16T08:01:29Z</time>
      </trkpt>
      <trkpt lat="48.28069" lon="-1.90817">
        <ele>138</ele>
        <time>2019-07-16T08:01:30Z</time>
      </trkpt>
      <trkpt lat="48.28067" lon="-1.90816">
        <ele>138.4</ele>
        <time>2019-07-16T08:01:31Z</time>
      </trkpt>
      <trkpt lat="48.28064" lon="-1.90814">
        <ele>138.8</ele>
        <time>2019-07-16T08:01:32Z</time>
      </trkpt>
      <trkpt lat="48.28062" lon="-1.90813">
        <ele>139</ele>
        <time>2019-07-16T08:01:33Z</time>
      </trkpt>
      <trkpt lat="48.28059" lon="-1.90812">
        <ele>139.4</ele>
        <time>2019-07-16T08:01:34Z</time>
      </trkpt>
      <trkpt lat="48.28057" lon="-1.9081">
        <ele>139.8</ele>
        <time>2019-07-16T08:01:35Z</time>
      </trkpt>
      <trkpt lat="48.28055" lon="-1.90807">
        <ele>140.6</ele>
        <time>2019-07-16T08:01:36Z</time>
      </trkpt>
      <trkpt lat="48.28053" lon="-1.90804">
        <ele>142.2</ele>
        <time>2019-07-16T08:01:37Z</time>
      </trkpt>
      <trkpt lat="48.28051" lon="-1.90803">
        <ele>142.3</ele>
        <time>2019-07-16T08:01:38Z</time>
      </trkpt>
      <trkpt lat="48.28048" lon="-1.90801">
        <ele>142.9</ele>
        <time>2019-07-16T08:01:39Z</time>
      </trkpt>
      <trkpt lat="48.28046" lon="-1.90799">
        <ele>142.8</ele>
        <time>2019-07-16T08:01:40Z</time>
      </trkpt>
      <trkpt lat="48.28043" lon="-1.90798">
        <ele>142.9</ele>
        <time>2019-07-16T08:01:41Z</time>
      </trkpt>
      <trkpt lat="48.28041" lon="-1.90796">
        <ele>142.6</ele>
        <time>2019-07-16T08:01:42Z</time>
      </trkpt>
      <trkpt lat="48.28038" lon="-1.90794">
        <ele>142.7</ele>
        <time>2019-07-16T08:01:43Z</time>
      </trkpt>
      <trkpt lat="48.28036" lon="-1.90791">
        <ele>142.8</ele>
        <time>2019-07-16T08:01:44Z</time>
      </trkpt>
      <trkpt lat="48.28034" lon="-1.90789">
        <ele>142.8</ele>
        <time>2019-07-16T08:01:45Z</time>
      </trkpt>
      <trkpt lat="48.28031" lon="-1.90786">
        <ele>143</ele>
        <time>2019-07-16T08:01:46Z</time>
      </trkpt>
      <trkpt lat="48.28029" lon="-1.90783">
        <ele>143.3</ele>
        <time>2019-07-16T08:01:47Z</time>
      </trkpt>
      <trkpt lat="48.28027" lon="-1.90781">
        <ele>143.5</ele>
        <time>2019-07-16T08:01:48Z</time>
      </trkpt>
      <trkpt lat="48.28025" lon="-1.90778">
        <ele>143.8</ele>
        <time>2019-07-16T08:01:49Z</time>
      </trkpt>
      <trkpt lat="48.28023" lon="-1.90775">
        <ele>143.9</ele>
        <time>2019-07-16T08:01:50Z</time>
      </trkpt>
      <trkpt lat="48.28021" lon="-1.90772">
        <ele>143.4</ele>
        <time>2019-07-16T08:01:51Z</time>
      </trkpt>
      <trkpt lat="48.28017" lon="-1.90769">
        <ele>143.1</ele>
        <time>2019-07-16T08:01:52Z</time>
      </trkpt>
      <trkpt lat="48.28015" lon="-1.90766">
        <ele>143.3</ele>
        <time>2019-07-16T08:01:53Z</time>
      </trkpt>
      <trkpt lat="48.28013" lon="-1.90762">
        <ele>143.1</ele>
        <time>2019-07-16T08:01:54Z</time>
      </trkpt>
      <trkpt lat="48.2801" lon="-1.90758">
        <ele>143.3</ele>
        <time>2019-07-16T08:01:55Z</time>
      </trkpt>
      <trkpt lat="48.28008" lon="-1.90754">
        <ele>143.2</ele>
        <time>2019-07-16T08:01:56Z</time>
      </trkpt>
      <trkpt lat="48.28005" lon="-1.9075">
        <ele>143.3</ele>
        <time>2019-07-16T08:01:57Z</time>
      </trkpt>
      <trkpt lat="48.28003" lon="-1.90746">
        <ele>143.5</ele>
        <time>2019-07-16T08:01:58Z</time>
      </trkpt>
      <trkpt lat="48.28" lon="-1.90742">
        <ele>143.5</ele>
        <time>2019-07-16T08:01:59Z</time>
      </trkpt>
      <trkpt lat="48.27998" lon="-1.90738">
        <ele>143.8</ele>
        <time>2019-07-16T08:02:00Z</time>
      </trkpt>
      <trkpt lat="48.27995" lon="-1.90734">
        <ele>144.1</ele>
        <time>2019-07-16T08:02:01Z</time>
      </trkpt>
      <trkpt lat="48.27993" lon="-1.9073">
        <ele>144.7</ele>
        <time>2019-07-16T08:02:02Z</time>
      </trkpt>
      <trkpt lat="48.27991" lon="-1.90726">
        <ele>144.9</ele>
        <time>2019-07-16T08:02:03Z</time>
      </trkpt>
      <trkpt lat="48.27988" lon="-1.90722">
        <ele>145.5</ele>
        <time>2019-07-16T08:02:04Z</time>
      </trkpt>
      <trkpt lat="48.27986" lon="-1.90718">
        <ele>145.2</ele>
        <time>2019-07-16T08:02:05Z</time>
      </trkpt>
      <trkpt lat="48.27984" lon="-1.90713">
        <ele>144.9</ele>
        <time>2019-07-16T08:02:06Z</time>
      </trkpt>
      <trkpt lat="48.27981" lon="-1.90709">
        <ele>144.6</ele>
        <time>2019-07-16T08:02:07Z</time>
      </trkpt>
      <trkpt lat="48.27978" lon="-1.90705">
        <ele>144.7</ele>
        <time>2019-07-16T08:02:08Z</time>
      </trkpt>
      <trkpt lat="48.27976" lon="-1.90701">
        <ele>144.8</ele>
        <time>2019-07-16T08:02:09Z</time>
      </trkpt>
      <trkpt lat="48.27972" lon="-1.90698">
        <ele>145</ele>
        <time>2019-07-16T08:02:10Z</time>
      </trkpt>
      <trkpt lat="48.27969" lon="-1.90694">
        <ele>145.1</ele>
        <time>2019-07-16T08:02:11Z</time>
      </trkpt>
      <trkpt lat="48.27966" lon="-1.9069">
        <ele>144.8</ele>
        <time>2019-07-16T08:02:12Z</time>
      </trkpt>
      <trkpt lat="48.27964" lon="-1.90687">
        <ele>145.4</ele>
        <time>2019-07-16T08:02:13Z</time>
      </trkpt>
      <trkpt lat="48.27961" lon="-1.90684">
        <ele>144.9</ele>
        <time>2019-07-16T08:02:14Z</time>
      </trkpt>
      <trkpt lat="48.27957" lon="-1.9068">
        <ele>144</ele>
        <time>2019-07-16T08:02:15Z</time>
      </trkpt>
      <trkpt lat="48.27953" lon="-1.90676">
        <ele>143</ele>
        <time>2019-07-16T08:02:16Z</time>
      </trkpt>
      <trkpt lat="48.2795" lon="-1.90673">
        <ele>142.3</ele>
        <time>2019-07-16T08:02:17Z</time>
      </trkpt>
      <trkpt lat="48.27947" lon="-1.90669">
        <ele>141.8</ele>
        <time>2019-07-16T08:02:18Z</time>
      </trkpt>
      <trkpt lat="48.27942" lon="-1.90665">
        <ele>141.8</ele>
        <time>2019-07-16T08:02:19Z</time>
      </trkpt>
      <trkpt lat="48.27938" lon="-1.90662">
        <ele>141.4</ele>
        <time>2019-07-16T08:02:20Z</time>
      </trkpt>
      <trkpt lat="48.27934" lon="-1.90658">
        <ele>141.4</ele>
        <time>2019-07-16T08:02:21Z</time>
      </trkpt>
      <trkpt lat="48.2793" lon="-1.90654">
        <ele>141.3</ele>
        <time>2019-07-16T08:02:22Z</time>
      </trkpt>
      <trkpt lat="48.27926" lon="-1.9065">
        <ele>141.5</ele>
        <time>2019-07-16T08:02:23Z</time>
      </trkpt>
      <trkpt lat="48.27922" lon="-1.90646">
        <ele>141.4</ele>
        <time>2019-07-16T08:02:24Z</time>
      </trkpt>
      <trkpt lat="48.27919" lon="-1.90641">
        <ele>141.6</ele>
        <time>2019-07-16T08:02:25Z</time>
      </trkpt>
      <trkpt lat="48.27915" lon="-1.90636">
        <ele>141.5</ele>
        <time>2019-07-16T08:02:26Z</time>
      </trkpt>
      <trkpt lat="48.27911" lon="-1.90631">
        <ele>141.5</ele>
        <time>2019-07-16T08:02:27Z</time>
      </trkpt>
      <trkpt lat="48.27908" lon="-1.90625">
        <ele>141.4</ele>
        <time>2019-07-16T08:02:28Z</time>
      </trkpt>
      <trkpt lat="48.27904" lon="-1.90619">
        <ele>140.7</ele>
        <time>2019-07-16T08:02:29Z</time>
      </trkpt>
      <trkpt lat="48.279" lon="-1.90613">
        <ele>140</ele>
        <time>2019-07-16T08:02:30Z</time>
      </trkpt>
      <trkpt lat="48.27897" lon="-1.90607">
        <ele>139.3</ele>
        <time>2019-07-16T08:02:31Z</time>
      </trkpt>
      <trkpt lat="48.27893" lon="-1.906">
        <ele>138.7</ele>
        <time>2019-07-16T08:02:32Z</time>
      </trkpt>
      <trkpt lat="48.27889" lon="-1.90593">
        <ele>138</ele>
        <time>2019-07-16T08:02:33Z</time>
      </trkpt>
      <trkpt lat="48.27886" lon="-1.90586">
        <ele>137.6</ele>
        <time>2019-07-16T08:02:34Z</time>
      </trkpt>
      <trkpt lat="48.27882" lon="-1.90578">
        <ele>137</ele>
        <time>2019-07-16T08:02:35Z</time>
      </trkpt>
      <trkpt lat="48.27879" lon="-1.9057">
        <ele>136.5</ele>
        <time>2019-07-16T08:02:36Z</time>
      </trkpt>
      <trkpt lat="48.27877" lon="-1.90562">
        <ele>135.8</ele>
        <time>2019-07-16T08:02:37Z</time>
      </trkpt>
      <trkpt lat="48.27874" lon="-1.90553">
        <ele>135.4</ele>
        <time>2019-07-16T08:02:38Z</time>
      </trkpt>
      <trkpt lat="48.27871" lon="-1.90544">
        <ele>134.9</ele>
        <time>2019-07-16T08:02:39Z</time>
      </trkpt>
      <trkpt lat="48.2787" lon="-1.90535">
        <ele>134.2</ele>
        <time>2019-07-16T08:02:40Z</time>
      </trkpt>
      <trkpt lat="48.27868" lon="-1.90525">
        <ele>133.6</ele>
        <time>2019-07-16T08:02:41Z</time>
      </trkpt>
      <trkpt lat="48.27866" lon="-1.90515">
        <ele>133.1</ele>
        <time>2019-07-16T08:02:42Z</time>
      </trkpt>
      <trkpt lat="48.27865" lon="-1.90505">
        <ele>132.8</ele>
        <time>2019-07-16T08:02:43Z</time>
      </trkpt>
      <trkpt lat="48.27863" lon="-1.90494">
        <ele>132.4</ele>
        <time>2019-07-16T08:02:44Z</time>
      </trkpt>
      <trkpt lat="48.27861" lon="-1.90483">
        <ele>131.6</ele>
        <time>2019-07-16T08:02:45Z</time>
      </trkpt>
      <trkpt lat="48.27858" lon="-1.90472">
        <ele>131</ele>
        <time>2019-07-16T08:02:46Z</time>
      </trkpt>
      <trkpt lat="48.27856" lon="-1.90461">
        <ele>130.6</ele>
        <time>2019-07-16T08:02:47Z</time>
      </trkpt>
      <trkpt lat="48.27855" lon="-1.90449">
        <ele>130.1</ele>
        <time>2019-07-16T08:02:48Z</time>
      </trkpt>
      <trkpt lat="48.27853" lon="-1.90436">
        <ele>130</ele>
        <time>2019-07-16T08:02:49Z</time>
      </trkpt>
      <trkpt lat="48.27852" lon="-1.90424">
        <ele>130.7</ele>
        <time>2019-07-16T08:02:50Z</time>
      </trkpt>
      <trkpt lat="48.2785" lon="-1.90411">
        <ele>130.7</ele>
        <time>2019-07-16T08:02:51Z</time>
      </trkpt>
      <trkpt lat="48.27848" lon="-1.90399">
        <ele>131.2</ele>
        <time>2019-07-16T08:02:52Z</time>
      </trkpt>
      <trkpt lat="48.27847" lon="-1.90387">
        <ele>131.4</ele>
        <time>2019-07-16T08:02:53Z</time>
      </trkpt>
      <trkpt lat="48.27845" lon="-1.90376">
        <ele>131.9</ele>
        <time>2019-07-16T08:02:54Z</time>
      </trkpt>
      <trkpt lat="48.27844" lon="-1.90364">
        <ele>132.3</ele>
        <time>2019-07-16T08:02:55Z</time>
      </trkpt>
      <trkpt lat="48.27842" lon="-1.90353">
        <ele>132.4</ele>
        <time>2019-07-16T08:02:56Z</time>
      </trkpt>
      <trkpt lat="48.27842" lon="-1.90342">
        <ele>132.9</ele>
        <time>2019-07-16T08:02:57Z</time>
      </trkpt>
      <trkpt lat="48.2784" lon="-1.90331">
        <ele>133.2</ele>
        <time>2019-07-16T08:02:58Z</time>
      </trkpt>
      <trkpt lat="48.27838" lon="-1.9032">
        <ele>132.4</ele>
        <time>2019-07-16T08:02:59Z</time>
      </trkpt>
      <trkpt lat="48.27836" lon="-1.9031">
        <ele>131.9</ele>
        <time>2019-07-16T08:03:00Z</time>
      </trkpt>
      <trkpt lat="48.27834" lon="-1.90299">
        <ele>131.6</ele>
        <time>2019-07-16T08:03:01Z</time>
      </trkpt>
      <trkpt lat="48.27832" lon="-1.90289">
        <ele>131.7</ele>
        <time>2019-07-16T08:03:02Z</time>
      </trkpt>
      <trkpt lat="48.2783" lon="-1.90279">
        <ele>131.6</ele>
        <time>2019-07-16T08:03:03Z</time>
      </trkpt>
      <trkpt lat="48.27829" lon="-1.9027">
        <ele>131.8</ele>
        <time>2019-07-16T08:03:04Z</time>
      </trkpt>
      <trkpt lat="48.27828" lon="-1.90261">
        <ele>131.7</ele>
        <time>2019-07-16T08:03:05Z</time>
      </trkpt>
      <trkpt lat="48.27826" lon="-1.90252">
        <ele>131.7</ele>
        <time>2019-07-16T08:03:06Z</time>
      </trkpt>
      <trkpt lat="48.27824" lon="-1.90244">
        <ele>131.8</ele>
        <time>2019-07-16T08:03:07Z</time>
      </trkpt>
      <trkpt lat="48.27824" lon="-1.90238">
        <ele>132</ele>
        <time>2019-07-16T08:03:08Z</time>
      </trkpt>
      <trkpt lat="48.27822" lon="-1.90232">
        <ele>131.8</ele>
        <time>2019-07-16T08:03:09Z</time>
      </trkpt>
      <trkpt lat="48.27821" lon="-1.90227">
        <ele>132.1</ele>
        <time>2019-07-16T08:03:10Z</time>
      </trkpt>
      <trkpt lat="48.2782" lon="-1.90223">
        <ele>132.3</ele>
        <time>2019-07-16T08:03:11Z</time>
      </trkpt>
      <trkpt lat="48.27819" lon="-1.90219">
        <ele>132.4</ele>
        <time>2019-07-16T08:03:12Z</time>
      </trkpt>
      <trkpt lat="48.27819" lon="-1.90215">
        <ele>132.5</ele>
        <time>2019-07-16T08:03:13Z</time>
      </trkpt>
      <trkpt lat="48.27819" lon="-1.90211">
        <ele>132.8</ele>
        <time>2019-07-16T08:03:14Z</time>
      </trkpt>
      <trkpt lat="48.27819" lon="-1.90208">
        <ele>133</ele>
        <time>2019-07-16T08:03:15Z</time>
      </trkpt>
      <trkpt lat="48.27818" lon="-1.90205">
        <ele>133.3</ele>
        <time>2019-07-16T08:03:16Z</time>
      </trkpt>
      <trkpt lat="48.27818" lon="-1.90201">
        <ele>133.6</ele>
        <time>2019-07-16T08:03:17Z</time>
      </trkpt>
      <trkpt lat="48.27818" lon="-1.90198">
        <ele>133.9</ele>
        <time>2019-07-16T08:03:18Z</time>
      </trkpt>
      <trkpt lat="48.27817" lon="-1.90195">
        <ele>134.2</ele>
        <time>2019-07-16T08:03:19Z</time>
      </trkpt>
      <trkpt lat="48.27816" lon="-1.90193">
        <ele>134.1</ele>
        <time>2019-07-16T08:03:20Z</time>
      </trkpt>
      <trkpt lat="48.27816" lon="-1.9019">
        <ele>134.2</ele>
        <time>2019-07-16T08:03:21Z</time>
      </trkpt>
      <trkpt lat="48.27815" lon="-1.90187">
        <ele>134.2</ele>
        <time>2019-07-16T08:03:22Z</time>
      </trkpt>
      <trkpt lat="48.27814" lon="-1.90185">
        <ele>133.9</ele>
        <time>2019-07-16T08:03:23Z</time>
      </trkpt>
      <trkpt lat="48.27813" lon="-1.90182">
        <ele>133.7</ele>
        <time>2019-07-16T08:03:24Z</time>
      </trkpt>
      <trkpt lat="48.27811" lon="-1.9018">
        <ele>132.4</ele>
        <time>2019-07-16T08:03:25Z</time>
      </trkpt>
      <trkpt lat="48.2781" lon="-1.90176">
        <ele>133</ele>
        <time>2019-07-16T08:03:26Z</time>
      </trkpt>
      <trkpt lat="48.2781" lon="-1.90173">
        <ele>133.5</ele>
        <time>2019-07-16T08:03:27Z</time>
      </trkpt>
      <trkpt lat="48.2781" lon="-1.9017">
        <ele>133.9</ele>
        <time>2019-07-16T08:03:28Z</time>
      </trkpt>
      <trkpt lat="48.2781" lon="-1.90167">
        <ele>134.3</ele>
        <time>2019-07-16T08:03:29Z</time>
      </trkpt>
      <trkpt lat="48.27809" lon="-1.90165">
        <ele>134.6</ele>
        <time>2019-07-16T08:03:30Z</time>
      </trkpt>
      <trkpt lat="48.27808" lon="-1.90162">
        <ele>134.9</ele>
        <time>2019-07-16T08:03:31Z</time>
      </trkpt>
      <trkpt lat="48.27808" lon="-1.90159">
        <ele>135</ele>
        <time>2019-07-16T08:03:32Z</time>
      </trkpt>
      <trkpt lat="48.27808" lon="-1.90156">
        <ele>135.1</ele>
        <time>2019-07-16T08:03:33Z</time>
      </trkpt>
      <trkpt lat="48.27807" lon="-1.90153">
        <ele>135.4</ele>
        <time>2019-07-16T08:03:34Z</time>
      </trkpt>
      <trkpt lat="48.27807" lon="-1.9015">
        <ele>135.6</ele>
        <time>2019-07-16T08:03:35Z</time>
      </trkpt>
      <trkpt lat="48.27807" lon="-1.90147">
        <ele>135.5</ele>
        <time>2019-07-16T08:03:36Z</time>
      </trkpt>
      <trkpt lat="48.27807" lon="-1.90145">
        <ele>135.6</ele>
        <time>2019-07-16T08:03:37Z</time>
      </trkpt>
      <trkpt lat="48.27806" lon="-1.90142">
        <ele>135.9</ele>
        <time>2019-07-16T08:03:38Z</time>
      </trkpt>
      <trkpt lat="48.27806" lon="-1.90139">
        <ele>136.3</ele>
        <time>2019-07-16T08:03:39Z</time>
      </trkpt>
      <trkpt lat="48.27806" lon="-1.90136">
        <ele>137</ele>
        <time>2019-07-16T08:03:40Z</time>
      </trkpt>
      <trkpt lat="48.27806" lon="-1.90134">
        <ele>137.5</ele>
        <time>2019-07-16T08:03:41Z</time>
      </trkpt>
      <trkpt lat="48.27805" lon="-1.90131">
        <ele>138</ele>
        <time>2019-07-16T08:03:42Z</time>
      </trkpt>
      <trkpt lat="48.27805" lon="-1.90128">
        <ele>138.6</ele>
        <time>2019-07-16T08:03:43Z</time>
      </trkpt>
      <trkpt lat="48.27805" lon="-1.90125">
        <ele>139.3</ele>
        <time>2019-07-16T08:03:44Z</time>
      </trkpt>
      <trkpt lat="48.27805" lon="-1.90122">
        <ele>140.1</ele>
        <time>2019-07-16T08:03:45Z</time>
      </trkpt>
      <trkpt lat="48.27805" lon="-1.9012">
        <ele>140.6</ele>
        <time>2019-07-16T08:03:46Z</time>
      </trkpt>
      <trkpt lat="48.27805" lon="-1.90117">
        <ele>141.3</ele>
        <time>2019-07-16T08:03:47Z</time>
      </trkpt>
      <trkpt lat="48.27805" lon="-1.90115">
        <ele>142</ele>
        <time>2019-07-16T08:03:48Z</time>
      </trkpt>
      <trkpt lat="48.27805" lon="-1.90113">
        <ele>142.5</ele>
        <time>2019-07-16T08:03:49Z</time>
      </trkpt>
      <trkpt lat="48.27806" lon="-1.9011">
        <ele>143</ele>
        <time>2019-07-16T08:03:50Z</time>
      </trkpt>
      <trkpt lat="48.27806" lon="-1.90108">
        <ele>143.5</ele>
        <time>2019-07-16T08:03:51Z</time>
      </trkpt>
      <trkpt lat="48.27806" lon="-1.90106">
        <ele>144</ele>
        <time>2019-07-16T08:03:52Z</time>
      </trkpt>
      <trkpt lat="48.27805" lon="-1.90104">
        <ele>144.4</ele>
        <time>2019-07-16T08:03:53Z</time>
      </trkpt>
      <trkpt lat="48.27805" lon="-1.90101">
        <ele>144.7</ele>
        <time>2019-07-16T08:03:54Z</time>
      </trkpt>
      <trkpt lat="48.27804" lon="-1.90099">
        <ele>144.8</ele>
        <time>2019-07-16T08:03:55Z</time>
      </trkpt>
      <trkpt lat="48.27804" lon="-1.90096">
        <ele>145.1</ele>
        <time>2019-07-16T08:03:56Z</time>
      </trkpt>
      <trkpt lat="48.27804" lon="-1.90094">
        <ele>145.3</ele>
        <time>2019-07-16T08:03:57Z</time>
      </trkpt>
      <trkpt lat="48.27803" lon="-1.90092">
        <ele>145.2</ele>
        <time>2019-07-16T08:03:58Z</time>
      </trkpt>
      <trkpt lat="48.27803" lon="-1.9009">
        <ele>145.1</ele>
        <time>2019-07-16T08:03:59Z</time>
      </trkpt>
      <trkpt lat="48.27803" lon="-1.90087">
        <ele>145.2</ele>
        <time>2019-07-16T08:04:00Z</time>
      </trkpt>
      <trkpt lat="48.27803" lon="-1.90085">
        <ele>145.6</ele>
        <time>2019-07-16T08:04:01Z</time>
      </trkpt>
      <trkpt lat="48.27803" lon="-1.90083">
        <ele>146.1</ele>
        <time>2019-07-16T08:04:02Z</time>
      </trkpt>
      <trkpt lat="48.27802" lon="-1.90081">
        <ele>146.6</ele>
        <time>2019-07-16T08:04:03Z</time>
      </trkpt>
      <trkpt lat="48.27802" lon="-1.9008">
        <ele>147.1</ele>
        <time>2019-07-16T08:04:04Z</time>
      </trkpt>
      <trkpt lat="48.27802" lon="-1.90077">
        <ele>147.4</ele>
        <time>2019-07-16T08:04:05Z</time>
      </trkpt>
      <trkpt lat="48.27802" lon="-1.90076">
        <ele>147.8</ele>
        <time>2019-07-16T08:04:06Z</time>
      </trkpt>
      <trkpt lat="48.27802" lon="-1.90073">
        <ele>148.3</ele>
        <time>2019-07-16T08:04:07Z</time>
      </trkpt>
      <trkpt lat="48.27801" lon="-1.90071">
        <ele>148.6</ele>
        <time>2019-07-16T08:04:08Z</time>
      </trkpt>
      <trkpt lat="48.278" lon="-1.90069">
        <ele>148.8</ele>
        <time>2019-07-16T08:04:09Z</time>
      </trkpt>
      <trkpt lat="48.27799" lon="-1.90067">
        <ele>149.1</ele>
        <time>2019-07-16T08:04:10Z</time>
      </trkpt>
      <trkpt lat="48.27799" lon="-1.90064">
        <ele>149.3</ele>
        <time>2019-07-16T08:04:11Z</time>
      </trkpt>
      <trkpt lat="48.27798" lon="-1.90062">
        <ele>149.4</ele>
        <time>2019-07-16T08:04:12Z</time>
      </trkpt>
      <trkpt lat="48.27798" lon="-1.9006">
        <ele>149.4</ele>
        <time>2019-07-16T08:04:13Z</time>
      </trkpt>
      <trkpt lat="48.27797" lon="-1.90057">
        <ele>149.5</ele>
        <time>2019-07-16T08:04:14Z</time>
      </trkpt>
      <trkpt lat="48.27796" lon="-1.90055">
        <ele>149.4</ele>
        <time>2019-07-16T08:04:15Z</time>
      </trkpt>
      <trkpt lat="48.27796" lon="-1.90053">
        <ele>149.6</ele>
        <time>2019-07-16T08:04:16Z</time>
      </trkpt>
      <trkpt lat="48.27796" lon="-1.90051">
        <ele>149.7</ele>
        <time>2019-07-16T08:04:17Z</time>
      </trkpt>
      <trkpt lat="48.27795" lon="-1.90049">
        <ele>149.6</ele>
        <time>2019-07-16T08:04:18Z</time>
      </trkpt>
      <trkpt lat="48.27795" lon="-1.90046">
        <ele>149.7</ele>
        <time>2019-07-16T08:04:19Z</time>
      </trkpt>
      <trkpt lat="48.27795" lon="-1.90044">
        <ele>150</ele>
        <time>2019-07-16T08:04:20Z</time>
      </trkpt>
      <trkpt lat="48.27795" lon="-1.90042">
        <ele>150.2</ele>
        <time>2019-07-16T08:04:21Z</time>
      </trkpt>
      <trkpt lat="48.27795" lon="-1.90039">
        <ele>150.5</ele>
        <time>2019-07-16T08:04:22Z</time>
      </trkpt>
      <trkpt lat="48.27795" lon="-1.90037">
        <ele>150.7</ele>
        <time>2019-07-16T08:04:23Z</time>
      </trkpt>
      <trkpt lat="48.27794" lon="-1.90035">
        <ele>150.9</ele>
        <time>2019-07-16T08:04:24Z</time>
      </trkpt>
      <trkpt lat="48.27794" lon="-1.90032">
        <ele>150.7</ele>
        <time>2019-07-16T08:04:25Z</time>
      </trkpt>
      <trkpt lat="48.27794" lon="-1.9003">
        <ele>150.6</ele>
        <time>2019-07-16T08:04:26Z</time>
      </trkpt>
      <trkpt lat="48.27794" lon="-1.90027">
        <ele>150.7</ele>
        <time>2019-07-16T08:04:27Z</time>
      </trkpt>
      <trkpt lat="48.27794" lon="-1.90025">
        <ele>150.6</ele>
        <time>2019-07-16T08:04:28Z</time>
      </trkpt>
      <trkpt lat="48.27793" lon="-1.90023">
        <ele>150.7</ele>
        <time>2019-07-16T08:04:29Z</time>
      </trkpt>
      <trkpt lat="48.27793" lon="-1.90021">
        <ele>150.8</ele>
        <time>2019-07-16T08:04:30Z</time>
      </trkpt>
      <trkpt lat="48.27792" lon="-1.90018">
        <ele>151</ele>
        <time>2019-07-16T08:04:31Z</time>
      </trkpt>
      <trkpt lat="48.27792" lon="-1.90016">
        <ele>151.2</ele>
        <time>2019-07-16T08:04:32Z</time>
      </trkpt>
      <trkpt lat="48.27791" lon="-1.90013">
        <ele>151.3</ele>
        <time>2019-07-16T08:04:33Z</time>
      </trkpt>
      <trkpt lat="48.27791" lon="-1.90011">
        <ele>151.4</ele>
        <time>2019-07-16T08:04:34Z</time>
      </trkpt>
      <trkpt lat="48.27791" lon="-1.90008">
        <ele>151.5</ele>
        <time>2019-07-16T08:04:35Z</time>
      </trkpt>
      <trkpt lat="48.27791" lon="-1.90006">
        <ele>151.4</ele>
        <time>2019-07-16T08:04:36Z</time>
      </trkpt>
      <trkpt lat="48.2779" lon="-1.90004">
        <ele>151.4</ele>
        <time>2019-07-16T08:04:37Z</time>
      </trkpt>
      <trkpt lat="48.27789" lon="-1.90001">
        <ele>151.5</ele>
        <time>2019-07-16T08:04:38Z</time>
      </trkpt>
      <trkpt lat="48.27789" lon="-1.89998">
        <ele>151.7</ele>
        <time>2019-07-16T08:04:39Z</time>
      </trkpt>
      <trkpt lat="48.27789" lon="-1.89995">
        <ele>151.9</ele>
        <time>2019-07-16T08:04:40Z</time>
      </trkpt>
      <trkpt lat="48.27789" lon="-1.89993">
        <ele>152.3</ele>
        <time>2019-07-16T08:04:41Z</time>
      </trkpt>
      <trkpt lat="48.27789" lon="-1.8999">
        <ele>152.7</ele>
        <time>2019-07-16T08:04:42Z</time>
      </trkpt>
      <trkpt lat="48.27789" lon="-1.89987">
        <ele>153</ele>
        <time>2019-07-16T08:04:43Z</time>
      </trkpt>
      <trkpt lat="48.27788" lon="-1.89985">
        <ele>153.2</ele>
        <time>2019-07-16T08:04:44Z</time>
      </trkpt>
      <trkpt lat="48.27788" lon="-1.89983">
        <ele>153.6</ele>
        <time>2019-07-16T08:04:45Z</time>
      </trkpt>
      <trkpt lat="48.27788" lon="-1.8998">
        <ele>153.8</ele>
        <time>2019-07-16T08:04:46Z</time>
      </trkpt>
      <trkpt lat="48.27788" lon="-1.89978">
        <ele>154</ele>
        <time>2019-07-16T08:04:47Z</time>
      </trkpt>
      <trkpt lat="48.27788" lon="-1.89976">
        <ele>154</ele>
        <time>2019-07-16T08:04:48Z</time>
      </trkpt>
      <trkpt lat="48.27788" lon="-1.89974">
        <ele>154.5</ele>
        <time>2019-07-16T08:04:49Z</time>
      </trkpt>
      <trkpt lat="48.27789" lon="-1.89971">
        <ele>154.8</ele>
        <time>2019-07-16T08:04:50Z</time>
      </trkpt>
      <trkpt lat="48.27789" lon="-1.89969">
        <ele>155.2</ele>
        <time>2019-07-16T08:04:51Z</time>
      </trkpt>
      <trkpt lat="48.27789" lon="-1.89965">
        <ele>155.4</ele>
        <time>2019-07-16T08:04:52Z</time>
      </trkpt>
      <trkpt lat="48.27788" lon="-1.89962">
        <ele>155.6</ele>
        <time>2019-07-16T08:04:53Z</time>
      </trkpt>
      <trkpt lat="48.27788" lon="-1.89959">
        <ele>155.3</ele>
        <time>2019-07-16T08:04:54Z</time>
      </trkpt>
      <trkpt lat="48.27788" lon="-1.89956">
        <ele>155.2</ele>
        <time>2019-07-16T08:04:55Z</time>
      </trkpt>
      <trkpt lat="48.27788" lon="-1.89952">
        <ele>154.8</ele>
        <time>2019-07-16T08:04:56Z</time>
      </trkpt>
      <trkpt lat="48.27788" lon="-1.89949">
        <ele>154.7</ele>
        <time>2019-07-16T08:04:57Z</time>
      </trkpt>
      <trkpt lat="48.27788" lon="-1.89945">
        <ele>154.7</ele>
        <time>2019-07-16T08:04:58Z</time>
      </trkpt>
      <trkpt lat="48.27788" lon="-1.89941">
        <ele>154.5</ele>
        <time>2019-07-16T08:04:59Z</time>
      </trkpt>
      <trkpt lat="48.27788" lon="-1.89937">
        <ele>154.4</ele>
        <time>2019-07-16T08:05:00Z</time>
      </trkpt>
      <trkpt lat="48.27788" lon="-1.89933">
        <ele>154.2</ele>
        <time>2019-07-16T08:05:01Z</time>
      </trkpt>
      <trkpt lat="48.27788" lon="-1.89929">
        <ele>154.1</ele>
        <time>2019-07-16T08:05:02Z</time>
      </trkpt>
      <trkpt lat="48.27789" lon="-1.89925">
        <ele>153.8</ele>
        <time>2019-07-16T08:05:03Z</time>
      </trkpt>
      <trkpt lat="48.27789" lon="-1.8992">
        <ele>153.8</ele>
        <time>2019-07-16T08:05:04Z</time>
      </trkpt>
      <trkpt lat="48.2779" lon="-1.89916">
        <ele>153.5</ele>
        <time>2019-07-16T08:05:05Z</time>
      </trkpt>
      <trkpt lat="48.2779" lon="-1.89912">
        <ele>153.6</ele>
        <time>2019-07-16T08:05:06Z</time>
      </trkpt>
      <trkpt lat="48.2779" lon="-1.89907">
        <ele>153.3</ele>
        <time>2019-07-16T08:05:07Z</time>
      </trkpt>
      <trkpt lat="48.2779" lon="-1.89902">
        <ele>152.9</ele>
        <time>2019-07-16T08:05:08Z</time>
      </trkpt>
      <trkpt lat="48.27791" lon="-1.89897">
        <ele>152.6</ele>
        <time>2019-07-16T08:05:09Z</time>
      </trkpt>
      <trkpt lat="48.2779" lon="-1.89891">
        <ele>152.1</ele>
        <time>2019-07-16T08:05:10Z</time>
      </trkpt>
      <trkpt lat="48.2779" lon="-1.89885">
        <ele>151.3</ele>
        <time>2019-07-16T08:05:11Z</time>
      </trkpt>
      <trkpt lat="48.2779" lon="-1.89879">
        <ele>150.9</ele>
        <time>2019-07-16T08:05:12Z</time>
      </trkpt>
      <trkpt lat="48.2779" lon="-1.89873">
        <ele>150.3</ele>
        <time>2019-07-16T08:05:13Z</time>
      </trkpt>
      <trkpt lat="48.27789" lon="-1.89866">
        <ele>149.8</ele>
        <time>2019-07-16T08:05:14Z</time>
      </trkpt>
      <trkpt lat="48.27789" lon="-1.89858">
        <ele>149.2</ele>
        <time>2019-07-16T08:05:15Z</time>
      </trkpt>
      <trkpt lat="48.27789" lon="-1.89851">
        <ele>148.6</ele>
        <time>2019-07-16T08:05:16Z</time>
      </trkpt>
      <trkpt lat="48.27789" lon="-1.89842">
        <ele>147.9</ele>
        <time>2019-07-16T08:05:17Z</time>
      </trkpt>
      <trkpt lat="48.27789" lon="-1.89833">
        <ele>147.5</ele>
        <time>2019-07-16T08:05:18Z</time>
      </trkpt>
      <trkpt lat="48.27789" lon="-1.89824">
        <ele>147.3</ele>
        <time>2019-07-16T08:05:19Z</time>
      </trkpt>
      <trkpt lat="48.2779" lon="-1.89815">
        <ele>147</ele>
        <time>2019-07-16T08:05:20Z</time>
      </trkpt>
      <trkpt lat="48.2779" lon="-1.89805">
        <ele>146.2</ele>
        <time>2019-07-16T08:05:21Z</time>
      </trkpt>
      <trkpt lat="48.2779" lon="-1.89795">
        <ele>145.5</ele>
        <time>2019-07-16T08:05:22Z</time>
      </trkpt>
      <trkpt lat="48.27791" lon="-1.89784">
        <ele>144.7</ele>
        <time>2019-07-16T08:05:23Z</time>
      </trkpt>
      <trkpt lat="48.27791" lon="-1.89774">
        <ele>143.7</ele>
        <time>2019-07-16T08:05:24Z</time>
      </trkpt>
      <trkpt lat="48.27791" lon="-1.89763">
        <ele>143.5</ele>
        <time>2019-07-16T08:05:25Z</time>
      </trkpt>
      <trkpt lat="48.27791" lon="-1.89752">
        <ele>143.2</ele>
        <time>2019-07-16T08:05:26Z</time>
      </trkpt>
      <trkpt lat="48.27791" lon="-1.8974">
        <ele>142.8</ele>
        <time>2019-07-16T08:05:27Z</time>
      </trkpt>
      <trkpt lat="48.27791" lon="-1.89729">
        <ele>142.4</ele>
        <time>2019-07-16T08:05:28Z</time>
      </trkpt>
      <trkpt lat="48.27791" lon="-1.89718">
        <ele>142</ele>
        <time>2019-07-16T08:05:29Z</time>
      </trkpt>
      <trkpt lat="48.27791" lon="-1.89706">
        <ele>141.5</ele>
        <time>2019-07-16T08:05:30Z</time>
      </trkpt>
      <trkpt lat="48.27791" lon="-1.89694">
        <ele>141.1</ele>
        <time>2019-07-16T08:05:31Z</time>
      </trkpt>
      <trkpt lat="48.27791" lon="-1.89683">
        <ele>140.7</ele>
        <time>2019-07-16T08:05:32Z</time>
      </trkpt>
      <trkpt lat="48.27792" lon="-1.89671">
        <ele>140.2</ele>
        <time>2019-07-16T08:05:33Z</time>
      </trkpt>
      <trkpt lat="48.27792" lon="-1.89659">
        <ele>139.5</ele>
        <time>2019-07-16T08:05:34Z</time>
      </trkpt>
      <trkpt lat="48.27793" lon="-1.89647">
        <ele>139.1</ele>
        <time>2019-07-16T08:05:35Z</time>
      </trkpt>
      <trkpt lat="48.27794" lon="-1.89635">
        <ele>138.6</ele>
        <time>2019-07-16T08:05:36Z</time>
      </trkpt>
      <trkpt lat="48.27797" lon="-1.89623">
        <ele>138.2</ele>
        <time>2019-07-16T08:05:37Z</time>
      </trkpt>
      <trkpt lat="48.27801" lon="-1.89612">
        <ele>137.6</ele>
        <time>2019-07-16T08:05:38Z</time>
      </trkpt>
      <trkpt lat="48.27805" lon="-1.89602">
        <ele>137.3</ele>
        <time>2019-07-16T08:05:39Z</time>
      </trkpt>
      <trkpt lat="48.27809" lon="-1.89592">
        <ele>136.9</ele>
        <time>2019-07-16T08:05:40Z</time>
      </trkpt>
      <trkpt lat="48.27813" lon="-1.89584">
        <ele>136.6</ele>
        <time>2019-07-16T08:05:41Z</time>
      </trkpt>
      <trkpt lat="48.27816" lon="-1.89577">
        <ele>136.9</ele>
        <time>2019-07-16T08:05:42Z</time>
      </trkpt>
      <trkpt lat="48.27817" lon="-1.89571">
        <ele>138.1</ele>
        <time>2019-07-16T08:05:43Z</time>
      </trkpt>
      <trkpt lat="48.27817" lon="-1.89566">
        <ele>138.8</ele>
        <time>2019-07-16T08:05:44Z</time>
      </trkpt>
      <trkpt lat="48.27816" lon="-1.89561">
        <ele>138.9</ele>
        <time>2019-07-16T08:05:45Z</time>
      </trkpt>
      <trkpt lat="48.27812" lon="-1.89559">
        <ele>138.8</ele>
        <time>2019-07-16T08:05:46Z</time>
      </trkpt>
      <trkpt lat="48.27808" lon="-1.89557">
        <ele>138.9</ele>
        <time>2019-07-16T08:05:47Z</time>
      </trkpt>
      <trkpt lat="48.27805" lon="-1.89557">
        <ele>138.7</ele>
        <time>2019-07-16T08:05:48Z</time>
      </trkpt>
      <trkpt lat="48.27802" lon="-1.89557">
        <ele>138.6</ele>
        <time>2019-07-16T08:05:49Z</time>
      </trkpt>
      <trkpt lat="48.27798" lon="-1.89557">
        <ele>138.7</ele>
        <time>2019-07-16T08:05:50Z</time>
      </trkpt>
      <trkpt lat="48.27795" lon="-1.89558">
        <ele>138.5</ele>
        <time>2019-07-16T08:05:51Z</time>
      </trkpt>
      <trkpt lat="48.27791" lon="-1.89558">
        <ele>138.5</ele>
        <time>2019-07-16T08:05:52Z</time>
      </trkpt>
      <trkpt lat="48.27788" lon="-1.89557">
        <ele>138.8</ele>
        <time>2019-07-16T08:05:53Z</time>
      </trkpt>
      <trkpt lat="48.27785" lon="-1.89557">
        <ele>139</ele>
        <time>2019-07-16T08:05:54Z</time>
      </trkpt>
      <trkpt lat="48.27781" lon="-1.89557">
        <ele>139.3</ele>
        <time>2019-07-16T08:05:55Z</time>
      </trkpt>
      <trkpt lat="48.27778" lon="-1.89556">
        <ele>139.7</ele>
        <time>2019-07-16T08:05:56Z</time>
      </trkpt>
      <trkpt lat="48.27776" lon="-1.89555">
        <ele>139.9</ele>
        <time>2019-07-16T08:05:57Z</time>
      </trkpt>
      <trkpt lat="48.27773" lon="-1.89555">
        <ele>140</ele>
        <time>2019-07-16T08:05:58Z</time>
      </trkpt>
      <trkpt lat="48.2777" lon="-1.89554">
        <ele>139.9</ele>
        <time>2019-07-16T08:05:59Z</time>
      </trkpt>
      <trkpt lat="48.27766" lon="-1.89553">
        <ele>140.2</ele>
        <time>2019-07-16T08:06:00Z</time>
      </trkpt>
      <trkpt lat="48.27764" lon="-1.89552">
        <ele>140.5</ele>
        <time>2019-07-16T08:06:01Z</time>
      </trkpt>
      <trkpt lat="48.27761" lon="-1.89551">
        <ele>140.5</ele>
        <time>2019-07-16T08:06:02Z</time>
      </trkpt>
      <trkpt lat="48.27758" lon="-1.89551">
        <ele>140.4</ele>
        <time>2019-07-16T08:06:03Z</time>
      </trkpt>
      <trkpt lat="48.27755" lon="-1.89551">
        <ele>140.4</ele>
        <time>2019-07-16T08:06:04Z</time>
      </trkpt>
      <trkpt lat="48.27753" lon="-1.8955">
        <ele>140.5</ele>
        <time>2019-07-16T08:06:05Z</time>
      </trkpt>
      <trkpt lat="48.2775" lon="-1.8955">
        <ele>140.7</ele>
        <time>2019-07-16T08:06:06Z</time>
      </trkpt>
      <trkpt lat="48.27747" lon="-1.8955">
        <ele>141.1</ele>
        <time>2019-07-16T08:06:07Z</time>
      </trkpt>
      <trkpt lat="48.27745" lon="-1.8955">
        <ele>141.3</ele>
        <time>2019-07-16T08:06:08Z</time>
      </trkpt>
      <trkpt lat="48.27742" lon="-1.89549">
        <ele>141.4</ele>
        <time>2019-07-16T08:06:09Z</time>
      </trkpt>
      <trkpt lat="48.2774" lon="-1.89549">
        <ele>141.4</ele>
        <time>2019-07-16T08:06:10Z</time>
      </trkpt>
      <trkpt lat="48.27737" lon="-1.89549">
        <ele>141.4</ele>
        <time>2019-07-16T08:06:11Z</time>
      </trkpt>
      <trkpt lat="48.27734" lon="-1.89548">
        <ele>141.3</ele>
        <time>2019-07-16T08:06:12Z</time>
      </trkpt>
      <trkpt lat="48.27731" lon="-1.89548">
        <ele>141.3</ele>
        <time>2019-07-16T08:06:13Z</time>
      </trkpt>
      <trkpt lat="48.27729" lon="-1.89548">
        <ele>141.2</ele>
        <time>2019-07-16T08:06:14Z</time>
      </trkpt>
      <trkpt lat="48.27726" lon="-1.89548">
        <ele>141.2</ele>
        <time>2019-07-16T08:06:15Z</time>
      </trkpt>
      <trkpt lat="48.27723" lon="-1.89548">
        <ele>141.3</ele>
        <time>2019-07-16T08:06:16Z</time>
      </trkpt>
      <trkpt lat="48.2772" lon="-1.89548">
        <ele>141.2</ele>
        <time>2019-07-16T08:06:17Z</time>
      </trkpt>
      <trkpt lat="48.27717" lon="-1.89548">
        <ele>141.2</ele>
        <time>2019-07-16T08:06:18Z</time>
      </trkpt>
      <trkpt lat="48.27715" lon="-1.89548">
        <ele>141.3</ele>
        <time>2019-07-16T08:06:19Z</time>
      </trkpt>
      <trkpt lat="48.27712" lon="-1.89548">
        <ele>141.1</ele>
        <time>2019-07-16T08:06:20Z</time>
      </trkpt>
      <trkpt lat="48.27709" lon="-1.89548">
        <ele>141.1</ele>
        <time>2019-07-16T08:06:21Z</time>
      </trkpt>
      <trkpt lat="48.27706" lon="-1.89548">
        <ele>141.4</ele>
        <time>2019-07-16T08:06:22Z</time>
      </trkpt>
      <trkpt lat="48.27704" lon="-1.89547">
        <ele>141.8</ele>
        <time>2019-07-16T08:06:23Z</time>
      </trkpt>
      <trkpt lat="48.277" lon="-1.89548">
        <ele>141.5</ele>
        <time>2019-07-16T08:06:24Z</time>
      </trkpt>
      <trkpt lat="48.27697" lon="-1.89549">
        <ele>141.7</ele>
        <time>2019-07-16T08:06:25Z</time>
      </trkpt>
      <trkpt lat="48.27695" lon="-1.8955">
        <ele>141.8</ele>
        <time>2019-07-16T08:06:26Z</time>
      </trkpt>
      <trkpt lat="48.27692" lon="-1.8955">
        <ele>141.9</ele>
        <time>2019-07-16T08:06:27Z</time>
      </trkpt>
      <trkpt lat="48.27689" lon="-1.89551">
        <ele>142</ele>
        <time>2019-07-16T08:06:28Z</time>
      </trkpt>
      <trkpt lat="48.27686" lon="-1.89551">
        <ele>141.8</ele>
        <time>2019-07-16T08:06:29Z</time>
      </trkpt>
      <trkpt lat="48.27684" lon="-1.89552">
        <ele>141.6</ele>
        <time>2019-07-16T08:06:30Z</time>
      </trkpt>
      <trkpt lat="48.27681" lon="-1.89553">
        <ele>141.5</ele>
        <time>2019-07-16T08:06:31Z</time>
      </trkpt>
      <trkpt lat="48.27679" lon="-1.89554">
        <ele>141.2</ele>
        <time>2019-07-16T08:06:32Z</time>
      </trkpt>
      <trkpt lat="48.27676" lon="-1.89554">
        <ele>141.2</ele>
        <time>2019-07-16T08:06:33Z</time>
      </trkpt>
      <trkpt lat="48.27673" lon="-1.89555">
        <ele>141.4</ele>
        <time>2019-07-16T08:06:34Z</time>
      </trkpt>
      <trkpt lat="48.2767" lon="-1.89556">
        <ele>141.4</ele>
        <time>2019-07-16T08:06:35Z</time>
      </trkpt>
      <trkpt lat="48.27667" lon="-1.89556">
        <ele>141.7</ele>
        <time>2019-07-16T08:06:36Z</time>
      </trkpt>
      <trkpt lat="48.27664" lon="-1.89557">
        <ele>141.7</ele>
        <time>2019-07-16T08:06:37Z</time>
      </trkpt>
      <trkpt lat="48.27661" lon="-1.89557">
        <ele>141.8</ele>
        <time>2019-07-16T08:06:38Z</time>
      </trkpt>
      <trkpt lat="48.27658" lon="-1.89558">
        <ele>141.7</ele>
        <time>2019-07-16T08:06:39Z</time>
      </trkpt>
      <trkpt lat="48.27655" lon="-1.89559">
        <ele>141.7</ele>
        <time>2019-07-16T08:06:40Z</time>
      </trkpt>
      <trkpt lat="48.27652" lon="-1.89559">
        <ele>141.8</ele>
        <time>2019-07-16T08:06:41Z</time>
      </trkpt>
      <trkpt lat="48.2765" lon="-1.8956">
        <ele>142</ele>
        <time>2019-07-16T08:06:42Z</time>
      </trkpt>
      <trkpt lat="48.27647" lon="-1.8956">
        <ele>142.2</ele>
        <time>2019-07-16T08:06:43Z</time>
      </trkpt>
      <trkpt lat="48.27644" lon="-1.8956">
        <ele>142.2</ele>
        <time>2019-07-16T08:06:44Z</time>
      </trkpt>
      <trkpt lat="48.27641" lon="-1.89561">
        <ele>142.3</ele>
        <time>2019-07-16T08:06:45Z</time>
      </trkpt>
      <trkpt lat="48.27638" lon="-1.89562">
        <ele>142.5</ele>
        <time>2019-07-16T08:06:46Z</time>
      </trkpt>
      <trkpt lat="48.27635" lon="-1.89562">
        <ele>142.7</ele>
        <time>2019-07-16T08:06:47Z</time>
      </trkpt>
      <trkpt lat="48.27633" lon="-1.89563">
        <ele>142.9</ele>
        <time>2019-07-16T08:06:48Z</time>
      </trkpt>
      <trkpt lat="48.2763" lon="-1.89563">
        <ele>143.1</ele>
        <time>2019-07-16T08:06:49Z</time>
      </trkpt>
      <trkpt lat="48.27627" lon="-1.89563">
        <ele>143.2</ele>
        <time>2019-07-16T08:06:50Z</time>
      </trkpt>
      <trkpt lat="48.27625" lon="-1.89564">
        <ele>143.5</ele>
        <time>2019-07-16T08:06:51Z</time>
      </trkpt>
      <trkpt lat="48.27622" lon="-1.89564">
        <ele>143.8</ele>
        <time>2019-07-16T08:06:52Z</time>
      </trkpt>
      <trkpt lat="48.27619" lon="-1.89565">
        <ele>143.8</ele>
        <time>2019-07-16T08:06:53Z</time>
      </trkpt>
      <trkpt lat="48.27616" lon="-1.89565">
        <ele>143.6</ele>
        <time>2019-07-16T08:06:54Z</time>
      </trkpt>
      <trkpt lat="48.27613" lon="-1.89565">
        <ele>143.9</ele>
        <time>2019-07-16T08:06:55Z</time>
      </trkpt>
      <trkpt lat="48.2761" lon="-1.89565">
        <ele>144.1</ele>
        <time>2019-07-16T08:06:56Z</time>
      </trkpt>
      <trkpt lat="48.27607" lon="-1.89566">
        <ele>144.4</ele>
        <time>2019-07-16T08:06:57Z</time>
      </trkpt>
      <trkpt lat="48.27604" lon="-1.89567">
        <ele>144.5</ele>
        <time>2019-07-16T08:06:58Z</time>
      </trkpt>
      <trkpt lat="48.27601" lon="-1.8957">
        <ele>145.1</ele>
        <time>2019-07-16T08:06:59Z</time>
      </trkpt>
      <trkpt lat="48.27599" lon="-1.8957">
        <ele>145.5</ele>
        <time>2019-07-16T08:07:00Z</time>
      </trkpt>
      <trkpt lat="48.27596" lon="-1.89568">
        <ele>145.4</ele>
        <time>2019-07-16T08:07:01Z</time>
      </trkpt>
      <trkpt lat="48.27595" lon="-1.89566">
        <ele>145.5</ele>
        <time>2019-07-16T08:07:02Z</time>
      </trkpt>
      <trkpt lat="48.27594" lon="-1.89562">
        <ele>145.4</ele>
        <time>2019-07-16T08:07:03Z</time>
      </trkpt>
      <trkpt lat="48.27594" lon="-1.89556">
        <ele>144.9</ele>
        <time>2019-07-16T08:07:04Z</time>
      </trkpt>
      <trkpt lat="48.27594" lon="-1.8955">
        <ele>144.6</ele>
        <time>2019-07-16T08:07:05Z</time>
      </trkpt>
      <trkpt lat="48.27595" lon="-1.89544">
        <ele>144.4</ele>
        <time>2019-07-16T08:07:06Z</time>
      </trkpt>
      <trkpt lat="48.27596" lon="-1.89537">
        <ele>144.5</ele>
        <time>2019-07-16T08:07:07Z</time>
      </trkpt>
      <trkpt lat="48.27597" lon="-1.89531">
        <ele>144.4</ele>
        <time>2019-07-16T08:07:08Z</time>
      </trkpt>
      <trkpt lat="48.27598" lon="-1.89524">
        <ele>144.2</ele>
        <time>2019-07-16T08:07:09Z</time>
      </trkpt>
      <trkpt lat="48.27599" lon="-1.89519">
        <ele>144.1</ele>
        <time>2019-07-16T08:07:10Z</time>
      </trkpt>
      <trkpt lat="48.276" lon="-1.89513">
        <ele>144.2</ele>
        <time>2019-07-16T08:07:11Z</time>
      </trkpt>
      <trkpt lat="48.27601" lon="-1.89508">
        <ele>144.1</ele>
        <time>2019-07-16T08:07:12Z</time>
      </trkpt>
      <trkpt lat="48.27602" lon="-1.89501">
        <ele>144</ele>
        <time>2019-07-16T08:07:13Z</time>
      </trkpt>
      <trkpt lat="48.27603" lon="-1.89494">
        <ele>143.9</ele>
        <time>2019-07-16T08:07:14Z</time>
      </trkpt>
      <trkpt lat="48.27603" lon="-1.89487">
        <ele>143.6</ele>
        <time>2019-07-16T08:07:15Z</time>
      </trkpt>
      <trkpt lat="48.27603" lon="-1.8948">
        <ele>143.5</ele>
        <time>2019-07-16T08:07:16Z</time>
      </trkpt>
      <trkpt lat="48.27603" lon="-1.89473">
        <ele>143.4</ele>
        <time>2019-07-16T08:07:17Z</time>
      </trkpt>
      <trkpt lat="48.27604" lon="-1.89465">
        <ele>143.7</ele>
        <time>2019-07-16T08:07:18Z</time>
      </trkpt>
      <trkpt lat="48.27605" lon="-1.89458">
        <ele>143.7</ele>
        <time>2019-07-16T08:07:19Z</time>
      </trkpt>
      <trkpt lat="48.27605" lon="-1.8945">
        <ele>143.7</ele>
        <time>2019-07-16T08:07:20Z</time>
      </trkpt>
      <trkpt lat="48.27606" lon="-1.89441">
        <ele>143.9</ele>
        <time>2019-07-16T08:07:21Z</time>
      </trkpt>
      <trkpt lat="48.27607" lon="-1.89433">
        <ele>144</ele>
        <time>2019-07-16T08:07:22Z</time>
      </trkpt>
      <trkpt lat="48.27608" lon="-1.89424">
        <ele>144.2</ele>
        <time>2019-07-16T08:07:23Z</time>
      </trkpt>
      <trkpt lat="48.27609" lon="-1.89415">
        <ele>144</ele>
        <time>2019-07-16T08:07:24Z</time>
      </trkpt>
      <trkpt lat="48.27609" lon="-1.89405">
        <ele>144.2</ele>
        <time>2019-07-16T08:07:25Z</time>
      </trkpt>
      <trkpt lat="48.27609" lon="-1.89396">
        <ele>142.9</ele>
        <time>2019-07-16T08:07:26Z</time>
      </trkpt>
      <trkpt lat="48.27609" lon="-1.89386">
        <ele>142.7</ele>
        <time>2019-07-16T08:07:27Z</time>
      </trkpt>
      <trkpt lat="48.27609" lon="-1.89376">
        <ele>142.5</ele>
        <time>2019-07-16T08:07:28Z</time>
      </trkpt>
      <trkpt lat="48.27609" lon="-1.89367">
        <ele>142.1</ele>
        <time>2019-07-16T08:07:29Z</time>
      </trkpt>
      <trkpt lat="48.2761" lon="-1.89357">
        <ele>141.6</ele>
        <time>2019-07-16T08:07:30Z</time>
      </trkpt>
      <trkpt lat="48.2761" lon="-1.89348">
        <ele>141.2</ele>
        <time>2019-07-16T08:07:31Z</time>
      </trkpt>
      <trkpt lat="48.2761" lon="-1.89338">
        <ele>140.7</ele>
        <time>2019-07-16T08:07:32Z</time>
      </trkpt>
      <trkpt lat="48.27611" lon="-1.89328">
        <ele>140.3</ele>
        <time>2019-07-16T08:07:33Z</time>
      </trkpt>
      <trkpt lat="48.27611" lon="-1.89318">
        <ele>139.8</ele>
        <time>2019-07-16T08:07:34Z</time>
      </trkpt>
      <trkpt lat="48.27612" lon="-1.89308">
        <ele>139.3</ele>
        <time>2019-07-16T08:07:35Z</time>
      </trkpt>
      <trkpt lat="48.27613" lon="-1.89298">
        <ele>138.8</ele>
        <time>2019-07-16T08:07:36Z</time>
      </trkpt>
      <trkpt lat="48.27613" lon="-1.89287">
        <ele>138.4</ele>
        <time>2019-07-16T08:07:37Z</time>
      </trkpt>
      <trkpt lat="48.27614" lon="-1.89276">
        <ele>137.9</ele>
        <time>2019-07-16T08:07:38Z</time>
      </trkpt>
      <trkpt lat="48.27615" lon="-1.89264">
        <ele>137.3</ele>
        <time>2019-07-16T08:07:39Z</time>
      </trkpt>
      <trkpt lat="48.27615" lon="-1.89253">
        <ele>136.9</ele>
        <time>2019-07-16T08:07:40Z</time>
      </trkpt>
      <trkpt lat="48.27616" lon="-1.89241">
        <ele>136.5</ele>
        <time>2019-07-16T08:07:41Z</time>
      </trkpt>
      <trkpt lat="48.27617" lon="-1.89229">
        <ele>136.1</ele>
        <time>2019-07-16T08:07:42Z</time>
      </trkpt>
      <trkpt lat="48.27617" lon="-1.89217">
        <ele>135.4</ele>
        <time>2019-07-16T08:07:43Z</time>
      </trkpt>
      <trkpt lat="48.27617" lon="-1.89205">
        <ele>135</ele>
        <time>2019-07-16T08:07:44Z</time>
      </trkpt>
      <trkpt lat="48.27618" lon="-1.89193">
        <ele>134.7</ele>
        <time>2019-07-16T08:07:45Z</time>
      </trkpt>
      <trkpt lat="48.27618" lon="-1.89181">
        <ele>134.5</ele>
        <time>2019-07-16T08:07:46Z</time>
      </trkpt>
      <trkpt lat="48.27618" lon="-1.89169">
        <ele>133.8</ele>
        <time>2019-07-16T08:07:47Z</time>
      </trkpt>
      <trkpt lat="48.27619" lon="-1.89157">
        <ele>133.4</ele>
        <time>2019-07-16T08:07:48Z</time>
      </trkpt>
      <trkpt lat="48.27619" lon="-1.89145">
        <ele>133.3</ele>
        <time>2019-07-16T08:07:49Z</time>
      </trkpt>
      <trkpt lat="48.27619" lon="-1.89133">
        <ele>133.1</ele>
        <time>2019-07-16T08:07:50Z</time>
      </trkpt>
      <trkpt lat="48.27619" lon="-1.89121">
        <ele>132.7</ele>
        <time>2019-07-16T08:07:51Z</time>
      </trkpt>
      <trkpt lat="48.27619" lon="-1.89109">
        <ele>132.4</ele>
        <time>2019-07-16T08:07:52Z</time>
      </trkpt>
      <trkpt lat="48.27618" lon="-1.89099">
        <ele>132.7</ele>
        <time>2019-07-16T08:07:53Z</time>
      </trkpt>
      <trkpt lat="48.27618" lon="-1.89089">
        <ele>133.1</ele>
        <time>2019-07-16T08:07:54Z</time>
      </trkpt>
      <trkpt lat="48.27617" lon="-1.89079">
        <ele>133.2</ele>
        <time>2019-07-16T08:07:55Z</time>
      </trkpt>
      <trkpt lat="48.27617" lon="-1.89071">
        <ele>133.4</ele>
        <time>2019-07-16T08:07:56Z</time>
      </trkpt>
      <trkpt lat="48.27615" lon="-1.89062">
        <ele>133.7</ele>
        <time>2019-07-16T08:07:57Z</time>
      </trkpt>
      <trkpt lat="48.27615" lon="-1.89055">
        <ele>133.9</ele>
        <time>2019-07-16T08:07:58Z</time>
      </trkpt>
      <trkpt lat="48.27615" lon="-1.89049">
        <ele>134</ele>
        <time>2019-07-16T08:07:59Z</time>
      </trkpt>
      <trkpt lat="48.27615" lon="-1.89043">
        <ele>134.1</ele>
        <time>2019-07-16T08:08:00Z</time>
      </trkpt>
      <trkpt lat="48.27617" lon="-1.89038">
        <ele>134.3</ele>
        <time>2019-07-16T08:08:01Z</time>
      </trkpt>
      <trkpt lat="48.27619" lon="-1.89035">
        <ele>134.1</ele>
        <time>2019-07-16T08:08:02Z</time>
      </trkpt>
      <trkpt lat="48.27622" lon="-1.89032">
        <ele>133.7</ele>
        <time>2019-07-16T08:08:03Z</time>
      </trkpt>
      <trkpt lat="48.27625" lon="-1.8903">
        <ele>133.9</ele>
        <time>2019-07-16T08:08:04Z</time>
      </trkpt>
      <trkpt lat="48.27629" lon="-1.89028">
        <ele>134.1</ele>
        <time>2019-07-16T08:08:05Z</time>
      </trkpt>
      <trkpt lat="48.27633" lon="-1.89026">
        <ele>134.3</ele>
        <time>2019-07-16T08:08:06Z</time>
      </trkpt>
      <trkpt lat="48.27637" lon="-1.89023">
        <ele>134.4</ele>
        <time>2019-07-16T08:08:07Z</time>
      </trkpt>
      <trkpt lat="48.27641" lon="-1.89021">
        <ele>134.5</ele>
        <time>2019-07-16T08:08:08Z</time>
      </trkpt>
      <trkpt lat="48.27645" lon="-1.89019">
        <ele>134.8</ele>
        <time>2019-07-16T08:08:09Z</time>
      </trkpt>
      <trkpt lat="48.27649" lon="-1.89016">
        <ele>135.1</ele>
        <time>2019-07-16T08:08:10Z</time>
      </trkpt>
      <trkpt lat="48.27652" lon="-1.89014">
        <ele>134.9</ele>
        <time>2019-07-16T08:08:11Z</time>
      </trkpt>
      <trkpt lat="48.27656" lon="-1.89011">
        <ele>134.6</ele>
        <time>2019-07-16T08:08:12Z</time>
      </trkpt>
      <trkpt lat="48.2766" lon="-1.89009">
        <ele>134.8</ele>
        <time>2019-07-16T08:08:13Z</time>
      </trkpt>
      <trkpt lat="48.27664" lon="-1.89007">
        <ele>135.1</ele>
        <time>2019-07-16T08:08:14Z</time>
      </trkpt>
      <trkpt lat="48.27668" lon="-1.89005">
        <ele>135.3</ele>
        <time>2019-07-16T08:08:15Z</time>
      </trkpt>
      <trkpt lat="48.27672" lon="-1.89003">
        <ele>135.6</ele>
        <time>2019-07-16T08:08:16Z</time>
      </trkpt>
      <trkpt lat="48.27676" lon="-1.89">
        <ele>135.9</ele>
        <time>2019-07-16T08:08:17Z</time>
      </trkpt>
      <trkpt lat="48.2768" lon="-1.88998">
        <ele>136</ele>
        <time>2019-07-16T08:08:18Z</time>
      </trkpt>
      <trkpt lat="48.27684" lon="-1.88996">
        <ele>136</ele>
        <time>2019-07-16T08:08:19Z</time>
      </trkpt>
      <trkpt lat="48.27688" lon="-1.88994">
        <ele>135.9</ele>
        <time>2019-07-16T08:08:20Z</time>
      </trkpt>
      <trkpt lat="48.27692" lon="-1.88991">
        <ele>136</ele>
        <time>2019-07-16T08:08:21Z</time>
      </trkpt>
      <trkpt lat="48.27697" lon="-1.88988">
        <ele>136</ele>
        <time>2019-07-16T08:08:22Z</time>
      </trkpt>
      <trkpt lat="48.27701" lon="-1.88985">
        <ele>135.8</ele>
        <time>2019-07-16T08:08:23Z</time>
      </trkpt>
      <trkpt lat="48.27705" lon="-1.88982">
        <ele>135.7</ele>
        <time>2019-07-16T08:08:24Z</time>
      </trkpt>
      <trkpt lat="48.2771" lon="-1.88979">
        <ele>135.8</ele>
        <time>2019-07-16T08:08:25Z</time>
      </trkpt>
      <trkpt lat="48.27715" lon="-1.88976">
        <ele>135.8</ele>
        <time>2019-07-16T08:08:26Z</time>
      </trkpt>
      <trkpt lat="48.2772" lon="-1.88973">
        <ele>135.6</ele>
        <time>2019-07-16T08:08:27Z</time>
      </trkpt>
      <trkpt lat="48.27725" lon="-1.8897">
        <ele>135.3</ele>
        <time>2019-07-16T08:08:28Z</time>
      </trkpt>
      <trkpt lat="48.2773" lon="-1.88967">
        <ele>135.2</ele>
        <time>2019-07-16T08:08:29Z</time>
      </trkpt>
      <trkpt lat="48.27735" lon="-1.88963">
        <ele>135.1</ele>
        <time>2019-07-16T08:08:30Z</time>
      </trkpt>
      <trkpt lat="48.2774" lon="-1.8896">
        <ele>135</ele>
        <time>2019-07-16T08:08:31Z</time>
      </trkpt>
      <trkpt lat="48.27745" lon="-1.88957">
        <ele>134.7</ele>
        <time>2019-07-16T08:08:32Z</time>
      </trkpt>
      <trkpt lat="48.2775" lon="-1.88953">
        <ele>134.2</ele>
        <time>2019-07-16T08:08:33Z</time>
      </trkpt>
      <trkpt lat="48.27755" lon="-1.8895">
        <ele>133.7</ele>
        <time>2019-07-16T08:08:34Z</time>
      </trkpt>
      <trkpt lat="48.2776" lon="-1.88946">
        <ele>133.7</ele>
        <time>2019-07-16T08:08:35Z</time>
      </trkpt>
      <trkpt lat="48.27766" lon="-1.88943">
        <ele>133.8</ele>
        <time>2019-07-16T08:08:36Z</time>
      </trkpt>
      <trkpt lat="48.27771" lon="-1.88939">
        <ele>133.9</ele>
        <time>2019-07-16T08:08:37Z</time>
      </trkpt>
      <trkpt lat="48.27777" lon="-1.88936">
        <ele>134</ele>
        <time>2019-07-16T08:08:38Z</time>
      </trkpt>
      <trkpt lat="48.27782" lon="-1.88933">
        <ele>134.1</ele>
        <time>2019-07-16T08:08:39Z</time>
      </trkpt>
      <trkpt lat="48.27787" lon="-1.8893">
        <ele>134.3</ele>
        <time>2019-07-16T08:08:40Z</time>
      </trkpt>
      <trkpt lat="48.27793" lon="-1.88926">
        <ele>134.3</ele>
        <time>2019-07-16T08:08:41Z</time>
      </trkpt>
      <trkpt lat="48.27798" lon="-1.88923">
        <ele>134.3</ele>
        <time>2019-07-16T08:08:42Z</time>
      </trkpt>
      <trkpt lat="48.27803" lon="-1.8892">
        <ele>134.6</ele>
        <time>2019-07-16T08:08:43Z</time>
      </trkpt>
      <trkpt lat="48.27808" lon="-1.88917">
        <ele>134.9</ele>
        <time>2019-07-16T08:08:44Z</time>
      </trkpt>
      <trkpt lat="48.27814" lon="-1.88914">
        <ele>135.2</ele>
        <time>2019-07-16T08:08:45Z</time>
      </trkpt>
      <trkpt lat="48.27819" lon="-1.88911">
        <ele>135.5</ele>
        <time>2019-07-16T08:08:46Z</time>
      </trkpt>
      <trkpt lat="48.27824" lon="-1.88909">
        <ele>135.6</ele>
        <time>2019-07-16T08:08:47Z</time>
      </trkpt>
      <trkpt lat="48.27829" lon="-1.88906">
        <ele>135.7</ele>
        <time>2019-07-16T08:08:48Z</time>
      </trkpt>
      <trkpt lat="48.27834" lon="-1.88903">
        <ele>135.8</ele>
        <time>2019-07-16T08:08:49Z</time>
      </trkpt>
      <trkpt lat="48.27839" lon="-1.889">
        <ele>136.3</ele>
        <time>2019-07-16T08:08:50Z</time>
      </trkpt>
      <trkpt lat="48.27844" lon="-1.88897">
        <ele>136</ele>
        <time>2019-07-16T08:08:51Z</time>
      </trkpt>
      <trkpt lat="48.2785" lon="-1.88895">
        <ele>134.8</ele>
        <time>2019-07-16T08:08:52Z</time>
      </trkpt>
      <trkpt lat="48.27855" lon="-1.88893">
        <ele>133.9</ele>
        <time>2019-07-16T08:08:53Z</time>
      </trkpt>
      <trkpt lat="48.2786" lon="-1.8889">
        <ele>133.1</ele>
        <time>2019-07-16T08:08:54Z</time>
      </trkpt>
      <trkpt lat="48.27864" lon="-1.88888">
        <ele>132.9</ele>
        <time>2019-07-16T08:08:55Z</time>
      </trkpt>
      <trkpt lat="48.27869" lon="-1.88886">
        <ele>133.1</ele>
        <time>2019-07-16T08:08:56Z</time>
      </trkpt>
      <trkpt lat="48.27873" lon="-1.88883">
        <ele>133.2</ele>
        <time>2019-07-16T08:08:57Z</time>
      </trkpt>
      <trkpt lat="48.27877" lon="-1.8888">
        <ele>133.3</ele>
        <time>2019-07-16T08:08:58Z</time>
      </trkpt>
      <trkpt lat="48.27881" lon="-1.88878">
        <ele>133.1</ele>
        <time>2019-07-16T08:08:59Z</time>
      </trkpt>
      <trkpt lat="48.27884" lon="-1.88875">
        <ele>133.8</ele>
        <time>2019-07-16T08:09:00Z</time>
      </trkpt>
      <trkpt lat="48.27887" lon="-1.88872">
        <ele>134.3</ele>
        <time>2019-07-16T08:09:01Z</time>
      </trkpt>
      <trkpt lat="48.2789" lon="-1.88867">
        <ele>134.4</ele>
        <time>2019-07-16T08:09:02Z</time>
      </trkpt>
      <trkpt lat="48.27893" lon="-1.88862">
        <ele>134.6</ele>
        <time>2019-07-16T08:09:03Z</time>
      </trkpt>
      <trkpt lat="48.27894" lon="-1.88859">
        <ele>134.8</ele>
        <time>2019-07-16T08:09:04Z</time>
      </trkpt>
      <trkpt lat="48.27895" lon="-1.88856">
        <ele>135</ele>
        <time>2019-07-16T08:09:05Z</time>
      </trkpt>
      <trkpt lat="48.27897" lon="-1.88851">
        <ele>135.1</ele>
        <time>2019-07-16T08:09:18Z</time>
      </trkpt>
      <trkpt lat="48.27898" lon="-1.8885">
        <ele>135.2</ele>
        <time>2019-07-16T08:09:19Z</time>
      </trkpt>
      <trkpt lat="48.279" lon="-1.8885">
        <ele>135.3</ele>
        <time>2019-07-16T08:09:20Z</time>
      </trkpt>
      <trkpt lat="48.27902" lon="-1.88851">
        <ele>135.5</ele>
        <time>2019-07-16T08:09:21Z</time>
      </trkpt>
      <trkpt lat="48.27904" lon="-1.88852">
        <ele>135.6</ele>
        <time>2019-07-16T08:09:22Z</time>
      </trkpt>
      <trkpt lat="48.27906" lon="-1.88854">
        <ele>135.5</ele>
        <time>2019-07-16T08:09:23Z</time>
      </trkpt>
      <trkpt lat="48.27909" lon="-1.88855">
        <ele>135.3</ele>
        <time>2019-07-16T08:09:24Z</time>
      </trkpt>
      <trkpt lat="48.27911" lon="-1.88856">
        <ele>135.1</ele>
        <time>2019-07-16T08:09:25Z</time>
      </trkpt>
      <trkpt lat="48.27914" lon="-1.88856">
        <ele>135.1</ele>
        <time>2019-07-16T08:09:26Z</time>
      </trkpt>
      <trkpt lat="48.27916" lon="-1.88856">
        <ele>135.2</ele>
        <time>2019-07-16T08:09:27Z</time>
      </trkpt>
      <trkpt lat="48.27918" lon="-1.88856">
        <ele>135.2</ele>
        <time>2019-07-16T08:09:28Z</time>
      </trkpt>
      <trkpt lat="48.27919" lon="-1.88857">
        <ele>135.4</ele>
        <time>2019-07-16T08:09:29Z</time>
      </trkpt>
      <trkpt lat="48.27921" lon="-1.88858">
        <ele>135.3</ele>
        <time>2019-07-16T08:09:30Z</time>
      </trkpt>
      <trkpt lat="48.27922" lon="-1.88859">
        <ele>135</ele>
        <time>2019-07-16T08:09:31Z</time>
      </trkpt>
      <trkpt lat="48.27925" lon="-1.8886">
        <ele>134.6</ele>
        <time>2019-07-16T08:09:32Z</time>
      </trkpt>
      <trkpt lat="48.27928" lon="-1.88858">
        <ele>134.3</ele>
        <time>2019-07-16T08:09:33Z</time>
      </trkpt>
      <trkpt lat="48.27932" lon="-1.88857">
        <ele>134.7</ele>
        <time>2019-07-16T08:09:34Z</time>
      </trkpt>
      <trkpt lat="48.27935" lon="-1.88856">
        <ele>135</ele>
        <time>2019-07-16T08:09:35Z</time>
      </trkpt>
      <trkpt lat="48.27939" lon="-1.88855">
        <ele>135.5</ele>
        <time>2019-07-16T08:09:36Z</time>
      </trkpt>
      <trkpt lat="48.27943" lon="-1.88854">
        <ele>135.8</ele>
        <time>2019-07-16T08:09:37Z</time>
      </trkpt>
      <trkpt lat="48.27947" lon="-1.88853">
        <ele>135.9</ele>
        <time>2019-07-16T08:09:38Z</time>
      </trkpt>
      <trkpt lat="48.27951" lon="-1.88851">
        <ele>136</ele>
        <time>2019-07-16T08:09:39Z</time>
      </trkpt>
      <trkpt lat="48.27955" lon="-1.8885">
        <ele>135.9</ele>
        <time>2019-07-16T08:09:40Z</time>
      </trkpt>
      <trkpt lat="48.27959" lon="-1.88849">
        <ele>135.8</ele>
        <time>2019-07-16T08:09:41Z</time>
      </trkpt>
      <trkpt lat="48.27963" lon="-1.88848">
        <ele>135.6</ele>
        <time>2019-07-16T08:09:42Z</time>
      </trkpt>
      <trkpt lat="48.27968" lon="-1.88846">
        <ele>135.3</ele>
        <time>2019-07-16T08:09:43Z</time>
      </trkpt>
      <trkpt lat="48.27972" lon="-1.88844">
        <ele>135.3</ele>
        <time>2019-07-16T08:09:44Z</time>
      </trkpt>
      <trkpt lat="48.27976" lon="-1.88842">
        <ele>135.4</ele>
        <time>2019-07-16T08:09:45Z</time>
      </trkpt>
      <trkpt lat="48.2798" lon="-1.88838">
        <ele>135.6</ele>
        <time>2019-07-16T08:09:46Z</time>
      </trkpt>
      <trkpt lat="48.27984" lon="-1.88834">
        <ele>135.4</ele>
        <time>2019-07-16T08:09:47Z</time>
      </trkpt>
      <trkpt lat="48.27988" lon="-1.8883">
        <ele>135.4</ele>
        <time>2019-07-16T08:09:48Z</time>
      </trkpt>
      <trkpt lat="48.27992" lon="-1.88825">
        <ele>135.4</ele>
        <time>2019-07-16T08:09:49Z</time>
      </trkpt>
      <trkpt lat="48.27995" lon="-1.8882">
        <ele>135.2</ele>
        <time>2019-07-16T08:09:50Z</time>
      </trkpt>
      <trkpt lat="48.27998" lon="-1.88815">
        <ele>135.1</ele>
        <time>2019-07-16T08:09:51Z</time>
      </trkpt>
      <trkpt lat="48.28001" lon="-1.8881">
        <ele>135.2</ele>
        <time>2019-07-16T08:09:52Z</time>
      </trkpt>
      <trkpt lat="48.28005" lon="-1.88806">
        <ele>135.2</ele>
        <time>2019-07-16T08:09:53Z</time>
      </trkpt>
      <trkpt lat="48.28009" lon="-1.88801">
        <ele>135</ele>
        <time>2019-07-16T08:09:54Z</time>
      </trkpt>
      <trkpt lat="48.28013" lon="-1.88797">
        <ele>134.8</ele>
        <time>2019-07-16T08:09:55Z</time>
      </trkpt>
      <trkpt lat="48.28017" lon="-1.88793">
        <ele>134.5</ele>
        <time>2019-07-16T08:09:56Z</time>
      </trkpt>
      <trkpt lat="48.28021" lon="-1.88789">
        <ele>134.2</ele>
        <time>2019-07-16T08:09:57Z</time>
      </trkpt>
      <trkpt lat="48.28025" lon="-1.88785">
        <ele>133.7</ele>
        <time>2019-07-16T08:09:58Z</time>
      </trkpt>
      <trkpt lat="48.28029" lon="-1.88782">
        <ele>133.1</ele>
        <time>2019-07-16T08:09:59Z</time>
      </trkpt>
      <trkpt lat="48.28033" lon="-1.88778">
        <ele>133.1</ele>
        <time>2019-07-16T08:10:00Z</time>
      </trkpt>
      <trkpt lat="48.28037" lon="-1.88776">
        <ele>132.8</ele>
        <time>2019-07-16T08:10:01Z</time>
      </trkpt>
      <trkpt lat="48.28042" lon="-1.88774">
        <ele>132.6</ele>
        <time>2019-07-16T08:10:02Z</time>
      </trkpt>
      <trkpt lat="48.28046" lon="-1.88772">
        <ele>132.6</ele>
        <time>2019-07-16T08:10:03Z</time>
      </trkpt>
      <trkpt lat="48.28051" lon="-1.8877">
        <ele>132.2</ele>
        <time>2019-07-16T08:10:04Z</time>
      </trkpt>
      <trkpt lat="48.28056" lon="-1.88768">
        <ele>132.2</ele>
        <time>2019-07-16T08:10:05Z</time>
      </trkpt>
      <trkpt lat="48.28061" lon="-1.88767">
        <ele>132.3</ele>
        <time>2019-07-16T08:10:06Z</time>
      </trkpt>
      <trkpt lat="48.28066" lon="-1.88766">
        <ele>132.5</ele>
        <time>2019-07-16T08:10:07Z</time>
      </trkpt>
      <trkpt lat="48.2807" lon="-1.88764">
        <ele>132.7</ele>
        <time>2019-07-16T08:10:08Z</time>
      </trkpt>
      <trkpt lat="48.28076" lon="-1.88763">
        <ele>132.9</ele>
        <time>2019-07-16T08:10:09Z</time>
      </trkpt>
      <trkpt lat="48.28082" lon="-1.88763">
        <ele>132.7</ele>
        <time>2019-07-16T08:10:10Z</time>
      </trkpt>
      <trkpt lat="48.28087" lon="-1.88762">
        <ele>132.6</ele>
        <time>2019-07-16T08:10:11Z</time>
      </trkpt>
      <trkpt lat="48.28093" lon="-1.88762">
        <ele>132.3</ele>
        <time>2019-07-16T08:10:12Z</time>
      </trkpt>
      <trkpt lat="48.28098" lon="-1.88761">
        <ele>132.6</ele>
        <time>2019-07-16T08:10:13Z</time>
      </trkpt>
      <trkpt lat="48.28104" lon="-1.88761">
        <ele>132.8</ele>
        <time>2019-07-16T08:10:14Z</time>
      </trkpt>
      <trkpt lat="48.2811" lon="-1.88762">
        <ele>132.8</ele>
        <time>2019-07-16T08:10:15Z</time>
      </trkpt>
      <trkpt lat="48.28116" lon="-1.88763">
        <ele>132.8</ele>
        <time>2019-07-16T08:10:16Z</time>
      </trkpt>
      <trkpt lat="48.28122" lon="-1.88765">
        <ele>132.9</ele>
        <time>2019-07-16T08:10:17Z</time>
      </trkpt>
      <trkpt lat="48.28128" lon="-1.88767">
        <ele>132.8</ele>
        <time>2019-07-16T08:10:18Z</time>
      </trkpt>
      <trkpt lat="48.28135" lon="-1.88769">
        <ele>132.9</ele>
        <time>2019-07-16T08:10:19Z</time>
      </trkpt>
      <trkpt lat="48.28141" lon="-1.88772">
        <ele>133.1</ele>
        <time>2019-07-16T08:10:20Z</time>
      </trkpt>
      <trkpt lat="48.28148" lon="-1.88776">
        <ele>133.3</ele>
        <time>2019-07-16T08:10:21Z</time>
      </trkpt>
      <trkpt lat="48.28154" lon="-1.88779">
        <ele>133.3</ele>
        <time>2019-07-16T08:10:22Z</time>
      </trkpt>
      <trkpt lat="48.2816" lon="-1.88782">
        <ele>133.1</ele>
        <time>2019-07-16T08:10:23Z</time>
      </trkpt>
      <trkpt lat="48.28166" lon="-1.88785">
        <ele>133.1</ele>
        <time>2019-07-16T08:10:24Z</time>
      </trkpt>
      <trkpt lat="48.28172" lon="-1.88789">
        <ele>133.2</ele>
        <time>2019-07-16T08:10:25Z</time>
      </trkpt>
      <trkpt lat="48.28178" lon="-1.88792">
        <ele>133.2</ele>
        <time>2019-07-16T08:10:26Z</time>
      </trkpt>
      <trkpt lat="48.28184" lon="-1.88795">
        <ele>133.3</ele>
        <time>2019-07-16T08:10:27Z</time>
      </trkpt>
      <trkpt lat="48.2819" lon="-1.88798">
        <ele>133.3</ele>
        <time>2019-07-16T08:10:28Z</time>
      </trkpt>
      <trkpt lat="48.28196" lon="-1.888">
        <ele>133.3</ele>
        <time>2019-07-16T08:10:29Z</time>
      </trkpt>
      <trkpt lat="48.28202" lon="-1.88802">
        <ele>133.3</ele>
        <time>2019-07-16T08:10:30Z</time>
      </trkpt>
      <trkpt lat="48.28208" lon="-1.88804">
        <ele>133.3</ele>
        <time>2019-07-16T08:10:31Z</time>
      </trkpt>
      <trkpt lat="48.28214" lon="-1.88806">
        <ele>133.1</ele>
        <time>2019-07-16T08:10:32Z</time>
      </trkpt>
      <trkpt lat="48.2822" lon="-1.88808">
        <ele>133.1</ele>
        <time>2019-07-16T08:10:33Z</time>
      </trkpt>
      <trkpt lat="48.28226" lon="-1.88809">
        <ele>133.1</ele>
        <time>2019-07-16T08:10:34Z</time>
      </trkpt>
      <trkpt lat="48.28232" lon="-1.8881">
        <ele>133.1</ele>
        <time>2019-07-16T08:10:35Z</time>
      </trkpt>
      <trkpt lat="48.28237" lon="-1.88812">
        <ele>133.3</ele>
        <time>2019-07-16T08:10:36Z</time>
      </trkpt>
      <trkpt lat="48.28243" lon="-1.88813">
        <ele>133.4</ele>
        <time>2019-07-16T08:10:37Z</time>
      </trkpt>
      <trkpt lat="48.28248" lon="-1.88815">
        <ele>133.7</ele>
        <time>2019-07-16T08:10:38Z</time>
      </trkpt>
      <trkpt lat="48.28254" lon="-1.88816">
        <ele>133.8</ele>
        <time>2019-07-16T08:10:39Z</time>
      </trkpt>
      <trkpt lat="48.28259" lon="-1.88817">
        <ele>134.1</ele>
        <time>2019-07-16T08:10:40Z</time>
      </trkpt>
      <trkpt lat="48.28264" lon="-1.88817">
        <ele>134.1</ele>
        <time>2019-07-16T08:10:41Z</time>
      </trkpt>
      <trkpt lat="48.2827" lon="-1.88818">
        <ele>134.3</ele>
        <time>2019-07-16T08:10:42Z</time>
      </trkpt>
      <trkpt lat="48.28275" lon="-1.88819">
        <ele>134.7</ele>
        <time>2019-07-16T08:10:43Z</time>
      </trkpt>
      <trkpt lat="48.2828" lon="-1.8882">
        <ele>134.6</ele>
        <time>2019-07-16T08:10:44Z</time>
      </trkpt>
      <trkpt lat="48.28285" lon="-1.88821">
        <ele>135</ele>
        <time>2019-07-16T08:10:45Z</time>
      </trkpt>
      <trkpt lat="48.28289" lon="-1.88822">
        <ele>135.1</ele>
        <time>2019-07-16T08:10:46Z</time>
      </trkpt>
      <trkpt lat="48.28294" lon="-1.88823">
        <ele>135.5</ele>
        <time>2019-07-16T08:10:47Z</time>
      </trkpt>
      <trkpt lat="48.28299" lon="-1.88824">
        <ele>135.8</ele>
        <time>2019-07-16T08:10:48Z</time>
      </trkpt>
      <trkpt lat="48.28303" lon="-1.88825">
        <ele>136.1</ele>
        <time>2019-07-16T08:10:49Z</time>
      </trkpt>
      <trkpt lat="48.28307" lon="-1.88826">
        <ele>136.6</ele>
        <time>2019-07-16T08:10:50Z</time>
      </trkpt>
      <trkpt lat="48.28311" lon="-1.88827">
        <ele>137</ele>
        <time>2019-07-16T08:10:51Z</time>
      </trkpt>
      <trkpt lat="48.28315" lon="-1.88827">
        <ele>137.2</ele>
        <time>2019-07-16T08:10:52Z</time>
      </trkpt>
      <trkpt lat="48.28319" lon="-1.88828">
        <ele>137.5</ele>
        <time>2019-07-16T08:10:53Z</time>
      </trkpt>
      <trkpt lat="48.28323" lon="-1.88828">
        <ele>137.5</ele>
        <time>2019-07-16T08:10:54Z</time>
      </trkpt>
      <trkpt lat="48.28327" lon="-1.88829">
        <ele>137.4</ele>
        <time>2019-07-16T08:10:55Z</time>
      </trkpt>
      <trkpt lat="48.28331" lon="-1.8883">
        <ele>137.3</ele>
        <time>2019-07-16T08:10:56Z</time>
      </trkpt>
      <trkpt lat="48.28335" lon="-1.88831">
        <ele>137</ele>
        <time>2019-07-16T08:10:57Z</time>
      </trkpt>
      <trkpt lat="48.28339" lon="-1.88833">
        <ele>137.1</ele>
        <time>2019-07-16T08:10:58Z</time>
      </trkpt>
      <trkpt lat="48.28342" lon="-1.88834">
        <ele>137.3</ele>
        <time>2019-07-16T08:10:59Z</time>
      </trkpt>
      <trkpt lat="48.28346" lon="-1.88835">
        <ele>137.4</ele>
        <time>2019-07-16T08:11:00Z</time>
      </trkpt>
      <trkpt lat="48.2835" lon="-1.88836">
        <ele>137.6</ele>
        <time>2019-07-16T08:11:01Z</time>
      </trkpt>
      <trkpt lat="48.28354" lon="-1.88838">
        <ele>137.6</ele>
        <time>2019-07-16T08:11:02Z</time>
      </trkpt>
      <trkpt lat="48.28357" lon="-1.88838">
        <ele>137.4</ele>
        <time>2019-07-16T08:11:03Z</time>
      </trkpt>
      <trkpt lat="48.28361" lon="-1.88839">
        <ele>137.6</ele>
        <time>2019-07-16T08:11:04Z</time>
      </trkpt>
      <trkpt lat="48.28364" lon="-1.8884">
        <ele>137.5</ele>
        <time>2019-07-16T08:11:05Z</time>
      </trkpt>
      <trkpt lat="48.28368" lon="-1.88841">
        <ele>137.5</ele>
        <time>2019-07-16T08:11:06Z</time>
      </trkpt>
      <trkpt lat="48.28371" lon="-1.88841">
        <ele>137.9</ele>
        <time>2019-07-16T08:11:07Z</time>
      </trkpt>
      <trkpt lat="48.28375" lon="-1.88842">
        <ele>138</ele>
        <time>2019-07-16T08:11:08Z</time>
      </trkpt>
      <trkpt lat="48.28379" lon="-1.88843">
        <ele>138.2</ele>
        <time>2019-07-16T08:11:09Z</time>
      </trkpt>
      <trkpt lat="48.28383" lon="-1.88843">
        <ele>138.2</ele>
        <time>2019-07-16T08:11:10Z</time>
      </trkpt>
      <trkpt lat="48.28386" lon="-1.88843">
        <ele>138.9</ele>
        <time>2019-07-16T08:11:11Z</time>
      </trkpt>
      <trkpt lat="48.2839" lon="-1.88844">
        <ele>139</ele>
        <time>2019-07-16T08:11:12Z</time>
      </trkpt>
      <trkpt lat="48.28394" lon="-1.88846">
        <ele>139</ele>
        <time>2019-07-16T08:11:13Z</time>
      </trkpt>
      <trkpt lat="48.28397" lon="-1.88848">
        <ele>139</ele>
        <time>2019-07-16T08:11:14Z</time>
      </trkpt>
      <trkpt lat="48.284" lon="-1.88849">
        <ele>139</ele>
        <time>2019-07-16T08:11:15Z</time>
      </trkpt>
      <trkpt lat="48.28404" lon="-1.8885">
        <ele>139.1</ele>
        <time>2019-07-16T08:11:16Z</time>
      </trkpt>
      <trkpt lat="48.28407" lon="-1.88851">
        <ele>139.3</ele>
        <time>2019-07-16T08:11:17Z</time>
      </trkpt>
      <trkpt lat="48.2841" lon="-1.88852">
        <ele>139.5</ele>
        <time>2019-07-16T08:11:18Z</time>
      </trkpt>
      <trkpt lat="48.28413" lon="-1.88853">
        <ele>139.3</ele>
        <time>2019-07-16T08:11:19Z</time>
      </trkpt>
      <trkpt lat="48.28416" lon="-1.88854">
        <ele>139.1</ele>
        <time>2019-07-16T08:11:20Z</time>
      </trkpt>
      <trkpt lat="48.28419" lon="-1.88856">
        <ele>138.9</ele>
        <time>2019-07-16T08:11:21Z</time>
      </trkpt>
      <trkpt lat="48.28422" lon="-1.88857">
        <ele>138.9</ele>
        <time>2019-07-16T08:11:22Z</time>
      </trkpt>
      <trkpt lat="48.28425" lon="-1.88859">
        <ele>139</ele>
        <time>2019-07-16T08:11:23Z</time>
      </trkpt>
      <trkpt lat="48.28428" lon="-1.8886">
        <ele>139.1</ele>
        <time>2019-07-16T08:11:24Z</time>
      </trkpt>
      <trkpt lat="48.2843" lon="-1.88861">
        <ele>139</ele>
        <time>2019-07-16T08:11:25Z</time>
      </trkpt>
      <trkpt lat="48.28434" lon="-1.88861">
        <ele>138.8</ele>
        <time>2019-07-16T08:11:26Z</time>
      </trkpt>
      <trkpt lat="48.28437" lon="-1.88862">
        <ele>138.7</ele>
        <time>2019-07-16T08:11:27Z</time>
      </trkpt>
      <trkpt lat="48.2844" lon="-1.88863">
        <ele>138.5</ele>
        <time>2019-07-16T08:11:28Z</time>
      </trkpt>
      <trkpt lat="48.28442" lon="-1.88863">
        <ele>139</ele>
        <time>2019-07-16T08:11:29Z</time>
      </trkpt>
      <trkpt lat="48.28445" lon="-1.88864">
        <ele>139.3</ele>
        <time>2019-07-16T08:11:30Z</time>
      </trkpt>
      <trkpt lat="48.28447" lon="-1.88864">
        <ele>140.5</ele>
        <time>2019-07-16T08:11:31Z</time>
      </trkpt>
      <trkpt lat="48.2845" lon="-1.88865">
        <ele>141</ele>
        <time>2019-07-16T08:11:32Z</time>
      </trkpt>
      <trkpt lat="48.28453" lon="-1.88865">
        <ele>141.6</ele>
        <time>2019-07-16T08:11:33Z</time>
      </trkpt>
      <trkpt lat="48.28456" lon="-1.88865">
        <ele>142.1</ele>
        <time>2019-07-16T08:11:34Z</time>
      </trkpt>
      <trkpt lat="48.28459" lon="-1.88866">
        <ele>142.4</ele>
        <time>2019-07-16T08:11:35Z</time>
      </trkpt>
      <trkpt lat="48.28462" lon="-1.88868">
        <ele>142.7</ele>
        <time>2019-07-16T08:11:36Z</time>
      </trkpt>
      <trkpt lat="48.28464" lon="-1.88867">
        <ele>143.7</ele>
        <time>2019-07-16T08:11:37Z</time>
      </trkpt>
      <trkpt lat="48.28467" lon="-1.88869">
        <ele>144.3</ele>
        <time>2019-07-16T08:11:38Z</time>
      </trkpt>
      <trkpt lat="48.2847" lon="-1.8887">
        <ele>144.8</ele>
        <time>2019-07-16T08:11:39Z</time>
      </trkpt>
      <trkpt lat="48.28473" lon="-1.88871">
        <ele>145</ele>
        <time>2019-07-16T08:11:40Z</time>
      </trkpt>
      <trkpt lat="48.28475" lon="-1.88872">
        <ele>145.4</ele>
        <time>2019-07-16T08:11:41Z</time>
      </trkpt>
      <trkpt lat="48.28478" lon="-1.88874">
        <ele>145.5</ele>
        <time>2019-07-16T08:11:42Z</time>
      </trkpt>
      <trkpt lat="48.28481" lon="-1.88875">
        <ele>145.9</ele>
        <time>2019-07-16T08:11:43Z</time>
      </trkpt>
      <trkpt lat="48.28484" lon="-1.88876">
        <ele>146.1</ele>
        <time>2019-07-16T08:11:44Z</time>
      </trkpt>
      <trkpt lat="48.28487" lon="-1.88876">
        <ele>146.4</ele>
        <time>2019-07-16T08:11:45Z</time>
      </trkpt>
      <trkpt lat="48.2849" lon="-1.88877">
        <ele>146.8</ele>
        <time>2019-07-16T08:11:46Z</time>
      </trkpt>
      <trkpt lat="48.28492" lon="-1.88877">
        <ele>147.2</ele>
        <time>2019-07-16T08:11:47Z</time>
      </trkpt>
      <trkpt lat="48.28495" lon="-1.88878">
        <ele>147.9</ele>
        <time>2019-07-16T08:11:48Z</time>
      </trkpt>
      <trkpt lat="48.28498" lon="-1.88879">
        <ele>148.2</ele>
        <time>2019-07-16T08:11:49Z</time>
      </trkpt>
      <trkpt lat="48.28501" lon="-1.8888">
        <ele>148.8</ele>
        <time>2019-07-16T08:11:50Z</time>
      </trkpt>
      <trkpt lat="48.28504" lon="-1.88881">
        <ele>148.6</ele>
        <time>2019-07-16T08:11:51Z</time>
      </trkpt>
      <trkpt lat="48.28508" lon="-1.88881">
        <ele>148.4</ele>
        <time>2019-07-16T08:11:52Z</time>
      </trkpt>
      <trkpt lat="48.28511" lon="-1.88881">
        <ele>148.2</ele>
        <time>2019-07-16T08:11:53Z</time>
      </trkpt>
      <trkpt lat="48.28515" lon="-1.8888">
        <ele>148</ele>
        <time>2019-07-16T08:11:54Z</time>
      </trkpt>
      <trkpt lat="48.28519" lon="-1.8888">
        <ele>146.9</ele>
        <time>2019-07-16T08:11:55Z</time>
      </trkpt>
      <trkpt lat="48.28523" lon="-1.88881">
        <ele>145.8</ele>
        <time>2019-07-16T08:11:56Z</time>
      </trkpt>
      <trkpt lat="48.28527" lon="-1.88881">
        <ele>145.6</ele>
        <time>2019-07-16T08:11:57Z</time>
      </trkpt>
      <trkpt lat="48.2853" lon="-1.8888">
        <ele>146.1</ele>
        <time>2019-07-16T08:11:58Z</time>
      </trkpt>
      <trkpt lat="48.28534" lon="-1.88878">
        <ele>145.8</ele>
        <time>2019-07-16T08:11:59Z</time>
      </trkpt>
      <trkpt lat="48.28539" lon="-1.88877">
        <ele>145.8</ele>
        <time>2019-07-16T08:12:00Z</time>
      </trkpt>
      <trkpt lat="48.28542" lon="-1.88876">
        <ele>146.2</ele>
        <time>2019-07-16T08:12:01Z</time>
      </trkpt>
      <trkpt lat="48.28547" lon="-1.88876">
        <ele>146.2</ele>
        <time>2019-07-16T08:12:02Z</time>
      </trkpt>
      <trkpt lat="48.28551" lon="-1.88875">
        <ele>145.6</ele>
        <time>2019-07-16T08:12:03Z</time>
      </trkpt>
      <trkpt lat="48.28555" lon="-1.88875">
        <ele>145.4</ele>
        <time>2019-07-16T08:12:04Z</time>
      </trkpt>
      <trkpt lat="48.2856" lon="-1.88875">
        <ele>144.3</ele>
        <time>2019-07-16T08:12:05Z</time>
      </trkpt>
      <trkpt lat="48.28564" lon="-1.88874">
        <ele>144.3</ele>
        <time>2019-07-16T08:12:06Z</time>
      </trkpt>
      <trkpt lat="48.28569" lon="-1.88872">
        <ele>143.7</ele>
        <time>2019-07-16T08:12:07Z</time>
      </trkpt>
      <trkpt lat="48.28574" lon="-1.88871">
        <ele>143</ele>
        <time>2019-07-16T08:12:08Z</time>
      </trkpt>
      <trkpt lat="48.2858" lon="-1.88869">
        <ele>142.6</ele>
        <time>2019-07-16T08:12:09Z</time>
      </trkpt>
      <trkpt lat="48.28585" lon="-1.88867">
        <ele>142.1</ele>
        <time>2019-07-16T08:12:10Z</time>
      </trkpt>
      <trkpt lat="48.28591" lon="-1.88864">
        <ele>141.7</ele>
        <time>2019-07-16T08:12:11Z</time>
      </trkpt>
      <trkpt lat="48.28597" lon="-1.88861">
        <ele>141.2</ele>
        <time>2019-07-16T08:12:12Z</time>
      </trkpt>
      <trkpt lat="48.28604" lon="-1.88858">
        <ele>140.6</ele>
        <time>2019-07-16T08:12:13Z</time>
      </trkpt>
      <trkpt lat="48.28611" lon="-1.88856">
        <ele>140.3</ele>
        <time>2019-07-16T08:12:14Z</time>
      </trkpt>
      <trkpt lat="48.28618" lon="-1.88854">
        <ele>140.1</ele>
        <time>2019-07-16T08:12:15Z</time>
      </trkpt>
      <trkpt lat="48.28624" lon="-1.88852">
        <ele>139.9</ele>
        <time>2019-07-16T08:12:16Z</time>
      </trkpt>
      <trkpt lat="48.28631" lon="-1.88848">
        <ele>139.5</ele>
        <time>2019-07-16T08:12:17Z</time>
      </trkpt>
      <trkpt lat="48.2864" lon="-1.88845">
        <ele>137.6</ele>
        <time>2019-07-16T08:12:18Z</time>
      </trkpt>
      <trkpt lat="48.28648" lon="-1.88841">
        <ele>137</ele>
        <time>2019-07-16T08:12:19Z</time>
      </trkpt>
      <trkpt lat="48.28655" lon="-1.8884">
        <ele>137.4</ele>
        <time>2019-07-16T08:12:20Z</time>
      </trkpt>
      <trkpt lat="48.28663" lon="-1.88837">
        <ele>137.3</ele>
        <time>2019-07-16T08:12:21Z</time>
      </trkpt>
      <trkpt lat="48.2867" lon="-1.88834">
        <ele>136.3</ele>
        <time>2019-07-16T08:12:22Z</time>
      </trkpt>
      <trkpt lat="48.28677" lon="-1.88831">
        <ele>136.2</ele>
        <time>2019-07-16T08:12:23Z</time>
      </trkpt>
      <trkpt lat="48.28685" lon="-1.88827">
        <ele>135.6</ele>
        <time>2019-07-16T08:12:24Z</time>
      </trkpt>
      <trkpt lat="48.28692" lon="-1.88823">
        <ele>135.5</ele>
        <time>2019-07-16T08:12:25Z</time>
      </trkpt>
      <trkpt lat="48.28699" lon="-1.88819">
        <ele>135.4</ele>
        <time>2019-07-16T08:12:26Z</time>
      </trkpt>
      <trkpt lat="48.28706" lon="-1.88814">
        <ele>135.5</ele>
        <time>2019-07-16T08:12:27Z</time>
      </trkpt>
      <trkpt lat="48.28713" lon="-1.88809">
        <ele>135.1</ele>
        <time>2019-07-16T08:12:28Z</time>
      </trkpt>
      <trkpt lat="48.28719" lon="-1.88805">
        <ele>134.7</ele>
        <time>2019-07-16T08:12:29Z</time>
      </trkpt>
      <trkpt lat="48.28726" lon="-1.888">
        <ele>133.5</ele>
        <time>2019-07-16T08:12:30Z</time>
      </trkpt>
      <trkpt lat="48.28733" lon="-1.88795">
        <ele>132.1</ele>
        <time>2019-07-16T08:12:31Z</time>
      </trkpt>
      <trkpt lat="48.28739" lon="-1.8879">
        <ele>131.1</ele>
        <time>2019-07-16T08:12:32Z</time>
      </trkpt>
      <trkpt lat="48.28745" lon="-1.88785">
        <ele>129.6</ele>
        <time>2019-07-16T08:12:33Z</time>
      </trkpt>
      <trkpt lat="48.2875" lon="-1.88782">
        <ele>129.2</ele>
        <time>2019-07-16T08:12:34Z</time>
      </trkpt>
      <trkpt lat="48.28756" lon="-1.88779">
        <ele>128.3</ele>
        <time>2019-07-16T08:12:35Z</time>
      </trkpt>
      <trkpt lat="48.28762" lon="-1.88777">
        <ele>128.7</ele>
        <time>2019-07-16T08:12:36Z</time>
      </trkpt>
      <trkpt lat="48.28767" lon="-1.88775">
        <ele>129.6</ele>
        <time>2019-07-16T08:12:37Z</time>
      </trkpt>
      <trkpt lat="48.28772" lon="-1.88773">
        <ele>130.3</ele>
        <time>2019-07-16T08:12:38Z</time>
      </trkpt>
      <trkpt lat="48.28778" lon="-1.88771">
        <ele>130.5</ele>
        <time>2019-07-16T08:12:39Z</time>
      </trkpt>
      <trkpt lat="48.28784" lon="-1.88769">
        <ele>131</ele>
        <time>2019-07-16T08:12:40Z</time>
      </trkpt>
      <trkpt lat="48.2879" lon="-1.88766">
        <ele>131.6</ele>
        <time>2019-07-16T08:12:41Z</time>
      </trkpt>
      <trkpt lat="48.28796" lon="-1.88762">
        <ele>131.9</ele>
        <time>2019-07-16T08:12:42Z</time>
      </trkpt>
      <trkpt lat="48.28801" lon="-1.88759">
        <ele>132</ele>
        <time>2019-07-16T08:12:43Z</time>
      </trkpt>
      <trkpt lat="48.28807" lon="-1.88756">
        <ele>132.2</ele>
        <time>2019-07-16T08:12:44Z</time>
      </trkpt>
      <trkpt lat="48.28812" lon="-1.88753">
        <ele>132.8</ele>
        <time>2019-07-16T08:12:45Z</time>
      </trkpt>
      <trkpt lat="48.28817" lon="-1.8875">
        <ele>132.9</ele>
        <time>2019-07-16T08:12:46Z</time>
      </trkpt>
      <trkpt lat="48.28824" lon="-1.88748">
        <ele>131.3</ele>
        <time>2019-07-16T08:12:47Z</time>
      </trkpt>
      <trkpt lat="48.2883" lon="-1.88745">
        <ele>130.2</ele>
        <time>2019-07-16T08:12:48Z</time>
      </trkpt>
      <trkpt lat="48.28836" lon="-1.88741">
        <ele>129.4</ele>
        <time>2019-07-16T08:12:49Z</time>
      </trkpt>
      <trkpt lat="48.28843" lon="-1.88736">
        <ele>128.6</ele>
        <time>2019-07-16T08:12:50Z</time>
      </trkpt>
      <trkpt lat="48.28848" lon="-1.88733">
        <ele>128.3</ele>
        <time>2019-07-16T08:12:51Z</time>
      </trkpt>
      <trkpt lat="48.28853" lon="-1.88729">
        <ele>127.8</ele>
        <time>2019-07-16T08:12:52Z</time>
      </trkpt>
      <trkpt lat="48.28858" lon="-1.88725">
        <ele>126.8</ele>
        <time>2019-07-16T08:12:53Z</time>
      </trkpt>
      <trkpt lat="48.28863" lon="-1.88722">
        <ele>126.6</ele>
        <time>2019-07-16T08:12:54Z</time>
      </trkpt>
      <trkpt lat="48.28869" lon="-1.8872">
        <ele>126.5</ele>
        <time>2019-07-16T08:12:55Z</time>
      </trkpt>
      <trkpt lat="48.28874" lon="-1.88717">
        <ele>126.8</ele>
        <time>2019-07-16T08:12:56Z</time>
      </trkpt>
      <trkpt lat="48.28878" lon="-1.88714">
        <ele>126.8</ele>
        <time>2019-07-16T08:12:57Z</time>
      </trkpt>
      <trkpt lat="48.28884" lon="-1.88712">
        <ele>126.6</ele>
        <time>2019-07-16T08:12:58Z</time>
      </trkpt>
      <trkpt lat="48.28889" lon="-1.8871">
        <ele>126.6</ele>
        <time>2019-07-16T08:12:59Z</time>
      </trkpt>
      <trkpt lat="48.28893" lon="-1.88707">
        <ele>126.4</ele>
        <time>2019-07-16T08:13:00Z</time>
      </trkpt>
      <trkpt lat="48.28898" lon="-1.88704">
        <ele>126.4</ele>
        <time>2019-07-16T08:13:01Z</time>
      </trkpt>
      <trkpt lat="48.28903" lon="-1.88701">
        <ele>126.2</ele>
        <time>2019-07-16T08:13:02Z</time>
      </trkpt>
      <trkpt lat="48.28907" lon="-1.88699">
        <ele>126</ele>
        <time>2019-07-16T08:13:03Z</time>
      </trkpt>
      <trkpt lat="48.28912" lon="-1.88697">
        <ele>126</ele>
        <time>2019-07-16T08:13:04Z</time>
      </trkpt>
      <trkpt lat="48.28917" lon="-1.88694">
        <ele>126.1</ele>
        <time>2019-07-16T08:13:05Z</time>
      </trkpt>
      <trkpt lat="48.28922" lon="-1.88692">
        <ele>125.6</ele>
        <time>2019-07-16T08:13:06Z</time>
      </trkpt>
      <trkpt lat="48.28927" lon="-1.8869">
        <ele>125.6</ele>
        <time>2019-07-16T08:13:07Z</time>
      </trkpt>
      <trkpt lat="48.28932" lon="-1.88687">
        <ele>125.2</ele>
        <time>2019-07-16T08:13:08Z</time>
      </trkpt>
      <trkpt lat="48.28937" lon="-1.88684">
        <ele>124.9</ele>
        <time>2019-07-16T08:13:09Z</time>
      </trkpt>
      <trkpt lat="48.28942" lon="-1.88681">
        <ele>124.5</ele>
        <time>2019-07-16T08:13:10Z</time>
      </trkpt>
      <trkpt lat="48.28947" lon="-1.88679">
        <ele>124.7</ele>
        <time>2019-07-16T08:13:11Z</time>
      </trkpt>
      <trkpt lat="48.28952" lon="-1.88677">
        <ele>124.9</ele>
        <time>2019-07-16T08:13:12Z</time>
      </trkpt>
      <trkpt lat="48.28957" lon="-1.88674">
        <ele>124.8</ele>
        <time>2019-07-16T08:13:13Z</time>
      </trkpt>
      <trkpt lat="48.28962" lon="-1.88672">
        <ele>124.3</ele>
        <time>2019-07-16T08:13:14Z</time>
      </trkpt>
      <trkpt lat="48.28968" lon="-1.8867">
        <ele>124.8</ele>
        <time>2019-07-16T08:13:15Z</time>
      </trkpt>
      <trkpt lat="48.28973" lon="-1.88667">
        <ele>125.2</ele>
        <time>2019-07-16T08:13:16Z</time>
      </trkpt>
      <trkpt lat="48.28978" lon="-1.88665">
        <ele>125.9</ele>
        <time>2019-07-16T08:13:17Z</time>
      </trkpt>
      <trkpt lat="48.28984" lon="-1.88663">
        <ele>126.4</ele>
        <time>2019-07-16T08:13:18Z</time>
      </trkpt>
      <trkpt lat="48.28989" lon="-1.8866">
        <ele>126.8</ele>
        <time>2019-07-16T08:13:19Z</time>
      </trkpt>
      <trkpt lat="48.28994" lon="-1.88658">
        <ele>126.9</ele>
        <time>2019-07-16T08:13:20Z</time>
      </trkpt>
      <trkpt lat="48.29001" lon="-1.88655">
        <ele>127</ele>
        <time>2019-07-16T08:13:21Z</time>
      </trkpt>
      <trkpt lat="48.29006" lon="-1.88652">
        <ele>126.8</ele>
        <time>2019-07-16T08:13:22Z</time>
      </trkpt>
      <trkpt lat="48.29012" lon="-1.88649">
        <ele>127.1</ele>
        <time>2019-07-16T08:13:23Z</time>
      </trkpt>
      <trkpt lat="48.29017" lon="-1.88646">
        <ele>126.9</ele>
        <time>2019-07-16T08:13:24Z</time>
      </trkpt>
      <trkpt lat="48.29023" lon="-1.88643">
        <ele>127.2</ele>
        <time>2019-07-16T08:13:25Z</time>
      </trkpt>
      <trkpt lat="48.29028" lon="-1.88641">
        <ele>127.5</ele>
        <time>2019-07-16T08:13:26Z</time>
      </trkpt>
      <trkpt lat="48.29035" lon="-1.88639">
        <ele>125.4</ele>
        <time>2019-07-16T08:13:27Z</time>
      </trkpt>
      <trkpt lat="48.29041" lon="-1.88637">
        <ele>124.7</ele>
        <time>2019-07-16T08:13:28Z</time>
      </trkpt>
      <trkpt lat="48.29047" lon="-1.88636">
        <ele>124.2</ele>
        <time>2019-07-16T08:13:29Z</time>
      </trkpt>
      <trkpt lat="48.29053" lon="-1.88634">
        <ele>124</ele>
        <time>2019-07-16T08:13:30Z</time>
      </trkpt>
      <trkpt lat="48.29059" lon="-1.88632">
        <ele>123.8</ele>
        <time>2019-07-16T08:13:31Z</time>
      </trkpt>
      <trkpt lat="48.29065" lon="-1.88629">
        <ele>123.7</ele>
        <time>2019-07-16T08:13:32Z</time>
      </trkpt>
      <trkpt lat="48.29071" lon="-1.88626">
        <ele>123.8</ele>
        <time>2019-07-16T08:13:33Z</time>
      </trkpt>
      <trkpt lat="48.29076" lon="-1.88622">
        <ele>123.6</ele>
        <time>2019-07-16T08:13:34Z</time>
      </trkpt>
      <trkpt lat="48.29081" lon="-1.88616">
        <ele>124</ele>
        <time>2019-07-16T08:13:35Z</time>
      </trkpt>
      <trkpt lat="48.29085" lon="-1.88608">
        <ele>124.5</ele>
        <time>2019-07-16T08:13:36Z</time>
      </trkpt>
      <trkpt lat="48.29089" lon="-1.88599">
        <ele>125.3</ele>
        <time>2019-07-16T08:13:37Z</time>
      </trkpt>
      <trkpt lat="48.29091" lon="-1.88589">
        <ele>125.7</ele>
        <time>2019-07-16T08:13:38Z</time>
      </trkpt>
      <trkpt lat="48.29091" lon="-1.8858">
        <ele>125.5</ele>
        <time>2019-07-16T08:13:39Z</time>
      </trkpt>
      <trkpt lat="48.29092" lon="-1.8857">
        <ele>125.8</ele>
        <time>2019-07-16T08:13:40Z</time>
      </trkpt>
      <trkpt lat="48.29091" lon="-1.88561">
        <ele>125.7</ele>
        <time>2019-07-16T08:13:41Z</time>
      </trkpt>
      <trkpt lat="48.29091" lon="-1.88552">
        <ele>125.7</ele>
        <time>2019-07-16T08:13:42Z</time>
      </trkpt>
      <trkpt lat="48.2909" lon="-1.88543">
        <ele>125.5</ele>
        <time>2019-07-16T08:13:43Z</time>
      </trkpt>
      <trkpt lat="48.29089" lon="-1.88534">
        <ele>125.1</ele>
        <time>2019-07-16T08:13:44Z</time>
      </trkpt>
      <trkpt lat="48.29088" lon="-1.88526">
        <ele>125</ele>
        <time>2019-07-16T08:13:45Z</time>
      </trkpt>
      <trkpt lat="48.29088" lon="-1.88518">
        <ele>124.9</ele>
        <time>2019-07-16T08:13:46Z</time>
      </trkpt>
      <trkpt lat="48.29087" lon="-1.8851">
        <ele>124.8</ele>
        <time>2019-07-16T08:13:47Z</time>
      </trkpt>
      <trkpt lat="48.29087" lon="-1.88502">
        <ele>124.9</ele>
        <time>2019-07-16T08:13:48Z</time>
      </trkpt>
      <trkpt lat="48.29087" lon="-1.88494">
        <ele>125.1</ele>
        <time>2019-07-16T08:13:49Z</time>
      </trkpt>
      <trkpt lat="48.29088" lon="-1.88487">
        <ele>125.4</ele>
        <time>2019-07-16T08:13:50Z</time>
      </trkpt>
      <trkpt lat="48.29089" lon="-1.88479">
        <ele>125.8</ele>
        <time>2019-07-16T08:13:51Z</time>
      </trkpt>
      <trkpt lat="48.29091" lon="-1.8847">
        <ele>126.2</ele>
        <time>2019-07-16T08:13:52Z</time>
      </trkpt>
      <trkpt lat="48.29094" lon="-1.88462">
        <ele>126.8</ele>
        <time>2019-07-16T08:13:53Z</time>
      </trkpt>
      <trkpt lat="48.29096" lon="-1.88454">
        <ele>127</ele>
        <time>2019-07-16T08:13:54Z</time>
      </trkpt>
      <trkpt lat="48.29099" lon="-1.88446">
        <ele>127.2</ele>
        <time>2019-07-16T08:13:55Z</time>
      </trkpt>
      <trkpt lat="48.29102" lon="-1.8844">
        <ele>127.5</ele>
        <time>2019-07-16T08:13:56Z</time>
      </trkpt>
      <trkpt lat="48.29104" lon="-1.88433">
        <ele>128</ele>
        <time>2019-07-16T08:13:57Z</time>
      </trkpt>
      <trkpt lat="48.29104" lon="-1.88427">
        <ele>128.5</ele>
        <time>2019-07-16T08:13:58Z</time>
      </trkpt>
      <trkpt lat="48.29105" lon="-1.88421">
        <ele>128.2</ele>
        <time>2019-07-16T08:13:59Z</time>
      </trkpt>
      <trkpt lat="48.29105" lon="-1.88415">
        <ele>128.1</ele>
        <time>2019-07-16T08:14:00Z</time>
      </trkpt>
      <trkpt lat="48.29105" lon="-1.8841">
        <ele>128.3</ele>
        <time>2019-07-16T08:14:01Z</time>
      </trkpt>
      <trkpt lat="48.29104" lon="-1.88403">
        <ele>128.7</ele>
        <time>2019-07-16T08:14:02Z</time>
      </trkpt>
      <trkpt lat="48.29102" lon="-1.88398">
        <ele>129.1</ele>
        <time>2019-07-16T08:14:03Z</time>
      </trkpt>
      <trkpt lat="48.29102" lon="-1.88392">
        <ele>129.4</ele>
        <time>2019-07-16T08:14:04Z</time>
      </trkpt>
      <trkpt lat="48.29102" lon="-1.88386">
        <ele>129</ele>
        <time>2019-07-16T08:14:05Z</time>
      </trkpt>
      <trkpt lat="48.29102" lon="-1.8838">
        <ele>128.5</ele>
        <time>2019-07-16T08:14:06Z</time>
      </trkpt>
      <trkpt lat="48.29101" lon="-1.88375">
        <ele>128.2</ele>
        <time>2019-07-16T08:14:07Z</time>
      </trkpt>
      <trkpt lat="48.29101" lon="-1.8837">
        <ele>128.1</ele>
        <time>2019-07-16T08:14:08Z</time>
      </trkpt>
      <trkpt lat="48.291" lon="-1.88365">
        <ele>127.9</ele>
        <time>2019-07-16T08:14:09Z</time>
      </trkpt>
      <trkpt lat="48.291" lon="-1.8836">
        <ele>127.7</ele>
        <time>2019-07-16T08:14:10Z</time>
      </trkpt>
      <trkpt lat="48.291" lon="-1.88355">
        <ele>127.3</ele>
        <time>2019-07-16T08:14:11Z</time>
      </trkpt>
      <trkpt lat="48.291" lon="-1.8835">
        <ele>126.9</ele>
        <time>2019-07-16T08:14:12Z</time>
      </trkpt>
      <trkpt lat="48.291" lon="-1.88345">
        <ele>126.7</ele>
        <time>2019-07-16T08:14:13Z</time>
      </trkpt>
      <trkpt lat="48.291" lon="-1.88339">
        <ele>126.4</ele>
        <time>2019-07-16T08:14:14Z</time>
      </trkpt>
      <trkpt lat="48.291" lon="-1.88335">
        <ele>125.9</ele>
        <time>2019-07-16T08:14:15Z</time>
      </trkpt>
      <trkpt lat="48.29099" lon="-1.8833">
        <ele>125.5</ele>
        <time>2019-07-16T08:14:16Z</time>
      </trkpt>
      <trkpt lat="48.29099" lon="-1.88325">
        <ele>125</ele>
        <time>2019-07-16T08:14:17Z</time>
      </trkpt>
      <trkpt lat="48.29099" lon="-1.8832">
        <ele>124.5</ele>
        <time>2019-07-16T08:14:18Z</time>
      </trkpt>
      <trkpt lat="48.29098" lon="-1.88315">
        <ele>124.5</ele>
        <time>2019-07-16T08:14:19Z</time>
      </trkpt>
      <trkpt lat="48.29098" lon="-1.8831">
        <ele>124.9</ele>
        <time>2019-07-16T08:14:20Z</time>
      </trkpt>
      <trkpt lat="48.29098" lon="-1.88305">
        <ele>125.4</ele>
        <time>2019-07-16T08:14:21Z</time>
      </trkpt>
      <trkpt lat="48.29098" lon="-1.88301">
        <ele>125.5</ele>
        <time>2019-07-16T08:14:22Z</time>
      </trkpt>
      <trkpt lat="48.29098" lon="-1.88297">
        <ele>125.8</ele>
        <time>2019-07-16T08:14:23Z</time>
      </trkpt>
      <trkpt lat="48.29098" lon="-1.88293">
        <ele>125.5</ele>
        <time>2019-07-16T08:14:24Z</time>
      </trkpt>
      <trkpt lat="48.29098" lon="-1.88289">
        <ele>125.4</ele>
        <time>2019-07-16T08:14:25Z</time>
      </trkpt>
      <trkpt lat="48.29098" lon="-1.88285">
        <ele>125.1</ele>
        <time>2019-07-16T08:14:26Z</time>
      </trkpt>
      <trkpt lat="48.29099" lon="-1.88282">
        <ele>124.8</ele>
        <time>2019-07-16T08:14:27Z</time>
      </trkpt>
      <trkpt lat="48.29099" lon="-1.88278">
        <ele>124.9</ele>
        <time>2019-07-16T08:14:28Z</time>
      </trkpt>
      <trkpt lat="48.29099" lon="-1.88273">
        <ele>124.8</ele>
        <time>2019-07-16T08:14:29Z</time>
      </trkpt>
      <trkpt lat="48.291" lon="-1.88269">
        <ele>124.8</ele>
        <time>2019-07-16T08:14:30Z</time>
      </trkpt>
      <trkpt lat="48.291" lon="-1.88264">
        <ele>124.7</ele>
        <time>2019-07-16T08:14:31Z</time>
      </trkpt>
      <trkpt lat="48.291" lon="-1.8826">
        <ele>125</ele>
        <time>2019-07-16T08:14:32Z</time>
      </trkpt>
      <trkpt lat="48.29101" lon="-1.88256">
        <ele>125</ele>
        <time>2019-07-16T08:14:33Z</time>
      </trkpt>
      <trkpt lat="48.29102" lon="-1.88251">
        <ele>124.9</ele>
        <time>2019-07-16T08:14:34Z</time>
      </trkpt>
      <trkpt lat="48.29103" lon="-1.88247">
        <ele>124.9</ele>
        <time>2019-07-16T08:14:35Z</time>
      </trkpt>
      <trkpt lat="48.29104" lon="-1.88243">
        <ele>125</ele>
        <time>2019-07-16T08:14:36Z</time>
      </trkpt>
      <trkpt lat="48.29105" lon="-1.88238">
        <ele>125</ele>
        <time>2019-07-16T08:14:37Z</time>
      </trkpt>
      <trkpt lat="48.29105" lon="-1.88234">
        <ele>125</ele>
        <time>2019-07-16T08:14:38Z</time>
      </trkpt>
      <trkpt lat="48.29105" lon="-1.8823">
        <ele>125.1</ele>
        <time>2019-07-16T08:14:39Z</time>
      </trkpt>
      <trkpt lat="48.29106" lon="-1.88225">
        <ele>125.1</ele>
        <time>2019-07-16T08:14:40Z</time>
      </trkpt>
      <trkpt lat="48.29107" lon="-1.88221">
        <ele>125.3</ele>
        <time>2019-07-16T08:14:41Z</time>
      </trkpt>
      <trkpt lat="48.29108" lon="-1.88216">
        <ele>125.5</ele>
        <time>2019-07-16T08:14:42Z</time>
      </trkpt>
      <trkpt lat="48.29108" lon="-1.88211">
        <ele>125.5</ele>
        <time>2019-07-16T08:14:43Z</time>
      </trkpt>
      <trkpt lat="48.29109" lon="-1.88206">
        <ele>125.3</ele>
        <time>2019-07-16T08:14:44Z</time>
      </trkpt>
      <trkpt lat="48.2911" lon="-1.88201">
        <ele>125.4</ele>
        <time>2019-07-16T08:14:45Z</time>
      </trkpt>
      <trkpt lat="48.2911" lon="-1.88196">
        <ele>125.5</ele>
        <time>2019-07-16T08:14:46Z</time>
      </trkpt>
      <trkpt lat="48.29111" lon="-1.88191">
        <ele>125.7</ele>
        <time>2019-07-16T08:14:47Z</time>
      </trkpt>
      <trkpt lat="48.29112" lon="-1.88187">
        <ele>126.1</ele>
        <time>2019-07-16T08:14:48Z</time>
      </trkpt>
      <trkpt lat="48.29112" lon="-1.88183">
        <ele>126.3</ele>
        <time>2019-07-16T08:14:49Z</time>
      </trkpt>
      <trkpt lat="48.29113" lon="-1.88178">
        <ele>126.3</ele>
        <time>2019-07-16T08:14:50Z</time>
      </trkpt>
      <trkpt lat="48.29113" lon="-1.88174">
        <ele>126</ele>
        <time>2019-07-16T08:14:51Z</time>
      </trkpt>
      <trkpt lat="48.29114" lon="-1.88169">
        <ele>126.1</ele>
        <time>2019-07-16T08:14:52Z</time>
      </trkpt>
      <trkpt lat="48.29114" lon="-1.88165">
        <ele>126.4</ele>
        <time>2019-07-16T08:14:53Z</time>
      </trkpt>
      <trkpt lat="48.29115" lon="-1.8816">
        <ele>126.7</ele>
        <time>2019-07-16T08:14:54Z</time>
      </trkpt>
      <trkpt lat="48.29116" lon="-1.88156">
        <ele>126.9</ele>
        <time>2019-07-16T08:14:55Z</time>
      </trkpt>
      <trkpt lat="48.29116" lon="-1.88152">
        <ele>127.2</ele>
        <time>2019-07-16T08:14:56Z</time>
      </trkpt>
      <trkpt lat="48.29117" lon="-1.88147">
        <ele>127.5</ele>
        <time>2019-07-16T08:14:57Z</time>
      </trkpt>
      <trkpt lat="48.29118" lon="-1.88143">
        <ele>127.9</ele>
        <time>2019-07-16T08:14:58Z</time>
      </trkpt>
      <trkpt lat="48.29119" lon="-1.88139">
        <ele>128.1</ele>
        <time>2019-07-16T08:14:59Z</time>
      </trkpt>
      <trkpt lat="48.2912" lon="-1.88134">
        <ele>128.6</ele>
        <time>2019-07-16T08:15:00Z</time>
      </trkpt>
      <trkpt lat="48.29121" lon="-1.8813">
        <ele>128.7</ele>
        <time>2019-07-16T08:15:01Z</time>
      </trkpt>
      <trkpt lat="48.29122" lon="-1.88126">
        <ele>128.8</ele>
        <time>2019-07-16T08:15:02Z</time>
      </trkpt>
      <trkpt lat="48.29123" lon="-1.88121">
        <ele>128.8</ele>
        <time>2019-07-16T08:15:03Z</time>
      </trkpt>
      <trkpt lat="48.29123" lon="-1.88116">
        <ele>128.6</ele>
        <time>2019-07-16T08:15:04Z</time>
      </trkpt>
      <trkpt lat="48.29123" lon="-1.88111">
        <ele>128.4</ele>
        <time>2019-07-16T08:15:05Z</time>
      </trkpt>
      <trkpt lat="48.29124" lon="-1.88106">
        <ele>128.4</ele>
        <time>2019-07-16T08:15:06Z</time>
      </trkpt>
      <trkpt lat="48.29125" lon="-1.88102">
        <ele>128.6</ele>
        <time>2019-07-16T08:15:07Z</time>
      </trkpt>
      <trkpt lat="48.29126" lon="-1.88098">
        <ele>128.6</ele>
        <time>2019-07-16T08:15:08Z</time>
      </trkpt>
      <trkpt lat="48.29126" lon="-1.88093">
        <ele>128.8</ele>
        <time>2019-07-16T08:15:09Z</time>
      </trkpt>
      <trkpt lat="48.29127" lon="-1.88088">
        <ele>128.6</ele>
        <time>2019-07-16T08:15:10Z</time>
      </trkpt>
      <trkpt lat="48.29128" lon="-1.88084">
        <ele>129</ele>
        <time>2019-07-16T08:15:11Z</time>
      </trkpt>
      <trkpt lat="48.29128" lon="-1.88079">
        <ele>129.1</ele>
        <time>2019-07-16T08:15:12Z</time>
      </trkpt>
      <trkpt lat="48.29129" lon="-1.88075">
        <ele>129.5</ele>
        <time>2019-07-16T08:15:13Z</time>
      </trkpt>
      <trkpt lat="48.29129" lon="-1.8807">
        <ele>129.6</ele>
        <time>2019-07-16T08:15:14Z</time>
      </trkpt>
      <trkpt lat="48.2913" lon="-1.88066">
        <ele>129.5</ele>
        <time>2019-07-16T08:15:15Z</time>
      </trkpt>
      <trkpt lat="48.2913" lon="-1.88061">
        <ele>129.3</ele>
        <time>2019-07-16T08:15:16Z</time>
      </trkpt>
      <trkpt lat="48.29131" lon="-1.88056">
        <ele>129.4</ele>
        <time>2019-07-16T08:15:17Z</time>
      </trkpt>
      <trkpt lat="48.29131" lon="-1.88051">
        <ele>129.1</ele>
        <time>2019-07-16T08:15:18Z</time>
      </trkpt>
      <trkpt lat="48.29132" lon="-1.88046">
        <ele>129.1</ele>
        <time>2019-07-16T08:15:19Z</time>
      </trkpt>
      <trkpt lat="48.29133" lon="-1.88041">
        <ele>128.9</ele>
        <time>2019-07-16T08:15:20Z</time>
      </trkpt>
      <trkpt lat="48.29133" lon="-1.88037">
        <ele>129</ele>
        <time>2019-07-16T08:15:21Z</time>
      </trkpt>
      <trkpt lat="48.29134" lon="-1.88032">
        <ele>129.1</ele>
        <time>2019-07-16T08:15:22Z</time>
      </trkpt>
      <trkpt lat="48.29134" lon="-1.88028">
        <ele>129.1</ele>
        <time>2019-07-16T08:15:23Z</time>
      </trkpt>
      <trkpt lat="48.29135" lon="-1.88023">
        <ele>129.1</ele>
        <time>2019-07-16T08:15:24Z</time>
      </trkpt>
      <trkpt lat="48.29136" lon="-1.88018">
        <ele>129.1</ele>
        <time>2019-07-16T08:15:25Z</time>
      </trkpt>
      <trkpt lat="48.29136" lon="-1.88014">
        <ele>129.2</ele>
        <time>2019-07-16T08:15:26Z</time>
      </trkpt>
      <trkpt lat="48.29137" lon="-1.88009">
        <ele>129.3</ele>
        <time>2019-07-16T08:15:27Z</time>
      </trkpt>
      <trkpt lat="48.29137" lon="-1.88004">
        <ele>129.3</ele>
        <time>2019-07-16T08:15:28Z</time>
      </trkpt>
      <trkpt lat="48.29137" lon="-1.88">
        <ele>129.4</ele>
        <time>2019-07-16T08:15:29Z</time>
      </trkpt>
      <trkpt lat="48.29138" lon="-1.87995">
        <ele>129.4</ele>
        <time>2019-07-16T08:15:30Z</time>
      </trkpt>
      <trkpt lat="48.29139" lon="-1.87991">
        <ele>129.5</ele>
        <time>2019-07-16T08:15:31Z</time>
      </trkpt>
      <trkpt lat="48.2914" lon="-1.87982">
        <ele>129.8</ele>
        <time>2019-07-16T08:15:33Z</time>
      </trkpt>
      <trkpt lat="48.29141" lon="-1.87977">
        <ele>129.9</ele>
        <time>2019-07-16T08:15:34Z</time>
      </trkpt>
      <trkpt lat="48.29141" lon="-1.87972">
        <ele>129.8</ele>
        <time>2019-07-16T08:15:35Z</time>
      </trkpt>
      <trkpt lat="48.29141" lon="-1.87967">
        <ele>129.9</ele>
        <time>2019-07-16T08:15:36Z</time>
      </trkpt>
      <trkpt lat="48.29141" lon="-1.87962">
        <ele>129.8</ele>
        <time>2019-07-16T08:15:37Z</time>
      </trkpt>
      <trkpt lat="48.29142" lon="-1.87958">
        <ele>129.6</ele>
        <time>2019-07-16T08:15:38Z</time>
      </trkpt>
      <trkpt lat="48.29142" lon="-1.87953">
        <ele>129.7</ele>
        <time>2019-07-16T08:15:39Z</time>
      </trkpt>
      <trkpt lat="48.29142" lon="-1.87948">
        <ele>129.3</ele>
        <time>2019-07-16T08:15:40Z</time>
      </trkpt>
      <trkpt lat="48.29143" lon="-1.87943">
        <ele>129.2</ele>
        <time>2019-07-16T08:15:41Z</time>
      </trkpt>
      <trkpt lat="48.29144" lon="-1.87939">
        <ele>129.2</ele>
        <time>2019-07-16T08:15:42Z</time>
      </trkpt>
      <trkpt lat="48.29144" lon="-1.87934">
        <ele>129.6</ele>
        <time>2019-07-16T08:15:43Z</time>
      </trkpt>
      <trkpt lat="48.29145" lon="-1.87929">
        <ele>129.6</ele>
        <time>2019-07-16T08:15:44Z</time>
      </trkpt>
      <trkpt lat="48.29145" lon="-1.87925">
        <ele>129.7</ele>
        <time>2019-07-16T08:15:45Z</time>
      </trkpt>
      <trkpt lat="48.29146" lon="-1.8792">
        <ele>129.6</ele>
        <time>2019-07-16T08:15:46Z</time>
      </trkpt>
      <trkpt lat="48.29146" lon="-1.87915">
        <ele>129.4</ele>
        <time>2019-07-16T08:15:47Z</time>
      </trkpt>
      <trkpt lat="48.29147" lon="-1.8791">
        <ele>129.4</ele>
        <time>2019-07-16T08:15:48Z</time>
      </trkpt>
      <trkpt lat="48.29147" lon="-1.87906">
        <ele>129.5</ele>
        <time>2019-07-16T08:15:49Z</time>
      </trkpt>
      <trkpt lat="48.29148" lon="-1.87901">
        <ele>129.6</ele>
        <time>2019-07-16T08:15:50Z</time>
      </trkpt>
      <trkpt lat="48.29149" lon="-1.87896">
        <ele>129.9</ele>
        <time>2019-07-16T08:15:51Z</time>
      </trkpt>
      <trkpt lat="48.29149" lon="-1.87891">
        <ele>130.1</ele>
        <time>2019-07-16T08:15:52Z</time>
      </trkpt>
      <trkpt lat="48.2915" lon="-1.87886">
        <ele>130.1</ele>
        <time>2019-07-16T08:15:53Z</time>
      </trkpt>
      <trkpt lat="48.2915" lon="-1.87881">
        <ele>130.1</ele>
        <time>2019-07-16T08:15:54Z</time>
      </trkpt>
      <trkpt lat="48.29151" lon="-1.87876">
        <ele>130.2</ele>
        <time>2019-07-16T08:15:55Z</time>
      </trkpt>
      <trkpt lat="48.29152" lon="-1.87871">
        <ele>130.4</ele>
        <time>2019-07-16T08:15:56Z</time>
      </trkpt>
      <trkpt lat="48.29152" lon="-1.87866">
        <ele>130.3</ele>
        <time>2019-07-16T08:15:57Z</time>
      </trkpt>
      <trkpt lat="48.29153" lon="-1.87861">
        <ele>130</ele>
        <time>2019-07-16T08:15:58Z</time>
      </trkpt>
      <trkpt lat="48.29153" lon="-1.87856">
        <ele>129.7</ele>
        <time>2019-07-16T08:15:59Z</time>
      </trkpt>
      <trkpt lat="48.29154" lon="-1.8785">
        <ele>129.4</ele>
        <time>2019-07-16T08:16:00Z</time>
      </trkpt>
      <trkpt lat="48.29155" lon="-1.87844">
        <ele>129.2</ele>
        <time>2019-07-16T08:16:01Z</time>
      </trkpt>
      <trkpt lat="48.29155" lon="-1.87839">
        <ele>128.8</ele>
        <time>2019-07-16T08:16:02Z</time>
      </trkpt>
      <trkpt lat="48.29156" lon="-1.87833">
        <ele>128.9</ele>
        <time>2019-07-16T08:16:03Z</time>
      </trkpt>
      <trkpt lat="48.29157" lon="-1.87828">
        <ele>129.2</ele>
        <time>2019-07-16T08:16:04Z</time>
      </trkpt>
      <trkpt lat="48.29158" lon="-1.87823">
        <ele>129.4</ele>
        <time>2019-07-16T08:16:05Z</time>
      </trkpt>
      <trkpt lat="48.29159" lon="-1.87817">
        <ele>129.5</ele>
        <time>2019-07-16T08:16:06Z</time>
      </trkpt>
      <trkpt lat="48.2916" lon="-1.87812">
        <ele>129.6</ele>
        <time>2019-07-16T08:16:07Z</time>
      </trkpt>
      <trkpt lat="48.29161" lon="-1.87807">
        <ele>129.9</ele>
        <time>2019-07-16T08:16:08Z</time>
      </trkpt>
      <trkpt lat="48.29161" lon="-1.87801">
        <ele>129.8</ele>
        <time>2019-07-16T08:16:09Z</time>
      </trkpt>
      <trkpt lat="48.29162" lon="-1.87795">
        <ele>129.3</ele>
        <time>2019-07-16T08:16:10Z</time>
      </trkpt>
      <trkpt lat="48.29162" lon="-1.8779">
        <ele>128.8</ele>
        <time>2019-07-16T08:16:11Z</time>
      </trkpt>
      <trkpt lat="48.29163" lon="-1.87783">
        <ele>128.9</ele>
        <time>2019-07-16T08:16:12Z</time>
      </trkpt>
      <trkpt lat="48.29163" lon="-1.87777">
        <ele>129.3</ele>
        <time>2019-07-16T08:16:13Z</time>
      </trkpt>
      <trkpt lat="48.29163" lon="-1.87771">
        <ele>129.3</ele>
        <time>2019-07-16T08:16:14Z</time>
      </trkpt>
      <trkpt lat="48.29164" lon="-1.87765">
        <ele>129.5</ele>
        <time>2019-07-16T08:16:15Z</time>
      </trkpt>
      <trkpt lat="48.29165" lon="-1.8776">
        <ele>129.6</ele>
        <time>2019-07-16T08:16:16Z</time>
      </trkpt>
      <trkpt lat="48.29166" lon="-1.87755">
        <ele>129.7</ele>
        <time>2019-07-16T08:16:17Z</time>
      </trkpt>
      <trkpt lat="48.29167" lon="-1.87749">
        <ele>130.2</ele>
        <time>2019-07-16T08:16:18Z</time>
      </trkpt>
      <trkpt lat="48.29168" lon="-1.87744">
        <ele>130.4</ele>
        <time>2019-07-16T08:16:19Z</time>
      </trkpt>
      <trkpt lat="48.29169" lon="-1.87738">
        <ele>130.9</ele>
        <time>2019-07-16T08:16:20Z</time>
      </trkpt>
      <trkpt lat="48.2917" lon="-1.87733">
        <ele>130.8</ele>
        <time>2019-07-16T08:16:21Z</time>
      </trkpt>
      <trkpt lat="48.29171" lon="-1.87728">
        <ele>130.9</ele>
        <time>2019-07-16T08:16:22Z</time>
      </trkpt>
      <trkpt lat="48.29172" lon="-1.87723">
        <ele>131.2</ele>
        <time>2019-07-16T08:16:23Z</time>
      </trkpt>
      <trkpt lat="48.29173" lon="-1.87718">
        <ele>131.3</ele>
        <time>2019-07-16T08:16:24Z</time>
      </trkpt>
      <trkpt lat="48.29173" lon="-1.87713">
        <ele>131.2</ele>
        <time>2019-07-16T08:16:25Z</time>
      </trkpt>
      <trkpt lat="48.29173" lon="-1.87707">
        <ele>130.9</ele>
        <time>2019-07-16T08:16:26Z</time>
      </trkpt>
      <trkpt lat="48.29174" lon="-1.87701">
        <ele>130.6</ele>
        <time>2019-07-16T08:16:27Z</time>
      </trkpt>
      <trkpt lat="48.29174" lon="-1.87696">
        <ele>130.5</ele>
        <time>2019-07-16T08:16:28Z</time>
      </trkpt>
      <trkpt lat="48.29173" lon="-1.8769">
        <ele>130.4</ele>
        <time>2019-07-16T08:16:29Z</time>
      </trkpt>
      <trkpt lat="48.29173" lon="-1.87683">
        <ele>130</ele>
        <time>2019-07-16T08:16:30Z</time>
      </trkpt>
      <trkpt lat="48.29171" lon="-1.87677">
        <ele>129.4</ele>
        <time>2019-07-16T08:16:31Z</time>
      </trkpt>
      <trkpt lat="48.2917" lon="-1.87671">
        <ele>128.8</ele>
        <time>2019-07-16T08:16:32Z</time>
      </trkpt>
      <trkpt lat="48.29169" lon="-1.87666">
        <ele>128.8</ele>
        <time>2019-07-16T08:16:33Z</time>
      </trkpt>
      <trkpt lat="48.29168" lon="-1.87661">
        <ele>129.4</ele>
        <time>2019-07-16T08:16:34Z</time>
      </trkpt>
      <trkpt lat="48.29167" lon="-1.87656">
        <ele>129.8</ele>
        <time>2019-07-16T08:16:35Z</time>
      </trkpt>
      <trkpt lat="48.29166" lon="-1.87651">
        <ele>130.4</ele>
        <time>2019-07-16T08:16:36Z</time>
      </trkpt>
      <trkpt lat="48.29164" lon="-1.87647">
        <ele>130.6</ele>
        <time>2019-07-16T08:16:37Z</time>
      </trkpt>
      <trkpt lat="48.29162" lon="-1.87642">
        <ele>131</ele>
        <time>2019-07-16T08:16:38Z</time>
      </trkpt>
      <trkpt lat="48.2916" lon="-1.87638">
        <ele>131</ele>
        <time>2019-07-16T08:16:39Z</time>
      </trkpt>
      <trkpt lat="48.29158" lon="-1.87633">
        <ele>130.7</ele>
        <time>2019-07-16T08:16:40Z</time>
      </trkpt>
      <trkpt lat="48.29157" lon="-1.87629">
        <ele>130.7</ele>
        <time>2019-07-16T08:16:41Z</time>
      </trkpt>
      <trkpt lat="48.29155" lon="-1.87624">
        <ele>130.5</ele>
        <time>2019-07-16T08:16:42Z</time>
      </trkpt>
      <trkpt lat="48.29155" lon="-1.87619">
        <ele>130.8</ele>
        <time>2019-07-16T08:16:43Z</time>
      </trkpt>
      <trkpt lat="48.29153" lon="-1.87615">
        <ele>131.1</ele>
        <time>2019-07-16T08:16:44Z</time>
      </trkpt>
      <trkpt lat="48.29152" lon="-1.8761">
        <ele>131.7</ele>
        <time>2019-07-16T08:16:45Z</time>
      </trkpt>
      <trkpt lat="48.29151" lon="-1.87605">
        <ele>132.1</ele>
        <time>2019-07-16T08:16:46Z</time>
      </trkpt>
      <trkpt lat="48.29151" lon="-1.876">
        <ele>132.3</ele>
        <time>2019-07-16T08:16:47Z</time>
      </trkpt>
      <trkpt lat="48.29149" lon="-1.87595">
        <ele>132</ele>
        <time>2019-07-16T08:16:48Z</time>
      </trkpt>
      <trkpt lat="48.29148" lon="-1.8759">
        <ele>132.1</ele>
        <time>2019-07-16T08:16:49Z</time>
      </trkpt>
      <trkpt lat="48.29147" lon="-1.87585">
        <ele>132</ele>
        <time>2019-07-16T08:16:50Z</time>
      </trkpt>
      <trkpt lat="48.29146" lon="-1.8758">
        <ele>132.5</ele>
        <time>2019-07-16T08:16:51Z</time>
      </trkpt>
      <trkpt lat="48.29145" lon="-1.87575">
        <ele>132.3</ele>
        <time>2019-07-16T08:16:52Z</time>
      </trkpt>
      <trkpt lat="48.29142" lon="-1.87569">
        <ele>130.7</ele>
        <time>2019-07-16T08:16:53Z</time>
      </trkpt>
      <trkpt lat="48.29141" lon="-1.87563">
        <ele>129.9</ele>
        <time>2019-07-16T08:16:54Z</time>
      </trkpt>
      <trkpt lat="48.2914" lon="-1.87558">
        <ele>130</ele>
        <time>2019-07-16T08:16:55Z</time>
      </trkpt>
      <trkpt lat="48.29139" lon="-1.87552">
        <ele>129.9</ele>
        <time>2019-07-16T08:16:56Z</time>
      </trkpt>
      <trkpt lat="48.29138" lon="-1.87546">
        <ele>130.3</ele>
        <time>2019-07-16T08:16:57Z</time>
      </trkpt>
      <trkpt lat="48.29137" lon="-1.8754">
        <ele>130.4</ele>
        <time>2019-07-16T08:16:58Z</time>
      </trkpt>
      <trkpt lat="48.29136" lon="-1.87534">
        <ele>129.9</ele>
        <time>2019-07-16T08:16:59Z</time>
      </trkpt>
      <trkpt lat="48.29135" lon="-1.87528">
        <ele>130.1</ele>
        <time>2019-07-16T08:17:00Z</time>
      </trkpt>
      <trkpt lat="48.29134" lon="-1.87521">
        <ele>130.4</ele>
        <time>2019-07-16T08:17:01Z</time>
      </trkpt>
      <trkpt lat="48.29133" lon="-1.87514">
        <ele>130.5</ele>
        <time>2019-07-16T08:17:02Z</time>
      </trkpt>
      <trkpt lat="48.29133" lon="-1.87508">
        <ele>130.6</ele>
        <time>2019-07-16T08:17:03Z</time>
      </trkpt>
      <trkpt lat="48.29132" lon="-1.87501">
        <ele>130.7</ele>
        <time>2019-07-16T08:17:04Z</time>
      </trkpt>
      <trkpt lat="48.29131" lon="-1.87494">
        <ele>131</ele>
        <time>2019-07-16T08:17:05Z</time>
      </trkpt>
      <trkpt lat="48.2913" lon="-1.87488">
        <ele>131</ele>
        <time>2019-07-16T08:17:06Z</time>
      </trkpt>
      <trkpt lat="48.29129" lon="-1.87481">
        <ele>131.1</ele>
        <time>2019-07-16T08:17:07Z</time>
      </trkpt>
      <trkpt lat="48.29129" lon="-1.87474">
        <ele>131.1</ele>
        <time>2019-07-16T08:17:08Z</time>
      </trkpt>
      <trkpt lat="48.29129" lon="-1.87466">
        <ele>131.2</ele>
        <time>2019-07-16T08:17:09Z</time>
      </trkpt>
      <trkpt lat="48.29128" lon="-1.87459">
        <ele>131.3</ele>
        <time>2019-07-16T08:17:10Z</time>
      </trkpt>
      <trkpt lat="48.29128" lon="-1.87453">
        <ele>131.3</ele>
        <time>2019-07-16T08:17:11Z</time>
      </trkpt>
      <trkpt lat="48.29128" lon="-1.87445">
        <ele>131.4</ele>
        <time>2019-07-16T08:17:12Z</time>
      </trkpt>
      <trkpt lat="48.29128" lon="-1.87438">
        <ele>130.5</ele>
        <time>2019-07-16T08:17:13Z</time>
      </trkpt>
      <trkpt lat="48.29128" lon="-1.87431">
        <ele>130.7</ele>
        <time>2019-07-16T08:17:14Z</time>
      </trkpt>
      <trkpt lat="48.29128" lon="-1.87424">
        <ele>130.8</ele>
        <time>2019-07-16T08:17:15Z</time>
      </trkpt>
      <trkpt lat="48.29128" lon="-1.87418">
        <ele>130.8</ele>
        <time>2019-07-16T08:17:16Z</time>
      </trkpt>
      <trkpt lat="48.29128" lon="-1.87411">
        <ele>130.6</ele>
        <time>2019-07-16T08:17:17Z</time>
      </trkpt>
      <trkpt lat="48.29128" lon="-1.87405">
        <ele>130.5</ele>
        <time>2019-07-16T08:17:18Z</time>
      </trkpt>
      <trkpt lat="48.29128" lon="-1.87399">
        <ele>130.9</ele>
        <time>2019-07-16T08:17:19Z</time>
      </trkpt>
      <trkpt lat="48.29127" lon="-1.87393">
        <ele>131.2</ele>
        <time>2019-07-16T08:17:20Z</time>
      </trkpt>
      <trkpt lat="48.29126" lon="-1.87387">
        <ele>131.3</ele>
        <time>2019-07-16T08:17:21Z</time>
      </trkpt>
      <trkpt lat="48.29125" lon="-1.87382">
        <ele>131.6</ele>
        <time>2019-07-16T08:17:22Z</time>
      </trkpt>
      <trkpt lat="48.29125" lon="-1.87376">
        <ele>131.7</ele>
        <time>2019-07-16T08:17:23Z</time>
      </trkpt>
      <trkpt lat="48.29125" lon="-1.87371">
        <ele>131.8</ele>
        <time>2019-07-16T08:17:24Z</time>
      </trkpt>
      <trkpt lat="48.29125" lon="-1.87366">
        <ele>132</ele>
        <time>2019-07-16T08:17:25Z</time>
      </trkpt>
      <trkpt lat="48.29124" lon="-1.87362">
        <ele>132.1</ele>
        <time>2019-07-16T08:17:26Z</time>
      </trkpt>
      <trkpt lat="48.29123" lon="-1.87357">
        <ele>132.3</ele>
        <time>2019-07-16T08:17:27Z</time>
      </trkpt>
      <trkpt lat="48.29123" lon="-1.87353">
        <ele>132.6</ele>
        <time>2019-07-16T08:17:28Z</time>
      </trkpt>
      <trkpt lat="48.29122" lon="-1.87348">
        <ele>132.5</ele>
        <time>2019-07-16T08:17:29Z</time>
      </trkpt>
      <trkpt lat="48.29121" lon="-1.87343">
        <ele>132.4</ele>
        <time>2019-07-16T08:17:30Z</time>
      </trkpt>
      <trkpt lat="48.29121" lon="-1.87338">
        <ele>132.5</ele>
        <time>2019-07-16T08:17:31Z</time>
      </trkpt>
      <trkpt lat="48.29121" lon="-1.87333">
        <ele>132.5</ele>
        <time>2019-07-16T08:17:32Z</time>
      </trkpt>
      <trkpt lat="48.29122" lon="-1.87327">
        <ele>132.3</ele>
        <time>2019-07-16T08:17:33Z</time>
      </trkpt>
      <trkpt lat="48.29122" lon="-1.87321">
        <ele>132.1</ele>
        <time>2019-07-16T08:17:34Z</time>
      </trkpt>
      <trkpt lat="48.29123" lon="-1.87316">
        <ele>131.6</ele>
        <time>2019-07-16T08:17:35Z</time>
      </trkpt>
      <trkpt lat="48.29123" lon="-1.87309">
        <ele>131.6</ele>
        <time>2019-07-16T08:17:36Z</time>
      </trkpt>
      <trkpt lat="48.29123" lon="-1.87302">
        <ele>131.9</ele>
        <time>2019-07-16T08:17:37Z</time>
      </trkpt>
      <trkpt lat="48.29122" lon="-1.87295">
        <ele>132.4</ele>
        <time>2019-07-16T08:17:38Z</time>
      </trkpt>
      <trkpt lat="48.29123" lon="-1.87288">
        <ele>132.8</ele>
        <time>2019-07-16T08:17:39Z</time>
      </trkpt>
      <trkpt lat="48.29123" lon="-1.87281">
        <ele>133.1</ele>
        <time>2019-07-16T08:17:40Z</time>
      </trkpt>
      <trkpt lat="48.29123" lon="-1.87273">
        <ele>133.3</ele>
        <time>2019-07-16T08:17:41Z</time>
      </trkpt>
      <trkpt lat="48.29124" lon="-1.87265">
        <ele>133.5</ele>
        <time>2019-07-16T08:17:42Z</time>
      </trkpt>
      <trkpt lat="48.29124" lon="-1.87256">
        <ele>133.6</ele>
        <time>2019-07-16T08:17:43Z</time>
      </trkpt>
      <trkpt lat="48.29125" lon="-1.87246">
        <ele>133.1</ele>
        <time>2019-07-16T08:17:44Z</time>
      </trkpt>
      <trkpt lat="48.29126" lon="-1.87237">
        <ele>132.9</ele>
        <time>2019-07-16T08:17:45Z</time>
      </trkpt>
      <trkpt lat="48.29126" lon="-1.87228">
        <ele>132.3</ele>
        <time>2019-07-16T08:17:46Z</time>
      </trkpt>
      <trkpt lat="48.29126" lon="-1.87218">
        <ele>132.2</ele>
        <time>2019-07-16T08:17:47Z</time>
      </trkpt>
      <trkpt lat="48.29126" lon="-1.87208">
        <ele>131.5</ele>
        <time>2019-07-16T08:17:48Z</time>
      </trkpt>
      <trkpt lat="48.29126" lon="-1.87199">
        <ele>131</ele>
        <time>2019-07-16T08:17:49Z</time>
      </trkpt>
      <trkpt lat="48.29126" lon="-1.87189">
        <ele>130.7</ele>
        <time>2019-07-16T08:17:50Z</time>
      </trkpt>
      <trkpt lat="48.29125" lon="-1.8718">
        <ele>129.8</ele>
        <time>2019-07-16T08:17:51Z</time>
      </trkpt>
      <trkpt lat="48.29125" lon="-1.87171">
        <ele>129.4</ele>
        <time>2019-07-16T08:17:52Z</time>
      </trkpt>
      <trkpt lat="48.29124" lon="-1.87161">
        <ele>129</ele>
        <time>2019-07-16T08:17:53Z</time>
      </trkpt>
      <trkpt lat="48.29123" lon="-1.87152">
        <ele>128.9</ele>
        <time>2019-07-16T08:17:54Z</time>
      </trkpt>
      <trkpt lat="48.29122" lon="-1.87142">
        <ele>129.2</ele>
        <time>2019-07-16T08:17:55Z</time>
      </trkpt>
      <trkpt lat="48.29121" lon="-1.87133">
        <ele>129.5</ele>
        <time>2019-07-16T08:17:56Z</time>
      </trkpt>
      <trkpt lat="48.29119" lon="-1.87124">
        <ele>129.8</ele>
        <time>2019-07-16T08:17:57Z</time>
      </trkpt>
      <trkpt lat="48.29117" lon="-1.87115">
        <ele>129.6</ele>
        <time>2019-07-16T08:17:58Z</time>
      </trkpt>
      <trkpt lat="48.29115" lon="-1.87106">
        <ele>129.4</ele>
        <time>2019-07-16T08:17:59Z</time>
      </trkpt>
      <trkpt lat="48.29115" lon="-1.87097">
        <ele>128.4</ele>
        <time>2019-07-16T08:18:00Z</time>
      </trkpt>
      <trkpt lat="48.29113" lon="-1.87088">
        <ele>128</ele>
        <time>2019-07-16T08:18:01Z</time>
      </trkpt>
      <trkpt lat="48.2911" lon="-1.87079">
        <ele>128.2</ele>
        <time>2019-07-16T08:18:02Z</time>
      </trkpt>
      <trkpt lat="48.29108" lon="-1.8707">
        <ele>128</ele>
        <time>2019-07-16T08:18:03Z</time>
      </trkpt>
      <trkpt lat="48.29105" lon="-1.87061">
        <ele>127.7</ele>
        <time>2019-07-16T08:18:04Z</time>
      </trkpt>
      <trkpt lat="48.29102" lon="-1.87052">
        <ele>127.1</ele>
        <time>2019-07-16T08:18:05Z</time>
      </trkpt>
      <trkpt lat="48.29099" lon="-1.87043">
        <ele>126.4</ele>
        <time>2019-07-16T08:18:06Z</time>
      </trkpt>
      <trkpt lat="48.29096" lon="-1.87034">
        <ele>125.7</ele>
        <time>2019-07-16T08:18:07Z</time>
      </trkpt>
      <trkpt lat="48.29093" lon="-1.87024">
        <ele>124.7</ele>
        <time>2019-07-16T08:18:08Z</time>
      </trkpt>
      <trkpt lat="48.29091" lon="-1.87015">
        <ele>123.2</ele>
        <time>2019-07-16T08:18:09Z</time>
      </trkpt>
      <trkpt lat="48.29088" lon="-1.87006">
        <ele>122.3</ele>
        <time>2019-07-16T08:18:10Z</time>
      </trkpt>
      <trkpt lat="48.29085" lon="-1.86996">
        <ele>121.5</ele>
        <time>2019-07-16T08:18:11Z</time>
      </trkpt>
      <trkpt lat="48.29082" lon="-1.86987">
        <ele>120.9</ele>
        <time>2019-07-16T08:18:12Z</time>
      </trkpt>
      <trkpt lat="48.29079" lon="-1.86977">
        <ele>120.3</ele>
        <time>2019-07-16T08:18:13Z</time>
      </trkpt>
      <trkpt lat="48.29076" lon="-1.86968">
        <ele>120</ele>
        <time>2019-07-16T08:18:14Z</time>
      </trkpt>
      <trkpt lat="48.29073" lon="-1.86958">
        <ele>120.3</ele>
        <time>2019-07-16T08:18:15Z</time>
      </trkpt>
      <trkpt lat="48.29071" lon="-1.86948">
        <ele>120.5</ele>
        <time>2019-07-16T08:18:16Z</time>
      </trkpt>
      <trkpt lat="48.29068" lon="-1.86939">
        <ele>120.4</ele>
        <time>2019-07-16T08:18:17Z</time>
      </trkpt>
      <trkpt lat="48.29065" lon="-1.86929">
        <ele>119.9</ele>
        <time>2019-07-16T08:18:18Z</time>
      </trkpt>
      <trkpt lat="48.29062" lon="-1.86918">
        <ele>119.3</ele>
        <time>2019-07-16T08:18:19Z</time>
      </trkpt>
      <trkpt lat="48.2906" lon="-1.86908">
        <ele>119.2</ele>
        <time>2019-07-16T08:18:20Z</time>
      </trkpt>
      <trkpt lat="48.29056" lon="-1.86897">
        <ele>118.9</ele>
        <time>2019-07-16T08:18:21Z</time>
      </trkpt>
      <trkpt lat="48.29054" lon="-1.86886">
        <ele>118</ele>
        <time>2019-07-16T08:18:22Z</time>
      </trkpt>
      <trkpt lat="48.29051" lon="-1.86876">
        <ele>118.2</ele>
        <time>2019-07-16T08:18:23Z</time>
      </trkpt>
      <trkpt lat="48.29047" lon="-1.86867">
        <ele>117.9</ele>
        <time>2019-07-16T08:18:24Z</time>
      </trkpt>
      <trkpt lat="48.29042" lon="-1.86859">
        <ele>117.8</ele>
        <time>2019-07-16T08:18:25Z</time>
      </trkpt>
      <trkpt lat="48.29038" lon="-1.86853">
        <ele>118</ele>
        <time>2019-07-16T08:18:26Z</time>
      </trkpt>
      <trkpt lat="48.29032" lon="-1.86849">
        <ele>118.6</ele>
        <time>2019-07-16T08:18:27Z</time>
      </trkpt>
      <trkpt lat="48.29027" lon="-1.86845">
        <ele>118.6</ele>
        <time>2019-07-16T08:18:28Z</time>
      </trkpt>
      <trkpt lat="48.29023" lon="-1.86842">
        <ele>118.4</ele>
        <time>2019-07-16T08:18:29Z</time>
      </trkpt>
      <trkpt lat="48.2902" lon="-1.8684">
        <ele>118.5</ele>
        <time>2019-07-16T08:18:30Z</time>
      </trkpt>
      <trkpt lat="48.29016" lon="-1.86838">
        <ele>118.9</ele>
        <time>2019-07-16T08:18:31Z</time>
      </trkpt>
      <trkpt lat="48.29013" lon="-1.86837">
        <ele>118.9</ele>
        <time>2019-07-16T08:18:32Z</time>
      </trkpt>
      <trkpt lat="48.2901" lon="-1.86835">
        <ele>119.1</ele>
        <time>2019-07-16T08:18:33Z</time>
      </trkpt>
      <trkpt lat="48.29007" lon="-1.86834">
        <ele>119.2</ele>
        <time>2019-07-16T08:18:34Z</time>
      </trkpt>
      <trkpt lat="48.29004" lon="-1.86833">
        <ele>119.4</ele>
        <time>2019-07-16T08:18:35Z</time>
      </trkpt>
      <trkpt lat="48.29002" lon="-1.86833">
        <ele>119.4</ele>
        <time>2019-07-16T08:18:36Z</time>
      </trkpt>
      <trkpt lat="48.28999" lon="-1.86833">
        <ele>119.3</ele>
        <time>2019-07-16T08:18:37Z</time>
      </trkpt>
      <trkpt lat="48.28996" lon="-1.86832">
        <ele>119.3</ele>
        <time>2019-07-16T08:18:38Z</time>
      </trkpt>
      <trkpt lat="48.28993" lon="-1.86832">
        <ele>119.4</ele>
        <time>2019-07-16T08:18:39Z</time>
      </trkpt>
      <trkpt lat="48.28989" lon="-1.86831">
        <ele>119.4</ele>
        <time>2019-07-16T08:18:40Z</time>
      </trkpt>
      <trkpt lat="48.28986" lon="-1.86831">
        <ele>119.5</ele>
        <time>2019-07-16T08:18:41Z</time>
      </trkpt>
      <trkpt lat="48.28983" lon="-1.8683">
        <ele>119.5</ele>
        <time>2019-07-16T08:18:42Z</time>
      </trkpt>
      <trkpt lat="48.2898" lon="-1.8683">
        <ele>119.6</ele>
        <time>2019-07-16T08:18:43Z</time>
      </trkpt>
      <trkpt lat="48.28977" lon="-1.8683">
        <ele>119.6</ele>
        <time>2019-07-16T08:18:44Z</time>
      </trkpt>
      <trkpt lat="48.28974" lon="-1.86829">
        <ele>119.6</ele>
        <time>2019-07-16T08:18:45Z</time>
      </trkpt>
      <trkpt lat="48.28972" lon="-1.86829">
        <ele>119.5</ele>
        <time>2019-07-16T08:18:46Z</time>
      </trkpt>
      <trkpt lat="48.28969" lon="-1.86828">
        <ele>119.4</ele>
        <time>2019-07-16T08:18:47Z</time>
      </trkpt>
      <trkpt lat="48.28966" lon="-1.86828">
        <ele>119.5</ele>
        <time>2019-07-16T08:18:48Z</time>
      </trkpt>
      <trkpt lat="48.28963" lon="-1.86828">
        <ele>119.8</ele>
        <time>2019-07-16T08:18:49Z</time>
      </trkpt>
      <trkpt lat="48.2896" lon="-1.86827">
        <ele>120</ele>
        <time>2019-07-16T08:18:50Z</time>
      </trkpt>
      <trkpt lat="48.28957" lon="-1.86827">
        <ele>120</ele>
        <time>2019-07-16T08:18:51Z</time>
      </trkpt>
      <trkpt lat="48.28954" lon="-1.86826">
        <ele>120.3</ele>
        <time>2019-07-16T08:18:52Z</time>
      </trkpt>
      <trkpt lat="48.28951" lon="-1.86826">
        <ele>120.5</ele>
        <time>2019-07-16T08:18:53Z</time>
      </trkpt>
      <trkpt lat="48.28948" lon="-1.86825">
        <ele>120.7</ele>
        <time>2019-07-16T08:18:54Z</time>
      </trkpt>
      <trkpt lat="48.28945" lon="-1.86825">
        <ele>120.6</ele>
        <time>2019-07-16T08:18:55Z</time>
      </trkpt>
      <trkpt lat="48.28942" lon="-1.86825">
        <ele>120.4</ele>
        <time>2019-07-16T08:18:56Z</time>
      </trkpt>
      <trkpt lat="48.28939" lon="-1.86825">
        <ele>120.5</ele>
        <time>2019-07-16T08:18:57Z</time>
      </trkpt>
      <trkpt lat="48.28937" lon="-1.86825">
        <ele>120.8</ele>
        <time>2019-07-16T08:18:58Z</time>
      </trkpt>
      <trkpt lat="48.28934" lon="-1.86825">
        <ele>120.9</ele>
        <time>2019-07-16T08:18:59Z</time>
      </trkpt>
      <trkpt lat="48.28931" lon="-1.86824">
        <ele>120.9</ele>
        <time>2019-07-16T08:19:00Z</time>
      </trkpt>
      <trkpt lat="48.28928" lon="-1.86824">
        <ele>120.6</ele>
        <time>2019-07-16T08:19:01Z</time>
      </trkpt>
      <trkpt lat="48.28926" lon="-1.86823">
        <ele>120.6</ele>
        <time>2019-07-16T08:19:02Z</time>
      </trkpt>
      <trkpt lat="48.28923" lon="-1.86822">
        <ele>120.5</ele>
        <time>2019-07-16T08:19:03Z</time>
      </trkpt>
      <trkpt lat="48.2892" lon="-1.86821">
        <ele>120.7</ele>
        <time>2019-07-16T08:19:04Z</time>
      </trkpt>
      <trkpt lat="48.28917" lon="-1.86819">
        <ele>121.2</ele>
        <time>2019-07-16T08:19:05Z</time>
      </trkpt>
      <trkpt lat="48.28914" lon="-1.86818">
        <ele>121.8</ele>
        <time>2019-07-16T08:19:06Z</time>
      </trkpt>
      <trkpt lat="48.28912" lon="-1.86817">
        <ele>122.3</ele>
        <time>2019-07-16T08:19:07Z</time>
      </trkpt>
      <trkpt lat="48.28909" lon="-1.86815">
        <ele>123</ele>
        <time>2019-07-16T08:19:08Z</time>
      </trkpt>
      <trkpt lat="48.28906" lon="-1.86814">
        <ele>123.6</ele>
        <time>2019-07-16T08:19:09Z</time>
      </trkpt>
      <trkpt lat="48.28904" lon="-1.86812">
        <ele>124</ele>
        <time>2019-07-16T08:19:10Z</time>
      </trkpt>
      <trkpt lat="48.28902" lon="-1.8681">
        <ele>124.2</ele>
        <time>2019-07-16T08:19:11Z</time>
      </trkpt>
      <trkpt lat="48.28899" lon="-1.86807">
        <ele>124.4</ele>
        <time>2019-07-16T08:19:12Z</time>
      </trkpt>
      <trkpt lat="48.28898" lon="-1.86803">
        <ele>124.9</ele>
        <time>2019-07-16T08:19:13Z</time>
      </trkpt>
      <trkpt lat="48.28896" lon="-1.868">
        <ele>125.1</ele>
        <time>2019-07-16T08:19:14Z</time>
      </trkpt>
      <trkpt lat="48.28895" lon="-1.86796">
        <ele>125.8</ele>
        <time>2019-07-16T08:19:15Z</time>
      </trkpt>
      <trkpt lat="48.28893" lon="-1.86792">
        <ele>126.3</ele>
        <time>2019-07-16T08:19:16Z</time>
      </trkpt>
      <trkpt lat="48.28892" lon="-1.86788">
        <ele>126.6</ele>
        <time>2019-07-16T08:19:17Z</time>
      </trkpt>
      <trkpt lat="48.2889" lon="-1.86785">
        <ele>126.6</ele>
        <time>2019-07-16T08:19:18Z</time>
      </trkpt>
      <trkpt lat="48.28889" lon="-1.86781">
        <ele>127.1</ele>
        <time>2019-07-16T08:19:19Z</time>
      </trkpt>
      <trkpt lat="48.28889" lon="-1.86777">
        <ele>127.2</ele>
        <time>2019-07-16T08:19:20Z</time>
      </trkpt>
      <trkpt lat="48.28889" lon="-1.86773">
        <ele>127.9</ele>
        <time>2019-07-16T08:19:21Z</time>
      </trkpt>
      <trkpt lat="48.28888" lon="-1.8677">
        <ele>128.4</ele>
        <time>2019-07-16T08:19:22Z</time>
      </trkpt>
      <trkpt lat="48.28888" lon="-1.86766">
        <ele>128.5</ele>
        <time>2019-07-16T08:19:23Z</time>
      </trkpt>
      <trkpt lat="48.28887" lon="-1.86763">
        <ele>128.7</ele>
        <time>2019-07-16T08:19:24Z</time>
      </trkpt>
      <trkpt lat="48.28887" lon="-1.8676">
        <ele>128.8</ele>
        <time>2019-07-16T08:19:25Z</time>
      </trkpt>
      <trkpt lat="48.28886" lon="-1.86757">
        <ele>128.8</ele>
        <time>2019-07-16T08:19:26Z</time>
      </trkpt>
      <trkpt lat="48.28884" lon="-1.86754">
        <ele>128.5</ele>
        <time>2019-07-16T08:19:27Z</time>
      </trkpt>
      <trkpt lat="48.28881" lon="-1.86751">
        <ele>127.8</ele>
        <time>2019-07-16T08:19:28Z</time>
      </trkpt>
      <trkpt lat="48.28878" lon="-1.86749">
        <ele>126.9</ele>
        <time>2019-07-16T08:19:29Z</time>
      </trkpt>
      <trkpt lat="48.28877" lon="-1.86746">
        <ele>126.3</ele>
        <time>2019-07-16T08:19:30Z</time>
      </trkpt>
      <trkpt lat="48.28875" lon="-1.86745">
        <ele>126</ele>
        <time>2019-07-16T08:19:31Z</time>
      </trkpt>
      <trkpt lat="48.28873" lon="-1.86743">
        <ele>126</ele>
        <time>2019-07-16T08:19:32Z</time>
      </trkpt>
      <trkpt lat="48.2887" lon="-1.86741">
        <ele>126</ele>
        <time>2019-07-16T08:19:33Z</time>
      </trkpt>
      <trkpt lat="48.28868" lon="-1.86739">
        <ele>125.1</ele>
        <time>2019-07-16T08:19:34Z</time>
      </trkpt>
      <trkpt lat="48.28866" lon="-1.86737">
        <ele>124.2</ele>
        <time>2019-07-16T08:19:35Z</time>
      </trkpt>
      <trkpt lat="48.28864" lon="-1.86735">
        <ele>123.3</ele>
        <time>2019-07-16T08:19:36Z</time>
      </trkpt>
      <trkpt lat="48.28861" lon="-1.86734">
        <ele>122.8</ele>
        <time>2019-07-16T08:19:37Z</time>
      </trkpt>
      <trkpt lat="48.28857" lon="-1.86733">
        <ele>122.3</ele>
        <time>2019-07-16T08:19:38Z</time>
      </trkpt>
      <trkpt lat="48.28853" lon="-1.86733">
        <ele>122.2</ele>
        <time>2019-07-16T08:19:39Z</time>
      </trkpt>
      <trkpt lat="48.2885" lon="-1.86733">
        <ele>122.2</ele>
        <time>2019-07-16T08:19:40Z</time>
      </trkpt>
      <trkpt lat="48.28848" lon="-1.86731">
        <ele>122.6</ele>
        <time>2019-07-16T08:19:41Z</time>
      </trkpt>
      <trkpt lat="48.28846" lon="-1.86731">
        <ele>122.8</ele>
        <time>2019-07-16T08:19:42Z</time>
      </trkpt>
      <trkpt lat="48.28845" lon="-1.86728">
        <ele>123.5</ele>
        <time>2019-07-16T08:19:43Z</time>
      </trkpt>
      <trkpt lat="48.28843" lon="-1.86725">
        <ele>124.1</ele>
        <time>2019-07-16T08:19:44Z</time>
      </trkpt>
      <trkpt lat="48.28841" lon="-1.86723">
        <ele>124.5</ele>
        <time>2019-07-16T08:19:45Z</time>
      </trkpt>
      <trkpt lat="48.28841" lon="-1.86719">
        <ele>125.4</ele>
        <time>2019-07-16T08:19:46Z</time>
      </trkpt>
      <trkpt lat="48.2884" lon="-1.86716">
        <ele>126.1</ele>
        <time>2019-07-16T08:19:47Z</time>
      </trkpt>
      <trkpt lat="48.28838" lon="-1.86714">
        <ele>126.7</ele>
        <time>2019-07-16T08:19:48Z</time>
      </trkpt>
      <trkpt lat="48.28836" lon="-1.86712">
        <ele>128</ele>
        <time>2019-07-16T08:19:49Z</time>
      </trkpt>
      <trkpt lat="48.28836" lon="-1.86708">
        <ele>128.7</ele>
        <time>2019-07-16T08:19:50Z</time>
      </trkpt>
      <trkpt lat="48.28834" lon="-1.86704">
        <ele>129.3</ele>
        <time>2019-07-16T08:19:51Z</time>
      </trkpt>
      <trkpt lat="48.28833" lon="-1.867">
        <ele>129.9</ele>
        <time>2019-07-16T08:19:52Z</time>
      </trkpt>
      <trkpt lat="48.28832" lon="-1.86696">
        <ele>130.7</ele>
        <time>2019-07-16T08:19:53Z</time>
      </trkpt>
      <trkpt lat="48.2883" lon="-1.86693">
        <ele>131</ele>
        <time>2019-07-16T08:19:54Z</time>
      </trkpt>
      <trkpt lat="48.2883" lon="-1.8669">
        <ele>131.8</ele>
        <time>2019-07-16T08:19:55Z</time>
      </trkpt>
      <trkpt lat="48.28828" lon="-1.86688">
        <ele>131.3</ele>
        <time>2019-07-16T08:19:56Z</time>
      </trkpt>
      <trkpt lat="48.28824" lon="-1.86683">
        <ele>131.2</ele>
        <time>2019-07-16T08:20:09Z</time>
      </trkpt>
      <trkpt lat="48.28821" lon="-1.86682">
        <ele>131.2</ele>
        <time>2019-07-16T08:20:10Z</time>
      </trkpt>
      <trkpt lat="48.28819" lon="-1.8668">
        <ele>131.3</ele>
        <time>2019-07-16T08:20:11Z</time>
      </trkpt>
      <trkpt lat="48.28817" lon="-1.86679">
        <ele>131.3</ele>
        <time>2019-07-16T08:20:12Z</time>
      </trkpt>
      <trkpt lat="48.28814" lon="-1.86679">
        <ele>131.8</ele>
        <time>2019-07-16T08:20:13Z</time>
      </trkpt>
      <trkpt lat="48.28812" lon="-1.86678">
        <ele>131.8</ele>
        <time>2019-07-16T08:20:14Z</time>
      </trkpt>
      <trkpt lat="48.2881" lon="-1.86675">
        <ele>131.4</ele>
        <time>2019-07-16T08:20:15Z</time>
      </trkpt>
      <trkpt lat="48.28808" lon="-1.86672">
        <ele>130.9</ele>
        <time>2019-07-16T08:20:16Z</time>
      </trkpt>
      <trkpt lat="48.28807" lon="-1.86668">
        <ele>130.4</ele>
        <time>2019-07-16T08:20:17Z</time>
      </trkpt>
      <trkpt lat="48.28806" lon="-1.86664">
        <ele>130.2</ele>
        <time>2019-07-16T08:20:18Z</time>
      </trkpt>
      <trkpt lat="48.28805" lon="-1.8666">
        <ele>129.9</ele>
        <time>2019-07-16T08:20:19Z</time>
      </trkpt>
      <trkpt lat="48.28805" lon="-1.86656">
        <ele>129.8</ele>
        <time>2019-07-16T08:20:20Z</time>
      </trkpt>
      <trkpt lat="48.28804" lon="-1.86653">
        <ele>130</ele>
        <time>2019-07-16T08:20:21Z</time>
      </trkpt>
      <trkpt lat="48.28803" lon="-1.86649">
        <ele>130.3</ele>
        <time>2019-07-16T08:20:22Z</time>
      </trkpt>
      <trkpt lat="48.28803" lon="-1.86645">
        <ele>130.8</ele>
        <time>2019-07-16T08:20:23Z</time>
      </trkpt>
      <trkpt lat="48.28802" lon="-1.86642">
        <ele>131.4</ele>
        <time>2019-07-16T08:20:24Z</time>
      </trkpt>
      <trkpt lat="48.28801" lon="-1.86639">
        <ele>132.6</ele>
        <time>2019-07-16T08:20:25Z</time>
      </trkpt>
      <trkpt lat="48.28801" lon="-1.86635">
        <ele>133.3</ele>
        <time>2019-07-16T08:20:26Z</time>
      </trkpt>
      <trkpt lat="48.28801" lon="-1.86633">
        <ele>133.8</ele>
        <time>2019-07-16T08:20:27Z</time>
      </trkpt>
      <trkpt lat="48.28796" lon="-1.86625">
        <ele>138.8</ele>
        <time>2019-07-16T08:27:20Z</time>
      </trkpt>
      <trkpt lat="48.28796" lon="-1.86621">
        <ele>138.8</ele>
        <time>2019-07-16T08:27:21Z</time>
      </trkpt>
      <trkpt lat="48.28796" lon="-1.86618">
        <ele>138.8</ele>
        <time>2019-07-16T08:27:22Z</time>
      </trkpt>
      <trkpt lat="48.28795" lon="-1.86614">
        <ele>138.9</ele>
        <time>2019-07-16T08:27:23Z</time>
      </trkpt>
      <trkpt lat="48.28795" lon="-1.86611">
        <ele>139</ele>
        <time>2019-07-16T08:27:24Z</time>
      </trkpt>
      <trkpt lat="48.28795" lon="-1.86607">
        <ele>138.9</ele>
        <time>2019-07-16T08:27:25Z</time>
      </trkpt>
      <trkpt lat="48.28795" lon="-1.86603">
        <ele>138.7</ele>
        <time>2019-07-16T08:27:26Z</time>
      </trkpt>
      <trkpt lat="48.28796" lon="-1.86599">
        <ele>138.3</ele>
        <time>2019-07-16T08:27:27Z</time>
      </trkpt>
      <trkpt lat="48.28796" lon="-1.86595">
        <ele>138</ele>
        <time>2019-07-16T08:27:28Z</time>
      </trkpt>
      <trkpt lat="48.28795" lon="-1.86591">
        <ele>137.5</ele>
        <time>2019-07-16T08:27:29Z</time>
      </trkpt>
      <trkpt lat="48.28795" lon="-1.86586">
        <ele>136.9</ele>
        <time>2019-07-16T08:27:30Z</time>
      </trkpt>
      <trkpt lat="48.28793" lon="-1.86581">
        <ele>136.2</ele>
        <time>2019-07-16T08:27:31Z</time>
      </trkpt>
      <trkpt lat="48.28793" lon="-1.86576">
        <ele>135.6</ele>
        <time>2019-07-16T08:27:32Z</time>
      </trkpt>
      <trkpt lat="48.28792" lon="-1.86572">
        <ele>135.4</ele>
        <time>2019-07-16T08:27:33Z</time>
      </trkpt>
      <trkpt lat="48.28791" lon="-1.86567">
        <ele>135.3</ele>
        <time>2019-07-16T08:27:34Z</time>
      </trkpt>
      <trkpt lat="48.28791" lon="-1.86562">
        <ele>135.4</ele>
        <time>2019-07-16T08:27:35Z</time>
      </trkpt>
      <trkpt lat="48.2879" lon="-1.86557">
        <ele>134.9</ele>
        <time>2019-07-16T08:27:36Z</time>
      </trkpt>
      <trkpt lat="48.28789" lon="-1.86553">
        <ele>135</ele>
        <time>2019-07-16T08:27:37Z</time>
      </trkpt>
      <trkpt lat="48.28787" lon="-1.86548">
        <ele>135.1</ele>
        <time>2019-07-16T08:27:38Z</time>
      </trkpt>
      <trkpt lat="48.28785" lon="-1.86543">
        <ele>134.9</ele>
        <time>2019-07-16T08:27:39Z</time>
      </trkpt>
      <trkpt lat="48.28784" lon="-1.86539">
        <ele>134.7</ele>
        <time>2019-07-16T08:27:40Z</time>
      </trkpt>
      <trkpt lat="48.28782" lon="-1.86535">
        <ele>134.4</ele>
        <time>2019-07-16T08:27:41Z</time>
      </trkpt>
      <trkpt lat="48.2878" lon="-1.8653">
        <ele>134.5</ele>
        <time>2019-07-16T08:27:42Z</time>
      </trkpt>
      <trkpt lat="48.28779" lon="-1.86526">
        <ele>134.5</ele>
        <time>2019-07-16T08:27:43Z</time>
      </trkpt>
      <trkpt lat="48.28777" lon="-1.86522">
        <ele>134.4</ele>
        <time>2019-07-16T08:27:44Z</time>
      </trkpt>
      <trkpt lat="48.28776" lon="-1.86517">
        <ele>133.8</ele>
        <time>2019-07-16T08:27:45Z</time>
      </trkpt>
      <trkpt lat="48.28775" lon="-1.86513">
        <ele>133.3</ele>
        <time>2019-07-16T08:27:46Z</time>
      </trkpt>
      <trkpt lat="48.28774" lon="-1.86509">
        <ele>132.9</ele>
        <time>2019-07-16T08:27:47Z</time>
      </trkpt>
      <trkpt lat="48.28771" lon="-1.86505">
        <ele>132.1</ele>
        <time>2019-07-16T08:27:48Z</time>
      </trkpt>
      <trkpt lat="48.2877" lon="-1.86501">
        <ele>131.3</ele>
        <time>2019-07-16T08:27:49Z</time>
      </trkpt>
      <trkpt lat="48.28768" lon="-1.86497">
        <ele>130.9</ele>
        <time>2019-07-16T08:27:50Z</time>
      </trkpt>
      <trkpt lat="48.28766" lon="-1.86492">
        <ele>130.4</ele>
        <time>2019-07-16T08:27:51Z</time>
      </trkpt>
      <trkpt lat="48.28764" lon="-1.86487">
        <ele>129.8</ele>
        <time>2019-07-16T08:27:52Z</time>
      </trkpt>
      <trkpt lat="48.28762" lon="-1.86482">
        <ele>129.2</ele>
        <time>2019-07-16T08:27:53Z</time>
      </trkpt>
      <trkpt lat="48.2876" lon="-1.86477">
        <ele>128.9</ele>
        <time>2019-07-16T08:27:54Z</time>
      </trkpt>
      <trkpt lat="48.28758" lon="-1.86473">
        <ele>128.7</ele>
        <time>2019-07-16T08:27:55Z</time>
      </trkpt>
      <trkpt lat="48.28756" lon="-1.86468">
        <ele>128.7</ele>
        <time>2019-07-16T08:27:56Z</time>
      </trkpt>
      <trkpt lat="48.28755" lon="-1.86463">
        <ele>128.9</ele>
        <time>2019-07-16T08:27:57Z</time>
      </trkpt>
      <trkpt lat="48.28754" lon="-1.86458">
        <ele>129.3</ele>
        <time>2019-07-16T08:27:58Z</time>
      </trkpt>
      <trkpt lat="48.28752" lon="-1.86454">
        <ele>129.5</ele>
        <time>2019-07-16T08:27:59Z</time>
      </trkpt>
      <trkpt lat="48.28749" lon="-1.86449">
        <ele>128.3</ele>
        <time>2019-07-16T08:28:00Z</time>
      </trkpt>
      <trkpt lat="48.28747" lon="-1.86445">
        <ele>128</ele>
        <time>2019-07-16T08:28:01Z</time>
      </trkpt>
      <trkpt lat="48.28745" lon="-1.8644">
        <ele>127.2</ele>
        <time>2019-07-16T08:28:02Z</time>
      </trkpt>
      <trkpt lat="48.28742" lon="-1.86436">
        <ele>126.4</ele>
        <time>2019-07-16T08:28:03Z</time>
      </trkpt>
      <trkpt lat="48.28741" lon="-1.86432">
        <ele>126.5</ele>
        <time>2019-07-16T08:28:04Z</time>
      </trkpt>
      <trkpt lat="48.28739" lon="-1.86428">
        <ele>126.5</ele>
        <time>2019-07-16T08:28:05Z</time>
      </trkpt>
      <trkpt lat="48.28737" lon="-1.86423">
        <ele>125.9</ele>
        <time>2019-07-16T08:28:06Z</time>
      </trkpt>
      <trkpt lat="48.28735" lon="-1.86418">
        <ele>125.4</ele>
        <time>2019-07-16T08:28:07Z</time>
      </trkpt>
      <trkpt lat="48.28732" lon="-1.86413">
        <ele>124.8</ele>
        <time>2019-07-16T08:28:08Z</time>
      </trkpt>
      <trkpt lat="48.2873" lon="-1.86408">
        <ele>124.6</ele>
        <time>2019-07-16T08:28:09Z</time>
      </trkpt>
      <trkpt lat="48.28728" lon="-1.86404">
        <ele>124.4</ele>
        <time>2019-07-16T08:28:10Z</time>
      </trkpt>
      <trkpt lat="48.28726" lon="-1.86399">
        <ele>124.5</ele>
        <time>2019-07-16T08:28:11Z</time>
      </trkpt>
      <trkpt lat="48.28724" lon="-1.86394">
        <ele>124.2</ele>
        <time>2019-07-16T08:28:12Z</time>
      </trkpt>
      <trkpt lat="48.28722" lon="-1.86389">
        <ele>124.1</ele>
        <time>2019-07-16T08:28:13Z</time>
      </trkpt>
      <trkpt lat="48.28721" lon="-1.86384">
        <ele>124.2</ele>
        <time>2019-07-16T08:28:14Z</time>
      </trkpt>
      <trkpt lat="48.28719" lon="-1.86379">
        <ele>124.2</ele>
        <time>2019-07-16T08:28:15Z</time>
      </trkpt>
      <trkpt lat="48.28718" lon="-1.86374">
        <ele>124.4</ele>
        <time>2019-07-16T08:28:16Z</time>
      </trkpt>
      <trkpt lat="48.28716" lon="-1.86369">
        <ele>124.9</ele>
        <time>2019-07-16T08:28:17Z</time>
      </trkpt>
      <trkpt lat="48.28715" lon="-1.86365">
        <ele>125.4</ele>
        <time>2019-07-16T08:28:18Z</time>
      </trkpt>
      <trkpt lat="48.28713" lon="-1.8636">
        <ele>125.5</ele>
        <time>2019-07-16T08:28:19Z</time>
      </trkpt>
      <trkpt lat="48.28711" lon="-1.86354">
        <ele>125.6</ele>
        <time>2019-07-16T08:28:20Z</time>
      </trkpt>
      <trkpt lat="48.28708" lon="-1.86349">
        <ele>125.6</ele>
        <time>2019-07-16T08:28:21Z</time>
      </trkpt>
      <trkpt lat="48.28707" lon="-1.86344">
        <ele>125.7</ele>
        <time>2019-07-16T08:28:22Z</time>
      </trkpt>
      <trkpt lat="48.28705" lon="-1.86339">
        <ele>126</ele>
        <time>2019-07-16T08:28:23Z</time>
      </trkpt>
      <trkpt lat="48.28704" lon="-1.86334">
        <ele>126.6</ele>
        <time>2019-07-16T08:28:24Z</time>
      </trkpt>
      <trkpt lat="48.28702" lon="-1.86329">
        <ele>127</ele>
        <time>2019-07-16T08:28:25Z</time>
      </trkpt>
      <trkpt lat="48.287" lon="-1.86324">
        <ele>127.3</ele>
        <time>2019-07-16T08:28:26Z</time>
      </trkpt>
      <trkpt lat="48.28698" lon="-1.86319">
        <ele>127.5</ele>
        <time>2019-07-16T08:28:27Z</time>
      </trkpt>
      <trkpt lat="48.28696" lon="-1.86313">
        <ele>127.6</ele>
        <time>2019-07-16T08:28:28Z</time>
      </trkpt>
      <trkpt lat="48.28694" lon="-1.86308">
        <ele>127.6</ele>
        <time>2019-07-16T08:28:29Z</time>
      </trkpt>
      <trkpt lat="48.28693" lon="-1.86303">
        <ele>127.8</ele>
        <time>2019-07-16T08:28:30Z</time>
      </trkpt>
      <trkpt lat="48.28691" lon="-1.86298">
        <ele>127.8</ele>
        <time>2019-07-16T08:28:31Z</time>
      </trkpt>
      <trkpt lat="48.28688" lon="-1.86292">
        <ele>127.7</ele>
        <time>2019-07-16T08:28:32Z</time>
      </trkpt>
      <trkpt lat="48.28687" lon="-1.86287">
        <ele>127.8</ele>
        <time>2019-07-16T08:28:33Z</time>
      </trkpt>
      <trkpt lat="48.28684" lon="-1.86281">
        <ele>127.9</ele>
        <time>2019-07-16T08:28:34Z</time>
      </trkpt>
      <trkpt lat="48.28682" lon="-1.86276">
        <ele>128.1</ele>
        <time>2019-07-16T08:28:35Z</time>
      </trkpt>
      <trkpt lat="48.2868" lon="-1.8627">
        <ele>128.1</ele>
        <time>2019-07-16T08:28:36Z</time>
      </trkpt>
      <trkpt lat="48.28678" lon="-1.86265">
        <ele>128</ele>
        <time>2019-07-16T08:28:37Z</time>
      </trkpt>
      <trkpt lat="48.28676" lon="-1.86259">
        <ele>127.9</ele>
        <time>2019-07-16T08:28:38Z</time>
      </trkpt>
      <trkpt lat="48.28674" lon="-1.86253">
        <ele>127.8</ele>
        <time>2019-07-16T08:28:39Z</time>
      </trkpt>
      <trkpt lat="48.28672" lon="-1.86248">
        <ele>127.7</ele>
        <time>2019-07-16T08:28:40Z</time>
      </trkpt>
      <trkpt lat="48.28671" lon="-1.86242">
        <ele>127.7</ele>
        <time>2019-07-16T08:28:41Z</time>
      </trkpt>
      <trkpt lat="48.28669" lon="-1.86236">
        <ele>127.9</ele>
        <time>2019-07-16T08:28:42Z</time>
      </trkpt>
      <trkpt lat="48.28666" lon="-1.86231">
        <ele>127.7</ele>
        <time>2019-07-16T08:28:43Z</time>
      </trkpt>
      <trkpt lat="48.28664" lon="-1.86225">
        <ele>127.4</ele>
        <time>2019-07-16T08:28:44Z</time>
      </trkpt>
      <trkpt lat="48.28662" lon="-1.86219">
        <ele>126.8</ele>
        <time>2019-07-16T08:28:45Z</time>
      </trkpt>
      <trkpt lat="48.2866" lon="-1.86213">
        <ele>126.7</ele>
        <time>2019-07-16T08:28:46Z</time>
      </trkpt>
      <trkpt lat="48.28658" lon="-1.86208">
        <ele>127</ele>
        <time>2019-07-16T08:28:47Z</time>
      </trkpt>
      <trkpt lat="48.28656" lon="-1.86203">
        <ele>127.3</ele>
        <time>2019-07-16T08:28:48Z</time>
      </trkpt>
      <trkpt lat="48.28653" lon="-1.86198">
        <ele>126.8</ele>
        <time>2019-07-16T08:28:49Z</time>
      </trkpt>
      <trkpt lat="48.28651" lon="-1.86192">
        <ele>126.5</ele>
        <time>2019-07-16T08:28:50Z</time>
      </trkpt>
      <trkpt lat="48.2865" lon="-1.86187">
        <ele>126.6</ele>
        <time>2019-07-16T08:28:51Z</time>
      </trkpt>
      <trkpt lat="48.28648" lon="-1.86181">
        <ele>126.6</ele>
        <time>2019-07-16T08:28:52Z</time>
      </trkpt>
      <trkpt lat="48.28646" lon="-1.86175">
        <ele>126.9</ele>
        <time>2019-07-16T08:28:53Z</time>
      </trkpt>
      <trkpt lat="48.28644" lon="-1.8617">
        <ele>127</ele>
        <time>2019-07-16T08:28:54Z</time>
      </trkpt>
      <trkpt lat="48.28642" lon="-1.86165">
        <ele>127</ele>
        <time>2019-07-16T08:28:55Z</time>
      </trkpt>
      <trkpt lat="48.2864" lon="-1.86159">
        <ele>127.2</ele>
        <time>2019-07-16T08:28:56Z</time>
      </trkpt>
      <trkpt lat="48.28638" lon="-1.86154">
        <ele>127.3</ele>
        <time>2019-07-16T08:28:57Z</time>
      </trkpt>
      <trkpt lat="48.28635" lon="-1.86149">
        <ele>127.5</ele>
        <time>2019-07-16T08:28:58Z</time>
      </trkpt>
      <trkpt lat="48.28634" lon="-1.86143">
        <ele>127.7</ele>
        <time>2019-07-16T08:28:59Z</time>
      </trkpt>
      <trkpt lat="48.28632" lon="-1.86138">
        <ele>128</ele>
        <time>2019-07-16T08:29:00Z</time>
      </trkpt>
      <trkpt lat="48.2863" lon="-1.86132">
        <ele>128.3</ele>
        <time>2019-07-16T08:29:01Z</time>
      </trkpt>
      <trkpt lat="48.28628" lon="-1.86127">
        <ele>128.5</ele>
        <time>2019-07-16T08:29:02Z</time>
      </trkpt>
      <trkpt lat="48.28626" lon="-1.86121">
        <ele>128.7</ele>
        <time>2019-07-16T08:29:03Z</time>
      </trkpt>
      <trkpt lat="48.28624" lon="-1.86116">
        <ele>128.9</ele>
        <time>2019-07-16T08:29:04Z</time>
      </trkpt>
      <trkpt lat="48.28623" lon="-1.86111">
        <ele>128.9</ele>
        <time>2019-07-16T08:29:05Z</time>
      </trkpt>
      <trkpt lat="48.28621" lon="-1.86105">
        <ele>128.5</ele>
        <time>2019-07-16T08:29:06Z</time>
      </trkpt>
      <trkpt lat="48.28619" lon="-1.86099">
        <ele>128.3</ele>
        <time>2019-07-16T08:29:07Z</time>
      </trkpt>
      <trkpt lat="48.28617" lon="-1.86093">
        <ele>128.2</ele>
        <time>2019-07-16T08:29:08Z</time>
      </trkpt>
      <trkpt lat="48.28615" lon="-1.86088">
        <ele>128.2</ele>
        <time>2019-07-16T08:29:09Z</time>
      </trkpt>
      <trkpt lat="48.28614" lon="-1.86082">
        <ele>128.1</ele>
        <time>2019-07-16T08:29:10Z</time>
      </trkpt>
      <trkpt lat="48.28613" lon="-1.86076">
        <ele>128</ele>
        <time>2019-07-16T08:29:11Z</time>
      </trkpt>
      <trkpt lat="48.28611" lon="-1.8607">
        <ele>127.9</ele>
        <time>2019-07-16T08:29:12Z</time>
      </trkpt>
      <trkpt lat="48.2861" lon="-1.86063">
        <ele>127.4</ele>
        <time>2019-07-16T08:29:13Z</time>
      </trkpt>
      <trkpt lat="48.28608" lon="-1.86056">
        <ele>127</ele>
        <time>2019-07-16T08:29:14Z</time>
      </trkpt>
      <trkpt lat="48.28607" lon="-1.86049">
        <ele>126.7</ele>
        <time>2019-07-16T08:29:15Z</time>
      </trkpt>
      <trkpt lat="48.28606" lon="-1.86043">
        <ele>126.6</ele>
        <time>2019-07-16T08:29:16Z</time>
      </trkpt>
      <trkpt lat="48.28605" lon="-1.86036">
        <ele>126.3</ele>
        <time>2019-07-16T08:29:17Z</time>
      </trkpt>
      <trkpt lat="48.28603" lon="-1.86029">
        <ele>126.1</ele>
        <time>2019-07-16T08:29:18Z</time>
      </trkpt>
      <trkpt lat="48.28602" lon="-1.86022">
        <ele>126.3</ele>
        <time>2019-07-16T08:29:19Z</time>
      </trkpt>
      <trkpt lat="48.28601" lon="-1.86016">
        <ele>126.4</ele>
        <time>2019-07-16T08:29:20Z</time>
      </trkpt>
      <trkpt lat="48.286" lon="-1.86009">
        <ele>126.1</ele>
        <time>2019-07-16T08:29:21Z</time>
      </trkpt>
      <trkpt lat="48.28599" lon="-1.86003">
        <ele>126</ele>
        <time>2019-07-16T08:29:22Z</time>
      </trkpt>
      <trkpt lat="48.28598" lon="-1.85996">
        <ele>125.9</ele>
        <time>2019-07-16T08:29:23Z</time>
      </trkpt>
      <trkpt lat="48.28597" lon="-1.85989">
        <ele>125.7</ele>
        <time>2019-07-16T08:29:24Z</time>
      </trkpt>
      <trkpt lat="48.28595" lon="-1.85983">
        <ele>125.6</ele>
        <time>2019-07-16T08:29:25Z</time>
      </trkpt>
      <trkpt lat="48.28594" lon="-1.85976">
        <ele>125.4</ele>
        <time>2019-07-16T08:29:26Z</time>
      </trkpt>
      <trkpt lat="48.28593" lon="-1.85969">
        <ele>125.3</ele>
        <time>2019-07-16T08:29:27Z</time>
      </trkpt>
      <trkpt lat="48.28593" lon="-1.85963">
        <ele>125.2</ele>
        <time>2019-07-16T08:29:28Z</time>
      </trkpt>
      <trkpt lat="48.28592" lon="-1.85956">
        <ele>125.3</ele>
        <time>2019-07-16T08:29:29Z</time>
      </trkpt>
      <trkpt lat="48.28591" lon="-1.8595">
        <ele>125.2</ele>
        <time>2019-07-16T08:29:30Z</time>
      </trkpt>
      <trkpt lat="48.2859" lon="-1.85944">
        <ele>125.2</ele>
        <time>2019-07-16T08:29:31Z</time>
      </trkpt>
      <trkpt lat="48.28589" lon="-1.85938">
        <ele>125.1</ele>
        <time>2019-07-16T08:29:32Z</time>
      </trkpt>
      <trkpt lat="48.28588" lon="-1.85931">
        <ele>125.1</ele>
        <time>2019-07-16T08:29:33Z</time>
      </trkpt>
      <trkpt lat="48.28587" lon="-1.85925">
        <ele>125</ele>
        <time>2019-07-16T08:29:34Z</time>
      </trkpt>
      <trkpt lat="48.28586" lon="-1.85918">
        <ele>125</ele>
        <time>2019-07-16T08:29:35Z</time>
      </trkpt>
      <trkpt lat="48.28585" lon="-1.85912">
        <ele>125.3</ele>
        <time>2019-07-16T08:29:36Z</time>
      </trkpt>
      <trkpt lat="48.28585" lon="-1.85906">
        <ele>125.5</ele>
        <time>2019-07-16T08:29:37Z</time>
      </trkpt>
      <trkpt lat="48.28584" lon="-1.859">
        <ele>125.7</ele>
        <time>2019-07-16T08:29:38Z</time>
      </trkpt>
      <trkpt lat="48.28583" lon="-1.85893">
        <ele>125.8</ele>
        <time>2019-07-16T08:29:39Z</time>
      </trkpt>
      <trkpt lat="48.28582" lon="-1.85887">
        <ele>125.7</ele>
        <time>2019-07-16T08:29:40Z</time>
      </trkpt>
      <trkpt lat="48.28582" lon="-1.85881">
        <ele>125.8</ele>
        <time>2019-07-16T08:29:41Z</time>
      </trkpt>
      <trkpt lat="48.28581" lon="-1.85875">
        <ele>125.9</ele>
        <time>2019-07-16T08:29:42Z</time>
      </trkpt>
      <trkpt lat="48.28581" lon="-1.85869">
        <ele>126.2</ele>
        <time>2019-07-16T08:29:43Z</time>
      </trkpt>
      <trkpt lat="48.28581" lon="-1.85863">
        <ele>126.3</ele>
        <time>2019-07-16T08:29:44Z</time>
      </trkpt>
      <trkpt lat="48.28581" lon="-1.85857">
        <ele>126.2</ele>
        <time>2019-07-16T08:29:45Z</time>
      </trkpt>
      <trkpt lat="48.2858" lon="-1.8585">
        <ele>126.3</ele>
        <time>2019-07-16T08:29:46Z</time>
      </trkpt>
      <trkpt lat="48.2858" lon="-1.85844">
        <ele>126.4</ele>
        <time>2019-07-16T08:29:47Z</time>
      </trkpt>
      <trkpt lat="48.2858" lon="-1.85837">
        <ele>126.4</ele>
        <time>2019-07-16T08:29:48Z</time>
      </trkpt>
      <trkpt lat="48.2858" lon="-1.85831">
        <ele>126.2</ele>
        <time>2019-07-16T08:29:49Z</time>
      </trkpt>
      <trkpt lat="48.28579" lon="-1.85824">
        <ele>125.9</ele>
        <time>2019-07-16T08:29:50Z</time>
      </trkpt>
      <trkpt lat="48.28579" lon="-1.85817">
        <ele>125.7</ele>
        <time>2019-07-16T08:29:51Z</time>
      </trkpt>
      <trkpt lat="48.28579" lon="-1.8581">
        <ele>125.6</ele>
        <time>2019-07-16T08:29:52Z</time>
      </trkpt>
      <trkpt lat="48.28579" lon="-1.85803">
        <ele>125.5</ele>
        <time>2019-07-16T08:29:53Z</time>
      </trkpt>
      <trkpt lat="48.28579" lon="-1.85796">
        <ele>125.2</ele>
        <time>2019-07-16T08:29:54Z</time>
      </trkpt>
      <trkpt lat="48.28579" lon="-1.85788">
        <ele>125.1</ele>
        <time>2019-07-16T08:29:55Z</time>
      </trkpt>
      <trkpt lat="48.28579" lon="-1.85781">
        <ele>124.8</ele>
        <time>2019-07-16T08:29:56Z</time>
      </trkpt>
      <trkpt lat="48.28579" lon="-1.85773">
        <ele>124.2</ele>
        <time>2019-07-16T08:29:57Z</time>
      </trkpt>
      <trkpt lat="48.28579" lon="-1.85765">
        <ele>123.8</ele>
        <time>2019-07-16T08:29:58Z</time>
      </trkpt>
      <trkpt lat="48.28579" lon="-1.85757">
        <ele>123.6</ele>
        <time>2019-07-16T08:29:59Z</time>
      </trkpt>
      <trkpt lat="48.28579" lon="-1.85749">
        <ele>123.6</ele>
        <time>2019-07-16T08:30:00Z</time>
      </trkpt>
      <trkpt lat="48.28579" lon="-1.85741">
        <ele>123.6</ele>
        <time>2019-07-16T08:30:01Z</time>
      </trkpt>
      <trkpt lat="48.2858" lon="-1.85733">
        <ele>123.7</ele>
        <time>2019-07-16T08:30:02Z</time>
      </trkpt>
      <trkpt lat="48.28581" lon="-1.85725">
        <ele>123.8</ele>
        <time>2019-07-16T08:30:03Z</time>
      </trkpt>
      <trkpt lat="48.28581" lon="-1.85717">
        <ele>123.7</ele>
        <time>2019-07-16T08:30:04Z</time>
      </trkpt>
      <trkpt lat="48.28581" lon="-1.85709">
        <ele>123.6</ele>
        <time>2019-07-16T08:30:05Z</time>
      </trkpt>
      <trkpt lat="48.28581" lon="-1.85701">
        <ele>123.4</ele>
        <time>2019-07-16T08:30:06Z</time>
      </trkpt>
      <trkpt lat="48.28582" lon="-1.85694">
        <ele>123.4</ele>
        <time>2019-07-16T08:30:07Z</time>
      </trkpt>
      <trkpt lat="48.28582" lon="-1.85686">
        <ele>123.2</ele>
        <time>2019-07-16T08:30:08Z</time>
      </trkpt>
      <trkpt lat="48.28582" lon="-1.85678">
        <ele>123.1</ele>
        <time>2019-07-16T08:30:09Z</time>
      </trkpt>
      <trkpt lat="48.28582" lon="-1.8567">
        <ele>123</ele>
        <time>2019-07-16T08:30:10Z</time>
      </trkpt>
      <trkpt lat="48.28583" lon="-1.85662">
        <ele>122.8</ele>
        <time>2019-07-16T08:30:11Z</time>
      </trkpt>
      <trkpt lat="48.28583" lon="-1.85654">
        <ele>122.6</ele>
        <time>2019-07-16T08:30:12Z</time>
      </trkpt>
      <trkpt lat="48.28583" lon="-1.85646">
        <ele>122.2</ele>
        <time>2019-07-16T08:30:13Z</time>
      </trkpt>
      <trkpt lat="48.28583" lon="-1.85638">
        <ele>121.9</ele>
        <time>2019-07-16T08:30:14Z</time>
      </trkpt>
      <trkpt lat="48.28584" lon="-1.8563">
        <ele>121.5</ele>
        <time>2019-07-16T08:30:15Z</time>
      </trkpt>
      <trkpt lat="48.28584" lon="-1.85622">
        <ele>121.6</ele>
        <time>2019-07-16T08:30:16Z</time>
      </trkpt>
      <trkpt lat="48.28584" lon="-1.85615">
        <ele>122.1</ele>
        <time>2019-07-16T08:30:17Z</time>
      </trkpt>
      <trkpt lat="48.28584" lon="-1.85607">
        <ele>122.2</ele>
        <time>2019-07-16T08:30:18Z</time>
      </trkpt>
      <trkpt lat="48.28584" lon="-1.856">
        <ele>122.5</ele>
        <time>2019-07-16T08:30:19Z</time>
      </trkpt>
      <trkpt lat="48.28584" lon="-1.85592">
        <ele>122.6</ele>
        <time>2019-07-16T08:30:20Z</time>
      </trkpt>
      <trkpt lat="48.28585" lon="-1.85585">
        <ele>122.5</ele>
        <time>2019-07-16T08:30:21Z</time>
      </trkpt>
      <trkpt lat="48.28585" lon="-1.85577">
        <ele>122.5</ele>
        <time>2019-07-16T08:30:22Z</time>
      </trkpt>
      <trkpt lat="48.28585" lon="-1.85569">
        <ele>122.4</ele>
        <time>2019-07-16T08:30:23Z</time>
      </trkpt>
      <trkpt lat="48.28585" lon="-1.85562">
        <ele>122.4</ele>
        <time>2019-07-16T08:30:24Z</time>
      </trkpt>
      <trkpt lat="48.28585" lon="-1.85554">
        <ele>122.5</ele>
        <time>2019-07-16T08:30:25Z</time>
      </trkpt>
      <trkpt lat="48.28585" lon="-1.85547">
        <ele>122.5</ele>
        <time>2019-07-16T08:30:26Z</time>
      </trkpt>
      <trkpt lat="48.28585" lon="-1.85541">
        <ele>122.5</ele>
        <time>2019-07-16T08:30:27Z</time>
      </trkpt>
      <trkpt lat="48.28586" lon="-1.85534">
        <ele>122.5</ele>
        <time>2019-07-16T08:30:28Z</time>
      </trkpt>
      <trkpt lat="48.28586" lon="-1.85527">
        <ele>122.6</ele>
        <time>2019-07-16T08:30:29Z</time>
      </trkpt>
      <trkpt lat="48.28586" lon="-1.85521">
        <ele>122.6</ele>
        <time>2019-07-16T08:30:30Z</time>
      </trkpt>
      <trkpt lat="48.28587" lon="-1.85514">
        <ele>122.4</ele>
        <time>2019-07-16T08:30:31Z</time>
      </trkpt>
      <trkpt lat="48.28587" lon="-1.85508">
        <ele>122.4</ele>
        <time>2019-07-16T08:30:32Z</time>
      </trkpt>
      <trkpt lat="48.28587" lon="-1.85501">
        <ele>122.5</ele>
        <time>2019-07-16T08:30:33Z</time>
      </trkpt>
      <trkpt lat="48.28587" lon="-1.85494">
        <ele>122.3</ele>
        <time>2019-07-16T08:30:34Z</time>
      </trkpt>
      <trkpt lat="48.28587" lon="-1.85487">
        <ele>122.2</ele>
        <time>2019-07-16T08:30:35Z</time>
      </trkpt>
      <trkpt lat="48.28588" lon="-1.8548">
        <ele>122.2</ele>
        <time>2019-07-16T08:30:36Z</time>
      </trkpt>
      <trkpt lat="48.28588" lon="-1.85473">
        <ele>122.1</ele>
        <time>2019-07-16T08:30:37Z</time>
      </trkpt>
      <trkpt lat="48.28589" lon="-1.85466">
        <ele>121.9</ele>
        <time>2019-07-16T08:30:38Z</time>
      </trkpt>
      <trkpt lat="48.28589" lon="-1.85459">
        <ele>121.8</ele>
        <time>2019-07-16T08:30:39Z</time>
      </trkpt>
      <trkpt lat="48.2859" lon="-1.85452">
        <ele>121.6</ele>
        <time>2019-07-16T08:30:40Z</time>
      </trkpt>
      <trkpt lat="48.2859" lon="-1.85445">
        <ele>121.6</ele>
        <time>2019-07-16T08:30:41Z</time>
      </trkpt>
      <trkpt lat="48.28591" lon="-1.85438">
        <ele>121.5</ele>
        <time>2019-07-16T08:30:42Z</time>
      </trkpt>
      <trkpt lat="48.28592" lon="-1.85431">
        <ele>121.6</ele>
        <time>2019-07-16T08:30:43Z</time>
      </trkpt>
      <trkpt lat="48.28593" lon="-1.85424">
        <ele>121.7</ele>
        <time>2019-07-16T08:30:44Z</time>
      </trkpt>
      <trkpt lat="48.28595" lon="-1.85417">
        <ele>121.9</ele>
        <time>2019-07-16T08:30:45Z</time>
      </trkpt>
      <trkpt lat="48.28597" lon="-1.8541">
        <ele>121.9</ele>
        <time>2019-07-16T08:30:46Z</time>
      </trkpt>
      <trkpt lat="48.28598" lon="-1.85403">
        <ele>122</ele>
        <time>2019-07-16T08:30:47Z</time>
      </trkpt>
      <trkpt lat="48.28601" lon="-1.85395">
        <ele>122.4</ele>
        <time>2019-07-16T08:30:48Z</time>
      </trkpt>
      <trkpt lat="48.28603" lon="-1.85388">
        <ele>122.6</ele>
        <time>2019-07-16T08:30:49Z</time>
      </trkpt>
      <trkpt lat="48.28606" lon="-1.8538">
        <ele>122.8</ele>
        <time>2019-07-16T08:30:50Z</time>
      </trkpt>
      <trkpt lat="48.28608" lon="-1.85372">
        <ele>123.2</ele>
        <time>2019-07-16T08:30:51Z</time>
      </trkpt>
      <trkpt lat="48.28611" lon="-1.85364">
        <ele>123.5</ele>
        <time>2019-07-16T08:30:52Z</time>
      </trkpt>
      <trkpt lat="48.28614" lon="-1.85356">
        <ele>124</ele>
        <time>2019-07-16T08:30:53Z</time>
      </trkpt>
      <trkpt lat="48.28616" lon="-1.85348">
        <ele>124</ele>
        <time>2019-07-16T08:30:54Z</time>
      </trkpt>
      <trkpt lat="48.28619" lon="-1.8534">
        <ele>124.3</ele>
        <time>2019-07-16T08:30:55Z</time>
      </trkpt>
      <trkpt lat="48.28621" lon="-1.85331">
        <ele>124.7</ele>
        <time>2019-07-16T08:30:56Z</time>
      </trkpt>
      <trkpt lat="48.28623" lon="-1.85323">
        <ele>124.4</ele>
        <time>2019-07-16T08:30:57Z</time>
      </trkpt>
      <trkpt lat="48.28626" lon="-1.85315">
        <ele>124.7</ele>
        <time>2019-07-16T08:30:58Z</time>
      </trkpt>
      <trkpt lat="48.28629" lon="-1.85307">
        <ele>124.8</ele>
        <time>2019-07-16T08:30:59Z</time>
      </trkpt>
      <trkpt lat="48.28631" lon="-1.85298">
        <ele>124.1</ele>
        <time>2019-07-16T08:31:00Z</time>
      </trkpt>
      <trkpt lat="48.28634" lon="-1.85288">
        <ele>123.4</ele>
        <time>2019-07-16T08:31:01Z</time>
      </trkpt>
      <trkpt lat="48.28637" lon="-1.85279">
        <ele>122.8</ele>
        <time>2019-07-16T08:31:02Z</time>
      </trkpt>
      <trkpt lat="48.2864" lon="-1.8527">
        <ele>122</ele>
        <time>2019-07-16T08:31:03Z</time>
      </trkpt>
      <trkpt lat="48.28642" lon="-1.8526">
        <ele>121.3</ele>
        <time>2019-07-16T08:31:04Z</time>
      </trkpt>
      <trkpt lat="48.28644" lon="-1.8525">
        <ele>120.5</ele>
        <time>2019-07-16T08:31:05Z</time>
      </trkpt>
      <trkpt lat="48.28647" lon="-1.8524">
        <ele>119.9</ele>
        <time>2019-07-16T08:31:06Z</time>
      </trkpt>
      <trkpt lat="48.28649" lon="-1.8523">
        <ele>119.1</ele>
        <time>2019-07-16T08:31:07Z</time>
      </trkpt>
      <trkpt lat="48.28652" lon="-1.8522">
        <ele>118.4</ele>
        <time>2019-07-16T08:31:08Z</time>
      </trkpt>
      <trkpt lat="48.28654" lon="-1.8521">
        <ele>117.6</ele>
        <time>2019-07-16T08:31:09Z</time>
      </trkpt>
      <trkpt lat="48.28656" lon="-1.852">
        <ele>116.9</ele>
        <time>2019-07-16T08:31:10Z</time>
      </trkpt>
      <trkpt lat="48.28658" lon="-1.85192">
        <ele>116.4</ele>
        <time>2019-07-16T08:31:11Z</time>
      </trkpt>
      <trkpt lat="48.28661" lon="-1.85184">
        <ele>115.7</ele>
        <time>2019-07-16T08:31:12Z</time>
      </trkpt>
      <trkpt lat="48.28662" lon="-1.85176">
        <ele>115</ele>
        <time>2019-07-16T08:31:13Z</time>
      </trkpt>
      <trkpt lat="48.28664" lon="-1.8517">
        <ele>114.5</ele>
        <time>2019-07-16T08:31:14Z</time>
      </trkpt>
      <trkpt lat="48.28665" lon="-1.85165">
        <ele>113.9</ele>
        <time>2019-07-16T08:31:15Z</time>
      </trkpt>
      <trkpt lat="48.28667" lon="-1.85162">
        <ele>113.7</ele>
        <time>2019-07-16T08:31:16Z</time>
      </trkpt>
      <trkpt lat="48.28669" lon="-1.85159">
        <ele>113.1</ele>
        <time>2019-07-16T08:31:17Z</time>
      </trkpt>
      <trkpt lat="48.28672" lon="-1.85158">
        <ele>113</ele>
        <time>2019-07-16T08:31:18Z</time>
      </trkpt>
      <trkpt lat="48.28676" lon="-1.85157">
        <ele>111.9</ele>
        <time>2019-07-16T08:31:19Z</time>
      </trkpt>
      <trkpt lat="48.2868" lon="-1.85158">
        <ele>111.4</ele>
        <time>2019-07-16T08:31:20Z</time>
      </trkpt>
      <trkpt lat="48.28684" lon="-1.8516">
        <ele>111.4</ele>
        <time>2019-07-16T08:31:21Z</time>
      </trkpt>
      <trkpt lat="48.28688" lon="-1.85162">
        <ele>111.6</ele>
        <time>2019-07-16T08:31:22Z</time>
      </trkpt>
      <trkpt lat="48.28693" lon="-1.85164">
        <ele>111.4</ele>
        <time>2019-07-16T08:31:23Z</time>
      </trkpt>
      <trkpt lat="48.28697" lon="-1.85166">
        <ele>111.8</ele>
        <time>2019-07-16T08:31:24Z</time>
      </trkpt>
      <trkpt lat="48.28702" lon="-1.85169">
        <ele>112.3</ele>
        <time>2019-07-16T08:31:25Z</time>
      </trkpt>
      <trkpt lat="48.28706" lon="-1.85171">
        <ele>112.8</ele>
        <time>2019-07-16T08:31:26Z</time>
      </trkpt>
      <trkpt lat="48.28711" lon="-1.85174">
        <ele>113.3</ele>
        <time>2019-07-16T08:31:27Z</time>
      </trkpt>
      <trkpt lat="48.28716" lon="-1.85178">
        <ele>113.9</ele>
        <time>2019-07-16T08:31:28Z</time>
      </trkpt>
      <trkpt lat="48.28721" lon="-1.85182">
        <ele>114.4</ele>
        <time>2019-07-16T08:31:29Z</time>
      </trkpt>
      <trkpt lat="48.28726" lon="-1.85185">
        <ele>114.4</ele>
        <time>2019-07-16T08:31:30Z</time>
      </trkpt>
      <trkpt lat="48.28732" lon="-1.85189">
        <ele>115.4</ele>
        <time>2019-07-16T08:31:31Z</time>
      </trkpt>
      <trkpt lat="48.28738" lon="-1.85193">
        <ele>116.2</ele>
        <time>2019-07-16T08:31:32Z</time>
      </trkpt>
      <trkpt lat="48.28745" lon="-1.85197">
        <ele>116.6</ele>
        <time>2019-07-16T08:31:33Z</time>
      </trkpt>
      <trkpt lat="48.2875" lon="-1.85201">
        <ele>117.2</ele>
        <time>2019-07-16T08:31:34Z</time>
      </trkpt>
      <trkpt lat="48.28756" lon="-1.85206">
        <ele>117.8</ele>
        <time>2019-07-16T08:31:35Z</time>
      </trkpt>
      <trkpt lat="48.28763" lon="-1.85211">
        <ele>118.5</ele>
        <time>2019-07-16T08:31:36Z</time>
      </trkpt>
      <trkpt lat="48.2877" lon="-1.85216">
        <ele>119.1</ele>
        <time>2019-07-16T08:31:37Z</time>
      </trkpt>
      <trkpt lat="48.28776" lon="-1.85221">
        <ele>119.5</ele>
        <time>2019-07-16T08:31:38Z</time>
      </trkpt>
      <trkpt lat="48.28784" lon="-1.85227">
        <ele>119.7</ele>
        <time>2019-07-16T08:31:39Z</time>
      </trkpt>
      <trkpt lat="48.28791" lon="-1.85232">
        <ele>120</ele>
        <time>2019-07-16T08:31:40Z</time>
      </trkpt>
      <trkpt lat="48.28799" lon="-1.85236">
        <ele>120.4</ele>
        <time>2019-07-16T08:31:41Z</time>
      </trkpt>
      <trkpt lat="48.28807" lon="-1.85242">
        <ele>120.5</ele>
        <time>2019-07-16T08:31:42Z</time>
      </trkpt>
      <trkpt lat="48.28816" lon="-1.85248">
        <ele>120.8</ele>
        <time>2019-07-16T08:31:43Z</time>
      </trkpt>
      <trkpt lat="48.28824" lon="-1.85255">
        <ele>121</ele>
        <time>2019-07-16T08:31:44Z</time>
      </trkpt>
      <trkpt lat="48.28833" lon="-1.85265">
        <ele>120</ele>
        <time>2019-07-16T08:31:45Z</time>
      </trkpt>
      <trkpt lat="48.28841" lon="-1.85274">
        <ele>120.5</ele>
        <time>2019-07-16T08:31:46Z</time>
      </trkpt>
      <trkpt lat="48.2885" lon="-1.85284">
        <ele>120.5</ele>
        <time>2019-07-16T08:31:47Z</time>
      </trkpt>
      <trkpt lat="48.28857" lon="-1.85291">
        <ele>120.7</ele>
        <time>2019-07-16T08:31:48Z</time>
      </trkpt>
      <trkpt lat="48.28865" lon="-1.85296">
        <ele>120.7</ele>
        <time>2019-07-16T08:31:49Z</time>
      </trkpt>
      <trkpt lat="48.28875" lon="-1.853">
        <ele>120.6</ele>
        <time>2019-07-16T08:31:50Z</time>
      </trkpt>
      <trkpt lat="48.28884" lon="-1.85303">
        <ele>120.6</ele>
        <time>2019-07-16T08:31:51Z</time>
      </trkpt>
      <trkpt lat="48.28894" lon="-1.85305">
        <ele>120.6</ele>
        <time>2019-07-16T08:31:52Z</time>
      </trkpt>
      <trkpt lat="48.28903" lon="-1.85306">
        <ele>120.6</ele>
        <time>2019-07-16T08:31:53Z</time>
      </trkpt>
      <trkpt lat="48.28914" lon="-1.85307">
        <ele>120.7</ele>
        <time>2019-07-16T08:31:54Z</time>
      </trkpt>
      <trkpt lat="48.28924" lon="-1.85309">
        <ele>120.7</ele>
        <time>2019-07-16T08:31:55Z</time>
      </trkpt>
      <trkpt lat="48.28934" lon="-1.85306">
        <ele>120.3</ele>
        <time>2019-07-16T08:31:56Z</time>
      </trkpt>
      <trkpt lat="48.28944" lon="-1.85306">
        <ele>120.5</ele>
        <time>2019-07-16T08:31:57Z</time>
      </trkpt>
      <trkpt lat="48.28954" lon="-1.85305">
        <ele>120.5</ele>
        <time>2019-07-16T08:31:58Z</time>
      </trkpt>
      <trkpt lat="48.28963" lon="-1.85303">
        <ele>120.6</ele>
        <time>2019-07-16T08:31:59Z</time>
      </trkpt>
      <trkpt lat="48.28981" lon="-1.85283">
        <ele>116.9</ele>
        <time>2019-07-16T08:32:00Z</time>
      </trkpt>
      <trkpt lat="48.28992" lon="-1.85275">
        <ele>115.8</ele>
        <time>2019-07-16T08:32:01Z</time>
      </trkpt>
      <trkpt lat="48.29002" lon="-1.85264">
        <ele>114.7</ele>
        <time>2019-07-16T08:32:02Z</time>
      </trkpt>
      <trkpt lat="48.2901" lon="-1.85254">
        <ele>114.3</ele>
        <time>2019-07-16T08:32:03Z</time>
      </trkpt>
      <trkpt lat="48.29019" lon="-1.85244">
        <ele>114</ele>
        <time>2019-07-16T08:32:04Z</time>
      </trkpt>
      <trkpt lat="48.29027" lon="-1.85234">
        <ele>113.6</ele>
        <time>2019-07-16T08:32:05Z</time>
      </trkpt>
      <trkpt lat="48.29036" lon="-1.85225">
        <ele>113.3</ele>
        <time>2019-07-16T08:32:06Z</time>
      </trkpt>
      <trkpt lat="48.29046" lon="-1.85217">
        <ele>113</ele>
        <time>2019-07-16T08:32:07Z</time>
      </trkpt>
      <trkpt lat="48.29055" lon="-1.8521">
        <ele>112.7</ele>
        <time>2019-07-16T08:32:08Z</time>
      </trkpt>
      <trkpt lat="48.29065" lon="-1.85203">
        <ele>112.3</ele>
        <time>2019-07-16T08:32:09Z</time>
      </trkpt>
      <trkpt lat="48.29074" lon="-1.85197">
        <ele>111.7</ele>
        <time>2019-07-16T08:32:10Z</time>
      </trkpt>
      <trkpt lat="48.29083" lon="-1.8519">
        <ele>111.1</ele>
        <time>2019-07-16T08:32:11Z</time>
      </trkpt>
      <trkpt lat="48.29092" lon="-1.85185">
        <ele>110.8</ele>
        <time>2019-07-16T08:32:12Z</time>
      </trkpt>
      <trkpt lat="48.29101" lon="-1.85179">
        <ele>110.4</ele>
        <time>2019-07-16T08:32:13Z</time>
      </trkpt>
      <trkpt lat="48.29109" lon="-1.85174">
        <ele>109.2</ele>
        <time>2019-07-16T08:32:14Z</time>
      </trkpt>
      <trkpt lat="48.2912" lon="-1.85172">
        <ele>106.3</ele>
        <time>2019-07-16T08:32:15Z</time>
      </trkpt>
      <trkpt lat="48.29123" lon="-1.85163">
        <ele>104.8</ele>
        <time>2019-07-16T08:32:16Z</time>
      </trkpt>
      <trkpt lat="48.29131" lon="-1.85162">
        <ele>102</ele>
        <time>2019-07-16T08:32:17Z</time>
      </trkpt>
      <trkpt lat="48.29137" lon="-1.85159">
        <ele>100.9</ele>
        <time>2019-07-16T08:32:18Z</time>
      </trkpt>
      <trkpt lat="48.29142" lon="-1.85156">
        <ele>100.2</ele>
        <time>2019-07-16T08:32:19Z</time>
      </trkpt>
      <trkpt lat="48.29146" lon="-1.85153">
        <ele>99.5</ele>
        <time>2019-07-16T08:32:20Z</time>
      </trkpt>
      <trkpt lat="48.29148" lon="-1.85149">
        <ele>96.1</ele>
        <time>2019-07-16T08:32:21Z</time>
      </trkpt>
      <trkpt lat="48.29148" lon="-1.85146">
        <ele>93.3</ele>
        <time>2019-07-16T08:32:22Z</time>
      </trkpt>
      <trkpt lat="48.29149" lon="-1.85145">
        <ele>91.3</ele>
        <time>2019-07-16T08:32:23Z</time>
      </trkpt>
      <trkpt lat="48.29149" lon="-1.85143">
        <ele>91.1</ele>
        <time>2019-07-16T08:32:24Z</time>
      </trkpt>
      <trkpt lat="48.29151" lon="-1.85144">
        <ele>90.3</ele>
        <time>2019-07-16T08:32:25Z</time>
      </trkpt>
      <trkpt lat="48.29151" lon="-1.85142">
        <ele>89.8</ele>
        <time>2019-07-16T08:32:26Z</time>
      </trkpt>
      <trkpt lat="48.29152" lon="-1.85141">
        <ele>89.7</ele>
        <time>2019-07-16T08:32:27Z</time>
      </trkpt>
      <trkpt lat="48.29151" lon="-1.85138">
        <ele>89.2</ele>
        <time>2019-07-16T08:32:28Z</time>
      </trkpt>
      <trkpt lat="48.2915" lon="-1.85135">
        <ele>88.9</ele>
        <time>2019-07-16T08:32:29Z</time>
      </trkpt>
      <trkpt lat="48.29149" lon="-1.85133">
        <ele>89.2</ele>
        <time>2019-07-16T08:32:30Z</time>
      </trkpt>
      <trkpt lat="48.29147" lon="-1.8513">
        <ele>89.5</ele>
        <time>2019-07-16T08:32:31Z</time>
      </trkpt>
      <trkpt lat="48.29146" lon="-1.85126">
        <ele>89.6</ele>
        <time>2019-07-16T08:32:32Z</time>
      </trkpt>
      <trkpt lat="48.29144" lon="-1.85121">
        <ele>89.6</ele>
        <time>2019-07-16T08:32:33Z</time>
      </trkpt>
      <trkpt lat="48.29143" lon="-1.85117">
        <ele>89.5</ele>
        <time>2019-07-16T08:32:34Z</time>
      </trkpt>
      <trkpt lat="48.29141" lon="-1.85111">
        <ele>89.4</ele>
        <time>2019-07-16T08:32:35Z</time>
      </trkpt>
      <trkpt lat="48.2914" lon="-1.85106">
        <ele>89.4</ele>
        <time>2019-07-16T08:32:36Z</time>
      </trkpt>
      <trkpt lat="48.29139" lon="-1.851">
        <ele>89.3</ele>
        <time>2019-07-16T08:32:37Z</time>
      </trkpt>
      <trkpt lat="48.29137" lon="-1.85095">
        <ele>88.9</ele>
        <time>2019-07-16T08:32:38Z</time>
      </trkpt>
      <trkpt lat="48.29136" lon="-1.85087">
        <ele>87.6</ele>
        <time>2019-07-16T08:32:39Z</time>
      </trkpt>
      <trkpt lat="48.29134" lon="-1.85081">
        <ele>86.4</ele>
        <time>2019-07-16T08:32:40Z</time>
      </trkpt>
      <trkpt lat="48.29134" lon="-1.85076">
        <ele>85.2</ele>
        <time>2019-07-16T08:32:41Z</time>
      </trkpt>
      <trkpt lat="48.29134" lon="-1.85071">
        <ele>85.9</ele>
        <time>2019-07-16T08:32:42Z</time>
      </trkpt>
      <trkpt lat="48.29133" lon="-1.85065">
        <ele>85.6</ele>
        <time>2019-07-16T08:32:43Z</time>
      </trkpt>
      <trkpt lat="48.29133" lon="-1.8506">
        <ele>85.6</ele>
        <time>2019-07-16T08:32:44Z</time>
      </trkpt>
      <trkpt lat="48.29133" lon="-1.85055">
        <ele>85.5</ele>
        <time>2019-07-16T08:32:45Z</time>
      </trkpt>
      <trkpt lat="48.29136" lon="-1.85049">
        <ele>85.3</ele>
        <time>2019-07-16T08:32:46Z</time>
      </trkpt>
      <trkpt lat="48.29137" lon="-1.85043">
        <ele>85.2</ele>
        <time>2019-07-16T08:32:47Z</time>
      </trkpt>
      <trkpt lat="48.29141" lon="-1.85038">
        <ele>84.9</ele>
        <time>2019-07-16T08:32:48Z</time>
      </trkpt>
      <trkpt lat="48.29143" lon="-1.85032">
        <ele>84.2</ele>
        <time>2019-07-16T08:32:49Z</time>
      </trkpt>
      <trkpt lat="48.29146" lon="-1.85029">
        <ele>83.6</ele>
        <time>2019-07-16T08:32:50Z</time>
      </trkpt>
      <trkpt lat="48.29149" lon="-1.85023">
        <ele>82.9</ele>
        <time>2019-07-16T08:32:51Z</time>
      </trkpt>
      <trkpt lat="48.29151" lon="-1.85018">
        <ele>82.2</ele>
        <time>2019-07-16T08:32:52Z</time>
      </trkpt>
      <trkpt lat="48.29153" lon="-1.85013">
        <ele>81.8</ele>
        <time>2019-07-16T08:32:53Z</time>
      </trkpt>
      <trkpt lat="48.29155" lon="-1.8501">
        <ele>81.6</ele>
        <time>2019-07-16T08:32:54Z</time>
      </trkpt>
      <trkpt lat="48.29155" lon="-1.85007">
        <ele>81.3</ele>
        <time>2019-07-16T08:32:55Z</time>
      </trkpt>
      <trkpt lat="48.29156" lon="-1.85005">
        <ele>81</ele>
        <time>2019-07-16T08:32:56Z</time>
      </trkpt>
      <trkpt lat="48.29157" lon="-1.84997">
        <ele>81.1</ele>
        <time>2019-07-16T08:33:10Z</time>
      </trkpt>
      <trkpt lat="48.29157" lon="-1.84994">
        <ele>81</ele>
        <time>2019-07-16T08:33:11Z</time>
      </trkpt>
      <trkpt lat="48.29157" lon="-1.8499">
        <ele>81</ele>
        <time>2019-07-16T08:33:12Z</time>
      </trkpt>
      <trkpt lat="48.29157" lon="-1.84985">
        <ele>81.2</ele>
        <time>2019-07-16T08:33:13Z</time>
      </trkpt>
      <trkpt lat="48.29157" lon="-1.8498">
        <ele>81.3</ele>
        <time>2019-07-16T08:33:14Z</time>
      </trkpt>
      <trkpt lat="48.29156" lon="-1.84975">
        <ele>81.5</ele>
        <time>2019-07-16T08:33:15Z</time>
      </trkpt>
      <trkpt lat="48.29156" lon="-1.84968">
        <ele>81.4</ele>
        <time>2019-07-16T08:33:16Z</time>
      </trkpt>
      <trkpt lat="48.29157" lon="-1.84962">
        <ele>81.5</ele>
        <time>2019-07-16T08:33:17Z</time>
      </trkpt>
      <trkpt lat="48.29158" lon="-1.84956">
        <ele>81.8</ele>
        <time>2019-07-16T08:33:18Z</time>
      </trkpt>
      <trkpt lat="48.29158" lon="-1.84949">
        <ele>81.8</ele>
        <time>2019-07-16T08:33:19Z</time>
      </trkpt>
      <trkpt lat="48.29157" lon="-1.84942">
        <ele>81.4</ele>
        <time>2019-07-16T08:33:20Z</time>
      </trkpt>
      <trkpt lat="48.29157" lon="-1.84935">
        <ele>81.4</ele>
        <time>2019-07-16T08:33:21Z</time>
      </trkpt>
      <trkpt lat="48.29157" lon="-1.84929">
        <ele>81.8</ele>
        <time>2019-07-16T08:33:22Z</time>
      </trkpt>
      <trkpt lat="48.29157" lon="-1.84922">
        <ele>82.5</ele>
        <time>2019-07-16T08:33:23Z</time>
      </trkpt>
      <trkpt lat="48.29157" lon="-1.84916">
        <ele>83.3</ele>
        <time>2019-07-16T08:33:24Z</time>
      </trkpt>
      <trkpt lat="48.29157" lon="-1.8491">
        <ele>83.6</ele>
        <time>2019-07-16T08:33:25Z</time>
      </trkpt>
      <trkpt lat="48.29157" lon="-1.84905">
        <ele>83.4</ele>
        <time>2019-07-16T08:33:26Z</time>
      </trkpt>
      <trkpt lat="48.29157" lon="-1.84899">
        <ele>83.5</ele>
        <time>2019-07-16T08:33:27Z</time>
      </trkpt>
      <trkpt lat="48.29156" lon="-1.84895">
        <ele>83.3</ele>
        <time>2019-07-16T08:33:28Z</time>
      </trkpt>
      <trkpt lat="48.29154" lon="-1.8489">
        <ele>82.6</ele>
        <time>2019-07-16T08:33:29Z</time>
      </trkpt>
      <trkpt lat="48.29153" lon="-1.84885">
        <ele>82.5</ele>
        <time>2019-07-16T08:33:30Z</time>
      </trkpt>
      <trkpt lat="48.29153" lon="-1.84881">
        <ele>82.7</ele>
        <time>2019-07-16T08:33:31Z</time>
      </trkpt>
      <trkpt lat="48.29153" lon="-1.84876">
        <ele>83.1</ele>
        <time>2019-07-16T08:33:32Z</time>
      </trkpt>
      <trkpt lat="48.2915" lon="-1.84872">
        <ele>81.9</ele>
        <time>2019-07-16T08:33:33Z</time>
      </trkpt>
      <trkpt lat="48.29148" lon="-1.84868">
        <ele>81.1</ele>
        <time>2019-07-16T08:33:34Z</time>
      </trkpt>
      <trkpt lat="48.29147" lon="-1.84864">
        <ele>81</ele>
        <time>2019-07-16T08:33:35Z</time>
      </trkpt>
      <trkpt lat="48.29145" lon="-1.84859">
        <ele>81</ele>
        <time>2019-07-16T08:33:36Z</time>
      </trkpt>
      <trkpt lat="48.29143" lon="-1.84855">
        <ele>80.8</ele>
        <time>2019-07-16T08:33:37Z</time>
      </trkpt>
      <trkpt lat="48.29142" lon="-1.84851">
        <ele>80.5</ele>
        <time>2019-07-16T08:33:38Z</time>
      </trkpt>
      <trkpt lat="48.29141" lon="-1.84847">
        <ele>80.5</ele>
        <time>2019-07-16T08:33:39Z</time>
      </trkpt>
      <trkpt lat="48.2914" lon="-1.84842">
        <ele>80.8</ele>
        <time>2019-07-16T08:33:40Z</time>
      </trkpt>
      <trkpt lat="48.29139" lon="-1.84838">
        <ele>81.3</ele>
        <time>2019-07-16T08:33:41Z</time>
      </trkpt>
      <trkpt lat="48.29139" lon="-1.84834">
        <ele>81.7</ele>
        <time>2019-07-16T08:33:42Z</time>
      </trkpt>
      <trkpt lat="48.29138" lon="-1.84829">
        <ele>82</ele>
        <time>2019-07-16T08:33:43Z</time>
      </trkpt>
      <trkpt lat="48.29137" lon="-1.84825">
        <ele>81.9</ele>
        <time>2019-07-16T08:33:44Z</time>
      </trkpt>
      <trkpt lat="48.29137" lon="-1.84821">
        <ele>82</ele>
        <time>2019-07-16T08:33:45Z</time>
      </trkpt>
      <trkpt lat="48.29136" lon="-1.84816">
        <ele>82.1</ele>
        <time>2019-07-16T08:33:46Z</time>
      </trkpt>
      <trkpt lat="48.29136" lon="-1.84812">
        <ele>82.2</ele>
        <time>2019-07-16T08:33:47Z</time>
      </trkpt>
      <trkpt lat="48.29135" lon="-1.84808">
        <ele>82.7</ele>
        <time>2019-07-16T08:33:48Z</time>
      </trkpt>
      <trkpt lat="48.29134" lon="-1.84804">
        <ele>82.9</ele>
        <time>2019-07-16T08:33:49Z</time>
      </trkpt>
      <trkpt lat="48.29134" lon="-1.84799">
        <ele>83.3</ele>
        <time>2019-07-16T08:33:50Z</time>
      </trkpt>
      <trkpt lat="48.29134" lon="-1.84795">
        <ele>83.5</ele>
        <time>2019-07-16T08:33:51Z</time>
      </trkpt>
      <trkpt lat="48.29133" lon="-1.8479">
        <ele>83.7</ele>
        <time>2019-07-16T08:33:52Z</time>
      </trkpt>
      <trkpt lat="48.29134" lon="-1.84785">
        <ele>83.9</ele>
        <time>2019-07-16T08:33:53Z</time>
      </trkpt>
      <trkpt lat="48.29133" lon="-1.84781">
        <ele>83.8</ele>
        <time>2019-07-16T08:33:54Z</time>
      </trkpt>
      <trkpt lat="48.29134" lon="-1.84776">
        <ele>83.8</ele>
        <time>2019-07-16T08:33:55Z</time>
      </trkpt>
      <trkpt lat="48.29134" lon="-1.84771">
        <ele>83.9</ele>
        <time>2019-07-16T08:33:56Z</time>
      </trkpt>
      <trkpt lat="48.29134" lon="-1.84766">
        <ele>84.1</ele>
        <time>2019-07-16T08:33:57Z</time>
      </trkpt>
      <trkpt lat="48.29134" lon="-1.84761">
        <ele>84.3</ele>
        <time>2019-07-16T08:33:58Z</time>
      </trkpt>
      <trkpt lat="48.29134" lon="-1.84755">
        <ele>84.5</ele>
        <time>2019-07-16T08:33:59Z</time>
      </trkpt>
      <trkpt lat="48.29134" lon="-1.8475">
        <ele>84.4</ele>
        <time>2019-07-16T08:34:00Z</time>
      </trkpt>
      <trkpt lat="48.29134" lon="-1.84745">
        <ele>84.3</ele>
        <time>2019-07-16T08:34:01Z</time>
      </trkpt>
      <trkpt lat="48.29134" lon="-1.84739">
        <ele>84.5</ele>
        <time>2019-07-16T08:34:02Z</time>
      </trkpt>
      <trkpt lat="48.29135" lon="-1.84734">
        <ele>84.7</ele>
        <time>2019-07-16T08:34:03Z</time>
      </trkpt>
      <trkpt lat="48.29136" lon="-1.84729">
        <ele>83.9</ele>
        <time>2019-07-16T08:34:04Z</time>
      </trkpt>
      <trkpt lat="48.29135" lon="-1.84723">
        <ele>83.1</ele>
        <time>2019-07-16T08:34:05Z</time>
      </trkpt>
      <trkpt lat="48.29135" lon="-1.84718">
        <ele>82.2</ele>
        <time>2019-07-16T08:34:06Z</time>
      </trkpt>
      <trkpt lat="48.29135" lon="-1.84712">
        <ele>81.3</ele>
        <time>2019-07-16T08:34:07Z</time>
      </trkpt>
      <trkpt lat="48.29134" lon="-1.84706">
        <ele>80.9</ele>
        <time>2019-07-16T08:34:08Z</time>
      </trkpt>
      <trkpt lat="48.29134" lon="-1.847">
        <ele>80.3</ele>
        <time>2019-07-16T08:34:09Z</time>
      </trkpt>
      <trkpt lat="48.29136" lon="-1.84694">
        <ele>79.7</ele>
        <time>2019-07-16T08:34:10Z</time>
      </trkpt>
      <trkpt lat="48.29136" lon="-1.84688">
        <ele>79.3</ele>
        <time>2019-07-16T08:34:11Z</time>
      </trkpt>
      <trkpt lat="48.29137" lon="-1.84682">
        <ele>79.4</ele>
        <time>2019-07-16T08:34:12Z</time>
      </trkpt>
      <trkpt lat="48.29137" lon="-1.84676">
        <ele>79.5</ele>
        <time>2019-07-16T08:34:13Z</time>
      </trkpt>
      <trkpt lat="48.29138" lon="-1.8467">
        <ele>79.5</ele>
        <time>2019-07-16T08:34:14Z</time>
      </trkpt>
      <trkpt lat="48.29139" lon="-1.84663">
        <ele>79.6</ele>
        <time>2019-07-16T08:34:15Z</time>
      </trkpt>
      <trkpt lat="48.29141" lon="-1.84656">
        <ele>79.7</ele>
        <time>2019-07-16T08:34:16Z</time>
      </trkpt>
      <trkpt lat="48.29142" lon="-1.84649">
        <ele>80.1</ele>
        <time>2019-07-16T08:34:17Z</time>
      </trkpt>
      <trkpt lat="48.29143" lon="-1.84642">
        <ele>80.1</ele>
        <time>2019-07-16T08:34:18Z</time>
      </trkpt>
      <trkpt lat="48.29144" lon="-1.84634">
        <ele>80</ele>
        <time>2019-07-16T08:34:19Z</time>
      </trkpt>
      <trkpt lat="48.29145" lon="-1.84626">
        <ele>79.9</ele>
        <time>2019-07-16T08:34:20Z</time>
      </trkpt>
      <trkpt lat="48.29145" lon="-1.84619">
        <ele>80</ele>
        <time>2019-07-16T08:34:21Z</time>
      </trkpt>
      <trkpt lat="48.29146" lon="-1.8461">
        <ele>80</ele>
        <time>2019-07-16T08:34:22Z</time>
      </trkpt>
      <trkpt lat="48.29147" lon="-1.84602">
        <ele>79.9</ele>
        <time>2019-07-16T08:34:23Z</time>
      </trkpt>
      <trkpt lat="48.29149" lon="-1.84593">
        <ele>79.9</ele>
        <time>2019-07-16T08:34:24Z</time>
      </trkpt>
      <trkpt lat="48.29149" lon="-1.84583">
        <ele>79.9</ele>
        <time>2019-07-16T08:34:25Z</time>
      </trkpt>
      <trkpt lat="48.2915" lon="-1.84573">
        <ele>79.6</ele>
        <time>2019-07-16T08:34:26Z</time>
      </trkpt>
      <trkpt lat="48.29152" lon="-1.84562">
        <ele>79.5</ele>
        <time>2019-07-16T08:34:27Z</time>
      </trkpt>
      <trkpt lat="48.29152" lon="-1.84552">
        <ele>79.2</ele>
        <time>2019-07-16T08:34:28Z</time>
      </trkpt>
      <trkpt lat="48.29152" lon="-1.84542">
        <ele>79.2</ele>
        <time>2019-07-16T08:34:29Z</time>
      </trkpt>
      <trkpt lat="48.29152" lon="-1.84533">
        <ele>79.3</ele>
        <time>2019-07-16T08:34:30Z</time>
      </trkpt>
      <trkpt lat="48.29151" lon="-1.84523">
        <ele>78.9</ele>
        <time>2019-07-16T08:34:31Z</time>
      </trkpt>
      <trkpt lat="48.29152" lon="-1.84512">
        <ele>78.5</ele>
        <time>2019-07-16T08:34:32Z</time>
      </trkpt>
      <trkpt lat="48.29154" lon="-1.84504">
        <ele>78.4</ele>
        <time>2019-07-16T08:34:33Z</time>
      </trkpt>
      <trkpt lat="48.29156" lon="-1.84496">
        <ele>78.2</ele>
        <time>2019-07-16T08:34:34Z</time>
      </trkpt>
      <trkpt lat="48.29157" lon="-1.84487">
        <ele>78.1</ele>
        <time>2019-07-16T08:34:35Z</time>
      </trkpt>
      <trkpt lat="48.29158" lon="-1.84478">
        <ele>78.3</ele>
        <time>2019-07-16T08:34:36Z</time>
      </trkpt>
      <trkpt lat="48.29159" lon="-1.84468">
        <ele>78.3</ele>
        <time>2019-07-16T08:34:37Z</time>
      </trkpt>
      <trkpt lat="48.2916" lon="-1.84459">
        <ele>78.6</ele>
        <time>2019-07-16T08:34:38Z</time>
      </trkpt>
      <trkpt lat="48.2916" lon="-1.84449">
        <ele>78.8</ele>
        <time>2019-07-16T08:34:39Z</time>
      </trkpt>
      <trkpt lat="48.29161" lon="-1.84438">
        <ele>79</ele>
        <time>2019-07-16T08:34:40Z</time>
      </trkpt>
      <trkpt lat="48.29163" lon="-1.84429">
        <ele>79.2</ele>
        <time>2019-07-16T08:34:41Z</time>
      </trkpt>
      <trkpt lat="48.29163" lon="-1.8442">
        <ele>79.4</ele>
        <time>2019-07-16T08:34:42Z</time>
      </trkpt>
      <trkpt lat="48.29164" lon="-1.84411">
        <ele>79.6</ele>
        <time>2019-07-16T08:34:43Z</time>
      </trkpt>
      <trkpt lat="48.29165" lon="-1.84403">
        <ele>79.8</ele>
        <time>2019-07-16T08:34:44Z</time>
      </trkpt>
      <trkpt lat="48.29165" lon="-1.84395">
        <ele>80.1</ele>
        <time>2019-07-16T08:34:45Z</time>
      </trkpt>
      <trkpt lat="48.29166" lon="-1.84386">
        <ele>80.3</ele>
        <time>2019-07-16T08:34:46Z</time>
      </trkpt>
      <trkpt lat="48.29167" lon="-1.84378">
        <ele>80.2</ele>
        <time>2019-07-16T08:34:47Z</time>
      </trkpt>
      <trkpt lat="48.29169" lon="-1.84371">
        <ele>80.3</ele>
        <time>2019-07-16T08:34:48Z</time>
      </trkpt>
      <trkpt lat="48.29171" lon="-1.84363">
        <ele>80.4</ele>
        <time>2019-07-16T08:34:49Z</time>
      </trkpt>
      <trkpt lat="48.29172" lon="-1.84356">
        <ele>80.4</ele>
        <time>2019-07-16T08:34:50Z</time>
      </trkpt>
      <trkpt lat="48.29173" lon="-1.84349">
        <ele>80.6</ele>
        <time>2019-07-16T08:34:51Z</time>
      </trkpt>
      <trkpt lat="48.29175" lon="-1.84342">
        <ele>81.1</ele>
        <time>2019-07-16T08:34:52Z</time>
      </trkpt>
      <trkpt lat="48.29176" lon="-1.84336">
        <ele>81.3</ele>
        <time>2019-07-16T08:34:53Z</time>
      </trkpt>
      <trkpt lat="48.29176" lon="-1.84331">
        <ele>81.3</ele>
        <time>2019-07-16T08:34:54Z</time>
      </trkpt>
      <trkpt lat="48.29178" lon="-1.84326">
        <ele>81.3</ele>
        <time>2019-07-16T08:34:55Z</time>
      </trkpt>
      <trkpt lat="48.29179" lon="-1.84322">
        <ele>81.2</ele>
        <time>2019-07-16T08:34:56Z</time>
      </trkpt>
      <trkpt lat="48.29181" lon="-1.84317">
        <ele>81</ele>
        <time>2019-07-16T08:34:57Z</time>
      </trkpt>
      <trkpt lat="48.29182" lon="-1.84311">
        <ele>80.8</ele>
        <time>2019-07-16T08:34:58Z</time>
      </trkpt>
      <trkpt lat="48.29184" lon="-1.84305">
        <ele>80.6</ele>
        <time>2019-07-16T08:34:59Z</time>
      </trkpt>
      <trkpt lat="48.29185" lon="-1.843">
        <ele>80</ele>
        <time>2019-07-16T08:35:00Z</time>
      </trkpt>
      <trkpt lat="48.29187" lon="-1.84296">
        <ele>79.7</ele>
        <time>2019-07-16T08:35:01Z</time>
      </trkpt>
      <trkpt lat="48.29188" lon="-1.84291">
        <ele>79.5</ele>
        <time>2019-07-16T08:35:02Z</time>
      </trkpt>
      <trkpt lat="48.29189" lon="-1.84286">
        <ele>79.6</ele>
        <time>2019-07-16T08:35:03Z</time>
      </trkpt>
      <trkpt lat="48.29191" lon="-1.84281">
        <ele>79.6</ele>
        <time>2019-07-16T08:35:04Z</time>
      </trkpt>
      <trkpt lat="48.29193" lon="-1.84276">
        <ele>79.9</ele>
        <time>2019-07-16T08:35:05Z</time>
      </trkpt>
      <trkpt lat="48.29194" lon="-1.84271">
        <ele>79.9</ele>
        <time>2019-07-16T08:35:06Z</time>
      </trkpt>
      <trkpt lat="48.29196" lon="-1.84266">
        <ele>79.9</ele>
        <time>2019-07-16T08:35:07Z</time>
      </trkpt>
      <trkpt lat="48.29198" lon="-1.84261">
        <ele>80</ele>
        <time>2019-07-16T08:35:08Z</time>
      </trkpt>
      <trkpt lat="48.292" lon="-1.84256">
        <ele>80.1</ele>
        <time>2019-07-16T08:35:09Z</time>
      </trkpt>
      <trkpt lat="48.29202" lon="-1.8425">
        <ele>79.8</ele>
        <time>2019-07-16T08:35:10Z</time>
      </trkpt>
      <trkpt lat="48.29204" lon="-1.84244">
        <ele>79.5</ele>
        <time>2019-07-16T08:35:11Z</time>
      </trkpt>
      <trkpt lat="48.29207" lon="-1.84239">
        <ele>79.7</ele>
        <time>2019-07-16T08:35:12Z</time>
      </trkpt>
      <trkpt lat="48.29208" lon="-1.84234">
        <ele>79.7</ele>
        <time>2019-07-16T08:35:13Z</time>
      </trkpt>
      <trkpt lat="48.2921" lon="-1.84229">
        <ele>79.6</ele>
        <time>2019-07-16T08:35:14Z</time>
      </trkpt>
      <trkpt lat="48.29211" lon="-1.84223">
        <ele>79.6</ele>
        <time>2019-07-16T08:35:15Z</time>
      </trkpt>
      <trkpt lat="48.29212" lon="-1.84217">
        <ele>79</ele>
        <time>2019-07-16T08:35:16Z</time>
      </trkpt>
      <trkpt lat="48.29213" lon="-1.84211">
        <ele>78.6</ele>
        <time>2019-07-16T08:35:17Z</time>
      </trkpt>
      <trkpt lat="48.29213" lon="-1.84206">
        <ele>78</ele>
        <time>2019-07-16T08:35:18Z</time>
      </trkpt>
      <trkpt lat="48.29215" lon="-1.842">
        <ele>78.1</ele>
        <time>2019-07-16T08:35:19Z</time>
      </trkpt>
      <trkpt lat="48.29216" lon="-1.84195">
        <ele>78</ele>
        <time>2019-07-16T08:35:20Z</time>
      </trkpt>
      <trkpt lat="48.29217" lon="-1.84189">
        <ele>77.8</ele>
        <time>2019-07-16T08:35:21Z</time>
      </trkpt>
      <trkpt lat="48.29217" lon="-1.84184">
        <ele>77.6</ele>
        <time>2019-07-16T08:35:22Z</time>
      </trkpt>
      <trkpt lat="48.29217" lon="-1.84178">
        <ele>77.3</ele>
        <time>2019-07-16T08:35:23Z</time>
      </trkpt>
      <trkpt lat="48.29218" lon="-1.84172">
        <ele>77.3</ele>
        <time>2019-07-16T08:35:24Z</time>
      </trkpt>
      <trkpt lat="48.29219" lon="-1.84167">
        <ele>77.5</ele>
        <time>2019-07-16T08:35:25Z</time>
      </trkpt>
      <trkpt lat="48.2922" lon="-1.84161">
        <ele>77.7</ele>
        <time>2019-07-16T08:35:26Z</time>
      </trkpt>
      <trkpt lat="48.29221" lon="-1.84156">
        <ele>77.8</ele>
        <time>2019-07-16T08:35:27Z</time>
      </trkpt>
      <trkpt lat="48.29221" lon="-1.84151">
        <ele>77.8</ele>
        <time>2019-07-16T08:35:28Z</time>
      </trkpt>
      <trkpt lat="48.29222" lon="-1.84146">
        <ele>77.6</ele>
        <time>2019-07-16T08:35:29Z</time>
      </trkpt>
      <trkpt lat="48.29221" lon="-1.84141">
        <ele>76.7</ele>
        <time>2019-07-16T08:35:30Z</time>
      </trkpt>
      <trkpt lat="48.29222" lon="-1.84135">
        <ele>76.1</ele>
        <time>2019-07-16T08:35:31Z</time>
      </trkpt>
      <trkpt lat="48.29222" lon="-1.8413">
        <ele>75.7</ele>
        <time>2019-07-16T08:35:32Z</time>
      </trkpt>
      <trkpt lat="48.29223" lon="-1.84124">
        <ele>75.2</ele>
        <time>2019-07-16T08:35:33Z</time>
      </trkpt>
      <trkpt lat="48.29223" lon="-1.84119">
        <ele>74.6</ele>
        <time>2019-07-16T08:35:34Z</time>
      </trkpt>
      <trkpt lat="48.29223" lon="-1.84113">
        <ele>74.2</ele>
        <time>2019-07-16T08:35:35Z</time>
      </trkpt>
      <trkpt lat="48.29223" lon="-1.84108">
        <ele>73.5</ele>
        <time>2019-07-16T08:35:36Z</time>
      </trkpt>
      <trkpt lat="48.29224" lon="-1.84102">
        <ele>72.8</ele>
        <time>2019-07-16T08:35:37Z</time>
      </trkpt>
      <trkpt lat="48.29224" lon="-1.84096">
        <ele>72.3</ele>
        <time>2019-07-16T08:35:38Z</time>
      </trkpt>
      <trkpt lat="48.29224" lon="-1.8409">
        <ele>71.2</ele>
        <time>2019-07-16T08:35:39Z</time>
      </trkpt>
      <trkpt lat="48.29224" lon="-1.84084">
        <ele>69.9</ele>
        <time>2019-07-16T08:35:40Z</time>
      </trkpt>
      <trkpt lat="48.29224" lon="-1.84078">
        <ele>68.8</ele>
        <time>2019-07-16T08:35:41Z</time>
      </trkpt>
      <trkpt lat="48.29224" lon="-1.84072">
        <ele>67.7</ele>
        <time>2019-07-16T08:35:42Z</time>
      </trkpt>
      <trkpt lat="48.29225" lon="-1.84066">
        <ele>66.8</ele>
        <time>2019-07-16T08:35:43Z</time>
      </trkpt>
      <trkpt lat="48.29226" lon="-1.8406">
        <ele>66.3</ele>
        <time>2019-07-16T08:35:44Z</time>
      </trkpt>
      <trkpt lat="48.29227" lon="-1.84054">
        <ele>65.8</ele>
        <time>2019-07-16T08:35:45Z</time>
      </trkpt>
      <trkpt lat="48.29228" lon="-1.84048">
        <ele>65.1</ele>
        <time>2019-07-16T08:35:46Z</time>
      </trkpt>
      <trkpt lat="48.29229" lon="-1.84043">
        <ele>64.7</ele>
        <time>2019-07-16T08:35:47Z</time>
      </trkpt>
      <trkpt lat="48.29231" lon="-1.84038">
        <ele>64.6</ele>
        <time>2019-07-16T08:35:48Z</time>
      </trkpt>
      <trkpt lat="48.29232" lon="-1.84033">
        <ele>64.5</ele>
        <time>2019-07-16T08:35:49Z</time>
      </trkpt>
      <trkpt lat="48.29234" lon="-1.84027">
        <ele>64.8</ele>
        <time>2019-07-16T08:35:50Z</time>
      </trkpt>
      <trkpt lat="48.29237" lon="-1.84022">
        <ele>65.6</ele>
        <time>2019-07-16T08:35:51Z</time>
      </trkpt>
      <trkpt lat="48.29241" lon="-1.84018">
        <ele>67.3</ele>
        <time>2019-07-16T08:35:52Z</time>
      </trkpt>
      <trkpt lat="48.29243" lon="-1.84012">
        <ele>67.9</ele>
        <time>2019-07-16T08:35:53Z</time>
      </trkpt>
      <trkpt lat="48.29246" lon="-1.84006">
        <ele>68.4</ele>
        <time>2019-07-16T08:35:54Z</time>
      </trkpt>
      <trkpt lat="48.29248" lon="-1.84001">
        <ele>68.6</ele>
        <time>2019-07-16T08:35:55Z</time>
      </trkpt>
      <trkpt lat="48.2925" lon="-1.83995">
        <ele>68.7</ele>
        <time>2019-07-16T08:35:56Z</time>
      </trkpt>
      <trkpt lat="48.29253" lon="-1.83989">
        <ele>68.9</ele>
        <time>2019-07-16T08:35:57Z</time>
      </trkpt>
      <trkpt lat="48.29256" lon="-1.83982">
        <ele>68.9</ele>
        <time>2019-07-16T08:35:58Z</time>
      </trkpt>
      <trkpt lat="48.29259" lon="-1.83976">
        <ele>68.9</ele>
        <time>2019-07-16T08:35:59Z</time>
      </trkpt>
      <trkpt lat="48.29262" lon="-1.83969">
        <ele>68.6</ele>
        <time>2019-07-16T08:36:00Z</time>
      </trkpt>
      <trkpt lat="48.29265" lon="-1.83963">
        <ele>68.5</ele>
        <time>2019-07-16T08:36:01Z</time>
      </trkpt>
      <trkpt lat="48.29268" lon="-1.83957">
        <ele>68.6</ele>
        <time>2019-07-16T08:36:02Z</time>
      </trkpt>
      <trkpt lat="48.29271" lon="-1.8395">
        <ele>68.5</ele>
        <time>2019-07-16T08:36:03Z</time>
      </trkpt>
      <trkpt lat="48.29274" lon="-1.83944">
        <ele>68.7</ele>
        <time>2019-07-16T08:36:04Z</time>
      </trkpt>
      <trkpt lat="48.29278" lon="-1.83937">
        <ele>68.8</ele>
        <time>2019-07-16T08:36:05Z</time>
      </trkpt>
      <trkpt lat="48.29281" lon="-1.8393">
        <ele>68.8</ele>
        <time>2019-07-16T08:36:06Z</time>
      </trkpt>
      <trkpt lat="48.29284" lon="-1.83923">
        <ele>68.9</ele>
        <time>2019-07-16T08:36:07Z</time>
      </trkpt>
      <trkpt lat="48.29289" lon="-1.83916">
        <ele>69</ele>
        <time>2019-07-16T08:36:08Z</time>
      </trkpt>
      <trkpt lat="48.29292" lon="-1.83909">
        <ele>69.4</ele>
        <time>2019-07-16T08:36:09Z</time>
      </trkpt>
      <trkpt lat="48.29297" lon="-1.83903">
        <ele>69.7</ele>
        <time>2019-07-16T08:36:10Z</time>
      </trkpt>
      <trkpt lat="48.29301" lon="-1.83896">
        <ele>69.8</ele>
        <time>2019-07-16T08:36:11Z</time>
      </trkpt>
      <trkpt lat="48.29305" lon="-1.8389">
        <ele>69.9</ele>
        <time>2019-07-16T08:36:12Z</time>
      </trkpt>
      <trkpt lat="48.2931" lon="-1.83883">
        <ele>70.1</ele>
        <time>2019-07-16T08:36:13Z</time>
      </trkpt>
      <trkpt lat="48.29313" lon="-1.83877">
        <ele>70</ele>
        <time>2019-07-16T08:36:14Z</time>
      </trkpt>
      <trkpt lat="48.29317" lon="-1.83871">
        <ele>69.8</ele>
        <time>2019-07-16T08:36:15Z</time>
      </trkpt>
      <trkpt lat="48.29321" lon="-1.83865">
        <ele>69.7</ele>
        <time>2019-07-16T08:36:16Z</time>
      </trkpt>
      <trkpt lat="48.29325" lon="-1.83859">
        <ele>69.4</ele>
        <time>2019-07-16T08:36:17Z</time>
      </trkpt>
      <trkpt lat="48.29329" lon="-1.83853">
        <ele>70.3</ele>
        <time>2019-07-16T08:36:18Z</time>
      </trkpt>
      <trkpt lat="48.29333" lon="-1.83848">
        <ele>70.6</ele>
        <time>2019-07-16T08:36:19Z</time>
      </trkpt>
      <trkpt lat="48.29337" lon="-1.83842">
        <ele>70.4</ele>
        <time>2019-07-16T08:36:20Z</time>
      </trkpt>
      <trkpt lat="48.2934" lon="-1.83837">
        <ele>70.1</ele>
        <time>2019-07-16T08:36:21Z</time>
      </trkpt>
      <trkpt lat="48.29342" lon="-1.83831">
        <ele>68.5</ele>
        <time>2019-07-16T08:36:22Z</time>
      </trkpt>
      <trkpt lat="48.29344" lon="-1.83825">
        <ele>68.2</ele>
        <time>2019-07-16T08:36:23Z</time>
      </trkpt>
      <trkpt lat="48.29347" lon="-1.8382">
        <ele>68.1</ele>
        <time>2019-07-16T08:36:24Z</time>
      </trkpt>
      <trkpt lat="48.2935" lon="-1.83816">
        <ele>68</ele>
        <time>2019-07-16T08:36:25Z</time>
      </trkpt>
      <trkpt lat="48.29351" lon="-1.83811">
        <ele>67.7</ele>
        <time>2019-07-16T08:36:26Z</time>
      </trkpt>
      <trkpt lat="48.29353" lon="-1.83806">
        <ele>67.6</ele>
        <time>2019-07-16T08:36:27Z</time>
      </trkpt>
      <trkpt lat="48.29354" lon="-1.83802">
        <ele>67.1</ele>
        <time>2019-07-16T08:36:28Z</time>
      </trkpt>
      <trkpt lat="48.29355" lon="-1.83798">
        <ele>67.5</ele>
        <time>2019-07-16T08:36:29Z</time>
      </trkpt>
      <trkpt lat="48.29356" lon="-1.83794">
        <ele>67.3</ele>
        <time>2019-07-16T08:36:30Z</time>
      </trkpt>
      <trkpt lat="48.29356" lon="-1.8379">
        <ele>67.2</ele>
        <time>2019-07-16T08:36:31Z</time>
      </trkpt>
      <trkpt lat="48.29357" lon="-1.83785">
        <ele>66.9</ele>
        <time>2019-07-16T08:36:32Z</time>
      </trkpt>
      <trkpt lat="48.29358" lon="-1.83781">
        <ele>66.8</ele>
        <time>2019-07-16T08:36:33Z</time>
      </trkpt>
      <trkpt lat="48.29358" lon="-1.83776">
        <ele>66.1</ele>
        <time>2019-07-16T08:36:34Z</time>
      </trkpt>
      <trkpt lat="48.29358" lon="-1.83772">
        <ele>65.7</ele>
        <time>2019-07-16T08:36:35Z</time>
      </trkpt>
      <trkpt lat="48.29358" lon="-1.83768">
        <ele>65.3</ele>
        <time>2019-07-16T08:36:36Z</time>
      </trkpt>
      <trkpt lat="48.29357" lon="-1.83764">
        <ele>64.6</ele>
        <time>2019-07-16T08:36:37Z</time>
      </trkpt>
      <trkpt lat="48.29357" lon="-1.8376">
        <ele>64.3</ele>
        <time>2019-07-16T08:36:38Z</time>
      </trkpt>
      <trkpt lat="48.29357" lon="-1.83756">
        <ele>64.9</ele>
        <time>2019-07-16T08:36:39Z</time>
      </trkpt>
      <trkpt lat="48.29356" lon="-1.83753">
        <ele>65</ele>
        <time>2019-07-16T08:36:40Z</time>
      </trkpt>
      <trkpt lat="48.29356" lon="-1.8375">
        <ele>65.3</ele>
        <time>2019-07-16T08:36:41Z</time>
      </trkpt>
      <trkpt lat="48.29355" lon="-1.83747">
        <ele>65.7</ele>
        <time>2019-07-16T08:36:42Z</time>
      </trkpt>
      <trkpt lat="48.29353" lon="-1.83744">
        <ele>65.7</ele>
        <time>2019-07-16T08:36:43Z</time>
      </trkpt>
      <trkpt lat="48.29353" lon="-1.83741">
        <ele>66</ele>
        <time>2019-07-16T08:36:44Z</time>
      </trkpt>
      <trkpt lat="48.29352" lon="-1.83738">
        <ele>66.6</ele>
        <time>2019-07-16T08:36:45Z</time>
      </trkpt>
      <trkpt lat="48.29353" lon="-1.83736">
        <ele>68.4</ele>
        <time>2019-07-16T08:36:46Z</time>
      </trkpt>
      <trkpt lat="48.29352" lon="-1.83733">
        <ele>68.3</ele>
        <time>2019-07-16T08:36:47Z</time>
      </trkpt>
      <trkpt lat="48.2935" lon="-1.8373">
        <ele>68.5</ele>
        <time>2019-07-16T08:36:48Z</time>
      </trkpt>
      <trkpt lat="48.29349" lon="-1.83727">
        <ele>69</ele>
        <time>2019-07-16T08:36:49Z</time>
      </trkpt>
      <trkpt lat="48.29348" lon="-1.83725">
        <ele>69.6</ele>
        <time>2019-07-16T08:36:50Z</time>
      </trkpt>
      <trkpt lat="48.29347" lon="-1.83722">
        <ele>69.9</ele>
        <time>2019-07-16T08:36:51Z</time>
      </trkpt>
      <trkpt lat="48.29346" lon="-1.83721">
        <ele>70.5</ele>
        <time>2019-07-16T08:36:52Z</time>
      </trkpt>
      <trkpt lat="48.29344" lon="-1.83719">
        <ele>70.9</ele>
        <time>2019-07-16T08:36:53Z</time>
      </trkpt>
      <trkpt lat="48.29343" lon="-1.83717">
        <ele>70.9</ele>
        <time>2019-07-16T08:36:54Z</time>
      </trkpt>
      <trkpt lat="48.29341" lon="-1.83715">
        <ele>71.2</ele>
        <time>2019-07-16T08:36:55Z</time>
      </trkpt>
      <trkpt lat="48.2934" lon="-1.83714">
        <ele>71.6</ele>
        <time>2019-07-16T08:36:56Z</time>
      </trkpt>
      <trkpt lat="48.29339" lon="-1.83712">
        <ele>71.9</ele>
        <time>2019-07-16T08:36:57Z</time>
      </trkpt>
      <trkpt lat="48.29337" lon="-1.8371">
        <ele>72.4</ele>
        <time>2019-07-16T08:36:58Z</time>
      </trkpt>
      <trkpt lat="48.29336" lon="-1.83708">
        <ele>72.8</ele>
        <time>2019-07-16T08:36:59Z</time>
      </trkpt>
      <trkpt lat="48.29335" lon="-1.83705">
        <ele>73.1</ele>
        <time>2019-07-16T08:37:00Z</time>
      </trkpt>
      <trkpt lat="48.29334" lon="-1.83703">
        <ele>73.6</ele>
        <time>2019-07-16T08:37:01Z</time>
      </trkpt>
      <trkpt lat="48.29334" lon="-1.83701">
        <ele>73.8</ele>
        <time>2019-07-16T08:37:02Z</time>
      </trkpt>
      <trkpt lat="48.29331" lon="-1.83699">
        <ele>73.7</ele>
        <time>2019-07-16T08:37:03Z</time>
      </trkpt>
      <trkpt lat="48.29328" lon="-1.83697">
        <ele>73.2</ele>
        <time>2019-07-16T08:37:04Z</time>
      </trkpt>
      <trkpt lat="48.29326" lon="-1.83695">
        <ele>72.8</ele>
        <time>2019-07-16T08:37:05Z</time>
      </trkpt>
      <trkpt lat="48.29324" lon="-1.83692">
        <ele>72.6</ele>
        <time>2019-07-16T08:37:06Z</time>
      </trkpt>
      <trkpt lat="48.29322" lon="-1.8369">
        <ele>72.5</ele>
        <time>2019-07-16T08:37:07Z</time>
      </trkpt>
      <trkpt lat="48.29321" lon="-1.83687">
        <ele>72.6</ele>
        <time>2019-07-16T08:37:08Z</time>
      </trkpt>
      <trkpt lat="48.29319" lon="-1.83684">
        <ele>72.7</ele>
        <time>2019-07-16T08:37:09Z</time>
      </trkpt>
      <trkpt lat="48.29318" lon="-1.83682">
        <ele>72.6</ele>
        <time>2019-07-16T08:37:10Z</time>
      </trkpt>
      <trkpt lat="48.29316" lon="-1.8368">
        <ele>72.9</ele>
        <time>2019-07-16T08:37:11Z</time>
      </trkpt>
      <trkpt lat="48.29314" lon="-1.83677">
        <ele>73.2</ele>
        <time>2019-07-16T08:37:12Z</time>
      </trkpt>
      <trkpt lat="48.29313" lon="-1.83675">
        <ele>73</ele>
        <time>2019-07-16T08:37:13Z</time>
      </trkpt>
      <trkpt lat="48.29312" lon="-1.83672">
        <ele>72.9</ele>
        <time>2019-07-16T08:37:14Z</time>
      </trkpt>
      <trkpt lat="48.2931" lon="-1.8367">
        <ele>72.9</ele>
        <time>2019-07-16T08:37:15Z</time>
      </trkpt>
      <trkpt lat="48.29308" lon="-1.83668">
        <ele>72.6</ele>
        <time>2019-07-16T08:37:16Z</time>
      </trkpt>
      <trkpt lat="48.29307" lon="-1.83665">
        <ele>72.2</ele>
        <time>2019-07-16T08:37:17Z</time>
      </trkpt>
      <trkpt lat="48.29306" lon="-1.83663">
        <ele>71.9</ele>
        <time>2019-07-16T08:37:18Z</time>
      </trkpt>
      <trkpt lat="48.29304" lon="-1.83661">
        <ele>71.5</ele>
        <time>2019-07-16T08:37:19Z</time>
      </trkpt>
      <trkpt lat="48.29303" lon="-1.83659">
        <ele>71.7</ele>
        <time>2019-07-16T08:37:20Z</time>
      </trkpt>
      <trkpt lat="48.29301" lon="-1.83656">
        <ele>71.8</ele>
        <time>2019-07-16T08:37:21Z</time>
      </trkpt>
      <trkpt lat="48.29301" lon="-1.83653">
        <ele>71.7</ele>
        <time>2019-07-16T08:37:22Z</time>
      </trkpt>
      <trkpt lat="48.29299" lon="-1.83651">
        <ele>72</ele>
        <time>2019-07-16T08:37:23Z</time>
      </trkpt>
      <trkpt lat="48.29297" lon="-1.83649">
        <ele>72.2</ele>
        <time>2019-07-16T08:37:24Z</time>
      </trkpt>
      <trkpt lat="48.29295" lon="-1.83647">
        <ele>72</ele>
        <time>2019-07-16T08:37:25Z</time>
      </trkpt>
      <trkpt lat="48.29293" lon="-1.83645">
        <ele>71.8</ele>
        <time>2019-07-16T08:37:26Z</time>
      </trkpt>
      <trkpt lat="48.29292" lon="-1.83643">
        <ele>71.6</ele>
        <time>2019-07-16T08:37:27Z</time>
      </trkpt>
      <trkpt lat="48.2929" lon="-1.83641">
        <ele>72.1</ele>
        <time>2019-07-16T08:37:28Z</time>
      </trkpt>
      <trkpt lat="48.29288" lon="-1.83639">
        <ele>72.3</ele>
        <time>2019-07-16T08:37:29Z</time>
      </trkpt>
      <trkpt lat="48.29287" lon="-1.83636">
        <ele>72.3</ele>
        <time>2019-07-16T08:37:30Z</time>
      </trkpt>
      <trkpt lat="48.29286" lon="-1.83633">
        <ele>72.9</ele>
        <time>2019-07-16T08:37:31Z</time>
      </trkpt>
      <trkpt lat="48.29285" lon="-1.83631">
        <ele>73.7</ele>
        <time>2019-07-16T08:37:32Z</time>
      </trkpt>
      <trkpt lat="48.29283" lon="-1.8363">
        <ele>75.1</ele>
        <time>2019-07-16T08:37:33Z</time>
      </trkpt>
      <trkpt lat="48.29282" lon="-1.8363">
        <ele>78</ele>
        <time>2019-07-16T08:37:34Z</time>
      </trkpt>
      <trkpt lat="48.29281" lon="-1.83628">
        <ele>78.7</ele>
        <time>2019-07-16T08:37:35Z</time>
      </trkpt>
      <trkpt lat="48.29281" lon="-1.83626">
        <ele>79.5</ele>
        <time>2019-07-16T08:37:36Z</time>
      </trkpt>
      <trkpt lat="48.29279" lon="-1.83624">
        <ele>80.3</ele>
        <time>2019-07-16T08:37:37Z</time>
      </trkpt>
      <trkpt lat="48.29278" lon="-1.83623">
        <ele>81.2</ele>
        <time>2019-07-16T08:37:38Z</time>
      </trkpt>
      <trkpt lat="48.29276" lon="-1.83621">
        <ele>81.6</ele>
        <time>2019-07-16T08:37:39Z</time>
      </trkpt>
      <trkpt lat="48.29275" lon="-1.83619">
        <ele>82</ele>
        <time>2019-07-16T08:37:40Z</time>
      </trkpt>
      <trkpt lat="48.29274" lon="-1.83616">
        <ele>82.5</ele>
        <time>2019-07-16T08:37:41Z</time>
      </trkpt>
      <trkpt lat="48.29273" lon="-1.83614">
        <ele>82.8</ele>
        <time>2019-07-16T08:37:42Z</time>
      </trkpt>
      <trkpt lat="48.29272" lon="-1.83612">
        <ele>83.1</ele>
        <time>2019-07-16T08:37:43Z</time>
      </trkpt>
      <trkpt lat="48.29271" lon="-1.8361">
        <ele>83.5</ele>
        <time>2019-07-16T08:37:44Z</time>
      </trkpt>
      <trkpt lat="48.2927" lon="-1.83608">
        <ele>83.8</ele>
        <time>2019-07-16T08:37:45Z</time>
      </trkpt>
      <trkpt lat="48.29269" lon="-1.83606">
        <ele>83.9</ele>
        <time>2019-07-16T08:37:46Z</time>
      </trkpt>
      <trkpt lat="48.29268" lon="-1.83603">
        <ele>83.8</ele>
        <time>2019-07-16T08:37:47Z</time>
      </trkpt>
      <trkpt lat="48.29266" lon="-1.83601">
        <ele>83.9</ele>
        <time>2019-07-16T08:37:48Z</time>
      </trkpt>
      <trkpt lat="48.29265" lon="-1.83598">
        <ele>84</ele>
        <time>2019-07-16T08:37:49Z</time>
      </trkpt>
      <trkpt lat="48.29264" lon="-1.83596">
        <ele>84.1</ele>
        <time>2019-07-16T08:37:50Z</time>
      </trkpt>
      <trkpt lat="48.29263" lon="-1.83594">
        <ele>84</ele>
        <time>2019-07-16T08:37:51Z</time>
      </trkpt>
      <trkpt lat="48.29262" lon="-1.83591">
        <ele>84.2</ele>
        <time>2019-07-16T08:37:52Z</time>
      </trkpt>
      <trkpt lat="48.29261" lon="-1.83589">
        <ele>84.6</ele>
        <time>2019-07-16T08:37:53Z</time>
      </trkpt>
      <trkpt lat="48.29261" lon="-1.83587">
        <ele>85.3</ele>
        <time>2019-07-16T08:37:54Z</time>
      </trkpt>
      <trkpt lat="48.29262" lon="-1.83587">
        <ele>88</ele>
        <time>2019-07-16T08:37:55Z</time>
      </trkpt>
      <trkpt lat="48.29263" lon="-1.83585">
        <ele>89.7</ele>
        <time>2019-07-16T08:37:56Z</time>
      </trkpt>
      <trkpt lat="48.29262" lon="-1.83584">
        <ele>90.9</ele>
        <time>2019-07-16T08:37:57Z</time>
      </trkpt>
      <trkpt lat="48.2926" lon="-1.83582">
        <ele>90.9</ele>
        <time>2019-07-16T08:37:58Z</time>
      </trkpt>
      <trkpt lat="48.29259" lon="-1.8358">
        <ele>91.6</ele>
        <time>2019-07-16T08:37:59Z</time>
      </trkpt>
      <trkpt lat="48.29258" lon="-1.83577">
        <ele>92.2</ele>
        <time>2019-07-16T08:38:00Z</time>
      </trkpt>
      <trkpt lat="48.29256" lon="-1.83575">
        <ele>92.4</ele>
        <time>2019-07-16T08:38:01Z</time>
      </trkpt>
      <trkpt lat="48.29254" lon="-1.83573">
        <ele>92.4</ele>
        <time>2019-07-16T08:38:02Z</time>
      </trkpt>
      <trkpt lat="48.29252" lon="-1.83571">
        <ele>92.4</ele>
        <time>2019-07-16T08:38:03Z</time>
      </trkpt>
      <trkpt lat="48.2925" lon="-1.83569">
        <ele>92.2</ele>
        <time>2019-07-16T08:38:04Z</time>
      </trkpt>
      <trkpt lat="48.29248" lon="-1.83567">
        <ele>92.1</ele>
        <time>2019-07-16T08:38:05Z</time>
      </trkpt>
      <trkpt lat="48.29246" lon="-1.83566">
        <ele>91.8</ele>
        <time>2019-07-16T08:38:06Z</time>
      </trkpt>
      <trkpt lat="48.29244" lon="-1.83565">
        <ele>91.4</ele>
        <time>2019-07-16T08:38:07Z</time>
      </trkpt>
      <trkpt lat="48.29242" lon="-1.83564">
        <ele>90.6</ele>
        <time>2019-07-16T08:38:08Z</time>
      </trkpt>
      <trkpt lat="48.2924" lon="-1.83563">
        <ele>89.7</ele>
        <time>2019-07-16T08:38:09Z</time>
      </trkpt>
      <trkpt lat="48.29238" lon="-1.83562">
        <ele>88.9</ele>
        <time>2019-07-16T08:38:10Z</time>
      </trkpt>
      <trkpt lat="48.29235" lon="-1.83562">
        <ele>88.9</ele>
        <time>2019-07-16T08:38:11Z</time>
      </trkpt>
      <trkpt lat="48.29233" lon="-1.83563">
        <ele>88.8</ele>
        <time>2019-07-16T08:38:12Z</time>
      </trkpt>
      <trkpt lat="48.29231" lon="-1.83563">
        <ele>88.2</ele>
        <time>2019-07-16T08:38:13Z</time>
      </trkpt>
      <trkpt lat="48.29228" lon="-1.83565">
        <ele>88.2</ele>
        <time>2019-07-16T08:38:14Z</time>
      </trkpt>
      <trkpt lat="48.29226" lon="-1.83566">
        <ele>88.4</ele>
        <time>2019-07-16T08:38:15Z</time>
      </trkpt>
      <trkpt lat="48.29224" lon="-1.83568">
        <ele>88.8</ele>
        <time>2019-07-16T08:38:16Z</time>
      </trkpt>
      <trkpt lat="48.29223" lon="-1.8357">
        <ele>89.2</ele>
        <time>2019-07-16T08:38:17Z</time>
      </trkpt>
      <trkpt lat="48.29222" lon="-1.83572">
        <ele>89.5</ele>
        <time>2019-07-16T08:38:18Z</time>
      </trkpt>
      <trkpt lat="48.2922" lon="-1.83575">
        <ele>89.6</ele>
        <time>2019-07-16T08:38:19Z</time>
      </trkpt>
      <trkpt lat="48.29219" lon="-1.83578">
        <ele>89.9</ele>
        <time>2019-07-16T08:38:20Z</time>
      </trkpt>
      <trkpt lat="48.29218" lon="-1.83581">
        <ele>90.6</ele>
        <time>2019-07-16T08:38:21Z</time>
      </trkpt>
      <trkpt lat="48.29216" lon="-1.83583">
        <ele>90.8</ele>
        <time>2019-07-16T08:38:22Z</time>
      </trkpt>
      <trkpt lat="48.29216" lon="-1.83586">
        <ele>91.5</ele>
        <time>2019-07-16T08:38:23Z</time>
      </trkpt>
      <trkpt lat="48.29215" lon="-1.83589">
        <ele>92.1</ele>
        <time>2019-07-16T08:38:24Z</time>
      </trkpt>
      <trkpt lat="48.29214" lon="-1.83591">
        <ele>92.4</ele>
        <time>2019-07-16T08:38:25Z</time>
      </trkpt>
      <trkpt lat="48.29214" lon="-1.83595">
        <ele>92.6</ele>
        <time>2019-07-16T08:38:26Z</time>
      </trkpt>
      <trkpt lat="48.29213" lon="-1.83598">
        <ele>93.2</ele>
        <time>2019-07-16T08:38:27Z</time>
      </trkpt>
      <trkpt lat="48.29213" lon="-1.83602">
        <ele>93.3</ele>
        <time>2019-07-16T08:38:28Z</time>
      </trkpt>
      <trkpt lat="48.29213" lon="-1.83605">
        <ele>93.3</ele>
        <time>2019-07-16T08:38:29Z</time>
      </trkpt>
      <trkpt lat="48.29212" lon="-1.83607">
        <ele>93.9</ele>
        <time>2019-07-16T08:38:30Z</time>
      </trkpt>
      <trkpt lat="48.29211" lon="-1.8361">
        <ele>94.3</ele>
        <time>2019-07-16T08:38:31Z</time>
      </trkpt>
      <trkpt lat="48.29211" lon="-1.83612">
        <ele>94.9</ele>
        <time>2019-07-16T08:38:32Z</time>
      </trkpt>
      <trkpt lat="48.2921" lon="-1.83615">
        <ele>95.9</ele>
        <time>2019-07-16T08:38:33Z</time>
      </trkpt>
      <trkpt lat="48.2921" lon="-1.83618">
        <ele>96.5</ele>
        <time>2019-07-16T08:38:34Z</time>
      </trkpt>
      <trkpt lat="48.29209" lon="-1.8362">
        <ele>96.8</ele>
        <time>2019-07-16T08:38:35Z</time>
      </trkpt>
      <trkpt lat="48.29208" lon="-1.83622">
        <ele>96.8</ele>
        <time>2019-07-16T08:38:36Z</time>
      </trkpt>
      <trkpt lat="48.29208" lon="-1.83625">
        <ele>96.3</ele>
        <time>2019-07-16T08:38:37Z</time>
      </trkpt>
      <trkpt lat="48.29208" lon="-1.83628">
        <ele>96.5</ele>
        <time>2019-07-16T08:38:38Z</time>
      </trkpt>
      <trkpt lat="48.29207" lon="-1.83631">
        <ele>96.6</ele>
        <time>2019-07-16T08:38:39Z</time>
      </trkpt>
      <trkpt lat="48.29206" lon="-1.83633">
        <ele>96.9</ele>
        <time>2019-07-16T08:38:40Z</time>
      </trkpt>
      <trkpt lat="48.29205" lon="-1.83635">
        <ele>97</ele>
        <time>2019-07-16T08:38:41Z</time>
      </trkpt>
      <trkpt lat="48.29204" lon="-1.83638">
        <ele>97.3</ele>
        <time>2019-07-16T08:38:42Z</time>
      </trkpt>
      <trkpt lat="48.29203" lon="-1.83641">
        <ele>97.4</ele>
        <time>2019-07-16T08:38:43Z</time>
      </trkpt>
      <trkpt lat="48.29203" lon="-1.83643">
        <ele>97.5</ele>
        <time>2019-07-16T08:38:44Z</time>
      </trkpt>
      <trkpt lat="48.29202" lon="-1.83646">
        <ele>97.9</ele>
        <time>2019-07-16T08:38:45Z</time>
      </trkpt>
      <trkpt lat="48.29202" lon="-1.83649">
        <ele>97.9</ele>
        <time>2019-07-16T08:38:46Z</time>
      </trkpt>
      <trkpt lat="48.292" lon="-1.83651">
        <ele>98.4</ele>
        <time>2019-07-16T08:38:47Z</time>
      </trkpt>
      <trkpt lat="48.292" lon="-1.83654">
        <ele>98.6</ele>
        <time>2019-07-16T08:38:48Z</time>
      </trkpt>
      <trkpt lat="48.29199" lon="-1.83657">
        <ele>98.7</ele>
        <time>2019-07-16T08:38:49Z</time>
      </trkpt>
      <trkpt lat="48.29199" lon="-1.8366">
        <ele>98.9</ele>
        <time>2019-07-16T08:38:50Z</time>
      </trkpt>
      <trkpt lat="48.29199" lon="-1.83663">
        <ele>98.8</ele>
        <time>2019-07-16T08:38:51Z</time>
      </trkpt>
      <trkpt lat="48.29198" lon="-1.83666">
        <ele>98.8</ele>
        <time>2019-07-16T08:38:52Z</time>
      </trkpt>
      <trkpt lat="48.29198" lon="-1.83668">
        <ele>99.7</ele>
        <time>2019-07-16T08:38:53Z</time>
      </trkpt>
      <trkpt lat="48.29198" lon="-1.83671">
        <ele>99.8</ele>
        <time>2019-07-16T08:38:54Z</time>
      </trkpt>
      <trkpt lat="48.29197" lon="-1.83673">
        <ele>99.8</ele>
        <time>2019-07-16T08:38:55Z</time>
      </trkpt>
      <trkpt lat="48.29197" lon="-1.83675">
        <ele>99.9</ele>
        <time>2019-07-16T08:38:56Z</time>
      </trkpt>
      <trkpt lat="48.29197" lon="-1.83678">
        <ele>100.2</ele>
        <time>2019-07-16T08:38:57Z</time>
      </trkpt>
      <trkpt lat="48.29196" lon="-1.8368">
        <ele>100.3</ele>
        <time>2019-07-16T08:38:58Z</time>
      </trkpt>
      <trkpt lat="48.29195" lon="-1.83683">
        <ele>100.8</ele>
        <time>2019-07-16T08:38:59Z</time>
      </trkpt>
      <trkpt lat="48.29195" lon="-1.83686">
        <ele>101.3</ele>
        <time>2019-07-16T08:39:00Z</time>
      </trkpt>
      <trkpt lat="48.29195" lon="-1.83688">
        <ele>101.8</ele>
        <time>2019-07-16T08:39:01Z</time>
      </trkpt>
      <trkpt lat="48.29195" lon="-1.8369">
        <ele>102.3</ele>
        <time>2019-07-16T08:39:02Z</time>
      </trkpt>
      <trkpt lat="48.29194" lon="-1.83692">
        <ele>102.5</ele>
        <time>2019-07-16T08:39:03Z</time>
      </trkpt>
      <trkpt lat="48.29193" lon="-1.83694">
        <ele>102.8</ele>
        <time>2019-07-16T08:39:04Z</time>
      </trkpt>
      <trkpt lat="48.29192" lon="-1.83696">
        <ele>103.2</ele>
        <time>2019-07-16T08:39:05Z</time>
      </trkpt>
      <trkpt lat="48.29192" lon="-1.83699">
        <ele>103.5</ele>
        <time>2019-07-16T08:39:06Z</time>
      </trkpt>
      <trkpt lat="48.29191" lon="-1.83702">
        <ele>103.7</ele>
        <time>2019-07-16T08:39:07Z</time>
      </trkpt>
      <trkpt lat="48.29191" lon="-1.83704">
        <ele>104.1</ele>
        <time>2019-07-16T08:39:08Z</time>
      </trkpt>
      <trkpt lat="48.2919" lon="-1.83706">
        <ele>104.5</ele>
        <time>2019-07-16T08:39:09Z</time>
      </trkpt>
      <trkpt lat="48.29189" lon="-1.83708">
        <ele>104.8</ele>
        <time>2019-07-16T08:39:10Z</time>
      </trkpt>
      <trkpt lat="48.29188" lon="-1.83711">
        <ele>105.3</ele>
        <time>2019-07-16T08:39:11Z</time>
      </trkpt>
      <trkpt lat="48.29188" lon="-1.83714">
        <ele>105.6</ele>
        <time>2019-07-16T08:39:12Z</time>
      </trkpt>
      <trkpt lat="48.29188" lon="-1.83716">
        <ele>105.7</ele>
        <time>2019-07-16T08:39:13Z</time>
      </trkpt>
      <trkpt lat="48.29187" lon="-1.83719">
        <ele>106.2</ele>
        <time>2019-07-16T08:39:14Z</time>
      </trkpt>
      <trkpt lat="48.29187" lon="-1.83722">
        <ele>106.6</ele>
        <time>2019-07-16T08:39:15Z</time>
      </trkpt>
      <trkpt lat="48.29187" lon="-1.83724">
        <ele>106.9</ele>
        <time>2019-07-16T08:39:16Z</time>
      </trkpt>
      <trkpt lat="48.29187" lon="-1.83727">
        <ele>107.5</ele>
        <time>2019-07-16T08:39:17Z</time>
      </trkpt>
      <trkpt lat="48.29186" lon="-1.8373">
        <ele>107.9</ele>
        <time>2019-07-16T08:39:18Z</time>
      </trkpt>
      <trkpt lat="48.29184" lon="-1.83734">
        <ele>106.4</ele>
        <time>2019-07-16T08:39:19Z</time>
      </trkpt>
      <trkpt lat="48.29184" lon="-1.83737">
        <ele>106.1</ele>
        <time>2019-07-16T08:39:20Z</time>
      </trkpt>
      <trkpt lat="48.29183" lon="-1.8374">
        <ele>105.4</ele>
        <time>2019-07-16T08:39:21Z</time>
      </trkpt>
      <trkpt lat="48.29182" lon="-1.83743">
        <ele>105.4</ele>
        <time>2019-07-16T08:39:22Z</time>
      </trkpt>
      <trkpt lat="48.29181" lon="-1.83745">
        <ele>105.4</ele>
        <time>2019-07-16T08:39:23Z</time>
      </trkpt>
      <trkpt lat="48.2918" lon="-1.83748">
        <ele>104.9</ele>
        <time>2019-07-16T08:39:24Z</time>
      </trkpt>
      <trkpt lat="48.29179" lon="-1.83751">
        <ele>104.8</ele>
        <time>2019-07-16T08:39:25Z</time>
      </trkpt>
      <trkpt lat="48.29179" lon="-1.83753">
        <ele>104.8</ele>
        <time>2019-07-16T08:39:26Z</time>
      </trkpt>
      <trkpt lat="48.29178" lon="-1.83756">
        <ele>104.7</ele>
        <time>2019-07-16T08:39:27Z</time>
      </trkpt>
      <trkpt lat="48.29178" lon="-1.83758">
        <ele>104.6</ele>
        <time>2019-07-16T08:39:28Z</time>
      </trkpt>
      <trkpt lat="48.29177" lon="-1.8376">
        <ele>104.5</ele>
        <time>2019-07-16T08:39:29Z</time>
      </trkpt>
      <trkpt lat="48.29176" lon="-1.83763">
        <ele>104.3</ele>
        <time>2019-07-16T08:39:30Z</time>
      </trkpt>
      <trkpt lat="48.29175" lon="-1.83765">
        <ele>104.4</ele>
        <time>2019-07-16T08:39:31Z</time>
      </trkpt>
      <trkpt lat="48.29175" lon="-1.83767">
        <ele>104.7</ele>
        <time>2019-07-16T08:39:32Z</time>
      </trkpt>
      <trkpt lat="48.29174" lon="-1.8377">
        <ele>104.7</ele>
        <time>2019-07-16T08:39:33Z</time>
      </trkpt>
      <trkpt lat="48.29173" lon="-1.83773">
        <ele>104.8</ele>
        <time>2019-07-16T08:39:34Z</time>
      </trkpt>
      <trkpt lat="48.29173" lon="-1.83775">
        <ele>104.9</ele>
        <time>2019-07-16T08:39:35Z</time>
      </trkpt>
      <trkpt lat="48.29172" lon="-1.83777">
        <ele>105.1</ele>
        <time>2019-07-16T08:39:36Z</time>
      </trkpt>
      <trkpt lat="48.29171" lon="-1.8378">
        <ele>105.2</ele>
        <time>2019-07-16T08:39:37Z</time>
      </trkpt>
      <trkpt lat="48.29171" lon="-1.83782">
        <ele>105.1</ele>
        <time>2019-07-16T08:39:38Z</time>
      </trkpt>
      <trkpt lat="48.2917" lon="-1.83785">
        <ele>105.2</ele>
        <time>2019-07-16T08:39:39Z</time>
      </trkpt>
      <trkpt lat="48.29169" lon="-1.83787">
        <ele>105.2</ele>
        <time>2019-07-16T08:39:40Z</time>
      </trkpt>
      <trkpt lat="48.29168" lon="-1.8379">
        <ele>105.6</ele>
        <time>2019-07-16T08:39:41Z</time>
      </trkpt>
      <trkpt lat="48.29167" lon="-1.83793">
        <ele>105.7</ele>
        <time>2019-07-16T08:39:42Z</time>
      </trkpt>
      <trkpt lat="48.29166" lon="-1.83796">
        <ele>105.8</ele>
        <time>2019-07-16T08:39:43Z</time>
      </trkpt>
      <trkpt lat="48.29166" lon="-1.83798">
        <ele>106</ele>
        <time>2019-07-16T08:39:44Z</time>
      </trkpt>
      <trkpt lat="48.29165" lon="-1.83801">
        <ele>106.2</ele>
        <time>2019-07-16T08:39:45Z</time>
      </trkpt>
      <trkpt lat="48.29164" lon="-1.83803">
        <ele>106.1</ele>
        <time>2019-07-16T08:39:46Z</time>
      </trkpt>
      <trkpt lat="48.29163" lon="-1.83806">
        <ele>105.8</ele>
        <time>2019-07-16T08:39:47Z</time>
      </trkpt>
      <trkpt lat="48.29162" lon="-1.83809">
        <ele>105.3</ele>
        <time>2019-07-16T08:39:48Z</time>
      </trkpt>
      <trkpt lat="48.2916" lon="-1.83812">
        <ele>104.7</ele>
        <time>2019-07-16T08:39:49Z</time>
      </trkpt>
      <trkpt lat="48.2916" lon="-1.83815">
        <ele>104.7</ele>
        <time>2019-07-16T08:39:50Z</time>
      </trkpt>
      <trkpt lat="48.29159" lon="-1.83817">
        <ele>104.6</ele>
        <time>2019-07-16T08:39:51Z</time>
      </trkpt>
      <trkpt lat="48.29158" lon="-1.83819">
        <ele>104.4</ele>
        <time>2019-07-16T08:39:52Z</time>
      </trkpt>
      <trkpt lat="48.29157" lon="-1.83822">
        <ele>104.5</ele>
        <time>2019-07-16T08:39:53Z</time>
      </trkpt>
      <trkpt lat="48.29157" lon="-1.83824">
        <ele>104.7</ele>
        <time>2019-07-16T08:39:54Z</time>
      </trkpt>
      <trkpt lat="48.29156" lon="-1.83827">
        <ele>104.7</ele>
        <time>2019-07-16T08:39:55Z</time>
      </trkpt>
      <trkpt lat="48.29156" lon="-1.83829">
        <ele>104.8</ele>
        <time>2019-07-16T08:39:56Z</time>
      </trkpt>
      <trkpt lat="48.29155" lon="-1.83832">
        <ele>105.1</ele>
        <time>2019-07-16T08:39:57Z</time>
      </trkpt>
      <trkpt lat="48.29154" lon="-1.83835">
        <ele>105.1</ele>
        <time>2019-07-16T08:39:58Z</time>
      </trkpt>
      <trkpt lat="48.29153" lon="-1.83837">
        <ele>104.8</ele>
        <time>2019-07-16T08:39:59Z</time>
      </trkpt>
      <trkpt lat="48.29153" lon="-1.8384">
        <ele>104.7</ele>
        <time>2019-07-16T08:40:00Z</time>
      </trkpt>
      <trkpt lat="48.29152" lon="-1.83843">
        <ele>104.5</ele>
        <time>2019-07-16T08:40:01Z</time>
      </trkpt>
      <trkpt lat="48.2915" lon="-1.83846">
        <ele>104.3</ele>
        <time>2019-07-16T08:40:02Z</time>
      </trkpt>
      <trkpt lat="48.29149" lon="-1.83849">
        <ele>103.8</ele>
        <time>2019-07-16T08:40:03Z</time>
      </trkpt>
      <trkpt lat="48.29149" lon="-1.83853">
        <ele>103.7</ele>
        <time>2019-07-16T08:40:04Z</time>
      </trkpt>
      <trkpt lat="48.29147" lon="-1.83855">
        <ele>103.6</ele>
        <time>2019-07-16T08:40:05Z</time>
      </trkpt>
      <trkpt lat="48.29147" lon="-1.83858">
        <ele>103.7</ele>
        <time>2019-07-16T08:40:06Z</time>
      </trkpt>
      <trkpt lat="48.29145" lon="-1.83861">
        <ele>103.9</ele>
        <time>2019-07-16T08:40:07Z</time>
      </trkpt>
      <trkpt lat="48.29145" lon="-1.83863">
        <ele>104</ele>
        <time>2019-07-16T08:40:08Z</time>
      </trkpt>
      <trkpt lat="48.29144" lon="-1.83866">
        <ele>104.4</ele>
        <time>2019-07-16T08:40:09Z</time>
      </trkpt>
      <trkpt lat="48.29143" lon="-1.83868">
        <ele>104.6</ele>
        <time>2019-07-16T08:40:10Z</time>
      </trkpt>
      <trkpt lat="48.29142" lon="-1.8387">
        <ele>105.2</ele>
        <time>2019-07-16T08:40:11Z</time>
      </trkpt>
      <trkpt lat="48.29141" lon="-1.83873">
        <ele>105.4</ele>
        <time>2019-07-16T08:40:12Z</time>
      </trkpt>
      <trkpt lat="48.29141" lon="-1.83876">
        <ele>105.9</ele>
        <time>2019-07-16T08:40:13Z</time>
      </trkpt>
      <trkpt lat="48.2914" lon="-1.83879">
        <ele>106.2</ele>
        <time>2019-07-16T08:40:14Z</time>
      </trkpt>
      <trkpt lat="48.29139" lon="-1.83882">
        <ele>106.6</ele>
        <time>2019-07-16T08:40:15Z</time>
      </trkpt>
      <trkpt lat="48.29139" lon="-1.83884">
        <ele>107.1</ele>
        <time>2019-07-16T08:40:16Z</time>
      </trkpt>
      <trkpt lat="48.29138" lon="-1.83886">
        <ele>107.3</ele>
        <time>2019-07-16T08:40:17Z</time>
      </trkpt>
      <trkpt lat="48.29137" lon="-1.83889">
        <ele>108.2</ele>
        <time>2019-07-16T08:40:18Z</time>
      </trkpt>
      <trkpt lat="48.29137" lon="-1.83891">
        <ele>108.6</ele>
        <time>2019-07-16T08:40:19Z</time>
      </trkpt>
      <trkpt lat="48.29136" lon="-1.83893">
        <ele>108.8</ele>
        <time>2019-07-16T08:40:20Z</time>
      </trkpt>
      <trkpt lat="48.29135" lon="-1.83895">
        <ele>109</ele>
        <time>2019-07-16T08:40:21Z</time>
      </trkpt>
      <trkpt lat="48.29134" lon="-1.83897">
        <ele>109.3</ele>
        <time>2019-07-16T08:40:22Z</time>
      </trkpt>
      <trkpt lat="48.29132" lon="-1.83899">
        <ele>109.3</ele>
        <time>2019-07-16T08:40:23Z</time>
      </trkpt>
      <trkpt lat="48.29131" lon="-1.83902">
        <ele>109.3</ele>
        <time>2019-07-16T08:40:24Z</time>
      </trkpt>
      <trkpt lat="48.2913" lon="-1.83905">
        <ele>108.9</ele>
        <time>2019-07-16T08:40:25Z</time>
      </trkpt>
      <trkpt lat="48.29129" lon="-1.83907">
        <ele>108.6</ele>
        <time>2019-07-16T08:40:26Z</time>
      </trkpt>
      <trkpt lat="48.29128" lon="-1.83909">
        <ele>108.9</ele>
        <time>2019-07-16T08:40:27Z</time>
      </trkpt>
      <trkpt lat="48.29127" lon="-1.83911">
        <ele>109.1</ele>
        <time>2019-07-16T08:40:28Z</time>
      </trkpt>
      <trkpt lat="48.29126" lon="-1.83914">
        <ele>109.6</ele>
        <time>2019-07-16T08:40:29Z</time>
      </trkpt>
      <trkpt lat="48.29126" lon="-1.83915">
        <ele>109.8</ele>
        <time>2019-07-16T08:40:30Z</time>
      </trkpt>
      <trkpt lat="48.29125" lon="-1.83917">
        <ele>110.3</ele>
        <time>2019-07-16T08:40:31Z</time>
      </trkpt>
      <trkpt lat="48.29124" lon="-1.83919">
        <ele>110.4</ele>
        <time>2019-07-16T08:40:32Z</time>
      </trkpt>
      <trkpt lat="48.29123" lon="-1.83921">
        <ele>111</ele>
        <time>2019-07-16T08:40:33Z</time>
      </trkpt>
      <trkpt lat="48.29122" lon="-1.83923">
        <ele>111.5</ele>
        <time>2019-07-16T08:40:34Z</time>
      </trkpt>
      <trkpt lat="48.29121" lon="-1.83926">
        <ele>112</ele>
        <time>2019-07-16T08:40:35Z</time>
      </trkpt>
      <trkpt lat="48.29121" lon="-1.83929">
        <ele>112.3</ele>
        <time>2019-07-16T08:40:36Z</time>
      </trkpt>
      <trkpt lat="48.2912" lon="-1.83932">
        <ele>112.5</ele>
        <time>2019-07-16T08:40:37Z</time>
      </trkpt>
      <trkpt lat="48.29119" lon="-1.83935">
        <ele>112.8</ele>
        <time>2019-07-16T08:40:38Z</time>
      </trkpt>
      <trkpt lat="48.29118" lon="-1.83937">
        <ele>113.2</ele>
        <time>2019-07-16T08:40:39Z</time>
      </trkpt>
      <trkpt lat="48.29118" lon="-1.8394">
        <ele>113.4</ele>
        <time>2019-07-16T08:40:40Z</time>
      </trkpt>
      <trkpt lat="48.29116" lon="-1.83942">
        <ele>113.6</ele>
        <time>2019-07-16T08:40:41Z</time>
      </trkpt>
      <trkpt lat="48.29115" lon="-1.83944">
        <ele>113.9</ele>
        <time>2019-07-16T08:40:42Z</time>
      </trkpt>
      <trkpt lat="48.29114" lon="-1.83946">
        <ele>114.2</ele>
        <time>2019-07-16T08:40:43Z</time>
      </trkpt>
      <trkpt lat="48.29113" lon="-1.83949">
        <ele>114.4</ele>
        <time>2019-07-16T08:40:44Z</time>
      </trkpt>
      <trkpt lat="48.29112" lon="-1.83951">
        <ele>114.5</ele>
        <time>2019-07-16T08:40:45Z</time>
      </trkpt>
      <trkpt lat="48.2911" lon="-1.83953">
        <ele>114.5</ele>
        <time>2019-07-16T08:40:46Z</time>
      </trkpt>
      <trkpt lat="48.29109" lon="-1.83956">
        <ele>114.7</ele>
        <time>2019-07-16T08:40:47Z</time>
      </trkpt>
      <trkpt lat="48.29108" lon="-1.83958">
        <ele>114.7</ele>
        <time>2019-07-16T08:40:48Z</time>
      </trkpt>
      <trkpt lat="48.29107" lon="-1.8396">
        <ele>114.3</ele>
        <time>2019-07-16T08:40:49Z</time>
      </trkpt>
      <trkpt lat="48.29106" lon="-1.83963">
        <ele>114.3</ele>
        <time>2019-07-16T08:40:50Z</time>
      </trkpt>
      <trkpt lat="48.29105" lon="-1.83966">
        <ele>114</ele>
        <time>2019-07-16T08:40:51Z</time>
      </trkpt>
      <trkpt lat="48.29104" lon="-1.83969">
        <ele>113.9</ele>
        <time>2019-07-16T08:40:52Z</time>
      </trkpt>
      <trkpt lat="48.29104" lon="-1.83972">
        <ele>114.1</ele>
        <time>2019-07-16T08:40:53Z</time>
      </trkpt>
      <trkpt lat="48.29103" lon="-1.83974">
        <ele>113.9</ele>
        <time>2019-07-16T08:40:54Z</time>
      </trkpt>
      <trkpt lat="48.29102" lon="-1.83977">
        <ele>113.9</ele>
        <time>2019-07-16T08:40:55Z</time>
      </trkpt>
      <trkpt lat="48.291" lon="-1.83979">
        <ele>113.9</ele>
        <time>2019-07-16T08:40:56Z</time>
      </trkpt>
      <trkpt lat="48.291" lon="-1.83981">
        <ele>113.9</ele>
        <time>2019-07-16T08:40:57Z</time>
      </trkpt>
      <trkpt lat="48.29099" lon="-1.83984">
        <ele>114</ele>
        <time>2019-07-16T08:40:58Z</time>
      </trkpt>
      <trkpt lat="48.29097" lon="-1.83986">
        <ele>113.7</ele>
        <time>2019-07-16T08:40:59Z</time>
      </trkpt>
      <trkpt lat="48.29096" lon="-1.83989">
        <ele>113.5</ele>
        <time>2019-07-16T08:41:00Z</time>
      </trkpt>
      <trkpt lat="48.29095" lon="-1.83991">
        <ele>113.3</ele>
        <time>2019-07-16T08:41:01Z</time>
      </trkpt>
      <trkpt lat="48.29094" lon="-1.83993">
        <ele>113.3</ele>
        <time>2019-07-16T08:41:02Z</time>
      </trkpt>
      <trkpt lat="48.29093" lon="-1.83997">
        <ele>113.1</ele>
        <time>2019-07-16T08:41:03Z</time>
      </trkpt>
      <trkpt lat="48.29091" lon="-1.83999">
        <ele>112.9</ele>
        <time>2019-07-16T08:41:04Z</time>
      </trkpt>
      <trkpt lat="48.2909" lon="-1.84002">
        <ele>112.8</ele>
        <time>2019-07-16T08:41:05Z</time>
      </trkpt>
      <trkpt lat="48.29088" lon="-1.84004">
        <ele>112.6</ele>
        <time>2019-07-16T08:41:06Z</time>
      </trkpt>
      <trkpt lat="48.29087" lon="-1.84007">
        <ele>112.5</ele>
        <time>2019-07-16T08:41:07Z</time>
      </trkpt>
      <trkpt lat="48.29085" lon="-1.8401">
        <ele>112.1</ele>
        <time>2019-07-16T08:41:08Z</time>
      </trkpt>
      <trkpt lat="48.29083" lon="-1.84013">
        <ele>111.1</ele>
        <time>2019-07-16T08:41:09Z</time>
      </trkpt>
      <trkpt lat="48.29081" lon="-1.84017">
        <ele>111.2</ele>
        <time>2019-07-16T08:41:10Z</time>
      </trkpt>
      <trkpt lat="48.2908" lon="-1.8402">
        <ele>111.4</ele>
        <time>2019-07-16T08:41:11Z</time>
      </trkpt>
      <trkpt lat="48.29079" lon="-1.84023">
        <ele>111.7</ele>
        <time>2019-07-16T08:41:12Z</time>
      </trkpt>
      <trkpt lat="48.29078" lon="-1.84026">
        <ele>111.7</ele>
        <time>2019-07-16T08:41:13Z</time>
      </trkpt>
      <trkpt lat="48.29076" lon="-1.84029">
        <ele>111.9</ele>
        <time>2019-07-16T08:41:14Z</time>
      </trkpt>
      <trkpt lat="48.29075" lon="-1.84031">
        <ele>112.1</ele>
        <time>2019-07-16T08:41:15Z</time>
      </trkpt>
      <trkpt lat="48.29074" lon="-1.84035">
        <ele>111.9</ele>
        <time>2019-07-16T08:41:16Z</time>
      </trkpt>
      <trkpt lat="48.29073" lon="-1.84037">
        <ele>111.9</ele>
        <time>2019-07-16T08:41:17Z</time>
      </trkpt>
      <trkpt lat="48.29072" lon="-1.84041">
        <ele>112.2</ele>
        <time>2019-07-16T08:41:18Z</time>
      </trkpt>
      <trkpt lat="48.29071" lon="-1.84044">
        <ele>112.4</ele>
        <time>2019-07-16T08:41:19Z</time>
      </trkpt>
      <trkpt lat="48.2907" lon="-1.84047">
        <ele>112.6</ele>
        <time>2019-07-16T08:41:20Z</time>
      </trkpt>
      <trkpt lat="48.29069" lon="-1.8405">
        <ele>112.6</ele>
        <time>2019-07-16T08:41:21Z</time>
      </trkpt>
      <trkpt lat="48.29068" lon="-1.84053">
        <ele>112.7</ele>
        <time>2019-07-16T08:41:22Z</time>
      </trkpt>
      <trkpt lat="48.29067" lon="-1.84056">
        <ele>112.5</ele>
        <time>2019-07-16T08:41:23Z</time>
      </trkpt>
      <trkpt lat="48.29066" lon="-1.84058">
        <ele>112.6</ele>
        <time>2019-07-16T08:41:24Z</time>
      </trkpt>
      <trkpt lat="48.29065" lon="-1.84061">
        <ele>112.7</ele>
        <time>2019-07-16T08:41:25Z</time>
      </trkpt>
      <trkpt lat="48.29063" lon="-1.84064">
        <ele>112.5</ele>
        <time>2019-07-16T08:41:26Z</time>
      </trkpt>
      <trkpt lat="48.29062" lon="-1.84066">
        <ele>112.3</ele>
        <time>2019-07-16T08:41:27Z</time>
      </trkpt>
      <trkpt lat="48.29061" lon="-1.84069">
        <ele>112.4</ele>
        <time>2019-07-16T08:41:28Z</time>
      </trkpt>
      <trkpt lat="48.2906" lon="-1.84072">
        <ele>112.5</ele>
        <time>2019-07-16T08:41:29Z</time>
      </trkpt>
      <trkpt lat="48.29059" lon="-1.84075">
        <ele>112.3</ele>
        <time>2019-07-16T08:41:30Z</time>
      </trkpt>
      <trkpt lat="48.29057" lon="-1.84078">
        <ele>112.5</ele>
        <time>2019-07-16T08:41:31Z</time>
      </trkpt>
      <trkpt lat="48.29056" lon="-1.84082">
        <ele>112.4</ele>
        <time>2019-07-16T08:41:32Z</time>
      </trkpt>
      <trkpt lat="48.29055" lon="-1.84085">
        <ele>112</ele>
        <time>2019-07-16T08:41:33Z</time>
      </trkpt>
      <trkpt lat="48.29054" lon="-1.84089">
        <ele>112.1</ele>
        <time>2019-07-16T08:41:34Z</time>
      </trkpt>
      <trkpt lat="48.29052" lon="-1.84093">
        <ele>111.6</ele>
        <time>2019-07-16T08:41:35Z</time>
      </trkpt>
      <trkpt lat="48.29051" lon="-1.84096">
        <ele>111.7</ele>
        <time>2019-07-16T08:41:36Z</time>
      </trkpt>
      <trkpt lat="48.29049" lon="-1.84099">
        <ele>111.5</ele>
        <time>2019-07-16T08:41:37Z</time>
      </trkpt>
      <trkpt lat="48.29047" lon="-1.84102">
        <ele>112</ele>
        <time>2019-07-16T08:41:38Z</time>
      </trkpt>
      <trkpt lat="48.29046" lon="-1.84106">
        <ele>112.1</ele>
        <time>2019-07-16T08:41:39Z</time>
      </trkpt>
      <trkpt lat="48.29045" lon="-1.84109">
        <ele>112.5</ele>
        <time>2019-07-16T08:41:40Z</time>
      </trkpt>
      <trkpt lat="48.29043" lon="-1.84112">
        <ele>112.5</ele>
        <time>2019-07-16T08:41:41Z</time>
      </trkpt>
      <trkpt lat="48.29041" lon="-1.84115">
        <ele>112.1</ele>
        <time>2019-07-16T08:41:42Z</time>
      </trkpt>
      <trkpt lat="48.29039" lon="-1.84118">
        <ele>111.7</ele>
        <time>2019-07-16T08:41:43Z</time>
      </trkpt>
      <trkpt lat="48.29038" lon="-1.84121">
        <ele>111.6</ele>
        <time>2019-07-16T08:41:44Z</time>
      </trkpt>
      <trkpt lat="48.29036" lon="-1.84124">
        <ele>111.5</ele>
        <time>2019-07-16T08:41:45Z</time>
      </trkpt>
      <trkpt lat="48.29034" lon="-1.84127">
        <ele>112</ele>
        <time>2019-07-16T08:41:46Z</time>
      </trkpt>
      <trkpt lat="48.29032" lon="-1.84131">
        <ele>112.3</ele>
        <time>2019-07-16T08:41:47Z</time>
      </trkpt>
      <trkpt lat="48.2903" lon="-1.84134">
        <ele>112.3</ele>
        <time>2019-07-16T08:41:48Z</time>
      </trkpt>
      <trkpt lat="48.29028" lon="-1.84138">
        <ele>112.4</ele>
        <time>2019-07-16T08:41:49Z</time>
      </trkpt>
      <trkpt lat="48.29025" lon="-1.84141">
        <ele>112.4</ele>
        <time>2019-07-16T08:41:50Z</time>
      </trkpt>
      <trkpt lat="48.29023" lon="-1.84145">
        <ele>112.6</ele>
        <time>2019-07-16T08:41:51Z</time>
      </trkpt>
      <trkpt lat="48.29021" lon="-1.84148">
        <ele>112.9</ele>
        <time>2019-07-16T08:41:52Z</time>
      </trkpt>
      <trkpt lat="48.29018" lon="-1.84151">
        <ele>113.1</ele>
        <time>2019-07-16T08:41:53Z</time>
      </trkpt>
      <trkpt lat="48.29017" lon="-1.84154">
        <ele>113.4</ele>
        <time>2019-07-16T08:41:54Z</time>
      </trkpt>
      <trkpt lat="48.29014" lon="-1.84158">
        <ele>113.6</ele>
        <time>2019-07-16T08:41:55Z</time>
      </trkpt>
      <trkpt lat="48.29012" lon="-1.84161">
        <ele>113.6</ele>
        <time>2019-07-16T08:41:56Z</time>
      </trkpt>
      <trkpt lat="48.2901" lon="-1.84164">
        <ele>114.1</ele>
        <time>2019-07-16T08:41:57Z</time>
      </trkpt>
      <trkpt lat="48.29009" lon="-1.84167">
        <ele>114.7</ele>
        <time>2019-07-16T08:41:58Z</time>
      </trkpt>
      <trkpt lat="48.29007" lon="-1.8417">
        <ele>115.3</ele>
        <time>2019-07-16T08:41:59Z</time>
      </trkpt>
      <trkpt lat="48.29005" lon="-1.84172">
        <ele>115.5</ele>
        <time>2019-07-16T08:42:00Z</time>
      </trkpt>
      <trkpt lat="48.29002" lon="-1.84175">
        <ele>115.8</ele>
        <time>2019-07-16T08:42:01Z</time>
      </trkpt>
      <trkpt lat="48.29001" lon="-1.84177">
        <ele>116.2</ele>
        <time>2019-07-16T08:42:02Z</time>
      </trkpt>
      <trkpt lat="48.28998" lon="-1.84179">
        <ele>116.6</ele>
        <time>2019-07-16T08:42:03Z</time>
      </trkpt>
      <trkpt lat="48.28996" lon="-1.84183">
        <ele>116.5</ele>
        <time>2019-07-16T08:42:04Z</time>
      </trkpt>
      <trkpt lat="48.28994" lon="-1.84186">
        <ele>117</ele>
        <time>2019-07-16T08:42:05Z</time>
      </trkpt>
      <trkpt lat="48.28991" lon="-1.84189">
        <ele>117.5</ele>
        <time>2019-07-16T08:42:06Z</time>
      </trkpt>
      <trkpt lat="48.28989" lon="-1.84192">
        <ele>117.4</ele>
        <time>2019-07-16T08:42:07Z</time>
      </trkpt>
      <trkpt lat="48.28986" lon="-1.84194">
        <ele>117.6</ele>
        <time>2019-07-16T08:42:08Z</time>
      </trkpt>
      <trkpt lat="48.28984" lon="-1.84197">
        <ele>117.8</ele>
        <time>2019-07-16T08:42:09Z</time>
      </trkpt>
      <trkpt lat="48.28982" lon="-1.842">
        <ele>117.8</ele>
        <time>2019-07-16T08:42:10Z</time>
      </trkpt>
      <trkpt lat="48.28979" lon="-1.84202">
        <ele>117.9</ele>
        <time>2019-07-16T08:42:11Z</time>
      </trkpt>
      <trkpt lat="48.28976" lon="-1.84205">
        <ele>118.3</ele>
        <time>2019-07-16T08:42:12Z</time>
      </trkpt>
      <trkpt lat="48.28974" lon="-1.84207">
        <ele>118.2</ele>
        <time>2019-07-16T08:42:13Z</time>
      </trkpt>
      <trkpt lat="48.28972" lon="-1.84209">
        <ele>118.1</ele>
        <time>2019-07-16T08:42:14Z</time>
      </trkpt>
      <trkpt lat="48.28968" lon="-1.84211">
        <ele>118</ele>
        <time>2019-07-16T08:42:15Z</time>
      </trkpt>
      <trkpt lat="48.28966" lon="-1.84213">
        <ele>117.8</ele>
        <time>2019-07-16T08:42:16Z</time>
      </trkpt>
      <trkpt lat="48.28964" lon="-1.84215">
        <ele>117.6</ele>
        <time>2019-07-16T08:42:17Z</time>
      </trkpt>
      <trkpt lat="48.28961" lon="-1.84217">
        <ele>116.9</ele>
        <time>2019-07-16T08:42:18Z</time>
      </trkpt>
      <trkpt lat="48.28959" lon="-1.84219">
        <ele>116</ele>
        <time>2019-07-16T08:42:19Z</time>
      </trkpt>
      <trkpt lat="48.28957" lon="-1.84222">
        <ele>115.3</ele>
        <time>2019-07-16T08:42:20Z</time>
      </trkpt>
      <trkpt lat="48.28955" lon="-1.84224">
        <ele>114.8</ele>
        <time>2019-07-16T08:42:21Z</time>
      </trkpt>
      <trkpt lat="48.28953" lon="-1.84226">
        <ele>114.8</ele>
        <time>2019-07-16T08:42:22Z</time>
      </trkpt>
      <trkpt lat="48.28951" lon="-1.84228">
        <ele>114.4</ele>
        <time>2019-07-16T08:42:23Z</time>
      </trkpt>
      <trkpt lat="48.28949" lon="-1.8423">
        <ele>114.6</ele>
        <time>2019-07-16T08:42:24Z</time>
      </trkpt>
      <trkpt lat="48.28946" lon="-1.84232">
        <ele>114.7</ele>
        <time>2019-07-16T08:42:25Z</time>
      </trkpt>
      <trkpt lat="48.28943" lon="-1.84234">
        <ele>114.9</ele>
        <time>2019-07-16T08:42:26Z</time>
      </trkpt>
      <trkpt lat="48.28941" lon="-1.84236">
        <ele>114.8</ele>
        <time>2019-07-16T08:42:27Z</time>
      </trkpt>
      <trkpt lat="48.28938" lon="-1.84238">
        <ele>115</ele>
        <time>2019-07-16T08:42:28Z</time>
      </trkpt>
      <trkpt lat="48.28935" lon="-1.84239">
        <ele>114.7</ele>
        <time>2019-07-16T08:42:29Z</time>
      </trkpt>
      <trkpt lat="48.28933" lon="-1.84241">
        <ele>114.7</ele>
        <time>2019-07-16T08:42:30Z</time>
      </trkpt>
      <trkpt lat="48.28931" lon="-1.84243">
        <ele>115</ele>
        <time>2019-07-16T08:42:31Z</time>
      </trkpt>
      <trkpt lat="48.28928" lon="-1.84245">
        <ele>114.6</ele>
        <time>2019-07-16T08:42:32Z</time>
      </trkpt>
      <trkpt lat="48.28926" lon="-1.84248">
        <ele>114.8</ele>
        <time>2019-07-16T08:42:33Z</time>
      </trkpt>
      <trkpt lat="48.28923" lon="-1.84249">
        <ele>114.9</ele>
        <time>2019-07-16T08:42:34Z</time>
      </trkpt>
      <trkpt lat="48.28921" lon="-1.84251">
        <ele>115.1</ele>
        <time>2019-07-16T08:42:35Z</time>
      </trkpt>
      <trkpt lat="48.28919" lon="-1.84253">
        <ele>115.5</ele>
        <time>2019-07-16T08:42:36Z</time>
      </trkpt>
      <trkpt lat="48.28915" lon="-1.84254">
        <ele>115.1</ele>
        <time>2019-07-16T08:42:37Z</time>
      </trkpt>
      <trkpt lat="48.28913" lon="-1.84255">
        <ele>115.2</ele>
        <time>2019-07-16T08:42:38Z</time>
      </trkpt>
      <trkpt lat="48.2891" lon="-1.84255">
        <ele>115.2</ele>
        <time>2019-07-16T08:42:39Z</time>
      </trkpt>
      <trkpt lat="48.28907" lon="-1.84256">
        <ele>115</ele>
        <time>2019-07-16T08:42:40Z</time>
      </trkpt>
      <trkpt lat="48.28904" lon="-1.84257">
        <ele>115</ele>
        <time>2019-07-16T08:42:41Z</time>
      </trkpt>
      <trkpt lat="48.28902" lon="-1.84258">
        <ele>114.8</ele>
        <time>2019-07-16T08:42:42Z</time>
      </trkpt>
      <trkpt lat="48.28899" lon="-1.84259">
        <ele>115.1</ele>
        <time>2019-07-16T08:42:43Z</time>
      </trkpt>
      <trkpt lat="48.28897" lon="-1.8426">
        <ele>115.4</ele>
        <time>2019-07-16T08:42:44Z</time>
      </trkpt>
      <trkpt lat="48.28894" lon="-1.8426">
        <ele>116.3</ele>
        <time>2019-07-16T08:42:45Z</time>
      </trkpt>
      <trkpt lat="48.28892" lon="-1.8426">
        <ele>116.1</ele>
        <time>2019-07-16T08:42:46Z</time>
      </trkpt>
      <trkpt lat="48.28889" lon="-1.84261">
        <ele>115.9</ele>
        <time>2019-07-16T08:42:47Z</time>
      </trkpt>
      <trkpt lat="48.28886" lon="-1.84261">
        <ele>115.9</ele>
        <time>2019-07-16T08:42:48Z</time>
      </trkpt>
      <trkpt lat="48.28884" lon="-1.84261">
        <ele>115.7</ele>
        <time>2019-07-16T08:42:49Z</time>
      </trkpt>
      <trkpt lat="48.28881" lon="-1.84261">
        <ele>115.7</ele>
        <time>2019-07-16T08:42:50Z</time>
      </trkpt>
      <trkpt lat="48.28878" lon="-1.84261">
        <ele>115.9</ele>
        <time>2019-07-16T08:42:51Z</time>
      </trkpt>
      <trkpt lat="48.28876" lon="-1.84261">
        <ele>115.7</ele>
        <time>2019-07-16T08:42:52Z</time>
      </trkpt>
      <trkpt lat="48.28874" lon="-1.84262">
        <ele>115.7</ele>
        <time>2019-07-16T08:42:53Z</time>
      </trkpt>
      <trkpt lat="48.28871" lon="-1.84263">
        <ele>116.2</ele>
        <time>2019-07-16T08:42:54Z</time>
      </trkpt>
      <trkpt lat="48.2887" lon="-1.84263">
        <ele>116.1</ele>
        <time>2019-07-16T08:42:55Z</time>
      </trkpt>
      <trkpt lat="48.28868" lon="-1.84262">
        <ele>115.8</ele>
        <time>2019-07-16T08:42:56Z</time>
      </trkpt>
      <trkpt lat="48.28865" lon="-1.84261">
        <ele>115.3</ele>
        <time>2019-07-16T08:42:57Z</time>
      </trkpt>
      <trkpt lat="48.28863" lon="-1.84259">
        <ele>114.8</ele>
        <time>2019-07-16T08:42:58Z</time>
      </trkpt>
      <trkpt lat="48.28861" lon="-1.84259">
        <ele>115</ele>
        <time>2019-07-16T08:42:59Z</time>
      </trkpt>
      <trkpt lat="48.28859" lon="-1.84258">
        <ele>114.5</ele>
        <time>2019-07-16T08:43:00Z</time>
      </trkpt>
      <trkpt lat="48.28857" lon="-1.84258">
        <ele>114.9</ele>
        <time>2019-07-16T08:43:01Z</time>
      </trkpt>
      <trkpt lat="48.28856" lon="-1.84259">
        <ele>115.1</ele>
        <time>2019-07-16T08:43:02Z</time>
      </trkpt>
      <trkpt lat="48.28851" lon="-1.8426">
        <ele>115.6</ele>
        <time>2019-07-16T08:44:58Z</time>
      </trkpt>
      <trkpt lat="48.28849" lon="-1.84262">
        <ele>115.7</ele>
        <time>2019-07-16T08:44:59Z</time>
      </trkpt>
      <trkpt lat="48.28846" lon="-1.84263">
        <ele>115.9</ele>
        <time>2019-07-16T08:45:00Z</time>
      </trkpt>
      <trkpt lat="48.28845" lon="-1.84265">
        <ele>116.1</ele>
        <time>2019-07-16T08:45:01Z</time>
      </trkpt>
      <trkpt lat="48.28842" lon="-1.84266">
        <ele>116.4</ele>
        <time>2019-07-16T08:45:02Z</time>
      </trkpt>
      <trkpt lat="48.2884" lon="-1.84267">
        <ele>116.7</ele>
        <time>2019-07-16T08:45:03Z</time>
      </trkpt>
      <trkpt lat="48.28837" lon="-1.84268">
        <ele>117</ele>
        <time>2019-07-16T08:45:04Z</time>
      </trkpt>
      <trkpt lat="48.28835" lon="-1.84268">
        <ele>117.3</ele>
        <time>2019-07-16T08:45:05Z</time>
      </trkpt>
      <trkpt lat="48.28833" lon="-1.84268">
        <ele>117.6</ele>
        <time>2019-07-16T08:45:06Z</time>
      </trkpt>
      <trkpt lat="48.2883" lon="-1.84269">
        <ele>118.2</ele>
        <time>2019-07-16T08:45:07Z</time>
      </trkpt>
      <trkpt lat="48.28828" lon="-1.84269">
        <ele>118.5</ele>
        <time>2019-07-16T08:45:08Z</time>
      </trkpt>
      <trkpt lat="48.28825" lon="-1.84269">
        <ele>118.7</ele>
        <time>2019-07-16T08:45:09Z</time>
      </trkpt>
      <trkpt lat="48.28823" lon="-1.84269">
        <ele>118.9</ele>
        <time>2019-07-16T08:45:10Z</time>
      </trkpt>
      <trkpt lat="48.2882" lon="-1.8427">
        <ele>118.9</ele>
        <time>2019-07-16T08:45:11Z</time>
      </trkpt>
      <trkpt lat="48.28818" lon="-1.8427">
        <ele>118.6</ele>
        <time>2019-07-16T08:45:12Z</time>
      </trkpt>
      <trkpt lat="48.28816" lon="-1.84271">
        <ele>118.4</ele>
        <time>2019-07-16T08:45:13Z</time>
      </trkpt>
      <trkpt lat="48.28814" lon="-1.84271">
        <ele>119</ele>
        <time>2019-07-16T08:45:14Z</time>
      </trkpt>
      <trkpt lat="48.28811" lon="-1.84271">
        <ele>119.1</ele>
        <time>2019-07-16T08:45:15Z</time>
      </trkpt>
      <trkpt lat="48.28809" lon="-1.84271">
        <ele>119.4</ele>
        <time>2019-07-16T08:45:16Z</time>
      </trkpt>
      <trkpt lat="48.28806" lon="-1.84271">
        <ele>119.5</ele>
        <time>2019-07-16T08:45:17Z</time>
      </trkpt>
      <trkpt lat="48.28804" lon="-1.84271">
        <ele>119.5</ele>
        <time>2019-07-16T08:45:18Z</time>
      </trkpt>
      <trkpt lat="48.28802" lon="-1.84272">
        <ele>119.5</ele>
        <time>2019-07-16T08:45:19Z</time>
      </trkpt>
      <trkpt lat="48.28799" lon="-1.84272">
        <ele>119.6</ele>
        <time>2019-07-16T08:45:20Z</time>
      </trkpt>
      <trkpt lat="48.28796" lon="-1.84272">
        <ele>119.5</ele>
        <time>2019-07-16T08:45:21Z</time>
      </trkpt>
      <trkpt lat="48.28794" lon="-1.84272">
        <ele>119.5</ele>
        <time>2019-07-16T08:45:22Z</time>
      </trkpt>
      <trkpt lat="48.28792" lon="-1.84273">
        <ele>119.6</ele>
        <time>2019-07-16T08:45:23Z</time>
      </trkpt>
      <trkpt lat="48.2879" lon="-1.84273">
        <ele>119.9</ele>
        <time>2019-07-16T08:45:24Z</time>
      </trkpt>
      <trkpt lat="48.28788" lon="-1.84273">
        <ele>120.2</ele>
        <time>2019-07-16T08:45:25Z</time>
      </trkpt>
      <trkpt lat="48.28785" lon="-1.84273">
        <ele>120.2</ele>
        <time>2019-07-16T08:45:26Z</time>
      </trkpt>
      <trkpt lat="48.28783" lon="-1.84273">
        <ele>120.5</ele>
        <time>2019-07-16T08:45:27Z</time>
      </trkpt>
      <trkpt lat="48.2878" lon="-1.84273">
        <ele>120.7</ele>
        <time>2019-07-16T08:45:28Z</time>
      </trkpt>
      <trkpt lat="48.28778" lon="-1.84273">
        <ele>121.2</ele>
        <time>2019-07-16T08:45:29Z</time>
      </trkpt>
      <trkpt lat="48.28776" lon="-1.84273">
        <ele>121.7</ele>
        <time>2019-07-16T08:45:30Z</time>
      </trkpt>
      <trkpt lat="48.28774" lon="-1.84273">
        <ele>122.1</ele>
        <time>2019-07-16T08:45:31Z</time>
      </trkpt>
      <trkpt lat="48.28771" lon="-1.84273">
        <ele>122.1</ele>
        <time>2019-07-16T08:45:32Z</time>
      </trkpt>
      <trkpt lat="48.28768" lon="-1.84273">
        <ele>122.1</ele>
        <time>2019-07-16T08:45:33Z</time>
      </trkpt>
      <trkpt lat="48.28766" lon="-1.84273">
        <ele>122</ele>
        <time>2019-07-16T08:45:34Z</time>
      </trkpt>
      <trkpt lat="48.28762" lon="-1.84274">
        <ele>122.2</ele>
        <time>2019-07-16T08:45:35Z</time>
      </trkpt>
      <trkpt lat="48.2876" lon="-1.84274">
        <ele>122.5</ele>
        <time>2019-07-16T08:45:36Z</time>
      </trkpt>
      <trkpt lat="48.28756" lon="-1.84275">
        <ele>122.5</ele>
        <time>2019-07-16T08:45:37Z</time>
      </trkpt>
      <trkpt lat="48.28754" lon="-1.84275">
        <ele>122.7</ele>
        <time>2019-07-16T08:45:38Z</time>
      </trkpt>
      <trkpt lat="48.28751" lon="-1.84274">
        <ele>122.1</ele>
        <time>2019-07-16T08:45:39Z</time>
      </trkpt>
      <trkpt lat="48.28749" lon="-1.84275">
        <ele>121.7</ele>
        <time>2019-07-16T08:45:40Z</time>
      </trkpt>
      <trkpt lat="48.28746" lon="-1.84275">
        <ele>121.5</ele>
        <time>2019-07-16T08:45:41Z</time>
      </trkpt>
      <trkpt lat="48.28743" lon="-1.84276">
        <ele>121.7</ele>
        <time>2019-07-16T08:45:42Z</time>
      </trkpt>
      <trkpt lat="48.2874" lon="-1.84276">
        <ele>121.6</ele>
        <time>2019-07-16T08:45:43Z</time>
      </trkpt>
      <trkpt lat="48.28737" lon="-1.84276">
        <ele>121.6</ele>
        <time>2019-07-16T08:45:44Z</time>
      </trkpt>
      <trkpt lat="48.28734" lon="-1.84276">
        <ele>121.3</ele>
        <time>2019-07-16T08:45:45Z</time>
      </trkpt>
      <trkpt lat="48.28731" lon="-1.84276">
        <ele>120.8</ele>
        <time>2019-07-16T08:45:46Z</time>
      </trkpt>
      <trkpt lat="48.28728" lon="-1.84276">
        <ele>121</ele>
        <time>2019-07-16T08:45:47Z</time>
      </trkpt>
      <trkpt lat="48.28725" lon="-1.84277">
        <ele>120.6</ele>
        <time>2019-07-16T08:45:48Z</time>
      </trkpt>
      <trkpt lat="48.28722" lon="-1.84277">
        <ele>120.5</ele>
        <time>2019-07-16T08:45:49Z</time>
      </trkpt>
      <trkpt lat="48.28718" lon="-1.84278">
        <ele>120.3</ele>
        <time>2019-07-16T08:45:50Z</time>
      </trkpt>
      <trkpt lat="48.28715" lon="-1.84279">
        <ele>120.5</ele>
        <time>2019-07-16T08:45:51Z</time>
      </trkpt>
      <trkpt lat="48.28712" lon="-1.8428">
        <ele>119.9</ele>
        <time>2019-07-16T08:45:52Z</time>
      </trkpt>
      <trkpt lat="48.28709" lon="-1.8428">
        <ele>119.6</ele>
        <time>2019-07-16T08:45:53Z</time>
      </trkpt>
      <trkpt lat="48.28706" lon="-1.84281">
        <ele>119.6</ele>
        <time>2019-07-16T08:45:54Z</time>
      </trkpt>
      <trkpt lat="48.28704" lon="-1.84282">
        <ele>119.4</ele>
        <time>2019-07-16T08:45:55Z</time>
      </trkpt>
      <trkpt lat="48.28701" lon="-1.84284">
        <ele>119.3</ele>
        <time>2019-07-16T08:45:56Z</time>
      </trkpt>
      <trkpt lat="48.28698" lon="-1.84286">
        <ele>119.6</ele>
        <time>2019-07-16T08:45:57Z</time>
      </trkpt>
      <trkpt lat="48.28695" lon="-1.84288">
        <ele>120.8</ele>
        <time>2019-07-16T08:45:58Z</time>
      </trkpt>
      <trkpt lat="48.28692" lon="-1.84291">
        <ele>121.6</ele>
        <time>2019-07-16T08:45:59Z</time>
      </trkpt>
      <trkpt lat="48.28689" lon="-1.84294">
        <ele>122.4</ele>
        <time>2019-07-16T08:46:00Z</time>
      </trkpt>
      <trkpt lat="48.28687" lon="-1.84298">
        <ele>122.5</ele>
        <time>2019-07-16T08:46:01Z</time>
      </trkpt>
      <trkpt lat="48.28683" lon="-1.84303">
        <ele>122.8</ele>
        <time>2019-07-16T08:46:02Z</time>
      </trkpt>
      <trkpt lat="48.2868" lon="-1.84306">
        <ele>122</ele>
        <time>2019-07-16T08:46:03Z</time>
      </trkpt>
      <trkpt lat="48.28677" lon="-1.8431">
        <ele>121.9</ele>
        <time>2019-07-16T08:46:04Z</time>
      </trkpt>
      <trkpt lat="48.28674" lon="-1.84314">
        <ele>121.6</ele>
        <time>2019-07-16T08:46:05Z</time>
      </trkpt>
      <trkpt lat="48.28672" lon="-1.84319">
        <ele>121.2</ele>
        <time>2019-07-16T08:46:06Z</time>
      </trkpt>
      <trkpt lat="48.28669" lon="-1.84324">
        <ele>121.3</ele>
        <time>2019-07-16T08:46:07Z</time>
      </trkpt>
      <trkpt lat="48.28667" lon="-1.84329">
        <ele>121.4</ele>
        <time>2019-07-16T08:46:08Z</time>
      </trkpt>
      <trkpt lat="48.28665" lon="-1.84334">
        <ele>121.7</ele>
        <time>2019-07-16T08:46:09Z</time>
      </trkpt>
      <trkpt lat="48.28663" lon="-1.8434">
        <ele>121.6</ele>
        <time>2019-07-16T08:46:10Z</time>
      </trkpt>
      <trkpt lat="48.2866" lon="-1.84346">
        <ele>121.6</ele>
        <time>2019-07-16T08:46:11Z</time>
      </trkpt>
      <trkpt lat="48.28658" lon="-1.84351">
        <ele>121.1</ele>
        <time>2019-07-16T08:46:12Z</time>
      </trkpt>
      <trkpt lat="48.28655" lon="-1.84356">
        <ele>121</ele>
        <time>2019-07-16T08:46:13Z</time>
      </trkpt>
      <trkpt lat="48.28653" lon="-1.8436">
        <ele>120.7</ele>
        <time>2019-07-16T08:46:14Z</time>
      </trkpt>
      <trkpt lat="48.28651" lon="-1.84364">
        <ele>121</ele>
        <time>2019-07-16T08:46:15Z</time>
      </trkpt>
      <trkpt lat="48.28648" lon="-1.84369">
        <ele>121.4</ele>
        <time>2019-07-16T08:46:16Z</time>
      </trkpt>
      <trkpt lat="48.28646" lon="-1.84372">
        <ele>121.6</ele>
        <time>2019-07-16T08:46:17Z</time>
      </trkpt>
      <trkpt lat="48.28644" lon="-1.84376">
        <ele>122.1</ele>
        <time>2019-07-16T08:46:18Z</time>
      </trkpt>
      <trkpt lat="48.28642" lon="-1.8438">
        <ele>122.9</ele>
        <time>2019-07-16T08:46:19Z</time>
      </trkpt>
      <trkpt lat="48.2864" lon="-1.84383">
        <ele>123.4</ele>
        <time>2019-07-16T08:46:20Z</time>
      </trkpt>
      <trkpt lat="48.28638" lon="-1.84387">
        <ele>123.7</ele>
        <time>2019-07-16T08:46:21Z</time>
      </trkpt>
      <trkpt lat="48.28636" lon="-1.84392">
        <ele>124.3</ele>
        <time>2019-07-16T08:46:22Z</time>
      </trkpt>
      <trkpt lat="48.28634" lon="-1.84396">
        <ele>124.5</ele>
        <time>2019-07-16T08:46:23Z</time>
      </trkpt>
      <trkpt lat="48.28632" lon="-1.84401">
        <ele>124.5</ele>
        <time>2019-07-16T08:46:24Z</time>
      </trkpt>
      <trkpt lat="48.28631" lon="-1.84405">
        <ele>124.7</ele>
        <time>2019-07-16T08:46:25Z</time>
      </trkpt>
      <trkpt lat="48.28628" lon="-1.84408">
        <ele>124.7</ele>
        <time>2019-07-16T08:46:26Z</time>
      </trkpt>
      <trkpt lat="48.28626" lon="-1.84412">
        <ele>124.2</ele>
        <time>2019-07-16T08:46:27Z</time>
      </trkpt>
      <trkpt lat="48.28625" lon="-1.84417">
        <ele>124.4</ele>
        <time>2019-07-16T08:46:28Z</time>
      </trkpt>
      <trkpt lat="48.28622" lon="-1.84422">
        <ele>124.5</ele>
        <time>2019-07-16T08:46:29Z</time>
      </trkpt>
      <trkpt lat="48.2862" lon="-1.84426">
        <ele>124.3</ele>
        <time>2019-07-16T08:46:30Z</time>
      </trkpt>
      <trkpt lat="48.28618" lon="-1.84431">
        <ele>124.5</ele>
        <time>2019-07-16T08:46:31Z</time>
      </trkpt>
      <trkpt lat="48.28616" lon="-1.84436">
        <ele>124.3</ele>
        <time>2019-07-16T08:46:32Z</time>
      </trkpt>
      <trkpt lat="48.28614" lon="-1.8444">
        <ele>123.7</ele>
        <time>2019-07-16T08:46:33Z</time>
      </trkpt>
      <trkpt lat="48.28612" lon="-1.84445">
        <ele>123.2</ele>
        <time>2019-07-16T08:46:34Z</time>
      </trkpt>
      <trkpt lat="48.2861" lon="-1.84449">
        <ele>123.3</ele>
        <time>2019-07-16T08:46:35Z</time>
      </trkpt>
      <trkpt lat="48.28608" lon="-1.84454">
        <ele>123</ele>
        <time>2019-07-16T08:46:36Z</time>
      </trkpt>
      <trkpt lat="48.28606" lon="-1.84457">
        <ele>122.3</ele>
        <time>2019-07-16T08:46:37Z</time>
      </trkpt>
      <trkpt lat="48.28605" lon="-1.84461">
        <ele>121.9</ele>
        <time>2019-07-16T08:46:38Z</time>
      </trkpt>
      <trkpt lat="48.28603" lon="-1.84465">
        <ele>121.4</ele>
        <time>2019-07-16T08:46:39Z</time>
      </trkpt>
      <trkpt lat="48.28602" lon="-1.84467">
        <ele>120.9</ele>
        <time>2019-07-16T08:46:40Z</time>
      </trkpt>
      <trkpt lat="48.286" lon="-1.8447">
        <ele>121.2</ele>
        <time>2019-07-16T08:46:41Z</time>
      </trkpt>
      <trkpt lat="48.28599" lon="-1.84473">
        <ele>121.4</ele>
        <time>2019-07-16T08:46:42Z</time>
      </trkpt>
      <trkpt lat="48.28598" lon="-1.84475">
        <ele>121.5</ele>
        <time>2019-07-16T08:46:43Z</time>
      </trkpt>
      <trkpt lat="48.28598" lon="-1.84477">
        <ele>121.2</ele>
        <time>2019-07-16T08:46:44Z</time>
      </trkpt>
      <trkpt lat="48.28597" lon="-1.84478">
        <ele>120.8</ele>
        <time>2019-07-16T08:46:45Z</time>
      </trkpt>
      <trkpt lat="48.28596" lon="-1.8448">
        <ele>120.5</ele>
        <time>2019-07-16T08:46:46Z</time>
      </trkpt>
      <trkpt lat="48.28595" lon="-1.84484">
        <ele>120.7</ele>
        <time>2019-07-16T08:46:47Z</time>
      </trkpt>
      <trkpt lat="48.28593" lon="-1.84487">
        <ele>120.9</ele>
        <time>2019-07-16T08:46:48Z</time>
      </trkpt>
      <trkpt lat="48.28592" lon="-1.84491">
        <ele>121.2</ele>
        <time>2019-07-16T08:46:49Z</time>
      </trkpt>
      <trkpt lat="48.28591" lon="-1.84495">
        <ele>121.5</ele>
        <time>2019-07-16T08:46:50Z</time>
      </trkpt>
      <trkpt lat="48.2859" lon="-1.84498">
        <ele>121.7</ele>
        <time>2019-07-16T08:46:51Z</time>
      </trkpt>
      <trkpt lat="48.28588" lon="-1.84501">
        <ele>122</ele>
        <time>2019-07-16T08:46:52Z</time>
      </trkpt>
      <trkpt lat="48.28586" lon="-1.84505">
        <ele>122.4</ele>
        <time>2019-07-16T08:46:53Z</time>
      </trkpt>
      <trkpt lat="48.28585" lon="-1.84508">
        <ele>122.7</ele>
        <time>2019-07-16T08:46:54Z</time>
      </trkpt>
      <trkpt lat="48.28583" lon="-1.84512">
        <ele>123.1</ele>
        <time>2019-07-16T08:46:55Z</time>
      </trkpt>
      <trkpt lat="48.28581" lon="-1.84516">
        <ele>123.3</ele>
        <time>2019-07-16T08:46:56Z</time>
      </trkpt>
      <trkpt lat="48.28579" lon="-1.84521">
        <ele>123.5</ele>
        <time>2019-07-16T08:46:57Z</time>
      </trkpt>
      <trkpt lat="48.28577" lon="-1.84524">
        <ele>123.7</ele>
        <time>2019-07-16T08:46:58Z</time>
      </trkpt>
      <trkpt lat="48.28576" lon="-1.84528">
        <ele>124.1</ele>
        <time>2019-07-16T08:46:59Z</time>
      </trkpt>
      <trkpt lat="48.28574" lon="-1.84532">
        <ele>124</ele>
        <time>2019-07-16T08:47:00Z</time>
      </trkpt>
      <trkpt lat="48.28573" lon="-1.84535">
        <ele>124.3</ele>
        <time>2019-07-16T08:47:01Z</time>
      </trkpt>
      <trkpt lat="48.28571" lon="-1.84539">
        <ele>124.4</ele>
        <time>2019-07-16T08:47:02Z</time>
      </trkpt>
      <trkpt lat="48.28571" lon="-1.84543">
        <ele>124.6</ele>
        <time>2019-07-16T08:47:03Z</time>
      </trkpt>
      <trkpt lat="48.28569" lon="-1.84546">
        <ele>124.5</ele>
        <time>2019-07-16T08:47:04Z</time>
      </trkpt>
      <trkpt lat="48.28567" lon="-1.8455">
        <ele>125.1</ele>
        <time>2019-07-16T08:47:05Z</time>
      </trkpt>
      <trkpt lat="48.28565" lon="-1.84554">
        <ele>125.9</ele>
        <time>2019-07-16T08:47:06Z</time>
      </trkpt>
      <trkpt lat="48.28563" lon="-1.84557">
        <ele>126.7</ele>
        <time>2019-07-16T08:47:07Z</time>
      </trkpt>
      <trkpt lat="48.28562" lon="-1.8456">
        <ele>126.9</ele>
        <time>2019-07-16T08:47:08Z</time>
      </trkpt>
      <trkpt lat="48.2856" lon="-1.84563">
        <ele>126.7</ele>
        <time>2019-07-16T08:47:09Z</time>
      </trkpt>
      <trkpt lat="48.28559" lon="-1.84566">
        <ele>126.4</ele>
        <time>2019-07-16T08:47:10Z</time>
      </trkpt>
      <trkpt lat="48.28557" lon="-1.84569">
        <ele>125.9</ele>
        <time>2019-07-16T08:47:11Z</time>
      </trkpt>
      <trkpt lat="48.28556" lon="-1.84572">
        <ele>125.7</ele>
        <time>2019-07-16T08:47:12Z</time>
      </trkpt>
      <trkpt lat="48.28554" lon="-1.84575">
        <ele>125.6</ele>
        <time>2019-07-16T08:47:13Z</time>
      </trkpt>
      <trkpt lat="48.28553" lon="-1.84578">
        <ele>125.7</ele>
        <time>2019-07-16T08:47:14Z</time>
      </trkpt>
      <trkpt lat="48.28551" lon="-1.8458">
        <ele>125.8</ele>
        <time>2019-07-16T08:47:15Z</time>
      </trkpt>
      <trkpt lat="48.28549" lon="-1.84583">
        <ele>125.9</ele>
        <time>2019-07-16T08:47:16Z</time>
      </trkpt>
      <trkpt lat="48.28548" lon="-1.84586">
        <ele>125.9</ele>
        <time>2019-07-16T08:47:17Z</time>
      </trkpt>
      <trkpt lat="48.28547" lon="-1.84589">
        <ele>126</ele>
        <time>2019-07-16T08:47:18Z</time>
      </trkpt>
      <trkpt lat="48.28545" lon="-1.84592">
        <ele>125.9</ele>
        <time>2019-07-16T08:47:19Z</time>
      </trkpt>
      <trkpt lat="48.28544" lon="-1.84595">
        <ele>126.3</ele>
        <time>2019-07-16T08:47:20Z</time>
      </trkpt>
      <trkpt lat="48.28542" lon="-1.84599">
        <ele>126.5</ele>
        <time>2019-07-16T08:47:21Z</time>
      </trkpt>
      <trkpt lat="48.2854" lon="-1.84602">
        <ele>127.1</ele>
        <time>2019-07-16T08:47:22Z</time>
      </trkpt>
      <trkpt lat="48.28539" lon="-1.84605">
        <ele>127.6</ele>
        <time>2019-07-16T08:47:23Z</time>
      </trkpt>
      <trkpt lat="48.28538" lon="-1.84608">
        <ele>128.1</ele>
        <time>2019-07-16T08:47:24Z</time>
      </trkpt>
      <trkpt lat="48.28536" lon="-1.84611">
        <ele>128.5</ele>
        <time>2019-07-16T08:47:25Z</time>
      </trkpt>
      <trkpt lat="48.28535" lon="-1.84614">
        <ele>128.9</ele>
        <time>2019-07-16T08:47:26Z</time>
      </trkpt>
      <trkpt lat="48.28534" lon="-1.84617">
        <ele>129.1</ele>
        <time>2019-07-16T08:47:27Z</time>
      </trkpt>
      <trkpt lat="48.28533" lon="-1.84621">
        <ele>129.2</ele>
        <time>2019-07-16T08:47:28Z</time>
      </trkpt>
      <trkpt lat="48.28532" lon="-1.84624">
        <ele>129.2</ele>
        <time>2019-07-16T08:47:29Z</time>
      </trkpt>
      <trkpt lat="48.28531" lon="-1.84628">
        <ele>129.2</ele>
        <time>2019-07-16T08:47:30Z</time>
      </trkpt>
      <trkpt lat="48.2853" lon="-1.84632">
        <ele>129.2</ele>
        <time>2019-07-16T08:47:31Z</time>
      </trkpt>
      <trkpt lat="48.28529" lon="-1.84636">
        <ele>129.2</ele>
        <time>2019-07-16T08:47:32Z</time>
      </trkpt>
      <trkpt lat="48.28529" lon="-1.8464">
        <ele>129.1</ele>
        <time>2019-07-16T08:47:33Z</time>
      </trkpt>
      <trkpt lat="48.28528" lon="-1.84645">
        <ele>128.8</ele>
        <time>2019-07-16T08:47:34Z</time>
      </trkpt>
      <trkpt lat="48.28528" lon="-1.84649">
        <ele>128.5</ele>
        <time>2019-07-16T08:47:35Z</time>
      </trkpt>
      <trkpt lat="48.28528" lon="-1.84654">
        <ele>128.5</ele>
        <time>2019-07-16T08:47:36Z</time>
      </trkpt>
      <trkpt lat="48.28528" lon="-1.84658">
        <ele>128.6</ele>
        <time>2019-07-16T08:47:37Z</time>
      </trkpt>
      <trkpt lat="48.28528" lon="-1.84662">
        <ele>128.7</ele>
        <time>2019-07-16T08:47:38Z</time>
      </trkpt>
      <trkpt lat="48.28528" lon="-1.84665">
        <ele>128.8</ele>
        <time>2019-07-16T08:47:39Z</time>
      </trkpt>
      <trkpt lat="48.28528" lon="-1.84668">
        <ele>129</ele>
        <time>2019-07-16T08:47:40Z</time>
      </trkpt>
      <trkpt lat="48.28529" lon="-1.84671">
        <ele>129.2</ele>
        <time>2019-07-16T08:47:41Z</time>
      </trkpt>
      <trkpt lat="48.28529" lon="-1.84674">
        <ele>129.5</ele>
        <time>2019-07-16T08:47:42Z</time>
      </trkpt>
      <trkpt lat="48.2853" lon="-1.84677">
        <ele>129.8</ele>
        <time>2019-07-16T08:47:43Z</time>
      </trkpt>
      <trkpt lat="48.28531" lon="-1.8468">
        <ele>129.9</ele>
        <time>2019-07-16T08:47:44Z</time>
      </trkpt>
      <trkpt lat="48.28531" lon="-1.84684">
        <ele>130</ele>
        <time>2019-07-16T08:47:45Z</time>
      </trkpt>
      <trkpt lat="48.28531" lon="-1.84687">
        <ele>130.2</ele>
        <time>2019-07-16T08:47:46Z</time>
      </trkpt>
      <trkpt lat="48.28532" lon="-1.84691">
        <ele>130.5</ele>
        <time>2019-07-16T08:47:47Z</time>
      </trkpt>
      <trkpt lat="48.28532" lon="-1.84695">
        <ele>130.6</ele>
        <time>2019-07-16T08:47:48Z</time>
      </trkpt>
      <trkpt lat="48.28532" lon="-1.84698">
        <ele>131.1</ele>
        <time>2019-07-16T08:47:49Z</time>
      </trkpt>
      <trkpt lat="48.28533" lon="-1.84701">
        <ele>131.6</ele>
        <time>2019-07-16T08:47:50Z</time>
      </trkpt>
      <trkpt lat="48.28533" lon="-1.84704">
        <ele>131.9</ele>
        <time>2019-07-16T08:47:51Z</time>
      </trkpt>
      <trkpt lat="48.28534" lon="-1.84707">
        <ele>132.1</ele>
        <time>2019-07-16T08:47:52Z</time>
      </trkpt>
      <trkpt lat="48.28534" lon="-1.84709">
        <ele>132.5</ele>
        <time>2019-07-16T08:47:53Z</time>
      </trkpt>
      <trkpt lat="48.28534" lon="-1.84712">
        <ele>132.8</ele>
        <time>2019-07-16T08:47:54Z</time>
      </trkpt>
      <trkpt lat="48.28535" lon="-1.84715">
        <ele>133</ele>
        <time>2019-07-16T08:47:55Z</time>
      </trkpt>
      <trkpt lat="48.28535" lon="-1.84717">
        <ele>133</ele>
        <time>2019-07-16T08:47:56Z</time>
      </trkpt>
      <trkpt lat="48.28537" lon="-1.84711">
        <ele>129.5</ele>
        <time>2019-07-16T08:49:42Z</time>
      </trkpt>
      <trkpt lat="48.28536" lon="-1.84708">
        <ele>129.7</ele>
        <time>2019-07-16T08:49:43Z</time>
      </trkpt>
      <trkpt lat="48.28535" lon="-1.84704">
        <ele>129.7</ele>
        <time>2019-07-16T08:49:44Z</time>
      </trkpt>
      <trkpt lat="48.28534" lon="-1.847">
        <ele>129.7</ele>
        <time>2019-07-16T08:49:45Z</time>
      </trkpt>
      <trkpt lat="48.28534" lon="-1.84696">
        <ele>129.4</ele>
        <time>2019-07-16T08:49:46Z</time>
      </trkpt>
      <trkpt lat="48.28533" lon="-1.84691">
        <ele>129.2</ele>
        <time>2019-07-16T08:49:47Z</time>
      </trkpt>
      <trkpt lat="48.28533" lon="-1.84686">
        <ele>128.9</ele>
        <time>2019-07-16T08:49:48Z</time>
      </trkpt>
      <trkpt lat="48.28532" lon="-1.84682">
        <ele>128.3</ele>
        <time>2019-07-16T08:49:49Z</time>
      </trkpt>
      <trkpt lat="48.28532" lon="-1.84677">
        <ele>128</ele>
        <time>2019-07-16T08:49:50Z</time>
      </trkpt>
      <trkpt lat="48.28532" lon="-1.84671">
        <ele>127.2</ele>
        <time>2019-07-16T08:49:51Z</time>
      </trkpt>
      <trkpt lat="48.28531" lon="-1.84666">
        <ele>126.7</ele>
        <time>2019-07-16T08:49:52Z</time>
      </trkpt>
      <trkpt lat="48.28531" lon="-1.8466">
        <ele>126.3</ele>
        <time>2019-07-16T08:49:53Z</time>
      </trkpt>
      <trkpt lat="48.28531" lon="-1.84655">
        <ele>126.1</ele>
        <time>2019-07-16T08:49:54Z</time>
      </trkpt>
      <trkpt lat="48.28531" lon="-1.84649">
        <ele>126.1</ele>
        <time>2019-07-16T08:49:55Z</time>
      </trkpt>
      <trkpt lat="48.28531" lon="-1.84643">
        <ele>126.1</ele>
        <time>2019-07-16T08:49:56Z</time>
      </trkpt>
      <trkpt lat="48.28531" lon="-1.84638">
        <ele>125.9</ele>
        <time>2019-07-16T08:49:57Z</time>
      </trkpt>
      <trkpt lat="48.28532" lon="-1.84632">
        <ele>126.3</ele>
        <time>2019-07-16T08:49:58Z</time>
      </trkpt>
      <trkpt lat="48.28534" lon="-1.84627">
        <ele>126.7</ele>
        <time>2019-07-16T08:49:59Z</time>
      </trkpt>
      <trkpt lat="48.28536" lon="-1.84621">
        <ele>126.8</ele>
        <time>2019-07-16T08:50:00Z</time>
      </trkpt>
      <trkpt lat="48.28537" lon="-1.84615">
        <ele>126.7</ele>
        <time>2019-07-16T08:50:01Z</time>
      </trkpt>
      <trkpt lat="48.2854" lon="-1.8461">
        <ele>127</ele>
        <time>2019-07-16T08:50:02Z</time>
      </trkpt>
      <trkpt lat="48.28542" lon="-1.84604">
        <ele>126.9</ele>
        <time>2019-07-16T08:50:03Z</time>
      </trkpt>
      <trkpt lat="48.28544" lon="-1.84598">
        <ele>126.8</ele>
        <time>2019-07-16T08:50:04Z</time>
      </trkpt>
      <trkpt lat="48.28547" lon="-1.84591">
        <ele>126.6</ele>
        <time>2019-07-16T08:50:05Z</time>
      </trkpt>
      <trkpt lat="48.2855" lon="-1.84585">
        <ele>126.3</ele>
        <time>2019-07-16T08:50:06Z</time>
      </trkpt>
      <trkpt lat="48.28553" lon="-1.84578">
        <ele>126.2</ele>
        <time>2019-07-16T08:50:07Z</time>
      </trkpt>
      <trkpt lat="48.28557" lon="-1.84571">
        <ele>126.1</ele>
        <time>2019-07-16T08:50:08Z</time>
      </trkpt>
      <trkpt lat="48.2856" lon="-1.84562">
        <ele>125.9</ele>
        <time>2019-07-16T08:50:09Z</time>
      </trkpt>
      <trkpt lat="48.28564" lon="-1.84554">
        <ele>125.8</ele>
        <time>2019-07-16T08:50:10Z</time>
      </trkpt>
      <trkpt lat="48.28566" lon="-1.84546">
        <ele>125.8</ele>
        <time>2019-07-16T08:50:11Z</time>
      </trkpt>
      <trkpt lat="48.2857" lon="-1.84539">
        <ele>125.9</ele>
        <time>2019-07-16T08:50:12Z</time>
      </trkpt>
      <trkpt lat="48.28573" lon="-1.84531">
        <ele>126</ele>
        <time>2019-07-16T08:50:13Z</time>
      </trkpt>
      <trkpt lat="48.28577" lon="-1.84523">
        <ele>126.1</ele>
        <time>2019-07-16T08:50:14Z</time>
      </trkpt>
      <trkpt lat="48.28581" lon="-1.84515">
        <ele>125.6</ele>
        <time>2019-07-16T08:50:15Z</time>
      </trkpt>
      <trkpt lat="48.28585" lon="-1.84506">
        <ele>124.3</ele>
        <time>2019-07-16T08:50:16Z</time>
      </trkpt>
      <trkpt lat="48.2859" lon="-1.84497">
        <ele>123</ele>
        <time>2019-07-16T08:50:17Z</time>
      </trkpt>
      <trkpt lat="48.28594" lon="-1.84489">
        <ele>122.9</ele>
        <time>2019-07-16T08:50:18Z</time>
      </trkpt>
      <trkpt lat="48.28598" lon="-1.84481">
        <ele>123.1</ele>
        <time>2019-07-16T08:50:19Z</time>
      </trkpt>
      <trkpt lat="48.28602" lon="-1.84472">
        <ele>123.3</ele>
        <time>2019-07-16T08:50:20Z</time>
      </trkpt>
      <trkpt lat="48.28606" lon="-1.84464">
        <ele>123.9</ele>
        <time>2019-07-16T08:50:21Z</time>
      </trkpt>
      <trkpt lat="48.2861" lon="-1.84457">
        <ele>124.2</ele>
        <time>2019-07-16T08:50:22Z</time>
      </trkpt>
      <trkpt lat="48.28614" lon="-1.84449">
        <ele>123.9</ele>
        <time>2019-07-16T08:50:23Z</time>
      </trkpt>
      <trkpt lat="48.28617" lon="-1.8444">
        <ele>123.1</ele>
        <time>2019-07-16T08:50:24Z</time>
      </trkpt>
      <trkpt lat="48.2862" lon="-1.84433">
        <ele>123.3</ele>
        <time>2019-07-16T08:50:25Z</time>
      </trkpt>
      <trkpt lat="48.28624" lon="-1.84425">
        <ele>122.9</ele>
        <time>2019-07-16T08:50:26Z</time>
      </trkpt>
      <trkpt lat="48.28627" lon="-1.84417">
        <ele>122.2</ele>
        <time>2019-07-16T08:50:27Z</time>
      </trkpt>
      <trkpt lat="48.2863" lon="-1.84409">
        <ele>122.3</ele>
        <time>2019-07-16T08:50:28Z</time>
      </trkpt>
      <trkpt lat="48.28634" lon="-1.84402">
        <ele>122.3</ele>
        <time>2019-07-16T08:50:29Z</time>
      </trkpt>
      <trkpt lat="48.28637" lon="-1.84394">
        <ele>122.3</ele>
        <time>2019-07-16T08:50:30Z</time>
      </trkpt>
      <trkpt lat="48.2864" lon="-1.84387">
        <ele>122.4</ele>
        <time>2019-07-16T08:50:31Z</time>
      </trkpt>
      <trkpt lat="48.28642" lon="-1.8438">
        <ele>122.6</ele>
        <time>2019-07-16T08:50:32Z</time>
      </trkpt>
      <trkpt lat="48.28645" lon="-1.84373">
        <ele>122.5</ele>
        <time>2019-07-16T08:50:33Z</time>
      </trkpt>
      <trkpt lat="48.28648" lon="-1.84367">
        <ele>122.8</ele>
        <time>2019-07-16T08:50:34Z</time>
      </trkpt>
      <trkpt lat="48.2865" lon="-1.8436">
        <ele>122.9</ele>
        <time>2019-07-16T08:50:35Z</time>
      </trkpt>
      <trkpt lat="48.28653" lon="-1.84354">
        <ele>122.9</ele>
        <time>2019-07-16T08:50:36Z</time>
      </trkpt>
      <trkpt lat="48.28656" lon="-1.84348">
        <ele>122.5</ele>
        <time>2019-07-16T08:50:37Z</time>
      </trkpt>
      <trkpt lat="48.28659" lon="-1.84342">
        <ele>121.9</ele>
        <time>2019-07-16T08:50:38Z</time>
      </trkpt>
      <trkpt lat="48.28662" lon="-1.84336">
        <ele>121.5</ele>
        <time>2019-07-16T08:50:39Z</time>
      </trkpt>
      <trkpt lat="48.28665" lon="-1.84331">
        <ele>120.8</ele>
        <time>2019-07-16T08:50:40Z</time>
      </trkpt>
      <trkpt lat="48.28668" lon="-1.84326">
        <ele>120.1</ele>
        <time>2019-07-16T08:50:41Z</time>
      </trkpt>
      <trkpt lat="48.28671" lon="-1.8432">
        <ele>119.8</ele>
        <time>2019-07-16T08:50:42Z</time>
      </trkpt>
      <trkpt lat="48.28674" lon="-1.84314">
        <ele>119.4</ele>
        <time>2019-07-16T08:50:43Z</time>
      </trkpt>
      <trkpt lat="48.28677" lon="-1.84309">
        <ele>119.3</ele>
        <time>2019-07-16T08:50:44Z</time>
      </trkpt>
      <trkpt lat="48.2868" lon="-1.84303">
        <ele>119.2</ele>
        <time>2019-07-16T08:50:45Z</time>
      </trkpt>
      <trkpt lat="48.28683" lon="-1.84299">
        <ele>119.4</ele>
        <time>2019-07-16T08:50:46Z</time>
      </trkpt>
      <trkpt lat="48.28687" lon="-1.84295">
        <ele>120</ele>
        <time>2019-07-16T08:50:47Z</time>
      </trkpt>
      <trkpt lat="48.2869" lon="-1.84292">
        <ele>120.3</ele>
        <time>2019-07-16T08:50:48Z</time>
      </trkpt>
      <trkpt lat="48.28693" lon="-1.84289">
        <ele>120.5</ele>
        <time>2019-07-16T08:50:49Z</time>
      </trkpt>
      <trkpt lat="48.28697" lon="-1.84286">
        <ele>120.7</ele>
        <time>2019-07-16T08:50:50Z</time>
      </trkpt>
      <trkpt lat="48.287" lon="-1.84283">
        <ele>120.3</ele>
        <time>2019-07-16T08:50:51Z</time>
      </trkpt>
      <trkpt lat="48.28704" lon="-1.8428">
        <ele>120</ele>
        <time>2019-07-16T08:50:52Z</time>
      </trkpt>
      <trkpt lat="48.28708" lon="-1.84278">
        <ele>119.2</ele>
        <time>2019-07-16T08:50:53Z</time>
      </trkpt>
      <trkpt lat="48.28713" lon="-1.84275">
        <ele>118.6</ele>
        <time>2019-07-16T08:50:54Z</time>
      </trkpt>
      <trkpt lat="48.28717" lon="-1.84274">
        <ele>118</ele>
        <time>2019-07-16T08:50:55Z</time>
      </trkpt>
      <trkpt lat="48.28722" lon="-1.84272">
        <ele>117.5</ele>
        <time>2019-07-16T08:50:56Z</time>
      </trkpt>
      <trkpt lat="48.28726" lon="-1.84271">
        <ele>117</ele>
        <time>2019-07-16T08:50:57Z</time>
      </trkpt>
      <trkpt lat="48.28731" lon="-1.84271">
        <ele>116.9</ele>
        <time>2019-07-16T08:50:58Z</time>
      </trkpt>
      <trkpt lat="48.28736" lon="-1.84271">
        <ele>116.8</ele>
        <time>2019-07-16T08:50:59Z</time>
      </trkpt>
      <trkpt lat="48.2874" lon="-1.84272">
        <ele>117.3</ele>
        <time>2019-07-16T08:51:00Z</time>
      </trkpt>
      <trkpt lat="48.28745" lon="-1.84272">
        <ele>117.3</ele>
        <time>2019-07-16T08:51:01Z</time>
      </trkpt>
      <trkpt lat="48.2875" lon="-1.84271">
        <ele>117.7</ele>
        <time>2019-07-16T08:51:02Z</time>
      </trkpt>
      <trkpt lat="48.28755" lon="-1.84271">
        <ele>118.1</ele>
        <time>2019-07-16T08:51:03Z</time>
      </trkpt>
      <trkpt lat="48.2876" lon="-1.84272">
        <ele>118.5</ele>
        <time>2019-07-16T08:51:04Z</time>
      </trkpt>
      <trkpt lat="48.28765" lon="-1.84272">
        <ele>118.7</ele>
        <time>2019-07-16T08:51:05Z</time>
      </trkpt>
      <trkpt lat="48.2877" lon="-1.84272">
        <ele>118.9</ele>
        <time>2019-07-16T08:51:06Z</time>
      </trkpt>
      <trkpt lat="48.28776" lon="-1.84272">
        <ele>119.4</ele>
        <time>2019-07-16T08:51:07Z</time>
      </trkpt>
      <trkpt lat="48.28781" lon="-1.84272">
        <ele>119.6</ele>
        <time>2019-07-16T08:51:08Z</time>
      </trkpt>
      <trkpt lat="48.28787" lon="-1.84272">
        <ele>120</ele>
        <time>2019-07-16T08:51:09Z</time>
      </trkpt>
      <trkpt lat="48.28792" lon="-1.84271">
        <ele>119.9</ele>
        <time>2019-07-16T08:51:10Z</time>
      </trkpt>
      <trkpt lat="48.28798" lon="-1.84271">
        <ele>119.9</ele>
        <time>2019-07-16T08:51:11Z</time>
      </trkpt>
      <trkpt lat="48.28804" lon="-1.84271">
        <ele>120</ele>
        <time>2019-07-16T08:51:12Z</time>
      </trkpt>
      <trkpt lat="48.28809" lon="-1.84271">
        <ele>120.1</ele>
        <time>2019-07-16T08:51:13Z</time>
      </trkpt>
      <trkpt lat="48.28816" lon="-1.84271">
        <ele>120.5</ele>
        <time>2019-07-16T08:51:14Z</time>
      </trkpt>
      <trkpt lat="48.28822" lon="-1.84271">
        <ele>120.6</ele>
        <time>2019-07-16T08:51:15Z</time>
      </trkpt>
      <trkpt lat="48.28828" lon="-1.8427">
        <ele>120.4</ele>
        <time>2019-07-16T08:51:16Z</time>
      </trkpt>
      <trkpt lat="48.28835" lon="-1.8427">
        <ele>120.3</ele>
        <time>2019-07-16T08:51:17Z</time>
      </trkpt>
      <trkpt lat="48.28842" lon="-1.84269">
        <ele>120</ele>
        <time>2019-07-16T08:51:18Z</time>
      </trkpt>
      <trkpt lat="48.28849" lon="-1.84269">
        <ele>119.5</ele>
        <time>2019-07-16T08:51:19Z</time>
      </trkpt>
      <trkpt lat="48.28856" lon="-1.84269">
        <ele>119.6</ele>
        <time>2019-07-16T08:51:20Z</time>
      </trkpt>
      <trkpt lat="48.28863" lon="-1.84268">
        <ele>119.1</ele>
        <time>2019-07-16T08:51:21Z</time>
      </trkpt>
      <trkpt lat="48.2887" lon="-1.84268">
        <ele>118.9</ele>
        <time>2019-07-16T08:51:22Z</time>
      </trkpt>
      <trkpt lat="48.28878" lon="-1.84266">
        <ele>118.3</ele>
        <time>2019-07-16T08:51:23Z</time>
      </trkpt>
      <trkpt lat="48.28886" lon="-1.84265">
        <ele>118</ele>
        <time>2019-07-16T08:51:24Z</time>
      </trkpt>
      <trkpt lat="48.28893" lon="-1.84262">
        <ele>117.7</ele>
        <time>2019-07-16T08:51:25Z</time>
      </trkpt>
      <trkpt lat="48.28901" lon="-1.84259">
        <ele>117.2</ele>
        <time>2019-07-16T08:51:26Z</time>
      </trkpt>
      <trkpt lat="48.28908" lon="-1.84257">
        <ele>117.3</ele>
        <time>2019-07-16T08:51:27Z</time>
      </trkpt>
      <trkpt lat="48.28915" lon="-1.84253">
        <ele>117.2</ele>
        <time>2019-07-16T08:51:28Z</time>
      </trkpt>
      <trkpt lat="48.28922" lon="-1.84249">
        <ele>116.6</ele>
        <time>2019-07-16T08:51:29Z</time>
      </trkpt>
      <trkpt lat="48.28928" lon="-1.84245">
        <ele>116</ele>
        <time>2019-07-16T08:51:30Z</time>
      </trkpt>
      <trkpt lat="48.28935" lon="-1.84241">
        <ele>115.6</ele>
        <time>2019-07-16T08:51:31Z</time>
      </trkpt>
      <trkpt lat="48.28941" lon="-1.84236">
        <ele>115.1</ele>
        <time>2019-07-16T08:51:32Z</time>
      </trkpt>
      <trkpt lat="48.28947" lon="-1.84231">
        <ele>115.1</ele>
        <time>2019-07-16T08:51:33Z</time>
      </trkpt>
      <trkpt lat="48.28952" lon="-1.84226">
        <ele>114.6</ele>
        <time>2019-07-16T08:51:34Z</time>
      </trkpt>
      <trkpt lat="48.28957" lon="-1.8422">
        <ele>114.7</ele>
        <time>2019-07-16T08:51:35Z</time>
      </trkpt>
      <trkpt lat="48.28962" lon="-1.84215">
        <ele>114.6</ele>
        <time>2019-07-16T08:51:36Z</time>
      </trkpt>
      <trkpt lat="48.28967" lon="-1.84211">
        <ele>114.9</ele>
        <time>2019-07-16T08:51:37Z</time>
      </trkpt>
      <trkpt lat="48.28971" lon="-1.84207">
        <ele>115.1</ele>
        <time>2019-07-16T08:51:38Z</time>
      </trkpt>
      <trkpt lat="48.28975" lon="-1.84203">
        <ele>114.8</ele>
        <time>2019-07-16T08:51:39Z</time>
      </trkpt>
      <trkpt lat="48.2898" lon="-1.84199">
        <ele>115</ele>
        <time>2019-07-16T08:51:40Z</time>
      </trkpt>
      <trkpt lat="48.28984" lon="-1.84195">
        <ele>115.5</ele>
        <time>2019-07-16T08:51:41Z</time>
      </trkpt>
      <trkpt lat="48.28988" lon="-1.84191">
        <ele>116</ele>
        <time>2019-07-16T08:51:42Z</time>
      </trkpt>
      <trkpt lat="48.28992" lon="-1.84187">
        <ele>116.4</ele>
        <time>2019-07-16T08:51:43Z</time>
      </trkpt>
      <trkpt lat="48.28996" lon="-1.84183">
        <ele>116.5</ele>
        <time>2019-07-16T08:51:44Z</time>
      </trkpt>
      <trkpt lat="48.29" lon="-1.84177">
        <ele>116.5</ele>
        <time>2019-07-16T08:51:45Z</time>
      </trkpt>
      <trkpt lat="48.29003" lon="-1.84171">
        <ele>116.3</ele>
        <time>2019-07-16T08:51:46Z</time>
      </trkpt>
      <trkpt lat="48.29007" lon="-1.84166">
        <ele>116.5</ele>
        <time>2019-07-16T08:51:47Z</time>
      </trkpt>
      <trkpt lat="48.2901" lon="-1.84162">
        <ele>116.8</ele>
        <time>2019-07-16T08:51:48Z</time>
      </trkpt>
      <trkpt lat="48.29014" lon="-1.84158">
        <ele>116.8</ele>
        <time>2019-07-16T08:51:49Z</time>
      </trkpt>
      <trkpt lat="48.29017" lon="-1.84154">
        <ele>116.6</ele>
        <time>2019-07-16T08:51:50Z</time>
      </trkpt>
      <trkpt lat="48.2902" lon="-1.8415">
        <ele>116.7</ele>
        <time>2019-07-16T08:51:51Z</time>
      </trkpt>
      <trkpt lat="48.29024" lon="-1.84145">
        <ele>117.2</ele>
        <time>2019-07-16T08:51:52Z</time>
      </trkpt>
      <trkpt lat="48.29028" lon="-1.8414">
        <ele>117.4</ele>
        <time>2019-07-16T08:51:53Z</time>
      </trkpt>
      <trkpt lat="48.29031" lon="-1.84134">
        <ele>117.7</ele>
        <time>2019-07-16T08:51:54Z</time>
      </trkpt>
      <trkpt lat="48.29034" lon="-1.84129">
        <ele>118.1</ele>
        <time>2019-07-16T08:51:55Z</time>
      </trkpt>
      <trkpt lat="48.29036" lon="-1.84124">
        <ele>118.2</ele>
        <time>2019-07-16T08:51:56Z</time>
      </trkpt>
      <trkpt lat="48.29039" lon="-1.84118">
        <ele>118.2</ele>
        <time>2019-07-16T08:51:57Z</time>
      </trkpt>
      <trkpt lat="48.29042" lon="-1.84112">
        <ele>118.1</ele>
        <time>2019-07-16T08:51:58Z</time>
      </trkpt>
      <trkpt lat="48.29045" lon="-1.84106">
        <ele>117.9</ele>
        <time>2019-07-16T08:51:59Z</time>
      </trkpt>
      <trkpt lat="48.29048" lon="-1.84099">
        <ele>117.6</ele>
        <time>2019-07-16T08:52:00Z</time>
      </trkpt>
      <trkpt lat="48.29051" lon="-1.84093">
        <ele>117.7</ele>
        <time>2019-07-16T08:52:01Z</time>
      </trkpt>
      <trkpt lat="48.29054" lon="-1.84087">
        <ele>118</ele>
        <time>2019-07-16T08:52:02Z</time>
      </trkpt>
      <trkpt lat="48.29056" lon="-1.84081">
        <ele>118</ele>
        <time>2019-07-16T08:52:03Z</time>
      </trkpt>
      <trkpt lat="48.29059" lon="-1.84074">
        <ele>118.1</ele>
        <time>2019-07-16T08:52:04Z</time>
      </trkpt>
      <trkpt lat="48.29062" lon="-1.84068">
        <ele>117.8</ele>
        <time>2019-07-16T08:52:05Z</time>
      </trkpt>
      <trkpt lat="48.29065" lon="-1.84061">
        <ele>117.7</ele>
        <time>2019-07-16T08:52:06Z</time>
      </trkpt>
      <trkpt lat="48.29068" lon="-1.84053">
        <ele>117.4</ele>
        <time>2019-07-16T08:52:07Z</time>
      </trkpt>
      <trkpt lat="48.29071" lon="-1.84046">
        <ele>117.2</ele>
        <time>2019-07-16T08:52:08Z</time>
      </trkpt>
      <trkpt lat="48.29075" lon="-1.84039">
        <ele>116.9</ele>
        <time>2019-07-16T08:52:09Z</time>
      </trkpt>
      <trkpt lat="48.29077" lon="-1.84031">
        <ele>116.5</ele>
        <time>2019-07-16T08:52:10Z</time>
      </trkpt>
      <trkpt lat="48.2908" lon="-1.84024">
        <ele>116</ele>
        <time>2019-07-16T08:52:11Z</time>
      </trkpt>
      <trkpt lat="48.29082" lon="-1.84016">
        <ele>115.3</ele>
        <time>2019-07-16T08:52:12Z</time>
      </trkpt>
      <trkpt lat="48.29085" lon="-1.84009">
        <ele>115</ele>
        <time>2019-07-16T08:52:13Z</time>
      </trkpt>
      <trkpt lat="48.29088" lon="-1.84002">
        <ele>114.8</ele>
        <time>2019-07-16T08:52:14Z</time>
      </trkpt>
      <trkpt lat="48.29091" lon="-1.83994">
        <ele>114.5</ele>
        <time>2019-07-16T08:52:15Z</time>
      </trkpt>
      <trkpt lat="48.29094" lon="-1.83987">
        <ele>114.2</ele>
        <time>2019-07-16T08:52:16Z</time>
      </trkpt>
      <trkpt lat="48.29097" lon="-1.8398">
        <ele>113.4</ele>
        <time>2019-07-16T08:52:17Z</time>
      </trkpt>
      <trkpt lat="48.291" lon="-1.83973">
        <ele>113</ele>
        <time>2019-07-16T08:52:18Z</time>
      </trkpt>
      <trkpt lat="48.29104" lon="-1.83964">
        <ele>112.7</ele>
        <time>2019-07-16T08:52:19Z</time>
      </trkpt>
      <trkpt lat="48.29107" lon="-1.83956">
        <ele>112.6</ele>
        <time>2019-07-16T08:52:20Z</time>
      </trkpt>
      <trkpt lat="48.29111" lon="-1.83946">
        <ele>112.5</ele>
        <time>2019-07-16T08:52:21Z</time>
      </trkpt>
      <trkpt lat="48.29115" lon="-1.83937">
        <ele>112.2</ele>
        <time>2019-07-16T08:52:22Z</time>
      </trkpt>
      <trkpt lat="48.29119" lon="-1.83928">
        <ele>111.9</ele>
        <time>2019-07-16T08:52:23Z</time>
      </trkpt>
      <trkpt lat="48.29123" lon="-1.83918">
        <ele>111.7</ele>
        <time>2019-07-16T08:52:24Z</time>
      </trkpt>
      <trkpt lat="48.29127" lon="-1.83908">
        <ele>111.2</ele>
        <time>2019-07-16T08:52:25Z</time>
      </trkpt>
      <trkpt lat="48.29131" lon="-1.83898">
        <ele>110.8</ele>
        <time>2019-07-16T08:52:26Z</time>
      </trkpt>
      <trkpt lat="48.29136" lon="-1.83888">
        <ele>110.5</ele>
        <time>2019-07-16T08:52:27Z</time>
      </trkpt>
      <trkpt lat="48.2914" lon="-1.83877">
        <ele>110</ele>
        <time>2019-07-16T08:52:28Z</time>
      </trkpt>
      <trkpt lat="48.29144" lon="-1.83866">
        <ele>109.2</ele>
        <time>2019-07-16T08:52:29Z</time>
      </trkpt>
      <trkpt lat="48.29148" lon="-1.83856">
        <ele>108.3</ele>
        <time>2019-07-16T08:52:30Z</time>
      </trkpt>
      <trkpt lat="48.29151" lon="-1.83845">
        <ele>106.7</ele>
        <time>2019-07-16T08:52:31Z</time>
      </trkpt>
      <trkpt lat="48.29155" lon="-1.83834">
        <ele>105.9</ele>
        <time>2019-07-16T08:52:32Z</time>
      </trkpt>
      <trkpt lat="48.29159" lon="-1.83823">
        <ele>105.6</ele>
        <time>2019-07-16T08:52:33Z</time>
      </trkpt>
      <trkpt lat="48.29162" lon="-1.83812">
        <ele>105.2</ele>
        <time>2019-07-16T08:52:34Z</time>
      </trkpt>
      <trkpt lat="48.29165" lon="-1.83801">
        <ele>105.1</ele>
        <time>2019-07-16T08:52:35Z</time>
      </trkpt>
      <trkpt lat="48.29168" lon="-1.8379">
        <ele>104.5</ele>
        <time>2019-07-16T08:52:36Z</time>
      </trkpt>
      <trkpt lat="48.29171" lon="-1.83779">
        <ele>103.9</ele>
        <time>2019-07-16T08:52:37Z</time>
      </trkpt>
      <trkpt lat="48.29174" lon="-1.83768">
        <ele>103.4</ele>
        <time>2019-07-16T08:52:38Z</time>
      </trkpt>
      <trkpt lat="48.29176" lon="-1.83757">
        <ele>103.2</ele>
        <time>2019-07-16T08:52:39Z</time>
      </trkpt>
      <trkpt lat="48.29178" lon="-1.83746">
        <ele>102.1</ele>
        <time>2019-07-16T08:52:40Z</time>
      </trkpt>
      <trkpt lat="48.29181" lon="-1.83736">
        <ele>101.2</ele>
        <time>2019-07-16T08:52:41Z</time>
      </trkpt>
      <trkpt lat="48.29183" lon="-1.83726">
        <ele>100</ele>
        <time>2019-07-16T08:52:42Z</time>
      </trkpt>
      <trkpt lat="48.29185" lon="-1.83717">
        <ele>99.6</ele>
        <time>2019-07-16T08:52:43Z</time>
      </trkpt>
      <trkpt lat="48.29187" lon="-1.83709">
        <ele>99.6</ele>
        <time>2019-07-16T08:52:44Z</time>
      </trkpt>
      <trkpt lat="48.29189" lon="-1.837">
        <ele>99.3</ele>
        <time>2019-07-16T08:52:45Z</time>
      </trkpt>
      <trkpt lat="48.29191" lon="-1.83691">
        <ele>98.9</ele>
        <time>2019-07-16T08:52:46Z</time>
      </trkpt>
      <trkpt lat="48.29194" lon="-1.83681">
        <ele>98.6</ele>
        <time>2019-07-16T08:52:47Z</time>
      </trkpt>
      <trkpt lat="48.29196" lon="-1.83671">
        <ele>98.1</ele>
        <time>2019-07-16T08:52:48Z</time>
      </trkpt>
      <trkpt lat="48.29199" lon="-1.8366">
        <ele>97.7</ele>
        <time>2019-07-16T08:52:49Z</time>
      </trkpt>
      <trkpt lat="48.29201" lon="-1.83648">
        <ele>97.3</ele>
        <time>2019-07-16T08:52:50Z</time>
      </trkpt>
      <trkpt lat="48.29204" lon="-1.83637">
        <ele>96.8</ele>
        <time>2019-07-16T08:52:51Z</time>
      </trkpt>
      <trkpt lat="48.29206" lon="-1.83625">
        <ele>95.6</ele>
        <time>2019-07-16T08:52:52Z</time>
      </trkpt>
      <trkpt lat="48.29209" lon="-1.83613">
        <ele>95</ele>
        <time>2019-07-16T08:52:53Z</time>
      </trkpt>
      <trkpt lat="48.29213" lon="-1.83602">
        <ele>94.4</ele>
        <time>2019-07-16T08:52:54Z</time>
      </trkpt>
      <trkpt lat="48.29216" lon="-1.83592">
        <ele>93.9</ele>
        <time>2019-07-16T08:52:55Z</time>
      </trkpt>
      <trkpt lat="48.2922" lon="-1.83582">
        <ele>93.3</ele>
        <time>2019-07-16T08:52:56Z</time>
      </trkpt>
      <trkpt lat="48.29223" lon="-1.83573">
        <ele>92.7</ele>
        <time>2019-07-16T08:52:57Z</time>
      </trkpt>
      <trkpt lat="48.29226" lon="-1.83564">
        <ele>92.8</ele>
        <time>2019-07-16T08:52:58Z</time>
      </trkpt>
      <trkpt lat="48.29229" lon="-1.83557">
        <ele>92.8</ele>
        <time>2019-07-16T08:52:59Z</time>
      </trkpt>
      <trkpt lat="48.29232" lon="-1.83552">
        <ele>92.5</ele>
        <time>2019-07-16T08:53:00Z</time>
      </trkpt>
      <trkpt lat="48.29234" lon="-1.83547">
        <ele>92.1</ele>
        <time>2019-07-16T08:53:01Z</time>
      </trkpt>
      <trkpt lat="48.29236" lon="-1.83544">
        <ele>91.7</ele>
        <time>2019-07-16T08:53:02Z</time>
      </trkpt>
      <trkpt lat="48.29238" lon="-1.83541">
        <ele>91.2</ele>
        <time>2019-07-16T08:53:03Z</time>
      </trkpt>
      <trkpt lat="48.2924" lon="-1.83538">
        <ele>90.7</ele>
        <time>2019-07-16T08:53:04Z</time>
      </trkpt>
      <trkpt lat="48.2924" lon="-1.83533">
        <ele>90.1</ele>
        <time>2019-07-16T08:53:05Z</time>
      </trkpt>
      <trkpt lat="48.29239" lon="-1.83529">
        <ele>90.2</ele>
        <time>2019-07-16T08:53:06Z</time>
      </trkpt>
      <trkpt lat="48.29238" lon="-1.83525">
        <ele>89.9</ele>
        <time>2019-07-16T08:53:07Z</time>
      </trkpt>
      <trkpt lat="48.29237" lon="-1.8352">
        <ele>89.6</ele>
        <time>2019-07-16T08:53:08Z</time>
      </trkpt>
      <trkpt lat="48.29237" lon="-1.83516">
        <ele>89.6</ele>
        <time>2019-07-16T08:53:09Z</time>
      </trkpt>
      <trkpt lat="48.29236" lon="-1.83511">
        <ele>89.7</ele>
        <time>2019-07-16T08:53:10Z</time>
      </trkpt>
      <trkpt lat="48.29236" lon="-1.83507">
        <ele>89.7</ele>
        <time>2019-07-16T08:53:11Z</time>
      </trkpt>
      <trkpt lat="48.29237" lon="-1.83502">
        <ele>90.1</ele>
        <time>2019-07-16T08:53:12Z</time>
      </trkpt>
      <trkpt lat="48.29237" lon="-1.83498">
        <ele>90.3</ele>
        <time>2019-07-16T08:53:13Z</time>
      </trkpt>
      <trkpt lat="48.29237" lon="-1.83493">
        <ele>90.1</ele>
        <time>2019-07-16T08:53:14Z</time>
      </trkpt>
      <trkpt lat="48.29237" lon="-1.83488">
        <ele>90.5</ele>
        <time>2019-07-16T08:53:15Z</time>
      </trkpt>
      <trkpt lat="48.29238" lon="-1.83483">
        <ele>90.7</ele>
        <time>2019-07-16T08:53:16Z</time>
      </trkpt>
      <trkpt lat="48.29238" lon="-1.83478">
        <ele>90.4</ele>
        <time>2019-07-16T08:53:17Z</time>
      </trkpt>
      <trkpt lat="48.29238" lon="-1.83473">
        <ele>89.5</ele>
        <time>2019-07-16T08:53:18Z</time>
      </trkpt>
      <trkpt lat="48.29238" lon="-1.83468">
        <ele>89.7</ele>
        <time>2019-07-16T08:53:19Z</time>
      </trkpt>
      <trkpt lat="48.29239" lon="-1.83464">
        <ele>89.9</ele>
        <time>2019-07-16T08:53:20Z</time>
      </trkpt>
      <trkpt lat="48.29239" lon="-1.8346">
        <ele>90.7</ele>
        <time>2019-07-16T08:53:21Z</time>
      </trkpt>
      <trkpt lat="48.2924" lon="-1.83456">
        <ele>91.5</ele>
        <time>2019-07-16T08:53:22Z</time>
      </trkpt>
      <trkpt lat="48.2924" lon="-1.83451">
        <ele>91.5</ele>
        <time>2019-07-16T08:53:23Z</time>
      </trkpt>
      <trkpt lat="48.29241" lon="-1.83447">
        <ele>91.8</ele>
        <time>2019-07-16T08:53:24Z</time>
      </trkpt>
      <trkpt lat="48.29242" lon="-1.83442">
        <ele>92.2</ele>
        <time>2019-07-16T08:53:25Z</time>
      </trkpt>
      <trkpt lat="48.29243" lon="-1.83438">
        <ele>93</ele>
        <time>2019-07-16T08:53:26Z</time>
      </trkpt>
      <trkpt lat="48.29244" lon="-1.83434">
        <ele>93.2</ele>
        <time>2019-07-16T08:53:27Z</time>
      </trkpt>
      <trkpt lat="48.29244" lon="-1.83429">
        <ele>93.5</ele>
        <time>2019-07-16T08:53:28Z</time>
      </trkpt>
      <trkpt lat="48.29245" lon="-1.83425">
        <ele>93.9</ele>
        <time>2019-07-16T08:53:29Z</time>
      </trkpt>
      <trkpt lat="48.29245" lon="-1.83421">
        <ele>93.7</ele>
        <time>2019-07-16T08:53:30Z</time>
      </trkpt>
      <trkpt lat="48.29245" lon="-1.83416">
        <ele>93.6</ele>
        <time>2019-07-16T08:53:31Z</time>
      </trkpt>
      <trkpt lat="48.29246" lon="-1.83412">
        <ele>93.8</ele>
        <time>2019-07-16T08:53:32Z</time>
      </trkpt>
      <trkpt lat="48.29246" lon="-1.83408">
        <ele>94.3</ele>
        <time>2019-07-16T08:53:33Z</time>
      </trkpt>
      <trkpt lat="48.29247" lon="-1.83404">
        <ele>94.9</ele>
        <time>2019-07-16T08:53:34Z</time>
      </trkpt>
      <trkpt lat="48.29247" lon="-1.834">
        <ele>95.6</ele>
        <time>2019-07-16T08:53:35Z</time>
      </trkpt>
      <trkpt lat="48.29248" lon="-1.83395">
        <ele>96.7</ele>
        <time>2019-07-16T08:53:36Z</time>
      </trkpt>
      <trkpt lat="48.29249" lon="-1.83391">
        <ele>97.2</ele>
        <time>2019-07-16T08:53:37Z</time>
      </trkpt>
      <trkpt lat="48.29249" lon="-1.83387">
        <ele>97.3</ele>
        <time>2019-07-16T08:53:38Z</time>
      </trkpt>
      <trkpt lat="48.29249" lon="-1.83384">
        <ele>96.7</ele>
        <time>2019-07-16T08:53:39Z</time>
      </trkpt>
      <trkpt lat="48.29249" lon="-1.8338">
        <ele>96.5</ele>
        <time>2019-07-16T08:53:40Z</time>
      </trkpt>
      <trkpt lat="48.2925" lon="-1.83376">
        <ele>96.3</ele>
        <time>2019-07-16T08:53:41Z</time>
      </trkpt>
      <trkpt lat="48.2925" lon="-1.83371">
        <ele>96.7</ele>
        <time>2019-07-16T08:53:42Z</time>
      </trkpt>
      <trkpt lat="48.2925" lon="-1.83367">
        <ele>97.2</ele>
        <time>2019-07-16T08:53:43Z</time>
      </trkpt>
      <trkpt lat="48.29251" lon="-1.83362">
        <ele>97.5</ele>
        <time>2019-07-16T08:53:44Z</time>
      </trkpt>
      <trkpt lat="48.29252" lon="-1.83358">
        <ele>97.7</ele>
        <time>2019-07-16T08:53:45Z</time>
      </trkpt>
      <trkpt lat="48.29253" lon="-1.83355">
        <ele>97.6</ele>
        <time>2019-07-16T08:53:46Z</time>
      </trkpt>
      <trkpt lat="48.29254" lon="-1.83351">
        <ele>97.5</ele>
        <time>2019-07-16T08:53:47Z</time>
      </trkpt>
      <trkpt lat="48.29255" lon="-1.83347">
        <ele>97.5</ele>
        <time>2019-07-16T08:53:48Z</time>
      </trkpt>
      <trkpt lat="48.29255" lon="-1.83343">
        <ele>97.5</ele>
        <time>2019-07-16T08:53:49Z</time>
      </trkpt>
      <trkpt lat="48.29255" lon="-1.8334">
        <ele>97.3</ele>
        <time>2019-07-16T08:53:50Z</time>
      </trkpt>
      <trkpt lat="48.29255" lon="-1.83336">
        <ele>96.7</ele>
        <time>2019-07-16T08:53:51Z</time>
      </trkpt>
      <trkpt lat="48.29255" lon="-1.83333">
        <ele>96.8</ele>
        <time>2019-07-16T08:53:52Z</time>
      </trkpt>
      <trkpt lat="48.29255" lon="-1.83329">
        <ele>96.5</ele>
        <time>2019-07-16T08:53:53Z</time>
      </trkpt>
      <trkpt lat="48.29255" lon="-1.83325">
        <ele>96.3</ele>
        <time>2019-07-16T08:53:54Z</time>
      </trkpt>
      <trkpt lat="48.29254" lon="-1.83321">
        <ele>96</ele>
        <time>2019-07-16T08:53:55Z</time>
      </trkpt>
      <trkpt lat="48.29253" lon="-1.83317">
        <ele>96.1</ele>
        <time>2019-07-16T08:53:56Z</time>
      </trkpt>
      <trkpt lat="48.29253" lon="-1.83313">
        <ele>96.5</ele>
        <time>2019-07-16T08:53:57Z</time>
      </trkpt>
      <trkpt lat="48.29254" lon="-1.83308">
        <ele>96.8</ele>
        <time>2019-07-16T08:53:58Z</time>
      </trkpt>
      <trkpt lat="48.29253" lon="-1.83304">
        <ele>97.1</ele>
        <time>2019-07-16T08:53:59Z</time>
      </trkpt>
      <trkpt lat="48.29252" lon="-1.833">
        <ele>97.6</ele>
        <time>2019-07-16T08:54:00Z</time>
      </trkpt>
      <trkpt lat="48.29252" lon="-1.83296">
        <ele>98.1</ele>
        <time>2019-07-16T08:54:01Z</time>
      </trkpt>
      <trkpt lat="48.29252" lon="-1.83292">
        <ele>98.7</ele>
        <time>2019-07-16T08:54:02Z</time>
      </trkpt>
      <trkpt lat="48.29252" lon="-1.83288">
        <ele>99.3</ele>
        <time>2019-07-16T08:54:03Z</time>
      </trkpt>
      <trkpt lat="48.29253" lon="-1.83283">
        <ele>100</ele>
        <time>2019-07-16T08:54:04Z</time>
      </trkpt>
      <trkpt lat="48.29253" lon="-1.83279">
        <ele>100.4</ele>
        <time>2019-07-16T08:54:05Z</time>
      </trkpt>
      <trkpt lat="48.29253" lon="-1.83275">
        <ele>101</ele>
        <time>2019-07-16T08:54:06Z</time>
      </trkpt>
      <trkpt lat="48.29253" lon="-1.83271">
        <ele>101.5</ele>
        <time>2019-07-16T08:54:07Z</time>
      </trkpt>
      <trkpt lat="48.29253" lon="-1.83267">
        <ele>102</ele>
        <time>2019-07-16T08:54:08Z</time>
      </trkpt>
      <trkpt lat="48.29253" lon="-1.83263">
        <ele>102</ele>
        <time>2019-07-16T08:54:09Z</time>
      </trkpt>
      <trkpt lat="48.29253" lon="-1.8326">
        <ele>102.1</ele>
        <time>2019-07-16T08:54:10Z</time>
      </trkpt>
      <trkpt lat="48.29252" lon="-1.83256">
        <ele>102.4</ele>
        <time>2019-07-16T08:54:11Z</time>
      </trkpt>
      <trkpt lat="48.2925" lon="-1.83253">
        <ele>102.9</ele>
        <time>2019-07-16T08:54:12Z</time>
      </trkpt>
      <trkpt lat="48.2925" lon="-1.83249">
        <ele>103.5</ele>
        <time>2019-07-16T08:54:13Z</time>
      </trkpt>
      <trkpt lat="48.29249" lon="-1.83245">
        <ele>104.1</ele>
        <time>2019-07-16T08:54:14Z</time>
      </trkpt>
      <trkpt lat="48.29248" lon="-1.83241">
        <ele>104.2</ele>
        <time>2019-07-16T08:54:15Z</time>
      </trkpt>
      <trkpt lat="48.29248" lon="-1.83237">
        <ele>104.4</ele>
        <time>2019-07-16T08:54:16Z</time>
      </trkpt>
      <trkpt lat="48.29247" lon="-1.83233">
        <ele>104.7</ele>
        <time>2019-07-16T08:54:17Z</time>
      </trkpt>
      <trkpt lat="48.29247" lon="-1.83229">
        <ele>105</ele>
        <time>2019-07-16T08:54:18Z</time>
      </trkpt>
      <trkpt lat="48.29247" lon="-1.83225">
        <ele>104.9</ele>
        <time>2019-07-16T08:54:19Z</time>
      </trkpt>
      <trkpt lat="48.29246" lon="-1.83221">
        <ele>104.8</ele>
        <time>2019-07-16T08:54:20Z</time>
      </trkpt>
      <trkpt lat="48.29245" lon="-1.83218">
        <ele>104.8</ele>
        <time>2019-07-16T08:54:21Z</time>
      </trkpt>
      <trkpt lat="48.29244" lon="-1.83214">
        <ele>104.8</ele>
        <time>2019-07-16T08:54:22Z</time>
      </trkpt>
      <trkpt lat="48.29243" lon="-1.8321">
        <ele>104.5</ele>
        <time>2019-07-16T08:54:23Z</time>
      </trkpt>
      <trkpt lat="48.29242" lon="-1.83206">
        <ele>104.2</ele>
        <time>2019-07-16T08:54:24Z</time>
      </trkpt>
      <trkpt lat="48.29241" lon="-1.83202">
        <ele>103.8</ele>
        <time>2019-07-16T08:54:25Z</time>
      </trkpt>
      <trkpt lat="48.29241" lon="-1.83198">
        <ele>104</ele>
        <time>2019-07-16T08:54:26Z</time>
      </trkpt>
      <trkpt lat="48.29241" lon="-1.83194">
        <ele>104.4</ele>
        <time>2019-07-16T08:54:27Z</time>
      </trkpt>
      <trkpt lat="48.2924" lon="-1.8319">
        <ele>104.6</ele>
        <time>2019-07-16T08:54:28Z</time>
      </trkpt>
      <trkpt lat="48.2924" lon="-1.83186">
        <ele>104.9</ele>
        <time>2019-07-16T08:54:29Z</time>
      </trkpt>
      <trkpt lat="48.29237" lon="-1.83183">
        <ele>104.1</ele>
        <time>2019-07-16T08:54:30Z</time>
      </trkpt>
      <trkpt lat="48.29236" lon="-1.83179">
        <ele>103.7</ele>
        <time>2019-07-16T08:54:31Z</time>
      </trkpt>
      <trkpt lat="48.29235" lon="-1.83175">
        <ele>103.3</ele>
        <time>2019-07-16T08:54:32Z</time>
      </trkpt>
      <trkpt lat="48.29234" lon="-1.83171">
        <ele>103.1</ele>
        <time>2019-07-16T08:54:33Z</time>
      </trkpt>
      <trkpt lat="48.29234" lon="-1.83168">
        <ele>102.7</ele>
        <time>2019-07-16T08:54:34Z</time>
      </trkpt>
      <trkpt lat="48.29233" lon="-1.83164">
        <ele>102.2</ele>
        <time>2019-07-16T08:54:35Z</time>
      </trkpt>
      <trkpt lat="48.29232" lon="-1.83161">
        <ele>101.7</ele>
        <time>2019-07-16T08:54:36Z</time>
      </trkpt>
      <trkpt lat="48.29231" lon="-1.83157">
        <ele>100.8</ele>
        <time>2019-07-16T08:54:37Z</time>
      </trkpt>
      <trkpt lat="48.29231" lon="-1.83154">
        <ele>99.7</ele>
        <time>2019-07-16T08:54:38Z</time>
      </trkpt>
      <trkpt lat="48.2923" lon="-1.8315">
        <ele>99.2</ele>
        <time>2019-07-16T08:54:39Z</time>
      </trkpt>
      <trkpt lat="48.29229" lon="-1.83146">
        <ele>98.4</ele>
        <time>2019-07-16T08:54:40Z</time>
      </trkpt>
      <trkpt lat="48.29228" lon="-1.83142">
        <ele>98.2</ele>
        <time>2019-07-16T08:54:41Z</time>
      </trkpt>
      <trkpt lat="48.29227" lon="-1.83138">
        <ele>98.1</ele>
        <time>2019-07-16T08:54:42Z</time>
      </trkpt>
      <trkpt lat="48.29227" lon="-1.83134">
        <ele>98</ele>
        <time>2019-07-16T08:54:43Z</time>
      </trkpt>
      <trkpt lat="48.29226" lon="-1.8313">
        <ele>98.1</ele>
        <time>2019-07-16T08:54:44Z</time>
      </trkpt>
      <trkpt lat="48.29226" lon="-1.83126">
        <ele>98.1</ele>
        <time>2019-07-16T08:54:45Z</time>
      </trkpt>
      <trkpt lat="48.29226" lon="-1.83121">
        <ele>98.3</ele>
        <time>2019-07-16T08:54:46Z</time>
      </trkpt>
      <trkpt lat="48.29226" lon="-1.83117">
        <ele>98.7</ele>
        <time>2019-07-16T08:54:47Z</time>
      </trkpt>
      <trkpt lat="48.29226" lon="-1.83112">
        <ele>99</ele>
        <time>2019-07-16T08:54:48Z</time>
      </trkpt>
      <trkpt lat="48.29225" lon="-1.83107">
        <ele>99.1</ele>
        <time>2019-07-16T08:54:49Z</time>
      </trkpt>
      <trkpt lat="48.29225" lon="-1.83102">
        <ele>99.2</ele>
        <time>2019-07-16T08:54:50Z</time>
      </trkpt>
      <trkpt lat="48.29224" lon="-1.83097">
        <ele>99.3</ele>
        <time>2019-07-16T08:54:51Z</time>
      </trkpt>
      <trkpt lat="48.29224" lon="-1.83093">
        <ele>100.2</ele>
        <time>2019-07-16T08:54:52Z</time>
      </trkpt>
      <trkpt lat="48.29224" lon="-1.83089">
        <ele>101.2</ele>
        <time>2019-07-16T08:54:53Z</time>
      </trkpt>
      <trkpt lat="48.29224" lon="-1.83085">
        <ele>102.4</ele>
        <time>2019-07-16T08:54:54Z</time>
      </trkpt>
      <trkpt lat="48.29223" lon="-1.83081">
        <ele>103.3</ele>
        <time>2019-07-16T08:54:55Z</time>
      </trkpt>
      <trkpt lat="48.29223" lon="-1.83077">
        <ele>104.2</ele>
        <time>2019-07-16T08:54:56Z</time>
      </trkpt>
      <trkpt lat="48.29222" lon="-1.83073">
        <ele>104.7</ele>
        <time>2019-07-16T08:54:57Z</time>
      </trkpt>
      <trkpt lat="48.29221" lon="-1.83069">
        <ele>105.3</ele>
        <time>2019-07-16T08:54:58Z</time>
      </trkpt>
      <trkpt lat="48.29221" lon="-1.83064">
        <ele>105.3</ele>
        <time>2019-07-16T08:54:59Z</time>
      </trkpt>
      <trkpt lat="48.29221" lon="-1.8306">
        <ele>105.2</ele>
        <time>2019-07-16T08:55:00Z</time>
      </trkpt>
      <trkpt lat="48.29221" lon="-1.83057">
        <ele>105.2</ele>
        <time>2019-07-16T08:55:01Z</time>
      </trkpt>
      <trkpt lat="48.29221" lon="-1.83053">
        <ele>105.5</ele>
        <time>2019-07-16T08:55:02Z</time>
      </trkpt>
      <trkpt lat="48.29219" lon="-1.8305">
        <ele>105.5</ele>
        <time>2019-07-16T08:55:03Z</time>
      </trkpt>
      <trkpt lat="48.29217" lon="-1.83046">
        <ele>105.6</ele>
        <time>2019-07-16T08:55:04Z</time>
      </trkpt>
      <trkpt lat="48.29216" lon="-1.83042">
        <ele>106</ele>
        <time>2019-07-16T08:55:05Z</time>
      </trkpt>
      <trkpt lat="48.29215" lon="-1.83039">
        <ele>107.1</ele>
        <time>2019-07-16T08:55:06Z</time>
      </trkpt>
      <trkpt lat="48.29214" lon="-1.83036">
        <ele>107.2</ele>
        <time>2019-07-16T08:55:07Z</time>
      </trkpt>
      <trkpt lat="48.29212" lon="-1.83032">
        <ele>106.8</ele>
        <time>2019-07-16T08:55:08Z</time>
      </trkpt>
      <trkpt lat="48.29211" lon="-1.83029">
        <ele>106.6</ele>
        <time>2019-07-16T08:55:09Z</time>
      </trkpt>
      <trkpt lat="48.29211" lon="-1.83026">
        <ele>107</ele>
        <time>2019-07-16T08:55:10Z</time>
      </trkpt>
      <trkpt lat="48.2921" lon="-1.83022">
        <ele>106.8</ele>
        <time>2019-07-16T08:55:11Z</time>
      </trkpt>
      <trkpt lat="48.29208" lon="-1.83018">
        <ele>106.9</ele>
        <time>2019-07-16T08:55:12Z</time>
      </trkpt>
      <trkpt lat="48.29207" lon="-1.83015">
        <ele>107.1</ele>
        <time>2019-07-16T08:55:13Z</time>
      </trkpt>
      <trkpt lat="48.29207" lon="-1.83011">
        <ele>107</ele>
        <time>2019-07-16T08:55:14Z</time>
      </trkpt>
      <trkpt lat="48.29206" lon="-1.83008">
        <ele>107.1</ele>
        <time>2019-07-16T08:55:15Z</time>
      </trkpt>
      <trkpt lat="48.29205" lon="-1.83004">
        <ele>107.4</ele>
        <time>2019-07-16T08:55:16Z</time>
      </trkpt>
      <trkpt lat="48.29204" lon="-1.83">
        <ele>107.5</ele>
        <time>2019-07-16T08:55:17Z</time>
      </trkpt>
      <trkpt lat="48.29202" lon="-1.82996">
        <ele>107.5</ele>
        <time>2019-07-16T08:55:18Z</time>
      </trkpt>
      <trkpt lat="48.29201" lon="-1.82992">
        <ele>107.3</ele>
        <time>2019-07-16T08:55:19Z</time>
      </trkpt>
      <trkpt lat="48.29199" lon="-1.82988">
        <ele>107.2</ele>
        <time>2019-07-16T08:55:20Z</time>
      </trkpt>
      <trkpt lat="48.29197" lon="-1.82986">
        <ele>107</ele>
        <time>2019-07-16T08:55:21Z</time>
      </trkpt>
      <trkpt lat="48.29196" lon="-1.82984">
        <ele>106.8</ele>
        <time>2019-07-16T08:55:22Z</time>
      </trkpt>
      <trkpt lat="48.29195" lon="-1.82982">
        <ele>106.9</ele>
        <time>2019-07-16T08:55:23Z</time>
      </trkpt>
      <trkpt lat="48.29194" lon="-1.8298">
        <ele>107</ele>
        <time>2019-07-16T08:55:24Z</time>
      </trkpt>
      <trkpt lat="48.29193" lon="-1.82976">
        <ele>107.1</ele>
        <time>2019-07-16T08:55:25Z</time>
      </trkpt>
      <trkpt lat="48.29192" lon="-1.82972">
        <ele>107.2</ele>
        <time>2019-07-16T08:55:26Z</time>
      </trkpt>
      <trkpt lat="48.29192" lon="-1.82969">
        <ele>107.4</ele>
        <time>2019-07-16T08:55:27Z</time>
      </trkpt>
      <trkpt lat="48.2919" lon="-1.82966">
        <ele>107.6</ele>
        <time>2019-07-16T08:55:28Z</time>
      </trkpt>
      <trkpt lat="48.29189" lon="-1.82964">
        <ele>107.8</ele>
        <time>2019-07-16T08:55:29Z</time>
      </trkpt>
      <trkpt lat="48.29188" lon="-1.82961">
        <ele>108.1</ele>
        <time>2019-07-16T08:55:30Z</time>
      </trkpt>
      <trkpt lat="48.29187" lon="-1.82958">
        <ele>108.4</ele>
        <time>2019-07-16T08:55:31Z</time>
      </trkpt>
      <trkpt lat="48.29186" lon="-1.82954">
        <ele>108.6</ele>
        <time>2019-07-16T08:55:32Z</time>
      </trkpt>
      <trkpt lat="48.29186" lon="-1.82951">
        <ele>109</ele>
        <time>2019-07-16T08:55:33Z</time>
      </trkpt>
      <trkpt lat="48.29186" lon="-1.82948">
        <ele>108.7</ele>
        <time>2019-07-16T08:55:34Z</time>
      </trkpt>
      <trkpt lat="48.29185" lon="-1.82945">
        <ele>108.9</ele>
        <time>2019-07-16T08:55:35Z</time>
      </trkpt>
      <trkpt lat="48.29185" lon="-1.82941">
        <ele>109.2</ele>
        <time>2019-07-16T08:55:36Z</time>
      </trkpt>
      <trkpt lat="48.29184" lon="-1.82938">
        <ele>109.6</ele>
        <time>2019-07-16T08:55:37Z</time>
      </trkpt>
      <trkpt lat="48.29183" lon="-1.82935">
        <ele>110.1</ele>
        <time>2019-07-16T08:55:38Z</time>
      </trkpt>
      <trkpt lat="48.29182" lon="-1.82932">
        <ele>111.7</ele>
        <time>2019-07-16T08:55:39Z</time>
      </trkpt>
      <trkpt lat="48.29181" lon="-1.82928">
        <ele>112.2</ele>
        <time>2019-07-16T08:55:40Z</time>
      </trkpt>
      <trkpt lat="48.29179" lon="-1.82924">
        <ele>112.7</ele>
        <time>2019-07-16T08:55:41Z</time>
      </trkpt>
      <trkpt lat="48.29179" lon="-1.8292">
        <ele>112.1</ele>
        <time>2019-07-16T08:55:42Z</time>
      </trkpt>
      <trkpt lat="48.29178" lon="-1.82917">
        <ele>112</ele>
        <time>2019-07-16T08:55:43Z</time>
      </trkpt>
      <trkpt lat="48.29178" lon="-1.82914">
        <ele>112.2</ele>
        <time>2019-07-16T08:55:44Z</time>
      </trkpt>
      <trkpt lat="48.29176" lon="-1.8291">
        <ele>112.6</ele>
        <time>2019-07-16T08:55:45Z</time>
      </trkpt>
      <trkpt lat="48.29175" lon="-1.82907">
        <ele>112.7</ele>
        <time>2019-07-16T08:55:46Z</time>
      </trkpt>
      <trkpt lat="48.29174" lon="-1.82902">
        <ele>113.1</ele>
        <time>2019-07-16T08:55:47Z</time>
      </trkpt>
      <trkpt lat="48.29173" lon="-1.82899">
        <ele>113.2</ele>
        <time>2019-07-16T08:55:48Z</time>
      </trkpt>
      <trkpt lat="48.29173" lon="-1.82895">
        <ele>113</ele>
        <time>2019-07-16T08:55:49Z</time>
      </trkpt>
      <trkpt lat="48.29173" lon="-1.82892">
        <ele>113.2</ele>
        <time>2019-07-16T08:55:50Z</time>
      </trkpt>
      <trkpt lat="48.29172" lon="-1.82889">
        <ele>113.6</ele>
        <time>2019-07-16T08:55:51Z</time>
      </trkpt>
      <trkpt lat="48.29171" lon="-1.82885">
        <ele>114</ele>
        <time>2019-07-16T08:55:52Z</time>
      </trkpt>
      <trkpt lat="48.2917" lon="-1.82881">
        <ele>114.1</ele>
        <time>2019-07-16T08:55:53Z</time>
      </trkpt>
      <trkpt lat="48.29169" lon="-1.82877">
        <ele>113.8</ele>
        <time>2019-07-16T08:55:54Z</time>
      </trkpt>
      <trkpt lat="48.29167" lon="-1.82872">
        <ele>113.5</ele>
        <time>2019-07-16T08:55:55Z</time>
      </trkpt>
      <trkpt lat="48.29166" lon="-1.82868">
        <ele>113.4</ele>
        <time>2019-07-16T08:55:56Z</time>
      </trkpt>
      <trkpt lat="48.29164" lon="-1.82863">
        <ele>113.5</ele>
        <time>2019-07-16T08:55:57Z</time>
      </trkpt>
      <trkpt lat="48.29163" lon="-1.82859">
        <ele>113.9</ele>
        <time>2019-07-16T08:55:58Z</time>
      </trkpt>
      <trkpt lat="48.29162" lon="-1.82854">
        <ele>114.1</ele>
        <time>2019-07-16T08:55:59Z</time>
      </trkpt>
      <trkpt lat="48.2916" lon="-1.82849">
        <ele>114.2</ele>
        <time>2019-07-16T08:56:00Z</time>
      </trkpt>
      <trkpt lat="48.29159" lon="-1.82843">
        <ele>114.5</ele>
        <time>2019-07-16T08:56:01Z</time>
      </trkpt>
      <trkpt lat="48.29157" lon="-1.82837">
        <ele>114.5</ele>
        <time>2019-07-16T08:56:02Z</time>
      </trkpt>
      <trkpt lat="48.29155" lon="-1.82831">
        <ele>114.8</ele>
        <time>2019-07-16T08:56:03Z</time>
      </trkpt>
      <trkpt lat="48.29154" lon="-1.82825">
        <ele>114.8</ele>
        <time>2019-07-16T08:56:04Z</time>
      </trkpt>
      <trkpt lat="48.29152" lon="-1.82818">
        <ele>114.7</ele>
        <time>2019-07-16T08:56:05Z</time>
      </trkpt>
      <trkpt lat="48.29151" lon="-1.82812">
        <ele>114.5</ele>
        <time>2019-07-16T08:56:06Z</time>
      </trkpt>
      <trkpt lat="48.2915" lon="-1.82804">
        <ele>114.1</ele>
        <time>2019-07-16T08:56:07Z</time>
      </trkpt>
      <trkpt lat="48.2915" lon="-1.82797">
        <ele>113.7</ele>
        <time>2019-07-16T08:56:08Z</time>
      </trkpt>
      <trkpt lat="48.29149" lon="-1.82789">
        <ele>113.1</ele>
        <time>2019-07-16T08:56:09Z</time>
      </trkpt>
      <trkpt lat="48.29149" lon="-1.82781">
        <ele>112.5</ele>
        <time>2019-07-16T08:56:10Z</time>
      </trkpt>
      <trkpt lat="48.29148" lon="-1.82774">
        <ele>112.4</ele>
        <time>2019-07-16T08:56:11Z</time>
      </trkpt>
      <trkpt lat="48.29147" lon="-1.82765">
        <ele>112.2</ele>
        <time>2019-07-16T08:56:12Z</time>
      </trkpt>
      <trkpt lat="48.29146" lon="-1.82757">
        <ele>112.1</ele>
        <time>2019-07-16T08:56:13Z</time>
      </trkpt>
      <trkpt lat="48.29145" lon="-1.82749">
        <ele>111.9</ele>
        <time>2019-07-16T08:56:14Z</time>
      </trkpt>
      <trkpt lat="48.29145" lon="-1.82741">
        <ele>112</ele>
        <time>2019-07-16T08:56:15Z</time>
      </trkpt>
      <trkpt lat="48.29144" lon="-1.82732">
        <ele>111.6</ele>
        <time>2019-07-16T08:56:16Z</time>
      </trkpt>
      <trkpt lat="48.29144" lon="-1.82724">
        <ele>111.4</ele>
        <time>2019-07-16T08:56:17Z</time>
      </trkpt>
      <trkpt lat="48.29144" lon="-1.82714">
        <ele>111.3</ele>
        <time>2019-07-16T08:56:18Z</time>
      </trkpt>
      <trkpt lat="48.29143" lon="-1.82705">
        <ele>111</ele>
        <time>2019-07-16T08:56:19Z</time>
      </trkpt>
      <trkpt lat="48.29142" lon="-1.82697">
        <ele>111</ele>
        <time>2019-07-16T08:56:20Z</time>
      </trkpt>
      <trkpt lat="48.29142" lon="-1.82688">
        <ele>110.7</ele>
        <time>2019-07-16T08:56:21Z</time>
      </trkpt>
      <trkpt lat="48.29142" lon="-1.82679">
        <ele>110.2</ele>
        <time>2019-07-16T08:56:22Z</time>
      </trkpt>
      <trkpt lat="48.29142" lon="-1.8267">
        <ele>109.8</ele>
        <time>2019-07-16T08:56:23Z</time>
      </trkpt>
      <trkpt lat="48.29141" lon="-1.82662">
        <ele>109.3</ele>
        <time>2019-07-16T08:56:24Z</time>
      </trkpt>
      <trkpt lat="48.29141" lon="-1.82653">
        <ele>108.9</ele>
        <time>2019-07-16T08:56:25Z</time>
      </trkpt>
      <trkpt lat="48.29141" lon="-1.82645">
        <ele>107.8</ele>
        <time>2019-07-16T08:56:26Z</time>
      </trkpt>
      <trkpt lat="48.29141" lon="-1.82637">
        <ele>107</ele>
        <time>2019-07-16T08:56:27Z</time>
      </trkpt>
      <trkpt lat="48.2914" lon="-1.82631">
        <ele>107.6</ele>
        <time>2019-07-16T08:56:28Z</time>
      </trkpt>
      <trkpt lat="48.29139" lon="-1.82625">
        <ele>107.5</ele>
        <time>2019-07-16T08:56:29Z</time>
      </trkpt>
      <trkpt lat="48.29138" lon="-1.82621">
        <ele>107.7</ele>
        <time>2019-07-16T08:56:30Z</time>
      </trkpt>
      <trkpt lat="48.29137" lon="-1.82615">
        <ele>107.8</ele>
        <time>2019-07-16T08:56:31Z</time>
      </trkpt>
      <trkpt lat="48.29137" lon="-1.8261">
        <ele>107.2</ele>
        <time>2019-07-16T08:56:32Z</time>
      </trkpt>
      <trkpt lat="48.29139" lon="-1.82604">
        <ele>106.9</ele>
        <time>2019-07-16T08:56:33Z</time>
      </trkpt>
      <trkpt lat="48.29141" lon="-1.826">
        <ele>106.3</ele>
        <time>2019-07-16T08:56:34Z</time>
      </trkpt>
      <trkpt lat="48.29141" lon="-1.82594">
        <ele>106.1</ele>
        <time>2019-07-16T08:56:35Z</time>
      </trkpt>
      <trkpt lat="48.29142" lon="-1.82589">
        <ele>105.8</ele>
        <time>2019-07-16T08:56:36Z</time>
      </trkpt>
      <trkpt lat="48.29142" lon="-1.82582">
        <ele>105.4</ele>
        <time>2019-07-16T08:56:37Z</time>
      </trkpt>
      <trkpt lat="48.29142" lon="-1.82577">
        <ele>105.2</ele>
        <time>2019-07-16T08:56:38Z</time>
      </trkpt>
      <trkpt lat="48.29142" lon="-1.82571">
        <ele>105</ele>
        <time>2019-07-16T08:56:39Z</time>
      </trkpt>
      <trkpt lat="48.29142" lon="-1.82565">
        <ele>105</ele>
        <time>2019-07-16T08:56:40Z</time>
      </trkpt>
      <trkpt lat="48.29143" lon="-1.8256">
        <ele>105</ele>
        <time>2019-07-16T08:56:41Z</time>
      </trkpt>
      <trkpt lat="48.29144" lon="-1.82555">
        <ele>105.1</ele>
        <time>2019-07-16T08:56:42Z</time>
      </trkpt>
      <trkpt lat="48.29144" lon="-1.82551">
        <ele>105.3</ele>
        <time>2019-07-16T08:56:43Z</time>
      </trkpt>
      <trkpt lat="48.29145" lon="-1.82546">
        <ele>105.2</ele>
        <time>2019-07-16T08:56:44Z</time>
      </trkpt>
      <trkpt lat="48.29146" lon="-1.82542">
        <ele>105.4</ele>
        <time>2019-07-16T08:56:45Z</time>
      </trkpt>
      <trkpt lat="48.29147" lon="-1.82537">
        <ele>105.6</ele>
        <time>2019-07-16T08:56:46Z</time>
      </trkpt>
      <trkpt lat="48.29149" lon="-1.82533">
        <ele>105.9</ele>
        <time>2019-07-16T08:56:47Z</time>
      </trkpt>
      <trkpt lat="48.2915" lon="-1.82528">
        <ele>106</ele>
        <time>2019-07-16T08:56:48Z</time>
      </trkpt>
      <trkpt lat="48.29152" lon="-1.82523">
        <ele>106.2</ele>
        <time>2019-07-16T08:56:49Z</time>
      </trkpt>
      <trkpt lat="48.29153" lon="-1.82518">
        <ele>106.2</ele>
        <time>2019-07-16T08:56:50Z</time>
      </trkpt>
      <trkpt lat="48.29155" lon="-1.82514">
        <ele>106.3</ele>
        <time>2019-07-16T08:56:51Z</time>
      </trkpt>
      <trkpt lat="48.29157" lon="-1.82509">
        <ele>106.4</ele>
        <time>2019-07-16T08:56:52Z</time>
      </trkpt>
      <trkpt lat="48.29159" lon="-1.82504">
        <ele>106.4</ele>
        <time>2019-07-16T08:56:53Z</time>
      </trkpt>
      <trkpt lat="48.29161" lon="-1.825">
        <ele>106.5</ele>
        <time>2019-07-16T08:56:54Z</time>
      </trkpt>
      <trkpt lat="48.29162" lon="-1.82496">
        <ele>106.8</ele>
        <time>2019-07-16T08:56:55Z</time>
      </trkpt>
      <trkpt lat="48.29162" lon="-1.82492">
        <ele>107.1</ele>
        <time>2019-07-16T08:56:56Z</time>
      </trkpt>
      <trkpt lat="48.29163" lon="-1.82488">
        <ele>107.2</ele>
        <time>2019-07-16T08:56:57Z</time>
      </trkpt>
      <trkpt lat="48.29164" lon="-1.82484">
        <ele>107.5</ele>
        <time>2019-07-16T08:56:58Z</time>
      </trkpt>
      <trkpt lat="48.29165" lon="-1.82479">
        <ele>107.6</ele>
        <time>2019-07-16T08:56:59Z</time>
      </trkpt>
      <trkpt lat="48.29167" lon="-1.82473">
        <ele>108.1</ele>
        <time>2019-07-16T08:57:00Z</time>
      </trkpt>
      <trkpt lat="48.29169" lon="-1.82467">
        <ele>108.1</ele>
        <time>2019-07-16T08:57:01Z</time>
      </trkpt>
      <trkpt lat="48.2917" lon="-1.82461">
        <ele>108.4</ele>
        <time>2019-07-16T08:57:02Z</time>
      </trkpt>
      <trkpt lat="48.2917" lon="-1.82454">
        <ele>108.4</ele>
        <time>2019-07-16T08:57:03Z</time>
      </trkpt>
      <trkpt lat="48.2917" lon="-1.82448">
        <ele>108.5</ele>
        <time>2019-07-16T08:57:04Z</time>
      </trkpt>
      <trkpt lat="48.29168" lon="-1.8244">
        <ele>109.4</ele>
        <time>2019-07-16T08:57:05Z</time>
      </trkpt>
      <trkpt lat="48.29168" lon="-1.82435">
        <ele>109.6</ele>
        <time>2019-07-16T08:57:06Z</time>
      </trkpt>
      <trkpt lat="48.2917" lon="-1.82429">
        <ele>109.5</ele>
        <time>2019-07-16T08:57:07Z</time>
      </trkpt>
      <trkpt lat="48.29171" lon="-1.82424">
        <ele>109.8</ele>
        <time>2019-07-16T08:57:08Z</time>
      </trkpt>
      <trkpt lat="48.29171" lon="-1.82419">
        <ele>109.9</ele>
        <time>2019-07-16T08:57:09Z</time>
      </trkpt>
      <trkpt lat="48.29171" lon="-1.82414">
        <ele>109.6</ele>
        <time>2019-07-16T08:57:10Z</time>
      </trkpt>
      <trkpt lat="48.29172" lon="-1.82409">
        <ele>109.7</ele>
        <time>2019-07-16T08:57:11Z</time>
      </trkpt>
      <trkpt lat="48.29172" lon="-1.82403">
        <ele>109.3</ele>
        <time>2019-07-16T08:57:12Z</time>
      </trkpt>
      <trkpt lat="48.29171" lon="-1.82397">
        <ele>109</ele>
        <time>2019-07-16T08:57:13Z</time>
      </trkpt>
      <trkpt lat="48.29171" lon="-1.82391">
        <ele>109</ele>
        <time>2019-07-16T08:57:14Z</time>
      </trkpt>
      <trkpt lat="48.29171" lon="-1.82385">
        <ele>109</ele>
        <time>2019-07-16T08:57:15Z</time>
      </trkpt>
      <trkpt lat="48.29171" lon="-1.8238">
        <ele>108.8</ele>
        <time>2019-07-16T08:57:16Z</time>
      </trkpt>
      <trkpt lat="48.2917" lon="-1.82374">
        <ele>108.7</ele>
        <time>2019-07-16T08:57:17Z</time>
      </trkpt>
      <trkpt lat="48.2917" lon="-1.82368">
        <ele>108.5</ele>
        <time>2019-07-16T08:57:18Z</time>
      </trkpt>
      <trkpt lat="48.29171" lon="-1.82362">
        <ele>108.5</ele>
        <time>2019-07-16T08:57:19Z</time>
      </trkpt>
      <trkpt lat="48.29171" lon="-1.82356">
        <ele>108.1</ele>
        <time>2019-07-16T08:57:20Z</time>
      </trkpt>
      <trkpt lat="48.29171" lon="-1.8235">
        <ele>107.7</ele>
        <time>2019-07-16T08:57:21Z</time>
      </trkpt>
      <trkpt lat="48.29171" lon="-1.82344">
        <ele>107.1</ele>
        <time>2019-07-16T08:57:22Z</time>
      </trkpt>
      <trkpt lat="48.29171" lon="-1.82338">
        <ele>107</ele>
        <time>2019-07-16T08:57:23Z</time>
      </trkpt>
      <trkpt lat="48.29171" lon="-1.82332">
        <ele>107.1</ele>
        <time>2019-07-16T08:57:24Z</time>
      </trkpt>
      <trkpt lat="48.29171" lon="-1.82326">
        <ele>107.8</ele>
        <time>2019-07-16T08:57:25Z</time>
      </trkpt>
      <trkpt lat="48.29171" lon="-1.82319">
        <ele>107.5</ele>
        <time>2019-07-16T08:57:26Z</time>
      </trkpt>
      <trkpt lat="48.29171" lon="-1.82313">
        <ele>108</ele>
        <time>2019-07-16T08:57:27Z</time>
      </trkpt>
      <trkpt lat="48.29171" lon="-1.82306">
        <ele>108.3</ele>
        <time>2019-07-16T08:57:28Z</time>
      </trkpt>
      <trkpt lat="48.29171" lon="-1.823">
        <ele>108.4</ele>
        <time>2019-07-16T08:57:29Z</time>
      </trkpt>
      <trkpt lat="48.2917" lon="-1.82293">
        <ele>108.6</ele>
        <time>2019-07-16T08:57:30Z</time>
      </trkpt>
      <trkpt lat="48.2917" lon="-1.82286">
        <ele>108.8</ele>
        <time>2019-07-16T08:57:31Z</time>
      </trkpt>
      <trkpt lat="48.29169" lon="-1.82279">
        <ele>109.1</ele>
        <time>2019-07-16T08:57:32Z</time>
      </trkpt>
      <trkpt lat="48.29169" lon="-1.82272">
        <ele>109.4</ele>
        <time>2019-07-16T08:57:33Z</time>
      </trkpt>
      <trkpt lat="48.29168" lon="-1.82265">
        <ele>109.7</ele>
        <time>2019-07-16T08:57:34Z</time>
      </trkpt>
      <trkpt lat="48.29168" lon="-1.82258">
        <ele>109.8</ele>
        <time>2019-07-16T08:57:35Z</time>
      </trkpt>
      <trkpt lat="48.29168" lon="-1.82251">
        <ele>110.3</ele>
        <time>2019-07-16T08:57:36Z</time>
      </trkpt>
      <trkpt lat="48.29167" lon="-1.82244">
        <ele>110.3</ele>
        <time>2019-07-16T08:57:37Z</time>
      </trkpt>
      <trkpt lat="48.29166" lon="-1.82238">
        <ele>110.1</ele>
        <time>2019-07-16T08:57:38Z</time>
      </trkpt>
      <trkpt lat="48.29166" lon="-1.82231">
        <ele>109.8</ele>
        <time>2019-07-16T08:57:39Z</time>
      </trkpt>
      <trkpt lat="48.29165" lon="-1.82224">
        <ele>109.4</ele>
        <time>2019-07-16T08:57:40Z</time>
      </trkpt>
      <trkpt lat="48.29164" lon="-1.82216">
        <ele>109</ele>
        <time>2019-07-16T08:57:41Z</time>
      </trkpt>
      <trkpt lat="48.29163" lon="-1.82209">
        <ele>108.7</ele>
        <time>2019-07-16T08:57:42Z</time>
      </trkpt>
      <trkpt lat="48.29162" lon="-1.82202">
        <ele>108.4</ele>
        <time>2019-07-16T08:57:43Z</time>
      </trkpt>
      <trkpt lat="48.29161" lon="-1.82195">
        <ele>108</ele>
        <time>2019-07-16T08:57:44Z</time>
      </trkpt>
      <trkpt lat="48.29159" lon="-1.82187">
        <ele>107.4</ele>
        <time>2019-07-16T08:57:45Z</time>
      </trkpt>
      <trkpt lat="48.29158" lon="-1.8218">
        <ele>106.9</ele>
        <time>2019-07-16T08:57:46Z</time>
      </trkpt>
      <trkpt lat="48.29157" lon="-1.82173">
        <ele>106.5</ele>
        <time>2019-07-16T08:57:47Z</time>
      </trkpt>
      <trkpt lat="48.29155" lon="-1.82165">
        <ele>106.1</ele>
        <time>2019-07-16T08:57:48Z</time>
      </trkpt>
      <trkpt lat="48.29154" lon="-1.82158">
        <ele>105.7</ele>
        <time>2019-07-16T08:57:49Z</time>
      </trkpt>
      <trkpt lat="48.29154" lon="-1.82152">
        <ele>105.4</ele>
        <time>2019-07-16T08:57:50Z</time>
      </trkpt>
      <trkpt lat="48.29153" lon="-1.82145">
        <ele>105.5</ele>
        <time>2019-07-16T08:57:51Z</time>
      </trkpt>
      <trkpt lat="48.29152" lon="-1.82139">
        <ele>105.3</ele>
        <time>2019-07-16T08:57:52Z</time>
      </trkpt>
      <trkpt lat="48.29151" lon="-1.82133">
        <ele>105.3</ele>
        <time>2019-07-16T08:57:53Z</time>
      </trkpt>
      <trkpt lat="48.2915" lon="-1.82127">
        <ele>104.9</ele>
        <time>2019-07-16T08:57:54Z</time>
      </trkpt>
      <trkpt lat="48.2915" lon="-1.82122">
        <ele>105.3</ele>
        <time>2019-07-16T08:57:55Z</time>
      </trkpt>
      <trkpt lat="48.29148" lon="-1.82117">
        <ele>105.6</ele>
        <time>2019-07-16T08:57:56Z</time>
      </trkpt>
      <trkpt lat="48.29147" lon="-1.82111">
        <ele>105.5</ele>
        <time>2019-07-16T08:57:57Z</time>
      </trkpt>
      <trkpt lat="48.29146" lon="-1.82106">
        <ele>105.1</ele>
        <time>2019-07-16T08:57:58Z</time>
      </trkpt>
      <trkpt lat="48.29145" lon="-1.82101">
        <ele>105.5</ele>
        <time>2019-07-16T08:57:59Z</time>
      </trkpt>
      <trkpt lat="48.29144" lon="-1.82096">
        <ele>105.9</ele>
        <time>2019-07-16T08:58:00Z</time>
      </trkpt>
      <trkpt lat="48.29142" lon="-1.82092">
        <ele>106</ele>
        <time>2019-07-16T08:58:01Z</time>
      </trkpt>
      <trkpt lat="48.29141" lon="-1.82087">
        <ele>106.2</ele>
        <time>2019-07-16T08:58:02Z</time>
      </trkpt>
      <trkpt lat="48.29141" lon="-1.82083">
        <ele>106.2</ele>
        <time>2019-07-16T08:58:03Z</time>
      </trkpt>
      <trkpt lat="48.29141" lon="-1.82079">
        <ele>106.3</ele>
        <time>2019-07-16T08:58:04Z</time>
      </trkpt>
      <trkpt lat="48.29141" lon="-1.82075">
        <ele>106.3</ele>
        <time>2019-07-16T08:58:05Z</time>
      </trkpt>
      <trkpt lat="48.29142" lon="-1.82071">
        <ele>106.2</ele>
        <time>2019-07-16T08:58:06Z</time>
      </trkpt>
      <trkpt lat="48.29143" lon="-1.82067">
        <ele>106.3</ele>
        <time>2019-07-16T08:58:07Z</time>
      </trkpt>
      <trkpt lat="48.29144" lon="-1.82062">
        <ele>106.4</ele>
        <time>2019-07-16T08:58:08Z</time>
      </trkpt>
      <trkpt lat="48.29146" lon="-1.82058">
        <ele>106.4</ele>
        <time>2019-07-16T08:58:09Z</time>
      </trkpt>
      <trkpt lat="48.29148" lon="-1.82053">
        <ele>106.4</ele>
        <time>2019-07-16T08:58:10Z</time>
      </trkpt>
      <trkpt lat="48.29149" lon="-1.82048">
        <ele>106</ele>
        <time>2019-07-16T08:58:11Z</time>
      </trkpt>
      <trkpt lat="48.29151" lon="-1.82042">
        <ele>106</ele>
        <time>2019-07-16T08:58:12Z</time>
      </trkpt>
      <trkpt lat="48.29152" lon="-1.82035">
        <ele>105.8</ele>
        <time>2019-07-16T08:58:13Z</time>
      </trkpt>
      <trkpt lat="48.29153" lon="-1.82028">
        <ele>105.6</ele>
        <time>2019-07-16T08:58:14Z</time>
      </trkpt>
      <trkpt lat="48.29154" lon="-1.82021">
        <ele>105.3</ele>
        <time>2019-07-16T08:58:15Z</time>
      </trkpt>
      <trkpt lat="48.29155" lon="-1.82014">
        <ele>104.9</ele>
        <time>2019-07-16T08:58:16Z</time>
      </trkpt>
      <trkpt lat="48.29157" lon="-1.82007">
        <ele>104.5</ele>
        <time>2019-07-16T08:58:17Z</time>
      </trkpt>
      <trkpt lat="48.29158" lon="-1.82">
        <ele>103.8</ele>
        <time>2019-07-16T08:58:18Z</time>
      </trkpt>
      <trkpt lat="48.2916" lon="-1.81992">
        <ele>103.2</ele>
        <time>2019-07-16T08:58:19Z</time>
      </trkpt>
      <trkpt lat="48.29161" lon="-1.81984">
        <ele>102.7</ele>
        <time>2019-07-16T08:58:20Z</time>
      </trkpt>
      <trkpt lat="48.29162" lon="-1.81976">
        <ele>102</ele>
        <time>2019-07-16T08:58:21Z</time>
      </trkpt>
      <trkpt lat="48.29163" lon="-1.81968">
        <ele>101.3</ele>
        <time>2019-07-16T08:58:22Z</time>
      </trkpt>
      <trkpt lat="48.29164" lon="-1.81959">
        <ele>100.8</ele>
        <time>2019-07-16T08:58:23Z</time>
      </trkpt>
      <trkpt lat="48.29165" lon="-1.8195">
        <ele>100.3</ele>
        <time>2019-07-16T08:58:24Z</time>
      </trkpt>
      <trkpt lat="48.29165" lon="-1.81941">
        <ele>100.1</ele>
        <time>2019-07-16T08:58:25Z</time>
      </trkpt>
      <trkpt lat="48.29165" lon="-1.81932">
        <ele>99.7</ele>
        <time>2019-07-16T08:58:26Z</time>
      </trkpt>
      <trkpt lat="48.29165" lon="-1.81924">
        <ele>99.6</ele>
        <time>2019-07-16T08:58:27Z</time>
      </trkpt>
      <trkpt lat="48.29165" lon="-1.81916">
        <ele>99.8</ele>
        <time>2019-07-16T08:58:28Z</time>
      </trkpt>
      <trkpt lat="48.29165" lon="-1.81909">
        <ele>99.9</ele>
        <time>2019-07-16T08:58:29Z</time>
      </trkpt>
      <trkpt lat="48.29165" lon="-1.81903">
        <ele>99.9</ele>
        <time>2019-07-16T08:58:30Z</time>
      </trkpt>
      <trkpt lat="48.29165" lon="-1.81897">
        <ele>99.6</ele>
        <time>2019-07-16T08:58:31Z</time>
      </trkpt>
      <trkpt lat="48.29164" lon="-1.81892">
        <ele>99.5</ele>
        <time>2019-07-16T08:58:32Z</time>
      </trkpt>
      <trkpt lat="48.29164" lon="-1.81886">
        <ele>99.3</ele>
        <time>2019-07-16T08:58:33Z</time>
      </trkpt>
      <trkpt lat="48.29163" lon="-1.8188">
        <ele>98.9</ele>
        <time>2019-07-16T08:58:34Z</time>
      </trkpt>
      <trkpt lat="48.29163" lon="-1.81875">
        <ele>98.7</ele>
        <time>2019-07-16T08:58:35Z</time>
      </trkpt>
      <trkpt lat="48.29163" lon="-1.8187">
        <ele>98.3</ele>
        <time>2019-07-16T08:58:36Z</time>
      </trkpt>
      <trkpt lat="48.29162" lon="-1.81864">
        <ele>97.8</ele>
        <time>2019-07-16T08:58:37Z</time>
      </trkpt>
      <trkpt lat="48.29162" lon="-1.81859">
        <ele>97.8</ele>
        <time>2019-07-16T08:58:38Z</time>
      </trkpt>
      <trkpt lat="48.29162" lon="-1.81854">
        <ele>97.8</ele>
        <time>2019-07-16T08:58:39Z</time>
      </trkpt>
      <trkpt lat="48.29161" lon="-1.8185">
        <ele>97.8</ele>
        <time>2019-07-16T08:58:40Z</time>
      </trkpt>
      <trkpt lat="48.2916" lon="-1.81845">
        <ele>98.2</ele>
        <time>2019-07-16T08:58:41Z</time>
      </trkpt>
      <trkpt lat="48.29159" lon="-1.8184">
        <ele>98.7</ele>
        <time>2019-07-16T08:58:42Z</time>
      </trkpt>
      <trkpt lat="48.29158" lon="-1.81836">
        <ele>100.7</ele>
        <time>2019-07-16T08:58:43Z</time>
      </trkpt>
      <trkpt lat="48.29157" lon="-1.81832">
        <ele>101.6</ele>
        <time>2019-07-16T08:58:44Z</time>
      </trkpt>
      <trkpt lat="48.29157" lon="-1.81828">
        <ele>102.1</ele>
        <time>2019-07-16T08:58:45Z</time>
      </trkpt>
      <trkpt lat="48.29157" lon="-1.81823">
        <ele>102</ele>
        <time>2019-07-16T08:58:46Z</time>
      </trkpt>
      <trkpt lat="48.29157" lon="-1.81818">
        <ele>102.2</ele>
        <time>2019-07-16T08:58:47Z</time>
      </trkpt>
      <trkpt lat="48.29157" lon="-1.81813">
        <ele>102.4</ele>
        <time>2019-07-16T08:58:48Z</time>
      </trkpt>
      <trkpt lat="48.29157" lon="-1.81807">
        <ele>103.2</ele>
        <time>2019-07-16T08:58:49Z</time>
      </trkpt>
      <trkpt lat="48.29157" lon="-1.81802">
        <ele>104.1</ele>
        <time>2019-07-16T08:58:50Z</time>
      </trkpt>
      <trkpt lat="48.29157" lon="-1.81797">
        <ele>104.5</ele>
        <time>2019-07-16T08:58:51Z</time>
      </trkpt>
      <trkpt lat="48.29157" lon="-1.81792">
        <ele>104.3</ele>
        <time>2019-07-16T08:58:52Z</time>
      </trkpt>
      <trkpt lat="48.29157" lon="-1.81787">
        <ele>104.5</ele>
        <time>2019-07-16T08:58:53Z</time>
      </trkpt>
      <trkpt lat="48.29157" lon="-1.81781">
        <ele>104.7</ele>
        <time>2019-07-16T08:58:54Z</time>
      </trkpt>
      <trkpt lat="48.29158" lon="-1.81776">
        <ele>104.7</ele>
        <time>2019-07-16T08:58:55Z</time>
      </trkpt>
      <trkpt lat="48.29159" lon="-1.81772">
        <ele>104.2</ele>
        <time>2019-07-16T08:58:56Z</time>
      </trkpt>
      <trkpt lat="48.29159" lon="-1.81766">
        <ele>103.9</ele>
        <time>2019-07-16T08:58:57Z</time>
      </trkpt>
      <trkpt lat="48.2916" lon="-1.81761">
        <ele>104.4</ele>
        <time>2019-07-16T08:58:58Z</time>
      </trkpt>
      <trkpt lat="48.2916" lon="-1.81756">
        <ele>104.7</ele>
        <time>2019-07-16T08:58:59Z</time>
      </trkpt>
      <trkpt lat="48.29161" lon="-1.81751">
        <ele>104.8</ele>
        <time>2019-07-16T08:59:00Z</time>
      </trkpt>
      <trkpt lat="48.29162" lon="-1.81746">
        <ele>104.9</ele>
        <time>2019-07-16T08:59:01Z</time>
      </trkpt>
      <trkpt lat="48.29162" lon="-1.81742">
        <ele>104.6</ele>
        <time>2019-07-16T08:59:02Z</time>
      </trkpt>
      <trkpt lat="48.29163" lon="-1.81738">
        <ele>104.1</ele>
        <time>2019-07-16T08:59:03Z</time>
      </trkpt>
      <trkpt lat="48.29165" lon="-1.81733">
        <ele>104</ele>
        <time>2019-07-16T08:59:04Z</time>
      </trkpt>
      <trkpt lat="48.29165" lon="-1.81728">
        <ele>104</ele>
        <time>2019-07-16T08:59:05Z</time>
      </trkpt>
      <trkpt lat="48.29166" lon="-1.81723">
        <ele>103.7</ele>
        <time>2019-07-16T08:59:06Z</time>
      </trkpt>
      <trkpt lat="48.29167" lon="-1.81718">
        <ele>103.3</ele>
        <time>2019-07-16T08:59:07Z</time>
      </trkpt>
      <trkpt lat="48.29168" lon="-1.81712">
        <ele>102.8</ele>
        <time>2019-07-16T08:59:08Z</time>
      </trkpt>
      <trkpt lat="48.29168" lon="-1.81706">
        <ele>102.4</ele>
        <time>2019-07-16T08:59:09Z</time>
      </trkpt>
      <trkpt lat="48.29169" lon="-1.817">
        <ele>102.3</ele>
        <time>2019-07-16T08:59:10Z</time>
      </trkpt>
      <trkpt lat="48.2917" lon="-1.81693">
        <ele>102.3</ele>
        <time>2019-07-16T08:59:11Z</time>
      </trkpt>
      <trkpt lat="48.29171" lon="-1.81687">
        <ele>102.3</ele>
        <time>2019-07-16T08:59:12Z</time>
      </trkpt>
      <trkpt lat="48.29172" lon="-1.8168">
        <ele>102.2</ele>
        <time>2019-07-16T08:59:13Z</time>
      </trkpt>
      <trkpt lat="48.29173" lon="-1.81674">
        <ele>101.9</ele>
        <time>2019-07-16T08:59:14Z</time>
      </trkpt>
      <trkpt lat="48.29174" lon="-1.81667">
        <ele>101.4</ele>
        <time>2019-07-16T08:59:15Z</time>
      </trkpt>
      <trkpt lat="48.29175" lon="-1.81659">
        <ele>100.9</ele>
        <time>2019-07-16T08:59:16Z</time>
      </trkpt>
      <trkpt lat="48.29176" lon="-1.81652">
        <ele>100.3</ele>
        <time>2019-07-16T08:59:17Z</time>
      </trkpt>
      <trkpt lat="48.29176" lon="-1.81644">
        <ele>100</ele>
        <time>2019-07-16T08:59:18Z</time>
      </trkpt>
      <trkpt lat="48.29178" lon="-1.81637">
        <ele>100.5</ele>
        <time>2019-07-16T08:59:19Z</time>
      </trkpt>
      <trkpt lat="48.29179" lon="-1.81629">
        <ele>100.5</ele>
        <time>2019-07-16T08:59:20Z</time>
      </trkpt>
      <trkpt lat="48.2918" lon="-1.81621">
        <ele>100.3</ele>
        <time>2019-07-16T08:59:21Z</time>
      </trkpt>
      <trkpt lat="48.29181" lon="-1.81613">
        <ele>99.9</ele>
        <time>2019-07-16T08:59:22Z</time>
      </trkpt>
      <trkpt lat="48.29183" lon="-1.81605">
        <ele>101.1</ele>
        <time>2019-07-16T08:59:23Z</time>
      </trkpt>
      <trkpt lat="48.29184" lon="-1.81597">
        <ele>101.7</ele>
        <time>2019-07-16T08:59:24Z</time>
      </trkpt>
      <trkpt lat="48.29185" lon="-1.81588">
        <ele>101.6</ele>
        <time>2019-07-16T08:59:25Z</time>
      </trkpt>
      <trkpt lat="48.29187" lon="-1.81579">
        <ele>101.7</ele>
        <time>2019-07-16T08:59:26Z</time>
      </trkpt>
      <trkpt lat="48.29189" lon="-1.8157">
        <ele>102</ele>
        <time>2019-07-16T08:59:27Z</time>
      </trkpt>
      <trkpt lat="48.2919" lon="-1.81562">
        <ele>102.4</ele>
        <time>2019-07-16T08:59:28Z</time>
      </trkpt>
      <trkpt lat="48.29192" lon="-1.81553">
        <ele>102.4</ele>
        <time>2019-07-16T08:59:29Z</time>
      </trkpt>
      <trkpt lat="48.29194" lon="-1.81545">
        <ele>102.6</ele>
        <time>2019-07-16T08:59:30Z</time>
      </trkpt>
      <trkpt lat="48.29196" lon="-1.81537">
        <ele>102.6</ele>
        <time>2019-07-16T08:59:31Z</time>
      </trkpt>
      <trkpt lat="48.29198" lon="-1.81528">
        <ele>102.6</ele>
        <time>2019-07-16T08:59:32Z</time>
      </trkpt>
      <trkpt lat="48.292" lon="-1.8152">
        <ele>102.6</ele>
        <time>2019-07-16T08:59:33Z</time>
      </trkpt>
      <trkpt lat="48.29202" lon="-1.81512">
        <ele>102.4</ele>
        <time>2019-07-16T08:59:34Z</time>
      </trkpt>
      <trkpt lat="48.29203" lon="-1.81503">
        <ele>102.1</ele>
        <time>2019-07-16T08:59:35Z</time>
      </trkpt>
      <trkpt lat="48.29205" lon="-1.81495">
        <ele>101.4</ele>
        <time>2019-07-16T08:59:36Z</time>
      </trkpt>
      <trkpt lat="48.29206" lon="-1.81486">
        <ele>101.2</ele>
        <time>2019-07-16T08:59:37Z</time>
      </trkpt>
      <trkpt lat="48.29207" lon="-1.81477">
        <ele>101.1</ele>
        <time>2019-07-16T08:59:38Z</time>
      </trkpt>
      <trkpt lat="48.29207" lon="-1.81468">
        <ele>101.1</ele>
        <time>2019-07-16T08:59:39Z</time>
      </trkpt>
      <trkpt lat="48.29208" lon="-1.8146">
        <ele>101.4</ele>
        <time>2019-07-16T08:59:40Z</time>
      </trkpt>
      <trkpt lat="48.29208" lon="-1.81451">
        <ele>101.2</ele>
        <time>2019-07-16T08:59:41Z</time>
      </trkpt>
      <trkpt lat="48.29209" lon="-1.81443">
        <ele>100.8</ele>
        <time>2019-07-16T08:59:42Z</time>
      </trkpt>
      <trkpt lat="48.2921" lon="-1.81434">
        <ele>100.1</ele>
        <time>2019-07-16T08:59:43Z</time>
      </trkpt>
      <trkpt lat="48.2921" lon="-1.81425">
        <ele>99.7</ele>
        <time>2019-07-16T08:59:44Z</time>
      </trkpt>
      <trkpt lat="48.29211" lon="-1.81417">
        <ele>99.2</ele>
        <time>2019-07-16T08:59:45Z</time>
      </trkpt>
      <trkpt lat="48.29211" lon="-1.81408">
        <ele>99</ele>
        <time>2019-07-16T08:59:46Z</time>
      </trkpt>
      <trkpt lat="48.29211" lon="-1.81399">
        <ele>97.9</ele>
        <time>2019-07-16T08:59:47Z</time>
      </trkpt>
      <trkpt lat="48.29212" lon="-1.8139">
        <ele>97.1</ele>
        <time>2019-07-16T08:59:48Z</time>
      </trkpt>
      <trkpt lat="48.29212" lon="-1.81381">
        <ele>96.6</ele>
        <time>2019-07-16T08:59:49Z</time>
      </trkpt>
      <trkpt lat="48.29211" lon="-1.8137">
        <ele>95.5</ele>
        <time>2019-07-16T08:59:50Z</time>
      </trkpt>
      <trkpt lat="48.29211" lon="-1.8136">
        <ele>94.4</ele>
        <time>2019-07-16T08:59:51Z</time>
      </trkpt>
      <trkpt lat="48.2921" lon="-1.81349">
        <ele>93.5</ele>
        <time>2019-07-16T08:59:52Z</time>
      </trkpt>
      <trkpt lat="48.2921" lon="-1.81337">
        <ele>92.7</ele>
        <time>2019-07-16T08:59:53Z</time>
      </trkpt>
      <trkpt lat="48.29209" lon="-1.81326">
        <ele>92.3</ele>
        <time>2019-07-16T08:59:54Z</time>
      </trkpt>
      <trkpt lat="48.29208" lon="-1.81315">
        <ele>91.9</ele>
        <time>2019-07-16T08:59:55Z</time>
      </trkpt>
      <trkpt lat="48.29206" lon="-1.81304">
        <ele>91.8</ele>
        <time>2019-07-16T08:59:56Z</time>
      </trkpt>
      <trkpt lat="48.29205" lon="-1.81295">
        <ele>94.9</ele>
        <time>2019-07-16T08:59:57Z</time>
      </trkpt>
      <trkpt lat="48.29205" lon="-1.81285">
        <ele>94.9</ele>
        <time>2019-07-16T08:59:58Z</time>
      </trkpt>
      <trkpt lat="48.29204" lon="-1.81277">
        <ele>96.9</ele>
        <time>2019-07-16T08:59:59Z</time>
      </trkpt>
      <trkpt lat="48.29203" lon="-1.81268">
        <ele>97.3</ele>
        <time>2019-07-16T09:00:00Z</time>
      </trkpt>
      <trkpt lat="48.29203" lon="-1.81261">
        <ele>97.4</ele>
        <time>2019-07-16T09:00:01Z</time>
      </trkpt>
      <trkpt lat="48.29202" lon="-1.81255">
        <ele>97.5</ele>
        <time>2019-07-16T09:00:02Z</time>
      </trkpt>
      <trkpt lat="48.29201" lon="-1.8125">
        <ele>97.9</ele>
        <time>2019-07-16T09:00:03Z</time>
      </trkpt>
      <trkpt lat="48.29201" lon="-1.81244">
        <ele>98.1</ele>
        <time>2019-07-16T09:00:04Z</time>
      </trkpt>
      <trkpt lat="48.292" lon="-1.81239">
        <ele>98.4</ele>
        <time>2019-07-16T09:00:05Z</time>
      </trkpt>
      <trkpt lat="48.292" lon="-1.81233">
        <ele>98.6</ele>
        <time>2019-07-16T09:00:06Z</time>
      </trkpt>
      <trkpt lat="48.29199" lon="-1.81227">
        <ele>98.9</ele>
        <time>2019-07-16T09:00:07Z</time>
      </trkpt>
      <trkpt lat="48.29199" lon="-1.81222">
        <ele>99.1</ele>
        <time>2019-07-16T09:00:08Z</time>
      </trkpt>
      <trkpt lat="48.29198" lon="-1.81217">
        <ele>99.3</ele>
        <time>2019-07-16T09:00:09Z</time>
      </trkpt>
      <trkpt lat="48.29198" lon="-1.81212">
        <ele>99.3</ele>
        <time>2019-07-16T09:00:10Z</time>
      </trkpt>
      <trkpt lat="48.29197" lon="-1.81207">
        <ele>100.1</ele>
        <time>2019-07-16T09:00:11Z</time>
      </trkpt>
      <trkpt lat="48.29196" lon="-1.81202">
        <ele>100.8</ele>
        <time>2019-07-16T09:00:12Z</time>
      </trkpt>
      <trkpt lat="48.29196" lon="-1.81197">
        <ele>101.2</ele>
        <time>2019-07-16T09:00:13Z</time>
      </trkpt>
      <trkpt lat="48.29196" lon="-1.81192">
        <ele>101</ele>
        <time>2019-07-16T09:00:14Z</time>
      </trkpt>
      <trkpt lat="48.29195" lon="-1.81188">
        <ele>100.6</ele>
        <time>2019-07-16T09:00:15Z</time>
      </trkpt>
      <trkpt lat="48.29195" lon="-1.81183">
        <ele>100.6</ele>
        <time>2019-07-16T09:00:16Z</time>
      </trkpt>
      <trkpt lat="48.29195" lon="-1.81179">
        <ele>100.5</ele>
        <time>2019-07-16T09:00:17Z</time>
      </trkpt>
      <trkpt lat="48.29195" lon="-1.81174">
        <ele>100.2</ele>
        <time>2019-07-16T09:00:18Z</time>
      </trkpt>
      <trkpt lat="48.29195" lon="-1.81169">
        <ele>99.9</ele>
        <time>2019-07-16T09:00:19Z</time>
      </trkpt>
      <trkpt lat="48.29195" lon="-1.81164">
        <ele>99.6</ele>
        <time>2019-07-16T09:00:20Z</time>
      </trkpt>
      <trkpt lat="48.29194" lon="-1.81159">
        <ele>99.2</ele>
        <time>2019-07-16T09:00:21Z</time>
      </trkpt>
      <trkpt lat="48.29194" lon="-1.81154">
        <ele>99</ele>
        <time>2019-07-16T09:00:22Z</time>
      </trkpt>
      <trkpt lat="48.29194" lon="-1.81149">
        <ele>98.8</ele>
        <time>2019-07-16T09:00:23Z</time>
      </trkpt>
      <trkpt lat="48.29193" lon="-1.81144">
        <ele>98.8</ele>
        <time>2019-07-16T09:00:24Z</time>
      </trkpt>
      <trkpt lat="48.29193" lon="-1.81139">
        <ele>98.8</ele>
        <time>2019-07-16T09:00:25Z</time>
      </trkpt>
      <trkpt lat="48.29192" lon="-1.81134">
        <ele>98.9</ele>
        <time>2019-07-16T09:00:26Z</time>
      </trkpt>
      <trkpt lat="48.29192" lon="-1.81129">
        <ele>99</ele>
        <time>2019-07-16T09:00:27Z</time>
      </trkpt>
      <trkpt lat="48.29192" lon="-1.81124">
        <ele>99.3</ele>
        <time>2019-07-16T09:00:28Z</time>
      </trkpt>
      <trkpt lat="48.29191" lon="-1.81119">
        <ele>99.5</ele>
        <time>2019-07-16T09:00:29Z</time>
      </trkpt>
      <trkpt lat="48.29191" lon="-1.81114">
        <ele>99.8</ele>
        <time>2019-07-16T09:00:30Z</time>
      </trkpt>
      <trkpt lat="48.29191" lon="-1.81109">
        <ele>100</ele>
        <time>2019-07-16T09:00:31Z</time>
      </trkpt>
      <trkpt lat="48.29191" lon="-1.81105">
        <ele>100</ele>
        <time>2019-07-16T09:00:32Z</time>
      </trkpt>
      <trkpt lat="48.2919" lon="-1.81099">
        <ele>99.8</ele>
        <time>2019-07-16T09:00:33Z</time>
      </trkpt>
      <trkpt lat="48.2919" lon="-1.81094">
        <ele>99.7</ele>
        <time>2019-07-16T09:00:34Z</time>
      </trkpt>
      <trkpt lat="48.29189" lon="-1.81089">
        <ele>99.5</ele>
        <time>2019-07-16T09:00:35Z</time>
      </trkpt>
      <trkpt lat="48.29189" lon="-1.81083">
        <ele>99.1</ele>
        <time>2019-07-16T09:00:36Z</time>
      </trkpt>
      <trkpt lat="48.29189" lon="-1.81078">
        <ele>98.9</ele>
        <time>2019-07-16T09:00:37Z</time>
      </trkpt>
      <trkpt lat="48.29188" lon="-1.81072">
        <ele>99</ele>
        <time>2019-07-16T09:00:38Z</time>
      </trkpt>
      <trkpt lat="48.29188" lon="-1.81067">
        <ele>98.9</ele>
        <time>2019-07-16T09:00:39Z</time>
      </trkpt>
      <trkpt lat="48.29188" lon="-1.81062">
        <ele>98.9</ele>
        <time>2019-07-16T09:00:40Z</time>
      </trkpt>
      <trkpt lat="48.29187" lon="-1.81056">
        <ele>99</ele>
        <time>2019-07-16T09:00:41Z</time>
      </trkpt>
      <trkpt lat="48.29185" lon="-1.81052">
        <ele>99.1</ele>
        <time>2019-07-16T09:00:42Z</time>
      </trkpt>
      <trkpt lat="48.29183" lon="-1.81049">
        <ele>98.9</ele>
        <time>2019-07-16T09:00:43Z</time>
      </trkpt>
      <trkpt lat="48.29179" lon="-1.81048">
        <ele>98.8</ele>
        <time>2019-07-16T09:00:44Z</time>
      </trkpt>
      <trkpt lat="48.29176" lon="-1.81047">
        <ele>99</ele>
        <time>2019-07-16T09:00:45Z</time>
      </trkpt>
      <trkpt lat="48.29172" lon="-1.81046">
        <ele>99.2</ele>
        <time>2019-07-16T09:00:46Z</time>
      </trkpt>
      <trkpt lat="48.29169" lon="-1.81046">
        <ele>99.1</ele>
        <time>2019-07-16T09:00:47Z</time>
      </trkpt>
      <trkpt lat="48.29166" lon="-1.81045">
        <ele>99</ele>
        <time>2019-07-16T09:00:48Z</time>
      </trkpt>
      <trkpt lat="48.29162" lon="-1.81044">
        <ele>98.7</ele>
        <time>2019-07-16T09:00:49Z</time>
      </trkpt>
      <trkpt lat="48.2916" lon="-1.81043">
        <ele>98.8</ele>
        <time>2019-07-16T09:00:50Z</time>
      </trkpt>
      <trkpt lat="48.29157" lon="-1.81042">
        <ele>98.7</ele>
        <time>2019-07-16T09:00:51Z</time>
      </trkpt>
      <trkpt lat="48.29153" lon="-1.81042">
        <ele>98.8</ele>
        <time>2019-07-16T09:00:52Z</time>
      </trkpt>
      <trkpt lat="48.2915" lon="-1.81041">
        <ele>98.7</ele>
        <time>2019-07-16T09:00:53Z</time>
      </trkpt>
      <trkpt lat="48.29147" lon="-1.8104">
        <ele>98.9</ele>
        <time>2019-07-16T09:00:54Z</time>
      </trkpt>
      <trkpt lat="48.29145" lon="-1.81039">
        <ele>99.1</ele>
        <time>2019-07-16T09:00:55Z</time>
      </trkpt>
      <trkpt lat="48.29142" lon="-1.81038">
        <ele>99</ele>
        <time>2019-07-16T09:00:56Z</time>
      </trkpt>
      <trkpt lat="48.29139" lon="-1.81036">
        <ele>99.2</ele>
        <time>2019-07-16T09:00:57Z</time>
      </trkpt>
      <trkpt lat="48.29136" lon="-1.81034">
        <ele>99.2</ele>
        <time>2019-07-16T09:00:58Z</time>
      </trkpt>
      <trkpt lat="48.29133" lon="-1.81032">
        <ele>99.2</ele>
        <time>2019-07-16T09:00:59Z</time>
      </trkpt>
      <trkpt lat="48.29129" lon="-1.81031">
        <ele>99.4</ele>
        <time>2019-07-16T09:01:00Z</time>
      </trkpt>
      <trkpt lat="48.29126" lon="-1.8103">
        <ele>99.7</ele>
        <time>2019-07-16T09:01:01Z</time>
      </trkpt>
      <trkpt lat="48.29123" lon="-1.81028">
        <ele>100</ele>
        <time>2019-07-16T09:01:02Z</time>
      </trkpt>
      <trkpt lat="48.29119" lon="-1.81027">
        <ele>100.4</ele>
        <time>2019-07-16T09:01:03Z</time>
      </trkpt>
      <trkpt lat="48.29116" lon="-1.81026">
        <ele>100.7</ele>
        <time>2019-07-16T09:01:04Z</time>
      </trkpt>
      <trkpt lat="48.29113" lon="-1.81025">
        <ele>100.9</ele>
        <time>2019-07-16T09:01:05Z</time>
      </trkpt>
      <trkpt lat="48.29109" lon="-1.81024">
        <ele>101.3</ele>
        <time>2019-07-16T09:01:06Z</time>
      </trkpt>
      <trkpt lat="48.29106" lon="-1.81023">
        <ele>101.7</ele>
        <time>2019-07-16T09:01:07Z</time>
      </trkpt>
      <trkpt lat="48.29102" lon="-1.81022">
        <ele>101.9</ele>
        <time>2019-07-16T09:01:08Z</time>
      </trkpt>
      <trkpt lat="48.29099" lon="-1.8102">
        <ele>102.2</ele>
        <time>2019-07-16T09:01:09Z</time>
      </trkpt>
      <trkpt lat="48.29096" lon="-1.81019">
        <ele>102.3</ele>
        <time>2019-07-16T09:01:10Z</time>
      </trkpt>
      <trkpt lat="48.29092" lon="-1.81018">
        <ele>102.4</ele>
        <time>2019-07-16T09:01:11Z</time>
      </trkpt>
      <trkpt lat="48.29088" lon="-1.81017">
        <ele>102.1</ele>
        <time>2019-07-16T09:01:12Z</time>
      </trkpt>
      <trkpt lat="48.29084" lon="-1.81015">
        <ele>102.1</ele>
        <time>2019-07-16T09:01:13Z</time>
      </trkpt>
      <trkpt lat="48.2908" lon="-1.81014">
        <ele>102.2</ele>
        <time>2019-07-16T09:01:14Z</time>
      </trkpt>
      <trkpt lat="48.29077" lon="-1.81013">
        <ele>102.2</ele>
        <time>2019-07-16T09:01:15Z</time>
      </trkpt>
      <trkpt lat="48.29073" lon="-1.81012">
        <ele>102.2</ele>
        <time>2019-07-16T09:01:16Z</time>
      </trkpt>
      <trkpt lat="48.2907" lon="-1.8101">
        <ele>102.1</ele>
        <time>2019-07-16T09:01:17Z</time>
      </trkpt>
      <trkpt lat="48.29067" lon="-1.81009">
        <ele>102.1</ele>
        <time>2019-07-16T09:01:18Z</time>
      </trkpt>
      <trkpt lat="48.29063" lon="-1.81008">
        <ele>102.2</ele>
        <time>2019-07-16T09:01:19Z</time>
      </trkpt>
      <trkpt lat="48.29059" lon="-1.81008">
        <ele>102.1</ele>
        <time>2019-07-16T09:01:20Z</time>
      </trkpt>
      <trkpt lat="48.29056" lon="-1.81008">
        <ele>101.9</ele>
        <time>2019-07-16T09:01:21Z</time>
      </trkpt>
      <trkpt lat="48.29052" lon="-1.81007">
        <ele>101.8</ele>
        <time>2019-07-16T09:01:22Z</time>
      </trkpt>
      <trkpt lat="48.29049" lon="-1.81005">
        <ele>101.6</ele>
        <time>2019-07-16T09:01:23Z</time>
      </trkpt>
      <trkpt lat="48.29045" lon="-1.81004">
        <ele>101.4</ele>
        <time>2019-07-16T09:01:24Z</time>
      </trkpt>
      <trkpt lat="48.29041" lon="-1.81003">
        <ele>100.7</ele>
        <time>2019-07-16T09:01:25Z</time>
      </trkpt>
      <trkpt lat="48.29038" lon="-1.81002">
        <ele>100.5</ele>
        <time>2019-07-16T09:01:26Z</time>
      </trkpt>
      <trkpt lat="48.29034" lon="-1.81001">
        <ele>100.6</ele>
        <time>2019-07-16T09:01:27Z</time>
      </trkpt>
      <trkpt lat="48.29031" lon="-1.80999">
        <ele>100.6</ele>
        <time>2019-07-16T09:01:28Z</time>
      </trkpt>
      <trkpt lat="48.29027" lon="-1.80998">
        <ele>100.1</ele>
        <time>2019-07-16T09:01:29Z</time>
      </trkpt>
      <trkpt lat="48.29023" lon="-1.80996">
        <ele>100</ele>
        <time>2019-07-16T09:01:30Z</time>
      </trkpt>
      <trkpt lat="48.2902" lon="-1.80995">
        <ele>99.7</ele>
        <time>2019-07-16T09:01:31Z</time>
      </trkpt>
      <trkpt lat="48.29016" lon="-1.80994">
        <ele>99.2</ele>
        <time>2019-07-16T09:01:32Z</time>
      </trkpt>
      <trkpt lat="48.29012" lon="-1.80992">
        <ele>99</ele>
        <time>2019-07-16T09:01:33Z</time>
      </trkpt>
      <trkpt lat="48.29009" lon="-1.80991">
        <ele>98.7</ele>
        <time>2019-07-16T09:01:34Z</time>
      </trkpt>
      <trkpt lat="48.29005" lon="-1.80989">
        <ele>98.9</ele>
        <time>2019-07-16T09:01:35Z</time>
      </trkpt>
      <trkpt lat="48.29002" lon="-1.80988">
        <ele>98.8</ele>
        <time>2019-07-16T09:01:36Z</time>
      </trkpt>
      <trkpt lat="48.28998" lon="-1.80988">
        <ele>98.7</ele>
        <time>2019-07-16T09:01:37Z</time>
      </trkpt>
      <trkpt lat="48.28994" lon="-1.80987">
        <ele>98.6</ele>
        <time>2019-07-16T09:01:38Z</time>
      </trkpt>
      <trkpt lat="48.28991" lon="-1.80986">
        <ele>98.5</ele>
        <time>2019-07-16T09:01:39Z</time>
      </trkpt>
      <trkpt lat="48.28987" lon="-1.80985">
        <ele>98.5</ele>
        <time>2019-07-16T09:01:40Z</time>
      </trkpt>
      <trkpt lat="48.28983" lon="-1.80983">
        <ele>98.8</ele>
        <time>2019-07-16T09:01:41Z</time>
      </trkpt>
      <trkpt lat="48.2898" lon="-1.80982">
        <ele>99</ele>
        <time>2019-07-16T09:01:42Z</time>
      </trkpt>
      <trkpt lat="48.28976" lon="-1.8098">
        <ele>98.7</ele>
        <time>2019-07-16T09:01:43Z</time>
      </trkpt>
      <trkpt lat="48.28972" lon="-1.80979">
        <ele>98.5</ele>
        <time>2019-07-16T09:01:44Z</time>
      </trkpt>
      <trkpt lat="48.28968" lon="-1.80978">
        <ele>98.6</ele>
        <time>2019-07-16T09:01:45Z</time>
      </trkpt>
      <trkpt lat="48.28964" lon="-1.80976">
        <ele>99.4</ele>
        <time>2019-07-16T09:01:46Z</time>
      </trkpt>
      <trkpt lat="48.2896" lon="-1.80975">
        <ele>100.1</ele>
        <time>2019-07-16T09:01:47Z</time>
      </trkpt>
      <trkpt lat="48.28956" lon="-1.80973">
        <ele>100.5</ele>
        <time>2019-07-16T09:01:48Z</time>
      </trkpt>
      <trkpt lat="48.28952" lon="-1.80972">
        <ele>100.8</ele>
        <time>2019-07-16T09:01:49Z</time>
      </trkpt>
      <trkpt lat="48.28948" lon="-1.80971">
        <ele>101.5</ele>
        <time>2019-07-16T09:01:50Z</time>
      </trkpt>
      <trkpt lat="48.28944" lon="-1.80969">
        <ele>101.7</ele>
        <time>2019-07-16T09:01:51Z</time>
      </trkpt>
      <trkpt lat="48.2894" lon="-1.80968">
        <ele>101.9</ele>
        <time>2019-07-16T09:01:52Z</time>
      </trkpt>
      <trkpt lat="48.28936" lon="-1.80966">
        <ele>102.2</ele>
        <time>2019-07-16T09:01:53Z</time>
      </trkpt>
      <trkpt lat="48.28932" lon="-1.80964">
        <ele>102.3</ele>
        <time>2019-07-16T09:01:54Z</time>
      </trkpt>
      <trkpt lat="48.28928" lon="-1.80963">
        <ele>102</ele>
        <time>2019-07-16T09:01:55Z</time>
      </trkpt>
      <trkpt lat="48.28924" lon="-1.80962">
        <ele>102.4</ele>
        <time>2019-07-16T09:01:56Z</time>
      </trkpt>
      <trkpt lat="48.2892" lon="-1.80961">
        <ele>102.5</ele>
        <time>2019-07-16T09:01:57Z</time>
      </trkpt>
      <trkpt lat="48.28915" lon="-1.8096">
        <ele>102.6</ele>
        <time>2019-07-16T09:01:58Z</time>
      </trkpt>
      <trkpt lat="48.28911" lon="-1.80958">
        <ele>103</ele>
        <time>2019-07-16T09:01:59Z</time>
      </trkpt>
      <trkpt lat="48.28907" lon="-1.80957">
        <ele>103.2</ele>
        <time>2019-07-16T09:02:00Z</time>
      </trkpt>
      <trkpt lat="48.28903" lon="-1.80956">
        <ele>103</ele>
        <time>2019-07-16T09:02:01Z</time>
      </trkpt>
      <trkpt lat="48.28899" lon="-1.80954">
        <ele>102.8</ele>
        <time>2019-07-16T09:02:02Z</time>
      </trkpt>
      <trkpt lat="48.28896" lon="-1.80953">
        <ele>102.4</ele>
        <time>2019-07-16T09:02:03Z</time>
      </trkpt>
      <trkpt lat="48.28892" lon="-1.80951">
        <ele>102.2</ele>
        <time>2019-07-16T09:02:04Z</time>
      </trkpt>
      <trkpt lat="48.28888" lon="-1.8095">
        <ele>102</ele>
        <time>2019-07-16T09:02:05Z</time>
      </trkpt>
      <trkpt lat="48.28884" lon="-1.80949">
        <ele>102.1</ele>
        <time>2019-07-16T09:02:06Z</time>
      </trkpt>
      <trkpt lat="48.2888" lon="-1.80947">
        <ele>101.9</ele>
        <time>2019-07-16T09:02:07Z</time>
      </trkpt>
      <trkpt lat="48.28875" lon="-1.80946">
        <ele>102.1</ele>
        <time>2019-07-16T09:02:08Z</time>
      </trkpt>
      <trkpt lat="48.28871" lon="-1.80944">
        <ele>101.7</ele>
        <time>2019-07-16T09:02:09Z</time>
      </trkpt>
      <trkpt lat="48.28867" lon="-1.80943">
        <ele>101.8</ele>
        <time>2019-07-16T09:02:10Z</time>
      </trkpt>
      <trkpt lat="48.28863" lon="-1.80942">
        <ele>101.9</ele>
        <time>2019-07-16T09:02:11Z</time>
      </trkpt>
      <trkpt lat="48.28859" lon="-1.8094">
        <ele>102</ele>
        <time>2019-07-16T09:02:12Z</time>
      </trkpt>
      <trkpt lat="48.28855" lon="-1.80939">
        <ele>101.9</ele>
        <time>2019-07-16T09:02:13Z</time>
      </trkpt>
      <trkpt lat="48.28851" lon="-1.80938">
        <ele>101.6</ele>
        <time>2019-07-16T09:02:14Z</time>
      </trkpt>
      <trkpt lat="48.28848" lon="-1.80937">
        <ele>101.3</ele>
        <time>2019-07-16T09:02:15Z</time>
      </trkpt>
      <trkpt lat="48.28843" lon="-1.80935">
        <ele>101.2</ele>
        <time>2019-07-16T09:02:16Z</time>
      </trkpt>
      <trkpt lat="48.28839" lon="-1.80934">
        <ele>100.9</ele>
        <time>2019-07-16T09:02:17Z</time>
      </trkpt>
      <trkpt lat="48.28835" lon="-1.80932">
        <ele>100.8</ele>
        <time>2019-07-16T09:02:18Z</time>
      </trkpt>
      <trkpt lat="48.28831" lon="-1.80931">
        <ele>100.5</ele>
        <time>2019-07-16T09:02:19Z</time>
      </trkpt>
      <trkpt lat="48.28827" lon="-1.80929">
        <ele>100.1</ele>
        <time>2019-07-16T09:02:20Z</time>
      </trkpt>
      <trkpt lat="48.28822" lon="-1.80928">
        <ele>99.9</ele>
        <time>2019-07-16T09:02:21Z</time>
      </trkpt>
      <trkpt lat="48.28819" lon="-1.80927">
        <ele>99.9</ele>
        <time>2019-07-16T09:02:22Z</time>
      </trkpt>
      <trkpt lat="48.28814" lon="-1.80926">
        <ele>99.7</ele>
        <time>2019-07-16T09:02:23Z</time>
      </trkpt>
      <trkpt lat="48.28811" lon="-1.80925">
        <ele>100.2</ele>
        <time>2019-07-16T09:02:24Z</time>
      </trkpt>
      <trkpt lat="48.28807" lon="-1.80924">
        <ele>100.4</ele>
        <time>2019-07-16T09:02:25Z</time>
      </trkpt>
      <trkpt lat="48.28804" lon="-1.80923">
        <ele>100.7</ele>
        <time>2019-07-16T09:02:26Z</time>
      </trkpt>
      <trkpt lat="48.288" lon="-1.80922">
        <ele>100.7</ele>
        <time>2019-07-16T09:02:27Z</time>
      </trkpt>
      <trkpt lat="48.28796" lon="-1.80921">
        <ele>100.3</ele>
        <time>2019-07-16T09:02:28Z</time>
      </trkpt>
      <trkpt lat="48.28793" lon="-1.8092">
        <ele>99.8</ele>
        <time>2019-07-16T09:02:29Z</time>
      </trkpt>
      <trkpt lat="48.2879" lon="-1.80919">
        <ele>99.5</ele>
        <time>2019-07-16T09:02:30Z</time>
      </trkpt>
      <trkpt lat="48.28788" lon="-1.80919">
        <ele>99.4</ele>
        <time>2019-07-16T09:02:31Z</time>
      </trkpt>
      <trkpt lat="48.28786" lon="-1.80917">
        <ele>99.8</ele>
        <time>2019-07-16T09:02:32Z</time>
      </trkpt>
      <trkpt lat="48.28785" lon="-1.80914">
        <ele>99.9</ele>
        <time>2019-07-16T09:02:33Z</time>
      </trkpt>
      <trkpt lat="48.28783" lon="-1.8091">
        <ele>99.9</ele>
        <time>2019-07-16T09:02:34Z</time>
      </trkpt>
      <trkpt lat="48.28783" lon="-1.80908">
        <ele>100.1</ele>
        <time>2019-07-16T09:02:35Z</time>
      </trkpt>
      <trkpt lat="48.28783" lon="-1.80906">
        <ele>100.3</ele>
        <time>2019-07-16T09:02:36Z</time>
      </trkpt>
      <trkpt lat="48.28782" lon="-1.80906">
        <ele>100.5</ele>
        <time>2019-07-16T09:02:37Z</time>
      </trkpt>
      <trkpt lat="48.28781" lon="-1.80904">
        <ele>101.7</ele>
        <time>2019-07-16T09:02:40Z</time>
      </trkpt>
      <trkpt lat="48.28782" lon="-1.80901">
        <ele>102.1</ele>
        <time>2019-07-16T09:02:41Z</time>
      </trkpt>
      <trkpt lat="48.28783" lon="-1.80897">
        <ele>102.4</ele>
        <time>2019-07-16T09:02:42Z</time>
      </trkpt>
      <trkpt lat="48.28784" lon="-1.80892">
        <ele>102.8</ele>
        <time>2019-07-16T09:02:43Z</time>
      </trkpt>
      <trkpt lat="48.28784" lon="-1.80887">
        <ele>103</ele>
        <time>2019-07-16T09:02:44Z</time>
      </trkpt>
      <trkpt lat="48.28784" lon="-1.80882">
        <ele>103.1</ele>
        <time>2019-07-16T09:02:45Z</time>
      </trkpt>
      <trkpt lat="48.28783" lon="-1.80877">
        <ele>103.1</ele>
        <time>2019-07-16T09:02:46Z</time>
      </trkpt>
      <trkpt lat="48.28783" lon="-1.80872">
        <ele>103.3</ele>
        <time>2019-07-16T09:02:47Z</time>
      </trkpt>
      <trkpt lat="48.28783" lon="-1.80866">
        <ele>103.3</ele>
        <time>2019-07-16T09:02:48Z</time>
      </trkpt>
      <trkpt lat="48.28784" lon="-1.80861">
        <ele>103.6</ele>
        <time>2019-07-16T09:02:49Z</time>
      </trkpt>
      <trkpt lat="48.28782" lon="-1.80855">
        <ele>102.9</ele>
        <time>2019-07-16T09:02:50Z</time>
      </trkpt>
      <trkpt lat="48.28781" lon="-1.8085">
        <ele>102.4</ele>
        <time>2019-07-16T09:02:51Z</time>
      </trkpt>
      <trkpt lat="48.2878" lon="-1.80844">
        <ele>102.3</ele>
        <time>2019-07-16T09:02:52Z</time>
      </trkpt>
      <trkpt lat="48.28779" lon="-1.80838">
        <ele>102.2</ele>
        <time>2019-07-16T09:02:53Z</time>
      </trkpt>
      <trkpt lat="48.28778" lon="-1.80832">
        <ele>102.3</ele>
        <time>2019-07-16T09:02:54Z</time>
      </trkpt>
      <trkpt lat="48.28777" lon="-1.80827">
        <ele>102.5</ele>
        <time>2019-07-16T09:02:55Z</time>
      </trkpt>
      <trkpt lat="48.28777" lon="-1.80823">
        <ele>102.7</ele>
        <time>2019-07-16T09:02:56Z</time>
      </trkpt>
      <trkpt lat="48.28777" lon="-1.80818">
        <ele>102.8</ele>
        <time>2019-07-16T09:02:57Z</time>
      </trkpt>
      <trkpt lat="48.28777" lon="-1.80813">
        <ele>102.7</ele>
        <time>2019-07-16T09:02:58Z</time>
      </trkpt>
      <trkpt lat="48.28777" lon="-1.80808">
        <ele>102.4</ele>
        <time>2019-07-16T09:02:59Z</time>
      </trkpt>
      <trkpt lat="48.28775" lon="-1.80803">
        <ele>102.2</ele>
        <time>2019-07-16T09:03:00Z</time>
      </trkpt>
      <trkpt lat="48.28775" lon="-1.80797">
        <ele>102.3</ele>
        <time>2019-07-16T09:03:01Z</time>
      </trkpt>
      <trkpt lat="48.28775" lon="-1.80792">
        <ele>102.4</ele>
        <time>2019-07-16T09:03:02Z</time>
      </trkpt>
      <trkpt lat="48.28774" lon="-1.80786">
        <ele>102.4</ele>
        <time>2019-07-16T09:03:03Z</time>
      </trkpt>
      <trkpt lat="48.28773" lon="-1.8078">
        <ele>102.1</ele>
        <time>2019-07-16T09:03:04Z</time>
      </trkpt>
      <trkpt lat="48.28772" lon="-1.80775">
        <ele>101.9</ele>
        <time>2019-07-16T09:03:05Z</time>
      </trkpt>
      <trkpt lat="48.28772" lon="-1.80769">
        <ele>101.4</ele>
        <time>2019-07-16T09:03:06Z</time>
      </trkpt>
      <trkpt lat="48.28771" lon="-1.80763">
        <ele>101</ele>
        <time>2019-07-16T09:03:07Z</time>
      </trkpt>
      <trkpt lat="48.28769" lon="-1.80758">
        <ele>100.6</ele>
        <time>2019-07-16T09:03:08Z</time>
      </trkpt>
      <trkpt lat="48.28768" lon="-1.80753">
        <ele>100.6</ele>
        <time>2019-07-16T09:03:09Z</time>
      </trkpt>
      <trkpt lat="48.28767" lon="-1.80748">
        <ele>100.5</ele>
        <time>2019-07-16T09:03:10Z</time>
      </trkpt>
      <trkpt lat="48.28765" lon="-1.80743">
        <ele>100.9</ele>
        <time>2019-07-16T09:03:11Z</time>
      </trkpt>
      <trkpt lat="48.28764" lon="-1.80738">
        <ele>101.5</ele>
        <time>2019-07-16T09:03:12Z</time>
      </trkpt>
      <trkpt lat="48.28763" lon="-1.80733">
        <ele>102</ele>
        <time>2019-07-16T09:03:13Z</time>
      </trkpt>
      <trkpt lat="48.28762" lon="-1.80728">
        <ele>102.3</ele>
        <time>2019-07-16T09:03:14Z</time>
      </trkpt>
      <trkpt lat="48.28761" lon="-1.80723">
        <ele>102.6</ele>
        <time>2019-07-16T09:03:15Z</time>
      </trkpt>
      <trkpt lat="48.2876" lon="-1.80717">
        <ele>103.3</ele>
        <time>2019-07-16T09:03:16Z</time>
      </trkpt>
      <trkpt lat="48.28758" lon="-1.80711">
        <ele>103.9</ele>
        <time>2019-07-16T09:03:17Z</time>
      </trkpt>
      <trkpt lat="48.28756" lon="-1.80705">
        <ele>104.3</ele>
        <time>2019-07-16T09:03:18Z</time>
      </trkpt>
      <trkpt lat="48.28755" lon="-1.80699">
        <ele>104.6</ele>
        <time>2019-07-16T09:03:19Z</time>
      </trkpt>
      <trkpt lat="48.28754" lon="-1.80693">
        <ele>105.1</ele>
        <time>2019-07-16T09:03:20Z</time>
      </trkpt>
      <trkpt lat="48.28753" lon="-1.80686">
        <ele>105.2</ele>
        <time>2019-07-16T09:03:21Z</time>
      </trkpt>
      <trkpt lat="48.28751" lon="-1.8068">
        <ele>105.2</ele>
        <time>2019-07-16T09:03:22Z</time>
      </trkpt>
      <trkpt lat="48.28749" lon="-1.80674">
        <ele>104.9</ele>
        <time>2019-07-16T09:03:23Z</time>
      </trkpt>
      <trkpt lat="48.28747" lon="-1.80668">
        <ele>104.5</ele>
        <time>2019-07-16T09:03:24Z</time>
      </trkpt>
      <trkpt lat="48.28745" lon="-1.80662">
        <ele>104.1</ele>
        <time>2019-07-16T09:03:25Z</time>
      </trkpt>
      <trkpt lat="48.28745" lon="-1.80656">
        <ele>103.9</ele>
        <time>2019-07-16T09:03:26Z</time>
      </trkpt>
      <trkpt lat="48.28743" lon="-1.8065">
        <ele>103.7</ele>
        <time>2019-07-16T09:03:27Z</time>
      </trkpt>
      <trkpt lat="48.28743" lon="-1.80644">
        <ele>104</ele>
        <time>2019-07-16T09:03:28Z</time>
      </trkpt>
      <trkpt lat="48.28742" lon="-1.80639">
        <ele>104.1</ele>
        <time>2019-07-16T09:03:29Z</time>
      </trkpt>
      <trkpt lat="48.28741" lon="-1.80633">
        <ele>104.1</ele>
        <time>2019-07-16T09:03:30Z</time>
      </trkpt>
      <trkpt lat="48.2874" lon="-1.80627">
        <ele>104</ele>
        <time>2019-07-16T09:03:31Z</time>
      </trkpt>
      <trkpt lat="48.28738" lon="-1.8062">
        <ele>104</ele>
        <time>2019-07-16T09:03:32Z</time>
      </trkpt>
      <trkpt lat="48.28736" lon="-1.80614">
        <ele>103.7</ele>
        <time>2019-07-16T09:03:33Z</time>
      </trkpt>
      <trkpt lat="48.28735" lon="-1.80607">
        <ele>103.8</ele>
        <time>2019-07-16T09:03:34Z</time>
      </trkpt>
      <trkpt lat="48.28734" lon="-1.80601">
        <ele>103.8</ele>
        <time>2019-07-16T09:03:35Z</time>
      </trkpt>
      <trkpt lat="48.28733" lon="-1.80594">
        <ele>103.8</ele>
        <time>2019-07-16T09:03:36Z</time>
      </trkpt>
      <trkpt lat="48.28731" lon="-1.80588">
        <ele>103.9</ele>
        <time>2019-07-16T09:03:37Z</time>
      </trkpt>
      <trkpt lat="48.2873" lon="-1.80581">
        <ele>103.9</ele>
        <time>2019-07-16T09:03:38Z</time>
      </trkpt>
      <trkpt lat="48.28729" lon="-1.80575">
        <ele>104</ele>
        <time>2019-07-16T09:03:39Z</time>
      </trkpt>
      <trkpt lat="48.28727" lon="-1.80569">
        <ele>104.1</ele>
        <time>2019-07-16T09:03:40Z</time>
      </trkpt>
      <trkpt lat="48.28726" lon="-1.80563">
        <ele>103.9</ele>
        <time>2019-07-16T09:03:41Z</time>
      </trkpt>
      <trkpt lat="48.28725" lon="-1.80557">
        <ele>103.9</ele>
        <time>2019-07-16T09:03:42Z</time>
      </trkpt>
      <trkpt lat="48.28724" lon="-1.80552">
        <ele>104</ele>
        <time>2019-07-16T09:03:43Z</time>
      </trkpt>
      <trkpt lat="48.28723" lon="-1.80545">
        <ele>103.8</ele>
        <time>2019-07-16T09:03:44Z</time>
      </trkpt>
      <trkpt lat="48.28722" lon="-1.80539">
        <ele>103.8</ele>
        <time>2019-07-16T09:03:45Z</time>
      </trkpt>
      <trkpt lat="48.2872" lon="-1.80534">
        <ele>103.9</ele>
        <time>2019-07-16T09:03:46Z</time>
      </trkpt>
      <trkpt lat="48.28719" lon="-1.80527">
        <ele>104</ele>
        <time>2019-07-16T09:03:47Z</time>
      </trkpt>
      <trkpt lat="48.28717" lon="-1.80521">
        <ele>104</ele>
        <time>2019-07-16T09:03:48Z</time>
      </trkpt>
      <trkpt lat="48.28717" lon="-1.80516">
        <ele>104</ele>
        <time>2019-07-16T09:03:49Z</time>
      </trkpt>
      <trkpt lat="48.28717" lon="-1.80511">
        <ele>104.1</ele>
        <time>2019-07-16T09:03:50Z</time>
      </trkpt>
      <trkpt lat="48.28717" lon="-1.80507">
        <ele>103.8</ele>
        <time>2019-07-16T09:03:51Z</time>
      </trkpt>
      <trkpt lat="48.28717" lon="-1.80504">
        <ele>103.7</ele>
        <time>2019-07-16T09:03:52Z</time>
      </trkpt>
      <trkpt lat="48.28718" lon="-1.80502">
        <ele>103.8</ele>
        <time>2019-07-16T09:03:53Z</time>
      </trkpt>
      <trkpt lat="48.28718" lon="-1.80498">
        <ele>103.4</ele>
        <time>2019-07-16T09:03:54Z</time>
      </trkpt>
      <trkpt lat="48.28717" lon="-1.80494">
        <ele>103.1</ele>
        <time>2019-07-16T09:03:55Z</time>
      </trkpt>
      <trkpt lat="48.28715" lon="-1.80489">
        <ele>103</ele>
        <time>2019-07-16T09:03:56Z</time>
      </trkpt>
      <trkpt lat="48.28713" lon="-1.80485">
        <ele>103.2</ele>
        <time>2019-07-16T09:03:57Z</time>
      </trkpt>
      <trkpt lat="48.28713" lon="-1.8048">
        <ele>103.4</ele>
        <time>2019-07-16T09:03:58Z</time>
      </trkpt>
      <trkpt lat="48.28711" lon="-1.80476">
        <ele>103.7</ele>
        <time>2019-07-16T09:03:59Z</time>
      </trkpt>
      <trkpt lat="48.28711" lon="-1.80471">
        <ele>103.9</ele>
        <time>2019-07-16T09:04:00Z</time>
      </trkpt>
      <trkpt lat="48.2871" lon="-1.80466">
        <ele>104.1</ele>
        <time>2019-07-16T09:04:01Z</time>
      </trkpt>
      <trkpt lat="48.28709" lon="-1.80461">
        <ele>104.1</ele>
        <time>2019-07-16T09:04:02Z</time>
      </trkpt>
      <trkpt lat="48.28707" lon="-1.80456">
        <ele>103.9</ele>
        <time>2019-07-16T09:04:03Z</time>
      </trkpt>
      <trkpt lat="48.28705" lon="-1.80452">
        <ele>104.1</ele>
        <time>2019-07-16T09:04:04Z</time>
      </trkpt>
      <trkpt lat="48.28703" lon="-1.80447">
        <ele>103.8</ele>
        <time>2019-07-16T09:04:05Z</time>
      </trkpt>
      <trkpt lat="48.28701" lon="-1.80442">
        <ele>103.5</ele>
        <time>2019-07-16T09:04:06Z</time>
      </trkpt>
      <trkpt lat="48.28698" lon="-1.80438">
        <ele>103.1</ele>
        <time>2019-07-16T09:04:07Z</time>
      </trkpt>
      <trkpt lat="48.28696" lon="-1.80434">
        <ele>102.8</ele>
        <time>2019-07-16T09:04:08Z</time>
      </trkpt>
      <trkpt lat="48.28693" lon="-1.80429">
        <ele>102.6</ele>
        <time>2019-07-16T09:04:09Z</time>
      </trkpt>
      <trkpt lat="48.2869" lon="-1.80425">
        <ele>102.4</ele>
        <time>2019-07-16T09:04:10Z</time>
      </trkpt>
      <trkpt lat="48.28688" lon="-1.80421">
        <ele>102.3</ele>
        <time>2019-07-16T09:04:11Z</time>
      </trkpt>
      <trkpt lat="48.28685" lon="-1.80417">
        <ele>102.1</ele>
        <time>2019-07-16T09:04:12Z</time>
      </trkpt>
      <trkpt lat="48.28683" lon="-1.80413">
        <ele>101.9</ele>
        <time>2019-07-16T09:04:13Z</time>
      </trkpt>
      <trkpt lat="48.2868" lon="-1.80409">
        <ele>101.6</ele>
        <time>2019-07-16T09:04:14Z</time>
      </trkpt>
      <trkpt lat="48.28677" lon="-1.80405">
        <ele>101.2</ele>
        <time>2019-07-16T09:04:15Z</time>
      </trkpt>
      <trkpt lat="48.28674" lon="-1.80401">
        <ele>101</ele>
        <time>2019-07-16T09:04:16Z</time>
      </trkpt>
      <trkpt lat="48.28671" lon="-1.80397">
        <ele>100.6</ele>
        <time>2019-07-16T09:04:17Z</time>
      </trkpt>
      <trkpt lat="48.28668" lon="-1.80393">
        <ele>100.1</ele>
        <time>2019-07-16T09:04:18Z</time>
      </trkpt>
      <trkpt lat="48.28665" lon="-1.80389">
        <ele>99.6</ele>
        <time>2019-07-16T09:04:19Z</time>
      </trkpt>
      <trkpt lat="48.28661" lon="-1.80385">
        <ele>99.3</ele>
        <time>2019-07-16T09:04:20Z</time>
      </trkpt>
      <trkpt lat="48.28658" lon="-1.80382">
        <ele>99</ele>
        <time>2019-07-16T09:04:21Z</time>
      </trkpt>
      <trkpt lat="48.28655" lon="-1.80379">
        <ele>98.7</ele>
        <time>2019-07-16T09:04:22Z</time>
      </trkpt>
      <trkpt lat="48.2865" lon="-1.80377">
        <ele>98.3</ele>
        <time>2019-07-16T09:04:23Z</time>
      </trkpt>
      <trkpt lat="48.28646" lon="-1.80374">
        <ele>98.2</ele>
        <time>2019-07-16T09:04:24Z</time>
      </trkpt>
      <trkpt lat="48.28642" lon="-1.80371">
        <ele>97.9</ele>
        <time>2019-07-16T09:04:25Z</time>
      </trkpt>
      <trkpt lat="48.28637" lon="-1.80368">
        <ele>97.5</ele>
        <time>2019-07-16T09:04:26Z</time>
      </trkpt>
      <trkpt lat="48.28633" lon="-1.80365">
        <ele>97.3</ele>
        <time>2019-07-16T09:04:27Z</time>
      </trkpt>
      <trkpt lat="48.28629" lon="-1.80363">
        <ele>97</ele>
        <time>2019-07-16T09:04:28Z</time>
      </trkpt>
      <trkpt lat="48.28625" lon="-1.8036">
        <ele>97.1</ele>
        <time>2019-07-16T09:04:29Z</time>
      </trkpt>
      <trkpt lat="48.28621" lon="-1.80357">
        <ele>97.2</ele>
        <time>2019-07-16T09:04:30Z</time>
      </trkpt>
      <trkpt lat="48.28616" lon="-1.80353">
        <ele>97.5</ele>
        <time>2019-07-16T09:04:31Z</time>
      </trkpt>
      <trkpt lat="48.28612" lon="-1.8035">
        <ele>97.5</ele>
        <time>2019-07-16T09:04:32Z</time>
      </trkpt>
      <trkpt lat="48.28608" lon="-1.80347">
        <ele>97.7</ele>
        <time>2019-07-16T09:04:33Z</time>
      </trkpt>
      <trkpt lat="48.28603" lon="-1.80344">
        <ele>97.6</ele>
        <time>2019-07-16T09:04:34Z</time>
      </trkpt>
      <trkpt lat="48.28599" lon="-1.80341">
        <ele>97.2</ele>
        <time>2019-07-16T09:04:35Z</time>
      </trkpt>
      <trkpt lat="48.28595" lon="-1.80339">
        <ele>96.8</ele>
        <time>2019-07-16T09:04:36Z</time>
      </trkpt>
      <trkpt lat="48.28592" lon="-1.80336">
        <ele>96.4</ele>
        <time>2019-07-16T09:04:37Z</time>
      </trkpt>
      <trkpt lat="48.28588" lon="-1.80334">
        <ele>96</ele>
        <time>2019-07-16T09:04:38Z</time>
      </trkpt>
      <trkpt lat="48.28584" lon="-1.80331">
        <ele>95.4</ele>
        <time>2019-07-16T09:04:39Z</time>
      </trkpt>
      <trkpt lat="48.28581" lon="-1.80328">
        <ele>95</ele>
        <time>2019-07-16T09:04:40Z</time>
      </trkpt>
      <trkpt lat="48.28578" lon="-1.80326">
        <ele>94.3</ele>
        <time>2019-07-16T09:04:41Z</time>
      </trkpt>
      <trkpt lat="48.28576" lon="-1.80324">
        <ele>93.5</ele>
        <time>2019-07-16T09:04:42Z</time>
      </trkpt>
      <trkpt lat="48.28574" lon="-1.80324">
        <ele>94.3</ele>
        <time>2019-07-16T09:04:43Z</time>
      </trkpt>
      <trkpt lat="48.28572" lon="-1.80325">
        <ele>95.4</ele>
        <time>2019-07-16T09:04:44Z</time>
      </trkpt>
      <trkpt lat="48.28571" lon="-1.80324">
        <ele>95.4</ele>
        <time>2019-07-16T09:04:45Z</time>
      </trkpt>
      <trkpt lat="48.28569" lon="-1.80322">
        <ele>94.2</ele>
        <time>2019-07-16T09:04:57Z</time>
      </trkpt>
      <trkpt lat="48.28568" lon="-1.80319">
        <ele>94.2</ele>
        <time>2019-07-16T09:04:58Z</time>
      </trkpt>
      <trkpt lat="48.28568" lon="-1.80315">
        <ele>94</ele>
        <time>2019-07-16T09:04:59Z</time>
      </trkpt>
      <trkpt lat="48.28569" lon="-1.80311">
        <ele>93.9</ele>
        <time>2019-07-16T09:05:00Z</time>
      </trkpt>
      <trkpt lat="48.2857" lon="-1.80308">
        <ele>94.1</ele>
        <time>2019-07-16T09:05:01Z</time>
      </trkpt>
      <trkpt lat="48.28572" lon="-1.80304">
        <ele>94.3</ele>
        <time>2019-07-16T09:05:02Z</time>
      </trkpt>
      <trkpt lat="48.28573" lon="-1.803">
        <ele>94.4</ele>
        <time>2019-07-16T09:05:03Z</time>
      </trkpt>
      <trkpt lat="48.28575" lon="-1.80296">
        <ele>94.5</ele>
        <time>2019-07-16T09:05:04Z</time>
      </trkpt>
      <trkpt lat="48.28577" lon="-1.80292">
        <ele>94.7</ele>
        <time>2019-07-16T09:05:05Z</time>
      </trkpt>
      <trkpt lat="48.28579" lon="-1.80288">
        <ele>94.9</ele>
        <time>2019-07-16T09:05:06Z</time>
      </trkpt>
      <trkpt lat="48.28581" lon="-1.80283">
        <ele>95.1</ele>
        <time>2019-07-16T09:05:07Z</time>
      </trkpt>
      <trkpt lat="48.28583" lon="-1.80279">
        <ele>95.2</ele>
        <time>2019-07-16T09:05:08Z</time>
      </trkpt>
      <trkpt lat="48.28586" lon="-1.80275">
        <ele>95.4</ele>
        <time>2019-07-16T09:05:09Z</time>
      </trkpt>
      <trkpt lat="48.2859" lon="-1.80271">
        <ele>95.8</ele>
        <time>2019-07-16T09:05:10Z</time>
      </trkpt>
      <trkpt lat="48.28592" lon="-1.80268">
        <ele>96.2</ele>
        <time>2019-07-16T09:05:11Z</time>
      </trkpt>
      <trkpt lat="48.28594" lon="-1.80264">
        <ele>96.5</ele>
        <time>2019-07-16T09:05:12Z</time>
      </trkpt>
      <trkpt lat="48.28597" lon="-1.80259">
        <ele>96.9</ele>
        <time>2019-07-16T09:05:13Z</time>
      </trkpt>
      <trkpt lat="48.28598" lon="-1.80255">
        <ele>97.1</ele>
        <time>2019-07-16T09:05:14Z</time>
      </trkpt>
      <trkpt lat="48.28602" lon="-1.80251">
        <ele>97.4</ele>
        <time>2019-07-16T09:05:15Z</time>
      </trkpt>
      <trkpt lat="48.28603" lon="-1.80247">
        <ele>97.6</ele>
        <time>2019-07-16T09:05:16Z</time>
      </trkpt>
      <trkpt lat="48.28606" lon="-1.80241">
        <ele>97.8</ele>
        <time>2019-07-16T09:05:17Z</time>
      </trkpt>
      <trkpt lat="48.28608" lon="-1.80237">
        <ele>98</ele>
        <time>2019-07-16T09:05:18Z</time>
      </trkpt>
      <trkpt lat="48.2861" lon="-1.80232">
        <ele>98.1</ele>
        <time>2019-07-16T09:05:19Z</time>
      </trkpt>
      <trkpt lat="48.28612" lon="-1.80227">
        <ele>98.6</ele>
        <time>2019-07-16T09:05:20Z</time>
      </trkpt>
      <trkpt lat="48.28614" lon="-1.80221">
        <ele>98.9</ele>
        <time>2019-07-16T09:05:21Z</time>
      </trkpt>
      <trkpt lat="48.28616" lon="-1.80216">
        <ele>99.4</ele>
        <time>2019-07-16T09:05:22Z</time>
      </trkpt>
      <trkpt lat="48.28618" lon="-1.8021">
        <ele>99.8</ele>
        <time>2019-07-16T09:05:23Z</time>
      </trkpt>
      <trkpt lat="48.28621" lon="-1.80205">
        <ele>100</ele>
        <time>2019-07-16T09:05:24Z</time>
      </trkpt>
      <trkpt lat="48.28624" lon="-1.802">
        <ele>100.2</ele>
        <time>2019-07-16T09:05:25Z</time>
      </trkpt>
      <trkpt lat="48.28626" lon="-1.80194">
        <ele>100.3</ele>
        <time>2019-07-16T09:05:26Z</time>
      </trkpt>
      <trkpt lat="48.28629" lon="-1.80188">
        <ele>100.4</ele>
        <time>2019-07-16T09:05:27Z</time>
      </trkpt>
      <trkpt lat="48.28631" lon="-1.80184">
        <ele>100.6</ele>
        <time>2019-07-16T09:05:28Z</time>
      </trkpt>
      <trkpt lat="48.28634" lon="-1.80178">
        <ele>101.1</ele>
        <time>2019-07-16T09:05:29Z</time>
      </trkpt>
      <trkpt lat="48.28635" lon="-1.80171">
        <ele>101.4</ele>
        <time>2019-07-16T09:05:30Z</time>
      </trkpt>
      <trkpt lat="48.28634" lon="-1.80164">
        <ele>100.8</ele>
        <time>2019-07-16T09:05:31Z</time>
      </trkpt>
      <trkpt lat="48.28632" lon="-1.80157">
        <ele>100.5</ele>
        <time>2019-07-16T09:05:32Z</time>
      </trkpt>
      <trkpt lat="48.28628" lon="-1.80151">
        <ele>100.3</ele>
        <time>2019-07-16T09:05:33Z</time>
      </trkpt>
      <trkpt lat="48.28623" lon="-1.80147">
        <ele>100.4</ele>
        <time>2019-07-16T09:05:34Z</time>
      </trkpt>
      <trkpt lat="48.28618" lon="-1.80145">
        <ele>100.3</ele>
        <time>2019-07-16T09:05:35Z</time>
      </trkpt>
      <trkpt lat="48.28614" lon="-1.80144">
        <ele>100.2</ele>
        <time>2019-07-16T09:05:36Z</time>
      </trkpt>
      <trkpt lat="48.28611" lon="-1.80141">
        <ele>99.9</ele>
        <time>2019-07-16T09:05:37Z</time>
      </trkpt>
      <trkpt lat="48.28607" lon="-1.80139">
        <ele>99.5</ele>
        <time>2019-07-16T09:05:38Z</time>
      </trkpt>
      <trkpt lat="48.28605" lon="-1.80138">
        <ele>98.8</ele>
        <time>2019-07-16T09:05:39Z</time>
      </trkpt>
      <trkpt lat="48.28602" lon="-1.80135">
        <ele>98.4</ele>
        <time>2019-07-16T09:05:40Z</time>
      </trkpt>
      <trkpt lat="48.286" lon="-1.80132">
        <ele>97.8</ele>
        <time>2019-07-16T09:05:41Z</time>
      </trkpt>
      <trkpt lat="48.28599" lon="-1.80127">
        <ele>97.3</ele>
        <time>2019-07-16T09:05:42Z</time>
      </trkpt>
      <trkpt lat="48.28598" lon="-1.80123">
        <ele>97.1</ele>
        <time>2019-07-16T09:05:43Z</time>
      </trkpt>
      <trkpt lat="48.286" lon="-1.80118">
        <ele>97.3</ele>
        <time>2019-07-16T09:05:44Z</time>
      </trkpt>
      <trkpt lat="48.28602" lon="-1.80114">
        <ele>97.4</ele>
        <time>2019-07-16T09:05:45Z</time>
      </trkpt>
      <trkpt lat="48.28603" lon="-1.80111">
        <ele>97.4</ele>
        <time>2019-07-16T09:05:46Z</time>
      </trkpt>
      <trkpt lat="48.28606" lon="-1.80109">
        <ele>97.3</ele>
        <time>2019-07-16T09:05:47Z</time>
      </trkpt>
      <trkpt lat="48.2861" lon="-1.80108">
        <ele>97.2</ele>
        <time>2019-07-16T09:05:48Z</time>
      </trkpt>
      <trkpt lat="48.28613" lon="-1.80107">
        <ele>97.3</ele>
        <time>2019-07-16T09:05:49Z</time>
      </trkpt>
      <trkpt lat="48.28617" lon="-1.80107">
        <ele>97.2</ele>
        <time>2019-07-16T09:05:50Z</time>
      </trkpt>
      <trkpt lat="48.28621" lon="-1.80107">
        <ele>97.3</ele>
        <time>2019-07-16T09:05:51Z</time>
      </trkpt>
      <trkpt lat="48.28625" lon="-1.80106">
        <ele>97.3</ele>
        <time>2019-07-16T09:05:52Z</time>
      </trkpt>
      <trkpt lat="48.28629" lon="-1.80105">
        <ele>97.2</ele>
        <time>2019-07-16T09:05:53Z</time>
      </trkpt>
      <trkpt lat="48.28634" lon="-1.80105">
        <ele>97.6</ele>
        <time>2019-07-16T09:05:54Z</time>
      </trkpt>
      <trkpt lat="48.28638" lon="-1.80104">
        <ele>98.1</ele>
        <time>2019-07-16T09:05:55Z</time>
      </trkpt>
      <trkpt lat="48.28643" lon="-1.80103">
        <ele>98.6</ele>
        <time>2019-07-16T09:05:56Z</time>
      </trkpt>
      <trkpt lat="48.28647" lon="-1.80102">
        <ele>98.8</ele>
        <time>2019-07-16T09:05:57Z</time>
      </trkpt>
      <trkpt lat="48.28652" lon="-1.80102">
        <ele>99</ele>
        <time>2019-07-16T09:05:58Z</time>
      </trkpt>
      <trkpt lat="48.28657" lon="-1.80101">
        <ele>99.4</ele>
        <time>2019-07-16T09:05:59Z</time>
      </trkpt>
      <trkpt lat="48.28663" lon="-1.80101">
        <ele>99.5</ele>
        <time>2019-07-16T09:06:00Z</time>
      </trkpt>
      <trkpt lat="48.28668" lon="-1.801">
        <ele>99.5</ele>
        <time>2019-07-16T09:06:01Z</time>
      </trkpt>
      <trkpt lat="48.28673" lon="-1.801">
        <ele>99.4</ele>
        <time>2019-07-16T09:06:02Z</time>
      </trkpt>
      <trkpt lat="48.28678" lon="-1.801">
        <ele>98.9</ele>
        <time>2019-07-16T09:06:03Z</time>
      </trkpt>
      <trkpt lat="48.28683" lon="-1.80099">
        <ele>98.8</ele>
        <time>2019-07-16T09:06:04Z</time>
      </trkpt>
      <trkpt lat="48.28688" lon="-1.80099">
        <ele>98.1</ele>
        <time>2019-07-16T09:06:05Z</time>
      </trkpt>
      <trkpt lat="48.28693" lon="-1.80098">
        <ele>97.7</ele>
        <time>2019-07-16T09:06:06Z</time>
      </trkpt>
      <trkpt lat="48.28698" lon="-1.80098">
        <ele>97.3</ele>
        <time>2019-07-16T09:06:07Z</time>
      </trkpt>
      <trkpt lat="48.28704" lon="-1.80098">
        <ele>96.8</ele>
        <time>2019-07-16T09:06:08Z</time>
      </trkpt>
      <trkpt lat="48.28709" lon="-1.80099">
        <ele>96.2</ele>
        <time>2019-07-16T09:06:09Z</time>
      </trkpt>
      <trkpt lat="48.28714" lon="-1.80099">
        <ele>95.7</ele>
        <time>2019-07-16T09:06:10Z</time>
      </trkpt>
      <trkpt lat="48.28719" lon="-1.80099">
        <ele>95.2</ele>
        <time>2019-07-16T09:06:11Z</time>
      </trkpt>
      <trkpt lat="48.28724" lon="-1.80099">
        <ele>95.6</ele>
        <time>2019-07-16T09:06:12Z</time>
      </trkpt>
      <trkpt lat="48.28729" lon="-1.80099">
        <ele>95.7</ele>
        <time>2019-07-16T09:06:13Z</time>
      </trkpt>
      <trkpt lat="48.28735" lon="-1.80098">
        <ele>95.4</ele>
        <time>2019-07-16T09:06:14Z</time>
      </trkpt>
      <trkpt lat="48.2874" lon="-1.80097">
        <ele>95.1</ele>
        <time>2019-07-16T09:06:15Z</time>
      </trkpt>
      <trkpt lat="48.28745" lon="-1.80096">
        <ele>94.6</ele>
        <time>2019-07-16T09:06:16Z</time>
      </trkpt>
      <trkpt lat="48.2875" lon="-1.80096">
        <ele>94.6</ele>
        <time>2019-07-16T09:06:17Z</time>
      </trkpt>
      <trkpt lat="48.28755" lon="-1.80096">
        <ele>95.4</ele>
        <time>2019-07-16T09:06:18Z</time>
      </trkpt>
      <trkpt lat="48.2876" lon="-1.80095">
        <ele>95.9</ele>
        <time>2019-07-16T09:06:19Z</time>
      </trkpt>
      <trkpt lat="48.28764" lon="-1.80094">
        <ele>96.2</ele>
        <time>2019-07-16T09:06:20Z</time>
      </trkpt>
      <trkpt lat="48.28769" lon="-1.80094">
        <ele>96</ele>
        <time>2019-07-16T09:06:21Z</time>
      </trkpt>
      <trkpt lat="48.28774" lon="-1.80094">
        <ele>96.1</ele>
        <time>2019-07-16T09:06:22Z</time>
      </trkpt>
      <trkpt lat="48.2878" lon="-1.80093">
        <ele>96.9</ele>
        <time>2019-07-16T09:06:23Z</time>
      </trkpt>
      <trkpt lat="48.28785" lon="-1.80092">
        <ele>96.6</ele>
        <time>2019-07-16T09:06:24Z</time>
      </trkpt>
      <trkpt lat="48.2879" lon="-1.8009">
        <ele>96.8</ele>
        <time>2019-07-16T09:06:25Z</time>
      </trkpt>
      <trkpt lat="48.28795" lon="-1.80089">
        <ele>96.5</ele>
        <time>2019-07-16T09:06:26Z</time>
      </trkpt>
      <trkpt lat="48.28799" lon="-1.80088">
        <ele>96.3</ele>
        <time>2019-07-16T09:06:27Z</time>
      </trkpt>
      <trkpt lat="48.28803" lon="-1.80085">
        <ele>96.5</ele>
        <time>2019-07-16T09:06:28Z</time>
      </trkpt>
      <trkpt lat="48.28807" lon="-1.80081">
        <ele>96.9</ele>
        <time>2019-07-16T09:06:29Z</time>
      </trkpt>
      <trkpt lat="48.28808" lon="-1.80073">
        <ele>96.6</ele>
        <time>2019-07-16T09:06:30Z</time>
      </trkpt>
      <trkpt lat="48.2881" lon="-1.80065">
        <ele>96.5</ele>
        <time>2019-07-16T09:06:31Z</time>
      </trkpt>
      <trkpt lat="48.28812" lon="-1.80057">
        <ele>96.7</ele>
        <time>2019-07-16T09:06:32Z</time>
      </trkpt>
      <trkpt lat="48.28816" lon="-1.8005">
        <ele>97.5</ele>
        <time>2019-07-16T09:06:33Z</time>
      </trkpt>
      <trkpt lat="48.2882" lon="-1.80044">
        <ele>98.2</ele>
        <time>2019-07-16T09:06:34Z</time>
      </trkpt>
      <trkpt lat="48.28825" lon="-1.80039">
        <ele>98.8</ele>
        <time>2019-07-16T09:06:35Z</time>
      </trkpt>
      <trkpt lat="48.28831" lon="-1.80036">
        <ele>98.8</ele>
        <time>2019-07-16T09:06:36Z</time>
      </trkpt>
      <trkpt lat="48.28837" lon="-1.80033">
        <ele>98.8</ele>
        <time>2019-07-16T09:06:37Z</time>
      </trkpt>
      <trkpt lat="48.28842" lon="-1.80029">
        <ele>99.1</ele>
        <time>2019-07-16T09:06:38Z</time>
      </trkpt>
      <trkpt lat="48.28846" lon="-1.80026">
        <ele>99.9</ele>
        <time>2019-07-16T09:06:39Z</time>
      </trkpt>
      <trkpt lat="48.2885" lon="-1.80023">
        <ele>99.3</ele>
        <time>2019-07-16T09:06:40Z</time>
      </trkpt>
      <trkpt lat="48.28853" lon="-1.80021">
        <ele>98.7</ele>
        <time>2019-07-16T09:06:41Z</time>
      </trkpt>
      <trkpt lat="48.28857" lon="-1.80018">
        <ele>98.8</ele>
        <time>2019-07-16T09:06:42Z</time>
      </trkpt>
      <trkpt lat="48.2886" lon="-1.80015">
        <ele>99.7</ele>
        <time>2019-07-16T09:06:43Z</time>
      </trkpt>
      <trkpt lat="48.28863" lon="-1.80013">
        <ele>100.3</ele>
        <time>2019-07-16T09:06:44Z</time>
      </trkpt>
      <trkpt lat="48.28867" lon="-1.80011">
        <ele>100.8</ele>
        <time>2019-07-16T09:06:45Z</time>
      </trkpt>
      <trkpt lat="48.28872" lon="-1.80008">
        <ele>100.4</ele>
        <time>2019-07-16T09:06:46Z</time>
      </trkpt>
      <trkpt lat="48.28877" lon="-1.80005">
        <ele>100.2</ele>
        <time>2019-07-16T09:06:47Z</time>
      </trkpt>
      <trkpt lat="48.28881" lon="-1.80002">
        <ele>100.2</ele>
        <time>2019-07-16T09:06:48Z</time>
      </trkpt>
      <trkpt lat="48.28885" lon="-1.79998">
        <ele>100.1</ele>
        <time>2019-07-16T09:06:49Z</time>
      </trkpt>
      <trkpt lat="48.28889" lon="-1.79994">
        <ele>99.7</ele>
        <time>2019-07-16T09:06:50Z</time>
      </trkpt>
      <trkpt lat="48.28893" lon="-1.7999">
        <ele>98.9</ele>
        <time>2019-07-16T09:06:51Z</time>
      </trkpt>
      <trkpt lat="48.28898" lon="-1.79987">
        <ele>98.3</ele>
        <time>2019-07-16T09:06:52Z</time>
      </trkpt>
      <trkpt lat="48.28902" lon="-1.79983">
        <ele>98</ele>
        <time>2019-07-16T09:06:53Z</time>
      </trkpt>
      <trkpt lat="48.28906" lon="-1.79979">
        <ele>97.8</ele>
        <time>2019-07-16T09:06:54Z</time>
      </trkpt>
      <trkpt lat="48.28909" lon="-1.79974">
        <ele>97.7</ele>
        <time>2019-07-16T09:06:55Z</time>
      </trkpt>
      <trkpt lat="48.28914" lon="-1.7997">
        <ele>97.6</ele>
        <time>2019-07-16T09:06:56Z</time>
      </trkpt>
      <trkpt lat="48.28918" lon="-1.79966">
        <ele>97.4</ele>
        <time>2019-07-16T09:06:57Z</time>
      </trkpt>
      <trkpt lat="48.28922" lon="-1.79963">
        <ele>96.3</ele>
        <time>2019-07-16T09:06:58Z</time>
      </trkpt>
      <trkpt lat="48.28927" lon="-1.79959">
        <ele>95.9</ele>
        <time>2019-07-16T09:06:59Z</time>
      </trkpt>
      <trkpt lat="48.28931" lon="-1.79955">
        <ele>95.4</ele>
        <time>2019-07-16T09:07:00Z</time>
      </trkpt>
      <trkpt lat="48.28935" lon="-1.79952">
        <ele>95.3</ele>
        <time>2019-07-16T09:07:01Z</time>
      </trkpt>
      <trkpt lat="48.28939" lon="-1.79948">
        <ele>94.9</ele>
        <time>2019-07-16T09:07:02Z</time>
      </trkpt>
      <trkpt lat="48.28943" lon="-1.79945">
        <ele>94.5</ele>
        <time>2019-07-16T09:07:03Z</time>
      </trkpt>
      <trkpt lat="48.28947" lon="-1.79941">
        <ele>94.6</ele>
        <time>2019-07-16T09:07:04Z</time>
      </trkpt>
      <trkpt lat="48.2895" lon="-1.79937">
        <ele>94.4</ele>
        <time>2019-07-16T09:07:05Z</time>
      </trkpt>
      <trkpt lat="48.28954" lon="-1.79934">
        <ele>94</ele>
        <time>2019-07-16T09:07:06Z</time>
      </trkpt>
      <trkpt lat="48.28959" lon="-1.79934">
        <ele>95.2</ele>
        <time>2019-07-16T09:07:07Z</time>
      </trkpt>
      <trkpt lat="48.28962" lon="-1.79932">
        <ele>94.3</ele>
        <time>2019-07-16T09:07:08Z</time>
      </trkpt>
      <trkpt lat="48.28966" lon="-1.79929">
        <ele>93.9</ele>
        <time>2019-07-16T09:07:09Z</time>
      </trkpt>
      <trkpt lat="48.28969" lon="-1.79926">
        <ele>93.8</ele>
        <time>2019-07-16T09:07:10Z</time>
      </trkpt>
      <trkpt lat="48.28973" lon="-1.79924">
        <ele>93.5</ele>
        <time>2019-07-16T09:07:11Z</time>
      </trkpt>
      <trkpt lat="48.28975" lon="-1.79922">
        <ele>93.6</ele>
        <time>2019-07-16T09:07:12Z</time>
      </trkpt>
      <trkpt lat="48.28979" lon="-1.7992">
        <ele>93.6</ele>
        <time>2019-07-16T09:07:13Z</time>
      </trkpt>
      <trkpt lat="48.28983" lon="-1.79919">
        <ele>94</ele>
        <time>2019-07-16T09:07:14Z</time>
      </trkpt>
      <trkpt lat="48.28986" lon="-1.79919">
        <ele>93.9</ele>
        <time>2019-07-16T09:07:15Z</time>
      </trkpt>
      <trkpt lat="48.28989" lon="-1.79919">
        <ele>94.1</ele>
        <time>2019-07-16T09:07:16Z</time>
      </trkpt>
      <trkpt lat="48.28993" lon="-1.79919">
        <ele>94.4</ele>
        <time>2019-07-16T09:07:17Z</time>
      </trkpt>
      <trkpt lat="48.28997" lon="-1.79921">
        <ele>94.8</ele>
        <time>2019-07-16T09:07:18Z</time>
      </trkpt>
      <trkpt lat="48.29" lon="-1.79922">
        <ele>94.7</ele>
        <time>2019-07-16T09:07:19Z</time>
      </trkpt>
      <trkpt lat="48.29004" lon="-1.79923">
        <ele>94.2</ele>
        <time>2019-07-16T09:07:20Z</time>
      </trkpt>
      <trkpt lat="48.29008" lon="-1.79925">
        <ele>94.4</ele>
        <time>2019-07-16T09:07:21Z</time>
      </trkpt>
      <trkpt lat="48.29012" lon="-1.79927">
        <ele>94.4</ele>
        <time>2019-07-16T09:07:22Z</time>
      </trkpt>
      <trkpt lat="48.29015" lon="-1.79929">
        <ele>94.8</ele>
        <time>2019-07-16T09:07:23Z</time>
      </trkpt>
      <trkpt lat="48.29019" lon="-1.79932">
        <ele>94.4</ele>
        <time>2019-07-16T09:07:24Z</time>
      </trkpt>
      <trkpt lat="48.29022" lon="-1.79934">
        <ele>94.4</ele>
        <time>2019-07-16T09:07:25Z</time>
      </trkpt>
      <trkpt lat="48.29026" lon="-1.79937">
        <ele>94.6</ele>
        <time>2019-07-16T09:07:26Z</time>
      </trkpt>
      <trkpt lat="48.29029" lon="-1.79938">
        <ele>95.2</ele>
        <time>2019-07-16T09:07:27Z</time>
      </trkpt>
      <trkpt lat="48.29033" lon="-1.79941">
        <ele>95.5</ele>
        <time>2019-07-16T09:07:28Z</time>
      </trkpt>
      <trkpt lat="48.29036" lon="-1.79944">
        <ele>95.7</ele>
        <time>2019-07-16T09:07:29Z</time>
      </trkpt>
      <trkpt lat="48.2904" lon="-1.79947">
        <ele>96.1</ele>
        <time>2019-07-16T09:07:30Z</time>
      </trkpt>
      <trkpt lat="48.29043" lon="-1.7995">
        <ele>96.3</ele>
        <time>2019-07-16T09:07:31Z</time>
      </trkpt>
      <trkpt lat="48.29046" lon="-1.79953">
        <ele>96</ele>
        <time>2019-07-16T09:07:32Z</time>
      </trkpt>
      <trkpt lat="48.2905" lon="-1.79956">
        <ele>95.9</ele>
        <time>2019-07-16T09:07:33Z</time>
      </trkpt>
      <trkpt lat="48.29053" lon="-1.79958">
        <ele>95.9</ele>
        <time>2019-07-16T09:07:34Z</time>
      </trkpt>
      <trkpt lat="48.29056" lon="-1.79961">
        <ele>95.9</ele>
        <time>2019-07-16T09:07:35Z</time>
      </trkpt>
      <trkpt lat="48.2906" lon="-1.79964">
        <ele>95.9</ele>
        <time>2019-07-16T09:07:36Z</time>
      </trkpt>
      <trkpt lat="48.29063" lon="-1.79968">
        <ele>95.5</ele>
        <time>2019-07-16T09:07:37Z</time>
      </trkpt>
      <trkpt lat="48.29067" lon="-1.79971">
        <ele>95.1</ele>
        <time>2019-07-16T09:07:38Z</time>
      </trkpt>
      <trkpt lat="48.2907" lon="-1.79974">
        <ele>94.5</ele>
        <time>2019-07-16T09:07:39Z</time>
      </trkpt>
      <trkpt lat="48.29073" lon="-1.79977">
        <ele>94.6</ele>
        <time>2019-07-16T09:07:40Z</time>
      </trkpt>
      <trkpt lat="48.29077" lon="-1.7998">
        <ele>94.5</ele>
        <time>2019-07-16T09:07:41Z</time>
      </trkpt>
      <trkpt lat="48.2908" lon="-1.79983">
        <ele>94.4</ele>
        <time>2019-07-16T09:07:42Z</time>
      </trkpt>
      <trkpt lat="48.29084" lon="-1.79986">
        <ele>94.5</ele>
        <time>2019-07-16T09:07:43Z</time>
      </trkpt>
      <trkpt lat="48.29087" lon="-1.79989">
        <ele>94.6</ele>
        <time>2019-07-16T09:07:44Z</time>
      </trkpt>
      <trkpt lat="48.29091" lon="-1.79993">
        <ele>93.8</ele>
        <time>2019-07-16T09:07:45Z</time>
      </trkpt>
      <trkpt lat="48.29095" lon="-1.79996">
        <ele>93.7</ele>
        <time>2019-07-16T09:07:46Z</time>
      </trkpt>
      <trkpt lat="48.29099" lon="-1.79999">
        <ele>93.5</ele>
        <time>2019-07-16T09:07:47Z</time>
      </trkpt>
      <trkpt lat="48.29103" lon="-1.80001">
        <ele>93.3</ele>
        <time>2019-07-16T09:07:48Z</time>
      </trkpt>
      <trkpt lat="48.29109" lon="-1.8">
        <ele>94.4</ele>
        <time>2019-07-16T09:07:49Z</time>
      </trkpt>
      <trkpt lat="48.29114" lon="-1.80001">
        <ele>93.7</ele>
        <time>2019-07-16T09:07:50Z</time>
      </trkpt>
      <trkpt lat="48.29118" lon="-1.80002">
        <ele>92.8</ele>
        <time>2019-07-16T09:07:51Z</time>
      </trkpt>
      <trkpt lat="48.29122" lon="-1.80005">
        <ele>92.8</ele>
        <time>2019-07-16T09:07:52Z</time>
      </trkpt>
      <trkpt lat="48.29126" lon="-1.80008">
        <ele>92.7</ele>
        <time>2019-07-16T09:07:53Z</time>
      </trkpt>
      <trkpt lat="48.2913" lon="-1.80009">
        <ele>91.8</ele>
        <time>2019-07-16T09:07:54Z</time>
      </trkpt>
      <trkpt lat="48.29134" lon="-1.80011">
        <ele>91.6</ele>
        <time>2019-07-16T09:07:55Z</time>
      </trkpt>
      <trkpt lat="48.29138" lon="-1.80014">
        <ele>91</ele>
        <time>2019-07-16T09:07:56Z</time>
      </trkpt>
      <trkpt lat="48.29142" lon="-1.80017">
        <ele>90.7</ele>
        <time>2019-07-16T09:07:57Z</time>
      </trkpt>
      <trkpt lat="48.29146" lon="-1.80021">
        <ele>90.5</ele>
        <time>2019-07-16T09:07:58Z</time>
      </trkpt>
      <trkpt lat="48.29149" lon="-1.80024">
        <ele>89.9</ele>
        <time>2019-07-16T09:07:59Z</time>
      </trkpt>
      <trkpt lat="48.29153" lon="-1.80027">
        <ele>90</ele>
        <time>2019-07-16T09:08:00Z</time>
      </trkpt>
      <trkpt lat="48.29156" lon="-1.8003">
        <ele>90.2</ele>
        <time>2019-07-16T09:08:01Z</time>
      </trkpt>
      <trkpt lat="48.2916" lon="-1.80033">
        <ele>90.4</ele>
        <time>2019-07-16T09:08:02Z</time>
      </trkpt>
      <trkpt lat="48.29163" lon="-1.80035">
        <ele>91.3</ele>
        <time>2019-07-16T09:08:03Z</time>
      </trkpt>
      <trkpt lat="48.29166" lon="-1.80037">
        <ele>91.3</ele>
        <time>2019-07-16T09:08:04Z</time>
      </trkpt>
      <trkpt lat="48.29169" lon="-1.80039">
        <ele>91.1</ele>
        <time>2019-07-16T09:08:05Z</time>
      </trkpt>
      <trkpt lat="48.29171" lon="-1.80041">
        <ele>90.8</ele>
        <time>2019-07-16T09:08:06Z</time>
      </trkpt>
      <trkpt lat="48.29174" lon="-1.80043">
        <ele>90.8</ele>
        <time>2019-07-16T09:08:07Z</time>
      </trkpt>
      <trkpt lat="48.29176" lon="-1.80046">
        <ele>90.7</ele>
        <time>2019-07-16T09:08:08Z</time>
      </trkpt>
      <trkpt lat="48.29178" lon="-1.80049">
        <ele>90.6</ele>
        <time>2019-07-16T09:08:09Z</time>
      </trkpt>
      <trkpt lat="48.2918" lon="-1.80051">
        <ele>90.5</ele>
        <time>2019-07-16T09:08:10Z</time>
      </trkpt>
      <trkpt lat="48.29182" lon="-1.80053">
        <ele>90.5</ele>
        <time>2019-07-16T09:08:11Z</time>
      </trkpt>
      <trkpt lat="48.29184" lon="-1.80055">
        <ele>90.6</ele>
        <time>2019-07-16T09:08:12Z</time>
      </trkpt>
      <trkpt lat="48.29187" lon="-1.80057">
        <ele>91</ele>
        <time>2019-07-16T09:08:13Z</time>
      </trkpt>
      <trkpt lat="48.2919" lon="-1.80059">
        <ele>90.6</ele>
        <time>2019-07-16T09:08:14Z</time>
      </trkpt>
      <trkpt lat="48.29192" lon="-1.80063">
        <ele>90.4</ele>
        <time>2019-07-16T09:08:15Z</time>
      </trkpt>
      <trkpt lat="48.29194" lon="-1.80066">
        <ele>90.3</ele>
        <time>2019-07-16T09:08:16Z</time>
      </trkpt>
      <trkpt lat="48.29197" lon="-1.8007">
        <ele>90.4</ele>
        <time>2019-07-16T09:08:17Z</time>
      </trkpt>
      <trkpt lat="48.29199" lon="-1.80073">
        <ele>90.2</ele>
        <time>2019-07-16T09:08:18Z</time>
      </trkpt>
      <trkpt lat="48.29202" lon="-1.80076">
        <ele>90.1</ele>
        <time>2019-07-16T09:08:19Z</time>
      </trkpt>
      <trkpt lat="48.29204" lon="-1.80079">
        <ele>90.3</ele>
        <time>2019-07-16T09:08:20Z</time>
      </trkpt>
      <trkpt lat="48.29207" lon="-1.80082">
        <ele>90.5</ele>
        <time>2019-07-16T09:08:21Z</time>
      </trkpt>
      <trkpt lat="48.29209" lon="-1.80085">
        <ele>90.4</ele>
        <time>2019-07-16T09:08:22Z</time>
      </trkpt>
      <trkpt lat="48.29211" lon="-1.80087">
        <ele>90.7</ele>
        <time>2019-07-16T09:08:23Z</time>
      </trkpt>
      <trkpt lat="48.29213" lon="-1.8009">
        <ele>90.9</ele>
        <time>2019-07-16T09:08:24Z</time>
      </trkpt>
      <trkpt lat="48.29214" lon="-1.80093">
        <ele>91.2</ele>
        <time>2019-07-16T09:08:25Z</time>
      </trkpt>
      <trkpt lat="48.29216" lon="-1.80096">
        <ele>91.2</ele>
        <time>2019-07-16T09:08:26Z</time>
      </trkpt>
      <trkpt lat="48.29218" lon="-1.80097">
        <ele>90.9</ele>
        <time>2019-07-16T09:08:27Z</time>
      </trkpt>
      <trkpt lat="48.2922" lon="-1.801">
        <ele>90.9</ele>
        <time>2019-07-16T09:08:28Z</time>
      </trkpt>
      <trkpt lat="48.29221" lon="-1.80103">
        <ele>91</ele>
        <time>2019-07-16T09:08:29Z</time>
      </trkpt>
      <trkpt lat="48.29223" lon="-1.80107">
        <ele>90.6</ele>
        <time>2019-07-16T09:08:30Z</time>
      </trkpt>
      <trkpt lat="48.29224" lon="-1.8011">
        <ele>90.4</ele>
        <time>2019-07-16T09:08:31Z</time>
      </trkpt>
      <trkpt lat="48.29226" lon="-1.80114">
        <ele>90.1</ele>
        <time>2019-07-16T09:08:32Z</time>
      </trkpt>
      <trkpt lat="48.29227" lon="-1.80118">
        <ele>89.7</ele>
        <time>2019-07-16T09:08:33Z</time>
      </trkpt>
      <trkpt lat="48.29229" lon="-1.80122">
        <ele>89.5</ele>
        <time>2019-07-16T09:08:34Z</time>
      </trkpt>
      <trkpt lat="48.29232" lon="-1.80125">
        <ele>89.5</ele>
        <time>2019-07-16T09:08:35Z</time>
      </trkpt>
      <trkpt lat="48.29234" lon="-1.80128">
        <ele>89.4</ele>
        <time>2019-07-16T09:08:36Z</time>
      </trkpt>
      <trkpt lat="48.29236" lon="-1.80131">
        <ele>89.8</ele>
        <time>2019-07-16T09:08:37Z</time>
      </trkpt>
      <trkpt lat="48.29239" lon="-1.80134">
        <ele>89.8</ele>
        <time>2019-07-16T09:08:38Z</time>
      </trkpt>
      <trkpt lat="48.29241" lon="-1.80137">
        <ele>89.8</ele>
        <time>2019-07-16T09:08:39Z</time>
      </trkpt>
      <trkpt lat="48.29243" lon="-1.80141">
        <ele>89.8</ele>
        <time>2019-07-16T09:08:40Z</time>
      </trkpt>
      <trkpt lat="48.29245" lon="-1.80145">
        <ele>90.1</ele>
        <time>2019-07-16T09:08:41Z</time>
      </trkpt>
      <trkpt lat="48.29246" lon="-1.80149">
        <ele>90.4</ele>
        <time>2019-07-16T09:08:42Z</time>
      </trkpt>
      <trkpt lat="48.29248" lon="-1.80153">
        <ele>90.5</ele>
        <time>2019-07-16T09:08:43Z</time>
      </trkpt>
      <trkpt lat="48.2925" lon="-1.80156">
        <ele>90.5</ele>
        <time>2019-07-16T09:08:44Z</time>
      </trkpt>
      <trkpt lat="48.29252" lon="-1.8016">
        <ele>90.6</ele>
        <time>2019-07-16T09:08:45Z</time>
      </trkpt>
      <trkpt lat="48.29255" lon="-1.80164">
        <ele>90.6</ele>
        <time>2019-07-16T09:08:46Z</time>
      </trkpt>
      <trkpt lat="48.29257" lon="-1.80168">
        <ele>90.7</ele>
        <time>2019-07-16T09:08:47Z</time>
      </trkpt>
      <trkpt lat="48.2926" lon="-1.80172">
        <ele>90.7</ele>
        <time>2019-07-16T09:08:48Z</time>
      </trkpt>
      <trkpt lat="48.29262" lon="-1.80176">
        <ele>91</ele>
        <time>2019-07-16T09:08:49Z</time>
      </trkpt>
      <trkpt lat="48.29265" lon="-1.80179">
        <ele>91</ele>
        <time>2019-07-16T09:08:50Z</time>
      </trkpt>
      <trkpt lat="48.29268" lon="-1.80182">
        <ele>91.5</ele>
        <time>2019-07-16T09:08:51Z</time>
      </trkpt>
      <trkpt lat="48.2927" lon="-1.80186">
        <ele>91.6</ele>
        <time>2019-07-16T09:08:52Z</time>
      </trkpt>
      <trkpt lat="48.29273" lon="-1.8019">
        <ele>92.1</ele>
        <time>2019-07-16T09:08:53Z</time>
      </trkpt>
      <trkpt lat="48.29276" lon="-1.80193">
        <ele>92.3</ele>
        <time>2019-07-16T09:08:54Z</time>
      </trkpt>
      <trkpt lat="48.29279" lon="-1.80196">
        <ele>92.4</ele>
        <time>2019-07-16T09:08:55Z</time>
      </trkpt>
      <trkpt lat="48.29284" lon="-1.80199">
        <ele>92.6</ele>
        <time>2019-07-16T09:08:56Z</time>
      </trkpt>
      <trkpt lat="48.29288" lon="-1.802">
        <ele>93.4</ele>
        <time>2019-07-16T09:08:57Z</time>
      </trkpt>
      <trkpt lat="48.29292" lon="-1.80202">
        <ele>93.7</ele>
        <time>2019-07-16T09:08:58Z</time>
      </trkpt>
      <trkpt lat="48.29298" lon="-1.80202">
        <ele>94</ele>
        <time>2019-07-16T09:08:59Z</time>
      </trkpt>
      <trkpt lat="48.29302" lon="-1.80205">
        <ele>94.2</ele>
        <time>2019-07-16T09:09:00Z</time>
      </trkpt>
      <trkpt lat="48.29307" lon="-1.80207">
        <ele>94.4</ele>
        <time>2019-07-16T09:09:01Z</time>
      </trkpt>
      <trkpt lat="48.29311" lon="-1.80211">
        <ele>94.4</ele>
        <time>2019-07-16T09:09:02Z</time>
      </trkpt>
      <trkpt lat="48.29316" lon="-1.80212">
        <ele>94.5</ele>
        <time>2019-07-16T09:09:03Z</time>
      </trkpt>
      <trkpt lat="48.29321" lon="-1.80215">
        <ele>94.7</ele>
        <time>2019-07-16T09:09:04Z</time>
      </trkpt>
      <trkpt lat="48.29326" lon="-1.80215">
        <ele>94.9</ele>
        <time>2019-07-16T09:09:05Z</time>
      </trkpt>
      <trkpt lat="48.29331" lon="-1.80216">
        <ele>96.1</ele>
        <time>2019-07-16T09:09:06Z</time>
      </trkpt>
      <trkpt lat="48.29335" lon="-1.80218">
        <ele>96.3</ele>
        <time>2019-07-16T09:09:07Z</time>
      </trkpt>
      <trkpt lat="48.29339" lon="-1.80221">
        <ele>96.5</ele>
        <time>2019-07-16T09:09:08Z</time>
      </trkpt>
      <trkpt lat="48.29343" lon="-1.80224">
        <ele>96.7</ele>
        <time>2019-07-16T09:09:09Z</time>
      </trkpt>
      <trkpt lat="48.29346" lon="-1.80227">
        <ele>97</ele>
        <time>2019-07-16T09:09:10Z</time>
      </trkpt>
      <trkpt lat="48.2935" lon="-1.80229">
        <ele>97.1</ele>
        <time>2019-07-16T09:09:11Z</time>
      </trkpt>
      <trkpt lat="48.29354" lon="-1.80231">
        <ele>97.1</ele>
        <time>2019-07-16T09:09:12Z</time>
      </trkpt>
      <trkpt lat="48.29358" lon="-1.80233">
        <ele>97.1</ele>
        <time>2019-07-16T09:09:13Z</time>
      </trkpt>
      <trkpt lat="48.29361" lon="-1.80237">
        <ele>97.4</ele>
        <time>2019-07-16T09:09:14Z</time>
      </trkpt>
      <trkpt lat="48.29365" lon="-1.80239">
        <ele>97</ele>
        <time>2019-07-16T09:09:15Z</time>
      </trkpt>
      <trkpt lat="48.29369" lon="-1.80239">
        <ele>97.2</ele>
        <time>2019-07-16T09:09:16Z</time>
      </trkpt>
      <trkpt lat="48.29373" lon="-1.8024">
        <ele>97.7</ele>
        <time>2019-07-16T09:09:17Z</time>
      </trkpt>
      <trkpt lat="48.29376" lon="-1.80242">
        <ele>98.3</ele>
        <time>2019-07-16T09:09:18Z</time>
      </trkpt>
      <trkpt lat="48.2938" lon="-1.80243">
        <ele>98.9</ele>
        <time>2019-07-16T09:09:19Z</time>
      </trkpt>
      <trkpt lat="48.29384" lon="-1.80245">
        <ele>99.6</ele>
        <time>2019-07-16T09:09:20Z</time>
      </trkpt>
      <trkpt lat="48.29388" lon="-1.80247">
        <ele>100.1</ele>
        <time>2019-07-16T09:09:21Z</time>
      </trkpt>
      <trkpt lat="48.29392" lon="-1.80247">
        <ele>100.6</ele>
        <time>2019-07-16T09:09:22Z</time>
      </trkpt>
      <trkpt lat="48.29397" lon="-1.80249">
        <ele>100.7</ele>
        <time>2019-07-16T09:09:23Z</time>
      </trkpt>
      <trkpt lat="48.29402" lon="-1.8025">
        <ele>100.9</ele>
        <time>2019-07-16T09:09:24Z</time>
      </trkpt>
      <trkpt lat="48.29406" lon="-1.80252">
        <ele>101.4</ele>
        <time>2019-07-16T09:09:25Z</time>
      </trkpt>
      <trkpt lat="48.29411" lon="-1.80253">
        <ele>102</ele>
        <time>2019-07-16T09:09:26Z</time>
      </trkpt>
      <trkpt lat="48.29416" lon="-1.80254">
        <ele>102.1</ele>
        <time>2019-07-16T09:09:27Z</time>
      </trkpt>
      <trkpt lat="48.29419" lon="-1.80255">
        <ele>102.4</ele>
        <time>2019-07-16T09:09:28Z</time>
      </trkpt>
      <trkpt lat="48.29424" lon="-1.80255">
        <ele>102.2</ele>
        <time>2019-07-16T09:09:29Z</time>
      </trkpt>
      <trkpt lat="48.29429" lon="-1.80256">
        <ele>102.3</ele>
        <time>2019-07-16T09:09:30Z</time>
      </trkpt>
      <trkpt lat="48.29433" lon="-1.80256">
        <ele>102.1</ele>
        <time>2019-07-16T09:09:31Z</time>
      </trkpt>
      <trkpt lat="48.29437" lon="-1.80256">
        <ele>102.3</ele>
        <time>2019-07-16T09:09:32Z</time>
      </trkpt>
      <trkpt lat="48.29441" lon="-1.80259">
        <ele>102.1</ele>
        <time>2019-07-16T09:09:33Z</time>
      </trkpt>
      <trkpt lat="48.29445" lon="-1.8026">
        <ele>102.3</ele>
        <time>2019-07-16T09:09:34Z</time>
      </trkpt>
      <trkpt lat="48.29449" lon="-1.80261">
        <ele>101.9</ele>
        <time>2019-07-16T09:09:35Z</time>
      </trkpt>
      <trkpt lat="48.29453" lon="-1.80262">
        <ele>102</ele>
        <time>2019-07-16T09:09:36Z</time>
      </trkpt>
      <trkpt lat="48.29457" lon="-1.80262">
        <ele>102.4</ele>
        <time>2019-07-16T09:09:37Z</time>
      </trkpt>
      <trkpt lat="48.29461" lon="-1.80262">
        <ele>102.6</ele>
        <time>2019-07-16T09:09:38Z</time>
      </trkpt>
      <trkpt lat="48.29465" lon="-1.80261">
        <ele>103.7</ele>
        <time>2019-07-16T09:09:39Z</time>
      </trkpt>
      <trkpt lat="48.29469" lon="-1.8026">
        <ele>104.6</ele>
        <time>2019-07-16T09:09:40Z</time>
      </trkpt>
      <trkpt lat="48.29473" lon="-1.8026">
        <ele>105.6</ele>
        <time>2019-07-16T09:09:41Z</time>
      </trkpt>
      <trkpt lat="48.29477" lon="-1.80259">
        <ele>106</ele>
        <time>2019-07-16T09:09:42Z</time>
      </trkpt>
      <trkpt lat="48.29482" lon="-1.80259">
        <ele>106.2</ele>
        <time>2019-07-16T09:09:43Z</time>
      </trkpt>
      <trkpt lat="48.29486" lon="-1.80257">
        <ele>106.4</ele>
        <time>2019-07-16T09:09:44Z</time>
      </trkpt>
      <trkpt lat="48.2949" lon="-1.80255">
        <ele>106.6</ele>
        <time>2019-07-16T09:09:45Z</time>
      </trkpt>
      <trkpt lat="48.29494" lon="-1.80255">
        <ele>107</ele>
        <time>2019-07-16T09:09:46Z</time>
      </trkpt>
      <trkpt lat="48.29498" lon="-1.80254">
        <ele>107</ele>
        <time>2019-07-16T09:09:47Z</time>
      </trkpt>
      <trkpt lat="48.29503" lon="-1.80252">
        <ele>107.2</ele>
        <time>2019-07-16T09:09:48Z</time>
      </trkpt>
      <trkpt lat="48.29506" lon="-1.8025">
        <ele>107.2</ele>
        <time>2019-07-16T09:09:49Z</time>
      </trkpt>
      <trkpt lat="48.29512" lon="-1.8025">
        <ele>106.8</ele>
        <time>2019-07-16T09:09:50Z</time>
      </trkpt>
      <trkpt lat="48.29518" lon="-1.80256">
        <ele>105.4</ele>
        <time>2019-07-16T09:09:51Z</time>
      </trkpt>
      <trkpt lat="48.29522" lon="-1.80256">
        <ele>104.5</ele>
        <time>2019-07-16T09:09:52Z</time>
      </trkpt>
      <trkpt lat="48.29527" lon="-1.80256">
        <ele>103.7</ele>
        <time>2019-07-16T09:09:53Z</time>
      </trkpt>
      <trkpt lat="48.29529" lon="-1.80252">
        <ele>103.2</ele>
        <time>2019-07-16T09:09:54Z</time>
      </trkpt>
      <trkpt lat="48.29532" lon="-1.80252">
        <ele>103.2</ele>
        <time>2019-07-16T09:09:55Z</time>
      </trkpt>
      <trkpt lat="48.29536" lon="-1.80252">
        <ele>103.3</ele>
        <time>2019-07-16T09:09:56Z</time>
      </trkpt>
      <trkpt lat="48.2954" lon="-1.80252">
        <ele>103.4</ele>
        <time>2019-07-16T09:09:57Z</time>
      </trkpt>
      <trkpt lat="48.29542" lon="-1.80251">
        <ele>103.8</ele>
        <time>2019-07-16T09:09:58Z</time>
      </trkpt>
      <trkpt lat="48.29546" lon="-1.8025">
        <ele>103.9</ele>
        <time>2019-07-16T09:09:59Z</time>
      </trkpt>
      <trkpt lat="48.29549" lon="-1.8025">
        <ele>104.7</ele>
        <time>2019-07-16T09:10:00Z</time>
      </trkpt>
      <trkpt lat="48.29553" lon="-1.8025">
        <ele>105.4</ele>
        <time>2019-07-16T09:10:01Z</time>
      </trkpt>
      <trkpt lat="48.29557" lon="-1.80249">
        <ele>106.1</ele>
        <time>2019-07-16T09:10:02Z</time>
      </trkpt>
      <trkpt lat="48.29561" lon="-1.80247">
        <ele>106.9</ele>
        <time>2019-07-16T09:10:03Z</time>
      </trkpt>
      <trkpt lat="48.29565" lon="-1.80245">
        <ele>107.4</ele>
        <time>2019-07-16T09:10:04Z</time>
      </trkpt>
      <trkpt lat="48.29567" lon="-1.80245">
        <ele>107.5</ele>
        <time>2019-07-16T09:10:05Z</time>
      </trkpt>
      <trkpt lat="48.29569" lon="-1.80246">
        <ele>107.1</ele>
        <time>2019-07-16T09:10:06Z</time>
      </trkpt>
      <trkpt lat="48.29571" lon="-1.80244">
        <ele>106.8</ele>
        <time>2019-07-16T09:10:07Z</time>
      </trkpt>
      <trkpt lat="48.29574" lon="-1.80242">
        <ele>107</ele>
        <time>2019-07-16T09:10:08Z</time>
      </trkpt>
      <trkpt lat="48.29576" lon="-1.80242">
        <ele>106.9</ele>
        <time>2019-07-16T09:10:09Z</time>
      </trkpt>
      <trkpt lat="48.29578" lon="-1.80242">
        <ele>107</ele>
        <time>2019-07-16T09:10:10Z</time>
      </trkpt>
      <trkpt lat="48.2958" lon="-1.80242">
        <ele>107.1</ele>
        <time>2019-07-16T09:10:11Z</time>
      </trkpt>
      <trkpt lat="48.29583" lon="-1.80242">
        <ele>107.2</ele>
        <time>2019-07-16T09:10:12Z</time>
      </trkpt>
      <trkpt lat="48.29586" lon="-1.80239">
        <ele>107.1</ele>
        <time>2019-07-16T09:10:13Z</time>
      </trkpt>
      <trkpt lat="48.29591" lon="-1.80237">
        <ele>105.5</ele>
        <time>2019-07-16T09:10:14Z</time>
      </trkpt>
      <trkpt lat="48.29594" lon="-1.80234">
        <ele>103.5</ele>
        <time>2019-07-16T09:10:15Z</time>
      </trkpt>
      <trkpt lat="48.29596" lon="-1.80231">
        <ele>102.9</ele>
        <time>2019-07-16T09:10:16Z</time>
      </trkpt>
      <trkpt lat="48.29598" lon="-1.80227">
        <ele>101</ele>
        <time>2019-07-16T09:10:17Z</time>
      </trkpt>
      <trkpt lat="48.29598" lon="-1.80223">
        <ele>99.8</ele>
        <time>2019-07-16T09:10:18Z</time>
      </trkpt>
      <trkpt lat="48.29598" lon="-1.80219">
        <ele>99.1</ele>
        <time>2019-07-16T09:10:19Z</time>
      </trkpt>
      <trkpt lat="48.29598" lon="-1.80215">
        <ele>98.7</ele>
        <time>2019-07-16T09:10:20Z</time>
      </trkpt>
      <trkpt lat="48.29598" lon="-1.80211">
        <ele>98.4</ele>
        <time>2019-07-16T09:10:21Z</time>
      </trkpt>
      <trkpt lat="48.29599" lon="-1.80208">
        <ele>97.7</ele>
        <time>2019-07-16T09:10:22Z</time>
      </trkpt>
      <trkpt lat="48.296" lon="-1.80204">
        <ele>97.2</ele>
        <time>2019-07-16T09:10:23Z</time>
      </trkpt>
      <trkpt lat="48.296" lon="-1.802">
        <ele>97</ele>
        <time>2019-07-16T09:10:24Z</time>
      </trkpt>
      <trkpt lat="48.296" lon="-1.80196">
        <ele>97.6</ele>
        <time>2019-07-16T09:10:25Z</time>
      </trkpt>
      <trkpt lat="48.296" lon="-1.80192">
        <ele>97.6</ele>
        <time>2019-07-16T09:10:26Z</time>
      </trkpt>
      <trkpt lat="48.296" lon="-1.80188">
        <ele>97.6</ele>
        <time>2019-07-16T09:10:27Z</time>
      </trkpt>
      <trkpt lat="48.296" lon="-1.80184">
        <ele>97.5</ele>
        <time>2019-07-16T09:10:28Z</time>
      </trkpt>
      <trkpt lat="48.296" lon="-1.8018">
        <ele>97.3</ele>
        <time>2019-07-16T09:10:29Z</time>
      </trkpt>
      <trkpt lat="48.296" lon="-1.80176">
        <ele>97.2</ele>
        <time>2019-07-16T09:10:30Z</time>
      </trkpt>
      <trkpt lat="48.29599" lon="-1.80172">
        <ele>97.5</ele>
        <time>2019-07-16T09:10:31Z</time>
      </trkpt>
      <trkpt lat="48.29599" lon="-1.80167">
        <ele>98.2</ele>
        <time>2019-07-16T09:10:32Z</time>
      </trkpt>
      <trkpt lat="48.29599" lon="-1.80163">
        <ele>98.4</ele>
        <time>2019-07-16T09:10:33Z</time>
      </trkpt>
      <trkpt lat="48.296" lon="-1.8016">
        <ele>98.5</ele>
        <time>2019-07-16T09:10:34Z</time>
      </trkpt>
      <trkpt lat="48.296" lon="-1.80157">
        <ele>99.5</ele>
        <time>2019-07-16T09:10:35Z</time>
      </trkpt>
      <trkpt lat="48.296" lon="-1.80154">
        <ele>99.7</ele>
        <time>2019-07-16T09:10:36Z</time>
      </trkpt>
      <trkpt lat="48.29601" lon="-1.8015">
        <ele>99.3</ele>
        <time>2019-07-16T09:10:37Z</time>
      </trkpt>
      <trkpt lat="48.29602" lon="-1.80147">
        <ele>99.1</ele>
        <time>2019-07-16T09:10:38Z</time>
      </trkpt>
      <trkpt lat="48.29605" lon="-1.80144">
        <ele>98.9</ele>
        <time>2019-07-16T09:10:39Z</time>
      </trkpt>
      <trkpt lat="48.29605" lon="-1.8014">
        <ele>98.9</ele>
        <time>2019-07-16T09:10:40Z</time>
      </trkpt>
      <trkpt lat="48.29606" lon="-1.80136">
        <ele>99.3</ele>
        <time>2019-07-16T09:10:41Z</time>
      </trkpt>
      <trkpt lat="48.29605" lon="-1.80131">
        <ele>99.3</ele>
        <time>2019-07-16T09:10:42Z</time>
      </trkpt>
      <trkpt lat="48.29604" lon="-1.80128">
        <ele>99.5</ele>
        <time>2019-07-16T09:10:43Z</time>
      </trkpt>
      <trkpt lat="48.29604" lon="-1.80124">
        <ele>99.3</ele>
        <time>2019-07-16T09:10:44Z</time>
      </trkpt>
      <trkpt lat="48.29605" lon="-1.8012">
        <ele>99.2</ele>
        <time>2019-07-16T09:10:45Z</time>
      </trkpt>
      <trkpt lat="48.29608" lon="-1.80119">
        <ele>100.2</ele>
        <time>2019-07-16T09:10:46Z</time>
      </trkpt>
      <trkpt lat="48.2961" lon="-1.80119">
        <ele>100.3</ele>
        <time>2019-07-16T09:10:47Z</time>
      </trkpt>
      <trkpt lat="48.29612" lon="-1.80118">
        <ele>99.8</ele>
        <time>2019-07-16T09:10:48Z</time>
      </trkpt>
      <trkpt lat="48.29615" lon="-1.80118">
        <ele>99.8</ele>
        <time>2019-07-16T09:10:49Z</time>
      </trkpt>
      <trkpt lat="48.29617" lon="-1.80118">
        <ele>100.1</ele>
        <time>2019-07-16T09:10:50Z</time>
      </trkpt>
      <trkpt lat="48.2962" lon="-1.80117">
        <ele>100.6</ele>
        <time>2019-07-16T09:10:51Z</time>
      </trkpt>
      <trkpt lat="48.29622" lon="-1.80115">
        <ele>101.4</ele>
        <time>2019-07-16T09:10:52Z</time>
      </trkpt>
      <trkpt lat="48.29624" lon="-1.80114">
        <ele>102.3</ele>
        <time>2019-07-16T09:10:53Z</time>
      </trkpt>
      <trkpt lat="48.29626" lon="-1.80113">
        <ele>104</ele>
        <time>2019-07-16T09:10:54Z</time>
      </trkpt>
      <trkpt lat="48.29628" lon="-1.80113">
        <ele>105.5</ele>
        <time>2019-07-16T09:10:55Z</time>
      </trkpt>
      <trkpt lat="48.2963" lon="-1.80113">
        <ele>106.5</ele>
        <time>2019-07-16T09:10:56Z</time>
      </trkpt>
      <trkpt lat="48.29632" lon="-1.80112">
        <ele>107.3</ele>
        <time>2019-07-16T09:10:57Z</time>
      </trkpt>
      <trkpt lat="48.29635" lon="-1.80108">
        <ele>104.8</ele>
        <time>2019-07-16T09:10:58Z</time>
      </trkpt>
      <trkpt lat="48.29637" lon="-1.80104">
        <ele>103.2</ele>
        <time>2019-07-16T09:10:59Z</time>
      </trkpt>
      <trkpt lat="48.29639" lon="-1.80102">
        <ele>102.8</ele>
        <time>2019-07-16T09:11:00Z</time>
      </trkpt>
      <trkpt lat="48.29641" lon="-1.80099">
        <ele>102.2</ele>
        <time>2019-07-16T09:11:01Z</time>
      </trkpt>
      <trkpt lat="48.29644" lon="-1.80096">
        <ele>101.4</ele>
        <time>2019-07-16T09:11:02Z</time>
      </trkpt>
      <trkpt lat="48.29645" lon="-1.80092">
        <ele>101.2</ele>
        <time>2019-07-16T09:11:03Z</time>
      </trkpt>
      <trkpt lat="48.29647" lon="-1.80089">
        <ele>101.2</ele>
        <time>2019-07-16T09:11:04Z</time>
      </trkpt>
      <trkpt lat="48.29649" lon="-1.80086">
        <ele>101</ele>
        <time>2019-07-16T09:11:05Z</time>
      </trkpt>
      <trkpt lat="48.29652" lon="-1.80082">
        <ele>100.7</ele>
        <time>2019-07-16T09:11:06Z</time>
      </trkpt>
      <trkpt lat="48.29654" lon="-1.80078">
        <ele>99.7</ele>
        <time>2019-07-16T09:11:07Z</time>
      </trkpt>
      <trkpt lat="48.29657" lon="-1.80074">
        <ele>98.6</ele>
        <time>2019-07-16T09:11:08Z</time>
      </trkpt>
      <trkpt lat="48.29659" lon="-1.80071">
        <ele>98</ele>
        <time>2019-07-16T09:11:09Z</time>
      </trkpt>
      <trkpt lat="48.29662" lon="-1.80067">
        <ele>97.9</ele>
        <time>2019-07-16T09:11:10Z</time>
      </trkpt>
      <trkpt lat="48.29664" lon="-1.80063">
        <ele>98.2</ele>
        <time>2019-07-16T09:11:11Z</time>
      </trkpt>
      <trkpt lat="48.29665" lon="-1.80058">
        <ele>98.6</ele>
        <time>2019-07-16T09:11:12Z</time>
      </trkpt>
      <trkpt lat="48.29667" lon="-1.80052">
        <ele>99.4</ele>
        <time>2019-07-16T09:11:13Z</time>
      </trkpt>
      <trkpt lat="48.29668" lon="-1.80048">
        <ele>99.8</ele>
        <time>2019-07-16T09:11:14Z</time>
      </trkpt>
      <trkpt lat="48.2967" lon="-1.80044">
        <ele>100.2</ele>
        <time>2019-07-16T09:11:15Z</time>
      </trkpt>
      <trkpt lat="48.29673" lon="-1.80042">
        <ele>100.5</ele>
        <time>2019-07-16T09:11:16Z</time>
      </trkpt>
      <trkpt lat="48.29675" lon="-1.80037">
        <ele>100.8</ele>
        <time>2019-07-16T09:11:17Z</time>
      </trkpt>
      <trkpt lat="48.29676" lon="-1.80032">
        <ele>101.2</ele>
        <time>2019-07-16T09:11:18Z</time>
      </trkpt>
      <trkpt lat="48.29678" lon="-1.80027">
        <ele>101.6</ele>
        <time>2019-07-16T09:11:19Z</time>
      </trkpt>
      <trkpt lat="48.29678" lon="-1.80021">
        <ele>102.2</ele>
        <time>2019-07-16T09:11:20Z</time>
      </trkpt>
      <trkpt lat="48.2968" lon="-1.80016">
        <ele>102</ele>
        <time>2019-07-16T09:11:21Z</time>
      </trkpt>
      <trkpt lat="48.29682" lon="-1.80012">
        <ele>101.9</ele>
        <time>2019-07-16T09:11:22Z</time>
      </trkpt>
      <trkpt lat="48.29684" lon="-1.80008">
        <ele>101.8</ele>
        <time>2019-07-16T09:11:23Z</time>
      </trkpt>
      <trkpt lat="48.29686" lon="-1.80003">
        <ele>101.6</ele>
        <time>2019-07-16T09:11:24Z</time>
      </trkpt>
      <trkpt lat="48.29688" lon="-1.79997">
        <ele>101.4</ele>
        <time>2019-07-16T09:11:25Z</time>
      </trkpt>
      <trkpt lat="48.29689" lon="-1.79991">
        <ele>101.3</ele>
        <time>2019-07-16T09:11:26Z</time>
      </trkpt>
      <trkpt lat="48.2969" lon="-1.79985">
        <ele>101.5</ele>
        <time>2019-07-16T09:11:27Z</time>
      </trkpt>
      <trkpt lat="48.2969" lon="-1.79979">
        <ele>101</ele>
        <time>2019-07-16T09:11:28Z</time>
      </trkpt>
      <trkpt lat="48.29691" lon="-1.79973">
        <ele>100.6</ele>
        <time>2019-07-16T09:11:29Z</time>
      </trkpt>
      <trkpt lat="48.29693" lon="-1.79966">
        <ele>100</ele>
        <time>2019-07-16T09:11:30Z</time>
      </trkpt>
      <trkpt lat="48.29694" lon="-1.79959">
        <ele>99.3</ele>
        <time>2019-07-16T09:11:31Z</time>
      </trkpt>
      <trkpt lat="48.29696" lon="-1.79952">
        <ele>98.4</ele>
        <time>2019-07-16T09:11:32Z</time>
      </trkpt>
      <trkpt lat="48.29697" lon="-1.79944">
        <ele>97.3</ele>
        <time>2019-07-16T09:11:33Z</time>
      </trkpt>
      <trkpt lat="48.29697" lon="-1.79934">
        <ele>97.1</ele>
        <time>2019-07-16T09:11:34Z</time>
      </trkpt>
      <trkpt lat="48.29697" lon="-1.79926">
        <ele>96.8</ele>
        <time>2019-07-16T09:11:35Z</time>
      </trkpt>
      <trkpt lat="48.29697" lon="-1.79917">
        <ele>96.2</ele>
        <time>2019-07-16T09:11:36Z</time>
      </trkpt>
      <trkpt lat="48.29697" lon="-1.79909">
        <ele>95.7</ele>
        <time>2019-07-16T09:11:37Z</time>
      </trkpt>
      <trkpt lat="48.29697" lon="-1.79902">
        <ele>95.3</ele>
        <time>2019-07-16T09:11:38Z</time>
      </trkpt>
      <trkpt lat="48.29697" lon="-1.79895">
        <ele>95.1</ele>
        <time>2019-07-16T09:11:39Z</time>
      </trkpt>
      <trkpt lat="48.29698" lon="-1.79888">
        <ele>95</ele>
        <time>2019-07-16T09:11:40Z</time>
      </trkpt>
      <trkpt lat="48.29699" lon="-1.79881">
        <ele>94.5</ele>
        <time>2019-07-16T09:11:41Z</time>
      </trkpt>
      <trkpt lat="48.29699" lon="-1.79875">
        <ele>94</ele>
        <time>2019-07-16T09:11:42Z</time>
      </trkpt>
      <trkpt lat="48.29699" lon="-1.79869">
        <ele>93.8</ele>
        <time>2019-07-16T09:11:43Z</time>
      </trkpt>
      <trkpt lat="48.297" lon="-1.79862">
        <ele>94</ele>
        <time>2019-07-16T09:11:44Z</time>
      </trkpt>
      <trkpt lat="48.297" lon="-1.79856">
        <ele>93.8</ele>
        <time>2019-07-16T09:11:45Z</time>
      </trkpt>
      <trkpt lat="48.297" lon="-1.79849">
        <ele>93.4</ele>
        <time>2019-07-16T09:11:46Z</time>
      </trkpt>
      <trkpt lat="48.29699" lon="-1.79843">
        <ele>93.2</ele>
        <time>2019-07-16T09:11:47Z</time>
      </trkpt>
      <trkpt lat="48.297" lon="-1.79838">
        <ele>93</ele>
        <time>2019-07-16T09:11:48Z</time>
      </trkpt>
      <trkpt lat="48.297" lon="-1.79833">
        <ele>92.7</ele>
        <time>2019-07-16T09:11:49Z</time>
      </trkpt>
      <trkpt lat="48.29699" lon="-1.79828">
        <ele>93</ele>
        <time>2019-07-16T09:11:50Z</time>
      </trkpt>
      <trkpt lat="48.297" lon="-1.79822">
        <ele>93.2</ele>
        <time>2019-07-16T09:11:51Z</time>
      </trkpt>
      <trkpt lat="48.297" lon="-1.79817">
        <ele>93.4</ele>
        <time>2019-07-16T09:11:52Z</time>
      </trkpt>
      <trkpt lat="48.297" lon="-1.79812">
        <ele>93.5</ele>
        <time>2019-07-16T09:11:53Z</time>
      </trkpt>
      <trkpt lat="48.29699" lon="-1.79806">
        <ele>93.7</ele>
        <time>2019-07-16T09:11:54Z</time>
      </trkpt>
      <trkpt lat="48.29699" lon="-1.79801">
        <ele>93.6</ele>
        <time>2019-07-16T09:11:55Z</time>
      </trkpt>
      <trkpt lat="48.29698" lon="-1.79796">
        <ele>93.5</ele>
        <time>2019-07-16T09:11:56Z</time>
      </trkpt>
      <trkpt lat="48.29698" lon="-1.79792">
        <ele>93.3</ele>
        <time>2019-07-16T09:11:57Z</time>
      </trkpt>
      <trkpt lat="48.29697" lon="-1.79787">
        <ele>92.9</ele>
        <time>2019-07-16T09:11:58Z</time>
      </trkpt>
      <trkpt lat="48.29695" lon="-1.79783">
        <ele>92.9</ele>
        <time>2019-07-16T09:11:59Z</time>
      </trkpt>
      <trkpt lat="48.29694" lon="-1.79779">
        <ele>92.8</ele>
        <time>2019-07-16T09:12:00Z</time>
      </trkpt>
      <trkpt lat="48.29693" lon="-1.79774">
        <ele>92.9</ele>
        <time>2019-07-16T09:12:01Z</time>
      </trkpt>
      <trkpt lat="48.29693" lon="-1.79769">
        <ele>93</ele>
        <time>2019-07-16T09:12:02Z</time>
      </trkpt>
      <trkpt lat="48.29692" lon="-1.79764">
        <ele>93.4</ele>
        <time>2019-07-16T09:12:03Z</time>
      </trkpt>
      <trkpt lat="48.29692" lon="-1.7976">
        <ele>94</ele>
        <time>2019-07-16T09:12:04Z</time>
      </trkpt>
      <trkpt lat="48.29691" lon="-1.79755">
        <ele>94.2</ele>
        <time>2019-07-16T09:12:05Z</time>
      </trkpt>
      <trkpt lat="48.29691" lon="-1.7975">
        <ele>94.1</ele>
        <time>2019-07-16T09:12:06Z</time>
      </trkpt>
      <trkpt lat="48.29691" lon="-1.79746">
        <ele>94</ele>
        <time>2019-07-16T09:12:07Z</time>
      </trkpt>
      <trkpt lat="48.2969" lon="-1.79741">
        <ele>94</ele>
        <time>2019-07-16T09:12:08Z</time>
      </trkpt>
      <trkpt lat="48.29689" lon="-1.79736">
        <ele>94.2</ele>
        <time>2019-07-16T09:12:09Z</time>
      </trkpt>
      <trkpt lat="48.29689" lon="-1.79732">
        <ele>94.1</ele>
        <time>2019-07-16T09:12:10Z</time>
      </trkpt>
      <trkpt lat="48.29688" lon="-1.79728">
        <ele>94.1</ele>
        <time>2019-07-16T09:12:11Z</time>
      </trkpt>
      <trkpt lat="48.29687" lon="-1.79724">
        <ele>94.2</ele>
        <time>2019-07-16T09:12:12Z</time>
      </trkpt>
      <trkpt lat="48.29686" lon="-1.79719">
        <ele>94.1</ele>
        <time>2019-07-16T09:12:13Z</time>
      </trkpt>
      <trkpt lat="48.29686" lon="-1.79715">
        <ele>94.1</ele>
        <time>2019-07-16T09:12:14Z</time>
      </trkpt>
      <trkpt lat="48.29686" lon="-1.79711">
        <ele>94.3</ele>
        <time>2019-07-16T09:12:15Z</time>
      </trkpt>
      <trkpt lat="48.29685" lon="-1.79707">
        <ele>94.4</ele>
        <time>2019-07-16T09:12:16Z</time>
      </trkpt>
      <trkpt lat="48.29685" lon="-1.79703">
        <ele>94.5</ele>
        <time>2019-07-16T09:12:17Z</time>
      </trkpt>
      <trkpt lat="48.29685" lon="-1.79699">
        <ele>94.7</ele>
        <time>2019-07-16T09:12:18Z</time>
      </trkpt>
      <trkpt lat="48.29685" lon="-1.79696">
        <ele>94.9</ele>
        <time>2019-07-16T09:12:19Z</time>
      </trkpt>
      <trkpt lat="48.29684" lon="-1.79691">
        <ele>94.9</ele>
        <time>2019-07-16T09:12:20Z</time>
      </trkpt>
      <trkpt lat="48.29684" lon="-1.79688">
        <ele>96</ele>
        <time>2019-07-16T09:12:21Z</time>
      </trkpt>
      <trkpt lat="48.29684" lon="-1.79684">
        <ele>96.4</ele>
        <time>2019-07-16T09:12:22Z</time>
      </trkpt>
      <trkpt lat="48.29683" lon="-1.7968">
        <ele>96.2</ele>
        <time>2019-07-16T09:12:23Z</time>
      </trkpt>
      <trkpt lat="48.29683" lon="-1.79677">
        <ele>96.3</ele>
        <time>2019-07-16T09:12:24Z</time>
      </trkpt>
      <trkpt lat="48.29683" lon="-1.79673">
        <ele>96.2</ele>
        <time>2019-07-16T09:12:25Z</time>
      </trkpt>
      <trkpt lat="48.29683" lon="-1.79669">
        <ele>95.9</ele>
        <time>2019-07-16T09:12:26Z</time>
      </trkpt>
      <trkpt lat="48.29682" lon="-1.79664">
        <ele>95.9</ele>
        <time>2019-07-16T09:12:27Z</time>
      </trkpt>
      <trkpt lat="48.29683" lon="-1.7966">
        <ele>96.1</ele>
        <time>2019-07-16T09:12:28Z</time>
      </trkpt>
      <trkpt lat="48.29682" lon="-1.79656">
        <ele>96.1</ele>
        <time>2019-07-16T09:12:29Z</time>
      </trkpt>
      <trkpt lat="48.29681" lon="-1.79652">
        <ele>96.1</ele>
        <time>2019-07-16T09:12:30Z</time>
      </trkpt>
      <trkpt lat="48.29681" lon="-1.79648">
        <ele>96.2</ele>
        <time>2019-07-16T09:12:31Z</time>
      </trkpt>
      <trkpt lat="48.2968" lon="-1.79644">
        <ele>95.8</ele>
        <time>2019-07-16T09:12:32Z</time>
      </trkpt>
      <trkpt lat="48.29679" lon="-1.7964">
        <ele>95.1</ele>
        <time>2019-07-16T09:12:33Z</time>
      </trkpt>
      <trkpt lat="48.29679" lon="-1.79637">
        <ele>96</ele>
        <time>2019-07-16T09:12:34Z</time>
      </trkpt>
      <trkpt lat="48.29679" lon="-1.79633">
        <ele>96.6</ele>
        <time>2019-07-16T09:12:35Z</time>
      </trkpt>
      <trkpt lat="48.29678" lon="-1.79629">
        <ele>96.6</ele>
        <time>2019-07-16T09:12:36Z</time>
      </trkpt>
      <trkpt lat="48.29678" lon="-1.79625">
        <ele>97.4</ele>
        <time>2019-07-16T09:12:37Z</time>
      </trkpt>
      <trkpt lat="48.29679" lon="-1.79621">
        <ele>97.8</ele>
        <time>2019-07-16T09:12:38Z</time>
      </trkpt>
      <trkpt lat="48.29679" lon="-1.79618">
        <ele>98.5</ele>
        <time>2019-07-16T09:12:39Z</time>
      </trkpt>
      <trkpt lat="48.29678" lon="-1.79614">
        <ele>98.4</ele>
        <time>2019-07-16T09:12:40Z</time>
      </trkpt>
      <trkpt lat="48.29678" lon="-1.7961">
        <ele>98.2</ele>
        <time>2019-07-16T09:12:41Z</time>
      </trkpt>
      <trkpt lat="48.29678" lon="-1.79606">
        <ele>97.9</ele>
        <time>2019-07-16T09:12:42Z</time>
      </trkpt>
      <trkpt lat="48.29679" lon="-1.79602">
        <ele>97.6</ele>
        <time>2019-07-16T09:12:43Z</time>
      </trkpt>
      <trkpt lat="48.29679" lon="-1.79597">
        <ele>97.6</ele>
        <time>2019-07-16T09:12:44Z</time>
      </trkpt>
      <trkpt lat="48.29679" lon="-1.79592">
        <ele>97.6</ele>
        <time>2019-07-16T09:12:45Z</time>
      </trkpt>
      <trkpt lat="48.29679" lon="-1.79588">
        <ele>97.7</ele>
        <time>2019-07-16T09:12:46Z</time>
      </trkpt>
      <trkpt lat="48.29679" lon="-1.79583">
        <ele>97.7</ele>
        <time>2019-07-16T09:12:47Z</time>
      </trkpt>
      <trkpt lat="48.29679" lon="-1.79578">
        <ele>97.2</ele>
        <time>2019-07-16T09:12:48Z</time>
      </trkpt>
      <trkpt lat="48.29679" lon="-1.79573">
        <ele>96.8</ele>
        <time>2019-07-16T09:12:49Z</time>
      </trkpt>
      <trkpt lat="48.29679" lon="-1.79569">
        <ele>97.2</ele>
        <time>2019-07-16T09:12:50Z</time>
      </trkpt>
      <trkpt lat="48.29678" lon="-1.79564">
        <ele>97.3</ele>
        <time>2019-07-16T09:12:51Z</time>
      </trkpt>
      <trkpt lat="48.29678" lon="-1.79559">
        <ele>97.3</ele>
        <time>2019-07-16T09:12:52Z</time>
      </trkpt>
      <trkpt lat="48.29678" lon="-1.79555">
        <ele>97.5</ele>
        <time>2019-07-16T09:12:53Z</time>
      </trkpt>
      <trkpt lat="48.29678" lon="-1.7955">
        <ele>97.8</ele>
        <time>2019-07-16T09:12:54Z</time>
      </trkpt>
      <trkpt lat="48.29678" lon="-1.79545">
        <ele>97.7</ele>
        <time>2019-07-16T09:12:55Z</time>
      </trkpt>
      <trkpt lat="48.29677" lon="-1.7954">
        <ele>97.6</ele>
        <time>2019-07-16T09:12:56Z</time>
      </trkpt>
      <trkpt lat="48.29676" lon="-1.79534">
        <ele>97.3</ele>
        <time>2019-07-16T09:12:57Z</time>
      </trkpt>
      <trkpt lat="48.29676" lon="-1.79529">
        <ele>97.3</ele>
        <time>2019-07-16T09:12:58Z</time>
      </trkpt>
      <trkpt lat="48.29676" lon="-1.79524">
        <ele>97.2</ele>
        <time>2019-07-16T09:12:59Z</time>
      </trkpt>
      <trkpt lat="48.29676" lon="-1.79518">
        <ele>97.3</ele>
        <time>2019-07-16T09:13:00Z</time>
      </trkpt>
      <trkpt lat="48.29676" lon="-1.79513">
        <ele>97.3</ele>
        <time>2019-07-16T09:13:01Z</time>
      </trkpt>
      <trkpt lat="48.29676" lon="-1.79507">
        <ele>97.5</ele>
        <time>2019-07-16T09:13:02Z</time>
      </trkpt>
      <trkpt lat="48.29675" lon="-1.79501">
        <ele>97.5</ele>
        <time>2019-07-16T09:13:03Z</time>
      </trkpt>
      <trkpt lat="48.29675" lon="-1.79495">
        <ele>97.6</ele>
        <time>2019-07-16T09:13:04Z</time>
      </trkpt>
      <trkpt lat="48.29674" lon="-1.7949">
        <ele>97.4</ele>
        <time>2019-07-16T09:13:05Z</time>
      </trkpt>
      <trkpt lat="48.29674" lon="-1.79484">
        <ele>97.3</ele>
        <time>2019-07-16T09:13:06Z</time>
      </trkpt>
      <trkpt lat="48.29674" lon="-1.79479">
        <ele>97</ele>
        <time>2019-07-16T09:13:07Z</time>
      </trkpt>
      <trkpt lat="48.29674" lon="-1.79474">
        <ele>96.6</ele>
        <time>2019-07-16T09:13:08Z</time>
      </trkpt>
      <trkpt lat="48.29673" lon="-1.79469">
        <ele>96.4</ele>
        <time>2019-07-16T09:13:09Z</time>
      </trkpt>
      <trkpt lat="48.29673" lon="-1.79465">
        <ele>96</ele>
        <time>2019-07-16T09:13:10Z</time>
      </trkpt>
      <trkpt lat="48.29672" lon="-1.79459">
        <ele>95.5</ele>
        <time>2019-07-16T09:13:11Z</time>
      </trkpt>
      <trkpt lat="48.29671" lon="-1.79454">
        <ele>95.2</ele>
        <time>2019-07-16T09:13:12Z</time>
      </trkpt>
      <trkpt lat="48.29671" lon="-1.79449">
        <ele>94.9</ele>
        <time>2019-07-16T09:13:13Z</time>
      </trkpt>
      <trkpt lat="48.2967" lon="-1.79445">
        <ele>94.7</ele>
        <time>2019-07-16T09:13:14Z</time>
      </trkpt>
      <trkpt lat="48.29669" lon="-1.7944">
        <ele>94.5</ele>
        <time>2019-07-16T09:13:15Z</time>
      </trkpt>
      <trkpt lat="48.29668" lon="-1.79434">
        <ele>94.2</ele>
        <time>2019-07-16T09:13:16Z</time>
      </trkpt>
      <trkpt lat="48.29668" lon="-1.79429">
        <ele>93.9</ele>
        <time>2019-07-16T09:13:17Z</time>
      </trkpt>
      <trkpt lat="48.29667" lon="-1.79424">
        <ele>93.5</ele>
        <time>2019-07-16T09:13:18Z</time>
      </trkpt>
      <trkpt lat="48.29666" lon="-1.79418">
        <ele>93</ele>
        <time>2019-07-16T09:13:19Z</time>
      </trkpt>
      <trkpt lat="48.29665" lon="-1.79413">
        <ele>92.8</ele>
        <time>2019-07-16T09:13:20Z</time>
      </trkpt>
      <trkpt lat="48.29665" lon="-1.79408">
        <ele>92.6</ele>
        <time>2019-07-16T09:13:21Z</time>
      </trkpt>
      <trkpt lat="48.29664" lon="-1.79404">
        <ele>92.6</ele>
        <time>2019-07-16T09:13:22Z</time>
      </trkpt>
      <trkpt lat="48.29664" lon="-1.79399">
        <ele>92.4</ele>
        <time>2019-07-16T09:13:23Z</time>
      </trkpt>
      <trkpt lat="48.29663" lon="-1.79394">
        <ele>92.2</ele>
        <time>2019-07-16T09:13:24Z</time>
      </trkpt>
      <trkpt lat="48.29662" lon="-1.79389">
        <ele>92.3</ele>
        <time>2019-07-16T09:13:25Z</time>
      </trkpt>
      <trkpt lat="48.29662" lon="-1.79385">
        <ele>93.1</ele>
        <time>2019-07-16T09:13:26Z</time>
      </trkpt>
      <trkpt lat="48.29661" lon="-1.79381">
        <ele>93.4</ele>
        <time>2019-07-16T09:13:27Z</time>
      </trkpt>
      <trkpt lat="48.29662" lon="-1.79376">
        <ele>93.8</ele>
        <time>2019-07-16T09:13:28Z</time>
      </trkpt>
      <trkpt lat="48.29662" lon="-1.79372">
        <ele>93.7</ele>
        <time>2019-07-16T09:13:29Z</time>
      </trkpt>
      <trkpt lat="48.29662" lon="-1.79367">
        <ele>93.9</ele>
        <time>2019-07-16T09:13:30Z</time>
      </trkpt>
      <trkpt lat="48.29662" lon="-1.79362">
        <ele>94.1</ele>
        <time>2019-07-16T09:13:31Z</time>
      </trkpt>
      <trkpt lat="48.29662" lon="-1.79357">
        <ele>94.3</ele>
        <time>2019-07-16T09:13:32Z</time>
      </trkpt>
      <trkpt lat="48.29662" lon="-1.79353">
        <ele>94.3</ele>
        <time>2019-07-16T09:13:33Z</time>
      </trkpt>
      <trkpt lat="48.29661" lon="-1.79348">
        <ele>94.4</ele>
        <time>2019-07-16T09:13:34Z</time>
      </trkpt>
      <trkpt lat="48.29661" lon="-1.79344">
        <ele>94.5</ele>
        <time>2019-07-16T09:13:35Z</time>
      </trkpt>
      <trkpt lat="48.2966" lon="-1.7934">
        <ele>94.8</ele>
        <time>2019-07-16T09:13:36Z</time>
      </trkpt>
      <trkpt lat="48.2966" lon="-1.79335">
        <ele>95</ele>
        <time>2019-07-16T09:13:37Z</time>
      </trkpt>
      <trkpt lat="48.29659" lon="-1.79331">
        <ele>95.3</ele>
        <time>2019-07-16T09:13:38Z</time>
      </trkpt>
      <trkpt lat="48.2966" lon="-1.79326">
        <ele>95.4</ele>
        <time>2019-07-16T09:13:39Z</time>
      </trkpt>
      <trkpt lat="48.29659" lon="-1.79321">
        <ele>95.7</ele>
        <time>2019-07-16T09:13:40Z</time>
      </trkpt>
      <trkpt lat="48.29659" lon="-1.79317">
        <ele>95.9</ele>
        <time>2019-07-16T09:13:41Z</time>
      </trkpt>
      <trkpt lat="48.29659" lon="-1.79312">
        <ele>96.2</ele>
        <time>2019-07-16T09:13:42Z</time>
      </trkpt>
      <trkpt lat="48.29659" lon="-1.79307">
        <ele>96.4</ele>
        <time>2019-07-16T09:13:43Z</time>
      </trkpt>
      <trkpt lat="48.2966" lon="-1.79301">
        <ele>96.8</ele>
        <time>2019-07-16T09:13:44Z</time>
      </trkpt>
      <trkpt lat="48.2966" lon="-1.79296">
        <ele>97.2</ele>
        <time>2019-07-16T09:13:45Z</time>
      </trkpt>
      <trkpt lat="48.2966" lon="-1.7929">
        <ele>97.6</ele>
        <time>2019-07-16T09:13:46Z</time>
      </trkpt>
      <trkpt lat="48.29659" lon="-1.79285">
        <ele>98.4</ele>
        <time>2019-07-16T09:13:47Z</time>
      </trkpt>
      <trkpt lat="48.29659" lon="-1.79279">
        <ele>98.8</ele>
        <time>2019-07-16T09:13:48Z</time>
      </trkpt>
      <trkpt lat="48.29659" lon="-1.79274">
        <ele>99.3</ele>
        <time>2019-07-16T09:13:49Z</time>
      </trkpt>
      <trkpt lat="48.29659" lon="-1.7927">
        <ele>99.6</ele>
        <time>2019-07-16T09:13:50Z</time>
      </trkpt>
      <trkpt lat="48.29659" lon="-1.79265">
        <ele>100</ele>
        <time>2019-07-16T09:13:51Z</time>
      </trkpt>
      <trkpt lat="48.29659" lon="-1.79261">
        <ele>100.4</ele>
        <time>2019-07-16T09:13:52Z</time>
      </trkpt>
      <trkpt lat="48.29659" lon="-1.79255">
        <ele>101.1</ele>
        <time>2019-07-16T09:13:53Z</time>
      </trkpt>
      <trkpt lat="48.2966" lon="-1.7925">
        <ele>101.5</ele>
        <time>2019-07-16T09:13:54Z</time>
      </trkpt>
      <trkpt lat="48.2966" lon="-1.79245">
        <ele>101.7</ele>
        <time>2019-07-16T09:13:55Z</time>
      </trkpt>
      <trkpt lat="48.2966" lon="-1.7924">
        <ele>102.6</ele>
        <time>2019-07-16T09:13:56Z</time>
      </trkpt>
      <trkpt lat="48.2966" lon="-1.79235">
        <ele>103.6</ele>
        <time>2019-07-16T09:13:57Z</time>
      </trkpt>
      <trkpt lat="48.2966" lon="-1.7923">
        <ele>104.1</ele>
        <time>2019-07-16T09:13:58Z</time>
      </trkpt>
      <trkpt lat="48.2966" lon="-1.79224">
        <ele>104.3</ele>
        <time>2019-07-16T09:13:59Z</time>
      </trkpt>
      <trkpt lat="48.29661" lon="-1.7922">
        <ele>104.3</ele>
        <time>2019-07-16T09:14:00Z</time>
      </trkpt>
      <trkpt lat="48.29661" lon="-1.79215">
        <ele>104</ele>
        <time>2019-07-16T09:14:01Z</time>
      </trkpt>
      <trkpt lat="48.29661" lon="-1.7921">
        <ele>103.8</ele>
        <time>2019-07-16T09:14:02Z</time>
      </trkpt>
      <trkpt lat="48.29661" lon="-1.79206">
        <ele>103</ele>
        <time>2019-07-16T09:14:03Z</time>
      </trkpt>
      <trkpt lat="48.29662" lon="-1.79203">
        <ele>101.9</ele>
        <time>2019-07-16T09:14:04Z</time>
      </trkpt>
      <trkpt lat="48.29662" lon="-1.792">
        <ele>101.4</ele>
        <time>2019-07-16T09:14:05Z</time>
      </trkpt>
      <trkpt lat="48.29661" lon="-1.79196">
        <ele>101.2</ele>
        <time>2019-07-16T09:14:06Z</time>
      </trkpt>
      <trkpt lat="48.2966" lon="-1.79193">
        <ele>101.1</ele>
        <time>2019-07-16T09:14:07Z</time>
      </trkpt>
      <trkpt lat="48.2966" lon="-1.7919">
        <ele>100.8</ele>
        <time>2019-07-16T09:14:08Z</time>
      </trkpt>
      <trkpt lat="48.29661" lon="-1.79187">
        <ele>100.5</ele>
        <time>2019-07-16T09:14:09Z</time>
      </trkpt>
      <trkpt lat="48.29662" lon="-1.79179">
        <ele>100.4</ele>
        <time>2019-07-16T09:16:40Z</time>
      </trkpt>
      <trkpt lat="48.29663" lon="-1.79177">
        <ele>100.6</ele>
        <time>2019-07-16T09:16:41Z</time>
      </trkpt>
      <trkpt lat="48.29664" lon="-1.79174">
        <ele>100.7</ele>
        <time>2019-07-16T09:16:42Z</time>
      </trkpt>
      <trkpt lat="48.29664" lon="-1.79171">
        <ele>100.8</ele>
        <time>2019-07-16T09:16:43Z</time>
      </trkpt>
      <trkpt lat="48.29664" lon="-1.79168">
        <ele>100.9</ele>
        <time>2019-07-16T09:16:44Z</time>
      </trkpt>
      <trkpt lat="48.29664" lon="-1.79164">
        <ele>100.8</ele>
        <time>2019-07-16T09:16:45Z</time>
      </trkpt>
      <trkpt lat="48.29664" lon="-1.7916">
        <ele>100.8</ele>
        <time>2019-07-16T09:16:46Z</time>
      </trkpt>
      <trkpt lat="48.29664" lon="-1.79155">
        <ele>100.6</ele>
        <time>2019-07-16T09:16:47Z</time>
      </trkpt>
      <trkpt lat="48.29664" lon="-1.79151">
        <ele>100.5</ele>
        <time>2019-07-16T09:16:48Z</time>
      </trkpt>
      <trkpt lat="48.29664" lon="-1.79146">
        <ele>100.3</ele>
        <time>2019-07-16T09:16:49Z</time>
      </trkpt>
      <trkpt lat="48.29664" lon="-1.79141">
        <ele>100.2</ele>
        <time>2019-07-16T09:16:50Z</time>
      </trkpt>
      <trkpt lat="48.29665" lon="-1.79137">
        <ele>100</ele>
        <time>2019-07-16T09:16:51Z</time>
      </trkpt>
      <trkpt lat="48.29665" lon="-1.79132">
        <ele>100.2</ele>
        <time>2019-07-16T09:16:52Z</time>
      </trkpt>
      <trkpt lat="48.29665" lon="-1.79127">
        <ele>100.2</ele>
        <time>2019-07-16T09:16:53Z</time>
      </trkpt>
      <trkpt lat="48.29666" lon="-1.79122">
        <ele>100.5</ele>
        <time>2019-07-16T09:16:54Z</time>
      </trkpt>
      <trkpt lat="48.29666" lon="-1.79116">
        <ele>100.9</ele>
        <time>2019-07-16T09:16:55Z</time>
      </trkpt>
      <trkpt lat="48.29667" lon="-1.79111">
        <ele>100.9</ele>
        <time>2019-07-16T09:16:56Z</time>
      </trkpt>
      <trkpt lat="48.29667" lon="-1.79105">
        <ele>100.8</ele>
        <time>2019-07-16T09:16:57Z</time>
      </trkpt>
      <trkpt lat="48.29667" lon="-1.791">
        <ele>100.5</ele>
        <time>2019-07-16T09:16:58Z</time>
      </trkpt>
      <trkpt lat="48.29666" lon="-1.79094">
        <ele>100.2</ele>
        <time>2019-07-16T09:16:59Z</time>
      </trkpt>
      <trkpt lat="48.29665" lon="-1.79089">
        <ele>99.8</ele>
        <time>2019-07-16T09:17:00Z</time>
      </trkpt>
      <trkpt lat="48.29665" lon="-1.79084">
        <ele>99.4</ele>
        <time>2019-07-16T09:17:01Z</time>
      </trkpt>
      <trkpt lat="48.29665" lon="-1.79078">
        <ele>99.4</ele>
        <time>2019-07-16T09:17:02Z</time>
      </trkpt>
      <trkpt lat="48.29665" lon="-1.79073">
        <ele>99.3</ele>
        <time>2019-07-16T09:17:03Z</time>
      </trkpt>
      <trkpt lat="48.29665" lon="-1.79067">
        <ele>99.4</ele>
        <time>2019-07-16T09:17:04Z</time>
      </trkpt>
      <trkpt lat="48.29665" lon="-1.79062">
        <ele>99.4</ele>
        <time>2019-07-16T09:17:05Z</time>
      </trkpt>
      <trkpt lat="48.29665" lon="-1.79056">
        <ele>99.3</ele>
        <time>2019-07-16T09:17:06Z</time>
      </trkpt>
      <trkpt lat="48.29664" lon="-1.7905">
        <ele>99.3</ele>
        <time>2019-07-16T09:17:07Z</time>
      </trkpt>
      <trkpt lat="48.29664" lon="-1.79044">
        <ele>99.2</ele>
        <time>2019-07-16T09:17:08Z</time>
      </trkpt>
      <trkpt lat="48.29664" lon="-1.79039">
        <ele>98.8</ele>
        <time>2019-07-16T09:17:09Z</time>
      </trkpt>
      <trkpt lat="48.29664" lon="-1.79033">
        <ele>98.7</ele>
        <time>2019-07-16T09:17:10Z</time>
      </trkpt>
      <trkpt lat="48.29664" lon="-1.79027">
        <ele>98.7</ele>
        <time>2019-07-16T09:17:11Z</time>
      </trkpt>
      <trkpt lat="48.29663" lon="-1.79021">
        <ele>98.8</ele>
        <time>2019-07-16T09:17:12Z</time>
      </trkpt>
      <trkpt lat="48.29663" lon="-1.79015">
        <ele>98.7</ele>
        <time>2019-07-16T09:17:13Z</time>
      </trkpt>
      <trkpt lat="48.29663" lon="-1.79009">
        <ele>98.8</ele>
        <time>2019-07-16T09:17:14Z</time>
      </trkpt>
      <trkpt lat="48.29662" lon="-1.79003">
        <ele>98.7</ele>
        <time>2019-07-16T09:17:15Z</time>
      </trkpt>
      <trkpt lat="48.29662" lon="-1.78997">
        <ele>98.3</ele>
        <time>2019-07-16T09:17:16Z</time>
      </trkpt>
      <trkpt lat="48.29661" lon="-1.78991">
        <ele>98</ele>
        <time>2019-07-16T09:17:17Z</time>
      </trkpt>
      <trkpt lat="48.29661" lon="-1.78984">
        <ele>97.7</ele>
        <time>2019-07-16T09:17:18Z</time>
      </trkpt>
      <trkpt lat="48.29661" lon="-1.78978">
        <ele>97.7</ele>
        <time>2019-07-16T09:17:19Z</time>
      </trkpt>
      <trkpt lat="48.29661" lon="-1.78972">
        <ele>97.6</ele>
        <time>2019-07-16T09:17:20Z</time>
      </trkpt>
      <trkpt lat="48.29661" lon="-1.78966">
        <ele>97.8</ele>
        <time>2019-07-16T09:17:21Z</time>
      </trkpt>
      <trkpt lat="48.2966" lon="-1.78959">
        <ele>97.7</ele>
        <time>2019-07-16T09:17:22Z</time>
      </trkpt>
      <trkpt lat="48.2966" lon="-1.78952">
        <ele>97.5</ele>
        <time>2019-07-16T09:17:23Z</time>
      </trkpt>
      <trkpt lat="48.2966" lon="-1.78945">
        <ele>97.5</ele>
        <time>2019-07-16T09:17:24Z</time>
      </trkpt>
      <trkpt lat="48.2966" lon="-1.78939">
        <ele>97.5</ele>
        <time>2019-07-16T09:17:25Z</time>
      </trkpt>
      <trkpt lat="48.29659" lon="-1.78932">
        <ele>97.5</ele>
        <time>2019-07-16T09:17:26Z</time>
      </trkpt>
      <trkpt lat="48.29659" lon="-1.78924">
        <ele>97.7</ele>
        <time>2019-07-16T09:17:27Z</time>
      </trkpt>
      <trkpt lat="48.29658" lon="-1.78917">
        <ele>97.8</ele>
        <time>2019-07-16T09:17:28Z</time>
      </trkpt>
      <trkpt lat="48.29658" lon="-1.78909">
        <ele>98.1</ele>
        <time>2019-07-16T09:17:29Z</time>
      </trkpt>
      <trkpt lat="48.29658" lon="-1.78903">
        <ele>97.9</ele>
        <time>2019-07-16T09:17:30Z</time>
      </trkpt>
      <trkpt lat="48.29657" lon="-1.78895">
        <ele>98</ele>
        <time>2019-07-16T09:17:31Z</time>
      </trkpt>
      <trkpt lat="48.29657" lon="-1.78888">
        <ele>98</ele>
        <time>2019-07-16T09:17:32Z</time>
      </trkpt>
      <trkpt lat="48.29657" lon="-1.78881">
        <ele>97.9</ele>
        <time>2019-07-16T09:17:33Z</time>
      </trkpt>
      <trkpt lat="48.29656" lon="-1.78874">
        <ele>97.9</ele>
        <time>2019-07-16T09:17:34Z</time>
      </trkpt>
      <trkpt lat="48.29656" lon="-1.78867">
        <ele>97.9</ele>
        <time>2019-07-16T09:17:35Z</time>
      </trkpt>
      <trkpt lat="48.29656" lon="-1.78859">
        <ele>97.6</ele>
        <time>2019-07-16T09:17:36Z</time>
      </trkpt>
      <trkpt lat="48.29656" lon="-1.78852">
        <ele>97.4</ele>
        <time>2019-07-16T09:17:37Z</time>
      </trkpt>
      <trkpt lat="48.29655" lon="-1.78844">
        <ele>97.2</ele>
        <time>2019-07-16T09:17:38Z</time>
      </trkpt>
      <trkpt lat="48.29654" lon="-1.78837">
        <ele>96.8</ele>
        <time>2019-07-16T09:17:39Z</time>
      </trkpt>
      <trkpt lat="48.29654" lon="-1.78829">
        <ele>96.5</ele>
        <time>2019-07-16T09:17:40Z</time>
      </trkpt>
      <trkpt lat="48.29653" lon="-1.78821">
        <ele>96.4</ele>
        <time>2019-07-16T09:17:41Z</time>
      </trkpt>
      <trkpt lat="48.29653" lon="-1.78813">
        <ele>96.5</ele>
        <time>2019-07-16T09:17:42Z</time>
      </trkpt>
      <trkpt lat="48.29652" lon="-1.78805">
        <ele>96</ele>
        <time>2019-07-16T09:17:43Z</time>
      </trkpt>
      <trkpt lat="48.29651" lon="-1.78798">
        <ele>96</ele>
        <time>2019-07-16T09:17:44Z</time>
      </trkpt>
      <trkpt lat="48.29651" lon="-1.7879">
        <ele>96</ele>
        <time>2019-07-16T09:17:45Z</time>
      </trkpt>
      <trkpt lat="48.2965" lon="-1.78782">
        <ele>95.6</ele>
        <time>2019-07-16T09:17:46Z</time>
      </trkpt>
      <trkpt lat="48.29649" lon="-1.78774">
        <ele>95.4</ele>
        <time>2019-07-16T09:17:47Z</time>
      </trkpt>
      <trkpt lat="48.29649" lon="-1.78766">
        <ele>95</ele>
        <time>2019-07-16T09:17:48Z</time>
      </trkpt>
      <trkpt lat="48.29648" lon="-1.78759">
        <ele>95</ele>
        <time>2019-07-16T09:17:49Z</time>
      </trkpt>
      <trkpt lat="48.29647" lon="-1.78751">
        <ele>94.7</ele>
        <time>2019-07-16T09:17:50Z</time>
      </trkpt>
      <trkpt lat="48.29647" lon="-1.78743">
        <ele>94.7</ele>
        <time>2019-07-16T09:17:51Z</time>
      </trkpt>
      <trkpt lat="48.29646" lon="-1.78736">
        <ele>94.7</ele>
        <time>2019-07-16T09:17:52Z</time>
      </trkpt>
      <trkpt lat="48.29645" lon="-1.78728">
        <ele>95</ele>
        <time>2019-07-16T09:17:53Z</time>
      </trkpt>
      <trkpt lat="48.29645" lon="-1.78721">
        <ele>95.2</ele>
        <time>2019-07-16T09:17:54Z</time>
      </trkpt>
      <trkpt lat="48.29644" lon="-1.78713">
        <ele>95.2</ele>
        <time>2019-07-16T09:17:55Z</time>
      </trkpt>
      <trkpt lat="48.29644" lon="-1.78706">
        <ele>95.6</ele>
        <time>2019-07-16T09:17:56Z</time>
      </trkpt>
      <trkpt lat="48.29643" lon="-1.78698">
        <ele>95.9</ele>
        <time>2019-07-16T09:17:57Z</time>
      </trkpt>
      <trkpt lat="48.29643" lon="-1.78691">
        <ele>96.1</ele>
        <time>2019-07-16T09:17:58Z</time>
      </trkpt>
      <trkpt lat="48.29642" lon="-1.78684">
        <ele>96</ele>
        <time>2019-07-16T09:17:59Z</time>
      </trkpt>
      <trkpt lat="48.29641" lon="-1.78676">
        <ele>96.1</ele>
        <time>2019-07-16T09:18:00Z</time>
      </trkpt>
      <trkpt lat="48.2964" lon="-1.78669">
        <ele>96.1</ele>
        <time>2019-07-16T09:18:01Z</time>
      </trkpt>
      <trkpt lat="48.2964" lon="-1.78662">
        <ele>96.2</ele>
        <time>2019-07-16T09:18:02Z</time>
      </trkpt>
      <trkpt lat="48.2964" lon="-1.78654">
        <ele>96.3</ele>
        <time>2019-07-16T09:18:03Z</time>
      </trkpt>
      <trkpt lat="48.29639" lon="-1.78647">
        <ele>96.3</ele>
        <time>2019-07-16T09:18:04Z</time>
      </trkpt>
      <trkpt lat="48.29639" lon="-1.7864">
        <ele>96.2</ele>
        <time>2019-07-16T09:18:05Z</time>
      </trkpt>
      <trkpt lat="48.29639" lon="-1.78633">
        <ele>96</ele>
        <time>2019-07-16T09:18:06Z</time>
      </trkpt>
      <trkpt lat="48.29638" lon="-1.78625">
        <ele>95.9</ele>
        <time>2019-07-16T09:18:07Z</time>
      </trkpt>
      <trkpt lat="48.29639" lon="-1.78618">
        <ele>96.5</ele>
        <time>2019-07-16T09:18:08Z</time>
      </trkpt>
      <trkpt lat="48.29638" lon="-1.78611">
        <ele>96.5</ele>
        <time>2019-07-16T09:18:09Z</time>
      </trkpt>
      <trkpt lat="48.29638" lon="-1.78604">
        <ele>96.8</ele>
        <time>2019-07-16T09:18:10Z</time>
      </trkpt>
      <trkpt lat="48.29637" lon="-1.78597">
        <ele>96.9</ele>
        <time>2019-07-16T09:18:11Z</time>
      </trkpt>
      <trkpt lat="48.29637" lon="-1.7859">
        <ele>97</ele>
        <time>2019-07-16T09:18:12Z</time>
      </trkpt>
      <trkpt lat="48.29636" lon="-1.78584">
        <ele>97</ele>
        <time>2019-07-16T09:18:13Z</time>
      </trkpt>
      <trkpt lat="48.29636" lon="-1.78577">
        <ele>97</ele>
        <time>2019-07-16T09:18:14Z</time>
      </trkpt>
      <trkpt lat="48.29636" lon="-1.78571">
        <ele>96.9</ele>
        <time>2019-07-16T09:18:15Z</time>
      </trkpt>
      <trkpt lat="48.29635" lon="-1.78565">
        <ele>96.8</ele>
        <time>2019-07-16T09:18:16Z</time>
      </trkpt>
      <trkpt lat="48.29635" lon="-1.78559">
        <ele>96.5</ele>
        <time>2019-07-16T09:18:17Z</time>
      </trkpt>
      <trkpt lat="48.29634" lon="-1.78553">
        <ele>96.5</ele>
        <time>2019-07-16T09:18:18Z</time>
      </trkpt>
      <trkpt lat="48.29633" lon="-1.78547">
        <ele>96.6</ele>
        <time>2019-07-16T09:18:19Z</time>
      </trkpt>
      <trkpt lat="48.29633" lon="-1.78541">
        <ele>96.9</ele>
        <time>2019-07-16T09:18:20Z</time>
      </trkpt>
      <trkpt lat="48.29632" lon="-1.78535">
        <ele>97</ele>
        <time>2019-07-16T09:18:21Z</time>
      </trkpt>
      <trkpt lat="48.29631" lon="-1.7853">
        <ele>97.1</ele>
        <time>2019-07-16T09:18:22Z</time>
      </trkpt>
      <trkpt lat="48.29631" lon="-1.78525">
        <ele>97.4</ele>
        <time>2019-07-16T09:18:23Z</time>
      </trkpt>
      <trkpt lat="48.2963" lon="-1.78519">
        <ele>97.3</ele>
        <time>2019-07-16T09:18:24Z</time>
      </trkpt>
      <trkpt lat="48.2963" lon="-1.78514">
        <ele>97.3</ele>
        <time>2019-07-16T09:18:25Z</time>
      </trkpt>
      <trkpt lat="48.29629" lon="-1.78509">
        <ele>97.6</ele>
        <time>2019-07-16T09:18:26Z</time>
      </trkpt>
      <trkpt lat="48.29628" lon="-1.78504">
        <ele>97.9</ele>
        <time>2019-07-16T09:18:27Z</time>
      </trkpt>
      <trkpt lat="48.29628" lon="-1.78499">
        <ele>98.3</ele>
        <time>2019-07-16T09:18:28Z</time>
      </trkpt>
      <trkpt lat="48.29627" lon="-1.78494">
        <ele>98.6</ele>
        <time>2019-07-16T09:18:29Z</time>
      </trkpt>
      <trkpt lat="48.29627" lon="-1.78489">
        <ele>98.9</ele>
        <time>2019-07-16T09:18:30Z</time>
      </trkpt>
      <trkpt lat="48.29627" lon="-1.78483">
        <ele>99.3</ele>
        <time>2019-07-16T09:18:31Z</time>
      </trkpt>
      <trkpt lat="48.29625" lon="-1.78478">
        <ele>99.4</ele>
        <time>2019-07-16T09:18:32Z</time>
      </trkpt>
      <trkpt lat="48.29625" lon="-1.78473">
        <ele>99.6</ele>
        <time>2019-07-16T09:18:33Z</time>
      </trkpt>
      <trkpt lat="48.29624" lon="-1.78468">
        <ele>99.7</ele>
        <time>2019-07-16T09:18:34Z</time>
      </trkpt>
      <trkpt lat="48.29625" lon="-1.78464">
        <ele>99.8</ele>
        <time>2019-07-16T09:18:35Z</time>
      </trkpt>
      <trkpt lat="48.29625" lon="-1.78459">
        <ele>99.9</ele>
        <time>2019-07-16T09:18:36Z</time>
      </trkpt>
      <trkpt lat="48.29625" lon="-1.78454">
        <ele>100.3</ele>
        <time>2019-07-16T09:18:37Z</time>
      </trkpt>
      <trkpt lat="48.29625" lon="-1.78448">
        <ele>100.6</ele>
        <time>2019-07-16T09:18:38Z</time>
      </trkpt>
      <trkpt lat="48.29625" lon="-1.78443">
        <ele>100.8</ele>
        <time>2019-07-16T09:18:39Z</time>
      </trkpt>
      <trkpt lat="48.29624" lon="-1.78436">
        <ele>100.8</ele>
        <time>2019-07-16T09:18:40Z</time>
      </trkpt>
      <trkpt lat="48.29623" lon="-1.78431">
        <ele>100.8</ele>
        <time>2019-07-16T09:18:41Z</time>
      </trkpt>
      <trkpt lat="48.29623" lon="-1.78425">
        <ele>100.8</ele>
        <time>2019-07-16T09:18:42Z</time>
      </trkpt>
      <trkpt lat="48.2962" lon="-1.78419">
        <ele>100.6</ele>
        <time>2019-07-16T09:18:43Z</time>
      </trkpt>
      <trkpt lat="48.29617" lon="-1.78413">
        <ele>100.1</ele>
        <time>2019-07-16T09:18:44Z</time>
      </trkpt>
      <trkpt lat="48.29615" lon="-1.78408">
        <ele>99.2</ele>
        <time>2019-07-16T09:18:45Z</time>
      </trkpt>
      <trkpt lat="48.29614" lon="-1.78402">
        <ele>98</ele>
        <time>2019-07-16T09:18:46Z</time>
      </trkpt>
      <trkpt lat="48.29614" lon="-1.78395">
        <ele>97.5</ele>
        <time>2019-07-16T09:18:47Z</time>
      </trkpt>
      <trkpt lat="48.29615" lon="-1.78389">
        <ele>96.9</ele>
        <time>2019-07-16T09:18:48Z</time>
      </trkpt>
      <trkpt lat="48.29615" lon="-1.78382">
        <ele>96.7</ele>
        <time>2019-07-16T09:18:49Z</time>
      </trkpt>
      <trkpt lat="48.29615" lon="-1.78375">
        <ele>96.5</ele>
        <time>2019-07-16T09:18:50Z</time>
      </trkpt>
      <trkpt lat="48.29616" lon="-1.78369">
        <ele>96.2</ele>
        <time>2019-07-16T09:18:51Z</time>
      </trkpt>
      <trkpt lat="48.29617" lon="-1.78363">
        <ele>96.6</ele>
        <time>2019-07-16T09:18:52Z</time>
      </trkpt>
      <trkpt lat="48.29617" lon="-1.78356">
        <ele>96.7</ele>
        <time>2019-07-16T09:18:53Z</time>
      </trkpt>
      <trkpt lat="48.29618" lon="-1.7835">
        <ele>96.8</ele>
        <time>2019-07-16T09:18:54Z</time>
      </trkpt>
      <trkpt lat="48.29619" lon="-1.78343">
        <ele>96.6</ele>
        <time>2019-07-16T09:18:55Z</time>
      </trkpt>
      <trkpt lat="48.29621" lon="-1.78337">
        <ele>96.5</ele>
        <time>2019-07-16T09:18:56Z</time>
      </trkpt>
      <trkpt lat="48.29622" lon="-1.7833">
        <ele>96.2</ele>
        <time>2019-07-16T09:18:57Z</time>
      </trkpt>
      <trkpt lat="48.29623" lon="-1.78324">
        <ele>95.6</ele>
        <time>2019-07-16T09:18:58Z</time>
      </trkpt>
      <trkpt lat="48.29624" lon="-1.78316">
        <ele>95.4</ele>
        <time>2019-07-16T09:18:59Z</time>
      </trkpt>
      <trkpt lat="48.29624" lon="-1.78309">
        <ele>95.3</ele>
        <time>2019-07-16T09:19:00Z</time>
      </trkpt>
      <trkpt lat="48.29625" lon="-1.78302">
        <ele>94.8</ele>
        <time>2019-07-16T09:19:01Z</time>
      </trkpt>
      <trkpt lat="48.29625" lon="-1.78295">
        <ele>94.7</ele>
        <time>2019-07-16T09:19:02Z</time>
      </trkpt>
      <trkpt lat="48.29626" lon="-1.78288">
        <ele>94.6</ele>
        <time>2019-07-16T09:19:03Z</time>
      </trkpt>
      <trkpt lat="48.29627" lon="-1.78282">
        <ele>94.7</ele>
        <time>2019-07-16T09:19:04Z</time>
      </trkpt>
      <trkpt lat="48.29627" lon="-1.78275">
        <ele>95.3</ele>
        <time>2019-07-16T09:19:05Z</time>
      </trkpt>
      <trkpt lat="48.29627" lon="-1.78268">
        <ele>95</ele>
        <time>2019-07-16T09:19:06Z</time>
      </trkpt>
      <trkpt lat="48.29627" lon="-1.78261">
        <ele>94.5</ele>
        <time>2019-07-16T09:19:07Z</time>
      </trkpt>
      <trkpt lat="48.29627" lon="-1.78254">
        <ele>94.4</ele>
        <time>2019-07-16T09:19:08Z</time>
      </trkpt>
      <trkpt lat="48.29627" lon="-1.78248">
        <ele>94.1</ele>
        <time>2019-07-16T09:19:09Z</time>
      </trkpt>
      <trkpt lat="48.29627" lon="-1.78241">
        <ele>94.1</ele>
        <time>2019-07-16T09:19:10Z</time>
      </trkpt>
      <trkpt lat="48.29628" lon="-1.78234">
        <ele>94.2</ele>
        <time>2019-07-16T09:19:11Z</time>
      </trkpt>
      <trkpt lat="48.29629" lon="-1.78228">
        <ele>94.5</ele>
        <time>2019-07-16T09:19:12Z</time>
      </trkpt>
      <trkpt lat="48.2963" lon="-1.78221">
        <ele>94.5</ele>
        <time>2019-07-16T09:19:13Z</time>
      </trkpt>
      <trkpt lat="48.2963" lon="-1.78215">
        <ele>94.8</ele>
        <time>2019-07-16T09:19:14Z</time>
      </trkpt>
      <trkpt lat="48.2963" lon="-1.78208">
        <ele>95.2</ele>
        <time>2019-07-16T09:19:15Z</time>
      </trkpt>
      <trkpt lat="48.2963" lon="-1.78202">
        <ele>95</ele>
        <time>2019-07-16T09:19:16Z</time>
      </trkpt>
      <trkpt lat="48.29631" lon="-1.78195">
        <ele>94.8</ele>
        <time>2019-07-16T09:19:17Z</time>
      </trkpt>
      <trkpt lat="48.29631" lon="-1.78189">
        <ele>94.6</ele>
        <time>2019-07-16T09:19:18Z</time>
      </trkpt>
      <trkpt lat="48.29631" lon="-1.78182">
        <ele>94.5</ele>
        <time>2019-07-16T09:19:19Z</time>
      </trkpt>
      <trkpt lat="48.29632" lon="-1.78176">
        <ele>94.1</ele>
        <time>2019-07-16T09:19:20Z</time>
      </trkpt>
      <trkpt lat="48.29632" lon="-1.78169">
        <ele>93.9</ele>
        <time>2019-07-16T09:19:21Z</time>
      </trkpt>
      <trkpt lat="48.29633" lon="-1.78163">
        <ele>93.9</ele>
        <time>2019-07-16T09:19:22Z</time>
      </trkpt>
      <trkpt lat="48.29633" lon="-1.78157">
        <ele>94</ele>
        <time>2019-07-16T09:19:23Z</time>
      </trkpt>
      <trkpt lat="48.29633" lon="-1.7815">
        <ele>93.9</ele>
        <time>2019-07-16T09:19:24Z</time>
      </trkpt>
      <trkpt lat="48.29634" lon="-1.78144">
        <ele>93.9</ele>
        <time>2019-07-16T09:19:25Z</time>
      </trkpt>
      <trkpt lat="48.29635" lon="-1.78138">
        <ele>94.4</ele>
        <time>2019-07-16T09:19:26Z</time>
      </trkpt>
      <trkpt lat="48.29636" lon="-1.78132">
        <ele>95.4</ele>
        <time>2019-07-16T09:19:27Z</time>
      </trkpt>
      <trkpt lat="48.29637" lon="-1.78126">
        <ele>95.6</ele>
        <time>2019-07-16T09:19:28Z</time>
      </trkpt>
      <trkpt lat="48.29638" lon="-1.78121">
        <ele>96.4</ele>
        <time>2019-07-16T09:19:29Z</time>
      </trkpt>
      <trkpt lat="48.29639" lon="-1.78115">
        <ele>96.7</ele>
        <time>2019-07-16T09:19:30Z</time>
      </trkpt>
      <trkpt lat="48.29639" lon="-1.78109">
        <ele>96.6</ele>
        <time>2019-07-16T09:19:31Z</time>
      </trkpt>
      <trkpt lat="48.2964" lon="-1.78104">
        <ele>96.8</ele>
        <time>2019-07-16T09:19:32Z</time>
      </trkpt>
      <trkpt lat="48.29641" lon="-1.78099">
        <ele>97</ele>
        <time>2019-07-16T09:19:33Z</time>
      </trkpt>
      <trkpt lat="48.29642" lon="-1.78093">
        <ele>97.1</ele>
        <time>2019-07-16T09:19:34Z</time>
      </trkpt>
      <trkpt lat="48.29643" lon="-1.78087">
        <ele>97.5</ele>
        <time>2019-07-16T09:19:35Z</time>
      </trkpt>
      <trkpt lat="48.29643" lon="-1.78081">
        <ele>97.9</ele>
        <time>2019-07-16T09:19:36Z</time>
      </trkpt>
      <trkpt lat="48.29643" lon="-1.78075">
        <ele>98.1</ele>
        <time>2019-07-16T09:19:37Z</time>
      </trkpt>
      <trkpt lat="48.29643" lon="-1.78069">
        <ele>98.4</ele>
        <time>2019-07-16T09:19:38Z</time>
      </trkpt>
      <trkpt lat="48.29643" lon="-1.78063">
        <ele>99.1</ele>
        <time>2019-07-16T09:19:39Z</time>
      </trkpt>
      <trkpt lat="48.29644" lon="-1.78057">
        <ele>99.6</ele>
        <time>2019-07-16T09:19:40Z</time>
      </trkpt>
      <trkpt lat="48.29644" lon="-1.78051">
        <ele>100</ele>
        <time>2019-07-16T09:19:41Z</time>
      </trkpt>
      <trkpt lat="48.29644" lon="-1.78046">
        <ele>100.6</ele>
        <time>2019-07-16T09:19:42Z</time>
      </trkpt>
      <trkpt lat="48.29645" lon="-1.78041">
        <ele>101.5</ele>
        <time>2019-07-16T09:19:43Z</time>
      </trkpt>
      <trkpt lat="48.29645" lon="-1.78036">
        <ele>102.1</ele>
        <time>2019-07-16T09:19:44Z</time>
      </trkpt>
      <trkpt lat="48.29646" lon="-1.7803">
        <ele>102.3</ele>
        <time>2019-07-16T09:19:45Z</time>
      </trkpt>
      <trkpt lat="48.29646" lon="-1.78025">
        <ele>102.8</ele>
        <time>2019-07-16T09:19:46Z</time>
      </trkpt>
      <trkpt lat="48.29647" lon="-1.78019">
        <ele>102.9</ele>
        <time>2019-07-16T09:19:47Z</time>
      </trkpt>
      <trkpt lat="48.29647" lon="-1.78014">
        <ele>103.1</ele>
        <time>2019-07-16T09:19:48Z</time>
      </trkpt>
      <trkpt lat="48.29647" lon="-1.78009">
        <ele>103.2</ele>
        <time>2019-07-16T09:19:49Z</time>
      </trkpt>
      <trkpt lat="48.29648" lon="-1.78005">
        <ele>102.9</ele>
        <time>2019-07-16T09:19:50Z</time>
      </trkpt>
      <trkpt lat="48.29648" lon="-1.78002">
        <ele>103</ele>
        <time>2019-07-16T09:19:51Z</time>
      </trkpt>
      <trkpt lat="48.29649" lon="-1.78">
        <ele>103.6</ele>
        <time>2019-07-16T09:19:52Z</time>
      </trkpt>
      <trkpt lat="48.29649" lon="-1.77997">
        <ele>103.8</ele>
        <time>2019-07-16T09:19:53Z</time>
      </trkpt>
      <trkpt lat="48.29649" lon="-1.77994">
        <ele>104.1</ele>
        <time>2019-07-16T09:19:54Z</time>
      </trkpt>
      <trkpt lat="48.2965" lon="-1.77992">
        <ele>104.2</ele>
        <time>2019-07-16T09:19:55Z</time>
      </trkpt>
      <trkpt lat="48.2965" lon="-1.77991">
        <ele>104</ele>
        <time>2019-07-16T09:19:56Z</time>
      </trkpt>
      <trkpt lat="48.29651" lon="-1.77991">
        <ele>103.8</ele>
        <time>2019-07-16T09:19:57Z</time>
      </trkpt>
      <trkpt lat="48.29652" lon="-1.77992">
        <ele>104.1</ele>
        <time>2019-07-16T09:19:58Z</time>
      </trkpt>
      <trkpt lat="48.29654" lon="-1.77994">
        <ele>104.4</ele>
        <time>2019-07-16T09:19:59Z</time>
      </trkpt>
      <trkpt lat="48.29655" lon="-1.77997">
        <ele>104.5</ele>
        <time>2019-07-16T09:20:00Z</time>
      </trkpt>
      <trkpt lat="48.29656" lon="-1.77999">
        <ele>104.6</ele>
        <time>2019-07-16T09:20:01Z</time>
      </trkpt>
      <trkpt lat="48.29658" lon="-1.78002">
        <ele>104.7</ele>
        <time>2019-07-16T09:20:02Z</time>
      </trkpt>
      <trkpt lat="48.2966" lon="-1.78004">
        <ele>104.9</ele>
        <time>2019-07-16T09:20:03Z</time>
      </trkpt>
      <trkpt lat="48.29664" lon="-1.78006">
        <ele>105.1</ele>
        <time>2019-07-16T09:20:04Z</time>
      </trkpt>
      <trkpt lat="48.29667" lon="-1.78008">
        <ele>105.3</ele>
        <time>2019-07-16T09:20:05Z</time>
      </trkpt>
      <trkpt lat="48.2967" lon="-1.78011">
        <ele>105.4</ele>
        <time>2019-07-16T09:20:06Z</time>
      </trkpt>
      <trkpt lat="48.29673" lon="-1.78014">
        <ele>105.4</ele>
        <time>2019-07-16T09:20:07Z</time>
      </trkpt>
      <trkpt lat="48.29677" lon="-1.78017">
        <ele>105.4</ele>
        <time>2019-07-16T09:20:08Z</time>
      </trkpt>
      <trkpt lat="48.29681" lon="-1.78021">
        <ele>105.2</ele>
        <time>2019-07-16T09:20:09Z</time>
      </trkpt>
      <trkpt lat="48.29685" lon="-1.78025">
        <ele>104.3</ele>
        <time>2019-07-16T09:20:10Z</time>
      </trkpt>
      <trkpt lat="48.29689" lon="-1.78029">
        <ele>103.8</ele>
        <time>2019-07-16T09:20:11Z</time>
      </trkpt>
      <trkpt lat="48.29693" lon="-1.78033">
        <ele>103.1</ele>
        <time>2019-07-16T09:20:12Z</time>
      </trkpt>
      <trkpt lat="48.29697" lon="-1.78038">
        <ele>102.6</ele>
        <time>2019-07-16T09:20:13Z</time>
      </trkpt>
      <trkpt lat="48.29701" lon="-1.78044">
        <ele>101.9</ele>
        <time>2019-07-16T09:20:14Z</time>
      </trkpt>
      <trkpt lat="48.29706" lon="-1.78049">
        <ele>101.4</ele>
        <time>2019-07-16T09:20:15Z</time>
      </trkpt>
      <trkpt lat="48.29711" lon="-1.78053">
        <ele>100.9</ele>
        <time>2019-07-16T09:20:16Z</time>
      </trkpt>
      <trkpt lat="48.29717" lon="-1.78057">
        <ele>100.1</ele>
        <time>2019-07-16T09:20:17Z</time>
      </trkpt>
      <trkpt lat="48.29723" lon="-1.78061">
        <ele>99.4</ele>
        <time>2019-07-16T09:20:18Z</time>
      </trkpt>
      <trkpt lat="48.2973" lon="-1.78064">
        <ele>98.9</ele>
        <time>2019-07-16T09:20:19Z</time>
      </trkpt>
      <trkpt lat="48.29737" lon="-1.78068">
        <ele>98.5</ele>
        <time>2019-07-16T09:20:20Z</time>
      </trkpt>
      <trkpt lat="48.29744" lon="-1.7807">
        <ele>97.4</ele>
        <time>2019-07-16T09:20:21Z</time>
      </trkpt>
      <trkpt lat="48.29751" lon="-1.78073">
        <ele>96.1</ele>
        <time>2019-07-16T09:20:22Z</time>
      </trkpt>
      <trkpt lat="48.29759" lon="-1.78074">
        <ele>94.7</ele>
        <time>2019-07-16T09:20:23Z</time>
      </trkpt>
      <trkpt lat="48.29766" lon="-1.78075">
        <ele>93.4</ele>
        <time>2019-07-16T09:20:24Z</time>
      </trkpt>
      <trkpt lat="48.29773" lon="-1.78076">
        <ele>92.6</ele>
        <time>2019-07-16T09:20:25Z</time>
      </trkpt>
      <trkpt lat="48.2978" lon="-1.78076">
        <ele>92.1</ele>
        <time>2019-07-16T09:20:26Z</time>
      </trkpt>
      <trkpt lat="48.29787" lon="-1.78074">
        <ele>91.1</ele>
        <time>2019-07-16T09:20:27Z</time>
      </trkpt>
      <trkpt lat="48.29795" lon="-1.78072">
        <ele>90.3</ele>
        <time>2019-07-16T09:20:28Z</time>
      </trkpt>
      <trkpt lat="48.29802" lon="-1.78071">
        <ele>89.4</ele>
        <time>2019-07-16T09:20:29Z</time>
      </trkpt>
      <trkpt lat="48.29809" lon="-1.78069">
        <ele>88.8</ele>
        <time>2019-07-16T09:20:30Z</time>
      </trkpt>
      <trkpt lat="48.29817" lon="-1.78065">
        <ele>87.9</ele>
        <time>2019-07-16T09:20:31Z</time>
      </trkpt>
      <trkpt lat="48.29825" lon="-1.7806">
        <ele>86.8</ele>
        <time>2019-07-16T09:20:32Z</time>
      </trkpt>
      <trkpt lat="48.29833" lon="-1.78056">
        <ele>85.8</ele>
        <time>2019-07-16T09:20:33Z</time>
      </trkpt>
      <trkpt lat="48.29841" lon="-1.78054">
        <ele>85</ele>
        <time>2019-07-16T09:20:34Z</time>
      </trkpt>
      <trkpt lat="48.29848" lon="-1.78052">
        <ele>84.2</ele>
        <time>2019-07-16T09:20:35Z</time>
      </trkpt>
      <trkpt lat="48.29856" lon="-1.78051">
        <ele>83.1</ele>
        <time>2019-07-16T09:20:36Z</time>
      </trkpt>
      <trkpt lat="48.29863" lon="-1.78051">
        <ele>82.3</ele>
        <time>2019-07-16T09:20:37Z</time>
      </trkpt>
      <trkpt lat="48.29872" lon="-1.78053">
        <ele>81.6</ele>
        <time>2019-07-16T09:20:38Z</time>
      </trkpt>
      <trkpt lat="48.2988" lon="-1.78055">
        <ele>80.6</ele>
        <time>2019-07-16T09:20:39Z</time>
      </trkpt>
      <trkpt lat="48.29888" lon="-1.78058">
        <ele>79.3</ele>
        <time>2019-07-16T09:20:40Z</time>
      </trkpt>
      <trkpt lat="48.29895" lon="-1.78062">
        <ele>78.2</ele>
        <time>2019-07-16T09:20:41Z</time>
      </trkpt>
      <trkpt lat="48.29903" lon="-1.78067">
        <ele>77.2</ele>
        <time>2019-07-16T09:20:42Z</time>
      </trkpt>
      <trkpt lat="48.2991" lon="-1.78071">
        <ele>76</ele>
        <time>2019-07-16T09:20:43Z</time>
      </trkpt>
      <trkpt lat="48.29916" lon="-1.78076">
        <ele>74.9</ele>
        <time>2019-07-16T09:20:44Z</time>
      </trkpt>
      <trkpt lat="48.29923" lon="-1.78081">
        <ele>74.1</ele>
        <time>2019-07-16T09:20:45Z</time>
      </trkpt>
      <trkpt lat="48.29928" lon="-1.78087">
        <ele>73.6</ele>
        <time>2019-07-16T09:20:46Z</time>
      </trkpt>
      <trkpt lat="48.29934" lon="-1.78092">
        <ele>73</ele>
        <time>2019-07-16T09:20:47Z</time>
      </trkpt>
      <trkpt lat="48.2994" lon="-1.78097">
        <ele>72.3</ele>
        <time>2019-07-16T09:20:48Z</time>
      </trkpt>
      <trkpt lat="48.29947" lon="-1.78103">
        <ele>71.5</ele>
        <time>2019-07-16T09:20:49Z</time>
      </trkpt>
      <trkpt lat="48.29953" lon="-1.7811">
        <ele>71</ele>
        <time>2019-07-16T09:20:50Z</time>
      </trkpt>
      <trkpt lat="48.2996" lon="-1.78116">
        <ele>70.2</ele>
        <time>2019-07-16T09:20:51Z</time>
      </trkpt>
      <trkpt lat="48.29967" lon="-1.78123">
        <ele>69.6</ele>
        <time>2019-07-16T09:20:52Z</time>
      </trkpt>
      <trkpt lat="48.29974" lon="-1.7813">
        <ele>68.9</ele>
        <time>2019-07-16T09:20:53Z</time>
      </trkpt>
      <trkpt lat="48.29981" lon="-1.78138">
        <ele>68.7</ele>
        <time>2019-07-16T09:20:54Z</time>
      </trkpt>
      <trkpt lat="48.2999" lon="-1.78148">
        <ele>68.8</ele>
        <time>2019-07-16T09:20:55Z</time>
      </trkpt>
      <trkpt lat="48.29997" lon="-1.78156">
        <ele>67.4</ele>
        <time>2019-07-16T09:20:56Z</time>
      </trkpt>
      <trkpt lat="48.30006" lon="-1.78164">
        <ele>66.6</ele>
        <time>2019-07-16T09:20:57Z</time>
      </trkpt>
      <trkpt lat="48.30013" lon="-1.78173">
        <ele>65.4</ele>
        <time>2019-07-16T09:20:58Z</time>
      </trkpt>
      <trkpt lat="48.30021" lon="-1.78183">
        <ele>65.7</ele>
        <time>2019-07-16T09:20:59Z</time>
      </trkpt>
      <trkpt lat="48.30028" lon="-1.78191">
        <ele>65.7</ele>
        <time>2019-07-16T09:21:00Z</time>
      </trkpt>
      <trkpt lat="48.30037" lon="-1.78198">
        <ele>63.5</ele>
        <time>2019-07-16T09:21:01Z</time>
      </trkpt>
      <trkpt lat="48.30044" lon="-1.78206">
        <ele>63.8</ele>
        <time>2019-07-16T09:21:02Z</time>
      </trkpt>
      <trkpt lat="48.30051" lon="-1.78214">
        <ele>62.6</ele>
        <time>2019-07-16T09:21:03Z</time>
      </trkpt>
      <trkpt lat="48.30058" lon="-1.78221">
        <ele>61.2</ele>
        <time>2019-07-16T09:21:04Z</time>
      </trkpt>
      <trkpt lat="48.30065" lon="-1.78228">
        <ele>59.8</ele>
        <time>2019-07-16T09:21:05Z</time>
      </trkpt>
      <trkpt lat="48.30072" lon="-1.78236">
        <ele>59.2</ele>
        <time>2019-07-16T09:21:06Z</time>
      </trkpt>
      <trkpt lat="48.30079" lon="-1.78243">
        <ele>58.7</ele>
        <time>2019-07-16T09:21:07Z</time>
      </trkpt>
      <trkpt lat="48.30086" lon="-1.78251">
        <ele>58.8</ele>
        <time>2019-07-16T09:21:08Z</time>
      </trkpt>
      <trkpt lat="48.30092" lon="-1.78259">
        <ele>58.5</ele>
        <time>2019-07-16T09:21:09Z</time>
      </trkpt>
      <trkpt lat="48.30097" lon="-1.78268">
        <ele>58.8</ele>
        <time>2019-07-16T09:21:10Z</time>
      </trkpt>
      <trkpt lat="48.30101" lon="-1.78276">
        <ele>58.9</ele>
        <time>2019-07-16T09:21:11Z</time>
      </trkpt>
      <trkpt lat="48.30105" lon="-1.78285">
        <ele>58.7</ele>
        <time>2019-07-16T09:21:12Z</time>
      </trkpt>
      <trkpt lat="48.30109" lon="-1.78293">
        <ele>58.6</ele>
        <time>2019-07-16T09:21:13Z</time>
      </trkpt>
      <trkpt lat="48.30112" lon="-1.78301">
        <ele>58.6</ele>
        <time>2019-07-16T09:21:14Z</time>
      </trkpt>
      <trkpt lat="48.30114" lon="-1.78309">
        <ele>58.4</ele>
        <time>2019-07-16T09:21:15Z</time>
      </trkpt>
      <trkpt lat="48.30117" lon="-1.78317">
        <ele>58.3</ele>
        <time>2019-07-16T09:21:16Z</time>
      </trkpt>
      <trkpt lat="48.30119" lon="-1.78326">
        <ele>58.3</ele>
        <time>2019-07-16T09:21:17Z</time>
      </trkpt>
      <trkpt lat="48.30121" lon="-1.78333">
        <ele>58.3</ele>
        <time>2019-07-16T09:21:18Z</time>
      </trkpt>
      <trkpt lat="48.30123" lon="-1.78341">
        <ele>58.5</ele>
        <time>2019-07-16T09:21:19Z</time>
      </trkpt>
      <trkpt lat="48.30125" lon="-1.78349">
        <ele>58.5</ele>
        <time>2019-07-16T09:21:20Z</time>
      </trkpt>
      <trkpt lat="48.30127" lon="-1.78355">
        <ele>58.7</ele>
        <time>2019-07-16T09:21:21Z</time>
      </trkpt>
      <trkpt lat="48.30129" lon="-1.78362">
        <ele>58.8</ele>
        <time>2019-07-16T09:21:22Z</time>
      </trkpt>
      <trkpt lat="48.30131" lon="-1.78369">
        <ele>58.8</ele>
        <time>2019-07-16T09:21:23Z</time>
      </trkpt>
      <trkpt lat="48.30133" lon="-1.78374">
        <ele>58.9</ele>
        <time>2019-07-16T09:21:24Z</time>
      </trkpt>
      <trkpt lat="48.30135" lon="-1.78381">
        <ele>59.3</ele>
        <time>2019-07-16T09:21:25Z</time>
      </trkpt>
      <trkpt lat="48.30136" lon="-1.78387">
        <ele>59.4</ele>
        <time>2019-07-16T09:21:26Z</time>
      </trkpt>
      <trkpt lat="48.30138" lon="-1.78394">
        <ele>59.5</ele>
        <time>2019-07-16T09:21:27Z</time>
      </trkpt>
      <trkpt lat="48.3014" lon="-1.78401">
        <ele>59.7</ele>
        <time>2019-07-16T09:21:28Z</time>
      </trkpt>
      <trkpt lat="48.30142" lon="-1.78408">
        <ele>59.7</ele>
        <time>2019-07-16T09:21:29Z</time>
      </trkpt>
      <trkpt lat="48.30145" lon="-1.78417">
        <ele>60</ele>
        <time>2019-07-16T09:21:30Z</time>
      </trkpt>
      <trkpt lat="48.30147" lon="-1.78425">
        <ele>60.6</ele>
        <time>2019-07-16T09:21:31Z</time>
      </trkpt>
      <trkpt lat="48.30148" lon="-1.78433">
        <ele>61</ele>
        <time>2019-07-16T09:21:32Z</time>
      </trkpt>
      <trkpt lat="48.3015" lon="-1.78441">
        <ele>61.5</ele>
        <time>2019-07-16T09:21:33Z</time>
      </trkpt>
      <trkpt lat="48.30151" lon="-1.78449">
        <ele>61.9</ele>
        <time>2019-07-16T09:21:34Z</time>
      </trkpt>
      <trkpt lat="48.30154" lon="-1.78457">
        <ele>61.4</ele>
        <time>2019-07-16T09:21:35Z</time>
      </trkpt>
      <trkpt lat="48.30156" lon="-1.78465">
        <ele>61.4</ele>
        <time>2019-07-16T09:21:36Z</time>
      </trkpt>
      <trkpt lat="48.30159" lon="-1.78473">
        <ele>61.6</ele>
        <time>2019-07-16T09:21:37Z</time>
      </trkpt>
      <trkpt lat="48.30161" lon="-1.7848">
        <ele>62</ele>
        <time>2019-07-16T09:21:38Z</time>
      </trkpt>
      <trkpt lat="48.30163" lon="-1.78488">
        <ele>62.5</ele>
        <time>2019-07-16T09:21:39Z</time>
      </trkpt>
      <trkpt lat="48.30166" lon="-1.78496">
        <ele>63</ele>
        <time>2019-07-16T09:21:40Z</time>
      </trkpt>
      <trkpt lat="48.30168" lon="-1.78504">
        <ele>63.3</ele>
        <time>2019-07-16T09:21:41Z</time>
      </trkpt>
      <trkpt lat="48.30171" lon="-1.78511">
        <ele>63.8</ele>
        <time>2019-07-16T09:21:42Z</time>
      </trkpt>
      <trkpt lat="48.30174" lon="-1.78516">
        <ele>64.3</ele>
        <time>2019-07-16T09:21:43Z</time>
      </trkpt>
      <trkpt lat="48.30176" lon="-1.78522">
        <ele>64.7</ele>
        <time>2019-07-16T09:21:44Z</time>
      </trkpt>
      <trkpt lat="48.30179" lon="-1.78528">
        <ele>65.1</ele>
        <time>2019-07-16T09:21:45Z</time>
      </trkpt>
      <trkpt lat="48.30182" lon="-1.78534">
        <ele>65.6</ele>
        <time>2019-07-16T09:21:46Z</time>
      </trkpt>
      <trkpt lat="48.30185" lon="-1.78541">
        <ele>66</ele>
        <time>2019-07-16T09:21:47Z</time>
      </trkpt>
      <trkpt lat="48.30188" lon="-1.78547">
        <ele>66.1</ele>
        <time>2019-07-16T09:21:48Z</time>
      </trkpt>
      <trkpt lat="48.30191" lon="-1.78554">
        <ele>66.2</ele>
        <time>2019-07-16T09:21:49Z</time>
      </trkpt>
      <trkpt lat="48.30194" lon="-1.78561">
        <ele>66.5</ele>
        <time>2019-07-16T09:21:50Z</time>
      </trkpt>
      <trkpt lat="48.30198" lon="-1.78569">
        <ele>66.6</ele>
        <time>2019-07-16T09:21:51Z</time>
      </trkpt>
      <trkpt lat="48.302" lon="-1.78576">
        <ele>67.1</ele>
        <time>2019-07-16T09:21:52Z</time>
      </trkpt>
      <trkpt lat="48.30202" lon="-1.78583">
        <ele>67.6</ele>
        <time>2019-07-16T09:21:53Z</time>
      </trkpt>
      <trkpt lat="48.30204" lon="-1.78591">
        <ele>68.3</ele>
        <time>2019-07-16T09:21:54Z</time>
      </trkpt>
      <trkpt lat="48.30206" lon="-1.78599">
        <ele>68.8</ele>
        <time>2019-07-16T09:21:55Z</time>
      </trkpt>
      <trkpt lat="48.30208" lon="-1.78606">
        <ele>69.3</ele>
        <time>2019-07-16T09:21:56Z</time>
      </trkpt>
      <trkpt lat="48.3021" lon="-1.78615">
        <ele>69.7</ele>
        <time>2019-07-16T09:21:57Z</time>
      </trkpt>
      <trkpt lat="48.30213" lon="-1.78623">
        <ele>70.4</ele>
        <time>2019-07-16T09:21:58Z</time>
      </trkpt>
      <trkpt lat="48.30216" lon="-1.7863">
        <ele>71</ele>
        <time>2019-07-16T09:21:59Z</time>
      </trkpt>
      <trkpt lat="48.30217" lon="-1.78636">
        <ele>71.4</ele>
        <time>2019-07-16T09:22:00Z</time>
      </trkpt>
      <trkpt lat="48.30219" lon="-1.78644">
        <ele>71.8</ele>
        <time>2019-07-16T09:22:01Z</time>
      </trkpt>
      <trkpt lat="48.30221" lon="-1.78651">
        <ele>72.2</ele>
        <time>2019-07-16T09:22:02Z</time>
      </trkpt>
      <trkpt lat="48.30224" lon="-1.78658">
        <ele>72.6</ele>
        <time>2019-07-16T09:22:03Z</time>
      </trkpt>
      <trkpt lat="48.30227" lon="-1.78666">
        <ele>72.6</ele>
        <time>2019-07-16T09:22:04Z</time>
      </trkpt>
      <trkpt lat="48.30228" lon="-1.78673">
        <ele>72.7</ele>
        <time>2019-07-16T09:22:05Z</time>
      </trkpt>
      <trkpt lat="48.3023" lon="-1.78681">
        <ele>72.7</ele>
        <time>2019-07-16T09:22:06Z</time>
      </trkpt>
      <trkpt lat="48.30232" lon="-1.78689">
        <ele>73</ele>
        <time>2019-07-16T09:22:07Z</time>
      </trkpt>
      <trkpt lat="48.30237" lon="-1.78697">
        <ele>73.3</ele>
        <time>2019-07-16T09:22:08Z</time>
      </trkpt>
      <trkpt lat="48.30241" lon="-1.78703">
        <ele>73.4</ele>
        <time>2019-07-16T09:22:09Z</time>
      </trkpt>
      <trkpt lat="48.30246" lon="-1.78707">
        <ele>73.3</ele>
        <time>2019-07-16T09:22:10Z</time>
      </trkpt>
      <trkpt lat="48.3025" lon="-1.78708">
        <ele>72.8</ele>
        <time>2019-07-16T09:22:11Z</time>
      </trkpt>
      <trkpt lat="48.30254" lon="-1.7871">
        <ele>72.3</ele>
        <time>2019-07-16T09:22:12Z</time>
      </trkpt>
      <trkpt lat="48.30259" lon="-1.78712">
        <ele>71.8</ele>
        <time>2019-07-16T09:22:13Z</time>
      </trkpt>
      <trkpt lat="48.30264" lon="-1.78713">
        <ele>71.1</ele>
        <time>2019-07-16T09:22:14Z</time>
      </trkpt>
      <trkpt lat="48.30267" lon="-1.78712">
        <ele>69.7</ele>
        <time>2019-07-16T09:22:15Z</time>
      </trkpt>
      <trkpt lat="48.30269" lon="-1.7871">
        <ele>68.4</ele>
        <time>2019-07-16T09:22:16Z</time>
      </trkpt>
      <trkpt lat="48.30273" lon="-1.78706">
        <ele>66.3</ele>
        <time>2019-07-16T09:22:17Z</time>
      </trkpt>
      <trkpt lat="48.30275" lon="-1.78702">
        <ele>64.9</ele>
        <time>2019-07-16T09:22:18Z</time>
      </trkpt>
      <trkpt lat="48.30275" lon="-1.78699">
        <ele>64.3</ele>
        <time>2019-07-16T09:22:19Z</time>
      </trkpt>
      <trkpt lat="48.30275" lon="-1.78696">
        <ele>63.7</ele>
        <time>2019-07-16T09:22:20Z</time>
      </trkpt>
      <trkpt lat="48.30275" lon="-1.78693">
        <ele>63</ele>
        <time>2019-07-16T09:22:21Z</time>
      </trkpt>
      <trkpt lat="48.30274" lon="-1.7869">
        <ele>62.1</ele>
        <time>2019-07-16T09:22:22Z</time>
      </trkpt>
      <trkpt lat="48.30273" lon="-1.78688">
        <ele>61.8</ele>
        <time>2019-07-16T09:22:23Z</time>
      </trkpt>
      <trkpt lat="48.30272" lon="-1.78685">
        <ele>61.2</ele>
        <time>2019-07-16T09:22:24Z</time>
      </trkpt>
      <trkpt lat="48.3027" lon="-1.78681">
        <ele>60.6</ele>
        <time>2019-07-16T09:22:25Z</time>
      </trkpt>
      <trkpt lat="48.30269" lon="-1.78678">
        <ele>60.4</ele>
        <time>2019-07-16T09:22:26Z</time>
      </trkpt>
      <trkpt lat="48.30268" lon="-1.78674">
        <ele>60.6</ele>
        <time>2019-07-16T09:22:27Z</time>
      </trkpt>
      <trkpt lat="48.30267" lon="-1.78671">
        <ele>60.4</ele>
        <time>2019-07-16T09:22:28Z</time>
      </trkpt>
      <trkpt lat="48.30266" lon="-1.78668">
        <ele>60.3</ele>
        <time>2019-07-16T09:22:29Z</time>
      </trkpt>
      <trkpt lat="48.30264" lon="-1.78664">
        <ele>60.3</ele>
        <time>2019-07-16T09:22:30Z</time>
      </trkpt>
      <trkpt lat="48.30263" lon="-1.78661">
        <ele>60.4</ele>
        <time>2019-07-16T09:22:31Z</time>
      </trkpt>
      <trkpt lat="48.30261" lon="-1.78658">
        <ele>60.4</ele>
        <time>2019-07-16T09:22:32Z</time>
      </trkpt>
      <trkpt lat="48.30259" lon="-1.78655">
        <ele>60.6</ele>
        <time>2019-07-16T09:22:33Z</time>
      </trkpt>
      <trkpt lat="48.30258" lon="-1.78652">
        <ele>60.7</ele>
        <time>2019-07-16T09:22:34Z</time>
      </trkpt>
      <trkpt lat="48.30257" lon="-1.78648">
        <ele>60.8</ele>
        <time>2019-07-16T09:22:35Z</time>
      </trkpt>
      <trkpt lat="48.30255" lon="-1.78644">
        <ele>61.2</ele>
        <time>2019-07-16T09:22:36Z</time>
      </trkpt>
      <trkpt lat="48.30254" lon="-1.78639">
        <ele>61.6</ele>
        <time>2019-07-16T09:22:37Z</time>
      </trkpt>
      <trkpt lat="48.30253" lon="-1.78635">
        <ele>61.9</ele>
        <time>2019-07-16T09:22:38Z</time>
      </trkpt>
      <trkpt lat="48.30251" lon="-1.78631">
        <ele>62.2</ele>
        <time>2019-07-16T09:22:39Z</time>
      </trkpt>
      <trkpt lat="48.30251" lon="-1.78627">
        <ele>62.6</ele>
        <time>2019-07-16T09:22:40Z</time>
      </trkpt>
      <trkpt lat="48.3025" lon="-1.78623">
        <ele>62.4</ele>
        <time>2019-07-16T09:22:41Z</time>
      </trkpt>
      <trkpt lat="48.30249" lon="-1.78619">
        <ele>62.9</ele>
        <time>2019-07-16T09:22:42Z</time>
      </trkpt>
      <trkpt lat="48.30248" lon="-1.78615">
        <ele>63.1</ele>
        <time>2019-07-16T09:22:43Z</time>
      </trkpt>
      <trkpt lat="48.30248" lon="-1.7861">
        <ele>63.4</ele>
        <time>2019-07-16T09:22:44Z</time>
      </trkpt>
      <trkpt lat="48.30247" lon="-1.78606">
        <ele>63.7</ele>
        <time>2019-07-16T09:22:45Z</time>
      </trkpt>
      <trkpt lat="48.30246" lon="-1.78602">
        <ele>63.8</ele>
        <time>2019-07-16T09:22:46Z</time>
      </trkpt>
      <trkpt lat="48.30244" lon="-1.78598">
        <ele>64</ele>
        <time>2019-07-16T09:22:47Z</time>
      </trkpt>
      <trkpt lat="48.30244" lon="-1.78595">
        <ele>64</ele>
        <time>2019-07-16T09:22:48Z</time>
      </trkpt>
      <trkpt lat="48.30243" lon="-1.7859">
        <ele>63.9</ele>
        <time>2019-07-16T09:22:49Z</time>
      </trkpt>
      <trkpt lat="48.30242" lon="-1.78586">
        <ele>64.1</ele>
        <time>2019-07-16T09:22:50Z</time>
      </trkpt>
      <trkpt lat="48.30241" lon="-1.78583">
        <ele>63.9</ele>
        <time>2019-07-16T09:22:51Z</time>
      </trkpt>
      <trkpt lat="48.30239" lon="-1.7858">
        <ele>64</ele>
        <time>2019-07-16T09:22:52Z</time>
      </trkpt>
      <trkpt lat="48.30238" lon="-1.78576">
        <ele>64.2</ele>
        <time>2019-07-16T09:22:53Z</time>
      </trkpt>
      <trkpt lat="48.30236" lon="-1.78573">
        <ele>64.2</ele>
        <time>2019-07-16T09:22:54Z</time>
      </trkpt>
      <trkpt lat="48.30235" lon="-1.78569">
        <ele>64.2</ele>
        <time>2019-07-16T09:22:55Z</time>
      </trkpt>
      <trkpt lat="48.30234" lon="-1.78565">
        <ele>63.9</ele>
        <time>2019-07-16T09:22:56Z</time>
      </trkpt>
      <trkpt lat="48.30232" lon="-1.78562">
        <ele>63.9</ele>
        <time>2019-07-16T09:22:57Z</time>
      </trkpt>
      <trkpt lat="48.3023" lon="-1.78558">
        <ele>63.8</ele>
        <time>2019-07-16T09:22:58Z</time>
      </trkpt>
      <trkpt lat="48.30228" lon="-1.78554">
        <ele>63.8</ele>
        <time>2019-07-16T09:22:59Z</time>
      </trkpt>
      <trkpt lat="48.30227" lon="-1.7855">
        <ele>63.7</ele>
        <time>2019-07-16T09:23:00Z</time>
      </trkpt>
      <trkpt lat="48.30225" lon="-1.78545">
        <ele>63.8</ele>
        <time>2019-07-16T09:23:01Z</time>
      </trkpt>
      <trkpt lat="48.30223" lon="-1.78541">
        <ele>63.6</ele>
        <time>2019-07-16T09:23:02Z</time>
      </trkpt>
      <trkpt lat="48.30221" lon="-1.78536">
        <ele>63.6</ele>
        <time>2019-07-16T09:23:03Z</time>
      </trkpt>
      <trkpt lat="48.30219" lon="-1.78532">
        <ele>63.4</ele>
        <time>2019-07-16T09:23:04Z</time>
      </trkpt>
      <trkpt lat="48.30218" lon="-1.78528">
        <ele>63.3</ele>
        <time>2019-07-16T09:23:05Z</time>
      </trkpt>
      <trkpt lat="48.30217" lon="-1.78524">
        <ele>63.5</ele>
        <time>2019-07-16T09:23:06Z</time>
      </trkpt>
      <trkpt lat="48.30216" lon="-1.7852">
        <ele>63.2</ele>
        <time>2019-07-16T09:23:07Z</time>
      </trkpt>
      <trkpt lat="48.30214" lon="-1.78517">
        <ele>63</ele>
        <time>2019-07-16T09:23:08Z</time>
      </trkpt>
      <trkpt lat="48.30212" lon="-1.78513">
        <ele>62.4</ele>
        <time>2019-07-16T09:23:09Z</time>
      </trkpt>
      <trkpt lat="48.30212" lon="-1.78509">
        <ele>62.4</ele>
        <time>2019-07-16T09:23:10Z</time>
      </trkpt>
      <trkpt lat="48.3021" lon="-1.78505">
        <ele>62.3</ele>
        <time>2019-07-16T09:23:11Z</time>
      </trkpt>
      <trkpt lat="48.30209" lon="-1.78501">
        <ele>61.9</ele>
        <time>2019-07-16T09:23:12Z</time>
      </trkpt>
      <trkpt lat="48.30207" lon="-1.78497">
        <ele>61.9</ele>
        <time>2019-07-16T09:23:13Z</time>
      </trkpt>
      <trkpt lat="48.30206" lon="-1.78493">
        <ele>62.3</ele>
        <time>2019-07-16T09:23:14Z</time>
      </trkpt>
      <trkpt lat="48.30204" lon="-1.78489">
        <ele>62.3</ele>
        <time>2019-07-16T09:23:15Z</time>
      </trkpt>
      <trkpt lat="48.30203" lon="-1.78485">
        <ele>62.3</ele>
        <time>2019-07-16T09:23:16Z</time>
      </trkpt>
      <trkpt lat="48.30201" lon="-1.78482">
        <ele>62.5</ele>
        <time>2019-07-16T09:23:17Z</time>
      </trkpt>
      <trkpt lat="48.302" lon="-1.78478">
        <ele>62.6</ele>
        <time>2019-07-16T09:23:18Z</time>
      </trkpt>
      <trkpt lat="48.30198" lon="-1.78474">
        <ele>62.8</ele>
        <time>2019-07-16T09:23:19Z</time>
      </trkpt>
      <trkpt lat="48.30197" lon="-1.78469">
        <ele>62.5</ele>
        <time>2019-07-16T09:23:20Z</time>
      </trkpt>
      <trkpt lat="48.30196" lon="-1.78465">
        <ele>62.6</ele>
        <time>2019-07-16T09:23:21Z</time>
      </trkpt>
      <trkpt lat="48.30194" lon="-1.7846">
        <ele>62.5</ele>
        <time>2019-07-16T09:23:22Z</time>
      </trkpt>
      <trkpt lat="48.30192" lon="-1.78455">
        <ele>62.9</ele>
        <time>2019-07-16T09:23:23Z</time>
      </trkpt>
      <trkpt lat="48.3019" lon="-1.78451">
        <ele>62.9</ele>
        <time>2019-07-16T09:23:24Z</time>
      </trkpt>
      <trkpt lat="48.30188" lon="-1.78446">
        <ele>63.1</ele>
        <time>2019-07-16T09:23:25Z</time>
      </trkpt>
      <trkpt lat="48.30187" lon="-1.78441">
        <ele>63.7</ele>
        <time>2019-07-16T09:23:26Z</time>
      </trkpt>
      <trkpt lat="48.30185" lon="-1.78436">
        <ele>64.1</ele>
        <time>2019-07-16T09:23:27Z</time>
      </trkpt>
      <trkpt lat="48.30183" lon="-1.7843">
        <ele>63.9</ele>
        <time>2019-07-16T09:23:28Z</time>
      </trkpt>
      <trkpt lat="48.30181" lon="-1.78425">
        <ele>64.1</ele>
        <time>2019-07-16T09:23:29Z</time>
      </trkpt>
      <trkpt lat="48.3018" lon="-1.78421">
        <ele>64.3</ele>
        <time>2019-07-16T09:23:30Z</time>
      </trkpt>
      <trkpt lat="48.30178" lon="-1.78416">
        <ele>63.7</ele>
        <time>2019-07-16T09:23:31Z</time>
      </trkpt>
      <trkpt lat="48.30176" lon="-1.78411">
        <ele>63.5</ele>
        <time>2019-07-16T09:23:32Z</time>
      </trkpt>
      <trkpt lat="48.30174" lon="-1.78407">
        <ele>63.3</ele>
        <time>2019-07-16T09:23:33Z</time>
      </trkpt>
      <trkpt lat="48.30173" lon="-1.78402">
        <ele>63.4</ele>
        <time>2019-07-16T09:23:34Z</time>
      </trkpt>
      <trkpt lat="48.30172" lon="-1.78398">
        <ele>63.5</ele>
        <time>2019-07-16T09:23:35Z</time>
      </trkpt>
      <trkpt lat="48.3017" lon="-1.78393">
        <ele>64</ele>
        <time>2019-07-16T09:23:36Z</time>
      </trkpt>
      <trkpt lat="48.30169" lon="-1.78389">
        <ele>64.2</ele>
        <time>2019-07-16T09:23:37Z</time>
      </trkpt>
      <trkpt lat="48.30168" lon="-1.78385">
        <ele>64.6</ele>
        <time>2019-07-16T09:23:38Z</time>
      </trkpt>
      <trkpt lat="48.30167" lon="-1.78381">
        <ele>64.7</ele>
        <time>2019-07-16T09:23:39Z</time>
      </trkpt>
      <trkpt lat="48.30166" lon="-1.78377">
        <ele>64.7</ele>
        <time>2019-07-16T09:23:40Z</time>
      </trkpt>
      <trkpt lat="48.30165" lon="-1.78373">
        <ele>64.9</ele>
        <time>2019-07-16T09:23:41Z</time>
      </trkpt>
      <trkpt lat="48.30164" lon="-1.78369">
        <ele>64.9</ele>
        <time>2019-07-16T09:23:42Z</time>
      </trkpt>
      <trkpt lat="48.30163" lon="-1.78365">
        <ele>65.1</ele>
        <time>2019-07-16T09:23:43Z</time>
      </trkpt>
      <trkpt lat="48.30162" lon="-1.78361">
        <ele>65.4</ele>
        <time>2019-07-16T09:23:44Z</time>
      </trkpt>
      <trkpt lat="48.3016" lon="-1.78357">
        <ele>65.9</ele>
        <time>2019-07-16T09:23:45Z</time>
      </trkpt>
      <trkpt lat="48.30158" lon="-1.78354">
        <ele>66.4</ele>
        <time>2019-07-16T09:23:46Z</time>
      </trkpt>
      <trkpt lat="48.30157" lon="-1.78351">
        <ele>66.9</ele>
        <time>2019-07-16T09:23:47Z</time>
      </trkpt>
      <trkpt lat="48.30156" lon="-1.78347">
        <ele>67.3</ele>
        <time>2019-07-16T09:23:48Z</time>
      </trkpt>
      <trkpt lat="48.30155" lon="-1.78343">
        <ele>67.6</ele>
        <time>2019-07-16T09:23:49Z</time>
      </trkpt>
      <trkpt lat="48.30154" lon="-1.7834">
        <ele>67.9</ele>
        <time>2019-07-16T09:23:50Z</time>
      </trkpt>
      <trkpt lat="48.30153" lon="-1.78337">
        <ele>68.2</ele>
        <time>2019-07-16T09:23:51Z</time>
      </trkpt>
      <trkpt lat="48.30151" lon="-1.78333">
        <ele>68.4</ele>
        <time>2019-07-16T09:23:52Z</time>
      </trkpt>
      <trkpt lat="48.3015" lon="-1.78328">
        <ele>68.5</ele>
        <time>2019-07-16T09:23:53Z</time>
      </trkpt>
      <trkpt lat="48.30149" lon="-1.78323">
        <ele>69</ele>
        <time>2019-07-16T09:23:54Z</time>
      </trkpt>
      <trkpt lat="48.30148" lon="-1.78317">
        <ele>69.2</ele>
        <time>2019-07-16T09:23:55Z</time>
      </trkpt>
      <trkpt lat="48.30146" lon="-1.78313">
        <ele>69.8</ele>
        <time>2019-07-16T09:23:56Z</time>
      </trkpt>
      <trkpt lat="48.30146" lon="-1.78308">
        <ele>70.1</ele>
        <time>2019-07-16T09:23:57Z</time>
      </trkpt>
      <trkpt lat="48.30145" lon="-1.78305">
        <ele>70.2</ele>
        <time>2019-07-16T09:23:58Z</time>
      </trkpt>
      <trkpt lat="48.30143" lon="-1.78301">
        <ele>70.1</ele>
        <time>2019-07-16T09:23:59Z</time>
      </trkpt>
      <trkpt lat="48.30141" lon="-1.78296">
        <ele>69.9</ele>
        <time>2019-07-16T09:24:00Z</time>
      </trkpt>
      <trkpt lat="48.3014" lon="-1.78293">
        <ele>70.2</ele>
        <time>2019-07-16T09:24:01Z</time>
      </trkpt>
      <trkpt lat="48.30139" lon="-1.7829">
        <ele>70.6</ele>
        <time>2019-07-16T09:24:02Z</time>
      </trkpt>
      <trkpt lat="48.30137" lon="-1.78286">
        <ele>70.7</ele>
        <time>2019-07-16T09:24:03Z</time>
      </trkpt>
      <trkpt lat="48.30136" lon="-1.78281">
        <ele>70.9</ele>
        <time>2019-07-16T09:24:04Z</time>
      </trkpt>
      <trkpt lat="48.30135" lon="-1.78277">
        <ele>71.2</ele>
        <time>2019-07-16T09:24:05Z</time>
      </trkpt>
      <trkpt lat="48.30134" lon="-1.78273">
        <ele>71.3</ele>
        <time>2019-07-16T09:24:06Z</time>
      </trkpt>
      <trkpt lat="48.30133" lon="-1.78269">
        <ele>71.3</ele>
        <time>2019-07-16T09:24:07Z</time>
      </trkpt>
      <trkpt lat="48.30131" lon="-1.78265">
        <ele>72</ele>
        <time>2019-07-16T09:24:08Z</time>
      </trkpt>
      <trkpt lat="48.30129" lon="-1.78262">
        <ele>74.2</ele>
        <time>2019-07-16T09:24:09Z</time>
      </trkpt>
      <trkpt lat="48.30127" lon="-1.78256">
        <ele>74.8</ele>
        <time>2019-07-16T09:24:10Z</time>
      </trkpt>
      <trkpt lat="48.30126" lon="-1.78252">
        <ele>75.3</ele>
        <time>2019-07-16T09:24:11Z</time>
      </trkpt>
      <trkpt lat="48.30125" lon="-1.78247">
        <ele>75.6</ele>
        <time>2019-07-16T09:24:12Z</time>
      </trkpt>
      <trkpt lat="48.30123" lon="-1.78242">
        <ele>75.8</ele>
        <time>2019-07-16T09:24:13Z</time>
      </trkpt>
      <trkpt lat="48.30121" lon="-1.78238">
        <ele>76</ele>
        <time>2019-07-16T09:24:14Z</time>
      </trkpt>
      <trkpt lat="48.30119" lon="-1.78233">
        <ele>76.1</ele>
        <time>2019-07-16T09:24:15Z</time>
      </trkpt>
      <trkpt lat="48.30118" lon="-1.78229">
        <ele>76.1</ele>
        <time>2019-07-16T09:24:16Z</time>
      </trkpt>
      <trkpt lat="48.30116" lon="-1.78223">
        <ele>75.7</ele>
        <time>2019-07-16T09:24:17Z</time>
      </trkpt>
      <trkpt lat="48.30114" lon="-1.78219">
        <ele>75.6</ele>
        <time>2019-07-16T09:24:18Z</time>
      </trkpt>
      <trkpt lat="48.30112" lon="-1.78215">
        <ele>75.2</ele>
        <time>2019-07-16T09:24:19Z</time>
      </trkpt>
      <trkpt lat="48.30109" lon="-1.7821">
        <ele>74.9</ele>
        <time>2019-07-16T09:24:20Z</time>
      </trkpt>
      <trkpt lat="48.30108" lon="-1.78206">
        <ele>74.5</ele>
        <time>2019-07-16T09:24:21Z</time>
      </trkpt>
      <trkpt lat="48.30106" lon="-1.78202">
        <ele>74.1</ele>
        <time>2019-07-16T09:24:22Z</time>
      </trkpt>
      <trkpt lat="48.30105" lon="-1.78197">
        <ele>73.8</ele>
        <time>2019-07-16T09:24:23Z</time>
      </trkpt>
      <trkpt lat="48.30103" lon="-1.78193">
        <ele>73.5</ele>
        <time>2019-07-16T09:24:24Z</time>
      </trkpt>
      <trkpt lat="48.30101" lon="-1.78189">
        <ele>72.9</ele>
        <time>2019-07-16T09:24:25Z</time>
      </trkpt>
      <trkpt lat="48.301" lon="-1.78185">
        <ele>72.5</ele>
        <time>2019-07-16T09:24:26Z</time>
      </trkpt>
      <trkpt lat="48.30097" lon="-1.7818">
        <ele>72.1</ele>
        <time>2019-07-16T09:24:27Z</time>
      </trkpt>
      <trkpt lat="48.30096" lon="-1.78176">
        <ele>71.8</ele>
        <time>2019-07-16T09:24:28Z</time>
      </trkpt>
      <trkpt lat="48.30094" lon="-1.78172">
        <ele>71.2</ele>
        <time>2019-07-16T09:24:29Z</time>
      </trkpt>
      <trkpt lat="48.30093" lon="-1.78168">
        <ele>71.2</ele>
        <time>2019-07-16T09:24:30Z</time>
      </trkpt>
      <trkpt lat="48.30092" lon="-1.78163">
        <ele>71</ele>
        <time>2019-07-16T09:24:31Z</time>
      </trkpt>
      <trkpt lat="48.30091" lon="-1.7816">
        <ele>70.7</ele>
        <time>2019-07-16T09:24:32Z</time>
      </trkpt>
      <trkpt lat="48.3009" lon="-1.78156">
        <ele>70.6</ele>
        <time>2019-07-16T09:24:33Z</time>
      </trkpt>
      <trkpt lat="48.30089" lon="-1.78152">
        <ele>69.9</ele>
        <time>2019-07-16T09:24:34Z</time>
      </trkpt>
      <trkpt lat="48.30088" lon="-1.78148">
        <ele>69.6</ele>
        <time>2019-07-16T09:24:35Z</time>
      </trkpt>
      <trkpt lat="48.30087" lon="-1.78144">
        <ele>69.1</ele>
        <time>2019-07-16T09:24:36Z</time>
      </trkpt>
      <trkpt lat="48.30085" lon="-1.78141">
        <ele>68.6</ele>
        <time>2019-07-16T09:24:37Z</time>
      </trkpt>
      <trkpt lat="48.30084" lon="-1.78138">
        <ele>67.9</ele>
        <time>2019-07-16T09:24:38Z</time>
      </trkpt>
      <trkpt lat="48.30082" lon="-1.78134">
        <ele>68</ele>
        <time>2019-07-16T09:24:39Z</time>
      </trkpt>
      <trkpt lat="48.30082" lon="-1.7813">
        <ele>67.6</ele>
        <time>2019-07-16T09:24:40Z</time>
      </trkpt>
      <trkpt lat="48.3008" lon="-1.78126">
        <ele>67.4</ele>
        <time>2019-07-16T09:24:41Z</time>
      </trkpt>
      <trkpt lat="48.30079" lon="-1.78123">
        <ele>67.1</ele>
        <time>2019-07-16T09:24:42Z</time>
      </trkpt>
      <trkpt lat="48.30078" lon="-1.78119">
        <ele>67</ele>
        <time>2019-07-16T09:24:43Z</time>
      </trkpt>
      <trkpt lat="48.30076" lon="-1.78115">
        <ele>66.7</ele>
        <time>2019-07-16T09:24:44Z</time>
      </trkpt>
      <trkpt lat="48.30076" lon="-1.78112">
        <ele>66.3</ele>
        <time>2019-07-16T09:24:45Z</time>
      </trkpt>
      <trkpt lat="48.30074" lon="-1.78108">
        <ele>65.4</ele>
        <time>2019-07-16T09:24:46Z</time>
      </trkpt>
      <trkpt lat="48.30072" lon="-1.78104">
        <ele>64.4</ele>
        <time>2019-07-16T09:24:47Z</time>
      </trkpt>
      <trkpt lat="48.30071" lon="-1.781">
        <ele>64.3</ele>
        <time>2019-07-16T09:24:48Z</time>
      </trkpt>
      <trkpt lat="48.30069" lon="-1.78096">
        <ele>64.2</ele>
        <time>2019-07-16T09:24:49Z</time>
      </trkpt>
      <trkpt lat="48.30067" lon="-1.78092">
        <ele>64.2</ele>
        <time>2019-07-16T09:24:50Z</time>
      </trkpt>
      <trkpt lat="48.30066" lon="-1.78089">
        <ele>63.8</ele>
        <time>2019-07-16T09:24:51Z</time>
      </trkpt>
      <trkpt lat="48.30065" lon="-1.78086">
        <ele>63.6</ele>
        <time>2019-07-16T09:24:52Z</time>
      </trkpt>
      <trkpt lat="48.30063" lon="-1.78083">
        <ele>64.1</ele>
        <time>2019-07-16T09:24:53Z</time>
      </trkpt>
      <trkpt lat="48.30061" lon="-1.7808">
        <ele>63.9</ele>
        <time>2019-07-16T09:24:54Z</time>
      </trkpt>
      <trkpt lat="48.30059" lon="-1.78076">
        <ele>63.6</ele>
        <time>2019-07-16T09:24:55Z</time>
      </trkpt>
      <trkpt lat="48.30057" lon="-1.78072">
        <ele>63.4</ele>
        <time>2019-07-16T09:24:56Z</time>
      </trkpt>
      <trkpt lat="48.30055" lon="-1.78069">
        <ele>63.5</ele>
        <time>2019-07-16T09:24:57Z</time>
      </trkpt>
      <trkpt lat="48.30055" lon="-1.78066">
        <ele>63.9</ele>
        <time>2019-07-16T09:24:58Z</time>
      </trkpt>
      <trkpt lat="48.30053" lon="-1.78062">
        <ele>63.9</ele>
        <time>2019-07-16T09:24:59Z</time>
      </trkpt>
      <trkpt lat="48.30053" lon="-1.78059">
        <ele>63.8</ele>
        <time>2019-07-16T09:25:00Z</time>
      </trkpt>
      <trkpt lat="48.30051" lon="-1.78055">
        <ele>63.8</ele>
        <time>2019-07-16T09:25:01Z</time>
      </trkpt>
      <trkpt lat="48.30049" lon="-1.78051">
        <ele>64</ele>
        <time>2019-07-16T09:25:02Z</time>
      </trkpt>
      <trkpt lat="48.30047" lon="-1.78048">
        <ele>63.9</ele>
        <time>2019-07-16T09:25:03Z</time>
      </trkpt>
      <trkpt lat="48.30045" lon="-1.78044">
        <ele>64.5</ele>
        <time>2019-07-16T09:25:04Z</time>
      </trkpt>
      <trkpt lat="48.30043" lon="-1.78039">
        <ele>64.9</ele>
        <time>2019-07-16T09:25:05Z</time>
      </trkpt>
      <trkpt lat="48.30042" lon="-1.78035">
        <ele>65.2</ele>
        <time>2019-07-16T09:25:06Z</time>
      </trkpt>
      <trkpt lat="48.3004" lon="-1.78031">
        <ele>65.7</ele>
        <time>2019-07-16T09:25:07Z</time>
      </trkpt>
      <trkpt lat="48.30039" lon="-1.78027">
        <ele>66.1</ele>
        <time>2019-07-16T09:25:08Z</time>
      </trkpt>
      <trkpt lat="48.30038" lon="-1.78023">
        <ele>67.2</ele>
        <time>2019-07-16T09:25:09Z</time>
      </trkpt>
      <trkpt lat="48.30037" lon="-1.78019">
        <ele>68</ele>
        <time>2019-07-16T09:25:10Z</time>
      </trkpt>
      <trkpt lat="48.30035" lon="-1.78015">
        <ele>68.4</ele>
        <time>2019-07-16T09:25:11Z</time>
      </trkpt>
      <trkpt lat="48.30034" lon="-1.78011">
        <ele>69</ele>
        <time>2019-07-16T09:25:12Z</time>
      </trkpt>
      <trkpt lat="48.30033" lon="-1.78005">
        <ele>69.6</ele>
        <time>2019-07-16T09:25:13Z</time>
      </trkpt>
      <trkpt lat="48.30032" lon="-1.78">
        <ele>70.4</ele>
        <time>2019-07-16T09:25:14Z</time>
      </trkpt>
      <trkpt lat="48.30031" lon="-1.77995">
        <ele>70.8</ele>
        <time>2019-07-16T09:25:15Z</time>
      </trkpt>
      <trkpt lat="48.30029" lon="-1.7799">
        <ele>71.4</ele>
        <time>2019-07-16T09:25:16Z</time>
      </trkpt>
      <trkpt lat="48.30028" lon="-1.77985">
        <ele>71.6</ele>
        <time>2019-07-16T09:25:17Z</time>
      </trkpt>
      <trkpt lat="48.30026" lon="-1.77981">
        <ele>71.9</ele>
        <time>2019-07-16T09:25:18Z</time>
      </trkpt>
      <trkpt lat="48.30025" lon="-1.77977">
        <ele>72.2</ele>
        <time>2019-07-16T09:25:19Z</time>
      </trkpt>
      <trkpt lat="48.30024" lon="-1.77973">
        <ele>72.3</ele>
        <time>2019-07-16T09:25:20Z</time>
      </trkpt>
      <trkpt lat="48.30022" lon="-1.7797">
        <ele>72.5</ele>
        <time>2019-07-16T09:25:21Z</time>
      </trkpt>
      <trkpt lat="48.30021" lon="-1.77966">
        <ele>72.9</ele>
        <time>2019-07-16T09:25:22Z</time>
      </trkpt>
      <trkpt lat="48.3002" lon="-1.77962">
        <ele>73.1</ele>
        <time>2019-07-16T09:25:23Z</time>
      </trkpt>
      <trkpt lat="48.30018" lon="-1.77959">
        <ele>73.3</ele>
        <time>2019-07-16T09:25:24Z</time>
      </trkpt>
      <trkpt lat="48.30016" lon="-1.77955">
        <ele>73.8</ele>
        <time>2019-07-16T09:25:25Z</time>
      </trkpt>
      <trkpt lat="48.30014" lon="-1.77952">
        <ele>74.4</ele>
        <time>2019-07-16T09:25:26Z</time>
      </trkpt>
      <trkpt lat="48.30013" lon="-1.77948">
        <ele>75.1</ele>
        <time>2019-07-16T09:25:27Z</time>
      </trkpt>
      <trkpt lat="48.30012" lon="-1.77943">
        <ele>75.5</ele>
        <time>2019-07-16T09:25:28Z</time>
      </trkpt>
      <trkpt lat="48.30011" lon="-1.77938">
        <ele>76</ele>
        <time>2019-07-16T09:25:29Z</time>
      </trkpt>
      <trkpt lat="48.30011" lon="-1.77933">
        <ele>76.5</ele>
        <time>2019-07-16T09:25:30Z</time>
      </trkpt>
      <trkpt lat="48.3001" lon="-1.77929">
        <ele>76.8</ele>
        <time>2019-07-16T09:25:31Z</time>
      </trkpt>
      <trkpt lat="48.30009" lon="-1.77925">
        <ele>77.1</ele>
        <time>2019-07-16T09:25:32Z</time>
      </trkpt>
      <trkpt lat="48.30009" lon="-1.77921">
        <ele>77.6</ele>
        <time>2019-07-16T09:25:33Z</time>
      </trkpt>
      <trkpt lat="48.3001" lon="-1.77917">
        <ele>78</ele>
        <time>2019-07-16T09:25:34Z</time>
      </trkpt>
      <trkpt lat="48.30009" lon="-1.77913">
        <ele>78.6</ele>
        <time>2019-07-16T09:25:35Z</time>
      </trkpt>
      <trkpt lat="48.30009" lon="-1.77908">
        <ele>78.9</ele>
        <time>2019-07-16T09:25:36Z</time>
      </trkpt>
      <trkpt lat="48.30008" lon="-1.77904">
        <ele>78.8</ele>
        <time>2019-07-16T09:25:37Z</time>
      </trkpt>
      <trkpt lat="48.30007" lon="-1.779">
        <ele>78.4</ele>
        <time>2019-07-16T09:25:38Z</time>
      </trkpt>
      <trkpt lat="48.30005" lon="-1.77895">
        <ele>78.2</ele>
        <time>2019-07-16T09:25:39Z</time>
      </trkpt>
      <trkpt lat="48.30005" lon="-1.7789">
        <ele>78.6</ele>
        <time>2019-07-16T09:25:40Z</time>
      </trkpt>
      <trkpt lat="48.30004" lon="-1.77886">
        <ele>78.9</ele>
        <time>2019-07-16T09:25:41Z</time>
      </trkpt>
      <trkpt lat="48.30003" lon="-1.77882">
        <ele>78.9</ele>
        <time>2019-07-16T09:25:42Z</time>
      </trkpt>
      <trkpt lat="48.30002" lon="-1.77878">
        <ele>77.4</ele>
        <time>2019-07-16T09:25:43Z</time>
      </trkpt>
      <trkpt lat="48.30001" lon="-1.77873">
        <ele>75.9</ele>
        <time>2019-07-16T09:25:44Z</time>
      </trkpt>
      <trkpt lat="48.30001" lon="-1.77869">
        <ele>75.9</ele>
        <time>2019-07-16T09:25:45Z</time>
      </trkpt>
      <trkpt lat="48.30001" lon="-1.77864">
        <ele>75.3</ele>
        <time>2019-07-16T09:25:46Z</time>
      </trkpt>
      <trkpt lat="48.3" lon="-1.77859">
        <ele>74.9</ele>
        <time>2019-07-16T09:25:47Z</time>
      </trkpt>
      <trkpt lat="48.3" lon="-1.77854">
        <ele>74.6</ele>
        <time>2019-07-16T09:25:48Z</time>
      </trkpt>
      <trkpt lat="48.3" lon="-1.7785">
        <ele>74.6</ele>
        <time>2019-07-16T09:25:49Z</time>
      </trkpt>
      <trkpt lat="48.29999" lon="-1.77846">
        <ele>74.4</ele>
        <time>2019-07-16T09:25:50Z</time>
      </trkpt>
      <trkpt lat="48.29998" lon="-1.77841">
        <ele>74.2</ele>
        <time>2019-07-16T09:25:51Z</time>
      </trkpt>
      <trkpt lat="48.29997" lon="-1.77837">
        <ele>73.8</ele>
        <time>2019-07-16T09:25:52Z</time>
      </trkpt>
      <trkpt lat="48.29997" lon="-1.77833">
        <ele>73.7</ele>
        <time>2019-07-16T09:25:53Z</time>
      </trkpt>
      <trkpt lat="48.29997" lon="-1.77828">
        <ele>73.4</ele>
        <time>2019-07-16T09:25:54Z</time>
      </trkpt>
      <trkpt lat="48.29996" lon="-1.77823">
        <ele>73.5</ele>
        <time>2019-07-16T09:25:55Z</time>
      </trkpt>
      <trkpt lat="48.29997" lon="-1.77819">
        <ele>73.4</ele>
        <time>2019-07-16T09:25:56Z</time>
      </trkpt>
      <trkpt lat="48.29997" lon="-1.77814">
        <ele>73.4</ele>
        <time>2019-07-16T09:25:57Z</time>
      </trkpt>
      <trkpt lat="48.29997" lon="-1.7781">
        <ele>73.5</ele>
        <time>2019-07-16T09:25:58Z</time>
      </trkpt>
      <trkpt lat="48.29998" lon="-1.77805">
        <ele>73.7</ele>
        <time>2019-07-16T09:25:59Z</time>
      </trkpt>
      <trkpt lat="48.29998" lon="-1.778">
        <ele>73.7</ele>
        <time>2019-07-16T09:26:00Z</time>
      </trkpt>
      <trkpt lat="48.29998" lon="-1.77795">
        <ele>73.3</ele>
        <time>2019-07-16T09:26:01Z</time>
      </trkpt>
      <trkpt lat="48.29999" lon="-1.7779">
        <ele>72.8</ele>
        <time>2019-07-16T09:26:02Z</time>
      </trkpt>
      <trkpt lat="48.3" lon="-1.77786">
        <ele>72</ele>
        <time>2019-07-16T09:26:03Z</time>
      </trkpt>
      <trkpt lat="48.3" lon="-1.77781">
        <ele>72</ele>
        <time>2019-07-16T09:26:04Z</time>
      </trkpt>
      <trkpt lat="48.3" lon="-1.77777">
        <ele>71.9</ele>
        <time>2019-07-16T09:26:05Z</time>
      </trkpt>
      <trkpt lat="48.29999" lon="-1.77772">
        <ele>72.1</ele>
        <time>2019-07-16T09:26:06Z</time>
      </trkpt>
      <trkpt lat="48.29999" lon="-1.77768">
        <ele>72.1</ele>
        <time>2019-07-16T09:26:07Z</time>
      </trkpt>
      <trkpt lat="48.30001" lon="-1.77764">
        <ele>71.8</ele>
        <time>2019-07-16T09:26:08Z</time>
      </trkpt>
      <trkpt lat="48.30001" lon="-1.7776">
        <ele>71.8</ele>
        <time>2019-07-16T09:26:09Z</time>
      </trkpt>
      <trkpt lat="48.30002" lon="-1.77756">
        <ele>71.6</ele>
        <time>2019-07-16T09:26:10Z</time>
      </trkpt>
      <trkpt lat="48.30003" lon="-1.77752">
        <ele>71.6</ele>
        <time>2019-07-16T09:26:11Z</time>
      </trkpt>
      <trkpt lat="48.30004" lon="-1.77747">
        <ele>71.2</ele>
        <time>2019-07-16T09:26:12Z</time>
      </trkpt>
      <trkpt lat="48.30005" lon="-1.77744">
        <ele>71.2</ele>
        <time>2019-07-16T09:26:13Z</time>
      </trkpt>
      <trkpt lat="48.30005" lon="-1.77739">
        <ele>71</ele>
        <time>2019-07-16T09:26:14Z</time>
      </trkpt>
      <trkpt lat="48.30006" lon="-1.77734">
        <ele>70.8</ele>
        <time>2019-07-16T09:26:15Z</time>
      </trkpt>
      <trkpt lat="48.30007" lon="-1.77729">
        <ele>70.5</ele>
        <time>2019-07-16T09:26:16Z</time>
      </trkpt>
      <trkpt lat="48.30008" lon="-1.77725">
        <ele>70.2</ele>
        <time>2019-07-16T09:26:17Z</time>
      </trkpt>
      <trkpt lat="48.30008" lon="-1.7772">
        <ele>69.9</ele>
        <time>2019-07-16T09:26:18Z</time>
      </trkpt>
      <trkpt lat="48.30009" lon="-1.77716">
        <ele>69.6</ele>
        <time>2019-07-16T09:26:19Z</time>
      </trkpt>
      <trkpt lat="48.3001" lon="-1.77711">
        <ele>69.3</ele>
        <time>2019-07-16T09:26:20Z</time>
      </trkpt>
      <trkpt lat="48.3001" lon="-1.77707">
        <ele>69.1</ele>
        <time>2019-07-16T09:26:21Z</time>
      </trkpt>
      <trkpt lat="48.30011" lon="-1.77704">
        <ele>69</ele>
        <time>2019-07-16T09:26:22Z</time>
      </trkpt>
      <trkpt lat="48.30012" lon="-1.777">
        <ele>68.7</ele>
        <time>2019-07-16T09:26:23Z</time>
      </trkpt>
      <trkpt lat="48.30013" lon="-1.77695">
        <ele>68.7</ele>
        <time>2019-07-16T09:26:24Z</time>
      </trkpt>
      <trkpt lat="48.30015" lon="-1.7769">
        <ele>68.9</ele>
        <time>2019-07-16T09:26:25Z</time>
      </trkpt>
      <trkpt lat="48.30016" lon="-1.77685">
        <ele>68.9</ele>
        <time>2019-07-16T09:26:26Z</time>
      </trkpt>
      <trkpt lat="48.30018" lon="-1.77679">
        <ele>68.8</ele>
        <time>2019-07-16T09:26:27Z</time>
      </trkpt>
      <trkpt lat="48.3002" lon="-1.77673">
        <ele>68.8</ele>
        <time>2019-07-16T09:26:28Z</time>
      </trkpt>
      <trkpt lat="48.30023" lon="-1.77666">
        <ele>68.6</ele>
        <time>2019-07-16T09:26:29Z</time>
      </trkpt>
      <trkpt lat="48.30026" lon="-1.77659">
        <ele>68.8</ele>
        <time>2019-07-16T09:26:30Z</time>
      </trkpt>
      <trkpt lat="48.30028" lon="-1.77651">
        <ele>68.8</ele>
        <time>2019-07-16T09:26:31Z</time>
      </trkpt>
      <trkpt lat="48.30031" lon="-1.77643">
        <ele>68.8</ele>
        <time>2019-07-16T09:26:32Z</time>
      </trkpt>
      <trkpt lat="48.30032" lon="-1.77634">
        <ele>68.7</ele>
        <time>2019-07-16T09:26:33Z</time>
      </trkpt>
      <trkpt lat="48.30035" lon="-1.77626">
        <ele>69</ele>
        <time>2019-07-16T09:26:34Z</time>
      </trkpt>
      <trkpt lat="48.30036" lon="-1.77618">
        <ele>69</ele>
        <time>2019-07-16T09:26:35Z</time>
      </trkpt>
      <trkpt lat="48.30037" lon="-1.77611">
        <ele>69.6</ele>
        <time>2019-07-16T09:26:36Z</time>
      </trkpt>
      <trkpt lat="48.30038" lon="-1.77604">
        <ele>69.7</ele>
        <time>2019-07-16T09:26:37Z</time>
      </trkpt>
      <trkpt lat="48.30039" lon="-1.77597">
        <ele>70.1</ele>
        <time>2019-07-16T09:26:38Z</time>
      </trkpt>
      <trkpt lat="48.30039" lon="-1.77591">
        <ele>70.6</ele>
        <time>2019-07-16T09:26:39Z</time>
      </trkpt>
      <trkpt lat="48.30039" lon="-1.77586">
        <ele>71.1</ele>
        <time>2019-07-16T09:26:40Z</time>
      </trkpt>
      <trkpt lat="48.3004" lon="-1.77581">
        <ele>71</ele>
        <time>2019-07-16T09:26:41Z</time>
      </trkpt>
      <trkpt lat="48.3004" lon="-1.77576">
        <ele>71.3</ele>
        <time>2019-07-16T09:26:42Z</time>
      </trkpt>
      <trkpt lat="48.30041" lon="-1.77572">
        <ele>71.5</ele>
        <time>2019-07-16T09:26:43Z</time>
      </trkpt>
      <trkpt lat="48.3004" lon="-1.77568">
        <ele>71.5</ele>
        <time>2019-07-16T09:26:44Z</time>
      </trkpt>
      <trkpt lat="48.3004" lon="-1.77564">
        <ele>71.8</ele>
        <time>2019-07-16T09:26:45Z</time>
      </trkpt>
      <trkpt lat="48.3004" lon="-1.77561">
        <ele>71.7</ele>
        <time>2019-07-16T09:26:46Z</time>
      </trkpt>
      <trkpt lat="48.30041" lon="-1.77557">
        <ele>71.7</ele>
        <time>2019-07-16T09:26:47Z</time>
      </trkpt>
      <trkpt lat="48.30041" lon="-1.77554">
        <ele>72.1</ele>
        <time>2019-07-16T09:26:48Z</time>
      </trkpt>
      <trkpt lat="48.30042" lon="-1.77551">
        <ele>72</ele>
        <time>2019-07-16T09:26:49Z</time>
      </trkpt>
      <trkpt lat="48.30041" lon="-1.77548">
        <ele>72.2</ele>
        <time>2019-07-16T09:26:50Z</time>
      </trkpt>
      <trkpt lat="48.3004" lon="-1.77545">
        <ele>72</ele>
        <time>2019-07-16T09:26:51Z</time>
      </trkpt>
      <trkpt lat="48.3004" lon="-1.77542">
        <ele>72.1</ele>
        <time>2019-07-16T09:26:52Z</time>
      </trkpt>
      <trkpt lat="48.30041" lon="-1.77538">
        <ele>71.9</ele>
        <time>2019-07-16T09:26:53Z</time>
      </trkpt>
      <trkpt lat="48.30042" lon="-1.77536">
        <ele>71.9</ele>
        <time>2019-07-16T09:26:54Z</time>
      </trkpt>
      <trkpt lat="48.30042" lon="-1.77533">
        <ele>72</ele>
        <time>2019-07-16T09:26:55Z</time>
      </trkpt>
      <trkpt lat="48.30043" lon="-1.7753">
        <ele>72.3</ele>
        <time>2019-07-16T09:26:56Z</time>
      </trkpt>
      <trkpt lat="48.30044" lon="-1.77526">
        <ele>72.1</ele>
        <time>2019-07-16T09:26:57Z</time>
      </trkpt>
      <trkpt lat="48.30045" lon="-1.77522">
        <ele>72.5</ele>
        <time>2019-07-16T09:26:58Z</time>
      </trkpt>
      <trkpt lat="48.30045" lon="-1.77518">
        <ele>72.5</ele>
        <time>2019-07-16T09:26:59Z</time>
      </trkpt>
      <trkpt lat="48.30047" lon="-1.77514">
        <ele>72.3</ele>
        <time>2019-07-16T09:27:00Z</time>
      </trkpt>
      <trkpt lat="48.30047" lon="-1.77509">
        <ele>72.4</ele>
        <time>2019-07-16T09:27:01Z</time>
      </trkpt>
      <trkpt lat="48.30047" lon="-1.77504">
        <ele>72.7</ele>
        <time>2019-07-16T09:27:02Z</time>
      </trkpt>
      <trkpt lat="48.30047" lon="-1.77499">
        <ele>72.7</ele>
        <time>2019-07-16T09:27:03Z</time>
      </trkpt>
      <trkpt lat="48.30048" lon="-1.77494">
        <ele>72.9</ele>
        <time>2019-07-16T09:27:04Z</time>
      </trkpt>
      <trkpt lat="48.30048" lon="-1.77488">
        <ele>73</ele>
        <time>2019-07-16T09:27:05Z</time>
      </trkpt>
      <trkpt lat="48.30048" lon="-1.77483">
        <ele>73.3</ele>
        <time>2019-07-16T09:27:06Z</time>
      </trkpt>
      <trkpt lat="48.30049" lon="-1.77478">
        <ele>73.5</ele>
        <time>2019-07-16T09:27:07Z</time>
      </trkpt>
      <trkpt lat="48.3005" lon="-1.77473">
        <ele>73.6</ele>
        <time>2019-07-16T09:27:08Z</time>
      </trkpt>
      <trkpt lat="48.30052" lon="-1.77468">
        <ele>73.9</ele>
        <time>2019-07-16T09:27:09Z</time>
      </trkpt>
      <trkpt lat="48.30052" lon="-1.77462">
        <ele>74.3</ele>
        <time>2019-07-16T09:27:10Z</time>
      </trkpt>
      <trkpt lat="48.30053" lon="-1.77457">
        <ele>74.5</ele>
        <time>2019-07-16T09:27:11Z</time>
      </trkpt>
      <trkpt lat="48.30053" lon="-1.77452">
        <ele>74.8</ele>
        <time>2019-07-16T09:27:12Z</time>
      </trkpt>
      <trkpt lat="48.30053" lon="-1.77447">
        <ele>74.7</ele>
        <time>2019-07-16T09:27:13Z</time>
      </trkpt>
      <trkpt lat="48.30054" lon="-1.77441">
        <ele>74.8</ele>
        <time>2019-07-16T09:27:14Z</time>
      </trkpt>
      <trkpt lat="48.30055" lon="-1.77436">
        <ele>74.9</ele>
        <time>2019-07-16T09:27:15Z</time>
      </trkpt>
      <trkpt lat="48.30055" lon="-1.77429">
        <ele>74.6</ele>
        <time>2019-07-16T09:27:16Z</time>
      </trkpt>
      <trkpt lat="48.30056" lon="-1.77424">
        <ele>74</ele>
        <time>2019-07-16T09:27:17Z</time>
      </trkpt>
      <trkpt lat="48.30056" lon="-1.77419">
        <ele>74.1</ele>
        <time>2019-07-16T09:27:18Z</time>
      </trkpt>
      <trkpt lat="48.30057" lon="-1.77414">
        <ele>74.4</ele>
        <time>2019-07-16T09:27:19Z</time>
      </trkpt>
      <trkpt lat="48.30058" lon="-1.77408">
        <ele>74.7</ele>
        <time>2019-07-16T09:27:20Z</time>
      </trkpt>
      <trkpt lat="48.30059" lon="-1.77403">
        <ele>75.6</ele>
        <time>2019-07-16T09:27:21Z</time>
      </trkpt>
      <trkpt lat="48.30061" lon="-1.77398">
        <ele>75.9</ele>
        <time>2019-07-16T09:27:22Z</time>
      </trkpt>
      <trkpt lat="48.30062" lon="-1.77392">
        <ele>76.4</ele>
        <time>2019-07-16T09:27:23Z</time>
      </trkpt>
      <trkpt lat="48.30063" lon="-1.77386">
        <ele>76.2</ele>
        <time>2019-07-16T09:27:24Z</time>
      </trkpt>
      <trkpt lat="48.30064" lon="-1.77381">
        <ele>75.5</ele>
        <time>2019-07-16T09:27:25Z</time>
      </trkpt>
      <trkpt lat="48.30065" lon="-1.77375">
        <ele>75.1</ele>
        <time>2019-07-16T09:27:26Z</time>
      </trkpt>
      <trkpt lat="48.30067" lon="-1.77369">
        <ele>74.2</ele>
        <time>2019-07-16T09:27:27Z</time>
      </trkpt>
      <trkpt lat="48.30069" lon="-1.77364">
        <ele>73.9</ele>
        <time>2019-07-16T09:27:28Z</time>
      </trkpt>
      <trkpt lat="48.30071" lon="-1.77359">
        <ele>73.3</ele>
        <time>2019-07-16T09:27:29Z</time>
      </trkpt>
      <trkpt lat="48.30072" lon="-1.77354">
        <ele>72.7</ele>
        <time>2019-07-16T09:27:30Z</time>
      </trkpt>
      <trkpt lat="48.30073" lon="-1.77348">
        <ele>72.2</ele>
        <time>2019-07-16T09:27:31Z</time>
      </trkpt>
      <trkpt lat="48.30074" lon="-1.77343">
        <ele>72.2</ele>
        <time>2019-07-16T09:27:32Z</time>
      </trkpt>
      <trkpt lat="48.30075" lon="-1.77338">
        <ele>72.2</ele>
        <time>2019-07-16T09:27:33Z</time>
      </trkpt>
      <trkpt lat="48.30075" lon="-1.77332">
        <ele>72.3</ele>
        <time>2019-07-16T09:27:34Z</time>
      </trkpt>
      <trkpt lat="48.30076" lon="-1.77327">
        <ele>72.4</ele>
        <time>2019-07-16T09:27:35Z</time>
      </trkpt>
      <trkpt lat="48.30077" lon="-1.77322">
        <ele>72.8</ele>
        <time>2019-07-16T09:27:36Z</time>
      </trkpt>
      <trkpt lat="48.30077" lon="-1.77317">
        <ele>72.8</ele>
        <time>2019-07-16T09:27:37Z</time>
      </trkpt>
      <trkpt lat="48.30077" lon="-1.77313">
        <ele>73.2</ele>
        <time>2019-07-16T09:27:38Z</time>
      </trkpt>
      <trkpt lat="48.30078" lon="-1.77309">
        <ele>73.1</ele>
        <time>2019-07-16T09:27:39Z</time>
      </trkpt>
      <trkpt lat="48.3008" lon="-1.77305">
        <ele>73.4</ele>
        <time>2019-07-16T09:27:40Z</time>
      </trkpt>
      <trkpt lat="48.3008" lon="-1.773">
        <ele>73.4</ele>
        <time>2019-07-16T09:27:41Z</time>
      </trkpt>
      <trkpt lat="48.30082" lon="-1.77296">
        <ele>73.5</ele>
        <time>2019-07-16T09:27:42Z</time>
      </trkpt>
      <trkpt lat="48.30084" lon="-1.77291">
        <ele>73.2</ele>
        <time>2019-07-16T09:27:43Z</time>
      </trkpt>
      <trkpt lat="48.30086" lon="-1.77288">
        <ele>73.1</ele>
        <time>2019-07-16T09:27:44Z</time>
      </trkpt>
      <trkpt lat="48.30087" lon="-1.77284">
        <ele>73.2</ele>
        <time>2019-07-16T09:27:45Z</time>
      </trkpt>
      <trkpt lat="48.30089" lon="-1.7728">
        <ele>73.7</ele>
        <time>2019-07-16T09:27:46Z</time>
      </trkpt>
      <trkpt lat="48.3009" lon="-1.77276">
        <ele>73.9</ele>
        <time>2019-07-16T09:27:47Z</time>
      </trkpt>
      <trkpt lat="48.30092" lon="-1.77272">
        <ele>74.2</ele>
        <time>2019-07-16T09:27:48Z</time>
      </trkpt>
      <trkpt lat="48.30093" lon="-1.77269">
        <ele>74.9</ele>
        <time>2019-07-16T09:27:49Z</time>
      </trkpt>
      <trkpt lat="48.30094" lon="-1.77266">
        <ele>75.4</ele>
        <time>2019-07-16T09:27:50Z</time>
      </trkpt>
      <trkpt lat="48.30096" lon="-1.77262">
        <ele>75.8</ele>
        <time>2019-07-16T09:27:51Z</time>
      </trkpt>
      <trkpt lat="48.30098" lon="-1.77258">
        <ele>76.2</ele>
        <time>2019-07-16T09:27:52Z</time>
      </trkpt>
      <trkpt lat="48.301" lon="-1.77256">
        <ele>76.4</ele>
        <time>2019-07-16T09:27:53Z</time>
      </trkpt>
      <trkpt lat="48.30101" lon="-1.77253">
        <ele>76.7</ele>
        <time>2019-07-16T09:27:54Z</time>
      </trkpt>
      <trkpt lat="48.30103" lon="-1.77249">
        <ele>76.9</ele>
        <time>2019-07-16T09:27:55Z</time>
      </trkpt>
      <trkpt lat="48.30104" lon="-1.77244">
        <ele>77.1</ele>
        <time>2019-07-16T09:27:56Z</time>
      </trkpt>
      <trkpt lat="48.30106" lon="-1.77239">
        <ele>76.7</ele>
        <time>2019-07-16T09:27:57Z</time>
      </trkpt>
      <trkpt lat="48.30108" lon="-1.77235">
        <ele>76.6</ele>
        <time>2019-07-16T09:27:58Z</time>
      </trkpt>
      <trkpt lat="48.30109" lon="-1.77231">
        <ele>76.1</ele>
        <time>2019-07-16T09:27:59Z</time>
      </trkpt>
      <trkpt lat="48.30111" lon="-1.77226">
        <ele>75.5</ele>
        <time>2019-07-16T09:28:00Z</time>
      </trkpt>
      <trkpt lat="48.30113" lon="-1.77222">
        <ele>74.6</ele>
        <time>2019-07-16T09:28:01Z</time>
      </trkpt>
      <trkpt lat="48.30114" lon="-1.77217">
        <ele>73.9</ele>
        <time>2019-07-16T09:28:02Z</time>
      </trkpt>
      <trkpt lat="48.30116" lon="-1.77211">
        <ele>73.3</ele>
        <time>2019-07-16T09:28:03Z</time>
      </trkpt>
      <trkpt lat="48.30119" lon="-1.77205">
        <ele>73.3</ele>
        <time>2019-07-16T09:28:04Z</time>
      </trkpt>
      <trkpt lat="48.30122" lon="-1.772">
        <ele>72.9</ele>
        <time>2019-07-16T09:28:05Z</time>
      </trkpt>
      <trkpt lat="48.30125" lon="-1.77195">
        <ele>72.7</ele>
        <time>2019-07-16T09:28:06Z</time>
      </trkpt>
      <trkpt lat="48.30127" lon="-1.7719">
        <ele>72.6</ele>
        <time>2019-07-16T09:28:07Z</time>
      </trkpt>
      <trkpt lat="48.3013" lon="-1.77184">
        <ele>72.1</ele>
        <time>2019-07-16T09:28:08Z</time>
      </trkpt>
      <trkpt lat="48.30132" lon="-1.77179">
        <ele>72.1</ele>
        <time>2019-07-16T09:28:09Z</time>
      </trkpt>
      <trkpt lat="48.30133" lon="-1.77175">
        <ele>72.7</ele>
        <time>2019-07-16T09:28:10Z</time>
      </trkpt>
      <trkpt lat="48.30134" lon="-1.77171">
        <ele>72.7</ele>
        <time>2019-07-16T09:28:11Z</time>
      </trkpt>
      <trkpt lat="48.30135" lon="-1.77168">
        <ele>73</ele>
        <time>2019-07-16T09:28:12Z</time>
      </trkpt>
      <trkpt lat="48.30141" lon="-1.77164">
        <ele>73.5</ele>
        <time>2019-07-16T09:28:41Z</time>
      </trkpt>
      <trkpt lat="48.30142" lon="-1.77165">
        <ele>73</ele>
        <time>2019-07-16T09:28:42Z</time>
      </trkpt>
      <trkpt lat="48.30144" lon="-1.77166">
        <ele>72.9</ele>
        <time>2019-07-16T09:28:43Z</time>
      </trkpt>
      <trkpt lat="48.30146" lon="-1.77169">
        <ele>72.5</ele>
        <time>2019-07-16T09:28:44Z</time>
      </trkpt>
      <trkpt lat="48.30148" lon="-1.77172">
        <ele>72.4</ele>
        <time>2019-07-16T09:28:45Z</time>
      </trkpt>
      <trkpt lat="48.30151" lon="-1.77175">
        <ele>71.7</ele>
        <time>2019-07-16T09:28:46Z</time>
      </trkpt>
      <trkpt lat="48.30153" lon="-1.77178">
        <ele>71.8</ele>
        <time>2019-07-16T09:28:47Z</time>
      </trkpt>
      <trkpt lat="48.30155" lon="-1.77179">
        <ele>71.6</ele>
        <time>2019-07-16T09:28:48Z</time>
      </trkpt>
      <trkpt lat="48.30157" lon="-1.77182">
        <ele>71.5</ele>
        <time>2019-07-16T09:28:49Z</time>
      </trkpt>
      <trkpt lat="48.30159" lon="-1.77185">
        <ele>71.6</ele>
        <time>2019-07-16T09:28:50Z</time>
      </trkpt>
      <trkpt lat="48.30161" lon="-1.77188">
        <ele>71.3</ele>
        <time>2019-07-16T09:28:51Z</time>
      </trkpt>
      <trkpt lat="48.30163" lon="-1.77191">
        <ele>71</ele>
        <time>2019-07-16T09:28:52Z</time>
      </trkpt>
      <trkpt lat="48.30165" lon="-1.77193">
        <ele>71.1</ele>
        <time>2019-07-16T09:28:53Z</time>
      </trkpt>
      <trkpt lat="48.30166" lon="-1.77195">
        <ele>70.5</ele>
        <time>2019-07-16T09:28:54Z</time>
      </trkpt>
      <trkpt lat="48.30166" lon="-1.77197">
        <ele>69.9</ele>
        <time>2019-07-16T09:28:55Z</time>
      </trkpt>
      <trkpt lat="48.30167" lon="-1.77199">
        <ele>69.7</ele>
        <time>2019-07-16T09:28:56Z</time>
      </trkpt>
      <trkpt lat="48.30163" lon="-1.77199">
        <ele>69.1</ele>
        <time>2019-07-16T09:29:17Z</time>
      </trkpt>
      <trkpt lat="48.30162" lon="-1.77195">
        <ele>68.9</ele>
        <time>2019-07-16T09:29:18Z</time>
      </trkpt>
      <trkpt lat="48.3016" lon="-1.77192">
        <ele>68.8</ele>
        <time>2019-07-16T09:29:19Z</time>
      </trkpt>
      <trkpt lat="48.30158" lon="-1.77189">
        <ele>68.9</ele>
        <time>2019-07-16T09:29:20Z</time>
      </trkpt>
      <trkpt lat="48.30156" lon="-1.77186">
        <ele>68.9</ele>
        <time>2019-07-16T09:29:21Z</time>
      </trkpt>
      <trkpt lat="48.30154" lon="-1.77183">
        <ele>68.7</ele>
        <time>2019-07-16T09:29:22Z</time>
      </trkpt>
      <trkpt lat="48.30152" lon="-1.77179">
        <ele>68.5</ele>
        <time>2019-07-16T09:29:23Z</time>
      </trkpt>
      <trkpt lat="48.30151" lon="-1.77176">
        <ele>68.5</ele>
        <time>2019-07-16T09:29:24Z</time>
      </trkpt>
      <trkpt lat="48.30148" lon="-1.77172">
        <ele>68.4</ele>
        <time>2019-07-16T09:29:25Z</time>
      </trkpt>
      <trkpt lat="48.30146" lon="-1.77169">
        <ele>68.5</ele>
        <time>2019-07-16T09:29:26Z</time>
      </trkpt>
      <trkpt lat="48.30144" lon="-1.77166">
        <ele>68.3</ele>
        <time>2019-07-16T09:29:27Z</time>
      </trkpt>
      <trkpt lat="48.30143" lon="-1.77161">
        <ele>68.7</ele>
        <time>2019-07-16T09:29:28Z</time>
      </trkpt>
      <trkpt lat="48.30142" lon="-1.77156">
        <ele>68.8</ele>
        <time>2019-07-16T09:29:29Z</time>
      </trkpt>
      <trkpt lat="48.30141" lon="-1.7715">
        <ele>68.7</ele>
        <time>2019-07-16T09:29:30Z</time>
      </trkpt>
      <trkpt lat="48.30143" lon="-1.77145">
        <ele>68.8</ele>
        <time>2019-07-16T09:29:31Z</time>
      </trkpt>
      <trkpt lat="48.30147" lon="-1.77133">
        <ele>69.2</ele>
        <time>2019-07-16T09:29:33Z</time>
      </trkpt>
      <trkpt lat="48.3015" lon="-1.77127">
        <ele>69</ele>
        <time>2019-07-16T09:29:34Z</time>
      </trkpt>
      <trkpt lat="48.30153" lon="-1.77121">
        <ele>68.8</ele>
        <time>2019-07-16T09:29:35Z</time>
      </trkpt>
      <trkpt lat="48.30156" lon="-1.77115">
        <ele>69.1</ele>
        <time>2019-07-16T09:29:36Z</time>
      </trkpt>
      <trkpt lat="48.3016" lon="-1.77108">
        <ele>68.7</ele>
        <time>2019-07-16T09:29:37Z</time>
      </trkpt>
      <trkpt lat="48.30164" lon="-1.77103">
        <ele>68.4</ele>
        <time>2019-07-16T09:29:38Z</time>
      </trkpt>
      <trkpt lat="48.30167" lon="-1.77098">
        <ele>68.2</ele>
        <time>2019-07-16T09:29:39Z</time>
      </trkpt>
      <trkpt lat="48.3017" lon="-1.77094">
        <ele>68</ele>
        <time>2019-07-16T09:29:40Z</time>
      </trkpt>
      <trkpt lat="48.30172" lon="-1.7709">
        <ele>67.6</ele>
        <time>2019-07-16T09:29:41Z</time>
      </trkpt>
      <trkpt lat="48.30174" lon="-1.77086">
        <ele>67.2</ele>
        <time>2019-07-16T09:29:42Z</time>
      </trkpt>
      <trkpt lat="48.30177" lon="-1.77082">
        <ele>66.3</ele>
        <time>2019-07-16T09:29:43Z</time>
      </trkpt>
      <trkpt lat="48.30179" lon="-1.77078">
        <ele>65.5</ele>
        <time>2019-07-16T09:29:44Z</time>
      </trkpt>
      <trkpt lat="48.3018" lon="-1.77073">
        <ele>64.6</ele>
        <time>2019-07-16T09:29:45Z</time>
      </trkpt>
      <trkpt lat="48.30181" lon="-1.77068">
        <ele>63.8</ele>
        <time>2019-07-16T09:29:46Z</time>
      </trkpt>
      <trkpt lat="48.30183" lon="-1.77065">
        <ele>63.5</ele>
        <time>2019-07-16T09:29:47Z</time>
      </trkpt>
      <trkpt lat="48.30185" lon="-1.7706">
        <ele>63.4</ele>
        <time>2019-07-16T09:29:48Z</time>
      </trkpt>
      <trkpt lat="48.30187" lon="-1.77056">
        <ele>63.4</ele>
        <time>2019-07-16T09:29:49Z</time>
      </trkpt>
      <trkpt lat="48.3019" lon="-1.7705">
        <ele>63.8</ele>
        <time>2019-07-16T09:29:50Z</time>
      </trkpt>
      <trkpt lat="48.30191" lon="-1.77044">
        <ele>63.7</ele>
        <time>2019-07-16T09:29:51Z</time>
      </trkpt>
      <trkpt lat="48.30193" lon="-1.77039">
        <ele>63.5</ele>
        <time>2019-07-16T09:29:52Z</time>
      </trkpt>
      <trkpt lat="48.30196" lon="-1.77033">
        <ele>63.3</ele>
        <time>2019-07-16T09:29:53Z</time>
      </trkpt>
      <trkpt lat="48.30198" lon="-1.77028">
        <ele>63.2</ele>
        <time>2019-07-16T09:29:54Z</time>
      </trkpt>
      <trkpt lat="48.302" lon="-1.77023">
        <ele>62.9</ele>
        <time>2019-07-16T09:29:55Z</time>
      </trkpt>
      <trkpt lat="48.30203" lon="-1.77019">
        <ele>62.2</ele>
        <time>2019-07-16T09:29:56Z</time>
      </trkpt>
      <trkpt lat="48.30205" lon="-1.77015">
        <ele>61.6</ele>
        <time>2019-07-16T09:29:57Z</time>
      </trkpt>
      <trkpt lat="48.30207" lon="-1.77011">
        <ele>61.3</ele>
        <time>2019-07-16T09:29:58Z</time>
      </trkpt>
      <trkpt lat="48.3021" lon="-1.77006">
        <ele>61.3</ele>
        <time>2019-07-16T09:29:59Z</time>
      </trkpt>
      <trkpt lat="48.30212" lon="-1.77002">
        <ele>61.1</ele>
        <time>2019-07-16T09:30:00Z</time>
      </trkpt>
      <trkpt lat="48.30214" lon="-1.76997">
        <ele>61</ele>
        <time>2019-07-16T09:30:01Z</time>
      </trkpt>
      <trkpt lat="48.30216" lon="-1.76994">
        <ele>60.7</ele>
        <time>2019-07-16T09:30:02Z</time>
      </trkpt>
      <trkpt lat="48.30218" lon="-1.7699">
        <ele>60.7</ele>
        <time>2019-07-16T09:30:03Z</time>
      </trkpt>
      <trkpt lat="48.30221" lon="-1.76987">
        <ele>60.7</ele>
        <time>2019-07-16T09:30:04Z</time>
      </trkpt>
      <trkpt lat="48.30223" lon="-1.76984">
        <ele>60.8</ele>
        <time>2019-07-16T09:30:05Z</time>
      </trkpt>
      <trkpt lat="48.30225" lon="-1.7698">
        <ele>60.8</ele>
        <time>2019-07-16T09:30:06Z</time>
      </trkpt>
      <trkpt lat="48.30227" lon="-1.76976">
        <ele>60.7</ele>
        <time>2019-07-16T09:30:07Z</time>
      </trkpt>
      <trkpt lat="48.30228" lon="-1.7697">
        <ele>60.7</ele>
        <time>2019-07-16T09:30:08Z</time>
      </trkpt>
      <trkpt lat="48.3023" lon="-1.76965">
        <ele>60.5</ele>
        <time>2019-07-16T09:30:09Z</time>
      </trkpt>
      <trkpt lat="48.30232" lon="-1.76961">
        <ele>60.5</ele>
        <time>2019-07-16T09:30:10Z</time>
      </trkpt>
      <trkpt lat="48.30234" lon="-1.76958">
        <ele>60.4</ele>
        <time>2019-07-16T09:30:11Z</time>
      </trkpt>
      <trkpt lat="48.30236" lon="-1.76955">
        <ele>60.4</ele>
        <time>2019-07-16T09:30:12Z</time>
      </trkpt>
      <trkpt lat="48.30237" lon="-1.76951">
        <ele>60.3</ele>
        <time>2019-07-16T09:30:13Z</time>
      </trkpt>
      <trkpt lat="48.30238" lon="-1.76948">
        <ele>60.2</ele>
        <time>2019-07-16T09:30:14Z</time>
      </trkpt>
      <trkpt lat="48.3024" lon="-1.76944">
        <ele>60.1</ele>
        <time>2019-07-16T09:30:15Z</time>
      </trkpt>
      <trkpt lat="48.30242" lon="-1.7694">
        <ele>59.8</ele>
        <time>2019-07-16T09:30:16Z</time>
      </trkpt>
      <trkpt lat="48.30243" lon="-1.76937">
        <ele>59.7</ele>
        <time>2019-07-16T09:30:17Z</time>
      </trkpt>
      <trkpt lat="48.30244" lon="-1.76932">
        <ele>59.7</ele>
        <time>2019-07-16T09:30:18Z</time>
      </trkpt>
      <trkpt lat="48.30245" lon="-1.76928">
        <ele>60</ele>
        <time>2019-07-16T09:30:19Z</time>
      </trkpt>
      <trkpt lat="48.30246" lon="-1.76922">
        <ele>60</ele>
        <time>2019-07-16T09:30:20Z</time>
      </trkpt>
      <trkpt lat="48.30248" lon="-1.76917">
        <ele>60.1</ele>
        <time>2019-07-16T09:30:21Z</time>
      </trkpt>
      <trkpt lat="48.3025" lon="-1.7691">
        <ele>60.4</ele>
        <time>2019-07-16T09:30:22Z</time>
      </trkpt>
      <trkpt lat="48.30252" lon="-1.76903">
        <ele>60.7</ele>
        <time>2019-07-16T09:30:23Z</time>
      </trkpt>
      <trkpt lat="48.30254" lon="-1.76897">
        <ele>61.1</ele>
        <time>2019-07-16T09:30:24Z</time>
      </trkpt>
      <trkpt lat="48.30256" lon="-1.76889">
        <ele>61.5</ele>
        <time>2019-07-16T09:30:25Z</time>
      </trkpt>
      <trkpt lat="48.30257" lon="-1.76882">
        <ele>61.5</ele>
        <time>2019-07-16T09:30:26Z</time>
      </trkpt>
      <trkpt lat="48.30259" lon="-1.76877">
        <ele>61.5</ele>
        <time>2019-07-16T09:30:27Z</time>
      </trkpt>
      <trkpt lat="48.30261" lon="-1.7687">
        <ele>61.9</ele>
        <time>2019-07-16T09:30:28Z</time>
      </trkpt>
      <trkpt lat="48.30262" lon="-1.76864">
        <ele>62.3</ele>
        <time>2019-07-16T09:30:29Z</time>
      </trkpt>
      <trkpt lat="48.30264" lon="-1.76858">
        <ele>62.7</ele>
        <time>2019-07-16T09:30:30Z</time>
      </trkpt>
      <trkpt lat="48.30266" lon="-1.76853">
        <ele>62.9</ele>
        <time>2019-07-16T09:30:31Z</time>
      </trkpt>
      <trkpt lat="48.30268" lon="-1.76847">
        <ele>63.1</ele>
        <time>2019-07-16T09:30:32Z</time>
      </trkpt>
      <trkpt lat="48.3027" lon="-1.76841">
        <ele>63.3</ele>
        <time>2019-07-16T09:30:33Z</time>
      </trkpt>
      <trkpt lat="48.30271" lon="-1.76834">
        <ele>63.8</ele>
        <time>2019-07-16T09:30:34Z</time>
      </trkpt>
      <trkpt lat="48.30273" lon="-1.76829">
        <ele>63.8</ele>
        <time>2019-07-16T09:30:35Z</time>
      </trkpt>
      <trkpt lat="48.30275" lon="-1.76824">
        <ele>63.7</ele>
        <time>2019-07-16T09:30:36Z</time>
      </trkpt>
      <trkpt lat="48.30277" lon="-1.76819">
        <ele>63.6</ele>
        <time>2019-07-16T09:30:37Z</time>
      </trkpt>
      <trkpt lat="48.30281" lon="-1.76813">
        <ele>63.3</ele>
        <time>2019-07-16T09:30:38Z</time>
      </trkpt>
      <trkpt lat="48.30283" lon="-1.76808">
        <ele>63</ele>
        <time>2019-07-16T09:30:39Z</time>
      </trkpt>
      <trkpt lat="48.30286" lon="-1.76802">
        <ele>63.1</ele>
        <time>2019-07-16T09:30:40Z</time>
      </trkpt>
      <trkpt lat="48.30289" lon="-1.76797">
        <ele>62.9</ele>
        <time>2019-07-16T09:30:41Z</time>
      </trkpt>
      <trkpt lat="48.30293" lon="-1.76792">
        <ele>62.9</ele>
        <time>2019-07-16T09:30:42Z</time>
      </trkpt>
      <trkpt lat="48.30296" lon="-1.76787">
        <ele>63.2</ele>
        <time>2019-07-16T09:30:43Z</time>
      </trkpt>
      <trkpt lat="48.30299" lon="-1.76781">
        <ele>63.6</ele>
        <time>2019-07-16T09:30:44Z</time>
      </trkpt>
      <trkpt lat="48.30303" lon="-1.76774">
        <ele>63.6</ele>
        <time>2019-07-16T09:30:45Z</time>
      </trkpt>
      <trkpt lat="48.30307" lon="-1.76769">
        <ele>64</ele>
        <time>2019-07-16T09:30:46Z</time>
      </trkpt>
      <trkpt lat="48.30312" lon="-1.76764">
        <ele>64.3</ele>
        <time>2019-07-16T09:30:47Z</time>
      </trkpt>
      <trkpt lat="48.30316" lon="-1.76759">
        <ele>64.8</ele>
        <time>2019-07-16T09:30:48Z</time>
      </trkpt>
      <trkpt lat="48.3032" lon="-1.76754">
        <ele>65.2</ele>
        <time>2019-07-16T09:30:49Z</time>
      </trkpt>
      <trkpt lat="48.30324" lon="-1.76749">
        <ele>65.5</ele>
        <time>2019-07-16T09:30:50Z</time>
      </trkpt>
      <trkpt lat="48.30328" lon="-1.76743">
        <ele>65.9</ele>
        <time>2019-07-16T09:30:51Z</time>
      </trkpt>
      <trkpt lat="48.30332" lon="-1.76738">
        <ele>66.5</ele>
        <time>2019-07-16T09:30:52Z</time>
      </trkpt>
      <trkpt lat="48.30336" lon="-1.76735">
        <ele>66.9</ele>
        <time>2019-07-16T09:30:53Z</time>
      </trkpt>
      <trkpt lat="48.3034" lon="-1.76731">
        <ele>67.6</ele>
        <time>2019-07-16T09:30:54Z</time>
      </trkpt>
      <trkpt lat="48.30344" lon="-1.76727">
        <ele>68.1</ele>
        <time>2019-07-16T09:30:55Z</time>
      </trkpt>
      <trkpt lat="48.30349" lon="-1.76723">
        <ele>68.6</ele>
        <time>2019-07-16T09:30:56Z</time>
      </trkpt>
      <trkpt lat="48.30353" lon="-1.76721">
        <ele>69.1</ele>
        <time>2019-07-16T09:30:57Z</time>
      </trkpt>
      <trkpt lat="48.30356" lon="-1.76717">
        <ele>70.1</ele>
        <time>2019-07-16T09:30:58Z</time>
      </trkpt>
      <trkpt lat="48.3036" lon="-1.76714">
        <ele>70.6</ele>
        <time>2019-07-16T09:30:59Z</time>
      </trkpt>
      <trkpt lat="48.30365" lon="-1.76711">
        <ele>71.1</ele>
        <time>2019-07-16T09:31:00Z</time>
      </trkpt>
      <trkpt lat="48.30368" lon="-1.7671">
        <ele>71.8</ele>
        <time>2019-07-16T09:31:01Z</time>
      </trkpt>
      <trkpt lat="48.30372" lon="-1.76709">
        <ele>72.5</ele>
        <time>2019-07-16T09:31:02Z</time>
      </trkpt>
      <trkpt lat="48.30376" lon="-1.76706">
        <ele>73.4</ele>
        <time>2019-07-16T09:31:03Z</time>
      </trkpt>
      <trkpt lat="48.3038" lon="-1.76703">
        <ele>74.2</ele>
        <time>2019-07-16T09:31:04Z</time>
      </trkpt>
      <trkpt lat="48.30383" lon="-1.76701">
        <ele>74.8</ele>
        <time>2019-07-16T09:31:05Z</time>
      </trkpt>
      <trkpt lat="48.30387" lon="-1.76699">
        <ele>75.6</ele>
        <time>2019-07-16T09:31:06Z</time>
      </trkpt>
      <trkpt lat="48.30391" lon="-1.76697">
        <ele>76.3</ele>
        <time>2019-07-16T09:31:07Z</time>
      </trkpt>
      <trkpt lat="48.30394" lon="-1.76696">
        <ele>77.4</ele>
        <time>2019-07-16T09:31:08Z</time>
      </trkpt>
      <trkpt lat="48.30398" lon="-1.76696">
        <ele>78</ele>
        <time>2019-07-16T09:31:09Z</time>
      </trkpt>
      <trkpt lat="48.30402" lon="-1.76694">
        <ele>78.2</ele>
        <time>2019-07-16T09:31:10Z</time>
      </trkpt>
      <trkpt lat="48.30405" lon="-1.76692">
        <ele>78.7</ele>
        <time>2019-07-16T09:31:11Z</time>
      </trkpt>
      <trkpt lat="48.3041" lon="-1.76692">
        <ele>79.7</ele>
        <time>2019-07-16T09:31:12Z</time>
      </trkpt>
      <trkpt lat="48.30415" lon="-1.76691">
        <ele>80.4</ele>
        <time>2019-07-16T09:31:13Z</time>
      </trkpt>
      <trkpt lat="48.3042" lon="-1.76689">
        <ele>80.9</ele>
        <time>2019-07-16T09:31:14Z</time>
      </trkpt>
      <trkpt lat="48.30424" lon="-1.76687">
        <ele>81.2</ele>
        <time>2019-07-16T09:31:15Z</time>
      </trkpt>
      <trkpt lat="48.30429" lon="-1.76685">
        <ele>81.3</ele>
        <time>2019-07-16T09:31:16Z</time>
      </trkpt>
      <trkpt lat="48.30433" lon="-1.76682">
        <ele>81.7</ele>
        <time>2019-07-16T09:31:17Z</time>
      </trkpt>
      <trkpt lat="48.30438" lon="-1.7668">
        <ele>82.1</ele>
        <time>2019-07-16T09:31:18Z</time>
      </trkpt>
      <trkpt lat="48.30443" lon="-1.76678">
        <ele>82.5</ele>
        <time>2019-07-16T09:31:19Z</time>
      </trkpt>
      <trkpt lat="48.30448" lon="-1.76676">
        <ele>83.1</ele>
        <time>2019-07-16T09:31:20Z</time>
      </trkpt>
      <trkpt lat="48.30452" lon="-1.76673">
        <ele>83.5</ele>
        <time>2019-07-16T09:31:21Z</time>
      </trkpt>
      <trkpt lat="48.30457" lon="-1.76671">
        <ele>83.8</ele>
        <time>2019-07-16T09:31:22Z</time>
      </trkpt>
      <trkpt lat="48.30462" lon="-1.7667">
        <ele>83.6</ele>
        <time>2019-07-16T09:31:23Z</time>
      </trkpt>
      <trkpt lat="48.30466" lon="-1.76668">
        <ele>83.7</ele>
        <time>2019-07-16T09:31:24Z</time>
      </trkpt>
      <trkpt lat="48.30471" lon="-1.76667">
        <ele>84.1</ele>
        <time>2019-07-16T09:31:25Z</time>
      </trkpt>
      <trkpt lat="48.30475" lon="-1.76666">
        <ele>84.5</ele>
        <time>2019-07-16T09:31:26Z</time>
      </trkpt>
      <trkpt lat="48.3048" lon="-1.76664">
        <ele>84.3</ele>
        <time>2019-07-16T09:31:27Z</time>
      </trkpt>
      <trkpt lat="48.30484" lon="-1.76661">
        <ele>84.6</ele>
        <time>2019-07-16T09:31:28Z</time>
      </trkpt>
      <trkpt lat="48.30489" lon="-1.76659">
        <ele>85</ele>
        <time>2019-07-16T09:31:29Z</time>
      </trkpt>
      <trkpt lat="48.30493" lon="-1.76656">
        <ele>85.3</ele>
        <time>2019-07-16T09:31:30Z</time>
      </trkpt>
      <trkpt lat="48.30497" lon="-1.76654">
        <ele>85.6</ele>
        <time>2019-07-16T09:31:31Z</time>
      </trkpt>
      <trkpt lat="48.30501" lon="-1.76651">
        <ele>85.9</ele>
        <time>2019-07-16T09:31:32Z</time>
      </trkpt>
      <trkpt lat="48.30505" lon="-1.76648">
        <ele>85.8</ele>
        <time>2019-07-16T09:31:33Z</time>
      </trkpt>
      <trkpt lat="48.30509" lon="-1.76645">
        <ele>85.8</ele>
        <time>2019-07-16T09:31:34Z</time>
      </trkpt>
      <trkpt lat="48.30513" lon="-1.76642">
        <ele>85.8</ele>
        <time>2019-07-16T09:31:35Z</time>
      </trkpt>
      <trkpt lat="48.30516" lon="-1.7664">
        <ele>85.8</ele>
        <time>2019-07-16T09:31:36Z</time>
      </trkpt>
      <trkpt lat="48.3052" lon="-1.76638">
        <ele>85.9</ele>
        <time>2019-07-16T09:31:37Z</time>
      </trkpt>
      <trkpt lat="48.30524" lon="-1.76636">
        <ele>86.1</ele>
        <time>2019-07-16T09:31:38Z</time>
      </trkpt>
      <trkpt lat="48.30527" lon="-1.76634">
        <ele>86.1</ele>
        <time>2019-07-16T09:31:39Z</time>
      </trkpt>
      <trkpt lat="48.30531" lon="-1.76631">
        <ele>86.2</ele>
        <time>2019-07-16T09:31:40Z</time>
      </trkpt>
      <trkpt lat="48.30534" lon="-1.76628">
        <ele>86.2</ele>
        <time>2019-07-16T09:31:41Z</time>
      </trkpt>
      <trkpt lat="48.30538" lon="-1.76624">
        <ele>86.1</ele>
        <time>2019-07-16T09:31:42Z</time>
      </trkpt>
      <trkpt lat="48.30541" lon="-1.7662">
        <ele>86.6</ele>
        <time>2019-07-16T09:31:43Z</time>
      </trkpt>
      <trkpt lat="48.30545" lon="-1.76615">
        <ele>87.9</ele>
        <time>2019-07-16T09:31:44Z</time>
      </trkpt>
      <trkpt lat="48.30549" lon="-1.76611">
        <ele>88.7</ele>
        <time>2019-07-16T09:31:45Z</time>
      </trkpt>
      <trkpt lat="48.30553" lon="-1.76607">
        <ele>88.9</ele>
        <time>2019-07-16T09:31:46Z</time>
      </trkpt>
      <trkpt lat="48.30557" lon="-1.76603">
        <ele>88.7</ele>
        <time>2019-07-16T09:31:47Z</time>
      </trkpt>
      <trkpt lat="48.3056" lon="-1.76598">
        <ele>88.9</ele>
        <time>2019-07-16T09:31:48Z</time>
      </trkpt>
      <trkpt lat="48.30563" lon="-1.76593">
        <ele>88.5</ele>
        <time>2019-07-16T09:31:49Z</time>
      </trkpt>
      <trkpt lat="48.30567" lon="-1.76588">
        <ele>88.2</ele>
        <time>2019-07-16T09:31:50Z</time>
      </trkpt>
      <trkpt lat="48.3057" lon="-1.76583">
        <ele>88.1</ele>
        <time>2019-07-16T09:31:51Z</time>
      </trkpt>
      <trkpt lat="48.30574" lon="-1.76577">
        <ele>86.9</ele>
        <time>2019-07-16T09:31:52Z</time>
      </trkpt>
      <trkpt lat="48.30577" lon="-1.76571">
        <ele>86.2</ele>
        <time>2019-07-16T09:31:53Z</time>
      </trkpt>
      <trkpt lat="48.3058" lon="-1.76566">
        <ele>85.2</ele>
        <time>2019-07-16T09:31:54Z</time>
      </trkpt>
      <trkpt lat="48.30583" lon="-1.76561">
        <ele>84.3</ele>
        <time>2019-07-16T09:31:55Z</time>
      </trkpt>
      <trkpt lat="48.30586" lon="-1.76556">
        <ele>84.1</ele>
        <time>2019-07-16T09:31:56Z</time>
      </trkpt>
      <trkpt lat="48.30588" lon="-1.76551">
        <ele>84</ele>
        <time>2019-07-16T09:31:57Z</time>
      </trkpt>
      <trkpt lat="48.3059" lon="-1.76545">
        <ele>83.3</ele>
        <time>2019-07-16T09:31:58Z</time>
      </trkpt>
      <trkpt lat="48.30594" lon="-1.76539">
        <ele>83</ele>
        <time>2019-07-16T09:31:59Z</time>
      </trkpt>
      <trkpt lat="48.30596" lon="-1.76533">
        <ele>82.4</ele>
        <time>2019-07-16T09:32:00Z</time>
      </trkpt>
      <trkpt lat="48.30599" lon="-1.76526">
        <ele>82</ele>
        <time>2019-07-16T09:32:01Z</time>
      </trkpt>
      <trkpt lat="48.30602" lon="-1.7652">
        <ele>81.9</ele>
        <time>2019-07-16T09:32:02Z</time>
      </trkpt>
      <trkpt lat="48.30604" lon="-1.76515">
        <ele>81.3</ele>
        <time>2019-07-16T09:32:03Z</time>
      </trkpt>
      <trkpt lat="48.30606" lon="-1.76509">
        <ele>80</ele>
        <time>2019-07-16T09:32:04Z</time>
      </trkpt>
      <trkpt lat="48.30608" lon="-1.76504">
        <ele>79.7</ele>
        <time>2019-07-16T09:32:05Z</time>
      </trkpt>
      <trkpt lat="48.30611" lon="-1.765">
        <ele>79.2</ele>
        <time>2019-07-16T09:32:06Z</time>
      </trkpt>
      <trkpt lat="48.30613" lon="-1.76494">
        <ele>78.5</ele>
        <time>2019-07-16T09:32:07Z</time>
      </trkpt>
      <trkpt lat="48.30615" lon="-1.76488">
        <ele>77.9</ele>
        <time>2019-07-16T09:32:08Z</time>
      </trkpt>
      <trkpt lat="48.30617" lon="-1.76481">
        <ele>77.5</ele>
        <time>2019-07-16T09:32:09Z</time>
      </trkpt>
      <trkpt lat="48.30619" lon="-1.76474">
        <ele>77.1</ele>
        <time>2019-07-16T09:32:10Z</time>
      </trkpt>
      <trkpt lat="48.30622" lon="-1.76468">
        <ele>76.7</ele>
        <time>2019-07-16T09:32:11Z</time>
      </trkpt>
      <trkpt lat="48.30624" lon="-1.7646">
        <ele>76.4</ele>
        <time>2019-07-16T09:32:12Z</time>
      </trkpt>
      <trkpt lat="48.30626" lon="-1.76451">
        <ele>76.2</ele>
        <time>2019-07-16T09:32:13Z</time>
      </trkpt>
      <trkpt lat="48.30628" lon="-1.76441">
        <ele>75.9</ele>
        <time>2019-07-16T09:32:14Z</time>
      </trkpt>
      <trkpt lat="48.3063" lon="-1.76432">
        <ele>75.5</ele>
        <time>2019-07-16T09:32:15Z</time>
      </trkpt>
      <trkpt lat="48.30631" lon="-1.76423">
        <ele>75.3</ele>
        <time>2019-07-16T09:32:16Z</time>
      </trkpt>
      <trkpt lat="48.30632" lon="-1.76416">
        <ele>74.9</ele>
        <time>2019-07-16T09:32:17Z</time>
      </trkpt>
      <trkpt lat="48.30634" lon="-1.76407">
        <ele>74.3</ele>
        <time>2019-07-16T09:32:18Z</time>
      </trkpt>
      <trkpt lat="48.30636" lon="-1.764">
        <ele>73.8</ele>
        <time>2019-07-16T09:32:19Z</time>
      </trkpt>
      <trkpt lat="48.30638" lon="-1.76393">
        <ele>73.3</ele>
        <time>2019-07-16T09:32:20Z</time>
      </trkpt>
      <trkpt lat="48.30641" lon="-1.76387">
        <ele>72.3</ele>
        <time>2019-07-16T09:32:21Z</time>
      </trkpt>
      <trkpt lat="48.30642" lon="-1.7638">
        <ele>70.9</ele>
        <time>2019-07-16T09:32:22Z</time>
      </trkpt>
      <trkpt lat="48.30644" lon="-1.76374">
        <ele>70</ele>
        <time>2019-07-16T09:32:23Z</time>
      </trkpt>
      <trkpt lat="48.30645" lon="-1.76366">
        <ele>68.9</ele>
        <time>2019-07-16T09:32:24Z</time>
      </trkpt>
      <trkpt lat="48.30647" lon="-1.76358">
        <ele>68.1</ele>
        <time>2019-07-16T09:32:25Z</time>
      </trkpt>
      <trkpt lat="48.30648" lon="-1.7635">
        <ele>67.3</ele>
        <time>2019-07-16T09:32:26Z</time>
      </trkpt>
      <trkpt lat="48.30649" lon="-1.76342">
        <ele>66.7</ele>
        <time>2019-07-16T09:32:27Z</time>
      </trkpt>
      <trkpt lat="48.30651" lon="-1.76335">
        <ele>66.3</ele>
        <time>2019-07-16T09:32:28Z</time>
      </trkpt>
      <trkpt lat="48.30653" lon="-1.76327">
        <ele>65.7</ele>
        <time>2019-07-16T09:32:29Z</time>
      </trkpt>
      <trkpt lat="48.30656" lon="-1.76321">
        <ele>65.1</ele>
        <time>2019-07-16T09:32:30Z</time>
      </trkpt>
      <trkpt lat="48.30658" lon="-1.76314">
        <ele>64.4</ele>
        <time>2019-07-16T09:32:31Z</time>
      </trkpt>
      <trkpt lat="48.30659" lon="-1.76306">
        <ele>63.5</ele>
        <time>2019-07-16T09:32:32Z</time>
      </trkpt>
      <trkpt lat="48.30661" lon="-1.763">
        <ele>63.3</ele>
        <time>2019-07-16T09:32:33Z</time>
      </trkpt>
      <trkpt lat="48.30664" lon="-1.76293">
        <ele>63</ele>
        <time>2019-07-16T09:32:34Z</time>
      </trkpt>
      <trkpt lat="48.30666" lon="-1.76287">
        <ele>63</ele>
        <time>2019-07-16T09:32:35Z</time>
      </trkpt>
      <trkpt lat="48.30669" lon="-1.76281">
        <ele>62.6</ele>
        <time>2019-07-16T09:32:36Z</time>
      </trkpt>
      <trkpt lat="48.3067" lon="-1.76275">
        <ele>62</ele>
        <time>2019-07-16T09:32:37Z</time>
      </trkpt>
      <trkpt lat="48.30673" lon="-1.76269">
        <ele>61.3</ele>
        <time>2019-07-16T09:32:38Z</time>
      </trkpt>
      <trkpt lat="48.30676" lon="-1.76265">
        <ele>61</ele>
        <time>2019-07-16T09:32:39Z</time>
      </trkpt>
      <trkpt lat="48.30677" lon="-1.76261">
        <ele>60.3</ele>
        <time>2019-07-16T09:32:40Z</time>
      </trkpt>
      <trkpt lat="48.3068" lon="-1.76255">
        <ele>59.9</ele>
        <time>2019-07-16T09:32:41Z</time>
      </trkpt>
      <trkpt lat="48.30683" lon="-1.76249">
        <ele>59.8</ele>
        <time>2019-07-16T09:32:42Z</time>
      </trkpt>
      <trkpt lat="48.30685" lon="-1.76244">
        <ele>59.6</ele>
        <time>2019-07-16T09:32:43Z</time>
      </trkpt>
      <trkpt lat="48.30687" lon="-1.76239">
        <ele>59.4</ele>
        <time>2019-07-16T09:32:44Z</time>
      </trkpt>
      <trkpt lat="48.3069" lon="-1.76234">
        <ele>59.3</ele>
        <time>2019-07-16T09:32:45Z</time>
      </trkpt>
      <trkpt lat="48.30693" lon="-1.7623">
        <ele>59</ele>
        <time>2019-07-16T09:32:46Z</time>
      </trkpt>
      <trkpt lat="48.30697" lon="-1.76225">
        <ele>59.5</ele>
        <time>2019-07-16T09:32:47Z</time>
      </trkpt>
      <trkpt lat="48.307" lon="-1.76218">
        <ele>59.4</ele>
        <time>2019-07-16T09:32:48Z</time>
      </trkpt>
      <trkpt lat="48.30703" lon="-1.76213">
        <ele>59.2</ele>
        <time>2019-07-16T09:32:49Z</time>
      </trkpt>
      <trkpt lat="48.30706" lon="-1.76206">
        <ele>58.9</ele>
        <time>2019-07-16T09:32:50Z</time>
      </trkpt>
      <trkpt lat="48.30708" lon="-1.762">
        <ele>59</ele>
        <time>2019-07-16T09:32:51Z</time>
      </trkpt>
      <trkpt lat="48.30712" lon="-1.76195">
        <ele>59</ele>
        <time>2019-07-16T09:32:52Z</time>
      </trkpt>
      <trkpt lat="48.30715" lon="-1.7619">
        <ele>59.1</ele>
        <time>2019-07-16T09:32:53Z</time>
      </trkpt>
      <trkpt lat="48.30718" lon="-1.76185">
        <ele>59.5</ele>
        <time>2019-07-16T09:32:54Z</time>
      </trkpt>
      <trkpt lat="48.30721" lon="-1.76179">
        <ele>59.8</ele>
        <time>2019-07-16T09:32:55Z</time>
      </trkpt>
      <trkpt lat="48.30724" lon="-1.76174">
        <ele>60.1</ele>
        <time>2019-07-16T09:32:56Z</time>
      </trkpt>
      <trkpt lat="48.30727" lon="-1.76167">
        <ele>60.9</ele>
        <time>2019-07-16T09:32:57Z</time>
      </trkpt>
      <trkpt lat="48.3073" lon="-1.7616">
        <ele>61.9</ele>
        <time>2019-07-16T09:32:58Z</time>
      </trkpt>
      <trkpt lat="48.30733" lon="-1.76155">
        <ele>63.1</ele>
        <time>2019-07-16T09:32:59Z</time>
      </trkpt>
      <trkpt lat="48.30737" lon="-1.76149">
        <ele>64.1</ele>
        <time>2019-07-16T09:33:00Z</time>
      </trkpt>
      <trkpt lat="48.3074" lon="-1.76143">
        <ele>65.5</ele>
        <time>2019-07-16T09:33:01Z</time>
      </trkpt>
      <trkpt lat="48.30744" lon="-1.76139">
        <ele>66.2</ele>
        <time>2019-07-16T09:33:02Z</time>
      </trkpt>
      <trkpt lat="48.30748" lon="-1.76134">
        <ele>66.9</ele>
        <time>2019-07-16T09:33:03Z</time>
      </trkpt>
      <trkpt lat="48.30752" lon="-1.7613">
        <ele>67.7</ele>
        <time>2019-07-16T09:33:04Z</time>
      </trkpt>
      <trkpt lat="48.30757" lon="-1.76126">
        <ele>68.6</ele>
        <time>2019-07-16T09:33:05Z</time>
      </trkpt>
      <trkpt lat="48.30761" lon="-1.76121">
        <ele>69.1</ele>
        <time>2019-07-16T09:33:06Z</time>
      </trkpt>
      <trkpt lat="48.30765" lon="-1.76118">
        <ele>69.8</ele>
        <time>2019-07-16T09:33:07Z</time>
      </trkpt>
      <trkpt lat="48.30769" lon="-1.76114">
        <ele>70.6</ele>
        <time>2019-07-16T09:33:08Z</time>
      </trkpt>
      <trkpt lat="48.30773" lon="-1.7611">
        <ele>71.1</ele>
        <time>2019-07-16T09:33:09Z</time>
      </trkpt>
      <trkpt lat="48.30777" lon="-1.76106">
        <ele>71.1</ele>
        <time>2019-07-16T09:33:10Z</time>
      </trkpt>
      <trkpt lat="48.3078" lon="-1.76103">
        <ele>71.6</ele>
        <time>2019-07-16T09:33:11Z</time>
      </trkpt>
      <trkpt lat="48.30784" lon="-1.761">
        <ele>71.9</ele>
        <time>2019-07-16T09:33:12Z</time>
      </trkpt>
      <trkpt lat="48.30788" lon="-1.76096">
        <ele>72.3</ele>
        <time>2019-07-16T09:33:13Z</time>
      </trkpt>
      <trkpt lat="48.30791" lon="-1.76093">
        <ele>73.1</ele>
        <time>2019-07-16T09:33:14Z</time>
      </trkpt>
      <trkpt lat="48.30794" lon="-1.7609">
        <ele>73.3</ele>
        <time>2019-07-16T09:33:15Z</time>
      </trkpt>
      <trkpt lat="48.30798" lon="-1.76088">
        <ele>73.8</ele>
        <time>2019-07-16T09:33:16Z</time>
      </trkpt>
      <trkpt lat="48.30801" lon="-1.76087">
        <ele>73.8</ele>
        <time>2019-07-16T09:33:17Z</time>
      </trkpt>
      <trkpt lat="48.30805" lon="-1.76085">
        <ele>74.2</ele>
        <time>2019-07-16T09:33:18Z</time>
      </trkpt>
      <trkpt lat="48.30809" lon="-1.76083">
        <ele>74.3</ele>
        <time>2019-07-16T09:33:19Z</time>
      </trkpt>
      <trkpt lat="48.30812" lon="-1.76082">
        <ele>74.5</ele>
        <time>2019-07-16T09:33:20Z</time>
      </trkpt>
      <trkpt lat="48.30816" lon="-1.7608">
        <ele>74.1</ele>
        <time>2019-07-16T09:33:21Z</time>
      </trkpt>
      <trkpt lat="48.30819" lon="-1.76079">
        <ele>73.9</ele>
        <time>2019-07-16T09:33:22Z</time>
      </trkpt>
      <trkpt lat="48.30822" lon="-1.76077">
        <ele>73.9</ele>
        <time>2019-07-16T09:33:23Z</time>
      </trkpt>
      <trkpt lat="48.30826" lon="-1.76076">
        <ele>74.1</ele>
        <time>2019-07-16T09:33:24Z</time>
      </trkpt>
      <trkpt lat="48.30829" lon="-1.76074">
        <ele>74.8</ele>
        <time>2019-07-16T09:33:25Z</time>
      </trkpt>
      <trkpt lat="48.30832" lon="-1.76073">
        <ele>75.5</ele>
        <time>2019-07-16T09:33:26Z</time>
      </trkpt>
      <trkpt lat="48.30835" lon="-1.76071">
        <ele>75.9</ele>
        <time>2019-07-16T09:33:27Z</time>
      </trkpt>
      <trkpt lat="48.30838" lon="-1.7607">
        <ele>76.2</ele>
        <time>2019-07-16T09:33:28Z</time>
      </trkpt>
      <trkpt lat="48.30842" lon="-1.76068">
        <ele>76.9</ele>
        <time>2019-07-16T09:33:29Z</time>
      </trkpt>
      <trkpt lat="48.30845" lon="-1.76067">
        <ele>77.5</ele>
        <time>2019-07-16T09:33:30Z</time>
      </trkpt>
      <trkpt lat="48.30849" lon="-1.76065">
        <ele>78.1</ele>
        <time>2019-07-16T09:33:31Z</time>
      </trkpt>
      <trkpt lat="48.30852" lon="-1.76064">
        <ele>78.5</ele>
        <time>2019-07-16T09:33:32Z</time>
      </trkpt>
      <trkpt lat="48.30856" lon="-1.76063">
        <ele>79.1</ele>
        <time>2019-07-16T09:33:33Z</time>
      </trkpt>
      <trkpt lat="48.30859" lon="-1.76062">
        <ele>79.5</ele>
        <time>2019-07-16T09:33:34Z</time>
      </trkpt>
      <trkpt lat="48.30862" lon="-1.76061">
        <ele>79.8</ele>
        <time>2019-07-16T09:33:35Z</time>
      </trkpt>
      <trkpt lat="48.30866" lon="-1.7606">
        <ele>80</ele>
        <time>2019-07-16T09:33:36Z</time>
      </trkpt>
      <trkpt lat="48.30869" lon="-1.7606">
        <ele>80.4</ele>
        <time>2019-07-16T09:33:37Z</time>
      </trkpt>
      <trkpt lat="48.30872" lon="-1.76058">
        <ele>81</ele>
        <time>2019-07-16T09:33:38Z</time>
      </trkpt>
      <trkpt lat="48.30876" lon="-1.76058">
        <ele>81.4</ele>
        <time>2019-07-16T09:33:39Z</time>
      </trkpt>
      <trkpt lat="48.30879" lon="-1.76058">
        <ele>82</ele>
        <time>2019-07-16T09:33:40Z</time>
      </trkpt>
      <trkpt lat="48.30883" lon="-1.76057">
        <ele>82.5</ele>
        <time>2019-07-16T09:33:41Z</time>
      </trkpt>
      <trkpt lat="48.30887" lon="-1.76056">
        <ele>82.1</ele>
        <time>2019-07-16T09:33:42Z</time>
      </trkpt>
      <trkpt lat="48.30891" lon="-1.76056">
        <ele>81.3</ele>
        <time>2019-07-16T09:33:43Z</time>
      </trkpt>
      <trkpt lat="48.30895" lon="-1.76055">
        <ele>81.5</ele>
        <time>2019-07-16T09:33:44Z</time>
      </trkpt>
      <trkpt lat="48.30898" lon="-1.76054">
        <ele>81.3</ele>
        <time>2019-07-16T09:33:45Z</time>
      </trkpt>
      <trkpt lat="48.30901" lon="-1.76052">
        <ele>81.5</ele>
        <time>2019-07-16T09:33:46Z</time>
      </trkpt>
      <trkpt lat="48.30904" lon="-1.76052">
        <ele>81.4</ele>
        <time>2019-07-16T09:33:47Z</time>
      </trkpt>
      <trkpt lat="48.30908" lon="-1.76052">
        <ele>81.9</ele>
        <time>2019-07-16T09:33:48Z</time>
      </trkpt>
      <trkpt lat="48.30911" lon="-1.76053">
        <ele>82.4</ele>
        <time>2019-07-16T09:33:49Z</time>
      </trkpt>
      <trkpt lat="48.30913" lon="-1.76054">
        <ele>82.7</ele>
        <time>2019-07-16T09:33:50Z</time>
      </trkpt>
      <trkpt lat="48.30917" lon="-1.76055">
        <ele>82.9</ele>
        <time>2019-07-16T09:33:51Z</time>
      </trkpt>
      <trkpt lat="48.3092" lon="-1.76056">
        <ele>82.6</ele>
        <time>2019-07-16T09:33:52Z</time>
      </trkpt>
      <trkpt lat="48.30924" lon="-1.76054">
        <ele>82.3</ele>
        <time>2019-07-16T09:33:53Z</time>
      </trkpt>
      <trkpt lat="48.30928" lon="-1.76053">
        <ele>81.7</ele>
        <time>2019-07-16T09:33:54Z</time>
      </trkpt>
      <trkpt lat="48.30932" lon="-1.76053">
        <ele>81.7</ele>
        <time>2019-07-16T09:33:55Z</time>
      </trkpt>
      <trkpt lat="48.30936" lon="-1.76054">
        <ele>81.9</ele>
        <time>2019-07-16T09:33:56Z</time>
      </trkpt>
      <trkpt lat="48.30941" lon="-1.76055">
        <ele>82.1</ele>
        <time>2019-07-16T09:33:57Z</time>
      </trkpt>
      <trkpt lat="48.30944" lon="-1.76055">
        <ele>82.3</ele>
        <time>2019-07-16T09:33:58Z</time>
      </trkpt>
      <trkpt lat="48.30949" lon="-1.76056">
        <ele>82.3</ele>
        <time>2019-07-16T09:33:59Z</time>
      </trkpt>
      <trkpt lat="48.30953" lon="-1.76055">
        <ele>82.3</ele>
        <time>2019-07-16T09:34:00Z</time>
      </trkpt>
      <trkpt lat="48.30957" lon="-1.76055">
        <ele>82.2</ele>
        <time>2019-07-16T09:34:01Z</time>
      </trkpt>
      <trkpt lat="48.30962" lon="-1.76056">
        <ele>82.1</ele>
        <time>2019-07-16T09:34:02Z</time>
      </trkpt>
      <trkpt lat="48.30966" lon="-1.76057">
        <ele>81.7</ele>
        <time>2019-07-16T09:34:03Z</time>
      </trkpt>
      <trkpt lat="48.3097" lon="-1.76058">
        <ele>81.5</ele>
        <time>2019-07-16T09:34:04Z</time>
      </trkpt>
      <trkpt lat="48.30977" lon="-1.76058">
        <ele>81.5</ele>
        <time>2019-07-16T09:34:05Z</time>
      </trkpt>
      <trkpt lat="48.30981" lon="-1.76058">
        <ele>81.6</ele>
        <time>2019-07-16T09:34:06Z</time>
      </trkpt>
      <trkpt lat="48.30986" lon="-1.76059">
        <ele>81.7</ele>
        <time>2019-07-16T09:34:07Z</time>
      </trkpt>
      <trkpt lat="48.30991" lon="-1.76059">
        <ele>81.6</ele>
        <time>2019-07-16T09:34:08Z</time>
      </trkpt>
      <trkpt lat="48.30996" lon="-1.76059">
        <ele>81.3</ele>
        <time>2019-07-16T09:34:09Z</time>
      </trkpt>
      <trkpt lat="48.31001" lon="-1.7606">
        <ele>81.1</ele>
        <time>2019-07-16T09:34:10Z</time>
      </trkpt>
      <trkpt lat="48.31006" lon="-1.76061">
        <ele>81.3</ele>
        <time>2019-07-16T09:34:11Z</time>
      </trkpt>
      <trkpt lat="48.3101" lon="-1.76063">
        <ele>81.7</ele>
        <time>2019-07-16T09:34:12Z</time>
      </trkpt>
      <trkpt lat="48.31015" lon="-1.76061">
        <ele>81.5</ele>
        <time>2019-07-16T09:34:13Z</time>
      </trkpt>
      <trkpt lat="48.31019" lon="-1.76061">
        <ele>81.7</ele>
        <time>2019-07-16T09:34:14Z</time>
      </trkpt>
      <trkpt lat="48.31024" lon="-1.76062">
        <ele>81.2</ele>
        <time>2019-07-16T09:34:15Z</time>
      </trkpt>
      <trkpt lat="48.31029" lon="-1.76062">
        <ele>80.7</ele>
        <time>2019-07-16T09:34:16Z</time>
      </trkpt>
      <trkpt lat="48.31034" lon="-1.76063">
        <ele>79.6</ele>
        <time>2019-07-16T09:34:17Z</time>
      </trkpt>
      <trkpt lat="48.31039" lon="-1.76063">
        <ele>78.7</ele>
        <time>2019-07-16T09:34:18Z</time>
      </trkpt>
      <trkpt lat="48.31043" lon="-1.76063">
        <ele>78.5</ele>
        <time>2019-07-16T09:34:19Z</time>
      </trkpt>
      <trkpt lat="48.31047" lon="-1.76062">
        <ele>78.1</ele>
        <time>2019-07-16T09:34:20Z</time>
      </trkpt>
      <trkpt lat="48.31052" lon="-1.76063">
        <ele>78.1</ele>
        <time>2019-07-16T09:34:21Z</time>
      </trkpt>
      <trkpt lat="48.31056" lon="-1.76064">
        <ele>78</ele>
        <time>2019-07-16T09:34:22Z</time>
      </trkpt>
      <trkpt lat="48.3106" lon="-1.76065">
        <ele>77.8</ele>
        <time>2019-07-16T09:34:23Z</time>
      </trkpt>
      <trkpt lat="48.31064" lon="-1.76066">
        <ele>77.4</ele>
        <time>2019-07-16T09:34:24Z</time>
      </trkpt>
      <trkpt lat="48.31068" lon="-1.76068">
        <ele>77</ele>
        <time>2019-07-16T09:34:25Z</time>
      </trkpt>
      <trkpt lat="48.31073" lon="-1.7607">
        <ele>76.9</ele>
        <time>2019-07-16T09:34:26Z</time>
      </trkpt>
      <trkpt lat="48.31078" lon="-1.76072">
        <ele>76.8</ele>
        <time>2019-07-16T09:34:27Z</time>
      </trkpt>
      <trkpt lat="48.31082" lon="-1.76074">
        <ele>76.6</ele>
        <time>2019-07-16T09:34:28Z</time>
      </trkpt>
      <trkpt lat="48.31087" lon="-1.76077">
        <ele>76.4</ele>
        <time>2019-07-16T09:34:29Z</time>
      </trkpt>
      <trkpt lat="48.31092" lon="-1.76079">
        <ele>75.6</ele>
        <time>2019-07-16T09:34:30Z</time>
      </trkpt>
      <trkpt lat="48.31096" lon="-1.76082">
        <ele>75.4</ele>
        <time>2019-07-16T09:34:31Z</time>
      </trkpt>
      <trkpt lat="48.311" lon="-1.76085">
        <ele>75.1</ele>
        <time>2019-07-16T09:34:32Z</time>
      </trkpt>
      <trkpt lat="48.31104" lon="-1.76089">
        <ele>75</ele>
        <time>2019-07-16T09:34:33Z</time>
      </trkpt>
      <trkpt lat="48.31107" lon="-1.76093">
        <ele>74.9</ele>
        <time>2019-07-16T09:34:34Z</time>
      </trkpt>
      <trkpt lat="48.3111" lon="-1.76098">
        <ele>74.9</ele>
        <time>2019-07-16T09:34:35Z</time>
      </trkpt>
      <trkpt lat="48.31114" lon="-1.76102">
        <ele>75.2</ele>
        <time>2019-07-16T09:34:36Z</time>
      </trkpt>
      <trkpt lat="48.31117" lon="-1.76106">
        <ele>75</ele>
        <time>2019-07-16T09:34:37Z</time>
      </trkpt>
      <trkpt lat="48.31121" lon="-1.76111">
        <ele>74.8</ele>
        <time>2019-07-16T09:34:38Z</time>
      </trkpt>
      <trkpt lat="48.31123" lon="-1.76115">
        <ele>74.8</ele>
        <time>2019-07-16T09:34:39Z</time>
      </trkpt>
      <trkpt lat="48.31126" lon="-1.76119">
        <ele>74.6</ele>
        <time>2019-07-16T09:34:40Z</time>
      </trkpt>
      <trkpt lat="48.3113" lon="-1.76121">
        <ele>74.4</ele>
        <time>2019-07-16T09:34:41Z</time>
      </trkpt>
      <trkpt lat="48.31132" lon="-1.76124">
        <ele>74.2</ele>
        <time>2019-07-16T09:34:42Z</time>
      </trkpt>
      <trkpt lat="48.31135" lon="-1.76128">
        <ele>74</ele>
        <time>2019-07-16T09:34:43Z</time>
      </trkpt>
      <trkpt lat="48.31138" lon="-1.76131">
        <ele>73.7</ele>
        <time>2019-07-16T09:34:44Z</time>
      </trkpt>
      <trkpt lat="48.31141" lon="-1.76136">
        <ele>73</ele>
        <time>2019-07-16T09:34:45Z</time>
      </trkpt>
      <trkpt lat="48.31144" lon="-1.7614">
        <ele>72.4</ele>
        <time>2019-07-16T09:34:46Z</time>
      </trkpt>
      <trkpt lat="48.31147" lon="-1.76145">
        <ele>71.8</ele>
        <time>2019-07-16T09:34:47Z</time>
      </trkpt>
      <trkpt lat="48.3115" lon="-1.7615">
        <ele>70.9</ele>
        <time>2019-07-16T09:34:48Z</time>
      </trkpt>
      <trkpt lat="48.31156" lon="-1.76156">
        <ele>71.3</ele>
        <time>2019-07-16T09:34:49Z</time>
      </trkpt>
      <trkpt lat="48.3116" lon="-1.76161">
        <ele>71.5</ele>
        <time>2019-07-16T09:34:50Z</time>
      </trkpt>
      <trkpt lat="48.31164" lon="-1.76167">
        <ele>71.6</ele>
        <time>2019-07-16T09:34:51Z</time>
      </trkpt>
      <trkpt lat="48.31168" lon="-1.76172">
        <ele>71.8</ele>
        <time>2019-07-16T09:34:52Z</time>
      </trkpt>
      <trkpt lat="48.31171" lon="-1.76177">
        <ele>71.8</ele>
        <time>2019-07-16T09:34:53Z</time>
      </trkpt>
      <trkpt lat="48.31174" lon="-1.76182">
        <ele>71.7</ele>
        <time>2019-07-16T09:34:54Z</time>
      </trkpt>
      <trkpt lat="48.31177" lon="-1.76187">
        <ele>71.7</ele>
        <time>2019-07-16T09:34:55Z</time>
      </trkpt>
      <trkpt lat="48.3118" lon="-1.76191">
        <ele>71.6</ele>
        <time>2019-07-16T09:34:56Z</time>
      </trkpt>
      <trkpt lat="48.31184" lon="-1.76195">
        <ele>71.2</ele>
        <time>2019-07-16T09:34:57Z</time>
      </trkpt>
      <trkpt lat="48.31187" lon="-1.762">
        <ele>70.3</ele>
        <time>2019-07-16T09:34:58Z</time>
      </trkpt>
      <trkpt lat="48.31191" lon="-1.76203">
        <ele>69.9</ele>
        <time>2019-07-16T09:34:59Z</time>
      </trkpt>
      <trkpt lat="48.31194" lon="-1.76207">
        <ele>69.4</ele>
        <time>2019-07-16T09:35:00Z</time>
      </trkpt>
      <trkpt lat="48.31198" lon="-1.76211">
        <ele>69.5</ele>
        <time>2019-07-16T09:35:01Z</time>
      </trkpt>
      <trkpt lat="48.31202" lon="-1.76216">
        <ele>69.1</ele>
        <time>2019-07-16T09:35:02Z</time>
      </trkpt>
      <trkpt lat="48.31206" lon="-1.76219">
        <ele>68.6</ele>
        <time>2019-07-16T09:35:03Z</time>
      </trkpt>
      <trkpt lat="48.3121" lon="-1.76222">
        <ele>68.4</ele>
        <time>2019-07-16T09:35:04Z</time>
      </trkpt>
      <trkpt lat="48.31214" lon="-1.76225">
        <ele>68.4</ele>
        <time>2019-07-16T09:35:05Z</time>
      </trkpt>
      <trkpt lat="48.31218" lon="-1.76228">
        <ele>68.5</ele>
        <time>2019-07-16T09:35:06Z</time>
      </trkpt>
      <trkpt lat="48.31222" lon="-1.7623">
        <ele>68.3</ele>
        <time>2019-07-16T09:35:07Z</time>
      </trkpt>
      <trkpt lat="48.31226" lon="-1.76232">
        <ele>68</ele>
        <time>2019-07-16T09:35:08Z</time>
      </trkpt>
      <trkpt lat="48.3123" lon="-1.76234">
        <ele>68.1</ele>
        <time>2019-07-16T09:35:09Z</time>
      </trkpt>
      <trkpt lat="48.31234" lon="-1.76236">
        <ele>68.4</ele>
        <time>2019-07-16T09:35:10Z</time>
      </trkpt>
      <trkpt lat="48.31239" lon="-1.76238">
        <ele>68.7</ele>
        <time>2019-07-16T09:35:11Z</time>
      </trkpt>
      <trkpt lat="48.31243" lon="-1.76239">
        <ele>68.9</ele>
        <time>2019-07-16T09:35:12Z</time>
      </trkpt>
      <trkpt lat="48.31247" lon="-1.7624">
        <ele>68.8</ele>
        <time>2019-07-16T09:35:13Z</time>
      </trkpt>
      <trkpt lat="48.31252" lon="-1.76241">
        <ele>68.7</ele>
        <time>2019-07-16T09:35:14Z</time>
      </trkpt>
      <trkpt lat="48.31256" lon="-1.76243">
        <ele>68.7</ele>
        <time>2019-07-16T09:35:15Z</time>
      </trkpt>
      <trkpt lat="48.3126" lon="-1.76244">
        <ele>69</ele>
        <time>2019-07-16T09:35:16Z</time>
      </trkpt>
      <trkpt lat="48.31265" lon="-1.76246">
        <ele>69.3</ele>
        <time>2019-07-16T09:35:17Z</time>
      </trkpt>
      <trkpt lat="48.3127" lon="-1.76246">
        <ele>69.5</ele>
        <time>2019-07-16T09:35:18Z</time>
      </trkpt>
      <trkpt lat="48.31274" lon="-1.76247">
        <ele>69.6</ele>
        <time>2019-07-16T09:35:19Z</time>
      </trkpt>
      <trkpt lat="48.31279" lon="-1.76248">
        <ele>69.7</ele>
        <time>2019-07-16T09:35:20Z</time>
      </trkpt>
      <trkpt lat="48.31284" lon="-1.76248">
        <ele>69.8</ele>
        <time>2019-07-16T09:35:21Z</time>
      </trkpt>
      <trkpt lat="48.31288" lon="-1.76248">
        <ele>69.9</ele>
        <time>2019-07-16T09:35:22Z</time>
      </trkpt>
      <trkpt lat="48.31293" lon="-1.76247">
        <ele>69.8</ele>
        <time>2019-07-16T09:35:23Z</time>
      </trkpt>
      <trkpt lat="48.31297" lon="-1.76247">
        <ele>69.8</ele>
        <time>2019-07-16T09:35:24Z</time>
      </trkpt>
      <trkpt lat="48.31302" lon="-1.76247">
        <ele>70.3</ele>
        <time>2019-07-16T09:35:25Z</time>
      </trkpt>
      <trkpt lat="48.31307" lon="-1.76248">
        <ele>70.2</ele>
        <time>2019-07-16T09:35:26Z</time>
      </trkpt>
      <trkpt lat="48.31312" lon="-1.76248">
        <ele>69.7</ele>
        <time>2019-07-16T09:35:27Z</time>
      </trkpt>
      <trkpt lat="48.31317" lon="-1.76248">
        <ele>69</ele>
        <time>2019-07-16T09:35:28Z</time>
      </trkpt>
      <trkpt lat="48.31321" lon="-1.76249">
        <ele>68.8</ele>
        <time>2019-07-16T09:35:29Z</time>
      </trkpt>
      <trkpt lat="48.31326" lon="-1.7625">
        <ele>68.6</ele>
        <time>2019-07-16T09:35:30Z</time>
      </trkpt>
      <trkpt lat="48.3133" lon="-1.7625">
        <ele>68.7</ele>
        <time>2019-07-16T09:35:31Z</time>
      </trkpt>
      <trkpt lat="48.31334" lon="-1.76251">
        <ele>68.6</ele>
        <time>2019-07-16T09:35:32Z</time>
      </trkpt>
      <trkpt lat="48.31339" lon="-1.76252">
        <ele>68.6</ele>
        <time>2019-07-16T09:35:33Z</time>
      </trkpt>
      <trkpt lat="48.31342" lon="-1.76252">
        <ele>68.4</ele>
        <time>2019-07-16T09:35:34Z</time>
      </trkpt>
      <trkpt lat="48.31347" lon="-1.76252">
        <ele>68.1</ele>
        <time>2019-07-16T09:35:35Z</time>
      </trkpt>
      <trkpt lat="48.31351" lon="-1.76251">
        <ele>67.9</ele>
        <time>2019-07-16T09:35:36Z</time>
      </trkpt>
      <trkpt lat="48.31355" lon="-1.76252">
        <ele>67.4</ele>
        <time>2019-07-16T09:35:37Z</time>
      </trkpt>
      <trkpt lat="48.31359" lon="-1.76252">
        <ele>66.8</ele>
        <time>2019-07-16T09:35:38Z</time>
      </trkpt>
      <trkpt lat="48.31363" lon="-1.76253">
        <ele>66.7</ele>
        <time>2019-07-16T09:35:39Z</time>
      </trkpt>
      <trkpt lat="48.31367" lon="-1.76253">
        <ele>66.2</ele>
        <time>2019-07-16T09:35:40Z</time>
      </trkpt>
      <trkpt lat="48.31372" lon="-1.76252">
        <ele>65.7</ele>
        <time>2019-07-16T09:35:41Z</time>
      </trkpt>
      <trkpt lat="48.31376" lon="-1.76252">
        <ele>66.1</ele>
        <time>2019-07-16T09:35:42Z</time>
      </trkpt>
      <trkpt lat="48.3138" lon="-1.76252">
        <ele>66.5</ele>
        <time>2019-07-16T09:35:43Z</time>
      </trkpt>
      <trkpt lat="48.31384" lon="-1.76251">
        <ele>66.8</ele>
        <time>2019-07-16T09:35:44Z</time>
      </trkpt>
      <trkpt lat="48.31389" lon="-1.76251">
        <ele>66.5</ele>
        <time>2019-07-16T09:35:45Z</time>
      </trkpt>
      <trkpt lat="48.31393" lon="-1.76251">
        <ele>66.9</ele>
        <time>2019-07-16T09:35:46Z</time>
      </trkpt>
      <trkpt lat="48.31396" lon="-1.7625">
        <ele>67.5</ele>
        <time>2019-07-16T09:35:47Z</time>
      </trkpt>
      <trkpt lat="48.314" lon="-1.76249">
        <ele>68</ele>
        <time>2019-07-16T09:35:48Z</time>
      </trkpt>
      <trkpt lat="48.31403" lon="-1.76249">
        <ele>68</ele>
        <time>2019-07-16T09:35:49Z</time>
      </trkpt>
      <trkpt lat="48.31406" lon="-1.76249">
        <ele>68.1</ele>
        <time>2019-07-16T09:35:50Z</time>
      </trkpt>
      <trkpt lat="48.3141" lon="-1.76249">
        <ele>68.2</ele>
        <time>2019-07-16T09:35:51Z</time>
      </trkpt>
      <trkpt lat="48.31413" lon="-1.76249">
        <ele>68.4</ele>
        <time>2019-07-16T09:35:52Z</time>
      </trkpt>
      <trkpt lat="48.31416" lon="-1.76249">
        <ele>68.8</ele>
        <time>2019-07-16T09:35:53Z</time>
      </trkpt>
      <trkpt lat="48.31419" lon="-1.76249">
        <ele>69.6</ele>
        <time>2019-07-16T09:35:54Z</time>
      </trkpt>
      <trkpt lat="48.31423" lon="-1.76249">
        <ele>70.1</ele>
        <time>2019-07-16T09:35:55Z</time>
      </trkpt>
      <trkpt lat="48.31426" lon="-1.76249">
        <ele>70.6</ele>
        <time>2019-07-16T09:35:56Z</time>
      </trkpt>
      <trkpt lat="48.31429" lon="-1.76249">
        <ele>70.7</ele>
        <time>2019-07-16T09:35:57Z</time>
      </trkpt>
      <trkpt lat="48.31432" lon="-1.76249">
        <ele>71</ele>
        <time>2019-07-16T09:35:58Z</time>
      </trkpt>
      <trkpt lat="48.31436" lon="-1.76249">
        <ele>71.7</ele>
        <time>2019-07-16T09:35:59Z</time>
      </trkpt>
      <trkpt lat="48.31439" lon="-1.76248">
        <ele>72.5</ele>
        <time>2019-07-16T09:36:00Z</time>
      </trkpt>
      <trkpt lat="48.31443" lon="-1.76246">
        <ele>73.3</ele>
        <time>2019-07-16T09:36:01Z</time>
      </trkpt>
      <trkpt lat="48.31448" lon="-1.76245">
        <ele>74.4</ele>
        <time>2019-07-16T09:36:02Z</time>
      </trkpt>
      <trkpt lat="48.31452" lon="-1.76244">
        <ele>74.8</ele>
        <time>2019-07-16T09:36:03Z</time>
      </trkpt>
      <trkpt lat="48.31456" lon="-1.76244">
        <ele>75.5</ele>
        <time>2019-07-16T09:36:04Z</time>
      </trkpt>
      <trkpt lat="48.3146" lon="-1.76242">
        <ele>76.8</ele>
        <time>2019-07-16T09:36:05Z</time>
      </trkpt>
      <trkpt lat="48.31463" lon="-1.76241">
        <ele>77.7</ele>
        <time>2019-07-16T09:36:06Z</time>
      </trkpt>
      <trkpt lat="48.31467" lon="-1.7624">
        <ele>78</ele>
        <time>2019-07-16T09:36:07Z</time>
      </trkpt>
      <trkpt lat="48.31471" lon="-1.76238">
        <ele>78.8</ele>
        <time>2019-07-16T09:36:08Z</time>
      </trkpt>
      <trkpt lat="48.31475" lon="-1.76235">
        <ele>79.2</ele>
        <time>2019-07-16T09:36:09Z</time>
      </trkpt>
      <trkpt lat="48.31478" lon="-1.76232">
        <ele>78.6</ele>
        <time>2019-07-16T09:36:10Z</time>
      </trkpt>
      <trkpt lat="48.31482" lon="-1.7623">
        <ele>77.4</ele>
        <time>2019-07-16T09:36:11Z</time>
      </trkpt>
      <trkpt lat="48.31486" lon="-1.76227">
        <ele>76.1</ele>
        <time>2019-07-16T09:36:12Z</time>
      </trkpt>
      <trkpt lat="48.31489" lon="-1.76225">
        <ele>75</ele>
        <time>2019-07-16T09:36:13Z</time>
      </trkpt>
      <trkpt lat="48.31492" lon="-1.76222">
        <ele>73.9</ele>
        <time>2019-07-16T09:36:14Z</time>
      </trkpt>
      <trkpt lat="48.31495" lon="-1.76219">
        <ele>72.8</ele>
        <time>2019-07-16T09:36:15Z</time>
      </trkpt>
      <trkpt lat="48.31498" lon="-1.76217">
        <ele>72.1</ele>
        <time>2019-07-16T09:36:16Z</time>
      </trkpt>
      <trkpt lat="48.31501" lon="-1.76215">
        <ele>71.2</ele>
        <time>2019-07-16T09:36:17Z</time>
      </trkpt>
      <trkpt lat="48.31504" lon="-1.76212">
        <ele>70.8</ele>
        <time>2019-07-16T09:36:18Z</time>
      </trkpt>
      <trkpt lat="48.31508" lon="-1.76208">
        <ele>70.2</ele>
        <time>2019-07-16T09:36:19Z</time>
      </trkpt>
      <trkpt lat="48.31511" lon="-1.76203">
        <ele>69.7</ele>
        <time>2019-07-16T09:36:20Z</time>
      </trkpt>
      <trkpt lat="48.31514" lon="-1.762">
        <ele>69.7</ele>
        <time>2019-07-16T09:36:21Z</time>
      </trkpt>
      <trkpt lat="48.31518" lon="-1.76196">
        <ele>69.6</ele>
        <time>2019-07-16T09:36:22Z</time>
      </trkpt>
      <trkpt lat="48.31522" lon="-1.76192">
        <ele>70</ele>
        <time>2019-07-16T09:36:23Z</time>
      </trkpt>
      <trkpt lat="48.31525" lon="-1.76188">
        <ele>69.9</ele>
        <time>2019-07-16T09:36:24Z</time>
      </trkpt>
      <trkpt lat="48.31529" lon="-1.76184">
        <ele>69.8</ele>
        <time>2019-07-16T09:36:25Z</time>
      </trkpt>
      <trkpt lat="48.31533" lon="-1.76179">
        <ele>69.6</ele>
        <time>2019-07-16T09:36:26Z</time>
      </trkpt>
      <trkpt lat="48.31536" lon="-1.76175">
        <ele>69.6</ele>
        <time>2019-07-16T09:36:27Z</time>
      </trkpt>
      <trkpt lat="48.31539" lon="-1.76171">
        <ele>69.7</ele>
        <time>2019-07-16T09:36:28Z</time>
      </trkpt>
      <trkpt lat="48.31542" lon="-1.76166">
        <ele>70</ele>
        <time>2019-07-16T09:36:29Z</time>
      </trkpt>
      <trkpt lat="48.31545" lon="-1.76161">
        <ele>69.8</ele>
        <time>2019-07-16T09:36:30Z</time>
      </trkpt>
      <trkpt lat="48.31547" lon="-1.76155">
        <ele>69.7</ele>
        <time>2019-07-16T09:36:31Z</time>
      </trkpt>
      <trkpt lat="48.31548" lon="-1.76148">
        <ele>69.3</ele>
        <time>2019-07-16T09:36:32Z</time>
      </trkpt>
      <trkpt lat="48.31551" lon="-1.76142">
        <ele>69</ele>
        <time>2019-07-16T09:36:33Z</time>
      </trkpt>
      <trkpt lat="48.31553" lon="-1.76136">
        <ele>68.9</ele>
        <time>2019-07-16T09:36:34Z</time>
      </trkpt>
      <trkpt lat="48.31555" lon="-1.76129">
        <ele>69.1</ele>
        <time>2019-07-16T09:36:35Z</time>
      </trkpt>
      <trkpt lat="48.31558" lon="-1.76122">
        <ele>69.1</ele>
        <time>2019-07-16T09:36:36Z</time>
      </trkpt>
      <trkpt lat="48.31559" lon="-1.76116">
        <ele>69.3</ele>
        <time>2019-07-16T09:36:37Z</time>
      </trkpt>
      <trkpt lat="48.31561" lon="-1.76109">
        <ele>69.6</ele>
        <time>2019-07-16T09:36:38Z</time>
      </trkpt>
      <trkpt lat="48.31563" lon="-1.76102">
        <ele>69.7</ele>
        <time>2019-07-16T09:36:39Z</time>
      </trkpt>
      <trkpt lat="48.31566" lon="-1.76095">
        <ele>70.2</ele>
        <time>2019-07-16T09:36:40Z</time>
      </trkpt>
      <trkpt lat="48.31567" lon="-1.76088">
        <ele>70.4</ele>
        <time>2019-07-16T09:36:41Z</time>
      </trkpt>
      <trkpt lat="48.31568" lon="-1.76081">
        <ele>69.7</ele>
        <time>2019-07-16T09:36:42Z</time>
      </trkpt>
      <trkpt lat="48.31569" lon="-1.76074">
        <ele>69.5</ele>
        <time>2019-07-16T09:36:43Z</time>
      </trkpt>
      <trkpt lat="48.3157" lon="-1.76067">
        <ele>69.2</ele>
        <time>2019-07-16T09:36:44Z</time>
      </trkpt>
      <trkpt lat="48.31572" lon="-1.76061">
        <ele>69.2</ele>
        <time>2019-07-16T09:36:45Z</time>
      </trkpt>
      <trkpt lat="48.31572" lon="-1.76054">
        <ele>68.9</ele>
        <time>2019-07-16T09:36:46Z</time>
      </trkpt>
      <trkpt lat="48.31572" lon="-1.76047">
        <ele>68.2</ele>
        <time>2019-07-16T09:36:47Z</time>
      </trkpt>
      <trkpt lat="48.31571" lon="-1.76041">
        <ele>67.6</ele>
        <time>2019-07-16T09:36:48Z</time>
      </trkpt>
      <trkpt lat="48.3157" lon="-1.76034">
        <ele>66.9</ele>
        <time>2019-07-16T09:36:49Z</time>
      </trkpt>
      <trkpt lat="48.3157" lon="-1.76027">
        <ele>65.8</ele>
        <time>2019-07-16T09:36:50Z</time>
      </trkpt>
      <trkpt lat="48.31569" lon="-1.7602">
        <ele>65.4</ele>
        <time>2019-07-16T09:36:51Z</time>
      </trkpt>
      <trkpt lat="48.31569" lon="-1.76014">
        <ele>65.7</ele>
        <time>2019-07-16T09:36:52Z</time>
      </trkpt>
      <trkpt lat="48.31568" lon="-1.76009">
        <ele>65.5</ele>
        <time>2019-07-16T09:36:53Z</time>
      </trkpt>
      <trkpt lat="48.31567" lon="-1.76004">
        <ele>65.1</ele>
        <time>2019-07-16T09:36:54Z</time>
      </trkpt>
      <trkpt lat="48.31566" lon="-1.75997">
        <ele>64.5</ele>
        <time>2019-07-16T09:36:55Z</time>
      </trkpt>
      <trkpt lat="48.31564" lon="-1.75992">
        <ele>64.5</ele>
        <time>2019-07-16T09:36:56Z</time>
      </trkpt>
      <trkpt lat="48.31563" lon="-1.75987">
        <ele>63.9</ele>
        <time>2019-07-16T09:36:57Z</time>
      </trkpt>
      <trkpt lat="48.31561" lon="-1.75981">
        <ele>63.5</ele>
        <time>2019-07-16T09:36:58Z</time>
      </trkpt>
      <trkpt lat="48.3156" lon="-1.75975">
        <ele>63.1</ele>
        <time>2019-07-16T09:36:59Z</time>
      </trkpt>
      <trkpt lat="48.31558" lon="-1.7597">
        <ele>62.9</ele>
        <time>2019-07-16T09:37:00Z</time>
      </trkpt>
      <trkpt lat="48.31556" lon="-1.75965">
        <ele>62.8</ele>
        <time>2019-07-16T09:37:01Z</time>
      </trkpt>
      <trkpt lat="48.31554" lon="-1.7596">
        <ele>62.6</ele>
        <time>2019-07-16T09:37:02Z</time>
      </trkpt>
      <trkpt lat="48.31553" lon="-1.75955">
        <ele>62.6</ele>
        <time>2019-07-16T09:37:03Z</time>
      </trkpt>
      <trkpt lat="48.31551" lon="-1.7595">
        <ele>62.4</ele>
        <time>2019-07-16T09:37:04Z</time>
      </trkpt>
      <trkpt lat="48.3155" lon="-1.75945">
        <ele>62.2</ele>
        <time>2019-07-16T09:37:05Z</time>
      </trkpt>
      <trkpt lat="48.31548" lon="-1.75941">
        <ele>62.2</ele>
        <time>2019-07-16T09:37:06Z</time>
      </trkpt>
      <trkpt lat="48.31546" lon="-1.75937">
        <ele>62.1</ele>
        <time>2019-07-16T09:37:07Z</time>
      </trkpt>
      <trkpt lat="48.31544" lon="-1.75932">
        <ele>61.7</ele>
        <time>2019-07-16T09:37:08Z</time>
      </trkpt>
      <trkpt lat="48.31542" lon="-1.75928">
        <ele>61.5</ele>
        <time>2019-07-16T09:37:09Z</time>
      </trkpt>
      <trkpt lat="48.31539" lon="-1.75923">
        <ele>61.4</ele>
        <time>2019-07-16T09:37:10Z</time>
      </trkpt>
      <trkpt lat="48.31537" lon="-1.75919">
        <ele>61.5</ele>
        <time>2019-07-16T09:37:11Z</time>
      </trkpt>
      <trkpt lat="48.31534" lon="-1.75915">
        <ele>62.2</ele>
        <time>2019-07-16T09:37:12Z</time>
      </trkpt>
      <trkpt lat="48.3153" lon="-1.75912">
        <ele>63.5</ele>
        <time>2019-07-16T09:37:13Z</time>
      </trkpt>
      <trkpt lat="48.31526" lon="-1.75908">
        <ele>65</ele>
        <time>2019-07-16T09:37:14Z</time>
      </trkpt>
      <trkpt lat="48.31522" lon="-1.75905">
        <ele>66.1</ele>
        <time>2019-07-16T09:37:15Z</time>
      </trkpt>
      <trkpt lat="48.31519" lon="-1.75903">
        <ele>67</ele>
        <time>2019-07-16T09:37:16Z</time>
      </trkpt>
      <trkpt lat="48.31517" lon="-1.759">
        <ele>67.9</ele>
        <time>2019-07-16T09:37:17Z</time>
      </trkpt>
      <trkpt lat="48.31513" lon="-1.75898">
        <ele>68.6</ele>
        <time>2019-07-16T09:37:18Z</time>
      </trkpt>
      <trkpt lat="48.31509" lon="-1.75896">
        <ele>69.3</ele>
        <time>2019-07-16T09:37:19Z</time>
      </trkpt>
      <trkpt lat="48.31506" lon="-1.75894">
        <ele>69.8</ele>
        <time>2019-07-16T09:37:20Z</time>
      </trkpt>
      <trkpt lat="48.31503" lon="-1.75891">
        <ele>70.5</ele>
        <time>2019-07-16T09:37:21Z</time>
      </trkpt>
      <trkpt lat="48.31501" lon="-1.75889">
        <ele>71</ele>
        <time>2019-07-16T09:37:22Z</time>
      </trkpt>
      <trkpt lat="48.31498" lon="-1.75887">
        <ele>71.5</ele>
        <time>2019-07-16T09:37:23Z</time>
      </trkpt>
      <trkpt lat="48.31495" lon="-1.75885">
        <ele>72.3</ele>
        <time>2019-07-16T09:37:24Z</time>
      </trkpt>
      <trkpt lat="48.31492" lon="-1.75883">
        <ele>73</ele>
        <time>2019-07-16T09:37:25Z</time>
      </trkpt>
      <trkpt lat="48.3149" lon="-1.75882">
        <ele>73.8</ele>
        <time>2019-07-16T09:37:26Z</time>
      </trkpt>
      <trkpt lat="48.31488" lon="-1.75881">
        <ele>74.7</ele>
        <time>2019-07-16T09:37:27Z</time>
      </trkpt>
      <trkpt lat="48.31485" lon="-1.75879">
        <ele>75.4</ele>
        <time>2019-07-16T09:37:28Z</time>
      </trkpt>
      <trkpt lat="48.31482" lon="-1.75878">
        <ele>76</ele>
        <time>2019-07-16T09:37:29Z</time>
      </trkpt>
      <trkpt lat="48.31479" lon="-1.75877">
        <ele>76.6</ele>
        <time>2019-07-16T09:37:30Z</time>
      </trkpt>
      <trkpt lat="48.31475" lon="-1.75875">
        <ele>77.2</ele>
        <time>2019-07-16T09:37:31Z</time>
      </trkpt>
      <trkpt lat="48.31472" lon="-1.75874">
        <ele>77.9</ele>
        <time>2019-07-16T09:37:32Z</time>
      </trkpt>
      <trkpt lat="48.31469" lon="-1.75872">
        <ele>78.2</ele>
        <time>2019-07-16T09:37:33Z</time>
      </trkpt>
      <trkpt lat="48.31465" lon="-1.75872">
        <ele>78.2</ele>
        <time>2019-07-16T09:37:34Z</time>
      </trkpt>
      <trkpt lat="48.3146" lon="-1.7587">
        <ele>79.1</ele>
        <time>2019-07-16T09:37:35Z</time>
      </trkpt>
      <trkpt lat="48.31457" lon="-1.75869">
        <ele>79.8</ele>
        <time>2019-07-16T09:37:36Z</time>
      </trkpt>
      <trkpt lat="48.31455" lon="-1.75868">
        <ele>80.2</ele>
        <time>2019-07-16T09:37:37Z</time>
      </trkpt>
      <trkpt lat="48.31452" lon="-1.75866">
        <ele>79.4</ele>
        <time>2019-07-16T09:37:38Z</time>
      </trkpt>
      <trkpt lat="48.31449" lon="-1.75864">
        <ele>79.4</ele>
        <time>2019-07-16T09:37:39Z</time>
      </trkpt>
      <trkpt lat="48.31445" lon="-1.75862">
        <ele>79.2</ele>
        <time>2019-07-16T09:37:40Z</time>
      </trkpt>
      <trkpt lat="48.31443" lon="-1.75861">
        <ele>79.6</ele>
        <time>2019-07-16T09:37:41Z</time>
      </trkpt>
      <trkpt lat="48.3144" lon="-1.7586">
        <ele>80.4</ele>
        <time>2019-07-16T09:37:42Z</time>
      </trkpt>
      <trkpt lat="48.31437" lon="-1.75859">
        <ele>80.8</ele>
        <time>2019-07-16T09:37:43Z</time>
      </trkpt>
      <trkpt lat="48.31434" lon="-1.75857">
        <ele>80.4</ele>
        <time>2019-07-16T09:37:44Z</time>
      </trkpt>
      <trkpt lat="48.31431" lon="-1.75856">
        <ele>79.5</ele>
        <time>2019-07-16T09:37:45Z</time>
      </trkpt>
      <trkpt lat="48.31428" lon="-1.75856">
        <ele>77.4</ele>
        <time>2019-07-16T09:37:46Z</time>
      </trkpt>
      <trkpt lat="48.31425" lon="-1.75854">
        <ele>77.4</ele>
        <time>2019-07-16T09:37:47Z</time>
      </trkpt>
      <trkpt lat="48.31422" lon="-1.75853">
        <ele>77.6</ele>
        <time>2019-07-16T09:37:48Z</time>
      </trkpt>
      <trkpt lat="48.31419" lon="-1.7585">
        <ele>77.8</ele>
        <time>2019-07-16T09:37:49Z</time>
      </trkpt>
      <trkpt lat="48.31416" lon="-1.75848">
        <ele>77.5</ele>
        <time>2019-07-16T09:37:50Z</time>
      </trkpt>
      <trkpt lat="48.31413" lon="-1.75845">
        <ele>77</ele>
        <time>2019-07-16T09:37:51Z</time>
      </trkpt>
      <trkpt lat="48.31411" lon="-1.75844">
        <ele>75.4</ele>
        <time>2019-07-16T09:37:52Z</time>
      </trkpt>
      <trkpt lat="48.31407" lon="-1.75841">
        <ele>74.4</ele>
        <time>2019-07-16T09:37:53Z</time>
      </trkpt>
      <trkpt lat="48.31404" lon="-1.75839">
        <ele>74</ele>
        <time>2019-07-16T09:37:54Z</time>
      </trkpt>
      <trkpt lat="48.31401" lon="-1.75836">
        <ele>73.5</ele>
        <time>2019-07-16T09:37:55Z</time>
      </trkpt>
      <trkpt lat="48.31398" lon="-1.75833">
        <ele>73</ele>
        <time>2019-07-16T09:37:56Z</time>
      </trkpt>
      <trkpt lat="48.31395" lon="-1.7583">
        <ele>72.5</ele>
        <time>2019-07-16T09:37:57Z</time>
      </trkpt>
      <trkpt lat="48.31391" lon="-1.75828">
        <ele>72</ele>
        <time>2019-07-16T09:37:58Z</time>
      </trkpt>
      <trkpt lat="48.31388" lon="-1.75825">
        <ele>71.6</ele>
        <time>2019-07-16T09:37:59Z</time>
      </trkpt>
      <trkpt lat="48.31385" lon="-1.75822">
        <ele>71</ele>
        <time>2019-07-16T09:38:00Z</time>
      </trkpt>
      <trkpt lat="48.31383" lon="-1.75819">
        <ele>70.6</ele>
        <time>2019-07-16T09:38:01Z</time>
      </trkpt>
      <trkpt lat="48.31381" lon="-1.75816">
        <ele>70.1</ele>
        <time>2019-07-16T09:38:02Z</time>
      </trkpt>
      <trkpt lat="48.31378" lon="-1.75813">
        <ele>69.7</ele>
        <time>2019-07-16T09:38:03Z</time>
      </trkpt>
      <trkpt lat="48.31376" lon="-1.7581">
        <ele>69</ele>
        <time>2019-07-16T09:38:04Z</time>
      </trkpt>
      <trkpt lat="48.31373" lon="-1.75807">
        <ele>68.2</ele>
        <time>2019-07-16T09:38:05Z</time>
      </trkpt>
      <trkpt lat="48.31371" lon="-1.75804">
        <ele>67.7</ele>
        <time>2019-07-16T09:38:06Z</time>
      </trkpt>
      <trkpt lat="48.31368" lon="-1.75802">
        <ele>67.3</ele>
        <time>2019-07-16T09:38:07Z</time>
      </trkpt>
      <trkpt lat="48.31365" lon="-1.75799">
        <ele>67.1</ele>
        <time>2019-07-16T09:38:08Z</time>
      </trkpt>
      <trkpt lat="48.31362" lon="-1.75796">
        <ele>66.3</ele>
        <time>2019-07-16T09:38:09Z</time>
      </trkpt>
      <trkpt lat="48.31358" lon="-1.75794">
        <ele>65.4</ele>
        <time>2019-07-16T09:38:10Z</time>
      </trkpt>
      <trkpt lat="48.31355" lon="-1.75792">
        <ele>65.1</ele>
        <time>2019-07-16T09:38:11Z</time>
      </trkpt>
      <trkpt lat="48.31352" lon="-1.75789">
        <ele>64.7</ele>
        <time>2019-07-16T09:38:12Z</time>
      </trkpt>
      <trkpt lat="48.31349" lon="-1.75788">
        <ele>63.9</ele>
        <time>2019-07-16T09:38:13Z</time>
      </trkpt>
      <trkpt lat="48.31346" lon="-1.75786">
        <ele>63.6</ele>
        <time>2019-07-16T09:38:14Z</time>
      </trkpt>
      <trkpt lat="48.31344" lon="-1.75783">
        <ele>63.4</ele>
        <time>2019-07-16T09:38:15Z</time>
      </trkpt>
      <trkpt lat="48.31341" lon="-1.7578">
        <ele>63.7</ele>
        <time>2019-07-16T09:38:16Z</time>
      </trkpt>
      <trkpt lat="48.31338" lon="-1.75776">
        <ele>64.1</ele>
        <time>2019-07-16T09:38:17Z</time>
      </trkpt>
      <trkpt lat="48.31335" lon="-1.75772">
        <ele>64.6</ele>
        <time>2019-07-16T09:38:18Z</time>
      </trkpt>
      <trkpt lat="48.31333" lon="-1.75768">
        <ele>65.1</ele>
        <time>2019-07-16T09:38:19Z</time>
      </trkpt>
      <trkpt lat="48.31331" lon="-1.75764">
        <ele>65.6</ele>
        <time>2019-07-16T09:38:20Z</time>
      </trkpt>
      <trkpt lat="48.31329" lon="-1.7576">
        <ele>66.2</ele>
        <time>2019-07-16T09:38:21Z</time>
      </trkpt>
      <trkpt lat="48.31327" lon="-1.75756">
        <ele>67</ele>
        <time>2019-07-16T09:38:22Z</time>
      </trkpt>
      <trkpt lat="48.31324" lon="-1.75752">
        <ele>67.6</ele>
        <time>2019-07-16T09:38:23Z</time>
      </trkpt>
      <trkpt lat="48.31323" lon="-1.75749">
        <ele>68.9</ele>
        <time>2019-07-16T09:38:24Z</time>
      </trkpt>
      <trkpt lat="48.31321" lon="-1.75745">
        <ele>70.4</ele>
        <time>2019-07-16T09:38:25Z</time>
      </trkpt>
      <trkpt lat="48.3132" lon="-1.7574">
        <ele>71</ele>
        <time>2019-07-16T09:38:26Z</time>
      </trkpt>
      <trkpt lat="48.31318" lon="-1.75736">
        <ele>71.9</ele>
        <time>2019-07-16T09:38:27Z</time>
      </trkpt>
      <trkpt lat="48.31316" lon="-1.75731">
        <ele>72.5</ele>
        <time>2019-07-16T09:38:28Z</time>
      </trkpt>
      <trkpt lat="48.31315" lon="-1.75727">
        <ele>72.6</ele>
        <time>2019-07-16T09:38:29Z</time>
      </trkpt>
      <trkpt lat="48.31313" lon="-1.75722">
        <ele>72.2</ele>
        <time>2019-07-16T09:38:30Z</time>
      </trkpt>
      <trkpt lat="48.31312" lon="-1.75717">
        <ele>71.2</ele>
        <time>2019-07-16T09:38:31Z</time>
      </trkpt>
      <trkpt lat="48.3131" lon="-1.75713">
        <ele>70.9</ele>
        <time>2019-07-16T09:38:32Z</time>
      </trkpt>
      <trkpt lat="48.31308" lon="-1.7571">
        <ele>70.1</ele>
        <time>2019-07-16T09:38:33Z</time>
      </trkpt>
      <trkpt lat="48.31306" lon="-1.75706">
        <ele>69.5</ele>
        <time>2019-07-16T09:38:34Z</time>
      </trkpt>
      <trkpt lat="48.31304" lon="-1.75702">
        <ele>69.6</ele>
        <time>2019-07-16T09:38:35Z</time>
      </trkpt>
      <trkpt lat="48.31302" lon="-1.75698">
        <ele>69.4</ele>
        <time>2019-07-16T09:38:36Z</time>
      </trkpt>
      <trkpt lat="48.313" lon="-1.75695">
        <ele>69.3</ele>
        <time>2019-07-16T09:38:37Z</time>
      </trkpt>
      <trkpt lat="48.31298" lon="-1.7569">
        <ele>69</ele>
        <time>2019-07-16T09:38:38Z</time>
      </trkpt>
      <trkpt lat="48.31296" lon="-1.75685">
        <ele>68.6</ele>
        <time>2019-07-16T09:38:39Z</time>
      </trkpt>
      <trkpt lat="48.31294" lon="-1.7568">
        <ele>68.5</ele>
        <time>2019-07-16T09:38:40Z</time>
      </trkpt>
      <trkpt lat="48.31292" lon="-1.75675">
        <ele>68.4</ele>
        <time>2019-07-16T09:38:41Z</time>
      </trkpt>
      <trkpt lat="48.3129" lon="-1.75671">
        <ele>68.4</ele>
        <time>2019-07-16T09:38:42Z</time>
      </trkpt>
      <trkpt lat="48.31288" lon="-1.75666">
        <ele>68.3</ele>
        <time>2019-07-16T09:38:43Z</time>
      </trkpt>
      <trkpt lat="48.31287" lon="-1.75662">
        <ele>68.4</ele>
        <time>2019-07-16T09:38:44Z</time>
      </trkpt>
      <trkpt lat="48.31285" lon="-1.75657">
        <ele>68.6</ele>
        <time>2019-07-16T09:38:45Z</time>
      </trkpt>
      <trkpt lat="48.31284" lon="-1.75652">
        <ele>68.8</ele>
        <time>2019-07-16T09:38:46Z</time>
      </trkpt>
      <trkpt lat="48.31281" lon="-1.75647">
        <ele>69.2</ele>
        <time>2019-07-16T09:38:47Z</time>
      </trkpt>
      <trkpt lat="48.31279" lon="-1.75643">
        <ele>69.1</ele>
        <time>2019-07-16T09:38:48Z</time>
      </trkpt>
      <trkpt lat="48.31278" lon="-1.75638">
        <ele>69.3</ele>
        <time>2019-07-16T09:38:49Z</time>
      </trkpt>
      <trkpt lat="48.31277" lon="-1.75634">
        <ele>69.4</ele>
        <time>2019-07-16T09:38:50Z</time>
      </trkpt>
      <trkpt lat="48.31276" lon="-1.7563">
        <ele>69.1</ele>
        <time>2019-07-16T09:38:51Z</time>
      </trkpt>
      <trkpt lat="48.31275" lon="-1.75625">
        <ele>68.6</ele>
        <time>2019-07-16T09:38:52Z</time>
      </trkpt>
      <trkpt lat="48.31274" lon="-1.75621">
        <ele>68.6</ele>
        <time>2019-07-16T09:38:53Z</time>
      </trkpt>
      <trkpt lat="48.31273" lon="-1.75616">
        <ele>68.7</ele>
        <time>2019-07-16T09:38:54Z</time>
      </trkpt>
      <trkpt lat="48.31271" lon="-1.75611">
        <ele>68.7</ele>
        <time>2019-07-16T09:38:55Z</time>
      </trkpt>
      <trkpt lat="48.31271" lon="-1.75607">
        <ele>68.5</ele>
        <time>2019-07-16T09:38:56Z</time>
      </trkpt>
      <trkpt lat="48.31269" lon="-1.75602">
        <ele>68.7</ele>
        <time>2019-07-16T09:38:57Z</time>
      </trkpt>
      <trkpt lat="48.31267" lon="-1.75597">
        <ele>69</ele>
        <time>2019-07-16T09:38:58Z</time>
      </trkpt>
      <trkpt lat="48.31266" lon="-1.75592">
        <ele>69</ele>
        <time>2019-07-16T09:38:59Z</time>
      </trkpt>
      <trkpt lat="48.31265" lon="-1.75588">
        <ele>69.7</ele>
        <time>2019-07-16T09:39:00Z</time>
      </trkpt>
      <trkpt lat="48.31264" lon="-1.75583">
        <ele>69.2</ele>
        <time>2019-07-16T09:39:01Z</time>
      </trkpt>
      <trkpt lat="48.31263" lon="-1.75576">
        <ele>69.3</ele>
        <time>2019-07-16T09:39:02Z</time>
      </trkpt>
      <trkpt lat="48.31261" lon="-1.75571">
        <ele>69.4</ele>
        <time>2019-07-16T09:39:03Z</time>
      </trkpt>
      <trkpt lat="48.31261" lon="-1.75566">
        <ele>69.5</ele>
        <time>2019-07-16T09:39:04Z</time>
      </trkpt>
      <trkpt lat="48.31259" lon="-1.75561">
        <ele>70</ele>
        <time>2019-07-16T09:39:05Z</time>
      </trkpt>
      <trkpt lat="48.31258" lon="-1.75556">
        <ele>69.9</ele>
        <time>2019-07-16T09:39:06Z</time>
      </trkpt>
      <trkpt lat="48.31257" lon="-1.7555">
        <ele>69.1</ele>
        <time>2019-07-16T09:39:07Z</time>
      </trkpt>
      <trkpt lat="48.31256" lon="-1.75546">
        <ele>69</ele>
        <time>2019-07-16T09:39:08Z</time>
      </trkpt>
      <trkpt lat="48.31255" lon="-1.75541">
        <ele>69.1</ele>
        <time>2019-07-16T09:39:09Z</time>
      </trkpt>
      <trkpt lat="48.31254" lon="-1.75537">
        <ele>68.4</ele>
        <time>2019-07-16T09:39:10Z</time>
      </trkpt>
      <trkpt lat="48.31253" lon="-1.75533">
        <ele>68.3</ele>
        <time>2019-07-16T09:39:11Z</time>
      </trkpt>
      <trkpt lat="48.31252" lon="-1.75527">
        <ele>68.7</ele>
        <time>2019-07-16T09:39:12Z</time>
      </trkpt>
      <trkpt lat="48.3125" lon="-1.75521">
        <ele>69.1</ele>
        <time>2019-07-16T09:39:13Z</time>
      </trkpt>
      <trkpt lat="48.31249" lon="-1.75515">
        <ele>69.6</ele>
        <time>2019-07-16T09:39:14Z</time>
      </trkpt>
      <trkpt lat="48.31247" lon="-1.7551">
        <ele>69.3</ele>
        <time>2019-07-16T09:39:15Z</time>
      </trkpt>
      <trkpt lat="48.31247" lon="-1.75505">
        <ele>69.3</ele>
        <time>2019-07-16T09:39:16Z</time>
      </trkpt>
      <trkpt lat="48.31245" lon="-1.755">
        <ele>68.8</ele>
        <time>2019-07-16T09:39:17Z</time>
      </trkpt>
      <trkpt lat="48.31244" lon="-1.75493">
        <ele>68.8</ele>
        <time>2019-07-16T09:39:18Z</time>
      </trkpt>
      <trkpt lat="48.31242" lon="-1.75487">
        <ele>68.8</ele>
        <time>2019-07-16T09:39:19Z</time>
      </trkpt>
      <trkpt lat="48.3124" lon="-1.75481">
        <ele>68.6</ele>
        <time>2019-07-16T09:39:20Z</time>
      </trkpt>
      <trkpt lat="48.31238" lon="-1.75474">
        <ele>68.5</ele>
        <time>2019-07-16T09:39:21Z</time>
      </trkpt>
      <trkpt lat="48.31236" lon="-1.75467">
        <ele>68.5</ele>
        <time>2019-07-16T09:39:22Z</time>
      </trkpt>
      <trkpt lat="48.31236" lon="-1.75461">
        <ele>68.7</ele>
        <time>2019-07-16T09:39:23Z</time>
      </trkpt>
      <trkpt lat="48.31235" lon="-1.75456">
        <ele>68.9</ele>
        <time>2019-07-16T09:39:24Z</time>
      </trkpt>
      <trkpt lat="48.31234" lon="-1.75451">
        <ele>69.1</ele>
        <time>2019-07-16T09:39:25Z</time>
      </trkpt>
      <trkpt lat="48.31233" lon="-1.75446">
        <ele>69.3</ele>
        <time>2019-07-16T09:39:26Z</time>
      </trkpt>
      <trkpt lat="48.31233" lon="-1.75441">
        <ele>69.4</ele>
        <time>2019-07-16T09:39:27Z</time>
      </trkpt>
      <trkpt lat="48.31232" lon="-1.75436">
        <ele>69.4</ele>
        <time>2019-07-16T09:39:28Z</time>
      </trkpt>
      <trkpt lat="48.31232" lon="-1.7543">
        <ele>69.3</ele>
        <time>2019-07-16T09:39:29Z</time>
      </trkpt>
      <trkpt lat="48.31231" lon="-1.75425">
        <ele>69.1</ele>
        <time>2019-07-16T09:39:30Z</time>
      </trkpt>
      <trkpt lat="48.3123" lon="-1.75415">
        <ele>68.4</ele>
        <time>2019-07-16T09:39:32Z</time>
      </trkpt>
      <trkpt lat="48.3123" lon="-1.75411">
        <ele>68.1</ele>
        <time>2019-07-16T09:39:33Z</time>
      </trkpt>
      <trkpt lat="48.3123" lon="-1.75407">
        <ele>67.7</ele>
        <time>2019-07-16T09:39:34Z</time>
      </trkpt>
      <trkpt lat="48.3123" lon="-1.75402">
        <ele>67.7</ele>
        <time>2019-07-16T09:39:35Z</time>
      </trkpt>
      <trkpt lat="48.31228" lon="-1.75398">
        <ele>67.1</ele>
        <time>2019-07-16T09:39:36Z</time>
      </trkpt>
      <trkpt lat="48.31228" lon="-1.75395">
        <ele>66.5</ele>
        <time>2019-07-16T09:39:37Z</time>
      </trkpt>
      <trkpt lat="48.31227" lon="-1.7539">
        <ele>65.8</ele>
        <time>2019-07-16T09:39:38Z</time>
      </trkpt>
      <trkpt lat="48.31226" lon="-1.75385">
        <ele>65.1</ele>
        <time>2019-07-16T09:39:39Z</time>
      </trkpt>
      <trkpt lat="48.31225" lon="-1.75379">
        <ele>64.9</ele>
        <time>2019-07-16T09:39:40Z</time>
      </trkpt>
      <trkpt lat="48.31224" lon="-1.75373">
        <ele>64.9</ele>
        <time>2019-07-16T09:39:41Z</time>
      </trkpt>
      <trkpt lat="48.31223" lon="-1.75367">
        <ele>64.8</ele>
        <time>2019-07-16T09:39:42Z</time>
      </trkpt>
      <trkpt lat="48.31222" lon="-1.75361">
        <ele>64.7</ele>
        <time>2019-07-16T09:39:43Z</time>
      </trkpt>
      <trkpt lat="48.31221" lon="-1.75355">
        <ele>64.9</ele>
        <time>2019-07-16T09:39:44Z</time>
      </trkpt>
      <trkpt lat="48.3122" lon="-1.7535">
        <ele>65.2</ele>
        <time>2019-07-16T09:39:45Z</time>
      </trkpt>
      <trkpt lat="48.31219" lon="-1.75346">
        <ele>65.4</ele>
        <time>2019-07-16T09:39:46Z</time>
      </trkpt>
      <trkpt lat="48.31219" lon="-1.75341">
        <ele>65.5</ele>
        <time>2019-07-16T09:39:47Z</time>
      </trkpt>
      <trkpt lat="48.31218" lon="-1.75336">
        <ele>65.9</ele>
        <time>2019-07-16T09:39:48Z</time>
      </trkpt>
      <trkpt lat="48.31218" lon="-1.75331">
        <ele>66.5</ele>
        <time>2019-07-16T09:39:49Z</time>
      </trkpt>
      <trkpt lat="48.31218" lon="-1.75326">
        <ele>67</ele>
        <time>2019-07-16T09:39:50Z</time>
      </trkpt>
      <trkpt lat="48.31218" lon="-1.75321">
        <ele>67.6</ele>
        <time>2019-07-16T09:39:51Z</time>
      </trkpt>
      <trkpt lat="48.31219" lon="-1.75315">
        <ele>67.9</ele>
        <time>2019-07-16T09:39:52Z</time>
      </trkpt>
      <trkpt lat="48.3122" lon="-1.75309">
        <ele>68.2</ele>
        <time>2019-07-16T09:39:53Z</time>
      </trkpt>
      <trkpt lat="48.3122" lon="-1.75305">
        <ele>68.6</ele>
        <time>2019-07-16T09:39:54Z</time>
      </trkpt>
      <trkpt lat="48.3122" lon="-1.75299">
        <ele>69</ele>
        <time>2019-07-16T09:39:55Z</time>
      </trkpt>
      <trkpt lat="48.3122" lon="-1.75294">
        <ele>69.3</ele>
        <time>2019-07-16T09:39:56Z</time>
      </trkpt>
      <trkpt lat="48.3122" lon="-1.75287">
        <ele>69.6</ele>
        <time>2019-07-16T09:39:57Z</time>
      </trkpt>
      <trkpt lat="48.31219" lon="-1.75279">
        <ele>69.9</ele>
        <time>2019-07-16T09:39:58Z</time>
      </trkpt>
      <trkpt lat="48.31219" lon="-1.75274">
        <ele>70.2</ele>
        <time>2019-07-16T09:39:59Z</time>
      </trkpt>
      <trkpt lat="48.31218" lon="-1.75269">
        <ele>70.6</ele>
        <time>2019-07-16T09:40:00Z</time>
      </trkpt>
      <trkpt lat="48.31218" lon="-1.75262">
        <ele>70.8</ele>
        <time>2019-07-16T09:40:01Z</time>
      </trkpt>
      <trkpt lat="48.31217" lon="-1.75256">
        <ele>70.8</ele>
        <time>2019-07-16T09:40:02Z</time>
      </trkpt>
      <trkpt lat="48.31217" lon="-1.7525">
        <ele>70.5</ele>
        <time>2019-07-16T09:40:03Z</time>
      </trkpt>
      <trkpt lat="48.31217" lon="-1.75245">
        <ele>70.8</ele>
        <time>2019-07-16T09:40:04Z</time>
      </trkpt>
      <trkpt lat="48.31217" lon="-1.75241">
        <ele>70.8</ele>
        <time>2019-07-16T09:40:05Z</time>
      </trkpt>
      <trkpt lat="48.31217" lon="-1.75235">
        <ele>70.5</ele>
        <time>2019-07-16T09:40:06Z</time>
      </trkpt>
      <trkpt lat="48.31216" lon="-1.75231">
        <ele>70.7</ele>
        <time>2019-07-16T09:40:07Z</time>
      </trkpt>
      <trkpt lat="48.31216" lon="-1.75227">
        <ele>71.1</ele>
        <time>2019-07-16T09:40:08Z</time>
      </trkpt>
      <trkpt lat="48.31216" lon="-1.75223">
        <ele>71.1</ele>
        <time>2019-07-16T09:40:09Z</time>
      </trkpt>
      <trkpt lat="48.31216" lon="-1.75219">
        <ele>70.4</ele>
        <time>2019-07-16T09:40:10Z</time>
      </trkpt>
      <trkpt lat="48.31216" lon="-1.75213">
        <ele>70</ele>
        <time>2019-07-16T09:40:11Z</time>
      </trkpt>
      <trkpt lat="48.31216" lon="-1.75209">
        <ele>70.3</ele>
        <time>2019-07-16T09:40:12Z</time>
      </trkpt>
      <trkpt lat="48.31215" lon="-1.75205">
        <ele>70.5</ele>
        <time>2019-07-16T09:40:13Z</time>
      </trkpt>
      <trkpt lat="48.31215" lon="-1.752">
        <ele>70.9</ele>
        <time>2019-07-16T09:40:14Z</time>
      </trkpt>
      <trkpt lat="48.31213" lon="-1.75191">
        <ele>70.5</ele>
        <time>2019-07-16T09:40:15Z</time>
      </trkpt>
      <trkpt lat="48.31213" lon="-1.75186">
        <ele>70.7</ele>
        <time>2019-07-16T09:40:16Z</time>
      </trkpt>
      <trkpt lat="48.31214" lon="-1.75179">
        <ele>70.2</ele>
        <time>2019-07-16T09:40:17Z</time>
      </trkpt>
      <trkpt lat="48.31215" lon="-1.75175">
        <ele>70.3</ele>
        <time>2019-07-16T09:40:18Z</time>
      </trkpt>
      <trkpt lat="48.31215" lon="-1.75168">
        <ele>69.9</ele>
        <time>2019-07-16T09:40:19Z</time>
      </trkpt>
      <trkpt lat="48.31216" lon="-1.75164">
        <ele>69.8</ele>
        <time>2019-07-16T09:40:20Z</time>
      </trkpt>
      <trkpt lat="48.31215" lon="-1.75157">
        <ele>69.3</ele>
        <time>2019-07-16T09:40:21Z</time>
      </trkpt>
      <trkpt lat="48.31215" lon="-1.75152">
        <ele>69</ele>
        <time>2019-07-16T09:40:22Z</time>
      </trkpt>
      <trkpt lat="48.31214" lon="-1.75146">
        <ele>68.7</ele>
        <time>2019-07-16T09:40:23Z</time>
      </trkpt>
      <trkpt lat="48.31213" lon="-1.75139">
        <ele>68.3</ele>
        <time>2019-07-16T09:40:24Z</time>
      </trkpt>
      <trkpt lat="48.31213" lon="-1.75134">
        <ele>68</ele>
        <time>2019-07-16T09:40:25Z</time>
      </trkpt>
      <trkpt lat="48.31213" lon="-1.75128">
        <ele>67.7</ele>
        <time>2019-07-16T09:40:26Z</time>
      </trkpt>
      <trkpt lat="48.31212" lon="-1.75121">
        <ele>67.5</ele>
        <time>2019-07-16T09:40:27Z</time>
      </trkpt>
      <trkpt lat="48.31211" lon="-1.75115">
        <ele>67.4</ele>
        <time>2019-07-16T09:40:28Z</time>
      </trkpt>
      <trkpt lat="48.31211" lon="-1.75108">
        <ele>67.1</ele>
        <time>2019-07-16T09:40:29Z</time>
      </trkpt>
      <trkpt lat="48.31211" lon="-1.75102">
        <ele>66.8</ele>
        <time>2019-07-16T09:40:30Z</time>
      </trkpt>
      <trkpt lat="48.31211" lon="-1.75095">
        <ele>66.6</ele>
        <time>2019-07-16T09:40:31Z</time>
      </trkpt>
      <trkpt lat="48.31211" lon="-1.75089">
        <ele>65.6</ele>
        <time>2019-07-16T09:40:32Z</time>
      </trkpt>
      <trkpt lat="48.31211" lon="-1.75084">
        <ele>65</ele>
        <time>2019-07-16T09:40:33Z</time>
      </trkpt>
      <trkpt lat="48.3121" lon="-1.75079">
        <ele>64</ele>
        <time>2019-07-16T09:40:34Z</time>
      </trkpt>
      <trkpt lat="48.31209" lon="-1.75073">
        <ele>63.2</ele>
        <time>2019-07-16T09:40:35Z</time>
      </trkpt>
      <trkpt lat="48.31209" lon="-1.75068">
        <ele>62.5</ele>
        <time>2019-07-16T09:40:36Z</time>
      </trkpt>
      <trkpt lat="48.31209" lon="-1.75063">
        <ele>62.3</ele>
        <time>2019-07-16T09:40:37Z</time>
      </trkpt>
      <trkpt lat="48.31209" lon="-1.75058">
        <ele>62</ele>
        <time>2019-07-16T09:40:38Z</time>
      </trkpt>
      <trkpt lat="48.31209" lon="-1.75053">
        <ele>61.8</ele>
        <time>2019-07-16T09:40:39Z</time>
      </trkpt>
      <trkpt lat="48.31209" lon="-1.75048">
        <ele>61.4</ele>
        <time>2019-07-16T09:40:40Z</time>
      </trkpt>
      <trkpt lat="48.31208" lon="-1.75043">
        <ele>60.8</ele>
        <time>2019-07-16T09:40:41Z</time>
      </trkpt>
      <trkpt lat="48.31208" lon="-1.75038">
        <ele>60.6</ele>
        <time>2019-07-16T09:40:42Z</time>
      </trkpt>
      <trkpt lat="48.31207" lon="-1.75032">
        <ele>60.4</ele>
        <time>2019-07-16T09:40:43Z</time>
      </trkpt>
      <trkpt lat="48.31207" lon="-1.75027">
        <ele>60.5</ele>
        <time>2019-07-16T09:40:44Z</time>
      </trkpt>
      <trkpt lat="48.31206" lon="-1.75022">
        <ele>60.5</ele>
        <time>2019-07-16T09:40:45Z</time>
      </trkpt>
      <trkpt lat="48.31206" lon="-1.75018">
        <ele>60.4</ele>
        <time>2019-07-16T09:40:46Z</time>
      </trkpt>
      <trkpt lat="48.31205" lon="-1.75012">
        <ele>60.8</ele>
        <time>2019-07-16T09:40:47Z</time>
      </trkpt>
      <trkpt lat="48.31204" lon="-1.75006">
        <ele>60.7</ele>
        <time>2019-07-16T09:40:48Z</time>
      </trkpt>
      <trkpt lat="48.31203" lon="-1.75001">
        <ele>60.8</ele>
        <time>2019-07-16T09:40:49Z</time>
      </trkpt>
      <trkpt lat="48.31202" lon="-1.74996">
        <ele>61.1</ele>
        <time>2019-07-16T09:40:50Z</time>
      </trkpt>
      <trkpt lat="48.31202" lon="-1.74991">
        <ele>61</ele>
        <time>2019-07-16T09:40:51Z</time>
      </trkpt>
      <trkpt lat="48.31202" lon="-1.74987">
        <ele>60.5</ele>
        <time>2019-07-16T09:40:52Z</time>
      </trkpt>
      <trkpt lat="48.31202" lon="-1.74982">
        <ele>60.2</ele>
        <time>2019-07-16T09:40:53Z</time>
      </trkpt>
      <trkpt lat="48.31201" lon="-1.74977">
        <ele>59.8</ele>
        <time>2019-07-16T09:40:54Z</time>
      </trkpt>
      <trkpt lat="48.312" lon="-1.74972">
        <ele>60.2</ele>
        <time>2019-07-16T09:40:55Z</time>
      </trkpt>
      <trkpt lat="48.31199" lon="-1.74967">
        <ele>59.6</ele>
        <time>2019-07-16T09:40:56Z</time>
      </trkpt>
      <trkpt lat="48.31198" lon="-1.74962">
        <ele>59.6</ele>
        <time>2019-07-16T09:40:57Z</time>
      </trkpt>
      <trkpt lat="48.31197" lon="-1.74957">
        <ele>59.4</ele>
        <time>2019-07-16T09:40:58Z</time>
      </trkpt>
      <trkpt lat="48.31196" lon="-1.74951">
        <ele>59.8</ele>
        <time>2019-07-16T09:40:59Z</time>
      </trkpt>
      <trkpt lat="48.31196" lon="-1.74945">
        <ele>60.2</ele>
        <time>2019-07-16T09:41:00Z</time>
      </trkpt>
      <trkpt lat="48.31196" lon="-1.74941">
        <ele>60.3</ele>
        <time>2019-07-16T09:41:01Z</time>
      </trkpt>
      <trkpt lat="48.31197" lon="-1.74937">
        <ele>60.8</ele>
        <time>2019-07-16T09:41:02Z</time>
      </trkpt>
      <trkpt lat="48.31197" lon="-1.74932">
        <ele>61.4</ele>
        <time>2019-07-16T09:41:03Z</time>
      </trkpt>
      <trkpt lat="48.31197" lon="-1.74927">
        <ele>62.5</ele>
        <time>2019-07-16T09:41:04Z</time>
      </trkpt>
      <trkpt lat="48.31197" lon="-1.74921">
        <ele>63.4</ele>
        <time>2019-07-16T09:41:05Z</time>
      </trkpt>
      <trkpt lat="48.31197" lon="-1.74916">
        <ele>64.3</ele>
        <time>2019-07-16T09:41:06Z</time>
      </trkpt>
      <trkpt lat="48.31196" lon="-1.7491">
        <ele>65</ele>
        <time>2019-07-16T09:41:07Z</time>
      </trkpt>
      <trkpt lat="48.31195" lon="-1.74905">
        <ele>65</ele>
        <time>2019-07-16T09:41:08Z</time>
      </trkpt>
      <trkpt lat="48.31196" lon="-1.74899">
        <ele>65.3</ele>
        <time>2019-07-16T09:41:09Z</time>
      </trkpt>
      <trkpt lat="48.31196" lon="-1.74894">
        <ele>66.4</ele>
        <time>2019-07-16T09:41:10Z</time>
      </trkpt>
      <trkpt lat="48.31195" lon="-1.74889">
        <ele>66.9</ele>
        <time>2019-07-16T09:41:11Z</time>
      </trkpt>
      <trkpt lat="48.31195" lon="-1.74884">
        <ele>67.9</ele>
        <time>2019-07-16T09:41:12Z</time>
      </trkpt>
      <trkpt lat="48.31195" lon="-1.74879">
        <ele>68.4</ele>
        <time>2019-07-16T09:41:13Z</time>
      </trkpt>
      <trkpt lat="48.31195" lon="-1.74875">
        <ele>68.2</ele>
        <time>2019-07-16T09:41:14Z</time>
      </trkpt>
      <trkpt lat="48.31194" lon="-1.7487">
        <ele>68.1</ele>
        <time>2019-07-16T09:41:15Z</time>
      </trkpt>
      <trkpt lat="48.31194" lon="-1.74865">
        <ele>68.8</ele>
        <time>2019-07-16T09:41:16Z</time>
      </trkpt>
      <trkpt lat="48.31193" lon="-1.74861">
        <ele>69.3</ele>
        <time>2019-07-16T09:41:17Z</time>
      </trkpt>
      <trkpt lat="48.31192" lon="-1.74856">
        <ele>69.7</ele>
        <time>2019-07-16T09:41:18Z</time>
      </trkpt>
      <trkpt lat="48.31192" lon="-1.74852">
        <ele>69.9</ele>
        <time>2019-07-16T09:41:19Z</time>
      </trkpt>
      <trkpt lat="48.31192" lon="-1.74848">
        <ele>70.1</ele>
        <time>2019-07-16T09:41:20Z</time>
      </trkpt>
      <trkpt lat="48.31191" lon="-1.74843">
        <ele>70.4</ele>
        <time>2019-07-16T09:41:21Z</time>
      </trkpt>
      <trkpt lat="48.3119" lon="-1.74838">
        <ele>70.2</ele>
        <time>2019-07-16T09:41:22Z</time>
      </trkpt>
      <trkpt lat="48.31189" lon="-1.74834">
        <ele>69.6</ele>
        <time>2019-07-16T09:41:23Z</time>
      </trkpt>
      <trkpt lat="48.31188" lon="-1.74829">
        <ele>69.4</ele>
        <time>2019-07-16T09:41:24Z</time>
      </trkpt>
      <trkpt lat="48.31187" lon="-1.74824">
        <ele>69.2</ele>
        <time>2019-07-16T09:41:25Z</time>
      </trkpt>
      <trkpt lat="48.31187" lon="-1.7482">
        <ele>69.4</ele>
        <time>2019-07-16T09:41:26Z</time>
      </trkpt>
      <trkpt lat="48.31186" lon="-1.74815">
        <ele>69.9</ele>
        <time>2019-07-16T09:41:27Z</time>
      </trkpt>
      <trkpt lat="48.31185" lon="-1.7481">
        <ele>70.5</ele>
        <time>2019-07-16T09:41:28Z</time>
      </trkpt>
      <trkpt lat="48.31184" lon="-1.74805">
        <ele>70.8</ele>
        <time>2019-07-16T09:41:29Z</time>
      </trkpt>
      <trkpt lat="48.31184" lon="-1.74801">
        <ele>70.7</ele>
        <time>2019-07-16T09:41:30Z</time>
      </trkpt>
      <trkpt lat="48.31184" lon="-1.74796">
        <ele>70.9</ele>
        <time>2019-07-16T09:41:31Z</time>
      </trkpt>
      <trkpt lat="48.31183" lon="-1.74791">
        <ele>70.7</ele>
        <time>2019-07-16T09:41:32Z</time>
      </trkpt>
      <trkpt lat="48.31183" lon="-1.74786">
        <ele>70.7</ele>
        <time>2019-07-16T09:41:33Z</time>
      </trkpt>
      <trkpt lat="48.31183" lon="-1.74781">
        <ele>70.3</ele>
        <time>2019-07-16T09:41:34Z</time>
      </trkpt>
      <trkpt lat="48.31183" lon="-1.74776">
        <ele>70.4</ele>
        <time>2019-07-16T09:41:35Z</time>
      </trkpt>
      <trkpt lat="48.31182" lon="-1.74772">
        <ele>70.4</ele>
        <time>2019-07-16T09:41:36Z</time>
      </trkpt>
      <trkpt lat="48.31181" lon="-1.74768">
        <ele>71</ele>
        <time>2019-07-16T09:41:37Z</time>
      </trkpt>
      <trkpt lat="48.31181" lon="-1.74764">
        <ele>71.2</ele>
        <time>2019-07-16T09:41:38Z</time>
      </trkpt>
      <trkpt lat="48.31181" lon="-1.74759">
        <ele>71.7</ele>
        <time>2019-07-16T09:41:39Z</time>
      </trkpt>
      <trkpt lat="48.31181" lon="-1.74754">
        <ele>71.9</ele>
        <time>2019-07-16T09:41:40Z</time>
      </trkpt>
      <trkpt lat="48.31181" lon="-1.7475">
        <ele>72.5</ele>
        <time>2019-07-16T09:41:41Z</time>
      </trkpt>
      <trkpt lat="48.31181" lon="-1.74745">
        <ele>72.8</ele>
        <time>2019-07-16T09:41:42Z</time>
      </trkpt>
      <trkpt lat="48.31181" lon="-1.74742">
        <ele>73.5</ele>
        <time>2019-07-16T09:41:43Z</time>
      </trkpt>
      <trkpt lat="48.31181" lon="-1.74738">
        <ele>74.3</ele>
        <time>2019-07-16T09:41:44Z</time>
      </trkpt>
      <trkpt lat="48.31181" lon="-1.74734">
        <ele>74.8</ele>
        <time>2019-07-16T09:41:45Z</time>
      </trkpt>
      <trkpt lat="48.31181" lon="-1.7473">
        <ele>75.2</ele>
        <time>2019-07-16T09:41:46Z</time>
      </trkpt>
      <trkpt lat="48.31181" lon="-1.74726">
        <ele>75.3</ele>
        <time>2019-07-16T09:41:47Z</time>
      </trkpt>
      <trkpt lat="48.31181" lon="-1.74722">
        <ele>75.8</ele>
        <time>2019-07-16T09:41:48Z</time>
      </trkpt>
      <trkpt lat="48.3118" lon="-1.74717">
        <ele>75.8</ele>
        <time>2019-07-16T09:41:49Z</time>
      </trkpt>
      <trkpt lat="48.31181" lon="-1.74712">
        <ele>74.8</ele>
        <time>2019-07-16T09:41:50Z</time>
      </trkpt>
      <trkpt lat="48.3118" lon="-1.74707">
        <ele>74.5</ele>
        <time>2019-07-16T09:41:51Z</time>
      </trkpt>
      <trkpt lat="48.3118" lon="-1.74702">
        <ele>73.6</ele>
        <time>2019-07-16T09:41:52Z</time>
      </trkpt>
      <trkpt lat="48.31179" lon="-1.74697">
        <ele>73</ele>
        <time>2019-07-16T09:41:53Z</time>
      </trkpt>
      <trkpt lat="48.31179" lon="-1.74692">
        <ele>72.6</ele>
        <time>2019-07-16T09:41:54Z</time>
      </trkpt>
      <trkpt lat="48.31179" lon="-1.74688">
        <ele>72.8</ele>
        <time>2019-07-16T09:41:55Z</time>
      </trkpt>
      <trkpt lat="48.31179" lon="-1.74684">
        <ele>73.1</ele>
        <time>2019-07-16T09:41:56Z</time>
      </trkpt>
      <trkpt lat="48.31178" lon="-1.74679">
        <ele>72.7</ele>
        <time>2019-07-16T09:41:57Z</time>
      </trkpt>
      <trkpt lat="48.31178" lon="-1.74674">
        <ele>72.1</ele>
        <time>2019-07-16T09:41:58Z</time>
      </trkpt>
      <trkpt lat="48.31176" lon="-1.7467">
        <ele>71.6</ele>
        <time>2019-07-16T09:41:59Z</time>
      </trkpt>
      <trkpt lat="48.31176" lon="-1.74665">
        <ele>71.8</ele>
        <time>2019-07-16T09:42:00Z</time>
      </trkpt>
      <trkpt lat="48.31175" lon="-1.7466">
        <ele>72</ele>
        <time>2019-07-16T09:42:01Z</time>
      </trkpt>
      <trkpt lat="48.31175" lon="-1.74655">
        <ele>71.4</ele>
        <time>2019-07-16T09:42:02Z</time>
      </trkpt>
      <trkpt lat="48.31175" lon="-1.7465">
        <ele>71.5</ele>
        <time>2019-07-16T09:42:03Z</time>
      </trkpt>
      <trkpt lat="48.31175" lon="-1.74647">
        <ele>71.4</ele>
        <time>2019-07-16T09:42:04Z</time>
      </trkpt>
      <trkpt lat="48.31175" lon="-1.74643">
        <ele>71.4</ele>
        <time>2019-07-16T09:42:05Z</time>
      </trkpt>
      <trkpt lat="48.31173" lon="-1.74639">
        <ele>71.5</ele>
        <time>2019-07-16T09:42:06Z</time>
      </trkpt>
      <trkpt lat="48.31173" lon="-1.74634">
        <ele>71.6</ele>
        <time>2019-07-16T09:42:07Z</time>
      </trkpt>
      <trkpt lat="48.31172" lon="-1.7463">
        <ele>71.6</ele>
        <time>2019-07-16T09:42:08Z</time>
      </trkpt>
      <trkpt lat="48.31171" lon="-1.74625">
        <ele>71.6</ele>
        <time>2019-07-16T09:42:09Z</time>
      </trkpt>
      <trkpt lat="48.3117" lon="-1.7462">
        <ele>71.6</ele>
        <time>2019-07-16T09:42:10Z</time>
      </trkpt>
      <trkpt lat="48.3117" lon="-1.74615">
        <ele>72</ele>
        <time>2019-07-16T09:42:11Z</time>
      </trkpt>
      <trkpt lat="48.31168" lon="-1.7461">
        <ele>72.1</ele>
        <time>2019-07-16T09:42:12Z</time>
      </trkpt>
      <trkpt lat="48.31168" lon="-1.74605">
        <ele>72.3</ele>
        <time>2019-07-16T09:42:13Z</time>
      </trkpt>
      <trkpt lat="48.31167" lon="-1.74601">
        <ele>72.6</ele>
        <time>2019-07-16T09:42:14Z</time>
      </trkpt>
      <trkpt lat="48.31167" lon="-1.74596">
        <ele>72.9</ele>
        <time>2019-07-16T09:42:15Z</time>
      </trkpt>
      <trkpt lat="48.31167" lon="-1.7459">
        <ele>73.6</ele>
        <time>2019-07-16T09:42:16Z</time>
      </trkpt>
      <trkpt lat="48.31167" lon="-1.74584">
        <ele>74.1</ele>
        <time>2019-07-16T09:42:17Z</time>
      </trkpt>
      <trkpt lat="48.31167" lon="-1.74579">
        <ele>74.9</ele>
        <time>2019-07-16T09:42:18Z</time>
      </trkpt>
      <trkpt lat="48.31168" lon="-1.74572">
        <ele>75.4</ele>
        <time>2019-07-16T09:42:19Z</time>
      </trkpt>
      <trkpt lat="48.31168" lon="-1.74565">
        <ele>76.2</ele>
        <time>2019-07-16T09:42:20Z</time>
      </trkpt>
      <trkpt lat="48.31168" lon="-1.7456">
        <ele>76.9</ele>
        <time>2019-07-16T09:42:21Z</time>
      </trkpt>
      <trkpt lat="48.31168" lon="-1.74555">
        <ele>77.3</ele>
        <time>2019-07-16T09:42:22Z</time>
      </trkpt>
      <trkpt lat="48.31169" lon="-1.7455">
        <ele>78.1</ele>
        <time>2019-07-16T09:42:23Z</time>
      </trkpt>
      <trkpt lat="48.31169" lon="-1.74544">
        <ele>78.7</ele>
        <time>2019-07-16T09:42:24Z</time>
      </trkpt>
      <trkpt lat="48.31169" lon="-1.74539">
        <ele>79</ele>
        <time>2019-07-16T09:42:25Z</time>
      </trkpt>
      <trkpt lat="48.31168" lon="-1.74533">
        <ele>79.7</ele>
        <time>2019-07-16T09:42:26Z</time>
      </trkpt>
      <trkpt lat="48.31168" lon="-1.74528">
        <ele>79.9</ele>
        <time>2019-07-16T09:42:27Z</time>
      </trkpt>
      <trkpt lat="48.31168" lon="-1.74522">
        <ele>80.3</ele>
        <time>2019-07-16T09:42:28Z</time>
      </trkpt>
      <trkpt lat="48.31167" lon="-1.74516">
        <ele>80.6</ele>
        <time>2019-07-16T09:42:29Z</time>
      </trkpt>
      <trkpt lat="48.31167" lon="-1.7451">
        <ele>80.8</ele>
        <time>2019-07-16T09:42:30Z</time>
      </trkpt>
      <trkpt lat="48.31167" lon="-1.74504">
        <ele>80.8</ele>
        <time>2019-07-16T09:42:31Z</time>
      </trkpt>
      <trkpt lat="48.31167" lon="-1.74498">
        <ele>80.9</ele>
        <time>2019-07-16T09:42:32Z</time>
      </trkpt>
      <trkpt lat="48.31166" lon="-1.74493">
        <ele>80.9</ele>
        <time>2019-07-16T09:42:33Z</time>
      </trkpt>
      <trkpt lat="48.31165" lon="-1.74486">
        <ele>80.4</ele>
        <time>2019-07-16T09:42:34Z</time>
      </trkpt>
      <trkpt lat="48.31164" lon="-1.7448">
        <ele>80.8</ele>
        <time>2019-07-16T09:42:35Z</time>
      </trkpt>
      <trkpt lat="48.31163" lon="-1.74475">
        <ele>81</ele>
        <time>2019-07-16T09:42:36Z</time>
      </trkpt>
      <trkpt lat="48.31163" lon="-1.7447">
        <ele>81</ele>
        <time>2019-07-16T09:42:37Z</time>
      </trkpt>
      <trkpt lat="48.31163" lon="-1.74465">
        <ele>81.1</ele>
        <time>2019-07-16T09:42:38Z</time>
      </trkpt>
      <trkpt lat="48.31163" lon="-1.74461">
        <ele>81.3</ele>
        <time>2019-07-16T09:42:39Z</time>
      </trkpt>
      <trkpt lat="48.31163" lon="-1.74455">
        <ele>81.5</ele>
        <time>2019-07-16T09:42:40Z</time>
      </trkpt>
      <trkpt lat="48.31163" lon="-1.74449">
        <ele>81.7</ele>
        <time>2019-07-16T09:42:41Z</time>
      </trkpt>
      <trkpt lat="48.31163" lon="-1.74443">
        <ele>82</ele>
        <time>2019-07-16T09:42:42Z</time>
      </trkpt>
      <trkpt lat="48.31163" lon="-1.74437">
        <ele>82.2</ele>
        <time>2019-07-16T09:42:43Z</time>
      </trkpt>
      <trkpt lat="48.31162" lon="-1.74431">
        <ele>82.8</ele>
        <time>2019-07-16T09:42:44Z</time>
      </trkpt>
      <trkpt lat="48.31162" lon="-1.74425">
        <ele>83.4</ele>
        <time>2019-07-16T09:42:45Z</time>
      </trkpt>
      <trkpt lat="48.31162" lon="-1.74419">
        <ele>83.8</ele>
        <time>2019-07-16T09:42:46Z</time>
      </trkpt>
      <trkpt lat="48.31162" lon="-1.74413">
        <ele>83.7</ele>
        <time>2019-07-16T09:42:47Z</time>
      </trkpt>
      <trkpt lat="48.31161" lon="-1.74408">
        <ele>83.8</ele>
        <time>2019-07-16T09:42:48Z</time>
      </trkpt>
      <trkpt lat="48.3116" lon="-1.74402">
        <ele>83.4</ele>
        <time>2019-07-16T09:42:49Z</time>
      </trkpt>
      <trkpt lat="48.3116" lon="-1.74397">
        <ele>83.2</ele>
        <time>2019-07-16T09:42:50Z</time>
      </trkpt>
      <trkpt lat="48.31159" lon="-1.74392">
        <ele>83.3</ele>
        <time>2019-07-16T09:42:51Z</time>
      </trkpt>
      <trkpt lat="48.31158" lon="-1.74386">
        <ele>83.3</ele>
        <time>2019-07-16T09:42:52Z</time>
      </trkpt>
      <trkpt lat="48.31158" lon="-1.74379">
        <ele>83.4</ele>
        <time>2019-07-16T09:42:53Z</time>
      </trkpt>
      <trkpt lat="48.31158" lon="-1.74373">
        <ele>83.5</ele>
        <time>2019-07-16T09:42:54Z</time>
      </trkpt>
      <trkpt lat="48.31158" lon="-1.74368">
        <ele>83.1</ele>
        <time>2019-07-16T09:42:55Z</time>
      </trkpt>
      <trkpt lat="48.31158" lon="-1.74362">
        <ele>82.8</ele>
        <time>2019-07-16T09:42:56Z</time>
      </trkpt>
      <trkpt lat="48.31158" lon="-1.74357">
        <ele>82.5</ele>
        <time>2019-07-16T09:42:57Z</time>
      </trkpt>
      <trkpt lat="48.31158" lon="-1.74352">
        <ele>82.3</ele>
        <time>2019-07-16T09:42:58Z</time>
      </trkpt>
      <trkpt lat="48.31158" lon="-1.74346">
        <ele>82.1</ele>
        <time>2019-07-16T09:42:59Z</time>
      </trkpt>
      <trkpt lat="48.31159" lon="-1.7434">
        <ele>81.8</ele>
        <time>2019-07-16T09:43:00Z</time>
      </trkpt>
      <trkpt lat="48.31158" lon="-1.74335">
        <ele>81.6</ele>
        <time>2019-07-16T09:43:01Z</time>
      </trkpt>
      <trkpt lat="48.31158" lon="-1.74329">
        <ele>81.3</ele>
        <time>2019-07-16T09:43:02Z</time>
      </trkpt>
      <trkpt lat="48.31158" lon="-1.74324">
        <ele>80.3</ele>
        <time>2019-07-16T09:43:03Z</time>
      </trkpt>
      <trkpt lat="48.31158" lon="-1.7432">
        <ele>79.7</ele>
        <time>2019-07-16T09:43:04Z</time>
      </trkpt>
      <trkpt lat="48.31159" lon="-1.74315">
        <ele>79.1</ele>
        <time>2019-07-16T09:43:05Z</time>
      </trkpt>
      <trkpt lat="48.31159" lon="-1.74309">
        <ele>78.5</ele>
        <time>2019-07-16T09:43:06Z</time>
      </trkpt>
      <trkpt lat="48.3116" lon="-1.74302">
        <ele>77.9</ele>
        <time>2019-07-16T09:43:07Z</time>
      </trkpt>
      <trkpt lat="48.31161" lon="-1.74296">
        <ele>77.2</ele>
        <time>2019-07-16T09:43:08Z</time>
      </trkpt>
      <trkpt lat="48.31162" lon="-1.74291">
        <ele>76.9</ele>
        <time>2019-07-16T09:43:09Z</time>
      </trkpt>
      <trkpt lat="48.31163" lon="-1.74285">
        <ele>75.9</ele>
        <time>2019-07-16T09:43:10Z</time>
      </trkpt>
      <trkpt lat="48.31165" lon="-1.74279">
        <ele>75.5</ele>
        <time>2019-07-16T09:43:11Z</time>
      </trkpt>
      <trkpt lat="48.31167" lon="-1.74272">
        <ele>74.7</ele>
        <time>2019-07-16T09:43:12Z</time>
      </trkpt>
      <trkpt lat="48.31168" lon="-1.74265">
        <ele>74.2</ele>
        <time>2019-07-16T09:43:13Z</time>
      </trkpt>
      <trkpt lat="48.31168" lon="-1.74259">
        <ele>73.8</ele>
        <time>2019-07-16T09:43:14Z</time>
      </trkpt>
      <trkpt lat="48.31168" lon="-1.74252">
        <ele>73.2</ele>
        <time>2019-07-16T09:43:15Z</time>
      </trkpt>
      <trkpt lat="48.31168" lon="-1.74244">
        <ele>72.6</ele>
        <time>2019-07-16T09:43:16Z</time>
      </trkpt>
      <trkpt lat="48.31168" lon="-1.74237">
        <ele>72.2</ele>
        <time>2019-07-16T09:43:17Z</time>
      </trkpt>
      <trkpt lat="48.31168" lon="-1.74231">
        <ele>71.8</ele>
        <time>2019-07-16T09:43:18Z</time>
      </trkpt>
      <trkpt lat="48.3117" lon="-1.74225">
        <ele>71.4</ele>
        <time>2019-07-16T09:43:19Z</time>
      </trkpt>
      <trkpt lat="48.3117" lon="-1.7422">
        <ele>70.9</ele>
        <time>2019-07-16T09:43:20Z</time>
      </trkpt>
      <trkpt lat="48.3117" lon="-1.74215">
        <ele>70.7</ele>
        <time>2019-07-16T09:43:21Z</time>
      </trkpt>
      <trkpt lat="48.3117" lon="-1.7421">
        <ele>70.1</ele>
        <time>2019-07-16T09:43:22Z</time>
      </trkpt>
      <trkpt lat="48.31169" lon="-1.74204">
        <ele>69.7</ele>
        <time>2019-07-16T09:43:23Z</time>
      </trkpt>
      <trkpt lat="48.31169" lon="-1.74198">
        <ele>69.1</ele>
        <time>2019-07-16T09:43:24Z</time>
      </trkpt>
      <trkpt lat="48.31169" lon="-1.74193">
        <ele>68.9</ele>
        <time>2019-07-16T09:43:25Z</time>
      </trkpt>
      <trkpt lat="48.31169" lon="-1.74188">
        <ele>68.6</ele>
        <time>2019-07-16T09:43:26Z</time>
      </trkpt>
      <trkpt lat="48.3117" lon="-1.74183">
        <ele>68.1</ele>
        <time>2019-07-16T09:43:27Z</time>
      </trkpt>
      <trkpt lat="48.3117" lon="-1.74178">
        <ele>67.6</ele>
        <time>2019-07-16T09:43:28Z</time>
      </trkpt>
      <trkpt lat="48.3117" lon="-1.74172">
        <ele>67.5</ele>
        <time>2019-07-16T09:43:29Z</time>
      </trkpt>
      <trkpt lat="48.3117" lon="-1.74166">
        <ele>67.4</ele>
        <time>2019-07-16T09:43:30Z</time>
      </trkpt>
      <trkpt lat="48.3117" lon="-1.74161">
        <ele>67.2</ele>
        <time>2019-07-16T09:43:31Z</time>
      </trkpt>
      <trkpt lat="48.3117" lon="-1.74157">
        <ele>66.7</ele>
        <time>2019-07-16T09:43:32Z</time>
      </trkpt>
      <trkpt lat="48.31169" lon="-1.74152">
        <ele>66.3</ele>
        <time>2019-07-16T09:43:33Z</time>
      </trkpt>
      <trkpt lat="48.31168" lon="-1.74148">
        <ele>66</ele>
        <time>2019-07-16T09:43:34Z</time>
      </trkpt>
      <trkpt lat="48.31168" lon="-1.74143">
        <ele>65.9</ele>
        <time>2019-07-16T09:43:35Z</time>
      </trkpt>
      <trkpt lat="48.31167" lon="-1.74138">
        <ele>66</ele>
        <time>2019-07-16T09:43:36Z</time>
      </trkpt>
      <trkpt lat="48.31167" lon="-1.74133">
        <ele>65.9</ele>
        <time>2019-07-16T09:43:37Z</time>
      </trkpt>
      <trkpt lat="48.31167" lon="-1.7413">
        <ele>66</ele>
        <time>2019-07-16T09:43:38Z</time>
      </trkpt>
      <trkpt lat="48.31167" lon="-1.74126">
        <ele>65.9</ele>
        <time>2019-07-16T09:43:39Z</time>
      </trkpt>
      <trkpt lat="48.31167" lon="-1.74121">
        <ele>65.8</ele>
        <time>2019-07-16T09:43:40Z</time>
      </trkpt>
      <trkpt lat="48.31167" lon="-1.74117">
        <ele>65.6</ele>
        <time>2019-07-16T09:43:41Z</time>
      </trkpt>
      <trkpt lat="48.31166" lon="-1.74111">
        <ele>65.6</ele>
        <time>2019-07-16T09:43:42Z</time>
      </trkpt>
      <trkpt lat="48.31165" lon="-1.74105">
        <ele>65.7</ele>
        <time>2019-07-16T09:43:43Z</time>
      </trkpt>
      <trkpt lat="48.31165" lon="-1.74098">
        <ele>65.9</ele>
        <time>2019-07-16T09:43:44Z</time>
      </trkpt>
      <trkpt lat="48.31164" lon="-1.74094">
        <ele>66.1</ele>
        <time>2019-07-16T09:43:45Z</time>
      </trkpt>
      <trkpt lat="48.31165" lon="-1.7409">
        <ele>66.4</ele>
        <time>2019-07-16T09:43:46Z</time>
      </trkpt>
      <trkpt lat="48.31167" lon="-1.74086">
        <ele>66.7</ele>
        <time>2019-07-16T09:43:47Z</time>
      </trkpt>
      <trkpt lat="48.31167" lon="-1.74081">
        <ele>67.2</ele>
        <time>2019-07-16T09:43:48Z</time>
      </trkpt>
      <trkpt lat="48.31168" lon="-1.74077">
        <ele>67.6</ele>
        <time>2019-07-16T09:43:49Z</time>
      </trkpt>
      <trkpt lat="48.31169" lon="-1.74073">
        <ele>68.1</ele>
        <time>2019-07-16T09:43:50Z</time>
      </trkpt>
      <trkpt lat="48.3117" lon="-1.74069">
        <ele>68.5</ele>
        <time>2019-07-16T09:43:51Z</time>
      </trkpt>
      <trkpt lat="48.3117" lon="-1.74065">
        <ele>68.7</ele>
        <time>2019-07-16T09:43:52Z</time>
      </trkpt>
      <trkpt lat="48.31171" lon="-1.7406">
        <ele>69.5</ele>
        <time>2019-07-16T09:43:53Z</time>
      </trkpt>
      <trkpt lat="48.31171" lon="-1.74056">
        <ele>69.9</ele>
        <time>2019-07-16T09:43:54Z</time>
      </trkpt>
      <trkpt lat="48.31171" lon="-1.74052">
        <ele>70.4</ele>
        <time>2019-07-16T09:43:55Z</time>
      </trkpt>
      <trkpt lat="48.31172" lon="-1.74047">
        <ele>70.9</ele>
        <time>2019-07-16T09:43:56Z</time>
      </trkpt>
      <trkpt lat="48.31172" lon="-1.74043">
        <ele>71.6</ele>
        <time>2019-07-16T09:43:57Z</time>
      </trkpt>
      <trkpt lat="48.31173" lon="-1.74038">
        <ele>71.8</ele>
        <time>2019-07-16T09:43:58Z</time>
      </trkpt>
      <trkpt lat="48.31173" lon="-1.74033">
        <ele>72.1</ele>
        <time>2019-07-16T09:43:59Z</time>
      </trkpt>
      <trkpt lat="48.31172" lon="-1.74027">
        <ele>72.1</ele>
        <time>2019-07-16T09:44:00Z</time>
      </trkpt>
      <trkpt lat="48.31172" lon="-1.74021">
        <ele>72.3</ele>
        <time>2019-07-16T09:44:01Z</time>
      </trkpt>
      <trkpt lat="48.31172" lon="-1.74015">
        <ele>72.4</ele>
        <time>2019-07-16T09:44:02Z</time>
      </trkpt>
      <trkpt lat="48.31172" lon="-1.7401">
        <ele>72.6</ele>
        <time>2019-07-16T09:44:03Z</time>
      </trkpt>
      <trkpt lat="48.31172" lon="-1.74005">
        <ele>72.8</ele>
        <time>2019-07-16T09:44:04Z</time>
      </trkpt>
      <trkpt lat="48.31171" lon="-1.73999">
        <ele>72.7</ele>
        <time>2019-07-16T09:44:05Z</time>
      </trkpt>
      <trkpt lat="48.31171" lon="-1.73995">
        <ele>72.4</ele>
        <time>2019-07-16T09:44:06Z</time>
      </trkpt>
      <trkpt lat="48.31171" lon="-1.73989">
        <ele>71.8</ele>
        <time>2019-07-16T09:44:07Z</time>
      </trkpt>
      <trkpt lat="48.3117" lon="-1.73984">
        <ele>71.6</ele>
        <time>2019-07-16T09:44:08Z</time>
      </trkpt>
      <trkpt lat="48.3117" lon="-1.73979">
        <ele>71.3</ele>
        <time>2019-07-16T09:44:09Z</time>
      </trkpt>
      <trkpt lat="48.3117" lon="-1.73973">
        <ele>71</ele>
        <time>2019-07-16T09:44:10Z</time>
      </trkpt>
      <trkpt lat="48.31169" lon="-1.73968">
        <ele>70.8</ele>
        <time>2019-07-16T09:44:11Z</time>
      </trkpt>
      <trkpt lat="48.31168" lon="-1.73963">
        <ele>70.7</ele>
        <time>2019-07-16T09:44:12Z</time>
      </trkpt>
      <trkpt lat="48.31168" lon="-1.73958">
        <ele>70.4</ele>
        <time>2019-07-16T09:44:13Z</time>
      </trkpt>
      <trkpt lat="48.31168" lon="-1.73953">
        <ele>70.5</ele>
        <time>2019-07-16T09:44:14Z</time>
      </trkpt>
      <trkpt lat="48.31168" lon="-1.73948">
        <ele>70.5</ele>
        <time>2019-07-16T09:44:15Z</time>
      </trkpt>
      <trkpt lat="48.31168" lon="-1.73943">
        <ele>70.1</ele>
        <time>2019-07-16T09:44:16Z</time>
      </trkpt>
      <trkpt lat="48.31167" lon="-1.73938">
        <ele>69.9</ele>
        <time>2019-07-16T09:44:17Z</time>
      </trkpt>
      <trkpt lat="48.31167" lon="-1.73934">
        <ele>70.1</ele>
        <time>2019-07-16T09:44:18Z</time>
      </trkpt>
      <trkpt lat="48.31168" lon="-1.73929">
        <ele>70</ele>
        <time>2019-07-16T09:44:19Z</time>
      </trkpt>
      <trkpt lat="48.31168" lon="-1.73923">
        <ele>69.9</ele>
        <time>2019-07-16T09:44:20Z</time>
      </trkpt>
      <trkpt lat="48.31169" lon="-1.73919">
        <ele>69.9</ele>
        <time>2019-07-16T09:44:21Z</time>
      </trkpt>
      <trkpt lat="48.31169" lon="-1.73914">
        <ele>69.7</ele>
        <time>2019-07-16T09:44:22Z</time>
      </trkpt>
      <trkpt lat="48.31169" lon="-1.73911">
        <ele>69.6</ele>
        <time>2019-07-16T09:44:23Z</time>
      </trkpt>
      <trkpt lat="48.31168" lon="-1.73906">
        <ele>69.1</ele>
        <time>2019-07-16T09:44:24Z</time>
      </trkpt>
      <trkpt lat="48.31167" lon="-1.739">
        <ele>68.3</ele>
        <time>2019-07-16T09:44:25Z</time>
      </trkpt>
      <trkpt lat="48.31167" lon="-1.73895">
        <ele>68.3</ele>
        <time>2019-07-16T09:44:26Z</time>
      </trkpt>
      <trkpt lat="48.31166" lon="-1.7389">
        <ele>68.5</ele>
        <time>2019-07-16T09:44:27Z</time>
      </trkpt>
      <trkpt lat="48.31166" lon="-1.73886">
        <ele>68.8</ele>
        <time>2019-07-16T09:44:28Z</time>
      </trkpt>
      <trkpt lat="48.31166" lon="-1.73881">
        <ele>68.8</ele>
        <time>2019-07-16T09:44:29Z</time>
      </trkpt>
      <trkpt lat="48.31166" lon="-1.73877">
        <ele>68.8</ele>
        <time>2019-07-16T09:44:30Z</time>
      </trkpt>
      <trkpt lat="48.31165" lon="-1.73874">
        <ele>68.5</ele>
        <time>2019-07-16T09:44:31Z</time>
      </trkpt>
      <trkpt lat="48.31164" lon="-1.73869">
        <ele>68.9</ele>
        <time>2019-07-16T09:44:32Z</time>
      </trkpt>
      <trkpt lat="48.31163" lon="-1.73864">
        <ele>69.2</ele>
        <time>2019-07-16T09:44:33Z</time>
      </trkpt>
      <trkpt lat="48.31163" lon="-1.73858">
        <ele>69.2</ele>
        <time>2019-07-16T09:44:34Z</time>
      </trkpt>
      <trkpt lat="48.31163" lon="-1.73851">
        <ele>69.3</ele>
        <time>2019-07-16T09:44:35Z</time>
      </trkpt>
      <trkpt lat="48.31163" lon="-1.73845">
        <ele>69.3</ele>
        <time>2019-07-16T09:44:36Z</time>
      </trkpt>
      <trkpt lat="48.31163" lon="-1.7384">
        <ele>69.1</ele>
        <time>2019-07-16T09:44:37Z</time>
      </trkpt>
      <trkpt lat="48.31163" lon="-1.73834">
        <ele>69.3</ele>
        <time>2019-07-16T09:44:38Z</time>
      </trkpt>
      <trkpt lat="48.31163" lon="-1.73829">
        <ele>69.5</ele>
        <time>2019-07-16T09:44:39Z</time>
      </trkpt>
      <trkpt lat="48.31163" lon="-1.73822">
        <ele>70</ele>
        <time>2019-07-16T09:44:40Z</time>
      </trkpt>
      <trkpt lat="48.31163" lon="-1.73818">
        <ele>70.4</ele>
        <time>2019-07-16T09:44:41Z</time>
      </trkpt>
      <trkpt lat="48.31164" lon="-1.7381">
        <ele>70.6</ele>
        <time>2019-07-16T09:44:42Z</time>
      </trkpt>
      <trkpt lat="48.31165" lon="-1.73804">
        <ele>70.8</ele>
        <time>2019-07-16T09:44:43Z</time>
      </trkpt>
      <trkpt lat="48.31165" lon="-1.73799">
        <ele>71</ele>
        <time>2019-07-16T09:44:44Z</time>
      </trkpt>
      <trkpt lat="48.31165" lon="-1.73793">
        <ele>71.2</ele>
        <time>2019-07-16T09:44:45Z</time>
      </trkpt>
      <trkpt lat="48.31164" lon="-1.73787">
        <ele>71.4</ele>
        <time>2019-07-16T09:44:46Z</time>
      </trkpt>
      <trkpt lat="48.31164" lon="-1.73783">
        <ele>71.3</ele>
        <time>2019-07-16T09:44:47Z</time>
      </trkpt>
      <trkpt lat="48.31164" lon="-1.73778">
        <ele>71.3</ele>
        <time>2019-07-16T09:44:48Z</time>
      </trkpt>
      <trkpt lat="48.31164" lon="-1.73774">
        <ele>71.3</ele>
        <time>2019-07-16T09:44:49Z</time>
      </trkpt>
      <trkpt lat="48.31164" lon="-1.7377">
        <ele>71.8</ele>
        <time>2019-07-16T09:44:50Z</time>
      </trkpt>
      <trkpt lat="48.31164" lon="-1.73765">
        <ele>72</ele>
        <time>2019-07-16T09:44:51Z</time>
      </trkpt>
      <trkpt lat="48.31164" lon="-1.73759">
        <ele>72.3</ele>
        <time>2019-07-16T09:44:52Z</time>
      </trkpt>
      <trkpt lat="48.31164" lon="-1.73753">
        <ele>71.8</ele>
        <time>2019-07-16T09:44:53Z</time>
      </trkpt>
      <trkpt lat="48.31165" lon="-1.73748">
        <ele>72.3</ele>
        <time>2019-07-16T09:44:54Z</time>
      </trkpt>
      <trkpt lat="48.31167" lon="-1.73743">
        <ele>72.6</ele>
        <time>2019-07-16T09:44:55Z</time>
      </trkpt>
      <trkpt lat="48.31168" lon="-1.73734">
        <ele>72.4</ele>
        <time>2019-07-16T09:44:56Z</time>
      </trkpt>
      <trkpt lat="48.31171" lon="-1.73726">
        <ele>72.5</ele>
        <time>2019-07-16T09:44:57Z</time>
      </trkpt>
      <trkpt lat="48.31171" lon="-1.73718">
        <ele>72.5</ele>
        <time>2019-07-16T09:44:58Z</time>
      </trkpt>
      <trkpt lat="48.31172" lon="-1.7371">
        <ele>72.5</ele>
        <time>2019-07-16T09:44:59Z</time>
      </trkpt>
      <trkpt lat="48.31173" lon="-1.73703">
        <ele>72.3</ele>
        <time>2019-07-16T09:45:00Z</time>
      </trkpt>
      <trkpt lat="48.31173" lon="-1.73696">
        <ele>72.2</ele>
        <time>2019-07-16T09:45:01Z</time>
      </trkpt>
      <trkpt lat="48.31173" lon="-1.73691">
        <ele>71.9</ele>
        <time>2019-07-16T09:45:02Z</time>
      </trkpt>
      <trkpt lat="48.31172" lon="-1.73686">
        <ele>71.9</ele>
        <time>2019-07-16T09:45:03Z</time>
      </trkpt>
      <trkpt lat="48.31171" lon="-1.73681">
        <ele>72.2</ele>
        <time>2019-07-16T09:45:04Z</time>
      </trkpt>
      <trkpt lat="48.31171" lon="-1.73676">
        <ele>72.4</ele>
        <time>2019-07-16T09:45:05Z</time>
      </trkpt>
      <trkpt lat="48.3117" lon="-1.73671">
        <ele>72.7</ele>
        <time>2019-07-16T09:45:06Z</time>
      </trkpt>
      <trkpt lat="48.3117" lon="-1.73667">
        <ele>72.7</ele>
        <time>2019-07-16T09:45:07Z</time>
      </trkpt>
      <trkpt lat="48.31171" lon="-1.73664">
        <ele>72.2</ele>
        <time>2019-07-16T09:45:08Z</time>
      </trkpt>
      <trkpt lat="48.31171" lon="-1.73659">
        <ele>72.2</ele>
        <time>2019-07-16T09:45:09Z</time>
      </trkpt>
      <trkpt lat="48.31171" lon="-1.73655">
        <ele>72.1</ele>
        <time>2019-07-16T09:45:10Z</time>
      </trkpt>
      <trkpt lat="48.31171" lon="-1.7365">
        <ele>72.1</ele>
        <time>2019-07-16T09:45:11Z</time>
      </trkpt>
      <trkpt lat="48.31171" lon="-1.73645">
        <ele>72.1</ele>
        <time>2019-07-16T09:45:12Z</time>
      </trkpt>
      <trkpt lat="48.31171" lon="-1.73641">
        <ele>71.9</ele>
        <time>2019-07-16T09:45:13Z</time>
      </trkpt>
      <trkpt lat="48.31171" lon="-1.73637">
        <ele>71.7</ele>
        <time>2019-07-16T09:45:14Z</time>
      </trkpt>
      <trkpt lat="48.31171" lon="-1.7363">
        <ele>70.9</ele>
        <time>2019-07-16T09:45:15Z</time>
      </trkpt>
      <trkpt lat="48.31171" lon="-1.73624">
        <ele>69.9</ele>
        <time>2019-07-16T09:45:16Z</time>
      </trkpt>
      <trkpt lat="48.31172" lon="-1.73618">
        <ele>69</ele>
        <time>2019-07-16T09:45:17Z</time>
      </trkpt>
      <trkpt lat="48.31173" lon="-1.73614">
        <ele>68.6</ele>
        <time>2019-07-16T09:45:18Z</time>
      </trkpt>
      <trkpt lat="48.31173" lon="-1.73608">
        <ele>68.1</ele>
        <time>2019-07-16T09:45:19Z</time>
      </trkpt>
      <trkpt lat="48.31173" lon="-1.73604">
        <ele>67.7</ele>
        <time>2019-07-16T09:45:20Z</time>
      </trkpt>
      <trkpt lat="48.31172" lon="-1.73599">
        <ele>67.4</ele>
        <time>2019-07-16T09:45:21Z</time>
      </trkpt>
      <trkpt lat="48.31172" lon="-1.73595">
        <ele>66.9</ele>
        <time>2019-07-16T09:45:22Z</time>
      </trkpt>
      <trkpt lat="48.31172" lon="-1.7359">
        <ele>66.2</ele>
        <time>2019-07-16T09:45:23Z</time>
      </trkpt>
      <trkpt lat="48.31172" lon="-1.73586">
        <ele>65.6</ele>
        <time>2019-07-16T09:45:24Z</time>
      </trkpt>
      <trkpt lat="48.31172" lon="-1.73582">
        <ele>64.8</ele>
        <time>2019-07-16T09:45:25Z</time>
      </trkpt>
      <trkpt lat="48.31172" lon="-1.73578">
        <ele>64</ele>
        <time>2019-07-16T09:45:26Z</time>
      </trkpt>
      <trkpt lat="48.31172" lon="-1.73573">
        <ele>63.5</ele>
        <time>2019-07-16T09:45:27Z</time>
      </trkpt>
      <trkpt lat="48.31172" lon="-1.73569">
        <ele>62.4</ele>
        <time>2019-07-16T09:45:28Z</time>
      </trkpt>
      <trkpt lat="48.31172" lon="-1.73565">
        <ele>61.5</ele>
        <time>2019-07-16T09:45:29Z</time>
      </trkpt>
      <trkpt lat="48.31171" lon="-1.73561">
        <ele>61.3</ele>
        <time>2019-07-16T09:45:30Z</time>
      </trkpt>
      <trkpt lat="48.31171" lon="-1.73557">
        <ele>60.8</ele>
        <time>2019-07-16T09:45:31Z</time>
      </trkpt>
      <trkpt lat="48.3117" lon="-1.73553">
        <ele>61.2</ele>
        <time>2019-07-16T09:45:32Z</time>
      </trkpt>
      <trkpt lat="48.3117" lon="-1.73545">
        <ele>61.3</ele>
        <time>2019-07-16T09:45:33Z</time>
      </trkpt>
      <trkpt lat="48.31169" lon="-1.73538">
        <ele>60.9</ele>
        <time>2019-07-16T09:45:34Z</time>
      </trkpt>
      <trkpt lat="48.31168" lon="-1.7353">
        <ele>61.1</ele>
        <time>2019-07-16T09:45:35Z</time>
      </trkpt>
      <trkpt lat="48.31168" lon="-1.73524">
        <ele>61</ele>
        <time>2019-07-16T09:45:36Z</time>
      </trkpt>
      <trkpt lat="48.31168" lon="-1.73516">
        <ele>61</ele>
        <time>2019-07-16T09:45:37Z</time>
      </trkpt>
      <trkpt lat="48.31167" lon="-1.73509">
        <ele>60.5</ele>
        <time>2019-07-16T09:45:38Z</time>
      </trkpt>
      <trkpt lat="48.31166" lon="-1.73502">
        <ele>60.5</ele>
        <time>2019-07-16T09:45:39Z</time>
      </trkpt>
      <trkpt lat="48.31165" lon="-1.73496">
        <ele>60.2</ele>
        <time>2019-07-16T09:45:40Z</time>
      </trkpt>
      <trkpt lat="48.31164" lon="-1.7349">
        <ele>59.7</ele>
        <time>2019-07-16T09:45:41Z</time>
      </trkpt>
      <trkpt lat="48.31164" lon="-1.73485">
        <ele>59.4</ele>
        <time>2019-07-16T09:45:42Z</time>
      </trkpt>
      <trkpt lat="48.31163" lon="-1.7348">
        <ele>59.1</ele>
        <time>2019-07-16T09:45:43Z</time>
      </trkpt>
      <trkpt lat="48.31163" lon="-1.73475">
        <ele>58.8</ele>
        <time>2019-07-16T09:45:44Z</time>
      </trkpt>
      <trkpt lat="48.31163" lon="-1.7347">
        <ele>58.5</ele>
        <time>2019-07-16T09:45:45Z</time>
      </trkpt>
      <trkpt lat="48.31163" lon="-1.73465">
        <ele>58.2</ele>
        <time>2019-07-16T09:45:46Z</time>
      </trkpt>
      <trkpt lat="48.31163" lon="-1.7346">
        <ele>58</ele>
        <time>2019-07-16T09:45:47Z</time>
      </trkpt>
      <trkpt lat="48.31164" lon="-1.73455">
        <ele>57.7</ele>
        <time>2019-07-16T09:45:48Z</time>
      </trkpt>
      <trkpt lat="48.31164" lon="-1.73449">
        <ele>57.6</ele>
        <time>2019-07-16T09:45:49Z</time>
      </trkpt>
      <trkpt lat="48.31164" lon="-1.73443">
        <ele>57.4</ele>
        <time>2019-07-16T09:45:50Z</time>
      </trkpt>
      <trkpt lat="48.31163" lon="-1.73438">
        <ele>57</ele>
        <time>2019-07-16T09:45:51Z</time>
      </trkpt>
      <trkpt lat="48.31163" lon="-1.73432">
        <ele>56.5</ele>
        <time>2019-07-16T09:45:52Z</time>
      </trkpt>
      <trkpt lat="48.31163" lon="-1.73423">
        <ele>56.4</ele>
        <time>2019-07-16T09:45:53Z</time>
      </trkpt>
      <trkpt lat="48.31164" lon="-1.73415">
        <ele>56.4</ele>
        <time>2019-07-16T09:45:54Z</time>
      </trkpt>
      <trkpt lat="48.31163" lon="-1.73409">
        <ele>56.5</ele>
        <time>2019-07-16T09:45:55Z</time>
      </trkpt>
      <trkpt lat="48.31163" lon="-1.73403">
        <ele>56.6</ele>
        <time>2019-07-16T09:45:56Z</time>
      </trkpt>
      <trkpt lat="48.31164" lon="-1.73398">
        <ele>56.6</ele>
        <time>2019-07-16T09:45:57Z</time>
      </trkpt>
      <trkpt lat="48.31164" lon="-1.73391">
        <ele>56.7</ele>
        <time>2019-07-16T09:45:58Z</time>
      </trkpt>
      <trkpt lat="48.31164" lon="-1.73386">
        <ele>56.9</ele>
        <time>2019-07-16T09:45:59Z</time>
      </trkpt>
      <trkpt lat="48.31164" lon="-1.73381">
        <ele>57.2</ele>
        <time>2019-07-16T09:46:00Z</time>
      </trkpt>
      <trkpt lat="48.31164" lon="-1.73375">
        <ele>57.2</ele>
        <time>2019-07-16T09:46:01Z</time>
      </trkpt>
      <trkpt lat="48.31164" lon="-1.73369">
        <ele>57.3</ele>
        <time>2019-07-16T09:46:02Z</time>
      </trkpt>
      <trkpt lat="48.31164" lon="-1.73364">
        <ele>57.4</ele>
        <time>2019-07-16T09:46:03Z</time>
      </trkpt>
      <trkpt lat="48.31164" lon="-1.73357">
        <ele>57.6</ele>
        <time>2019-07-16T09:46:04Z</time>
      </trkpt>
      <trkpt lat="48.31165" lon="-1.73351">
        <ele>58.1</ele>
        <time>2019-07-16T09:46:05Z</time>
      </trkpt>
      <trkpt lat="48.31165" lon="-1.73345">
        <ele>58.2</ele>
        <time>2019-07-16T09:46:06Z</time>
      </trkpt>
      <trkpt lat="48.31165" lon="-1.73339">
        <ele>58.6</ele>
        <time>2019-07-16T09:46:07Z</time>
      </trkpt>
      <trkpt lat="48.31165" lon="-1.73334">
        <ele>58.8</ele>
        <time>2019-07-16T09:46:08Z</time>
      </trkpt>
      <trkpt lat="48.31166" lon="-1.73328">
        <ele>59</ele>
        <time>2019-07-16T09:46:09Z</time>
      </trkpt>
      <trkpt lat="48.31166" lon="-1.73323">
        <ele>58.7</ele>
        <time>2019-07-16T09:46:10Z</time>
      </trkpt>
      <trkpt lat="48.31167" lon="-1.73318">
        <ele>58.4</ele>
        <time>2019-07-16T09:46:11Z</time>
      </trkpt>
      <trkpt lat="48.31167" lon="-1.73314">
        <ele>58.2</ele>
        <time>2019-07-16T09:46:12Z</time>
      </trkpt>
      <trkpt lat="48.31167" lon="-1.73309">
        <ele>58</ele>
        <time>2019-07-16T09:46:13Z</time>
      </trkpt>
      <trkpt lat="48.31167" lon="-1.73304">
        <ele>58.1</ele>
        <time>2019-07-16T09:46:14Z</time>
      </trkpt>
      <trkpt lat="48.31167" lon="-1.73298">
        <ele>58.3</ele>
        <time>2019-07-16T09:46:15Z</time>
      </trkpt>
      <trkpt lat="48.31167" lon="-1.73293">
        <ele>58.4</ele>
        <time>2019-07-16T09:46:16Z</time>
      </trkpt>
      <trkpt lat="48.31166" lon="-1.73287">
        <ele>58.9</ele>
        <time>2019-07-16T09:46:17Z</time>
      </trkpt>
      <trkpt lat="48.31166" lon="-1.73281">
        <ele>59.5</ele>
        <time>2019-07-16T09:46:18Z</time>
      </trkpt>
      <trkpt lat="48.31165" lon="-1.73274">
        <ele>59.8</ele>
        <time>2019-07-16T09:46:19Z</time>
      </trkpt>
      <trkpt lat="48.31165" lon="-1.73267">
        <ele>60</ele>
        <time>2019-07-16T09:46:20Z</time>
      </trkpt>
      <trkpt lat="48.31164" lon="-1.7326">
        <ele>60.8</ele>
        <time>2019-07-16T09:46:21Z</time>
      </trkpt>
      <trkpt lat="48.31163" lon="-1.73254">
        <ele>61.5</ele>
        <time>2019-07-16T09:46:22Z</time>
      </trkpt>
      <trkpt lat="48.31163" lon="-1.73247">
        <ele>61.8</ele>
        <time>2019-07-16T09:46:23Z</time>
      </trkpt>
      <trkpt lat="48.31163" lon="-1.73241">
        <ele>62.2</ele>
        <time>2019-07-16T09:46:24Z</time>
      </trkpt>
      <trkpt lat="48.31163" lon="-1.73235">
        <ele>62.4</ele>
        <time>2019-07-16T09:46:25Z</time>
      </trkpt>
      <trkpt lat="48.31163" lon="-1.73228">
        <ele>62</ele>
        <time>2019-07-16T09:46:26Z</time>
      </trkpt>
      <trkpt lat="48.31163" lon="-1.73222">
        <ele>62.6</ele>
        <time>2019-07-16T09:46:27Z</time>
      </trkpt>
      <trkpt lat="48.31163" lon="-1.73215">
        <ele>63.4</ele>
        <time>2019-07-16T09:46:28Z</time>
      </trkpt>
      <trkpt lat="48.31163" lon="-1.73208">
        <ele>63.8</ele>
        <time>2019-07-16T09:46:29Z</time>
      </trkpt>
      <trkpt lat="48.31163" lon="-1.732">
        <ele>64.8</ele>
        <time>2019-07-16T09:46:30Z</time>
      </trkpt>
      <trkpt lat="48.31163" lon="-1.73193">
        <ele>65.3</ele>
        <time>2019-07-16T09:46:31Z</time>
      </trkpt>
      <trkpt lat="48.31162" lon="-1.73185">
        <ele>65.3</ele>
        <time>2019-07-16T09:46:32Z</time>
      </trkpt>
      <trkpt lat="48.31162" lon="-1.73178">
        <ele>65.4</ele>
        <time>2019-07-16T09:46:33Z</time>
      </trkpt>
      <trkpt lat="48.31162" lon="-1.73172">
        <ele>65.5</ele>
        <time>2019-07-16T09:46:34Z</time>
      </trkpt>
      <trkpt lat="48.31163" lon="-1.73166">
        <ele>65.7</ele>
        <time>2019-07-16T09:46:35Z</time>
      </trkpt>
      <trkpt lat="48.31162" lon="-1.73159">
        <ele>65.8</ele>
        <time>2019-07-16T09:46:36Z</time>
      </trkpt>
      <trkpt lat="48.31162" lon="-1.7315">
        <ele>66.1</ele>
        <time>2019-07-16T09:46:37Z</time>
      </trkpt>
      <trkpt lat="48.31162" lon="-1.73142">
        <ele>66.3</ele>
        <time>2019-07-16T09:46:38Z</time>
      </trkpt>
      <trkpt lat="48.31162" lon="-1.73133">
        <ele>66.6</ele>
        <time>2019-07-16T09:46:39Z</time>
      </trkpt>
      <trkpt lat="48.31162" lon="-1.73125">
        <ele>66.7</ele>
        <time>2019-07-16T09:46:40Z</time>
      </trkpt>
      <trkpt lat="48.31161" lon="-1.73117">
        <ele>66.8</ele>
        <time>2019-07-16T09:46:41Z</time>
      </trkpt>
      <trkpt lat="48.31161" lon="-1.73108">
        <ele>66.6</ele>
        <time>2019-07-16T09:46:42Z</time>
      </trkpt>
      <trkpt lat="48.31161" lon="-1.73101">
        <ele>66.2</ele>
        <time>2019-07-16T09:46:43Z</time>
      </trkpt>
      <trkpt lat="48.3116" lon="-1.73094">
        <ele>66.4</ele>
        <time>2019-07-16T09:46:44Z</time>
      </trkpt>
      <trkpt lat="48.3116" lon="-1.73087">
        <ele>66.3</ele>
        <time>2019-07-16T09:46:45Z</time>
      </trkpt>
      <trkpt lat="48.31159" lon="-1.73081">
        <ele>66.2</ele>
        <time>2019-07-16T09:46:46Z</time>
      </trkpt>
      <trkpt lat="48.31157" lon="-1.73076">
        <ele>66.1</ele>
        <time>2019-07-16T09:46:47Z</time>
      </trkpt>
      <trkpt lat="48.31156" lon="-1.73071">
        <ele>66.1</ele>
        <time>2019-07-16T09:46:48Z</time>
      </trkpt>
      <trkpt lat="48.31156" lon="-1.73067">
        <ele>66.2</ele>
        <time>2019-07-16T09:46:49Z</time>
      </trkpt>
      <trkpt lat="48.31156" lon="-1.73064">
        <ele>66</ele>
        <time>2019-07-16T09:46:50Z</time>
      </trkpt>
      <trkpt lat="48.31156" lon="-1.73059">
        <ele>65.8</ele>
        <time>2019-07-16T09:46:51Z</time>
      </trkpt>
      <trkpt lat="48.31155" lon="-1.73054">
        <ele>65.8</ele>
        <time>2019-07-16T09:46:52Z</time>
      </trkpt>
      <trkpt lat="48.31155" lon="-1.73048">
        <ele>65.5</ele>
        <time>2019-07-16T09:46:53Z</time>
      </trkpt>
      <trkpt lat="48.31155" lon="-1.73043">
        <ele>65.3</ele>
        <time>2019-07-16T09:46:54Z</time>
      </trkpt>
      <trkpt lat="48.31155" lon="-1.73037">
        <ele>65.1</ele>
        <time>2019-07-16T09:46:55Z</time>
      </trkpt>
      <trkpt lat="48.31155" lon="-1.73031">
        <ele>64.8</ele>
        <time>2019-07-16T09:46:56Z</time>
      </trkpt>
      <trkpt lat="48.31155" lon="-1.73026">
        <ele>64.8</ele>
        <time>2019-07-16T09:46:57Z</time>
      </trkpt>
      <trkpt lat="48.31155" lon="-1.7302">
        <ele>64.7</ele>
        <time>2019-07-16T09:46:58Z</time>
      </trkpt>
      <trkpt lat="48.31155" lon="-1.73015">
        <ele>64.8</ele>
        <time>2019-07-16T09:46:59Z</time>
      </trkpt>
      <trkpt lat="48.31155" lon="-1.73011">
        <ele>64.9</ele>
        <time>2019-07-16T09:47:00Z</time>
      </trkpt>
      <trkpt lat="48.31155" lon="-1.73006">
        <ele>65.1</ele>
        <time>2019-07-16T09:47:01Z</time>
      </trkpt>
      <trkpt lat="48.31156" lon="-1.73001">
        <ele>65.2</ele>
        <time>2019-07-16T09:47:02Z</time>
      </trkpt>
      <trkpt lat="48.31156" lon="-1.72995">
        <ele>65.3</ele>
        <time>2019-07-16T09:47:03Z</time>
      </trkpt>
      <trkpt lat="48.31156" lon="-1.72989">
        <ele>65.1</ele>
        <time>2019-07-16T09:47:04Z</time>
      </trkpt>
      <trkpt lat="48.31155" lon="-1.72983">
        <ele>64.7</ele>
        <time>2019-07-16T09:47:05Z</time>
      </trkpt>
      <trkpt lat="48.31155" lon="-1.72978">
        <ele>64.8</ele>
        <time>2019-07-16T09:47:06Z</time>
      </trkpt>
      <trkpt lat="48.31155" lon="-1.72972">
        <ele>64.6</ele>
        <time>2019-07-16T09:47:07Z</time>
      </trkpt>
      <trkpt lat="48.31155" lon="-1.72967">
        <ele>64.6</ele>
        <time>2019-07-16T09:47:08Z</time>
      </trkpt>
      <trkpt lat="48.31155" lon="-1.7296">
        <ele>64.7</ele>
        <time>2019-07-16T09:47:09Z</time>
      </trkpt>
      <trkpt lat="48.31154" lon="-1.72954">
        <ele>65</ele>
        <time>2019-07-16T09:47:10Z</time>
      </trkpt>
      <trkpt lat="48.31154" lon="-1.72948">
        <ele>65.1</ele>
        <time>2019-07-16T09:47:11Z</time>
      </trkpt>
      <trkpt lat="48.31155" lon="-1.72943">
        <ele>65.4</ele>
        <time>2019-07-16T09:47:12Z</time>
      </trkpt>
      <trkpt lat="48.31155" lon="-1.72936">
        <ele>65.8</ele>
        <time>2019-07-16T09:47:13Z</time>
      </trkpt>
      <trkpt lat="48.31155" lon="-1.7293">
        <ele>66.2</ele>
        <time>2019-07-16T09:47:14Z</time>
      </trkpt>
      <trkpt lat="48.31155" lon="-1.72924">
        <ele>66.6</ele>
        <time>2019-07-16T09:47:15Z</time>
      </trkpt>
      <trkpt lat="48.31155" lon="-1.72918">
        <ele>66.6</ele>
        <time>2019-07-16T09:47:16Z</time>
      </trkpt>
      <trkpt lat="48.31155" lon="-1.72912">
        <ele>66.5</ele>
        <time>2019-07-16T09:47:17Z</time>
      </trkpt>
      <trkpt lat="48.31154" lon="-1.72907">
        <ele>66.5</ele>
        <time>2019-07-16T09:47:18Z</time>
      </trkpt>
      <trkpt lat="48.31154" lon="-1.72901">
        <ele>66.3</ele>
        <time>2019-07-16T09:47:19Z</time>
      </trkpt>
      <trkpt lat="48.31153" lon="-1.72896">
        <ele>66.1</ele>
        <time>2019-07-16T09:47:20Z</time>
      </trkpt>
      <trkpt lat="48.31153" lon="-1.7289">
        <ele>66.2</ele>
        <time>2019-07-16T09:47:21Z</time>
      </trkpt>
      <trkpt lat="48.31152" lon="-1.72885">
        <ele>65.9</ele>
        <time>2019-07-16T09:47:22Z</time>
      </trkpt>
      <trkpt lat="48.31152" lon="-1.72879">
        <ele>65.7</ele>
        <time>2019-07-16T09:47:23Z</time>
      </trkpt>
      <trkpt lat="48.31152" lon="-1.72874">
        <ele>65.5</ele>
        <time>2019-07-16T09:47:24Z</time>
      </trkpt>
      <trkpt lat="48.31152" lon="-1.72868">
        <ele>65.2</ele>
        <time>2019-07-16T09:47:25Z</time>
      </trkpt>
      <trkpt lat="48.31152" lon="-1.72863">
        <ele>64.8</ele>
        <time>2019-07-16T09:47:26Z</time>
      </trkpt>
      <trkpt lat="48.31151" lon="-1.72857">
        <ele>64.7</ele>
        <time>2019-07-16T09:47:27Z</time>
      </trkpt>
      <trkpt lat="48.31151" lon="-1.72851">
        <ele>64.7</ele>
        <time>2019-07-16T09:47:28Z</time>
      </trkpt>
      <trkpt lat="48.3115" lon="-1.72845">
        <ele>64.5</ele>
        <time>2019-07-16T09:47:29Z</time>
      </trkpt>
      <trkpt lat="48.3115" lon="-1.72839">
        <ele>64.1</ele>
        <time>2019-07-16T09:47:30Z</time>
      </trkpt>
      <trkpt lat="48.3115" lon="-1.72833">
        <ele>64.1</ele>
        <time>2019-07-16T09:47:31Z</time>
      </trkpt>
      <trkpt lat="48.31149" lon="-1.72828">
        <ele>64.2</ele>
        <time>2019-07-16T09:47:32Z</time>
      </trkpt>
      <trkpt lat="48.31149" lon="-1.72822">
        <ele>64.2</ele>
        <time>2019-07-16T09:47:33Z</time>
      </trkpt>
      <trkpt lat="48.31149" lon="-1.72817">
        <ele>64</ele>
        <time>2019-07-16T09:47:34Z</time>
      </trkpt>
      <trkpt lat="48.31149" lon="-1.72811">
        <ele>63.9</ele>
        <time>2019-07-16T09:47:35Z</time>
      </trkpt>
      <trkpt lat="48.31149" lon="-1.72805">
        <ele>63.6</ele>
        <time>2019-07-16T09:47:36Z</time>
      </trkpt>
      <trkpt lat="48.31149" lon="-1.72799">
        <ele>63.4</ele>
        <time>2019-07-16T09:47:37Z</time>
      </trkpt>
      <trkpt lat="48.31149" lon="-1.72794">
        <ele>63.2</ele>
        <time>2019-07-16T09:47:38Z</time>
      </trkpt>
      <trkpt lat="48.3115" lon="-1.72789">
        <ele>63.1</ele>
        <time>2019-07-16T09:47:39Z</time>
      </trkpt>
      <trkpt lat="48.3115" lon="-1.72783">
        <ele>62.9</ele>
        <time>2019-07-16T09:47:40Z</time>
      </trkpt>
      <trkpt lat="48.31146" lon="-1.72777">
        <ele>61.7</ele>
        <time>2019-07-16T09:47:41Z</time>
      </trkpt>
      <trkpt lat="48.31146" lon="-1.72771">
        <ele>61.5</ele>
        <time>2019-07-16T09:47:42Z</time>
      </trkpt>
      <trkpt lat="48.31146" lon="-1.72765">
        <ele>60.9</ele>
        <time>2019-07-16T09:47:43Z</time>
      </trkpt>
      <trkpt lat="48.31147" lon="-1.72759">
        <ele>60.5</ele>
        <time>2019-07-16T09:47:44Z</time>
      </trkpt>
      <trkpt lat="48.31146" lon="-1.72752">
        <ele>60.5</ele>
        <time>2019-07-16T09:47:45Z</time>
      </trkpt>
      <trkpt lat="48.31146" lon="-1.72746">
        <ele>60.5</ele>
        <time>2019-07-16T09:47:46Z</time>
      </trkpt>
      <trkpt lat="48.31146" lon="-1.72742">
        <ele>60.7</ele>
        <time>2019-07-16T09:47:47Z</time>
      </trkpt>
      <trkpt lat="48.31146" lon="-1.72736">
        <ele>60.9</ele>
        <time>2019-07-16T09:47:48Z</time>
      </trkpt>
      <trkpt lat="48.31146" lon="-1.7273">
        <ele>61.1</ele>
        <time>2019-07-16T09:47:49Z</time>
      </trkpt>
      <trkpt lat="48.31146" lon="-1.72723">
        <ele>61.1</ele>
        <time>2019-07-16T09:47:50Z</time>
      </trkpt>
      <trkpt lat="48.31145" lon="-1.72717">
        <ele>61.2</ele>
        <time>2019-07-16T09:47:51Z</time>
      </trkpt>
      <trkpt lat="48.31144" lon="-1.7271">
        <ele>61.4</ele>
        <time>2019-07-16T09:47:52Z</time>
      </trkpt>
      <trkpt lat="48.31145" lon="-1.72704">
        <ele>61.5</ele>
        <time>2019-07-16T09:47:53Z</time>
      </trkpt>
      <trkpt lat="48.31145" lon="-1.72698">
        <ele>61.5</ele>
        <time>2019-07-16T09:47:54Z</time>
      </trkpt>
      <trkpt lat="48.31145" lon="-1.72692">
        <ele>61.7</ele>
        <time>2019-07-16T09:47:55Z</time>
      </trkpt>
      <trkpt lat="48.31145" lon="-1.72686">
        <ele>61.6</ele>
        <time>2019-07-16T09:47:56Z</time>
      </trkpt>
      <trkpt lat="48.31145" lon="-1.72681">
        <ele>61.3</ele>
        <time>2019-07-16T09:47:57Z</time>
      </trkpt>
      <trkpt lat="48.31144" lon="-1.72675">
        <ele>61.1</ele>
        <time>2019-07-16T09:47:58Z</time>
      </trkpt>
      <trkpt lat="48.31144" lon="-1.72668">
        <ele>61</ele>
        <time>2019-07-16T09:47:59Z</time>
      </trkpt>
      <trkpt lat="48.31143" lon="-1.72662">
        <ele>60.8</ele>
        <time>2019-07-16T09:48:00Z</time>
      </trkpt>
      <trkpt lat="48.31143" lon="-1.72656">
        <ele>60.8</ele>
        <time>2019-07-16T09:48:01Z</time>
      </trkpt>
      <trkpt lat="48.31142" lon="-1.7265">
        <ele>60.7</ele>
        <time>2019-07-16T09:48:02Z</time>
      </trkpt>
      <trkpt lat="48.31143" lon="-1.72644">
        <ele>60.7</ele>
        <time>2019-07-16T09:48:03Z</time>
      </trkpt>
      <trkpt lat="48.31144" lon="-1.72638">
        <ele>60.5</ele>
        <time>2019-07-16T09:48:04Z</time>
      </trkpt>
      <trkpt lat="48.31144" lon="-1.72632">
        <ele>60.3</ele>
        <time>2019-07-16T09:48:05Z</time>
      </trkpt>
      <trkpt lat="48.31144" lon="-1.72626">
        <ele>60.3</ele>
        <time>2019-07-16T09:48:06Z</time>
      </trkpt>
      <trkpt lat="48.31144" lon="-1.7262">
        <ele>60.4</ele>
        <time>2019-07-16T09:48:07Z</time>
      </trkpt>
      <trkpt lat="48.31144" lon="-1.72613">
        <ele>61.4</ele>
        <time>2019-07-16T09:48:08Z</time>
      </trkpt>
      <trkpt lat="48.31144" lon="-1.72607">
        <ele>62.1</ele>
        <time>2019-07-16T09:48:09Z</time>
      </trkpt>
      <trkpt lat="48.31144" lon="-1.72601">
        <ele>62.4</ele>
        <time>2019-07-16T09:48:10Z</time>
      </trkpt>
      <trkpt lat="48.31143" lon="-1.72595">
        <ele>62.2</ele>
        <time>2019-07-16T09:48:11Z</time>
      </trkpt>
      <trkpt lat="48.31143" lon="-1.72589">
        <ele>61.7</ele>
        <time>2019-07-16T09:48:12Z</time>
      </trkpt>
      <trkpt lat="48.31143" lon="-1.72583">
        <ele>61.4</ele>
        <time>2019-07-16T09:48:13Z</time>
      </trkpt>
      <trkpt lat="48.31143" lon="-1.72578">
        <ele>61.1</ele>
        <time>2019-07-16T09:48:14Z</time>
      </trkpt>
      <trkpt lat="48.31143" lon="-1.72574">
        <ele>60.5</ele>
        <time>2019-07-16T09:48:15Z</time>
      </trkpt>
      <trkpt lat="48.31144" lon="-1.72569">
        <ele>59.7</ele>
        <time>2019-07-16T09:48:16Z</time>
      </trkpt>
      <trkpt lat="48.31144" lon="-1.72563">
        <ele>59</ele>
        <time>2019-07-16T09:48:17Z</time>
      </trkpt>
      <trkpt lat="48.31144" lon="-1.72557">
        <ele>58.5</ele>
        <time>2019-07-16T09:48:18Z</time>
      </trkpt>
      <trkpt lat="48.31144" lon="-1.72552">
        <ele>58</ele>
        <time>2019-07-16T09:48:19Z</time>
      </trkpt>
      <trkpt lat="48.31143" lon="-1.72547">
        <ele>57.7</ele>
        <time>2019-07-16T09:48:20Z</time>
      </trkpt>
      <trkpt lat="48.31143" lon="-1.72542">
        <ele>57.3</ele>
        <time>2019-07-16T09:48:21Z</time>
      </trkpt>
      <trkpt lat="48.31144" lon="-1.72537">
        <ele>56.9</ele>
        <time>2019-07-16T09:48:22Z</time>
      </trkpt>
      <trkpt lat="48.31144" lon="-1.72533">
        <ele>57.1</ele>
        <time>2019-07-16T09:48:23Z</time>
      </trkpt>
      <trkpt lat="48.31144" lon="-1.72529">
        <ele>57.4</ele>
        <time>2019-07-16T09:48:24Z</time>
      </trkpt>
      <trkpt lat="48.31144" lon="-1.72525">
        <ele>57.4</ele>
        <time>2019-07-16T09:48:25Z</time>
      </trkpt>
      <trkpt lat="48.31144" lon="-1.72521">
        <ele>57.7</ele>
        <time>2019-07-16T09:48:26Z</time>
      </trkpt>
      <trkpt lat="48.31145" lon="-1.72517">
        <ele>57.8</ele>
        <time>2019-07-16T09:48:27Z</time>
      </trkpt>
      <trkpt lat="48.31145" lon="-1.72513">
        <ele>58.2</ele>
        <time>2019-07-16T09:48:28Z</time>
      </trkpt>
      <trkpt lat="48.31146" lon="-1.72507">
        <ele>58.3</ele>
        <time>2019-07-16T09:48:29Z</time>
      </trkpt>
      <trkpt lat="48.31147" lon="-1.72502">
        <ele>58</ele>
        <time>2019-07-16T09:48:30Z</time>
      </trkpt>
      <trkpt lat="48.31147" lon="-1.72494">
        <ele>58.2</ele>
        <time>2019-07-16T09:48:31Z</time>
      </trkpt>
      <trkpt lat="48.31147" lon="-1.7249">
        <ele>58.1</ele>
        <time>2019-07-16T09:48:32Z</time>
      </trkpt>
      <trkpt lat="48.31147" lon="-1.72484">
        <ele>57.2</ele>
        <time>2019-07-16T09:48:33Z</time>
      </trkpt>
      <trkpt lat="48.31148" lon="-1.72478">
        <ele>57.3</ele>
        <time>2019-07-16T09:48:34Z</time>
      </trkpt>
      <trkpt lat="48.31148" lon="-1.72472">
        <ele>58</ele>
        <time>2019-07-16T09:48:35Z</time>
      </trkpt>
      <trkpt lat="48.31148" lon="-1.72466">
        <ele>59.2</ele>
        <time>2019-07-16T09:48:36Z</time>
      </trkpt>
      <trkpt lat="48.31149" lon="-1.7246">
        <ele>59.4</ele>
        <time>2019-07-16T09:48:37Z</time>
      </trkpt>
      <trkpt lat="48.31149" lon="-1.72455">
        <ele>59.5</ele>
        <time>2019-07-16T09:48:38Z</time>
      </trkpt>
      <trkpt lat="48.3115" lon="-1.7245">
        <ele>59.6</ele>
        <time>2019-07-16T09:48:39Z</time>
      </trkpt>
      <trkpt lat="48.3115" lon="-1.72444">
        <ele>60.1</ele>
        <time>2019-07-16T09:48:40Z</time>
      </trkpt>
      <trkpt lat="48.31151" lon="-1.72438">
        <ele>60.7</ele>
        <time>2019-07-16T09:48:41Z</time>
      </trkpt>
      <trkpt lat="48.31152" lon="-1.72433">
        <ele>61.4</ele>
        <time>2019-07-16T09:48:42Z</time>
      </trkpt>
      <trkpt lat="48.31153" lon="-1.72426">
        <ele>61.2</ele>
        <time>2019-07-16T09:48:43Z</time>
      </trkpt>
      <trkpt lat="48.31154" lon="-1.7242">
        <ele>61.9</ele>
        <time>2019-07-16T09:48:44Z</time>
      </trkpt>
      <trkpt lat="48.31155" lon="-1.72414">
        <ele>62.2</ele>
        <time>2019-07-16T09:48:45Z</time>
      </trkpt>
      <trkpt lat="48.31156" lon="-1.72408">
        <ele>62</ele>
        <time>2019-07-16T09:48:46Z</time>
      </trkpt>
      <trkpt lat="48.31157" lon="-1.72402">
        <ele>62.3</ele>
        <time>2019-07-16T09:48:47Z</time>
      </trkpt>
      <trkpt lat="48.31158" lon="-1.72396">
        <ele>62.4</ele>
        <time>2019-07-16T09:48:48Z</time>
      </trkpt>
      <trkpt lat="48.31158" lon="-1.72391">
        <ele>61.4</ele>
        <time>2019-07-16T09:48:49Z</time>
      </trkpt>
      <trkpt lat="48.31159" lon="-1.72385">
        <ele>60.8</ele>
        <time>2019-07-16T09:48:50Z</time>
      </trkpt>
      <trkpt lat="48.3116" lon="-1.72379">
        <ele>60.6</ele>
        <time>2019-07-16T09:48:51Z</time>
      </trkpt>
      <trkpt lat="48.31161" lon="-1.72374">
        <ele>60.6</ele>
        <time>2019-07-16T09:48:52Z</time>
      </trkpt>
      <trkpt lat="48.31162" lon="-1.72369">
        <ele>60.3</ele>
        <time>2019-07-16T09:48:53Z</time>
      </trkpt>
      <trkpt lat="48.31164" lon="-1.72363">
        <ele>60.7</ele>
        <time>2019-07-16T09:48:54Z</time>
      </trkpt>
      <trkpt lat="48.31165" lon="-1.72356">
        <ele>60.8</ele>
        <time>2019-07-16T09:48:55Z</time>
      </trkpt>
      <trkpt lat="48.31166" lon="-1.7235">
        <ele>61</ele>
        <time>2019-07-16T09:48:56Z</time>
      </trkpt>
      <trkpt lat="48.31167" lon="-1.72343">
        <ele>61.4</ele>
        <time>2019-07-16T09:48:57Z</time>
      </trkpt>
      <trkpt lat="48.31168" lon="-1.72337">
        <ele>61.1</ele>
        <time>2019-07-16T09:48:58Z</time>
      </trkpt>
      <trkpt lat="48.31169" lon="-1.72332">
        <ele>60.9</ele>
        <time>2019-07-16T09:48:59Z</time>
      </trkpt>
      <trkpt lat="48.3117" lon="-1.72325">
        <ele>60.8</ele>
        <time>2019-07-16T09:49:00Z</time>
      </trkpt>
      <trkpt lat="48.31171" lon="-1.7232">
        <ele>60.9</ele>
        <time>2019-07-16T09:49:01Z</time>
      </trkpt>
      <trkpt lat="48.31173" lon="-1.72314">
        <ele>61.1</ele>
        <time>2019-07-16T09:49:02Z</time>
      </trkpt>
      <trkpt lat="48.31174" lon="-1.72309">
        <ele>61.3</ele>
        <time>2019-07-16T09:49:03Z</time>
      </trkpt>
      <trkpt lat="48.31175" lon="-1.72303">
        <ele>61.7</ele>
        <time>2019-07-16T09:49:04Z</time>
      </trkpt>
      <trkpt lat="48.31176" lon="-1.72298">
        <ele>61.9</ele>
        <time>2019-07-16T09:49:05Z</time>
      </trkpt>
      <trkpt lat="48.31178" lon="-1.72293">
        <ele>62.2</ele>
        <time>2019-07-16T09:49:06Z</time>
      </trkpt>
      <trkpt lat="48.31178" lon="-1.72288">
        <ele>62.9</ele>
        <time>2019-07-16T09:49:07Z</time>
      </trkpt>
      <trkpt lat="48.3118" lon="-1.72283">
        <ele>63.5</ele>
        <time>2019-07-16T09:49:08Z</time>
      </trkpt>
      <trkpt lat="48.31181" lon="-1.72277">
        <ele>63.3</ele>
        <time>2019-07-16T09:49:09Z</time>
      </trkpt>
      <trkpt lat="48.31183" lon="-1.72272">
        <ele>63.6</ele>
        <time>2019-07-16T09:49:10Z</time>
      </trkpt>
      <trkpt lat="48.31184" lon="-1.72266">
        <ele>63.7</ele>
        <time>2019-07-16T09:49:11Z</time>
      </trkpt>
      <trkpt lat="48.31185" lon="-1.72261">
        <ele>63.8</ele>
        <time>2019-07-16T09:49:12Z</time>
      </trkpt>
      <trkpt lat="48.31187" lon="-1.72256">
        <ele>63.9</ele>
        <time>2019-07-16T09:49:13Z</time>
      </trkpt>
      <trkpt lat="48.31187" lon="-1.72251">
        <ele>64</ele>
        <time>2019-07-16T09:49:14Z</time>
      </trkpt>
      <trkpt lat="48.31188" lon="-1.72245">
        <ele>64</ele>
        <time>2019-07-16T09:49:15Z</time>
      </trkpt>
      <trkpt lat="48.31189" lon="-1.72239">
        <ele>64</ele>
        <time>2019-07-16T09:49:16Z</time>
      </trkpt>
      <trkpt lat="48.31191" lon="-1.72233">
        <ele>64</ele>
        <time>2019-07-16T09:49:17Z</time>
      </trkpt>
      <trkpt lat="48.31192" lon="-1.72228">
        <ele>64.1</ele>
        <time>2019-07-16T09:49:18Z</time>
      </trkpt>
      <trkpt lat="48.31194" lon="-1.72223">
        <ele>64.1</ele>
        <time>2019-07-16T09:49:19Z</time>
      </trkpt>
      <trkpt lat="48.31195" lon="-1.72218">
        <ele>64.1</ele>
        <time>2019-07-16T09:49:20Z</time>
      </trkpt>
      <trkpt lat="48.31196" lon="-1.72213">
        <ele>64.2</ele>
        <time>2019-07-16T09:49:21Z</time>
      </trkpt>
      <trkpt lat="48.31197" lon="-1.72208">
        <ele>63.7</ele>
        <time>2019-07-16T09:49:22Z</time>
      </trkpt>
      <trkpt lat="48.31199" lon="-1.72204">
        <ele>63</ele>
        <time>2019-07-16T09:49:23Z</time>
      </trkpt>
      <trkpt lat="48.31199" lon="-1.722">
        <ele>62.6</ele>
        <time>2019-07-16T09:49:24Z</time>
      </trkpt>
      <trkpt lat="48.312" lon="-1.72197">
        <ele>62.4</ele>
        <time>2019-07-16T09:49:25Z</time>
      </trkpt>
      <trkpt lat="48.31201" lon="-1.72192">
        <ele>62.4</ele>
        <time>2019-07-16T09:49:26Z</time>
      </trkpt>
      <trkpt lat="48.31202" lon="-1.72187">
        <ele>62.3</ele>
        <time>2019-07-16T09:49:27Z</time>
      </trkpt>
      <trkpt lat="48.31203" lon="-1.72181">
        <ele>62.3</ele>
        <time>2019-07-16T09:49:28Z</time>
      </trkpt>
      <trkpt lat="48.31205" lon="-1.72176">
        <ele>62.4</ele>
        <time>2019-07-16T09:49:29Z</time>
      </trkpt>
      <trkpt lat="48.31205" lon="-1.72171">
        <ele>62.3</ele>
        <time>2019-07-16T09:49:30Z</time>
      </trkpt>
      <trkpt lat="48.31207" lon="-1.72167">
        <ele>62.3</ele>
        <time>2019-07-16T09:49:31Z</time>
      </trkpt>
      <trkpt lat="48.31208" lon="-1.72161">
        <ele>62.3</ele>
        <time>2019-07-16T09:49:32Z</time>
      </trkpt>
      <trkpt lat="48.31209" lon="-1.72156">
        <ele>62.4</ele>
        <time>2019-07-16T09:49:33Z</time>
      </trkpt>
      <trkpt lat="48.3121" lon="-1.72151">
        <ele>62.9</ele>
        <time>2019-07-16T09:49:34Z</time>
      </trkpt>
      <trkpt lat="48.31211" lon="-1.72146">
        <ele>63</ele>
        <time>2019-07-16T09:49:35Z</time>
      </trkpt>
      <trkpt lat="48.31212" lon="-1.72141">
        <ele>63.1</ele>
        <time>2019-07-16T09:49:36Z</time>
      </trkpt>
      <trkpt lat="48.31213" lon="-1.72136">
        <ele>63.6</ele>
        <time>2019-07-16T09:49:37Z</time>
      </trkpt>
      <trkpt lat="48.31215" lon="-1.72131">
        <ele>64.9</ele>
        <time>2019-07-16T09:49:38Z</time>
      </trkpt>
      <trkpt lat="48.31216" lon="-1.72126">
        <ele>64.9</ele>
        <time>2019-07-16T09:49:39Z</time>
      </trkpt>
      <trkpt lat="48.31216" lon="-1.72122">
        <ele>65.1</ele>
        <time>2019-07-16T09:49:40Z</time>
      </trkpt>
      <trkpt lat="48.31217" lon="-1.72117">
        <ele>65.6</ele>
        <time>2019-07-16T09:49:41Z</time>
      </trkpt>
      <trkpt lat="48.31217" lon="-1.72112">
        <ele>66</ele>
        <time>2019-07-16T09:49:42Z</time>
      </trkpt>
      <trkpt lat="48.31218" lon="-1.72107">
        <ele>66</ele>
        <time>2019-07-16T09:49:43Z</time>
      </trkpt>
      <trkpt lat="48.31219" lon="-1.72103">
        <ele>66.1</ele>
        <time>2019-07-16T09:49:44Z</time>
      </trkpt>
      <trkpt lat="48.3122" lon="-1.72098">
        <ele>66.1</ele>
        <time>2019-07-16T09:49:45Z</time>
      </trkpt>
      <trkpt lat="48.31221" lon="-1.72094">
        <ele>65.9</ele>
        <time>2019-07-16T09:49:46Z</time>
      </trkpt>
      <trkpt lat="48.31222" lon="-1.72089">
        <ele>65.8</ele>
        <time>2019-07-16T09:49:47Z</time>
      </trkpt>
      <trkpt lat="48.31223" lon="-1.72083">
        <ele>65.9</ele>
        <time>2019-07-16T09:49:48Z</time>
      </trkpt>
      <trkpt lat="48.31223" lon="-1.72077">
        <ele>66</ele>
        <time>2019-07-16T09:49:49Z</time>
      </trkpt>
      <trkpt lat="48.31224" lon="-1.7207">
        <ele>65.9</ele>
        <time>2019-07-16T09:49:50Z</time>
      </trkpt>
      <trkpt lat="48.31224" lon="-1.72063">
        <ele>66.2</ele>
        <time>2019-07-16T09:49:51Z</time>
      </trkpt>
      <trkpt lat="48.31225" lon="-1.72055">
        <ele>65.7</ele>
        <time>2019-07-16T09:49:52Z</time>
      </trkpt>
      <trkpt lat="48.31226" lon="-1.72047">
        <ele>65.1</ele>
        <time>2019-07-16T09:49:53Z</time>
      </trkpt>
      <trkpt lat="48.31226" lon="-1.72039">
        <ele>64.9</ele>
        <time>2019-07-16T09:49:54Z</time>
      </trkpt>
      <trkpt lat="48.31226" lon="-1.72032">
        <ele>65.1</ele>
        <time>2019-07-16T09:49:55Z</time>
      </trkpt>
      <trkpt lat="48.31226" lon="-1.72025">
        <ele>65.1</ele>
        <time>2019-07-16T09:49:56Z</time>
      </trkpt>
      <trkpt lat="48.31226" lon="-1.72018">
        <ele>65.3</ele>
        <time>2019-07-16T09:49:57Z</time>
      </trkpt>
      <trkpt lat="48.31227" lon="-1.72012">
        <ele>65.3</ele>
        <time>2019-07-16T09:49:58Z</time>
      </trkpt>
      <trkpt lat="48.31228" lon="-1.72005">
        <ele>65.3</ele>
        <time>2019-07-16T09:49:59Z</time>
      </trkpt>
      <trkpt lat="48.31229" lon="-1.72">
        <ele>65.3</ele>
        <time>2019-07-16T09:50:00Z</time>
      </trkpt>
      <trkpt lat="48.3123" lon="-1.71995">
        <ele>65.2</ele>
        <time>2019-07-16T09:50:01Z</time>
      </trkpt>
      <trkpt lat="48.31231" lon="-1.71989">
        <ele>65</ele>
        <time>2019-07-16T09:50:02Z</time>
      </trkpt>
      <trkpt lat="48.31232" lon="-1.71984">
        <ele>64.6</ele>
        <time>2019-07-16T09:50:03Z</time>
      </trkpt>
      <trkpt lat="48.31233" lon="-1.71979">
        <ele>64.4</ele>
        <time>2019-07-16T09:50:04Z</time>
      </trkpt>
      <trkpt lat="48.31234" lon="-1.71974">
        <ele>64.2</ele>
        <time>2019-07-16T09:50:05Z</time>
      </trkpt>
      <trkpt lat="48.31234" lon="-1.71968">
        <ele>63.7</ele>
        <time>2019-07-16T09:50:06Z</time>
      </trkpt>
      <trkpt lat="48.31235" lon="-1.71963">
        <ele>63.4</ele>
        <time>2019-07-16T09:50:07Z</time>
      </trkpt>
      <trkpt lat="48.31236" lon="-1.71957">
        <ele>63.2</ele>
        <time>2019-07-16T09:50:08Z</time>
      </trkpt>
      <trkpt lat="48.31236" lon="-1.71951">
        <ele>63.1</ele>
        <time>2019-07-16T09:50:09Z</time>
      </trkpt>
      <trkpt lat="48.31237" lon="-1.71946">
        <ele>63.2</ele>
        <time>2019-07-16T09:50:10Z</time>
      </trkpt>
      <trkpt lat="48.31239" lon="-1.7194">
        <ele>62.9</ele>
        <time>2019-07-16T09:50:11Z</time>
      </trkpt>
      <trkpt lat="48.3124" lon="-1.71934">
        <ele>62.3</ele>
        <time>2019-07-16T09:50:12Z</time>
      </trkpt>
      <trkpt lat="48.31241" lon="-1.71928">
        <ele>61.8</ele>
        <time>2019-07-16T09:50:13Z</time>
      </trkpt>
      <trkpt lat="48.31242" lon="-1.71923">
        <ele>61.4</ele>
        <time>2019-07-16T09:50:14Z</time>
      </trkpt>
      <trkpt lat="48.31244" lon="-1.71917">
        <ele>61.3</ele>
        <time>2019-07-16T09:50:15Z</time>
      </trkpt>
      <trkpt lat="48.31245" lon="-1.71911">
        <ele>61.2</ele>
        <time>2019-07-16T09:50:16Z</time>
      </trkpt>
      <trkpt lat="48.31246" lon="-1.71906">
        <ele>61</ele>
        <time>2019-07-16T09:50:17Z</time>
      </trkpt>
      <trkpt lat="48.31247" lon="-1.719">
        <ele>61</ele>
        <time>2019-07-16T09:50:18Z</time>
      </trkpt>
      <trkpt lat="48.31249" lon="-1.71894">
        <ele>60.8</ele>
        <time>2019-07-16T09:50:19Z</time>
      </trkpt>
      <trkpt lat="48.3125" lon="-1.71889">
        <ele>61</ele>
        <time>2019-07-16T09:50:20Z</time>
      </trkpt>
      <trkpt lat="48.31251" lon="-1.71883">
        <ele>61.3</ele>
        <time>2019-07-16T09:50:21Z</time>
      </trkpt>
      <trkpt lat="48.31252" lon="-1.71877">
        <ele>61.6</ele>
        <time>2019-07-16T09:50:22Z</time>
      </trkpt>
      <trkpt lat="48.31253" lon="-1.71872">
        <ele>61.5</ele>
        <time>2019-07-16T09:50:23Z</time>
      </trkpt>
      <trkpt lat="48.31254" lon="-1.71867">
        <ele>61.8</ele>
        <time>2019-07-16T09:50:24Z</time>
      </trkpt>
      <trkpt lat="48.31256" lon="-1.71862">
        <ele>61.5</ele>
        <time>2019-07-16T09:50:25Z</time>
      </trkpt>
      <trkpt lat="48.31257" lon="-1.71857">
        <ele>61.6</ele>
        <time>2019-07-16T09:50:26Z</time>
      </trkpt>
      <trkpt lat="48.31258" lon="-1.71853">
        <ele>62</ele>
        <time>2019-07-16T09:50:27Z</time>
      </trkpt>
      <trkpt lat="48.31259" lon="-1.71849">
        <ele>62.3</ele>
        <time>2019-07-16T09:50:28Z</time>
      </trkpt>
      <trkpt lat="48.31259" lon="-1.71845">
        <ele>62.6</ele>
        <time>2019-07-16T09:50:29Z</time>
      </trkpt>
      <trkpt lat="48.3126" lon="-1.71841">
        <ele>62.9</ele>
        <time>2019-07-16T09:50:30Z</time>
      </trkpt>
      <trkpt lat="48.3126" lon="-1.71837">
        <ele>63.2</ele>
        <time>2019-07-16T09:50:31Z</time>
      </trkpt>
      <trkpt lat="48.3126" lon="-1.71834">
        <ele>63.1</ele>
        <time>2019-07-16T09:50:32Z</time>
      </trkpt>
      <trkpt lat="48.3126" lon="-1.7183">
        <ele>63</ele>
        <time>2019-07-16T09:50:33Z</time>
      </trkpt>
      <trkpt lat="48.3126" lon="-1.71828">
        <ele>63.2</ele>
        <time>2019-07-16T09:50:34Z</time>
      </trkpt>
      <trkpt lat="48.31263" lon="-1.71822">
        <ele>64.3</ele>
        <time>2019-07-16T09:50:58Z</time>
      </trkpt>
      <trkpt lat="48.31266" lon="-1.71821">
        <ele>64.4</ele>
        <time>2019-07-16T09:50:59Z</time>
      </trkpt>
      <trkpt lat="48.31268" lon="-1.7182">
        <ele>64.7</ele>
        <time>2019-07-16T09:51:00Z</time>
      </trkpt>
      <trkpt lat="48.3127" lon="-1.7182">
        <ele>64.9</ele>
        <time>2019-07-16T09:51:01Z</time>
      </trkpt>
      <trkpt lat="48.31272" lon="-1.71821">
        <ele>65.1</ele>
        <time>2019-07-16T09:51:02Z</time>
      </trkpt>
      <trkpt lat="48.31274" lon="-1.71822">
        <ele>65.3</ele>
        <time>2019-07-16T09:51:03Z</time>
      </trkpt>
      <trkpt lat="48.31277" lon="-1.71823">
        <ele>65.4</ele>
        <time>2019-07-16T09:51:04Z</time>
      </trkpt>
      <trkpt lat="48.31279" lon="-1.71824">
        <ele>65.3</ele>
        <time>2019-07-16T09:51:05Z</time>
      </trkpt>
      <trkpt lat="48.31281" lon="-1.71824">
        <ele>65.2</ele>
        <time>2019-07-16T09:51:06Z</time>
      </trkpt>
      <trkpt lat="48.31284" lon="-1.71825">
        <ele>65.1</ele>
        <time>2019-07-16T09:51:07Z</time>
      </trkpt>
      <trkpt lat="48.31286" lon="-1.71826">
        <ele>65</ele>
        <time>2019-07-16T09:51:08Z</time>
      </trkpt>
      <trkpt lat="48.31289" lon="-1.71828">
        <ele>65</ele>
        <time>2019-07-16T09:51:09Z</time>
      </trkpt>
      <trkpt lat="48.31291" lon="-1.7183">
        <ele>64.8</ele>
        <time>2019-07-16T09:51:10Z</time>
      </trkpt>
      <trkpt lat="48.31294" lon="-1.71832">
        <ele>64.6</ele>
        <time>2019-07-16T09:51:11Z</time>
      </trkpt>
      <trkpt lat="48.31297" lon="-1.71834">
        <ele>64.5</ele>
        <time>2019-07-16T09:51:12Z</time>
      </trkpt>
      <trkpt lat="48.31299" lon="-1.71835">
        <ele>64.4</ele>
        <time>2019-07-16T09:51:13Z</time>
      </trkpt>
      <trkpt lat="48.31302" lon="-1.71836">
        <ele>64.2</ele>
        <time>2019-07-16T09:51:14Z</time>
      </trkpt>
      <trkpt lat="48.31304" lon="-1.71837">
        <ele>64.2</ele>
        <time>2019-07-16T09:51:15Z</time>
      </trkpt>
      <trkpt lat="48.31307" lon="-1.71839">
        <ele>63.9</ele>
        <time>2019-07-16T09:51:16Z</time>
      </trkpt>
      <trkpt lat="48.31308" lon="-1.71838">
        <ele>64</ele>
        <time>2019-07-16T09:51:17Z</time>
      </trkpt>
      <trkpt lat="48.31309" lon="-1.71838">
        <ele>64</ele>
        <time>2019-07-16T09:51:18Z</time>
      </trkpt>
      <trkpt lat="48.31311" lon="-1.71829">
        <ele>62.4</ele>
        <time>2019-07-16T09:54:18Z</time>
      </trkpt>
      <trkpt lat="48.31312" lon="-1.71824">
        <ele>62.6</ele>
        <time>2019-07-16T09:54:19Z</time>
      </trkpt>
      <trkpt lat="48.31313" lon="-1.71819">
        <ele>62.8</ele>
        <time>2019-07-16T09:54:20Z</time>
      </trkpt>
      <trkpt lat="48.31315" lon="-1.71813">
        <ele>62.8</ele>
        <time>2019-07-16T09:54:21Z</time>
      </trkpt>
      <trkpt lat="48.31316" lon="-1.71807">
        <ele>63</ele>
        <time>2019-07-16T09:54:22Z</time>
      </trkpt>
      <trkpt lat="48.31319" lon="-1.71801">
        <ele>63.3</ele>
        <time>2019-07-16T09:54:23Z</time>
      </trkpt>
      <trkpt lat="48.31322" lon="-1.71795">
        <ele>63.4</ele>
        <time>2019-07-16T09:54:24Z</time>
      </trkpt>
      <trkpt lat="48.31326" lon="-1.71789">
        <ele>63.9</ele>
        <time>2019-07-16T09:54:25Z</time>
      </trkpt>
      <trkpt lat="48.31329" lon="-1.71785">
        <ele>64.7</ele>
        <time>2019-07-16T09:54:26Z</time>
      </trkpt>
      <trkpt lat="48.31334" lon="-1.71781">
        <ele>65.7</ele>
        <time>2019-07-16T09:54:27Z</time>
      </trkpt>
      <trkpt lat="48.31338" lon="-1.71778">
        <ele>66.5</ele>
        <time>2019-07-16T09:54:28Z</time>
      </trkpt>
      <trkpt lat="48.31342" lon="-1.71775">
        <ele>67</ele>
        <time>2019-07-16T09:54:29Z</time>
      </trkpt>
      <trkpt lat="48.31346" lon="-1.71772">
        <ele>67.3</ele>
        <time>2019-07-16T09:54:30Z</time>
      </trkpt>
      <trkpt lat="48.3135" lon="-1.71768">
        <ele>67.6</ele>
        <time>2019-07-16T09:54:31Z</time>
      </trkpt>
      <trkpt lat="48.31353" lon="-1.71765">
        <ele>68</ele>
        <time>2019-07-16T09:54:32Z</time>
      </trkpt>
      <trkpt lat="48.31356" lon="-1.71762">
        <ele>68.5</ele>
        <time>2019-07-16T09:54:33Z</time>
      </trkpt>
      <trkpt lat="48.31359" lon="-1.71758">
        <ele>69</ele>
        <time>2019-07-16T09:54:34Z</time>
      </trkpt>
      <trkpt lat="48.31361" lon="-1.71755">
        <ele>69.3</ele>
        <time>2019-07-16T09:54:35Z</time>
      </trkpt>
      <trkpt lat="48.31364" lon="-1.71751">
        <ele>69.7</ele>
        <time>2019-07-16T09:54:36Z</time>
      </trkpt>
      <trkpt lat="48.31366" lon="-1.71747">
        <ele>70.6</ele>
        <time>2019-07-16T09:54:37Z</time>
      </trkpt>
      <trkpt lat="48.31368" lon="-1.71744">
        <ele>70.2</ele>
        <time>2019-07-16T09:54:38Z</time>
      </trkpt>
      <trkpt lat="48.31372" lon="-1.7174">
        <ele>68.7</ele>
        <time>2019-07-16T09:54:39Z</time>
      </trkpt>
      <trkpt lat="48.31375" lon="-1.71735">
        <ele>67.7</ele>
        <time>2019-07-16T09:54:40Z</time>
      </trkpt>
      <trkpt lat="48.31378" lon="-1.71732">
        <ele>65.7</ele>
        <time>2019-07-16T09:54:41Z</time>
      </trkpt>
      <trkpt lat="48.31381" lon="-1.71728">
        <ele>62.6</ele>
        <time>2019-07-16T09:54:42Z</time>
      </trkpt>
      <trkpt lat="48.31384" lon="-1.71725">
        <ele>62.7</ele>
        <time>2019-07-16T09:54:43Z</time>
      </trkpt>
      <trkpt lat="48.31385" lon="-1.7172">
        <ele>63.3</ele>
        <time>2019-07-16T09:54:44Z</time>
      </trkpt>
      <trkpt lat="48.31387" lon="-1.71716">
        <ele>64</ele>
        <time>2019-07-16T09:54:45Z</time>
      </trkpt>
      <trkpt lat="48.31388" lon="-1.71712">
        <ele>65.5</ele>
        <time>2019-07-16T09:54:46Z</time>
      </trkpt>
      <trkpt lat="48.31389" lon="-1.71708">
        <ele>66.3</ele>
        <time>2019-07-16T09:54:47Z</time>
      </trkpt>
      <trkpt lat="48.3139" lon="-1.71704">
        <ele>66.6</ele>
        <time>2019-07-16T09:54:48Z</time>
      </trkpt>
      <trkpt lat="48.31392" lon="-1.71699">
        <ele>66.7</ele>
        <time>2019-07-16T09:54:49Z</time>
      </trkpt>
      <trkpt lat="48.31393" lon="-1.71695">
        <ele>66.7</ele>
        <time>2019-07-16T09:54:50Z</time>
      </trkpt>
      <trkpt lat="48.31395" lon="-1.71691">
        <ele>67.5</ele>
        <time>2019-07-16T09:54:51Z</time>
      </trkpt>
      <trkpt lat="48.31396" lon="-1.71686">
        <ele>68.1</ele>
        <time>2019-07-16T09:54:52Z</time>
      </trkpt>
      <trkpt lat="48.31397" lon="-1.71682">
        <ele>68</ele>
        <time>2019-07-16T09:54:53Z</time>
      </trkpt>
      <trkpt lat="48.31398" lon="-1.71677">
        <ele>67.9</ele>
        <time>2019-07-16T09:54:54Z</time>
      </trkpt>
      <trkpt lat="48.31399" lon="-1.71672">
        <ele>67.8</ele>
        <time>2019-07-16T09:54:55Z</time>
      </trkpt>
      <trkpt lat="48.314" lon="-1.71668">
        <ele>67.9</ele>
        <time>2019-07-16T09:54:56Z</time>
      </trkpt>
      <trkpt lat="48.31401" lon="-1.71663">
        <ele>68.2</ele>
        <time>2019-07-16T09:54:57Z</time>
      </trkpt>
      <trkpt lat="48.31403" lon="-1.71659">
        <ele>68.8</ele>
        <time>2019-07-16T09:54:58Z</time>
      </trkpt>
      <trkpt lat="48.31404" lon="-1.71654">
        <ele>69.7</ele>
        <time>2019-07-16T09:54:59Z</time>
      </trkpt>
      <trkpt lat="48.31405" lon="-1.71649">
        <ele>70.5</ele>
        <time>2019-07-16T09:55:00Z</time>
      </trkpt>
      <trkpt lat="48.31406" lon="-1.71643">
        <ele>71.6</ele>
        <time>2019-07-16T09:55:01Z</time>
      </trkpt>
      <trkpt lat="48.31406" lon="-1.71638">
        <ele>72.8</ele>
        <time>2019-07-16T09:55:02Z</time>
      </trkpt>
      <trkpt lat="48.31407" lon="-1.71632">
        <ele>73.2</ele>
        <time>2019-07-16T09:55:03Z</time>
      </trkpt>
      <trkpt lat="48.31408" lon="-1.71627">
        <ele>73.9</ele>
        <time>2019-07-16T09:55:04Z</time>
      </trkpt>
      <trkpt lat="48.3141" lon="-1.71622">
        <ele>73.9</ele>
        <time>2019-07-16T09:55:05Z</time>
      </trkpt>
      <trkpt lat="48.31411" lon="-1.71617">
        <ele>73.9</ele>
        <time>2019-07-16T09:55:06Z</time>
      </trkpt>
      <trkpt lat="48.31411" lon="-1.71613">
        <ele>73.6</ele>
        <time>2019-07-16T09:55:07Z</time>
      </trkpt>
      <trkpt lat="48.31413" lon="-1.71608">
        <ele>73.3</ele>
        <time>2019-07-16T09:55:08Z</time>
      </trkpt>
      <trkpt lat="48.31414" lon="-1.71603">
        <ele>73.3</ele>
        <time>2019-07-16T09:55:09Z</time>
      </trkpt>
      <trkpt lat="48.31416" lon="-1.71598">
        <ele>73.2</ele>
        <time>2019-07-16T09:55:10Z</time>
      </trkpt>
      <trkpt lat="48.31417" lon="-1.71593">
        <ele>73.2</ele>
        <time>2019-07-16T09:55:11Z</time>
      </trkpt>
      <trkpt lat="48.31418" lon="-1.71589">
        <ele>73.2</ele>
        <time>2019-07-16T09:55:12Z</time>
      </trkpt>
      <trkpt lat="48.31419" lon="-1.71587">
        <ele>72.4</ele>
        <time>2019-07-16T09:55:13Z</time>
      </trkpt>
      <trkpt lat="48.3142" lon="-1.71584">
        <ele>71.9</ele>
        <time>2019-07-16T09:55:14Z</time>
      </trkpt>
      <trkpt lat="48.31422" lon="-1.71581">
        <ele>70.7</ele>
        <time>2019-07-16T09:55:15Z</time>
      </trkpt>
      <trkpt lat="48.31423" lon="-1.71577">
        <ele>69.9</ele>
        <time>2019-07-16T09:55:16Z</time>
      </trkpt>
      <trkpt lat="48.31424" lon="-1.71574">
        <ele>69.2</ele>
        <time>2019-07-16T09:55:17Z</time>
      </trkpt>
      <trkpt lat="48.31426" lon="-1.71569">
        <ele>68.7</ele>
        <time>2019-07-16T09:55:18Z</time>
      </trkpt>
      <trkpt lat="48.31427" lon="-1.71565">
        <ele>68.8</ele>
        <time>2019-07-16T09:55:19Z</time>
      </trkpt>
      <trkpt lat="48.31427" lon="-1.7156">
        <ele>68.7</ele>
        <time>2019-07-16T09:55:20Z</time>
      </trkpt>
      <trkpt lat="48.31429" lon="-1.71555">
        <ele>68.8</ele>
        <time>2019-07-16T09:55:21Z</time>
      </trkpt>
      <trkpt lat="48.3143" lon="-1.71551">
        <ele>69</ele>
        <time>2019-07-16T09:55:22Z</time>
      </trkpt>
      <trkpt lat="48.31431" lon="-1.71545">
        <ele>68.8</ele>
        <time>2019-07-16T09:55:23Z</time>
      </trkpt>
      <trkpt lat="48.31432" lon="-1.7154">
        <ele>69.1</ele>
        <time>2019-07-16T09:55:24Z</time>
      </trkpt>
      <trkpt lat="48.31434" lon="-1.71534">
        <ele>69.2</ele>
        <time>2019-07-16T09:55:25Z</time>
      </trkpt>
      <trkpt lat="48.31435" lon="-1.71529">
        <ele>68.6</ele>
        <time>2019-07-16T09:55:26Z</time>
      </trkpt>
      <trkpt lat="48.31435" lon="-1.71523">
        <ele>68.9</ele>
        <time>2019-07-16T09:55:27Z</time>
      </trkpt>
      <trkpt lat="48.31436" lon="-1.71517">
        <ele>69</ele>
        <time>2019-07-16T09:55:28Z</time>
      </trkpt>
      <trkpt lat="48.31438" lon="-1.71512">
        <ele>69.5</ele>
        <time>2019-07-16T09:55:29Z</time>
      </trkpt>
      <trkpt lat="48.31439" lon="-1.71506">
        <ele>70.1</ele>
        <time>2019-07-16T09:55:30Z</time>
      </trkpt>
      <trkpt lat="48.3144" lon="-1.71501">
        <ele>70</ele>
        <time>2019-07-16T09:55:31Z</time>
      </trkpt>
      <trkpt lat="48.31442" lon="-1.71496">
        <ele>70.2</ele>
        <time>2019-07-16T09:55:32Z</time>
      </trkpt>
      <trkpt lat="48.31443" lon="-1.7149">
        <ele>70</ele>
        <time>2019-07-16T09:55:33Z</time>
      </trkpt>
      <trkpt lat="48.31444" lon="-1.71484">
        <ele>70.1</ele>
        <time>2019-07-16T09:55:34Z</time>
      </trkpt>
      <trkpt lat="48.31445" lon="-1.71479">
        <ele>69.3</ele>
        <time>2019-07-16T09:55:35Z</time>
      </trkpt>
      <trkpt lat="48.31445" lon="-1.71473">
        <ele>68.8</ele>
        <time>2019-07-16T09:55:36Z</time>
      </trkpt>
      <trkpt lat="48.31447" lon="-1.71468">
        <ele>68.3</ele>
        <time>2019-07-16T09:55:37Z</time>
      </trkpt>
      <trkpt lat="48.31448" lon="-1.71462">
        <ele>68</ele>
        <time>2019-07-16T09:55:38Z</time>
      </trkpt>
      <trkpt lat="48.31449" lon="-1.71457">
        <ele>67.7</ele>
        <time>2019-07-16T09:55:39Z</time>
      </trkpt>
      <trkpt lat="48.3145" lon="-1.71451">
        <ele>67.6</ele>
        <time>2019-07-16T09:55:40Z</time>
      </trkpt>
      <trkpt lat="48.31452" lon="-1.71445">
        <ele>67.2</ele>
        <time>2019-07-16T09:55:41Z</time>
      </trkpt>
      <trkpt lat="48.31453" lon="-1.71439">
        <ele>66.6</ele>
        <time>2019-07-16T09:55:42Z</time>
      </trkpt>
      <trkpt lat="48.31455" lon="-1.71434">
        <ele>66.8</ele>
        <time>2019-07-16T09:55:43Z</time>
      </trkpt>
      <trkpt lat="48.31457" lon="-1.71428">
        <ele>66.5</ele>
        <time>2019-07-16T09:55:44Z</time>
      </trkpt>
      <trkpt lat="48.31458" lon="-1.71423">
        <ele>66</ele>
        <time>2019-07-16T09:55:45Z</time>
      </trkpt>
      <trkpt lat="48.3146" lon="-1.71417">
        <ele>65.7</ele>
        <time>2019-07-16T09:55:46Z</time>
      </trkpt>
      <trkpt lat="48.31462" lon="-1.71412">
        <ele>65.7</ele>
        <time>2019-07-16T09:55:47Z</time>
      </trkpt>
      <trkpt lat="48.31464" lon="-1.71407">
        <ele>65.7</ele>
        <time>2019-07-16T09:55:48Z</time>
      </trkpt>
      <trkpt lat="48.31466" lon="-1.71402">
        <ele>65.7</ele>
        <time>2019-07-16T09:55:49Z</time>
      </trkpt>
      <trkpt lat="48.31467" lon="-1.71396">
        <ele>65.5</ele>
        <time>2019-07-16T09:55:50Z</time>
      </trkpt>
      <trkpt lat="48.31469" lon="-1.71391">
        <ele>65.4</ele>
        <time>2019-07-16T09:55:51Z</time>
      </trkpt>
      <trkpt lat="48.31471" lon="-1.71385">
        <ele>65.4</ele>
        <time>2019-07-16T09:55:52Z</time>
      </trkpt>
      <trkpt lat="48.31472" lon="-1.7138">
        <ele>65.5</ele>
        <time>2019-07-16T09:55:53Z</time>
      </trkpt>
      <trkpt lat="48.31474" lon="-1.71375">
        <ele>65.5</ele>
        <time>2019-07-16T09:55:54Z</time>
      </trkpt>
      <trkpt lat="48.31476" lon="-1.71369">
        <ele>65.1</ele>
        <time>2019-07-16T09:55:55Z</time>
      </trkpt>
      <trkpt lat="48.31477" lon="-1.71364">
        <ele>64.8</ele>
        <time>2019-07-16T09:55:56Z</time>
      </trkpt>
      <trkpt lat="48.31479" lon="-1.71358">
        <ele>64.5</ele>
        <time>2019-07-16T09:55:57Z</time>
      </trkpt>
      <trkpt lat="48.31482" lon="-1.71352">
        <ele>64</ele>
        <time>2019-07-16T09:55:58Z</time>
      </trkpt>
      <trkpt lat="48.31484" lon="-1.71347">
        <ele>63.7</ele>
        <time>2019-07-16T09:55:59Z</time>
      </trkpt>
      <trkpt lat="48.31486" lon="-1.71342">
        <ele>63.6</ele>
        <time>2019-07-16T09:56:00Z</time>
      </trkpt>
      <trkpt lat="48.31488" lon="-1.71337">
        <ele>63.5</ele>
        <time>2019-07-16T09:56:01Z</time>
      </trkpt>
      <trkpt lat="48.3149" lon="-1.71332">
        <ele>63.4</ele>
        <time>2019-07-16T09:56:02Z</time>
      </trkpt>
      <trkpt lat="48.31492" lon="-1.71327">
        <ele>63.2</ele>
        <time>2019-07-16T09:56:03Z</time>
      </trkpt>
      <trkpt lat="48.31493" lon="-1.71323">
        <ele>63</ele>
        <time>2019-07-16T09:56:04Z</time>
      </trkpt>
      <trkpt lat="48.31495" lon="-1.71319">
        <ele>62.6</ele>
        <time>2019-07-16T09:56:05Z</time>
      </trkpt>
      <trkpt lat="48.31497" lon="-1.71316">
        <ele>62.5</ele>
        <time>2019-07-16T09:56:06Z</time>
      </trkpt>
      <trkpt lat="48.315" lon="-1.71312">
        <ele>62.6</ele>
        <time>2019-07-16T09:56:07Z</time>
      </trkpt>
      <trkpt lat="48.31501" lon="-1.71308">
        <ele>62.6</ele>
        <time>2019-07-16T09:56:08Z</time>
      </trkpt>
      <trkpt lat="48.31502" lon="-1.71305">
        <ele>62.3</ele>
        <time>2019-07-16T09:56:09Z</time>
      </trkpt>
      <trkpt lat="48.31504" lon="-1.71301">
        <ele>62.1</ele>
        <time>2019-07-16T09:56:10Z</time>
      </trkpt>
      <trkpt lat="48.31505" lon="-1.71297">
        <ele>61.8</ele>
        <time>2019-07-16T09:56:11Z</time>
      </trkpt>
      <trkpt lat="48.31506" lon="-1.71295">
        <ele>61.6</ele>
        <time>2019-07-16T09:56:12Z</time>
      </trkpt>
      <trkpt lat="48.31508" lon="-1.71291">
        <ele>61.5</ele>
        <time>2019-07-16T09:56:13Z</time>
      </trkpt>
      <trkpt lat="48.31509" lon="-1.71287">
        <ele>61.5</ele>
        <time>2019-07-16T09:56:14Z</time>
      </trkpt>
      <trkpt lat="48.3151" lon="-1.71284">
        <ele>61.6</ele>
        <time>2019-07-16T09:56:15Z</time>
      </trkpt>
      <trkpt lat="48.31511" lon="-1.7128">
        <ele>61.8</ele>
        <time>2019-07-16T09:56:16Z</time>
      </trkpt>
      <trkpt lat="48.31512" lon="-1.71274">
        <ele>61.9</ele>
        <time>2019-07-16T09:56:17Z</time>
      </trkpt>
      <trkpt lat="48.31514" lon="-1.71268">
        <ele>62.1</ele>
        <time>2019-07-16T09:56:18Z</time>
      </trkpt>
      <trkpt lat="48.31516" lon="-1.71261">
        <ele>62.3</ele>
        <time>2019-07-16T09:56:19Z</time>
      </trkpt>
      <trkpt lat="48.31518" lon="-1.71255">
        <ele>62.5</ele>
        <time>2019-07-16T09:56:20Z</time>
      </trkpt>
      <trkpt lat="48.31519" lon="-1.71249">
        <ele>62.8</ele>
        <time>2019-07-16T09:56:21Z</time>
      </trkpt>
      <trkpt lat="48.31522" lon="-1.71243">
        <ele>63</ele>
        <time>2019-07-16T09:56:22Z</time>
      </trkpt>
      <trkpt lat="48.31525" lon="-1.71237">
        <ele>63.4</ele>
        <time>2019-07-16T09:56:23Z</time>
      </trkpt>
      <trkpt lat="48.31527" lon="-1.71232">
        <ele>63.6</ele>
        <time>2019-07-16T09:56:24Z</time>
      </trkpt>
      <trkpt lat="48.3153" lon="-1.71227">
        <ele>63.6</ele>
        <time>2019-07-16T09:56:25Z</time>
      </trkpt>
      <trkpt lat="48.31532" lon="-1.71223">
        <ele>64.1</ele>
        <time>2019-07-16T09:56:26Z</time>
      </trkpt>
      <trkpt lat="48.31535" lon="-1.71219">
        <ele>64.4</ele>
        <time>2019-07-16T09:56:27Z</time>
      </trkpt>
      <trkpt lat="48.31538" lon="-1.71213">
        <ele>65.4</ele>
        <time>2019-07-16T09:56:28Z</time>
      </trkpt>
      <trkpt lat="48.31541" lon="-1.71208">
        <ele>65.7</ele>
        <time>2019-07-16T09:56:29Z</time>
      </trkpt>
      <trkpt lat="48.31543" lon="-1.71204">
        <ele>66.1</ele>
        <time>2019-07-16T09:56:30Z</time>
      </trkpt>
      <trkpt lat="48.31545" lon="-1.71199">
        <ele>66.8</ele>
        <time>2019-07-16T09:56:31Z</time>
      </trkpt>
      <trkpt lat="48.31547" lon="-1.71195">
        <ele>67.4</ele>
        <time>2019-07-16T09:56:32Z</time>
      </trkpt>
      <trkpt lat="48.3155" lon="-1.71191">
        <ele>67.9</ele>
        <time>2019-07-16T09:56:33Z</time>
      </trkpt>
      <trkpt lat="48.31552" lon="-1.71187">
        <ele>68.9</ele>
        <time>2019-07-16T09:56:34Z</time>
      </trkpt>
      <trkpt lat="48.31554" lon="-1.71183">
        <ele>69.2</ele>
        <time>2019-07-16T09:56:35Z</time>
      </trkpt>
      <trkpt lat="48.31557" lon="-1.71179">
        <ele>69.6</ele>
        <time>2019-07-16T09:56:36Z</time>
      </trkpt>
      <trkpt lat="48.3156" lon="-1.71174">
        <ele>70</ele>
        <time>2019-07-16T09:56:37Z</time>
      </trkpt>
      <trkpt lat="48.31562" lon="-1.71171">
        <ele>70.4</ele>
        <time>2019-07-16T09:56:38Z</time>
      </trkpt>
      <trkpt lat="48.31565" lon="-1.71167">
        <ele>70.5</ele>
        <time>2019-07-16T09:56:39Z</time>
      </trkpt>
      <trkpt lat="48.31568" lon="-1.71163">
        <ele>71.2</ele>
        <time>2019-07-16T09:56:40Z</time>
      </trkpt>
      <trkpt lat="48.3157" lon="-1.71158">
        <ele>71.5</ele>
        <time>2019-07-16T09:56:41Z</time>
      </trkpt>
      <trkpt lat="48.31574" lon="-1.71153">
        <ele>71.6</ele>
        <time>2019-07-16T09:56:42Z</time>
      </trkpt>
      <trkpt lat="48.31576" lon="-1.71148">
        <ele>71.7</ele>
        <time>2019-07-16T09:56:43Z</time>
      </trkpt>
      <trkpt lat="48.31579" lon="-1.71143">
        <ele>71.7</ele>
        <time>2019-07-16T09:56:44Z</time>
      </trkpt>
      <trkpt lat="48.31582" lon="-1.71138">
        <ele>71.8</ele>
        <time>2019-07-16T09:56:45Z</time>
      </trkpt>
      <trkpt lat="48.31585" lon="-1.71134">
        <ele>72</ele>
        <time>2019-07-16T09:56:46Z</time>
      </trkpt>
      <trkpt lat="48.31588" lon="-1.71129">
        <ele>72.5</ele>
        <time>2019-07-16T09:56:47Z</time>
      </trkpt>
      <trkpt lat="48.3159" lon="-1.71124">
        <ele>73.2</ele>
        <time>2019-07-16T09:56:48Z</time>
      </trkpt>
      <trkpt lat="48.31592" lon="-1.7112">
        <ele>73.5</ele>
        <time>2019-07-16T09:56:49Z</time>
      </trkpt>
      <trkpt lat="48.31595" lon="-1.71115">
        <ele>73.6</ele>
        <time>2019-07-16T09:56:50Z</time>
      </trkpt>
      <trkpt lat="48.31598" lon="-1.71109">
        <ele>73.9</ele>
        <time>2019-07-16T09:56:51Z</time>
      </trkpt>
      <trkpt lat="48.31601" lon="-1.71104">
        <ele>73.8</ele>
        <time>2019-07-16T09:56:52Z</time>
      </trkpt>
      <trkpt lat="48.31603" lon="-1.71099">
        <ele>73.8</ele>
        <time>2019-07-16T09:56:53Z</time>
      </trkpt>
      <trkpt lat="48.31606" lon="-1.71095">
        <ele>74</ele>
        <time>2019-07-16T09:56:54Z</time>
      </trkpt>
      <trkpt lat="48.31609" lon="-1.7109">
        <ele>74.3</ele>
        <time>2019-07-16T09:56:55Z</time>
      </trkpt>
      <trkpt lat="48.31613" lon="-1.71084">
        <ele>73.9</ele>
        <time>2019-07-16T09:56:56Z</time>
      </trkpt>
      <trkpt lat="48.31616" lon="-1.71078">
        <ele>73.8</ele>
        <time>2019-07-16T09:56:57Z</time>
      </trkpt>
      <trkpt lat="48.31619" lon="-1.71073">
        <ele>73.9</ele>
        <time>2019-07-16T09:56:58Z</time>
      </trkpt>
      <trkpt lat="48.31623" lon="-1.71067">
        <ele>73.1</ele>
        <time>2019-07-16T09:56:59Z</time>
      </trkpt>
      <trkpt lat="48.31625" lon="-1.71063">
        <ele>72.5</ele>
        <time>2019-07-16T09:57:00Z</time>
      </trkpt>
      <trkpt lat="48.31627" lon="-1.71058">
        <ele>72.4</ele>
        <time>2019-07-16T09:57:01Z</time>
      </trkpt>
      <trkpt lat="48.31629" lon="-1.71054">
        <ele>72.2</ele>
        <time>2019-07-16T09:57:02Z</time>
      </trkpt>
      <trkpt lat="48.31632" lon="-1.71049">
        <ele>72.2</ele>
        <time>2019-07-16T09:57:03Z</time>
      </trkpt>
      <trkpt lat="48.31633" lon="-1.71044">
        <ele>71.7</ele>
        <time>2019-07-16T09:57:04Z</time>
      </trkpt>
      <trkpt lat="48.31635" lon="-1.7104">
        <ele>71.4</ele>
        <time>2019-07-16T09:57:05Z</time>
      </trkpt>
      <trkpt lat="48.31638" lon="-1.71035">
        <ele>70.8</ele>
        <time>2019-07-16T09:57:06Z</time>
      </trkpt>
      <trkpt lat="48.3164" lon="-1.71031">
        <ele>70.3</ele>
        <time>2019-07-16T09:57:07Z</time>
      </trkpt>
      <trkpt lat="48.31641" lon="-1.71025">
        <ele>70.4</ele>
        <time>2019-07-16T09:57:08Z</time>
      </trkpt>
      <trkpt lat="48.31643" lon="-1.7102">
        <ele>70.1</ele>
        <time>2019-07-16T09:57:09Z</time>
      </trkpt>
      <trkpt lat="48.31645" lon="-1.71015">
        <ele>69.6</ele>
        <time>2019-07-16T09:57:10Z</time>
      </trkpt>
      <trkpt lat="48.31648" lon="-1.7101">
        <ele>68.9</ele>
        <time>2019-07-16T09:57:11Z</time>
      </trkpt>
      <trkpt lat="48.31649" lon="-1.71004">
        <ele>68.6</ele>
        <time>2019-07-16T09:57:12Z</time>
      </trkpt>
      <trkpt lat="48.31651" lon="-1.71">
        <ele>68.5</ele>
        <time>2019-07-16T09:57:13Z</time>
      </trkpt>
      <trkpt lat="48.31653" lon="-1.70995">
        <ele>68.3</ele>
        <time>2019-07-16T09:57:14Z</time>
      </trkpt>
      <trkpt lat="48.31654" lon="-1.70989">
        <ele>68.3</ele>
        <time>2019-07-16T09:57:15Z</time>
      </trkpt>
      <trkpt lat="48.31656" lon="-1.70984">
        <ele>68.2</ele>
        <time>2019-07-16T09:57:16Z</time>
      </trkpt>
      <trkpt lat="48.31657" lon="-1.70978">
        <ele>68.1</ele>
        <time>2019-07-16T09:57:17Z</time>
      </trkpt>
      <trkpt lat="48.31659" lon="-1.70972">
        <ele>67.8</ele>
        <time>2019-07-16T09:57:18Z</time>
      </trkpt>
      <trkpt lat="48.31661" lon="-1.70966">
        <ele>67.7</ele>
        <time>2019-07-16T09:57:19Z</time>
      </trkpt>
      <trkpt lat="48.31664" lon="-1.70959">
        <ele>67.4</ele>
        <time>2019-07-16T09:57:20Z</time>
      </trkpt>
      <trkpt lat="48.31665" lon="-1.70954">
        <ele>67.3</ele>
        <time>2019-07-16T09:57:21Z</time>
      </trkpt>
      <trkpt lat="48.31666" lon="-1.70948">
        <ele>67.3</ele>
        <time>2019-07-16T09:57:22Z</time>
      </trkpt>
      <trkpt lat="48.31668" lon="-1.70941">
        <ele>67.3</ele>
        <time>2019-07-16T09:57:23Z</time>
      </trkpt>
      <trkpt lat="48.31669" lon="-1.70934">
        <ele>67.6</ele>
        <time>2019-07-16T09:57:24Z</time>
      </trkpt>
      <trkpt lat="48.31671" lon="-1.70928">
        <ele>67.5</ele>
        <time>2019-07-16T09:57:25Z</time>
      </trkpt>
      <trkpt lat="48.31673" lon="-1.70921">
        <ele>67.5</ele>
        <time>2019-07-16T09:57:26Z</time>
      </trkpt>
      <trkpt lat="48.31674" lon="-1.70915">
        <ele>67.3</ele>
        <time>2019-07-16T09:57:27Z</time>
      </trkpt>
      <trkpt lat="48.31675" lon="-1.70908">
        <ele>67.6</ele>
        <time>2019-07-16T09:57:28Z</time>
      </trkpt>
      <trkpt lat="48.31677" lon="-1.70903">
        <ele>67.9</ele>
        <time>2019-07-16T09:57:29Z</time>
      </trkpt>
      <trkpt lat="48.31678" lon="-1.70897">
        <ele>68</ele>
        <time>2019-07-16T09:57:30Z</time>
      </trkpt>
      <trkpt lat="48.3168" lon="-1.70892">
        <ele>68</ele>
        <time>2019-07-16T09:57:31Z</time>
      </trkpt>
      <trkpt lat="48.31681" lon="-1.70888">
        <ele>67.8</ele>
        <time>2019-07-16T09:57:32Z</time>
      </trkpt>
      <trkpt lat="48.31683" lon="-1.70884">
        <ele>67.6</ele>
        <time>2019-07-16T09:57:33Z</time>
      </trkpt>
      <trkpt lat="48.31685" lon="-1.7088">
        <ele>67.5</ele>
        <time>2019-07-16T09:57:34Z</time>
      </trkpt>
      <trkpt lat="48.31686" lon="-1.70874">
        <ele>67.1</ele>
        <time>2019-07-16T09:57:35Z</time>
      </trkpt>
      <trkpt lat="48.31686" lon="-1.70868">
        <ele>66.5</ele>
        <time>2019-07-16T09:57:36Z</time>
      </trkpt>
      <trkpt lat="48.31687" lon="-1.70862">
        <ele>65.3</ele>
        <time>2019-07-16T09:57:37Z</time>
      </trkpt>
      <trkpt lat="48.31689" lon="-1.70856">
        <ele>64.4</ele>
        <time>2019-07-16T09:57:38Z</time>
      </trkpt>
      <trkpt lat="48.3169" lon="-1.7085">
        <ele>64</ele>
        <time>2019-07-16T09:57:39Z</time>
      </trkpt>
      <trkpt lat="48.31691" lon="-1.70846">
        <ele>63.4</ele>
        <time>2019-07-16T09:57:40Z</time>
      </trkpt>
      <trkpt lat="48.31692" lon="-1.70842">
        <ele>63.5</ele>
        <time>2019-07-16T09:57:41Z</time>
      </trkpt>
      <trkpt lat="48.31692" lon="-1.70837">
        <ele>63.6</ele>
        <time>2019-07-16T09:57:42Z</time>
      </trkpt>
      <trkpt lat="48.31693" lon="-1.70831">
        <ele>63.2</ele>
        <time>2019-07-16T09:57:43Z</time>
      </trkpt>
      <trkpt lat="48.31693" lon="-1.70825">
        <ele>63.4</ele>
        <time>2019-07-16T09:57:44Z</time>
      </trkpt>
      <trkpt lat="48.31694" lon="-1.7082">
        <ele>63.5</ele>
        <time>2019-07-16T09:57:45Z</time>
      </trkpt>
      <trkpt lat="48.31694" lon="-1.70814">
        <ele>63.5</ele>
        <time>2019-07-16T09:57:46Z</time>
      </trkpt>
      <trkpt lat="48.31694" lon="-1.70808">
        <ele>63.9</ele>
        <time>2019-07-16T09:57:47Z</time>
      </trkpt>
      <trkpt lat="48.31695" lon="-1.70802">
        <ele>64</ele>
        <time>2019-07-16T09:57:48Z</time>
      </trkpt>
      <trkpt lat="48.31695" lon="-1.70796">
        <ele>64.4</ele>
        <time>2019-07-16T09:57:49Z</time>
      </trkpt>
      <trkpt lat="48.31696" lon="-1.7079">
        <ele>64.7</ele>
        <time>2019-07-16T09:57:50Z</time>
      </trkpt>
      <trkpt lat="48.31696" lon="-1.70784">
        <ele>65</ele>
        <time>2019-07-16T09:57:51Z</time>
      </trkpt>
      <trkpt lat="48.31696" lon="-1.70777">
        <ele>65.1</ele>
        <time>2019-07-16T09:57:52Z</time>
      </trkpt>
      <trkpt lat="48.31697" lon="-1.70771">
        <ele>65.2</ele>
        <time>2019-07-16T09:57:53Z</time>
      </trkpt>
      <trkpt lat="48.31698" lon="-1.70765">
        <ele>65.3</ele>
        <time>2019-07-16T09:57:54Z</time>
      </trkpt>
      <trkpt lat="48.31698" lon="-1.7076">
        <ele>65.6</ele>
        <time>2019-07-16T09:57:55Z</time>
      </trkpt>
      <trkpt lat="48.31698" lon="-1.70753">
        <ele>65.6</ele>
        <time>2019-07-16T09:57:56Z</time>
      </trkpt>
      <trkpt lat="48.31698" lon="-1.70747">
        <ele>65.7</ele>
        <time>2019-07-16T09:57:57Z</time>
      </trkpt>
      <trkpt lat="48.31698" lon="-1.70741">
        <ele>65.5</ele>
        <time>2019-07-16T09:57:58Z</time>
      </trkpt>
      <trkpt lat="48.31699" lon="-1.70734">
        <ele>65.1</ele>
        <time>2019-07-16T09:57:59Z</time>
      </trkpt>
      <trkpt lat="48.31699" lon="-1.70727">
        <ele>65</ele>
        <time>2019-07-16T09:58:00Z</time>
      </trkpt>
      <trkpt lat="48.31699" lon="-1.7072">
        <ele>64</ele>
        <time>2019-07-16T09:58:01Z</time>
      </trkpt>
      <trkpt lat="48.31699" lon="-1.70713">
        <ele>63.3</ele>
        <time>2019-07-16T09:58:02Z</time>
      </trkpt>
      <trkpt lat="48.317" lon="-1.70707">
        <ele>63.2</ele>
        <time>2019-07-16T09:58:03Z</time>
      </trkpt>
      <trkpt lat="48.317" lon="-1.70701">
        <ele>64</ele>
        <time>2019-07-16T09:58:04Z</time>
      </trkpt>
      <trkpt lat="48.31701" lon="-1.70694">
        <ele>63.7</ele>
        <time>2019-07-16T09:58:05Z</time>
      </trkpt>
      <trkpt lat="48.31702" lon="-1.70687">
        <ele>62.5</ele>
        <time>2019-07-16T09:58:06Z</time>
      </trkpt>
      <trkpt lat="48.31701" lon="-1.7068">
        <ele>62.2</ele>
        <time>2019-07-16T09:58:07Z</time>
      </trkpt>
      <trkpt lat="48.31701" lon="-1.70674">
        <ele>61.7</ele>
        <time>2019-07-16T09:58:08Z</time>
      </trkpt>
      <trkpt lat="48.317" lon="-1.70668">
        <ele>61.7</ele>
        <time>2019-07-16T09:58:09Z</time>
      </trkpt>
      <trkpt lat="48.31699" lon="-1.70661">
        <ele>62.1</ele>
        <time>2019-07-16T09:58:10Z</time>
      </trkpt>
      <trkpt lat="48.31698" lon="-1.70655">
        <ele>61.8</ele>
        <time>2019-07-16T09:58:11Z</time>
      </trkpt>
      <trkpt lat="48.31698" lon="-1.70648">
        <ele>61.4</ele>
        <time>2019-07-16T09:58:12Z</time>
      </trkpt>
      <trkpt lat="48.31697" lon="-1.70642">
        <ele>61.9</ele>
        <time>2019-07-16T09:58:13Z</time>
      </trkpt>
      <trkpt lat="48.31696" lon="-1.70635">
        <ele>62.4</ele>
        <time>2019-07-16T09:58:14Z</time>
      </trkpt>
      <trkpt lat="48.31696" lon="-1.70628">
        <ele>62.3</ele>
        <time>2019-07-16T09:58:15Z</time>
      </trkpt>
      <trkpt lat="48.31696" lon="-1.70622">
        <ele>62</ele>
        <time>2019-07-16T09:58:16Z</time>
      </trkpt>
      <trkpt lat="48.31696" lon="-1.70615">
        <ele>62.5</ele>
        <time>2019-07-16T09:58:17Z</time>
      </trkpt>
      <trkpt lat="48.31696" lon="-1.70609">
        <ele>63.1</ele>
        <time>2019-07-16T09:58:18Z</time>
      </trkpt>
      <trkpt lat="48.31696" lon="-1.70604">
        <ele>63.7</ele>
        <time>2019-07-16T09:58:19Z</time>
      </trkpt>
      <trkpt lat="48.31696" lon="-1.70598">
        <ele>64.2</ele>
        <time>2019-07-16T09:58:20Z</time>
      </trkpt>
      <trkpt lat="48.31696" lon="-1.70592">
        <ele>64.5</ele>
        <time>2019-07-16T09:58:21Z</time>
      </trkpt>
      <trkpt lat="48.31695" lon="-1.70586">
        <ele>65.1</ele>
        <time>2019-07-16T09:58:22Z</time>
      </trkpt>
      <trkpt lat="48.31695" lon="-1.7058">
        <ele>65.4</ele>
        <time>2019-07-16T09:58:23Z</time>
      </trkpt>
      <trkpt lat="48.31694" lon="-1.70574">
        <ele>65.6</ele>
        <time>2019-07-16T09:58:24Z</time>
      </trkpt>
      <trkpt lat="48.31693" lon="-1.70569">
        <ele>65.8</ele>
        <time>2019-07-16T09:58:25Z</time>
      </trkpt>
      <trkpt lat="48.31692" lon="-1.70564">
        <ele>65.5</ele>
        <time>2019-07-16T09:58:26Z</time>
      </trkpt>
      <trkpt lat="48.31691" lon="-1.70558">
        <ele>65.1</ele>
        <time>2019-07-16T09:58:27Z</time>
      </trkpt>
      <trkpt lat="48.3169" lon="-1.70552">
        <ele>65.1</ele>
        <time>2019-07-16T09:58:28Z</time>
      </trkpt>
      <trkpt lat="48.3169" lon="-1.70546">
        <ele>65</ele>
        <time>2019-07-16T09:58:29Z</time>
      </trkpt>
      <trkpt lat="48.31689" lon="-1.70541">
        <ele>65</ele>
        <time>2019-07-16T09:58:30Z</time>
      </trkpt>
      <trkpt lat="48.31688" lon="-1.70535">
        <ele>65.2</ele>
        <time>2019-07-16T09:58:31Z</time>
      </trkpt>
      <trkpt lat="48.31687" lon="-1.70529">
        <ele>65.5</ele>
        <time>2019-07-16T09:58:32Z</time>
      </trkpt>
      <trkpt lat="48.31686" lon="-1.70523">
        <ele>65.1</ele>
        <time>2019-07-16T09:58:33Z</time>
      </trkpt>
      <trkpt lat="48.31685" lon="-1.70517">
        <ele>64.6</ele>
        <time>2019-07-16T09:58:34Z</time>
      </trkpt>
      <trkpt lat="48.31685" lon="-1.70511">
        <ele>64.2</ele>
        <time>2019-07-16T09:58:35Z</time>
      </trkpt>
      <trkpt lat="48.31683" lon="-1.70504">
        <ele>64</ele>
        <time>2019-07-16T09:58:36Z</time>
      </trkpt>
      <trkpt lat="48.31682" lon="-1.70497">
        <ele>64.2</ele>
        <time>2019-07-16T09:58:37Z</time>
      </trkpt>
      <trkpt lat="48.3168" lon="-1.70491">
        <ele>64</ele>
        <time>2019-07-16T09:58:38Z</time>
      </trkpt>
      <trkpt lat="48.31678" lon="-1.70485">
        <ele>63.8</ele>
        <time>2019-07-16T09:58:39Z</time>
      </trkpt>
      <trkpt lat="48.31676" lon="-1.70478">
        <ele>63.7</ele>
        <time>2019-07-16T09:58:40Z</time>
      </trkpt>
      <trkpt lat="48.31673" lon="-1.70472">
        <ele>63.9</ele>
        <time>2019-07-16T09:58:41Z</time>
      </trkpt>
      <trkpt lat="48.3167" lon="-1.70466">
        <ele>63.7</ele>
        <time>2019-07-16T09:58:42Z</time>
      </trkpt>
      <trkpt lat="48.31667" lon="-1.70461">
        <ele>63.5</ele>
        <time>2019-07-16T09:58:43Z</time>
      </trkpt>
      <trkpt lat="48.31665" lon="-1.70456">
        <ele>63.9</ele>
        <time>2019-07-16T09:58:44Z</time>
      </trkpt>
      <trkpt lat="48.31662" lon="-1.70451">
        <ele>64.2</ele>
        <time>2019-07-16T09:58:45Z</time>
      </trkpt>
      <trkpt lat="48.31659" lon="-1.70446">
        <ele>64.2</ele>
        <time>2019-07-16T09:58:46Z</time>
      </trkpt>
      <trkpt lat="48.31656" lon="-1.70442">
        <ele>64.4</ele>
        <time>2019-07-16T09:58:47Z</time>
      </trkpt>
      <trkpt lat="48.31652" lon="-1.70437">
        <ele>64.3</ele>
        <time>2019-07-16T09:58:48Z</time>
      </trkpt>
      <trkpt lat="48.31649" lon="-1.70433">
        <ele>64.6</ele>
        <time>2019-07-16T09:58:49Z</time>
      </trkpt>
      <trkpt lat="48.31645" lon="-1.70429">
        <ele>64.5</ele>
        <time>2019-07-16T09:58:50Z</time>
      </trkpt>
      <trkpt lat="48.31642" lon="-1.70425">
        <ele>64.6</ele>
        <time>2019-07-16T09:58:51Z</time>
      </trkpt>
      <trkpt lat="48.31639" lon="-1.70421">
        <ele>64.4</ele>
        <time>2019-07-16T09:58:52Z</time>
      </trkpt>
      <trkpt lat="48.31636" lon="-1.70417">
        <ele>64.3</ele>
        <time>2019-07-16T09:58:53Z</time>
      </trkpt>
      <trkpt lat="48.31632" lon="-1.70413">
        <ele>64</ele>
        <time>2019-07-16T09:58:54Z</time>
      </trkpt>
      <trkpt lat="48.31629" lon="-1.70409">
        <ele>64.4</ele>
        <time>2019-07-16T09:58:55Z</time>
      </trkpt>
      <trkpt lat="48.31626" lon="-1.70405">
        <ele>64.4</ele>
        <time>2019-07-16T09:58:56Z</time>
      </trkpt>
      <trkpt lat="48.31624" lon="-1.70401">
        <ele>65.1</ele>
        <time>2019-07-16T09:58:57Z</time>
      </trkpt>
      <trkpt lat="48.31621" lon="-1.70396">
        <ele>65</ele>
        <time>2019-07-16T09:58:58Z</time>
      </trkpt>
      <trkpt lat="48.31619" lon="-1.70391">
        <ele>64.6</ele>
        <time>2019-07-16T09:58:59Z</time>
      </trkpt>
      <trkpt lat="48.31616" lon="-1.70385">
        <ele>64.1</ele>
        <time>2019-07-16T09:59:00Z</time>
      </trkpt>
      <trkpt lat="48.31614" lon="-1.70379">
        <ele>63.6</ele>
        <time>2019-07-16T09:59:01Z</time>
      </trkpt>
      <trkpt lat="48.31612" lon="-1.70372">
        <ele>63.5</ele>
        <time>2019-07-16T09:59:02Z</time>
      </trkpt>
      <trkpt lat="48.3161" lon="-1.70366">
        <ele>63.6</ele>
        <time>2019-07-16T09:59:03Z</time>
      </trkpt>
      <trkpt lat="48.31608" lon="-1.70359">
        <ele>63.6</ele>
        <time>2019-07-16T09:59:04Z</time>
      </trkpt>
      <trkpt lat="48.31607" lon="-1.70352">
        <ele>63.3</ele>
        <time>2019-07-16T09:59:05Z</time>
      </trkpt>
      <trkpt lat="48.31605" lon="-1.70345">
        <ele>63</ele>
        <time>2019-07-16T09:59:06Z</time>
      </trkpt>
      <trkpt lat="48.31604" lon="-1.70339">
        <ele>63.1</ele>
        <time>2019-07-16T09:59:07Z</time>
      </trkpt>
      <trkpt lat="48.31602" lon="-1.70332">
        <ele>63.4</ele>
        <time>2019-07-16T09:59:08Z</time>
      </trkpt>
      <trkpt lat="48.31601" lon="-1.70326">
        <ele>63.6</ele>
        <time>2019-07-16T09:59:09Z</time>
      </trkpt>
      <trkpt lat="48.31599" lon="-1.7032">
        <ele>64</ele>
        <time>2019-07-16T09:59:10Z</time>
      </trkpt>
      <trkpt lat="48.31598" lon="-1.70315">
        <ele>64.4</ele>
        <time>2019-07-16T09:59:11Z</time>
      </trkpt>
      <trkpt lat="48.31596" lon="-1.7031">
        <ele>64.9</ele>
        <time>2019-07-16T09:59:12Z</time>
      </trkpt>
      <trkpt lat="48.31595" lon="-1.70304">
        <ele>65.4</ele>
        <time>2019-07-16T09:59:13Z</time>
      </trkpt>
      <trkpt lat="48.31593" lon="-1.70298">
        <ele>65.4</ele>
        <time>2019-07-16T09:59:14Z</time>
      </trkpt>
      <trkpt lat="48.31591" lon="-1.70291">
        <ele>65.4</ele>
        <time>2019-07-16T09:59:15Z</time>
      </trkpt>
      <trkpt lat="48.31589" lon="-1.70285">
        <ele>65.1</ele>
        <time>2019-07-16T09:59:16Z</time>
      </trkpt>
      <trkpt lat="48.31587" lon="-1.70277">
        <ele>64.6</ele>
        <time>2019-07-16T09:59:17Z</time>
      </trkpt>
      <trkpt lat="48.31585" lon="-1.70269">
        <ele>64.2</ele>
        <time>2019-07-16T09:59:18Z</time>
      </trkpt>
      <trkpt lat="48.31582" lon="-1.70261">
        <ele>63.9</ele>
        <time>2019-07-16T09:59:19Z</time>
      </trkpt>
      <trkpt lat="48.3158" lon="-1.70253">
        <ele>63.9</ele>
        <time>2019-07-16T09:59:20Z</time>
      </trkpt>
      <trkpt lat="48.31578" lon="-1.70245">
        <ele>63.8</ele>
        <time>2019-07-16T09:59:21Z</time>
      </trkpt>
      <trkpt lat="48.31576" lon="-1.70238">
        <ele>63.7</ele>
        <time>2019-07-16T09:59:22Z</time>
      </trkpt>
      <trkpt lat="48.31574" lon="-1.70231">
        <ele>63.6</ele>
        <time>2019-07-16T09:59:23Z</time>
      </trkpt>
      <trkpt lat="48.31572" lon="-1.70225">
        <ele>63.4</ele>
        <time>2019-07-16T09:59:24Z</time>
      </trkpt>
      <trkpt lat="48.3157" lon="-1.70219">
        <ele>63.4</ele>
        <time>2019-07-16T09:59:25Z</time>
      </trkpt>
      <trkpt lat="48.31569" lon="-1.70214">
        <ele>63.3</ele>
        <time>2019-07-16T09:59:26Z</time>
      </trkpt>
      <trkpt lat="48.31567" lon="-1.70207">
        <ele>62.8</ele>
        <time>2019-07-16T09:59:27Z</time>
      </trkpt>
      <trkpt lat="48.31566" lon="-1.70202">
        <ele>62.6</ele>
        <time>2019-07-16T09:59:28Z</time>
      </trkpt>
      <trkpt lat="48.31564" lon="-1.70196">
        <ele>62.3</ele>
        <time>2019-07-16T09:59:29Z</time>
      </trkpt>
      <trkpt lat="48.31562" lon="-1.7019">
        <ele>62.2</ele>
        <time>2019-07-16T09:59:30Z</time>
      </trkpt>
      <trkpt lat="48.31561" lon="-1.70184">
        <ele>62</ele>
        <time>2019-07-16T09:59:31Z</time>
      </trkpt>
      <trkpt lat="48.31559" lon="-1.70179">
        <ele>61.9</ele>
        <time>2019-07-16T09:59:32Z</time>
      </trkpt>
      <trkpt lat="48.31559" lon="-1.70174">
        <ele>61.7</ele>
        <time>2019-07-16T09:59:33Z</time>
      </trkpt>
      <trkpt lat="48.31558" lon="-1.7017">
        <ele>61.4</ele>
        <time>2019-07-16T09:59:34Z</time>
      </trkpt>
      <trkpt lat="48.31557" lon="-1.70165">
        <ele>61.3</ele>
        <time>2019-07-16T09:59:35Z</time>
      </trkpt>
      <trkpt lat="48.31556" lon="-1.7016">
        <ele>60.9</ele>
        <time>2019-07-16T09:59:36Z</time>
      </trkpt>
      <trkpt lat="48.31554" lon="-1.70155">
        <ele>61</ele>
        <time>2019-07-16T09:59:37Z</time>
      </trkpt>
      <trkpt lat="48.31553" lon="-1.7015">
        <ele>60.6</ele>
        <time>2019-07-16T09:59:38Z</time>
      </trkpt>
      <trkpt lat="48.31551" lon="-1.70145">
        <ele>60.4</ele>
        <time>2019-07-16T09:59:39Z</time>
      </trkpt>
      <trkpt lat="48.3155" lon="-1.70139">
        <ele>60.5</ele>
        <time>2019-07-16T09:59:40Z</time>
      </trkpt>
      <trkpt lat="48.31548" lon="-1.70134">
        <ele>60.8</ele>
        <time>2019-07-16T09:59:41Z</time>
      </trkpt>
      <trkpt lat="48.31546" lon="-1.70129">
        <ele>61</ele>
        <time>2019-07-16T09:59:42Z</time>
      </trkpt>
      <trkpt lat="48.31544" lon="-1.70124">
        <ele>61.7</ele>
        <time>2019-07-16T09:59:43Z</time>
      </trkpt>
      <trkpt lat="48.31542" lon="-1.70119">
        <ele>61.9</ele>
        <time>2019-07-16T09:59:44Z</time>
      </trkpt>
      <trkpt lat="48.3154" lon="-1.70112">
        <ele>62.6</ele>
        <time>2019-07-16T09:59:45Z</time>
      </trkpt>
      <trkpt lat="48.31537" lon="-1.70107">
        <ele>63.3</ele>
        <time>2019-07-16T09:59:46Z</time>
      </trkpt>
      <trkpt lat="48.31535" lon="-1.70101">
        <ele>64.3</ele>
        <time>2019-07-16T09:59:47Z</time>
      </trkpt>
      <trkpt lat="48.31534" lon="-1.70097">
        <ele>64.8</ele>
        <time>2019-07-16T09:59:48Z</time>
      </trkpt>
      <trkpt lat="48.31533" lon="-1.70092">
        <ele>64.8</ele>
        <time>2019-07-16T09:59:49Z</time>
      </trkpt>
      <trkpt lat="48.31532" lon="-1.70087">
        <ele>64.8</ele>
        <time>2019-07-16T09:59:50Z</time>
      </trkpt>
      <trkpt lat="48.31531" lon="-1.70082">
        <ele>65.2</ele>
        <time>2019-07-16T09:59:51Z</time>
      </trkpt>
      <trkpt lat="48.3153" lon="-1.70076">
        <ele>65.3</ele>
        <time>2019-07-16T09:59:52Z</time>
      </trkpt>
      <trkpt lat="48.31529" lon="-1.70071">
        <ele>65.8</ele>
        <time>2019-07-16T09:59:53Z</time>
      </trkpt>
      <trkpt lat="48.31528" lon="-1.70064">
        <ele>65.4</ele>
        <time>2019-07-16T09:59:54Z</time>
      </trkpt>
      <trkpt lat="48.31527" lon="-1.70059">
        <ele>65.6</ele>
        <time>2019-07-16T09:59:55Z</time>
      </trkpt>
      <trkpt lat="48.31525" lon="-1.70053">
        <ele>65.8</ele>
        <time>2019-07-16T09:59:56Z</time>
      </trkpt>
      <trkpt lat="48.31524" lon="-1.70046">
        <ele>65.7</ele>
        <time>2019-07-16T09:59:57Z</time>
      </trkpt>
      <trkpt lat="48.31522" lon="-1.7004">
        <ele>65.6</ele>
        <time>2019-07-16T09:59:58Z</time>
      </trkpt>
      <trkpt lat="48.3152" lon="-1.70033">
        <ele>65.4</ele>
        <time>2019-07-16T09:59:59Z</time>
      </trkpt>
      <trkpt lat="48.31518" lon="-1.70026">
        <ele>65.7</ele>
        <time>2019-07-16T10:00:00Z</time>
      </trkpt>
      <trkpt lat="48.31516" lon="-1.7002">
        <ele>65.6</ele>
        <time>2019-07-16T10:00:01Z</time>
      </trkpt>
      <trkpt lat="48.31514" lon="-1.70014">
        <ele>65.4</ele>
        <time>2019-07-16T10:00:02Z</time>
      </trkpt>
      <trkpt lat="48.31512" lon="-1.70008">
        <ele>65.3</ele>
        <time>2019-07-16T10:00:03Z</time>
      </trkpt>
      <trkpt lat="48.3151" lon="-1.70002">
        <ele>65.4</ele>
        <time>2019-07-16T10:00:04Z</time>
      </trkpt>
      <trkpt lat="48.31509" lon="-1.69997">
        <ele>65</ele>
        <time>2019-07-16T10:00:05Z</time>
      </trkpt>
      <trkpt lat="48.31508" lon="-1.69991">
        <ele>65</ele>
        <time>2019-07-16T10:00:06Z</time>
      </trkpt>
      <trkpt lat="48.31506" lon="-1.69986">
        <ele>65.1</ele>
        <time>2019-07-16T10:00:07Z</time>
      </trkpt>
      <trkpt lat="48.31504" lon="-1.69979">
        <ele>65.1</ele>
        <time>2019-07-16T10:00:08Z</time>
      </trkpt>
      <trkpt lat="48.31503" lon="-1.69972">
        <ele>65</ele>
        <time>2019-07-16T10:00:09Z</time>
      </trkpt>
      <trkpt lat="48.31501" lon="-1.69966">
        <ele>64.9</ele>
        <time>2019-07-16T10:00:10Z</time>
      </trkpt>
      <trkpt lat="48.31499" lon="-1.6996">
        <ele>64.7</ele>
        <time>2019-07-16T10:00:11Z</time>
      </trkpt>
      <trkpt lat="48.31498" lon="-1.69955">
        <ele>64.4</ele>
        <time>2019-07-16T10:00:12Z</time>
      </trkpt>
      <trkpt lat="48.31496" lon="-1.69949">
        <ele>64.1</ele>
        <time>2019-07-16T10:00:13Z</time>
      </trkpt>
      <trkpt lat="48.31495" lon="-1.69943">
        <ele>64.1</ele>
        <time>2019-07-16T10:00:14Z</time>
      </trkpt>
      <trkpt lat="48.31494" lon="-1.69937">
        <ele>64.2</ele>
        <time>2019-07-16T10:00:15Z</time>
      </trkpt>
      <trkpt lat="48.31492" lon="-1.69931">
        <ele>64</ele>
        <time>2019-07-16T10:00:16Z</time>
      </trkpt>
      <trkpt lat="48.3149" lon="-1.69925">
        <ele>63.6</ele>
        <time>2019-07-16T10:00:17Z</time>
      </trkpt>
      <trkpt lat="48.31489" lon="-1.69919">
        <ele>63.4</ele>
        <time>2019-07-16T10:00:18Z</time>
      </trkpt>
      <trkpt lat="48.31488" lon="-1.69914">
        <ele>62.8</ele>
        <time>2019-07-16T10:00:19Z</time>
      </trkpt>
      <trkpt lat="48.31487" lon="-1.69909">
        <ele>62.4</ele>
        <time>2019-07-16T10:00:20Z</time>
      </trkpt>
      <trkpt lat="48.31485" lon="-1.69905">
        <ele>62.2</ele>
        <time>2019-07-16T10:00:21Z</time>
      </trkpt>
      <trkpt lat="48.31485" lon="-1.699">
        <ele>62.3</ele>
        <time>2019-07-16T10:00:22Z</time>
      </trkpt>
      <trkpt lat="48.31484" lon="-1.69895">
        <ele>62.6</ele>
        <time>2019-07-16T10:00:23Z</time>
      </trkpt>
      <trkpt lat="48.31482" lon="-1.6989">
        <ele>62.4</ele>
        <time>2019-07-16T10:00:24Z</time>
      </trkpt>
      <trkpt lat="48.3148" lon="-1.69884">
        <ele>63.1</ele>
        <time>2019-07-16T10:00:25Z</time>
      </trkpt>
      <trkpt lat="48.31477" lon="-1.69878">
        <ele>64.5</ele>
        <time>2019-07-16T10:00:26Z</time>
      </trkpt>
      <trkpt lat="48.31475" lon="-1.69872">
        <ele>65.6</ele>
        <time>2019-07-16T10:00:27Z</time>
      </trkpt>
      <trkpt lat="48.31473" lon="-1.69865">
        <ele>66.1</ele>
        <time>2019-07-16T10:00:28Z</time>
      </trkpt>
      <trkpt lat="48.31471" lon="-1.69858">
        <ele>66.6</ele>
        <time>2019-07-16T10:00:29Z</time>
      </trkpt>
      <trkpt lat="48.31468" lon="-1.69852">
        <ele>66.7</ele>
        <time>2019-07-16T10:00:30Z</time>
      </trkpt>
      <trkpt lat="48.31466" lon="-1.69845">
        <ele>67.2</ele>
        <time>2019-07-16T10:00:31Z</time>
      </trkpt>
      <trkpt lat="48.31464" lon="-1.69839">
        <ele>67.1</ele>
        <time>2019-07-16T10:00:32Z</time>
      </trkpt>
      <trkpt lat="48.31462" lon="-1.69833">
        <ele>67.2</ele>
        <time>2019-07-16T10:00:33Z</time>
      </trkpt>
      <trkpt lat="48.31461" lon="-1.69827">
        <ele>66.8</ele>
        <time>2019-07-16T10:00:34Z</time>
      </trkpt>
      <trkpt lat="48.3146" lon="-1.69822">
        <ele>66.9</ele>
        <time>2019-07-16T10:00:35Z</time>
      </trkpt>
      <trkpt lat="48.31458" lon="-1.69817">
        <ele>66.9</ele>
        <time>2019-07-16T10:00:36Z</time>
      </trkpt>
      <trkpt lat="48.31457" lon="-1.69811">
        <ele>67</ele>
        <time>2019-07-16T10:00:37Z</time>
      </trkpt>
      <trkpt lat="48.31455" lon="-1.69805">
        <ele>67.3</ele>
        <time>2019-07-16T10:00:38Z</time>
      </trkpt>
      <trkpt lat="48.31454" lon="-1.698">
        <ele>67.6</ele>
        <time>2019-07-16T10:00:39Z</time>
      </trkpt>
      <trkpt lat="48.31453" lon="-1.69794">
        <ele>67.3</ele>
        <time>2019-07-16T10:00:40Z</time>
      </trkpt>
      <trkpt lat="48.31452" lon="-1.69788">
        <ele>67.3</ele>
        <time>2019-07-16T10:00:41Z</time>
      </trkpt>
      <trkpt lat="48.3145" lon="-1.69783">
        <ele>67.1</ele>
        <time>2019-07-16T10:00:42Z</time>
      </trkpt>
      <trkpt lat="48.31448" lon="-1.69777">
        <ele>67.3</ele>
        <time>2019-07-16T10:00:43Z</time>
      </trkpt>
      <trkpt lat="48.31447" lon="-1.69771">
        <ele>67.4</ele>
        <time>2019-07-16T10:00:44Z</time>
      </trkpt>
      <trkpt lat="48.31445" lon="-1.69765">
        <ele>67.6</ele>
        <time>2019-07-16T10:00:45Z</time>
      </trkpt>
      <trkpt lat="48.31443" lon="-1.69759">
        <ele>68</ele>
        <time>2019-07-16T10:00:46Z</time>
      </trkpt>
      <trkpt lat="48.31442" lon="-1.69754">
        <ele>68.4</ele>
        <time>2019-07-16T10:00:47Z</time>
      </trkpt>
      <trkpt lat="48.3144" lon="-1.69748">
        <ele>68.6</ele>
        <time>2019-07-16T10:00:48Z</time>
      </trkpt>
      <trkpt lat="48.31439" lon="-1.69742">
        <ele>68.7</ele>
        <time>2019-07-16T10:00:49Z</time>
      </trkpt>
      <trkpt lat="48.31438" lon="-1.69736">
        <ele>68.7</ele>
        <time>2019-07-16T10:00:50Z</time>
      </trkpt>
      <trkpt lat="48.31436" lon="-1.6973">
        <ele>69.3</ele>
        <time>2019-07-16T10:00:51Z</time>
      </trkpt>
      <trkpt lat="48.31434" lon="-1.69723">
        <ele>69.7</ele>
        <time>2019-07-16T10:00:52Z</time>
      </trkpt>
      <trkpt lat="48.31432" lon="-1.69717">
        <ele>69.8</ele>
        <time>2019-07-16T10:00:53Z</time>
      </trkpt>
      <trkpt lat="48.31429" lon="-1.69711">
        <ele>69.5</ele>
        <time>2019-07-16T10:00:54Z</time>
      </trkpt>
      <trkpt lat="48.31427" lon="-1.69706">
        <ele>69.9</ele>
        <time>2019-07-16T10:00:55Z</time>
      </trkpt>
      <trkpt lat="48.31426" lon="-1.697">
        <ele>70</ele>
        <time>2019-07-16T10:00:56Z</time>
      </trkpt>
      <trkpt lat="48.31424" lon="-1.69694">
        <ele>70.1</ele>
        <time>2019-07-16T10:00:57Z</time>
      </trkpt>
      <trkpt lat="48.31424" lon="-1.69689">
        <ele>70.8</ele>
        <time>2019-07-16T10:00:58Z</time>
      </trkpt>
      <trkpt lat="48.31422" lon="-1.69683">
        <ele>70.3</ele>
        <time>2019-07-16T10:00:59Z</time>
      </trkpt>
      <trkpt lat="48.31421" lon="-1.69677">
        <ele>70.2</ele>
        <time>2019-07-16T10:01:00Z</time>
      </trkpt>
      <trkpt lat="48.31419" lon="-1.6967">
        <ele>69.9</ele>
        <time>2019-07-16T10:01:01Z</time>
      </trkpt>
      <trkpt lat="48.31418" lon="-1.69665">
        <ele>69.7</ele>
        <time>2019-07-16T10:01:02Z</time>
      </trkpt>
      <trkpt lat="48.31416" lon="-1.69658">
        <ele>69.7</ele>
        <time>2019-07-16T10:01:03Z</time>
      </trkpt>
      <trkpt lat="48.31415" lon="-1.69652">
        <ele>69.2</ele>
        <time>2019-07-16T10:01:04Z</time>
      </trkpt>
      <trkpt lat="48.31413" lon="-1.69646">
        <ele>68.6</ele>
        <time>2019-07-16T10:01:05Z</time>
      </trkpt>
      <trkpt lat="48.31411" lon="-1.6964">
        <ele>67.8</ele>
        <time>2019-07-16T10:01:06Z</time>
      </trkpt>
      <trkpt lat="48.3141" lon="-1.69634">
        <ele>67.1</ele>
        <time>2019-07-16T10:01:07Z</time>
      </trkpt>
      <trkpt lat="48.31408" lon="-1.69628">
        <ele>65.3</ele>
        <time>2019-07-16T10:01:08Z</time>
      </trkpt>
      <trkpt lat="48.31406" lon="-1.69622">
        <ele>64.9</ele>
        <time>2019-07-16T10:01:09Z</time>
      </trkpt>
      <trkpt lat="48.31403" lon="-1.69616">
        <ele>64.1</ele>
        <time>2019-07-16T10:01:10Z</time>
      </trkpt>
      <trkpt lat="48.31401" lon="-1.6961">
        <ele>63.6</ele>
        <time>2019-07-16T10:01:11Z</time>
      </trkpt>
      <trkpt lat="48.31399" lon="-1.69604">
        <ele>63</ele>
        <time>2019-07-16T10:01:12Z</time>
      </trkpt>
      <trkpt lat="48.31397" lon="-1.69598">
        <ele>62.6</ele>
        <time>2019-07-16T10:01:13Z</time>
      </trkpt>
      <trkpt lat="48.31395" lon="-1.69592">
        <ele>62.2</ele>
        <time>2019-07-16T10:01:14Z</time>
      </trkpt>
      <trkpt lat="48.31393" lon="-1.69586">
        <ele>61.4</ele>
        <time>2019-07-16T10:01:15Z</time>
      </trkpt>
      <trkpt lat="48.3139" lon="-1.6958">
        <ele>60.8</ele>
        <time>2019-07-16T10:01:16Z</time>
      </trkpt>
      <trkpt lat="48.31389" lon="-1.69573">
        <ele>60.4</ele>
        <time>2019-07-16T10:01:17Z</time>
      </trkpt>
      <trkpt lat="48.31387" lon="-1.69566">
        <ele>60</ele>
        <time>2019-07-16T10:01:18Z</time>
      </trkpt>
      <trkpt lat="48.31385" lon="-1.6956">
        <ele>59.9</ele>
        <time>2019-07-16T10:01:19Z</time>
      </trkpt>
      <trkpt lat="48.31383" lon="-1.69553">
        <ele>60</ele>
        <time>2019-07-16T10:01:20Z</time>
      </trkpt>
      <trkpt lat="48.31381" lon="-1.69546">
        <ele>59.8</ele>
        <time>2019-07-16T10:01:21Z</time>
      </trkpt>
      <trkpt lat="48.31379" lon="-1.6954">
        <ele>59.6</ele>
        <time>2019-07-16T10:01:22Z</time>
      </trkpt>
      <trkpt lat="48.31377" lon="-1.69534">
        <ele>59.8</ele>
        <time>2019-07-16T10:01:23Z</time>
      </trkpt>
      <trkpt lat="48.31375" lon="-1.69528">
        <ele>60.9</ele>
        <time>2019-07-16T10:01:24Z</time>
      </trkpt>
      <trkpt lat="48.31373" lon="-1.69522">
        <ele>61.9</ele>
        <time>2019-07-16T10:01:25Z</time>
      </trkpt>
      <trkpt lat="48.31372" lon="-1.69516">
        <ele>61.8</ele>
        <time>2019-07-16T10:01:26Z</time>
      </trkpt>
      <trkpt lat="48.3137" lon="-1.6951">
        <ele>61.9</ele>
        <time>2019-07-16T10:01:27Z</time>
      </trkpt>
      <trkpt lat="48.31369" lon="-1.69503">
        <ele>62.8</ele>
        <time>2019-07-16T10:01:28Z</time>
      </trkpt>
      <trkpt lat="48.31366" lon="-1.69497">
        <ele>63.2</ele>
        <time>2019-07-16T10:01:29Z</time>
      </trkpt>
      <trkpt lat="48.31365" lon="-1.6949">
        <ele>63.8</ele>
        <time>2019-07-16T10:01:30Z</time>
      </trkpt>
      <trkpt lat="48.31364" lon="-1.69484">
        <ele>63.7</ele>
        <time>2019-07-16T10:01:31Z</time>
      </trkpt>
      <trkpt lat="48.31362" lon="-1.69478">
        <ele>63.9</ele>
        <time>2019-07-16T10:01:32Z</time>
      </trkpt>
      <trkpt lat="48.3136" lon="-1.69471">
        <ele>64.4</ele>
        <time>2019-07-16T10:01:33Z</time>
      </trkpt>
      <trkpt lat="48.31357" lon="-1.69465">
        <ele>65.6</ele>
        <time>2019-07-16T10:01:34Z</time>
      </trkpt>
      <trkpt lat="48.31356" lon="-1.69459">
        <ele>66.4</ele>
        <time>2019-07-16T10:01:35Z</time>
      </trkpt>
      <trkpt lat="48.31354" lon="-1.69454">
        <ele>67.1</ele>
        <time>2019-07-16T10:01:36Z</time>
      </trkpt>
      <trkpt lat="48.31352" lon="-1.69448">
        <ele>66.5</ele>
        <time>2019-07-16T10:01:37Z</time>
      </trkpt>
      <trkpt lat="48.31351" lon="-1.69444">
        <ele>66.1</ele>
        <time>2019-07-16T10:01:38Z</time>
      </trkpt>
      <trkpt lat="48.3135" lon="-1.6944">
        <ele>66.5</ele>
        <time>2019-07-16T10:01:39Z</time>
      </trkpt>
      <trkpt lat="48.31349" lon="-1.69437">
        <ele>66.3</ele>
        <time>2019-07-16T10:01:40Z</time>
      </trkpt>
      <trkpt lat="48.31348" lon="-1.69434">
        <ele>65.8</ele>
        <time>2019-07-16T10:01:41Z</time>
      </trkpt>
      <trkpt lat="48.31348" lon="-1.69431">
        <ele>65.1</ele>
        <time>2019-07-16T10:01:42Z</time>
      </trkpt>
      <trkpt lat="48.31348" lon="-1.69428">
        <ele>64.5</ele>
        <time>2019-07-16T10:01:43Z</time>
      </trkpt>
      <trkpt lat="48.31347" lon="-1.69425">
        <ele>64.6</ele>
        <time>2019-07-16T10:01:44Z</time>
      </trkpt>
      <trkpt lat="48.31347" lon="-1.69422">
        <ele>64.2</ele>
        <time>2019-07-16T10:01:45Z</time>
      </trkpt>
      <trkpt lat="48.31347" lon="-1.69419">
        <ele>64.7</ele>
        <time>2019-07-16T10:01:46Z</time>
      </trkpt>
      <trkpt lat="48.31345" lon="-1.69416">
        <ele>65.2</ele>
        <time>2019-07-16T10:01:47Z</time>
      </trkpt>
      <trkpt lat="48.31344" lon="-1.69413">
        <ele>64.9</ele>
        <time>2019-07-16T10:01:48Z</time>
      </trkpt>
      <trkpt lat="48.31344" lon="-1.69411">
        <ele>64.7</ele>
        <time>2019-07-16T10:01:49Z</time>
      </trkpt>
      <trkpt lat="48.31337" lon="-1.69406">
        <ele>64.6</ele>
        <time>2019-07-16T10:04:07Z</time>
      </trkpt>
      <trkpt lat="48.31335" lon="-1.69406">
        <ele>65.3</ele>
        <time>2019-07-16T10:04:08Z</time>
      </trkpt>
      <trkpt lat="48.31334" lon="-1.69407">
        <ele>65.8</ele>
        <time>2019-07-16T10:04:09Z</time>
      </trkpt>
      <trkpt lat="48.31333" lon="-1.69407">
        <ele>66</ele>
        <time>2019-07-16T10:04:10Z</time>
      </trkpt>
      <trkpt lat="48.31337" lon="-1.69397">
        <ele>65.5</ele>
        <time>2019-07-16T10:05:28Z</time>
      </trkpt>
      <trkpt lat="48.31337" lon="-1.69394">
        <ele>65.4</ele>
        <time>2019-07-16T10:05:29Z</time>
      </trkpt>
      <trkpt lat="48.31337" lon="-1.6939">
        <ele>65.3</ele>
        <time>2019-07-16T10:05:30Z</time>
      </trkpt>
      <trkpt lat="48.31336" lon="-1.69386">
        <ele>65.4</ele>
        <time>2019-07-16T10:05:31Z</time>
      </trkpt>
      <trkpt lat="48.31335" lon="-1.69381">
        <ele>65.1</ele>
        <time>2019-07-16T10:05:32Z</time>
      </trkpt>
      <trkpt lat="48.31333" lon="-1.69376">
        <ele>64.8</ele>
        <time>2019-07-16T10:05:33Z</time>
      </trkpt>
      <trkpt lat="48.31331" lon="-1.6937">
        <ele>64.5</ele>
        <time>2019-07-16T10:05:34Z</time>
      </trkpt>
      <trkpt lat="48.31329" lon="-1.69365">
        <ele>64.3</ele>
        <time>2019-07-16T10:05:35Z</time>
      </trkpt>
      <trkpt lat="48.31326" lon="-1.69359">
        <ele>63.8</ele>
        <time>2019-07-16T10:05:36Z</time>
      </trkpt>
      <trkpt lat="48.31324" lon="-1.69354">
        <ele>63.5</ele>
        <time>2019-07-16T10:05:37Z</time>
      </trkpt>
      <trkpt lat="48.31322" lon="-1.69349">
        <ele>63.1</ele>
        <time>2019-07-16T10:05:38Z</time>
      </trkpt>
      <trkpt lat="48.3132" lon="-1.69343">
        <ele>62.3</ele>
        <time>2019-07-16T10:05:39Z</time>
      </trkpt>
      <trkpt lat="48.31319" lon="-1.69338">
        <ele>61.4</ele>
        <time>2019-07-16T10:05:40Z</time>
      </trkpt>
      <trkpt lat="48.31318" lon="-1.69333">
        <ele>60.8</ele>
        <time>2019-07-16T10:05:41Z</time>
      </trkpt>
      <trkpt lat="48.31316" lon="-1.69329">
        <ele>60.3</ele>
        <time>2019-07-16T10:05:42Z</time>
      </trkpt>
      <trkpt lat="48.31315" lon="-1.69324">
        <ele>59.9</ele>
        <time>2019-07-16T10:05:43Z</time>
      </trkpt>
      <trkpt lat="48.31313" lon="-1.6932">
        <ele>59</ele>
        <time>2019-07-16T10:05:44Z</time>
      </trkpt>
      <trkpt lat="48.31312" lon="-1.69315">
        <ele>58.3</ele>
        <time>2019-07-16T10:05:45Z</time>
      </trkpt>
      <trkpt lat="48.31311" lon="-1.69311">
        <ele>58</ele>
        <time>2019-07-16T10:05:46Z</time>
      </trkpt>
      <trkpt lat="48.3131" lon="-1.69306">
        <ele>58.1</ele>
        <time>2019-07-16T10:05:47Z</time>
      </trkpt>
      <trkpt lat="48.31308" lon="-1.69302">
        <ele>58.3</ele>
        <time>2019-07-16T10:05:48Z</time>
      </trkpt>
      <trkpt lat="48.31306" lon="-1.69298">
        <ele>59.3</ele>
        <time>2019-07-16T10:05:49Z</time>
      </trkpt>
      <trkpt lat="48.31304" lon="-1.69294">
        <ele>59.9</ele>
        <time>2019-07-16T10:05:50Z</time>
      </trkpt>
      <trkpt lat="48.31303" lon="-1.6929">
        <ele>61</ele>
        <time>2019-07-16T10:05:51Z</time>
      </trkpt>
      <trkpt lat="48.31302" lon="-1.69285">
        <ele>61.4</ele>
        <time>2019-07-16T10:05:52Z</time>
      </trkpt>
      <trkpt lat="48.313" lon="-1.69281">
        <ele>61.4</ele>
        <time>2019-07-16T10:05:53Z</time>
      </trkpt>
      <trkpt lat="48.31298" lon="-1.69276">
        <ele>61.8</ele>
        <time>2019-07-16T10:05:54Z</time>
      </trkpt>
      <trkpt lat="48.31297" lon="-1.69272">
        <ele>63.1</ele>
        <time>2019-07-16T10:05:55Z</time>
      </trkpt>
      <trkpt lat="48.31295" lon="-1.69268">
        <ele>64</ele>
        <time>2019-07-16T10:05:56Z</time>
      </trkpt>
      <trkpt lat="48.31294" lon="-1.69264">
        <ele>64.4</ele>
        <time>2019-07-16T10:05:57Z</time>
      </trkpt>
      <trkpt lat="48.31292" lon="-1.69261">
        <ele>64.6</ele>
        <time>2019-07-16T10:05:58Z</time>
      </trkpt>
      <trkpt lat="48.31291" lon="-1.69257">
        <ele>64.7</ele>
        <time>2019-07-16T10:05:59Z</time>
      </trkpt>
      <trkpt lat="48.3129" lon="-1.69252">
        <ele>64.9</ele>
        <time>2019-07-16T10:06:00Z</time>
      </trkpt>
      <trkpt lat="48.31288" lon="-1.69247">
        <ele>65</ele>
        <time>2019-07-16T10:06:01Z</time>
      </trkpt>
      <trkpt lat="48.31286" lon="-1.69242">
        <ele>64.9</ele>
        <time>2019-07-16T10:06:02Z</time>
      </trkpt>
      <trkpt lat="48.31284" lon="-1.69237">
        <ele>64.7</ele>
        <time>2019-07-16T10:06:03Z</time>
      </trkpt>
      <trkpt lat="48.31282" lon="-1.69234">
        <ele>65.2</ele>
        <time>2019-07-16T10:06:04Z</time>
      </trkpt>
      <trkpt lat="48.3128" lon="-1.6923">
        <ele>65.5</ele>
        <time>2019-07-16T10:06:05Z</time>
      </trkpt>
      <trkpt lat="48.31278" lon="-1.69226">
        <ele>65.5</ele>
        <time>2019-07-16T10:06:06Z</time>
      </trkpt>
      <trkpt lat="48.31276" lon="-1.69222">
        <ele>65.7</ele>
        <time>2019-07-16T10:06:07Z</time>
      </trkpt>
      <trkpt lat="48.31274" lon="-1.69218">
        <ele>66.1</ele>
        <time>2019-07-16T10:06:08Z</time>
      </trkpt>
      <trkpt lat="48.31272" lon="-1.69215">
        <ele>66.5</ele>
        <time>2019-07-16T10:06:09Z</time>
      </trkpt>
      <trkpt lat="48.3127" lon="-1.69211">
        <ele>66.9</ele>
        <time>2019-07-16T10:06:10Z</time>
      </trkpt>
      <trkpt lat="48.31268" lon="-1.69208">
        <ele>67.3</ele>
        <time>2019-07-16T10:06:11Z</time>
      </trkpt>
      <trkpt lat="48.31266" lon="-1.69204">
        <ele>67.7</ele>
        <time>2019-07-16T10:06:12Z</time>
      </trkpt>
      <trkpt lat="48.31263" lon="-1.692">
        <ele>68.2</ele>
        <time>2019-07-16T10:06:13Z</time>
      </trkpt>
      <trkpt lat="48.31262" lon="-1.69196">
        <ele>68.3</ele>
        <time>2019-07-16T10:06:14Z</time>
      </trkpt>
      <trkpt lat="48.3126" lon="-1.69193">
        <ele>68.7</ele>
        <time>2019-07-16T10:06:15Z</time>
      </trkpt>
      <trkpt lat="48.31258" lon="-1.69189">
        <ele>69.7</ele>
        <time>2019-07-16T10:06:16Z</time>
      </trkpt>
      <trkpt lat="48.31256" lon="-1.69186">
        <ele>70.7</ele>
        <time>2019-07-16T10:06:17Z</time>
      </trkpt>
      <trkpt lat="48.31253" lon="-1.69182">
        <ele>71.6</ele>
        <time>2019-07-16T10:06:18Z</time>
      </trkpt>
      <trkpt lat="48.31251" lon="-1.69178">
        <ele>71.7</ele>
        <time>2019-07-16T10:06:19Z</time>
      </trkpt>
      <trkpt lat="48.31248" lon="-1.69175">
        <ele>71.9</ele>
        <time>2019-07-16T10:06:20Z</time>
      </trkpt>
      <trkpt lat="48.31244" lon="-1.69172">
        <ele>71.8</ele>
        <time>2019-07-16T10:06:21Z</time>
      </trkpt>
      <trkpt lat="48.31241" lon="-1.69169">
        <ele>71.2</ele>
        <time>2019-07-16T10:06:22Z</time>
      </trkpt>
      <trkpt lat="48.31237" lon="-1.69167">
        <ele>70.1</ele>
        <time>2019-07-16T10:06:23Z</time>
      </trkpt>
      <trkpt lat="48.31234" lon="-1.69164">
        <ele>69.3</ele>
        <time>2019-07-16T10:06:24Z</time>
      </trkpt>
      <trkpt lat="48.3123" lon="-1.69162">
        <ele>68.4</ele>
        <time>2019-07-16T10:06:25Z</time>
      </trkpt>
      <trkpt lat="48.31226" lon="-1.6916">
        <ele>67.8</ele>
        <time>2019-07-16T10:06:26Z</time>
      </trkpt>
      <trkpt lat="48.31223" lon="-1.69158">
        <ele>67.5</ele>
        <time>2019-07-16T10:06:27Z</time>
      </trkpt>
      <trkpt lat="48.3122" lon="-1.69155">
        <ele>67.3</ele>
        <time>2019-07-16T10:06:28Z</time>
      </trkpt>
      <trkpt lat="48.31217" lon="-1.69152">
        <ele>67</ele>
        <time>2019-07-16T10:06:29Z</time>
      </trkpt>
      <trkpt lat="48.31214" lon="-1.69151">
        <ele>67</ele>
        <time>2019-07-16T10:06:30Z</time>
      </trkpt>
      <trkpt lat="48.31211" lon="-1.69149">
        <ele>66.7</ele>
        <time>2019-07-16T10:06:31Z</time>
      </trkpt>
      <trkpt lat="48.31208" lon="-1.69147">
        <ele>66.7</ele>
        <time>2019-07-16T10:06:32Z</time>
      </trkpt>
      <trkpt lat="48.31205" lon="-1.69145">
        <ele>66.5</ele>
        <time>2019-07-16T10:06:33Z</time>
      </trkpt>
      <trkpt lat="48.31201" lon="-1.69142">
        <ele>66.6</ele>
        <time>2019-07-16T10:06:34Z</time>
      </trkpt>
      <trkpt lat="48.31198" lon="-1.69141">
        <ele>67</ele>
        <time>2019-07-16T10:06:35Z</time>
      </trkpt>
      <trkpt lat="48.31194" lon="-1.69138">
        <ele>67</ele>
        <time>2019-07-16T10:06:36Z</time>
      </trkpt>
      <trkpt lat="48.3119" lon="-1.69136">
        <ele>66.5</ele>
        <time>2019-07-16T10:06:37Z</time>
      </trkpt>
      <trkpt lat="48.31186" lon="-1.69133">
        <ele>66.2</ele>
        <time>2019-07-16T10:06:38Z</time>
      </trkpt>
      <trkpt lat="48.31181" lon="-1.69131">
        <ele>65.9</ele>
        <time>2019-07-16T10:06:39Z</time>
      </trkpt>
      <trkpt lat="48.31178" lon="-1.69129">
        <ele>65.6</ele>
        <time>2019-07-16T10:06:40Z</time>
      </trkpt>
      <trkpt lat="48.31173" lon="-1.69126">
        <ele>65.2</ele>
        <time>2019-07-16T10:06:41Z</time>
      </trkpt>
      <trkpt lat="48.31169" lon="-1.69123">
        <ele>65</ele>
        <time>2019-07-16T10:06:42Z</time>
      </trkpt>
      <trkpt lat="48.31165" lon="-1.69122">
        <ele>64.8</ele>
        <time>2019-07-16T10:06:43Z</time>
      </trkpt>
      <trkpt lat="48.31161" lon="-1.6912">
        <ele>64.9</ele>
        <time>2019-07-16T10:06:44Z</time>
      </trkpt>
      <trkpt lat="48.31157" lon="-1.69119">
        <ele>64.8</ele>
        <time>2019-07-16T10:06:45Z</time>
      </trkpt>
      <trkpt lat="48.31152" lon="-1.69117">
        <ele>64.1</ele>
        <time>2019-07-16T10:06:46Z</time>
      </trkpt>
      <trkpt lat="48.31148" lon="-1.69116">
        <ele>63.6</ele>
        <time>2019-07-16T10:06:47Z</time>
      </trkpt>
      <trkpt lat="48.31144" lon="-1.69114">
        <ele>62.7</ele>
        <time>2019-07-16T10:06:48Z</time>
      </trkpt>
      <trkpt lat="48.3114" lon="-1.69113">
        <ele>62.4</ele>
        <time>2019-07-16T10:06:49Z</time>
      </trkpt>
      <trkpt lat="48.31136" lon="-1.69111">
        <ele>61.7</ele>
        <time>2019-07-16T10:06:50Z</time>
      </trkpt>
      <trkpt lat="48.31133" lon="-1.6911">
        <ele>61.1</ele>
        <time>2019-07-16T10:06:51Z</time>
      </trkpt>
      <trkpt lat="48.31129" lon="-1.69108">
        <ele>60.6</ele>
        <time>2019-07-16T10:06:52Z</time>
      </trkpt>
      <trkpt lat="48.31125" lon="-1.69107">
        <ele>60</ele>
        <time>2019-07-16T10:06:53Z</time>
      </trkpt>
      <trkpt lat="48.31121" lon="-1.69105">
        <ele>59.6</ele>
        <time>2019-07-16T10:06:54Z</time>
      </trkpt>
      <trkpt lat="48.31118" lon="-1.69104">
        <ele>59.3</ele>
        <time>2019-07-16T10:06:55Z</time>
      </trkpt>
      <trkpt lat="48.31114" lon="-1.69102">
        <ele>58.9</ele>
        <time>2019-07-16T10:06:56Z</time>
      </trkpt>
      <trkpt lat="48.3111" lon="-1.69101">
        <ele>58.8</ele>
        <time>2019-07-16T10:06:57Z</time>
      </trkpt>
      <trkpt lat="48.31107" lon="-1.691">
        <ele>58.1</ele>
        <time>2019-07-16T10:06:58Z</time>
      </trkpt>
      <trkpt lat="48.31104" lon="-1.69099">
        <ele>57.3</ele>
        <time>2019-07-16T10:06:59Z</time>
      </trkpt>
      <trkpt lat="48.311" lon="-1.69097">
        <ele>57.1</ele>
        <time>2019-07-16T10:07:00Z</time>
      </trkpt>
      <trkpt lat="48.31097" lon="-1.69096">
        <ele>56.6</ele>
        <time>2019-07-16T10:07:01Z</time>
      </trkpt>
      <trkpt lat="48.31094" lon="-1.69094">
        <ele>56.3</ele>
        <time>2019-07-16T10:07:02Z</time>
      </trkpt>
      <trkpt lat="48.3109" lon="-1.69093">
        <ele>56.1</ele>
        <time>2019-07-16T10:07:03Z</time>
      </trkpt>
      <trkpt lat="48.31087" lon="-1.69091">
        <ele>55.9</ele>
        <time>2019-07-16T10:07:04Z</time>
      </trkpt>
      <trkpt lat="48.31084" lon="-1.69091">
        <ele>55.9</ele>
        <time>2019-07-16T10:07:05Z</time>
      </trkpt>
      <trkpt lat="48.31081" lon="-1.6909">
        <ele>55.5</ele>
        <time>2019-07-16T10:07:06Z</time>
      </trkpt>
      <trkpt lat="48.31078" lon="-1.69089">
        <ele>55.4</ele>
        <time>2019-07-16T10:07:07Z</time>
      </trkpt>
      <trkpt lat="48.31075" lon="-1.69087">
        <ele>55.6</ele>
        <time>2019-07-16T10:07:08Z</time>
      </trkpt>
      <trkpt lat="48.31071" lon="-1.69085">
        <ele>55.6</ele>
        <time>2019-07-16T10:07:09Z</time>
      </trkpt>
      <trkpt lat="48.31067" lon="-1.69083">
        <ele>55.8</ele>
        <time>2019-07-16T10:07:10Z</time>
      </trkpt>
      <trkpt lat="48.31063" lon="-1.6908">
        <ele>56.1</ele>
        <time>2019-07-16T10:07:11Z</time>
      </trkpt>
      <trkpt lat="48.31059" lon="-1.69077">
        <ele>55.9</ele>
        <time>2019-07-16T10:07:12Z</time>
      </trkpt>
      <trkpt lat="48.31054" lon="-1.69075">
        <ele>55.7</ele>
        <time>2019-07-16T10:07:13Z</time>
      </trkpt>
      <trkpt lat="48.31051" lon="-1.69072">
        <ele>55.9</ele>
        <time>2019-07-16T10:07:14Z</time>
      </trkpt>
      <trkpt lat="48.31047" lon="-1.69069">
        <ele>55.9</ele>
        <time>2019-07-16T10:07:15Z</time>
      </trkpt>
      <trkpt lat="48.31043" lon="-1.69068">
        <ele>55.9</ele>
        <time>2019-07-16T10:07:16Z</time>
      </trkpt>
      <trkpt lat="48.3104" lon="-1.69066">
        <ele>55.9</ele>
        <time>2019-07-16T10:07:17Z</time>
      </trkpt>
      <trkpt lat="48.31036" lon="-1.69064">
        <ele>55.7</ele>
        <time>2019-07-16T10:07:18Z</time>
      </trkpt>
      <trkpt lat="48.31033" lon="-1.69062">
        <ele>55.7</ele>
        <time>2019-07-16T10:07:19Z</time>
      </trkpt>
      <trkpt lat="48.31029" lon="-1.6906">
        <ele>55.5</ele>
        <time>2019-07-16T10:07:20Z</time>
      </trkpt>
      <trkpt lat="48.31026" lon="-1.69059">
        <ele>55.5</ele>
        <time>2019-07-16T10:07:21Z</time>
      </trkpt>
      <trkpt lat="48.31023" lon="-1.69058">
        <ele>55.4</ele>
        <time>2019-07-16T10:07:22Z</time>
      </trkpt>
      <trkpt lat="48.3102" lon="-1.69057">
        <ele>55.5</ele>
        <time>2019-07-16T10:07:23Z</time>
      </trkpt>
      <trkpt lat="48.31016" lon="-1.69054">
        <ele>55.7</ele>
        <time>2019-07-16T10:07:24Z</time>
      </trkpt>
      <trkpt lat="48.31013" lon="-1.69051">
        <ele>55.7</ele>
        <time>2019-07-16T10:07:25Z</time>
      </trkpt>
      <trkpt lat="48.31009" lon="-1.69049">
        <ele>55.1</ele>
        <time>2019-07-16T10:07:26Z</time>
      </trkpt>
      <trkpt lat="48.31006" lon="-1.69046">
        <ele>54.3</ele>
        <time>2019-07-16T10:07:27Z</time>
      </trkpt>
      <trkpt lat="48.31002" lon="-1.69043">
        <ele>53.8</ele>
        <time>2019-07-16T10:07:28Z</time>
      </trkpt>
      <trkpt lat="48.30999" lon="-1.69039">
        <ele>53.4</ele>
        <time>2019-07-16T10:07:29Z</time>
      </trkpt>
      <trkpt lat="48.30995" lon="-1.69034">
        <ele>52.9</ele>
        <time>2019-07-16T10:07:30Z</time>
      </trkpt>
      <trkpt lat="48.30991" lon="-1.69029">
        <ele>52.3</ele>
        <time>2019-07-16T10:07:31Z</time>
      </trkpt>
      <trkpt lat="48.30988" lon="-1.69025">
        <ele>51.5</ele>
        <time>2019-07-16T10:07:32Z</time>
      </trkpt>
      <trkpt lat="48.30986" lon="-1.69021">
        <ele>51.2</ele>
        <time>2019-07-16T10:07:33Z</time>
      </trkpt>
      <trkpt lat="48.30984" lon="-1.69017">
        <ele>51.1</ele>
        <time>2019-07-16T10:07:34Z</time>
      </trkpt>
      <trkpt lat="48.30981" lon="-1.69014">
        <ele>50.9</ele>
        <time>2019-07-16T10:07:35Z</time>
      </trkpt>
      <trkpt lat="48.3098" lon="-1.6901">
        <ele>50.5</ele>
        <time>2019-07-16T10:07:36Z</time>
      </trkpt>
      <trkpt lat="48.30978" lon="-1.69006">
        <ele>50.5</ele>
        <time>2019-07-16T10:07:37Z</time>
      </trkpt>
      <trkpt lat="48.30977" lon="-1.69002">
        <ele>50.6</ele>
        <time>2019-07-16T10:07:38Z</time>
      </trkpt>
      <trkpt lat="48.30976" lon="-1.68997">
        <ele>50.6</ele>
        <time>2019-07-16T10:07:39Z</time>
      </trkpt>
      <trkpt lat="48.30974" lon="-1.68993">
        <ele>50.9</ele>
        <time>2019-07-16T10:07:40Z</time>
      </trkpt>
      <trkpt lat="48.30973" lon="-1.68988">
        <ele>51.7</ele>
        <time>2019-07-16T10:07:41Z</time>
      </trkpt>
      <trkpt lat="48.30973" lon="-1.68982">
        <ele>52</ele>
        <time>2019-07-16T10:07:42Z</time>
      </trkpt>
      <trkpt lat="48.30972" lon="-1.68977">
        <ele>51.7</ele>
        <time>2019-07-16T10:07:43Z</time>
      </trkpt>
      <trkpt lat="48.30971" lon="-1.68973">
        <ele>52</ele>
        <time>2019-07-16T10:07:44Z</time>
      </trkpt>
      <trkpt lat="48.3097" lon="-1.68967">
        <ele>52.7</ele>
        <time>2019-07-16T10:07:45Z</time>
      </trkpt>
      <trkpt lat="48.30969" lon="-1.68962">
        <ele>53.5</ele>
        <time>2019-07-16T10:07:46Z</time>
      </trkpt>
      <trkpt lat="48.30969" lon="-1.68957">
        <ele>54</ele>
        <time>2019-07-16T10:07:47Z</time>
      </trkpt>
      <trkpt lat="48.30968" lon="-1.68952">
        <ele>54.5</ele>
        <time>2019-07-16T10:07:48Z</time>
      </trkpt>
      <trkpt lat="48.30967" lon="-1.68948">
        <ele>54.7</ele>
        <time>2019-07-16T10:07:49Z</time>
      </trkpt>
      <trkpt lat="48.30967" lon="-1.68943">
        <ele>54.6</ele>
        <time>2019-07-16T10:07:50Z</time>
      </trkpt>
      <trkpt lat="48.30966" lon="-1.68937">
        <ele>54.6</ele>
        <time>2019-07-16T10:07:51Z</time>
      </trkpt>
      <trkpt lat="48.30966" lon="-1.68931">
        <ele>55</ele>
        <time>2019-07-16T10:07:52Z</time>
      </trkpt>
      <trkpt lat="48.30966" lon="-1.68924">
        <ele>54.7</ele>
        <time>2019-07-16T10:07:53Z</time>
      </trkpt>
      <trkpt lat="48.30967" lon="-1.68917">
        <ele>54.6</ele>
        <time>2019-07-16T10:07:54Z</time>
      </trkpt>
      <trkpt lat="48.30967" lon="-1.68911">
        <ele>54.4</ele>
        <time>2019-07-16T10:07:55Z</time>
      </trkpt>
      <trkpt lat="48.30968" lon="-1.68904">
        <ele>54.5</ele>
        <time>2019-07-16T10:07:56Z</time>
      </trkpt>
      <trkpt lat="48.30969" lon="-1.68898">
        <ele>54.8</ele>
        <time>2019-07-16T10:07:57Z</time>
      </trkpt>
      <trkpt lat="48.30969" lon="-1.68892">
        <ele>54.6</ele>
        <time>2019-07-16T10:07:58Z</time>
      </trkpt>
      <trkpt lat="48.30969" lon="-1.68886">
        <ele>55.1</ele>
        <time>2019-07-16T10:07:59Z</time>
      </trkpt>
      <trkpt lat="48.3097" lon="-1.6888">
        <ele>55.9</ele>
        <time>2019-07-16T10:08:00Z</time>
      </trkpt>
      <trkpt lat="48.30971" lon="-1.68874">
        <ele>56.6</ele>
        <time>2019-07-16T10:08:01Z</time>
      </trkpt>
      <trkpt lat="48.30972" lon="-1.68869">
        <ele>56.8</ele>
        <time>2019-07-16T10:08:02Z</time>
      </trkpt>
      <trkpt lat="48.30973" lon="-1.68864">
        <ele>57.4</ele>
        <time>2019-07-16T10:08:03Z</time>
      </trkpt>
      <trkpt lat="48.30974" lon="-1.68858">
        <ele>57.5</ele>
        <time>2019-07-16T10:08:04Z</time>
      </trkpt>
      <trkpt lat="48.30975" lon="-1.68853">
        <ele>57.3</ele>
        <time>2019-07-16T10:08:05Z</time>
      </trkpt>
      <trkpt lat="48.30977" lon="-1.68846">
        <ele>57.3</ele>
        <time>2019-07-16T10:08:06Z</time>
      </trkpt>
      <trkpt lat="48.30978" lon="-1.6884">
        <ele>57.4</ele>
        <time>2019-07-16T10:08:07Z</time>
      </trkpt>
      <trkpt lat="48.30978" lon="-1.68833">
        <ele>57.6</ele>
        <time>2019-07-16T10:08:08Z</time>
      </trkpt>
      <trkpt lat="48.30979" lon="-1.68826">
        <ele>57.8</ele>
        <time>2019-07-16T10:08:09Z</time>
      </trkpt>
      <trkpt lat="48.3098" lon="-1.68819">
        <ele>58.2</ele>
        <time>2019-07-16T10:08:10Z</time>
      </trkpt>
      <trkpt lat="48.30981" lon="-1.68813">
        <ele>58.6</ele>
        <time>2019-07-16T10:08:11Z</time>
      </trkpt>
      <trkpt lat="48.30983" lon="-1.68807">
        <ele>58.6</ele>
        <time>2019-07-16T10:08:12Z</time>
      </trkpt>
      <trkpt lat="48.30985" lon="-1.68802">
        <ele>58.3</ele>
        <time>2019-07-16T10:08:13Z</time>
      </trkpt>
      <trkpt lat="48.30986" lon="-1.68797">
        <ele>58.2</ele>
        <time>2019-07-16T10:08:14Z</time>
      </trkpt>
      <trkpt lat="48.30988" lon="-1.68793">
        <ele>58.3</ele>
        <time>2019-07-16T10:08:15Z</time>
      </trkpt>
      <trkpt lat="48.3099" lon="-1.68788">
        <ele>58.3</ele>
        <time>2019-07-16T10:08:16Z</time>
      </trkpt>
      <trkpt lat="48.30991" lon="-1.68783">
        <ele>58.1</ele>
        <time>2019-07-16T10:08:17Z</time>
      </trkpt>
      <trkpt lat="48.30992" lon="-1.68777">
        <ele>58.3</ele>
        <time>2019-07-16T10:08:18Z</time>
      </trkpt>
      <trkpt lat="48.30993" lon="-1.6877">
        <ele>58.3</ele>
        <time>2019-07-16T10:08:19Z</time>
      </trkpt>
      <trkpt lat="48.30994" lon="-1.68763">
        <ele>57.7</ele>
        <time>2019-07-16T10:08:20Z</time>
      </trkpt>
      <trkpt lat="48.30996" lon="-1.68756">
        <ele>56.9</ele>
        <time>2019-07-16T10:08:21Z</time>
      </trkpt>
      <trkpt lat="48.30997" lon="-1.6875">
        <ele>56.5</ele>
        <time>2019-07-16T10:08:22Z</time>
      </trkpt>
      <trkpt lat="48.30999" lon="-1.68743">
        <ele>55.8</ele>
        <time>2019-07-16T10:08:23Z</time>
      </trkpt>
      <trkpt lat="48.31001" lon="-1.68737">
        <ele>55.2</ele>
        <time>2019-07-16T10:08:24Z</time>
      </trkpt>
      <trkpt lat="48.31002" lon="-1.6873">
        <ele>54.3</ele>
        <time>2019-07-16T10:08:25Z</time>
      </trkpt>
      <trkpt lat="48.31004" lon="-1.68725">
        <ele>53.7</ele>
        <time>2019-07-16T10:08:26Z</time>
      </trkpt>
      <trkpt lat="48.31005" lon="-1.68721">
        <ele>53.6</ele>
        <time>2019-07-16T10:08:27Z</time>
      </trkpt>
      <trkpt lat="48.31006" lon="-1.68716">
        <ele>53.6</ele>
        <time>2019-07-16T10:08:28Z</time>
      </trkpt>
      <trkpt lat="48.31007" lon="-1.6871">
        <ele>53.3</ele>
        <time>2019-07-16T10:08:29Z</time>
      </trkpt>
      <trkpt lat="48.31007" lon="-1.68704">
        <ele>53</ele>
        <time>2019-07-16T10:08:30Z</time>
      </trkpt>
      <trkpt lat="48.31007" lon="-1.68698">
        <ele>53.6</ele>
        <time>2019-07-16T10:08:31Z</time>
      </trkpt>
      <trkpt lat="48.31007" lon="-1.68693">
        <ele>53.7</ele>
        <time>2019-07-16T10:08:32Z</time>
      </trkpt>
      <trkpt lat="48.31008" lon="-1.68687">
        <ele>53.8</ele>
        <time>2019-07-16T10:08:33Z</time>
      </trkpt>
      <trkpt lat="48.31008" lon="-1.68682">
        <ele>54.3</ele>
        <time>2019-07-16T10:08:34Z</time>
      </trkpt>
      <trkpt lat="48.31008" lon="-1.68676">
        <ele>54.5</ele>
        <time>2019-07-16T10:08:35Z</time>
      </trkpt>
      <trkpt lat="48.31007" lon="-1.6867">
        <ele>54.5</ele>
        <time>2019-07-16T10:08:36Z</time>
      </trkpt>
      <trkpt lat="48.31007" lon="-1.68664">
        <ele>54.6</ele>
        <time>2019-07-16T10:08:37Z</time>
      </trkpt>
      <trkpt lat="48.31007" lon="-1.68658">
        <ele>55</ele>
        <time>2019-07-16T10:08:38Z</time>
      </trkpt>
      <trkpt lat="48.31007" lon="-1.68653">
        <ele>55</ele>
        <time>2019-07-16T10:08:39Z</time>
      </trkpt>
      <trkpt lat="48.31006" lon="-1.68647">
        <ele>55.3</ele>
        <time>2019-07-16T10:08:40Z</time>
      </trkpt>
      <trkpt lat="48.31006" lon="-1.68641">
        <ele>55</ele>
        <time>2019-07-16T10:08:41Z</time>
      </trkpt>
      <trkpt lat="48.31005" lon="-1.68636">
        <ele>54.4</ele>
        <time>2019-07-16T10:08:42Z</time>
      </trkpt>
      <trkpt lat="48.31004" lon="-1.6863">
        <ele>54.7</ele>
        <time>2019-07-16T10:08:43Z</time>
      </trkpt>
      <trkpt lat="48.31002" lon="-1.68623">
        <ele>54.6</ele>
        <time>2019-07-16T10:08:44Z</time>
      </trkpt>
      <trkpt lat="48.31001" lon="-1.68617">
        <ele>55.3</ele>
        <time>2019-07-16T10:08:45Z</time>
      </trkpt>
      <trkpt lat="48.30999" lon="-1.68611">
        <ele>55.6</ele>
        <time>2019-07-16T10:08:46Z</time>
      </trkpt>
      <trkpt lat="48.30997" lon="-1.68605">
        <ele>56.2</ele>
        <time>2019-07-16T10:08:47Z</time>
      </trkpt>
      <trkpt lat="48.30995" lon="-1.686">
        <ele>56.1</ele>
        <time>2019-07-16T10:08:48Z</time>
      </trkpt>
      <trkpt lat="48.30993" lon="-1.68595">
        <ele>56.3</ele>
        <time>2019-07-16T10:08:49Z</time>
      </trkpt>
      <trkpt lat="48.30991" lon="-1.68589">
        <ele>56.4</ele>
        <time>2019-07-16T10:08:50Z</time>
      </trkpt>
      <trkpt lat="48.30989" lon="-1.68584">
        <ele>56.6</ele>
        <time>2019-07-16T10:08:51Z</time>
      </trkpt>
      <trkpt lat="48.30986" lon="-1.68579">
        <ele>56.3</ele>
        <time>2019-07-16T10:08:52Z</time>
      </trkpt>
      <trkpt lat="48.30984" lon="-1.68575">
        <ele>56</ele>
        <time>2019-07-16T10:08:53Z</time>
      </trkpt>
      <trkpt lat="48.30981" lon="-1.6857">
        <ele>55.8</ele>
        <time>2019-07-16T10:08:54Z</time>
      </trkpt>
      <trkpt lat="48.30979" lon="-1.68566">
        <ele>55.5</ele>
        <time>2019-07-16T10:08:55Z</time>
      </trkpt>
      <trkpt lat="48.30977" lon="-1.68561">
        <ele>55.6</ele>
        <time>2019-07-16T10:08:56Z</time>
      </trkpt>
      <trkpt lat="48.30974" lon="-1.68557">
        <ele>55.6</ele>
        <time>2019-07-16T10:08:57Z</time>
      </trkpt>
      <trkpt lat="48.30971" lon="-1.68553">
        <ele>55.4</ele>
        <time>2019-07-16T10:08:58Z</time>
      </trkpt>
      <trkpt lat="48.30968" lon="-1.68549">
        <ele>55.5</ele>
        <time>2019-07-16T10:08:59Z</time>
      </trkpt>
      <trkpt lat="48.30966" lon="-1.68546">
        <ele>55.3</ele>
        <time>2019-07-16T10:09:00Z</time>
      </trkpt>
      <trkpt lat="48.30963" lon="-1.68543">
        <ele>55.3</ele>
        <time>2019-07-16T10:09:01Z</time>
      </trkpt>
      <trkpt lat="48.3096" lon="-1.68539">
        <ele>55.2</ele>
        <time>2019-07-16T10:09:02Z</time>
      </trkpt>
      <trkpt lat="48.30956" lon="-1.68536">
        <ele>55.5</ele>
        <time>2019-07-16T10:09:03Z</time>
      </trkpt>
      <trkpt lat="48.30953" lon="-1.68533">
        <ele>56</ele>
        <time>2019-07-16T10:09:04Z</time>
      </trkpt>
      <trkpt lat="48.30949" lon="-1.6853">
        <ele>56.1</ele>
        <time>2019-07-16T10:09:05Z</time>
      </trkpt>
      <trkpt lat="48.30946" lon="-1.68527">
        <ele>56.4</ele>
        <time>2019-07-16T10:09:06Z</time>
      </trkpt>
      <trkpt lat="48.30942" lon="-1.68525">
        <ele>56.4</ele>
        <time>2019-07-16T10:09:07Z</time>
      </trkpt>
      <trkpt lat="48.30938" lon="-1.68523">
        <ele>56.6</ele>
        <time>2019-07-16T10:09:08Z</time>
      </trkpt>
      <trkpt lat="48.30935" lon="-1.68521">
        <ele>56.7</ele>
        <time>2019-07-16T10:09:09Z</time>
      </trkpt>
      <trkpt lat="48.30931" lon="-1.68519">
        <ele>56.8</ele>
        <time>2019-07-16T10:09:10Z</time>
      </trkpt>
      <trkpt lat="48.30927" lon="-1.68518">
        <ele>56.7</ele>
        <time>2019-07-16T10:09:11Z</time>
      </trkpt>
      <trkpt lat="48.30924" lon="-1.68516">
        <ele>56.3</ele>
        <time>2019-07-16T10:09:12Z</time>
      </trkpt>
      <trkpt lat="48.3092" lon="-1.68515">
        <ele>56</ele>
        <time>2019-07-16T10:09:13Z</time>
      </trkpt>
      <trkpt lat="48.30917" lon="-1.68515">
        <ele>56.1</ele>
        <time>2019-07-16T10:09:14Z</time>
      </trkpt>
      <trkpt lat="48.30912" lon="-1.68513">
        <ele>56.6</ele>
        <time>2019-07-16T10:09:15Z</time>
      </trkpt>
      <trkpt lat="48.30907" lon="-1.68512">
        <ele>57.3</ele>
        <time>2019-07-16T10:09:16Z</time>
      </trkpt>
      <trkpt lat="48.30902" lon="-1.6851">
        <ele>57.9</ele>
        <time>2019-07-16T10:09:17Z</time>
      </trkpt>
      <trkpt lat="48.30898" lon="-1.68509">
        <ele>58.3</ele>
        <time>2019-07-16T10:09:18Z</time>
      </trkpt>
      <trkpt lat="48.30893" lon="-1.68509">
        <ele>58.3</ele>
        <time>2019-07-16T10:09:19Z</time>
      </trkpt>
      <trkpt lat="48.30888" lon="-1.68508">
        <ele>58.9</ele>
        <time>2019-07-16T10:09:20Z</time>
      </trkpt>
      <trkpt lat="48.30884" lon="-1.68508">
        <ele>59.5</ele>
        <time>2019-07-16T10:09:21Z</time>
      </trkpt>
      <trkpt lat="48.3088" lon="-1.68507">
        <ele>60</ele>
        <time>2019-07-16T10:09:22Z</time>
      </trkpt>
      <trkpt lat="48.30875" lon="-1.68508">
        <ele>59.5</ele>
        <time>2019-07-16T10:09:23Z</time>
      </trkpt>
      <trkpt lat="48.30872" lon="-1.68509">
        <ele>59.1</ele>
        <time>2019-07-16T10:09:24Z</time>
      </trkpt>
      <trkpt lat="48.30868" lon="-1.6851">
        <ele>59.1</ele>
        <time>2019-07-16T10:09:25Z</time>
      </trkpt>
      <trkpt lat="48.30864" lon="-1.6851">
        <ele>59.1</ele>
        <time>2019-07-16T10:09:26Z</time>
      </trkpt>
      <trkpt lat="48.30861" lon="-1.68511">
        <ele>59.5</ele>
        <time>2019-07-16T10:09:27Z</time>
      </trkpt>
      <trkpt lat="48.30857" lon="-1.68511">
        <ele>59.7</ele>
        <time>2019-07-16T10:09:28Z</time>
      </trkpt>
      <trkpt lat="48.30853" lon="-1.68511">
        <ele>59.9</ele>
        <time>2019-07-16T10:09:29Z</time>
      </trkpt>
      <trkpt lat="48.30848" lon="-1.68511">
        <ele>60.5</ele>
        <time>2019-07-16T10:09:30Z</time>
      </trkpt>
      <trkpt lat="48.30845" lon="-1.68511">
        <ele>61.1</ele>
        <time>2019-07-16T10:09:31Z</time>
      </trkpt>
      <trkpt lat="48.30841" lon="-1.6851">
        <ele>62.9</ele>
        <time>2019-07-16T10:09:32Z</time>
      </trkpt>
      <trkpt lat="48.30838" lon="-1.68509">
        <ele>63.6</ele>
        <time>2019-07-16T10:09:33Z</time>
      </trkpt>
      <trkpt lat="48.30834" lon="-1.68509">
        <ele>64.6</ele>
        <time>2019-07-16T10:09:34Z</time>
      </trkpt>
      <trkpt lat="48.30831" lon="-1.68508">
        <ele>65.2</ele>
        <time>2019-07-16T10:09:35Z</time>
      </trkpt>
      <trkpt lat="48.30827" lon="-1.68509">
        <ele>65.6</ele>
        <time>2019-07-16T10:09:36Z</time>
      </trkpt>
      <trkpt lat="48.30822" lon="-1.6851">
        <ele>65.7</ele>
        <time>2019-07-16T10:09:37Z</time>
      </trkpt>
      <trkpt lat="48.30818" lon="-1.68511">
        <ele>65.7</ele>
        <time>2019-07-16T10:09:38Z</time>
      </trkpt>
      <trkpt lat="48.30814" lon="-1.68511">
        <ele>65.9</ele>
        <time>2019-07-16T10:09:39Z</time>
      </trkpt>
      <trkpt lat="48.30809" lon="-1.68512">
        <ele>65.7</ele>
        <time>2019-07-16T10:09:40Z</time>
      </trkpt>
      <trkpt lat="48.30806" lon="-1.68512">
        <ele>65.6</ele>
        <time>2019-07-16T10:09:41Z</time>
      </trkpt>
      <trkpt lat="48.30802" lon="-1.68514">
        <ele>66</ele>
        <time>2019-07-16T10:09:42Z</time>
      </trkpt>
      <trkpt lat="48.30797" lon="-1.68516">
        <ele>66.4</ele>
        <time>2019-07-16T10:09:43Z</time>
      </trkpt>
      <trkpt lat="48.30793" lon="-1.68517">
        <ele>66.2</ele>
        <time>2019-07-16T10:09:44Z</time>
      </trkpt>
      <trkpt lat="48.30789" lon="-1.68519">
        <ele>66.1</ele>
        <time>2019-07-16T10:09:45Z</time>
      </trkpt>
      <trkpt lat="48.30785" lon="-1.6852">
        <ele>66</ele>
        <time>2019-07-16T10:09:46Z</time>
      </trkpt>
      <trkpt lat="48.3078" lon="-1.68521">
        <ele>66.3</ele>
        <time>2019-07-16T10:09:47Z</time>
      </trkpt>
      <trkpt lat="48.30776" lon="-1.68522">
        <ele>66.4</ele>
        <time>2019-07-16T10:09:48Z</time>
      </trkpt>
      <trkpt lat="48.30772" lon="-1.68523">
        <ele>66.4</ele>
        <time>2019-07-16T10:09:49Z</time>
      </trkpt>
      <trkpt lat="48.30767" lon="-1.68523">
        <ele>67.3</ele>
        <time>2019-07-16T10:09:50Z</time>
      </trkpt>
      <trkpt lat="48.30763" lon="-1.68522">
        <ele>68</ele>
        <time>2019-07-16T10:09:51Z</time>
      </trkpt>
      <trkpt lat="48.30759" lon="-1.68523">
        <ele>68.4</ele>
        <time>2019-07-16T10:09:52Z</time>
      </trkpt>
      <trkpt lat="48.30755" lon="-1.68523">
        <ele>68</ele>
        <time>2019-07-16T10:09:53Z</time>
      </trkpt>
      <trkpt lat="48.30751" lon="-1.68524">
        <ele>68</ele>
        <time>2019-07-16T10:09:54Z</time>
      </trkpt>
      <trkpt lat="48.30747" lon="-1.68524">
        <ele>67.9</ele>
        <time>2019-07-16T10:09:55Z</time>
      </trkpt>
      <trkpt lat="48.30743" lon="-1.68525">
        <ele>67.9</ele>
        <time>2019-07-16T10:09:56Z</time>
      </trkpt>
      <trkpt lat="48.30739" lon="-1.68525">
        <ele>67.9</ele>
        <time>2019-07-16T10:09:57Z</time>
      </trkpt>
      <trkpt lat="48.30735" lon="-1.68526">
        <ele>68</ele>
        <time>2019-07-16T10:09:58Z</time>
      </trkpt>
      <trkpt lat="48.3073" lon="-1.68527">
        <ele>67.3</ele>
        <time>2019-07-16T10:09:59Z</time>
      </trkpt>
      <trkpt lat="48.30726" lon="-1.68527">
        <ele>66.3</ele>
        <time>2019-07-16T10:10:00Z</time>
      </trkpt>
      <trkpt lat="48.30721" lon="-1.68527">
        <ele>65.9</ele>
        <time>2019-07-16T10:10:01Z</time>
      </trkpt>
      <trkpt lat="48.30717" lon="-1.68528">
        <ele>65.4</ele>
        <time>2019-07-16T10:10:02Z</time>
      </trkpt>
      <trkpt lat="48.30713" lon="-1.68529">
        <ele>64.6</ele>
        <time>2019-07-16T10:10:03Z</time>
      </trkpt>
      <trkpt lat="48.30709" lon="-1.6853">
        <ele>64.2</ele>
        <time>2019-07-16T10:10:04Z</time>
      </trkpt>
      <trkpt lat="48.30705" lon="-1.68531">
        <ele>63.5</ele>
        <time>2019-07-16T10:10:05Z</time>
      </trkpt>
      <trkpt lat="48.30701" lon="-1.68531">
        <ele>62.9</ele>
        <time>2019-07-16T10:10:06Z</time>
      </trkpt>
      <trkpt lat="48.30699" lon="-1.68531">
        <ele>62</ele>
        <time>2019-07-16T10:10:07Z</time>
      </trkpt>
      <trkpt lat="48.30697" lon="-1.68532">
        <ele>61.3</ele>
        <time>2019-07-16T10:10:08Z</time>
      </trkpt>
      <trkpt lat="48.30698" lon="-1.68528">
        <ele>60.9</ele>
        <time>2019-07-16T10:10:32Z</time>
      </trkpt>
      <trkpt lat="48.30699" lon="-1.68525">
        <ele>60.9</ele>
        <time>2019-07-16T10:10:33Z</time>
      </trkpt>
      <trkpt lat="48.307" lon="-1.68523">
        <ele>60.8</ele>
        <time>2019-07-16T10:10:34Z</time>
      </trkpt>
      <trkpt lat="48.30701" lon="-1.68519">
        <ele>60.6</ele>
        <time>2019-07-16T10:10:35Z</time>
      </trkpt>
      <trkpt lat="48.30701" lon="-1.68514">
        <ele>60.4</ele>
        <time>2019-07-16T10:10:36Z</time>
      </trkpt>
      <trkpt lat="48.30701" lon="-1.68509">
        <ele>60.1</ele>
        <time>2019-07-16T10:10:37Z</time>
      </trkpt>
      <trkpt lat="48.30702" lon="-1.68504">
        <ele>59.6</ele>
        <time>2019-07-16T10:10:38Z</time>
      </trkpt>
      <trkpt lat="48.30702" lon="-1.68498">
        <ele>59.4</ele>
        <time>2019-07-16T10:10:39Z</time>
      </trkpt>
      <trkpt lat="48.30702" lon="-1.68491">
        <ele>59</ele>
        <time>2019-07-16T10:10:40Z</time>
      </trkpt>
      <trkpt lat="48.30702" lon="-1.68485">
        <ele>58.7</ele>
        <time>2019-07-16T10:10:41Z</time>
      </trkpt>
      <trkpt lat="48.30701" lon="-1.68477">
        <ele>58.3</ele>
        <time>2019-07-16T10:10:42Z</time>
      </trkpt>
      <trkpt lat="48.30701" lon="-1.68471">
        <ele>57.6</ele>
        <time>2019-07-16T10:10:43Z</time>
      </trkpt>
      <trkpt lat="48.30701" lon="-1.68463">
        <ele>56.8</ele>
        <time>2019-07-16T10:10:44Z</time>
      </trkpt>
      <trkpt lat="48.30701" lon="-1.68456">
        <ele>55.9</ele>
        <time>2019-07-16T10:10:45Z</time>
      </trkpt>
      <trkpt lat="48.30701" lon="-1.68449">
        <ele>55.3</ele>
        <time>2019-07-16T10:10:46Z</time>
      </trkpt>
      <trkpt lat="48.307" lon="-1.68441">
        <ele>54.1</ele>
        <time>2019-07-16T10:10:47Z</time>
      </trkpt>
      <trkpt lat="48.30699" lon="-1.68434">
        <ele>53.6</ele>
        <time>2019-07-16T10:10:48Z</time>
      </trkpt>
      <trkpt lat="48.30699" lon="-1.68427">
        <ele>53.5</ele>
        <time>2019-07-16T10:10:49Z</time>
      </trkpt>
      <trkpt lat="48.30698" lon="-1.68421">
        <ele>53.9</ele>
        <time>2019-07-16T10:10:50Z</time>
      </trkpt>
      <trkpt lat="48.30698" lon="-1.68414">
        <ele>54.5</ele>
        <time>2019-07-16T10:10:51Z</time>
      </trkpt>
      <trkpt lat="48.30698" lon="-1.68408">
        <ele>54.5</ele>
        <time>2019-07-16T10:10:52Z</time>
      </trkpt>
      <trkpt lat="48.30697" lon="-1.68403">
        <ele>54.7</ele>
        <time>2019-07-16T10:10:53Z</time>
      </trkpt>
      <trkpt lat="48.30697" lon="-1.68398">
        <ele>54.9</ele>
        <time>2019-07-16T10:10:54Z</time>
      </trkpt>
      <trkpt lat="48.30697" lon="-1.68393">
        <ele>54.7</ele>
        <time>2019-07-16T10:10:55Z</time>
      </trkpt>
      <trkpt lat="48.30696" lon="-1.68388">
        <ele>54.9</ele>
        <time>2019-07-16T10:10:56Z</time>
      </trkpt>
      <trkpt lat="48.30696" lon="-1.68384">
        <ele>55</ele>
        <time>2019-07-16T10:10:57Z</time>
      </trkpt>
      <trkpt lat="48.30696" lon="-1.68379">
        <ele>55.2</ele>
        <time>2019-07-16T10:10:58Z</time>
      </trkpt>
      <trkpt lat="48.30695" lon="-1.68375">
        <ele>54.8</ele>
        <time>2019-07-16T10:10:59Z</time>
      </trkpt>
      <trkpt lat="48.30695" lon="-1.68371">
        <ele>54.9</ele>
        <time>2019-07-16T10:11:00Z</time>
      </trkpt>
      <trkpt lat="48.30695" lon="-1.68368">
        <ele>55</ele>
        <time>2019-07-16T10:11:01Z</time>
      </trkpt>
      <trkpt lat="48.30695" lon="-1.68363">
        <ele>55.3</ele>
        <time>2019-07-16T10:11:02Z</time>
      </trkpt>
      <trkpt lat="48.30694" lon="-1.68359">
        <ele>55.9</ele>
        <time>2019-07-16T10:11:03Z</time>
      </trkpt>
      <trkpt lat="48.30693" lon="-1.68356">
        <ele>56.1</ele>
        <time>2019-07-16T10:11:04Z</time>
      </trkpt>
      <trkpt lat="48.30693" lon="-1.68352">
        <ele>56.1</ele>
        <time>2019-07-16T10:11:05Z</time>
      </trkpt>
      <trkpt lat="48.30693" lon="-1.68348">
        <ele>56</ele>
        <time>2019-07-16T10:11:06Z</time>
      </trkpt>
      <trkpt lat="48.30692" lon="-1.68344">
        <ele>55.8</ele>
        <time>2019-07-16T10:11:07Z</time>
      </trkpt>
      <trkpt lat="48.30692" lon="-1.68341">
        <ele>55.6</ele>
        <time>2019-07-16T10:11:08Z</time>
      </trkpt>
      <trkpt lat="48.30691" lon="-1.68337">
        <ele>55.6</ele>
        <time>2019-07-16T10:11:09Z</time>
      </trkpt>
      <trkpt lat="48.3069" lon="-1.68333">
        <ele>55.7</ele>
        <time>2019-07-16T10:11:10Z</time>
      </trkpt>
      <trkpt lat="48.3069" lon="-1.6833">
        <ele>55.1</ele>
        <time>2019-07-16T10:11:11Z</time>
      </trkpt>
      <trkpt lat="48.30689" lon="-1.68326">
        <ele>55.1</ele>
        <time>2019-07-16T10:11:12Z</time>
      </trkpt>
      <trkpt lat="48.30689" lon="-1.68323">
        <ele>55.1</ele>
        <time>2019-07-16T10:11:13Z</time>
      </trkpt>
      <trkpt lat="48.30687" lon="-1.68319">
        <ele>54.8</ele>
        <time>2019-07-16T10:11:14Z</time>
      </trkpt>
      <trkpt lat="48.30687" lon="-1.68316">
        <ele>54.7</ele>
        <time>2019-07-16T10:11:15Z</time>
      </trkpt>
      <trkpt lat="48.30686" lon="-1.68312">
        <ele>54.9</ele>
        <time>2019-07-16T10:11:16Z</time>
      </trkpt>
      <trkpt lat="48.30686" lon="-1.68309">
        <ele>55</ele>
        <time>2019-07-16T10:11:17Z</time>
      </trkpt>
      <trkpt lat="48.30685" lon="-1.68305">
        <ele>55</ele>
        <time>2019-07-16T10:11:18Z</time>
      </trkpt>
      <trkpt lat="48.30684" lon="-1.68302">
        <ele>54.7</ele>
        <time>2019-07-16T10:11:19Z</time>
      </trkpt>
      <trkpt lat="48.30684" lon="-1.68298">
        <ele>54.5</ele>
        <time>2019-07-16T10:11:20Z</time>
      </trkpt>
      <trkpt lat="48.30683" lon="-1.68295">
        <ele>54.9</ele>
        <time>2019-07-16T10:11:21Z</time>
      </trkpt>
      <trkpt lat="48.30683" lon="-1.68291">
        <ele>55.1</ele>
        <time>2019-07-16T10:11:22Z</time>
      </trkpt>
      <trkpt lat="48.30683" lon="-1.68288">
        <ele>55.3</ele>
        <time>2019-07-16T10:11:23Z</time>
      </trkpt>
      <trkpt lat="48.30682" lon="-1.68285">
        <ele>55.7</ele>
        <time>2019-07-16T10:11:24Z</time>
      </trkpt>
      <trkpt lat="48.30682" lon="-1.68282">
        <ele>55.6</ele>
        <time>2019-07-16T10:11:25Z</time>
      </trkpt>
      <trkpt lat="48.30682" lon="-1.68278">
        <ele>55.6</ele>
        <time>2019-07-16T10:11:26Z</time>
      </trkpt>
      <trkpt lat="48.30682" lon="-1.68275">
        <ele>55.8</ele>
        <time>2019-07-16T10:11:27Z</time>
      </trkpt>
      <trkpt lat="48.30682" lon="-1.68272">
        <ele>56</ele>
        <time>2019-07-16T10:11:28Z</time>
      </trkpt>
      <trkpt lat="48.30681" lon="-1.68268">
        <ele>56</ele>
        <time>2019-07-16T10:11:29Z</time>
      </trkpt>
      <trkpt lat="48.30681" lon="-1.68265">
        <ele>56</ele>
        <time>2019-07-16T10:11:30Z</time>
      </trkpt>
      <trkpt lat="48.3068" lon="-1.68262">
        <ele>56.1</ele>
        <time>2019-07-16T10:11:31Z</time>
      </trkpt>
      <trkpt lat="48.30679" lon="-1.68259">
        <ele>56.3</ele>
        <time>2019-07-16T10:11:32Z</time>
      </trkpt>
      <trkpt lat="48.30679" lon="-1.68256">
        <ele>56.7</ele>
        <time>2019-07-16T10:11:33Z</time>
      </trkpt>
      <trkpt lat="48.30679" lon="-1.68253">
        <ele>56.7</ele>
        <time>2019-07-16T10:11:34Z</time>
      </trkpt>
      <trkpt lat="48.30679" lon="-1.68249">
        <ele>56.9</ele>
        <time>2019-07-16T10:11:35Z</time>
      </trkpt>
      <trkpt lat="48.30678" lon="-1.68246">
        <ele>57.2</ele>
        <time>2019-07-16T10:11:36Z</time>
      </trkpt>
      <trkpt lat="48.30678" lon="-1.68243">
        <ele>57.9</ele>
        <time>2019-07-16T10:11:37Z</time>
      </trkpt>
      <trkpt lat="48.30678" lon="-1.6824">
        <ele>58.2</ele>
        <time>2019-07-16T10:11:38Z</time>
      </trkpt>
      <trkpt lat="48.30678" lon="-1.68237">
        <ele>58.6</ele>
        <time>2019-07-16T10:11:39Z</time>
      </trkpt>
      <trkpt lat="48.30677" lon="-1.68234">
        <ele>58.9</ele>
        <time>2019-07-16T10:11:40Z</time>
      </trkpt>
      <trkpt lat="48.30677" lon="-1.68231">
        <ele>59.2</ele>
        <time>2019-07-16T10:11:41Z</time>
      </trkpt>
      <trkpt lat="48.30676" lon="-1.68228">
        <ele>59.3</ele>
        <time>2019-07-16T10:11:42Z</time>
      </trkpt>
      <trkpt lat="48.30676" lon="-1.68225">
        <ele>59.5</ele>
        <time>2019-07-16T10:11:43Z</time>
      </trkpt>
      <trkpt lat="48.30675" lon="-1.68222">
        <ele>59.8</ele>
        <time>2019-07-16T10:11:44Z</time>
      </trkpt>
      <trkpt lat="48.30674" lon="-1.68218">
        <ele>60.1</ele>
        <time>2019-07-16T10:11:45Z</time>
      </trkpt>
      <trkpt lat="48.30673" lon="-1.68215">
        <ele>60.1</ele>
        <time>2019-07-16T10:11:46Z</time>
      </trkpt>
      <trkpt lat="48.30673" lon="-1.68213">
        <ele>59.9</ele>
        <time>2019-07-16T10:11:47Z</time>
      </trkpt>
      <trkpt lat="48.30672" lon="-1.6821">
        <ele>60.1</ele>
        <time>2019-07-16T10:11:48Z</time>
      </trkpt>
      <trkpt lat="48.30671" lon="-1.68207">
        <ele>60.5</ele>
        <time>2019-07-16T10:11:49Z</time>
      </trkpt>
      <trkpt lat="48.30671" lon="-1.68204">
        <ele>60.7</ele>
        <time>2019-07-16T10:11:50Z</time>
      </trkpt>
      <trkpt lat="48.3067" lon="-1.68201">
        <ele>61.2</ele>
        <time>2019-07-16T10:11:51Z</time>
      </trkpt>
      <trkpt lat="48.30669" lon="-1.68197">
        <ele>61.5</ele>
        <time>2019-07-16T10:11:52Z</time>
      </trkpt>
      <trkpt lat="48.30668" lon="-1.68194">
        <ele>61.8</ele>
        <time>2019-07-16T10:11:53Z</time>
      </trkpt>
      <trkpt lat="48.30667" lon="-1.68191">
        <ele>61.9</ele>
        <time>2019-07-16T10:11:54Z</time>
      </trkpt>
      <trkpt lat="48.30666" lon="-1.68188">
        <ele>61.8</ele>
        <time>2019-07-16T10:11:55Z</time>
      </trkpt>
      <trkpt lat="48.30664" lon="-1.68185">
        <ele>61.9</ele>
        <time>2019-07-16T10:11:56Z</time>
      </trkpt>
      <trkpt lat="48.30663" lon="-1.68182">
        <ele>61.9</ele>
        <time>2019-07-16T10:11:57Z</time>
      </trkpt>
      <trkpt lat="48.30663" lon="-1.68179">
        <ele>62.4</ele>
        <time>2019-07-16T10:11:58Z</time>
      </trkpt>
      <trkpt lat="48.30661" lon="-1.68176">
        <ele>62.5</ele>
        <time>2019-07-16T10:11:59Z</time>
      </trkpt>
      <trkpt lat="48.30661" lon="-1.68172">
        <ele>62.5</ele>
        <time>2019-07-16T10:12:00Z</time>
      </trkpt>
      <trkpt lat="48.3066" lon="-1.68169">
        <ele>62.6</ele>
        <time>2019-07-16T10:12:01Z</time>
      </trkpt>
      <trkpt lat="48.30659" lon="-1.68166">
        <ele>62.3</ele>
        <time>2019-07-16T10:12:02Z</time>
      </trkpt>
      <trkpt lat="48.30658" lon="-1.68164">
        <ele>62.1</ele>
        <time>2019-07-16T10:12:03Z</time>
      </trkpt>
      <trkpt lat="48.30658" lon="-1.68161">
        <ele>62.2</ele>
        <time>2019-07-16T10:12:04Z</time>
      </trkpt>
      <trkpt lat="48.30657" lon="-1.68158">
        <ele>62.2</ele>
        <time>2019-07-16T10:12:05Z</time>
      </trkpt>
      <trkpt lat="48.30657" lon="-1.68155">
        <ele>62.3</ele>
        <time>2019-07-16T10:12:06Z</time>
      </trkpt>
      <trkpt lat="48.30656" lon="-1.68152">
        <ele>62.5</ele>
        <time>2019-07-16T10:12:07Z</time>
      </trkpt>
      <trkpt lat="48.30655" lon="-1.68149">
        <ele>62.6</ele>
        <time>2019-07-16T10:12:08Z</time>
      </trkpt>
      <trkpt lat="48.30655" lon="-1.68146">
        <ele>62.7</ele>
        <time>2019-07-16T10:12:09Z</time>
      </trkpt>
      <trkpt lat="48.30654" lon="-1.68143">
        <ele>62.8</ele>
        <time>2019-07-16T10:12:10Z</time>
      </trkpt>
      <trkpt lat="48.30653" lon="-1.6814">
        <ele>62.8</ele>
        <time>2019-07-16T10:12:11Z</time>
      </trkpt>
      <trkpt lat="48.30653" lon="-1.68137">
        <ele>63.2</ele>
        <time>2019-07-16T10:12:12Z</time>
      </trkpt>
      <trkpt lat="48.30652" lon="-1.68134">
        <ele>63</ele>
        <time>2019-07-16T10:12:13Z</time>
      </trkpt>
      <trkpt lat="48.30651" lon="-1.68131">
        <ele>62.9</ele>
        <time>2019-07-16T10:12:14Z</time>
      </trkpt>
      <trkpt lat="48.3065" lon="-1.68128">
        <ele>62.8</ele>
        <time>2019-07-16T10:12:15Z</time>
      </trkpt>
      <trkpt lat="48.3065" lon="-1.68125">
        <ele>62.9</ele>
        <time>2019-07-16T10:12:16Z</time>
      </trkpt>
      <trkpt lat="48.30649" lon="-1.68122">
        <ele>62.7</ele>
        <time>2019-07-16T10:12:17Z</time>
      </trkpt>
      <trkpt lat="48.30648" lon="-1.68119">
        <ele>62.7</ele>
        <time>2019-07-16T10:12:18Z</time>
      </trkpt>
      <trkpt lat="48.30649" lon="-1.68117">
        <ele>63.3</ele>
        <time>2019-07-16T10:12:19Z</time>
      </trkpt>
      <trkpt lat="48.30649" lon="-1.68113">
        <ele>63.3</ele>
        <time>2019-07-16T10:12:20Z</time>
      </trkpt>
      <trkpt lat="48.30649" lon="-1.6811">
        <ele>63.7</ele>
        <time>2019-07-16T10:12:21Z</time>
      </trkpt>
      <trkpt lat="48.30648" lon="-1.68106">
        <ele>63.6</ele>
        <time>2019-07-16T10:12:22Z</time>
      </trkpt>
      <trkpt lat="48.30648" lon="-1.68103">
        <ele>64</ele>
        <time>2019-07-16T10:12:23Z</time>
      </trkpt>
      <trkpt lat="48.30648" lon="-1.68099">
        <ele>64.7</ele>
        <time>2019-07-16T10:12:24Z</time>
      </trkpt>
      <trkpt lat="48.30648" lon="-1.68096">
        <ele>65.3</ele>
        <time>2019-07-16T10:12:25Z</time>
      </trkpt>
      <trkpt lat="48.30648" lon="-1.68092">
        <ele>65.9</ele>
        <time>2019-07-16T10:12:26Z</time>
      </trkpt>
      <trkpt lat="48.30647" lon="-1.68089">
        <ele>66.2</ele>
        <time>2019-07-16T10:12:27Z</time>
      </trkpt>
      <trkpt lat="48.30647" lon="-1.68085">
        <ele>66.5</ele>
        <time>2019-07-16T10:12:28Z</time>
      </trkpt>
      <trkpt lat="48.30646" lon="-1.68082">
        <ele>66.7</ele>
        <time>2019-07-16T10:12:29Z</time>
      </trkpt>
      <trkpt lat="48.30646" lon="-1.68079">
        <ele>66.6</ele>
        <time>2019-07-16T10:12:30Z</time>
      </trkpt>
      <trkpt lat="48.30646" lon="-1.68075">
        <ele>66.7</ele>
        <time>2019-07-16T10:12:31Z</time>
      </trkpt>
      <trkpt lat="48.30645" lon="-1.68072">
        <ele>66.7</ele>
        <time>2019-07-16T10:12:32Z</time>
      </trkpt>
      <trkpt lat="48.30645" lon="-1.68069">
        <ele>67</ele>
        <time>2019-07-16T10:12:33Z</time>
      </trkpt>
      <trkpt lat="48.30645" lon="-1.68066">
        <ele>67</ele>
        <time>2019-07-16T10:12:34Z</time>
      </trkpt>
      <trkpt lat="48.30645" lon="-1.68062">
        <ele>66.8</ele>
        <time>2019-07-16T10:12:35Z</time>
      </trkpt>
      <trkpt lat="48.30645" lon="-1.68059">
        <ele>66.4</ele>
        <time>2019-07-16T10:12:36Z</time>
      </trkpt>
      <trkpt lat="48.30644" lon="-1.68056">
        <ele>66.1</ele>
        <time>2019-07-16T10:12:37Z</time>
      </trkpt>
      <trkpt lat="48.30644" lon="-1.68053">
        <ele>66.1</ele>
        <time>2019-07-16T10:12:38Z</time>
      </trkpt>
      <trkpt lat="48.30644" lon="-1.68049">
        <ele>66.2</ele>
        <time>2019-07-16T10:12:39Z</time>
      </trkpt>
      <trkpt lat="48.30643" lon="-1.68046">
        <ele>66.2</ele>
        <time>2019-07-16T10:12:40Z</time>
      </trkpt>
      <trkpt lat="48.30643" lon="-1.68043">
        <ele>66.4</ele>
        <time>2019-07-16T10:12:41Z</time>
      </trkpt>
      <trkpt lat="48.30643" lon="-1.68039">
        <ele>66</ele>
        <time>2019-07-16T10:12:42Z</time>
      </trkpt>
      <trkpt lat="48.30642" lon="-1.68036">
        <ele>66.2</ele>
        <time>2019-07-16T10:12:43Z</time>
      </trkpt>
      <trkpt lat="48.30642" lon="-1.68032">
        <ele>66.4</ele>
        <time>2019-07-16T10:12:44Z</time>
      </trkpt>
      <trkpt lat="48.30642" lon="-1.68029">
        <ele>66.3</ele>
        <time>2019-07-16T10:12:45Z</time>
      </trkpt>
      <trkpt lat="48.30642" lon="-1.68025">
        <ele>66.3</ele>
        <time>2019-07-16T10:12:46Z</time>
      </trkpt>
      <trkpt lat="48.30642" lon="-1.68021">
        <ele>66.4</ele>
        <time>2019-07-16T10:12:47Z</time>
      </trkpt>
      <trkpt lat="48.30642" lon="-1.68018">
        <ele>66.4</ele>
        <time>2019-07-16T10:12:48Z</time>
      </trkpt>
      <trkpt lat="48.30641" lon="-1.68015">
        <ele>66.5</ele>
        <time>2019-07-16T10:12:49Z</time>
      </trkpt>
      <trkpt lat="48.30641" lon="-1.68012">
        <ele>66.1</ele>
        <time>2019-07-16T10:12:50Z</time>
      </trkpt>
      <trkpt lat="48.30641" lon="-1.68008">
        <ele>65.9</ele>
        <time>2019-07-16T10:12:51Z</time>
      </trkpt>
      <trkpt lat="48.30641" lon="-1.68005">
        <ele>65.6</ele>
        <time>2019-07-16T10:12:52Z</time>
      </trkpt>
      <trkpt lat="48.3064" lon="-1.68001">
        <ele>65.6</ele>
        <time>2019-07-16T10:12:53Z</time>
      </trkpt>
      <trkpt lat="48.30639" lon="-1.67997">
        <ele>65.1</ele>
        <time>2019-07-16T10:12:54Z</time>
      </trkpt>
      <trkpt lat="48.30639" lon="-1.67993">
        <ele>64.7</ele>
        <time>2019-07-16T10:12:55Z</time>
      </trkpt>
      <trkpt lat="48.30639" lon="-1.67989">
        <ele>64.6</ele>
        <time>2019-07-16T10:12:56Z</time>
      </trkpt>
      <trkpt lat="48.30639" lon="-1.67985">
        <ele>64.7</ele>
        <time>2019-07-16T10:12:57Z</time>
      </trkpt>
      <trkpt lat="48.30638" lon="-1.67981">
        <ele>64.6</ele>
        <time>2019-07-16T10:12:58Z</time>
      </trkpt>
      <trkpt lat="48.30638" lon="-1.67978">
        <ele>64.5</ele>
        <time>2019-07-16T10:12:59Z</time>
      </trkpt>
      <trkpt lat="48.30637" lon="-1.67973">
        <ele>64.5</ele>
        <time>2019-07-16T10:13:00Z</time>
      </trkpt>
      <trkpt lat="48.30637" lon="-1.67969">
        <ele>64.4</ele>
        <time>2019-07-16T10:13:01Z</time>
      </trkpt>
      <trkpt lat="48.30636" lon="-1.67966">
        <ele>64.4</ele>
        <time>2019-07-16T10:13:02Z</time>
      </trkpt>
      <trkpt lat="48.30636" lon="-1.67962">
        <ele>64.3</ele>
        <time>2019-07-16T10:13:03Z</time>
      </trkpt>
      <trkpt lat="48.30635" lon="-1.67959">
        <ele>64.2</ele>
        <time>2019-07-16T10:13:04Z</time>
      </trkpt>
      <trkpt lat="48.30634" lon="-1.67955">
        <ele>64.3</ele>
        <time>2019-07-16T10:13:05Z</time>
      </trkpt>
      <trkpt lat="48.30634" lon="-1.67952">
        <ele>64.4</ele>
        <time>2019-07-16T10:13:06Z</time>
      </trkpt>
      <trkpt lat="48.30634" lon="-1.67949">
        <ele>64.7</ele>
        <time>2019-07-16T10:13:07Z</time>
      </trkpt>
      <trkpt lat="48.30634" lon="-1.67946">
        <ele>65.4</ele>
        <time>2019-07-16T10:13:08Z</time>
      </trkpt>
      <trkpt lat="48.30634" lon="-1.67941">
        <ele>66.1</ele>
        <time>2019-07-16T10:13:30Z</time>
      </trkpt>
      <trkpt lat="48.30634" lon="-1.67938">
        <ele>66.2</ele>
        <time>2019-07-16T10:13:31Z</time>
      </trkpt>
      <trkpt lat="48.30634" lon="-1.67936">
        <ele>66.2</ele>
        <time>2019-07-16T10:13:32Z</time>
      </trkpt>
      <trkpt lat="48.30633" lon="-1.67932">
        <ele>66.2</ele>
        <time>2019-07-16T10:13:33Z</time>
      </trkpt>
      <trkpt lat="48.30632" lon="-1.67928">
        <ele>66.3</ele>
        <time>2019-07-16T10:13:34Z</time>
      </trkpt>
      <trkpt lat="48.30632" lon="-1.67924">
        <ele>66.4</ele>
        <time>2019-07-16T10:13:35Z</time>
      </trkpt>
      <trkpt lat="48.30631" lon="-1.6792">
        <ele>66.2</ele>
        <time>2019-07-16T10:13:36Z</time>
      </trkpt>
      <trkpt lat="48.3063" lon="-1.67915">
        <ele>66.3</ele>
        <time>2019-07-16T10:13:37Z</time>
      </trkpt>
      <trkpt lat="48.30629" lon="-1.67909">
        <ele>66.3</ele>
        <time>2019-07-16T10:13:38Z</time>
      </trkpt>
      <trkpt lat="48.30628" lon="-1.67904">
        <ele>66.1</ele>
        <time>2019-07-16T10:13:39Z</time>
      </trkpt>
      <trkpt lat="48.30627" lon="-1.67898">
        <ele>66.3</ele>
        <time>2019-07-16T10:13:40Z</time>
      </trkpt>
      <trkpt lat="48.30626" lon="-1.67892">
        <ele>66.7</ele>
        <time>2019-07-16T10:13:41Z</time>
      </trkpt>
      <trkpt lat="48.30625" lon="-1.67886">
        <ele>66.9</ele>
        <time>2019-07-16T10:13:42Z</time>
      </trkpt>
      <trkpt lat="48.30625" lon="-1.6788">
        <ele>67.1</ele>
        <time>2019-07-16T10:13:43Z</time>
      </trkpt>
      <trkpt lat="48.30624" lon="-1.67874">
        <ele>67.4</ele>
        <time>2019-07-16T10:13:44Z</time>
      </trkpt>
      <trkpt lat="48.30624" lon="-1.67868">
        <ele>67.6</ele>
        <time>2019-07-16T10:13:45Z</time>
      </trkpt>
      <trkpt lat="48.30623" lon="-1.67862">
        <ele>67.5</ele>
        <time>2019-07-16T10:13:46Z</time>
      </trkpt>
      <trkpt lat="48.30623" lon="-1.67857">
        <ele>67.6</ele>
        <time>2019-07-16T10:13:47Z</time>
      </trkpt>
      <trkpt lat="48.30622" lon="-1.67851">
        <ele>67.7</ele>
        <time>2019-07-16T10:13:48Z</time>
      </trkpt>
      <trkpt lat="48.30621" lon="-1.67845">
        <ele>67.6</ele>
        <time>2019-07-16T10:13:49Z</time>
      </trkpt>
      <trkpt lat="48.30621" lon="-1.67839">
        <ele>67.5</ele>
        <time>2019-07-16T10:13:50Z</time>
      </trkpt>
      <trkpt lat="48.30621" lon="-1.67833">
        <ele>67.6</ele>
        <time>2019-07-16T10:13:51Z</time>
      </trkpt>
      <trkpt lat="48.3062" lon="-1.67827">
        <ele>67.6</ele>
        <time>2019-07-16T10:13:52Z</time>
      </trkpt>
      <trkpt lat="48.30619" lon="-1.6782">
        <ele>67.4</ele>
        <time>2019-07-16T10:13:53Z</time>
      </trkpt>
      <trkpt lat="48.30619" lon="-1.67813">
        <ele>67.4</ele>
        <time>2019-07-16T10:13:54Z</time>
      </trkpt>
      <trkpt lat="48.30618" lon="-1.67806">
        <ele>67.1</ele>
        <time>2019-07-16T10:13:55Z</time>
      </trkpt>
      <trkpt lat="48.30616" lon="-1.67799">
        <ele>67</ele>
        <time>2019-07-16T10:13:56Z</time>
      </trkpt>
      <trkpt lat="48.30616" lon="-1.67791">
        <ele>66.8</ele>
        <time>2019-07-16T10:13:57Z</time>
      </trkpt>
      <trkpt lat="48.30615" lon="-1.67783">
        <ele>66.8</ele>
        <time>2019-07-16T10:13:58Z</time>
      </trkpt>
      <trkpt lat="48.30615" lon="-1.67776">
        <ele>66.6</ele>
        <time>2019-07-16T10:13:59Z</time>
      </trkpt>
      <trkpt lat="48.30613" lon="-1.67769">
        <ele>66.1</ele>
        <time>2019-07-16T10:14:00Z</time>
      </trkpt>
      <trkpt lat="48.30613" lon="-1.67761">
        <ele>65.8</ele>
        <time>2019-07-16T10:14:01Z</time>
      </trkpt>
      <trkpt lat="48.30611" lon="-1.67754">
        <ele>65.1</ele>
        <time>2019-07-16T10:14:02Z</time>
      </trkpt>
      <trkpt lat="48.3061" lon="-1.67747">
        <ele>64.7</ele>
        <time>2019-07-16T10:14:03Z</time>
      </trkpt>
      <trkpt lat="48.3061" lon="-1.6774">
        <ele>64.4</ele>
        <time>2019-07-16T10:14:04Z</time>
      </trkpt>
      <trkpt lat="48.3061" lon="-1.67732">
        <ele>64.9</ele>
        <time>2019-07-16T10:14:05Z</time>
      </trkpt>
      <trkpt lat="48.3061" lon="-1.67725">
        <ele>65.1</ele>
        <time>2019-07-16T10:14:06Z</time>
      </trkpt>
      <trkpt lat="48.30609" lon="-1.67717">
        <ele>65.2</ele>
        <time>2019-07-16T10:14:07Z</time>
      </trkpt>
      <trkpt lat="48.30608" lon="-1.6771">
        <ele>65.3</ele>
        <time>2019-07-16T10:14:08Z</time>
      </trkpt>
      <trkpt lat="48.30607" lon="-1.67702">
        <ele>65.5</ele>
        <time>2019-07-16T10:14:09Z</time>
      </trkpt>
      <trkpt lat="48.30607" lon="-1.67695">
        <ele>65.3</ele>
        <time>2019-07-16T10:14:10Z</time>
      </trkpt>
      <trkpt lat="48.30606" lon="-1.67687">
        <ele>65.1</ele>
        <time>2019-07-16T10:14:11Z</time>
      </trkpt>
      <trkpt lat="48.30606" lon="-1.6768">
        <ele>65.5</ele>
        <time>2019-07-16T10:14:12Z</time>
      </trkpt>
      <trkpt lat="48.30606" lon="-1.67673">
        <ele>65.6</ele>
        <time>2019-07-16T10:14:13Z</time>
      </trkpt>
      <trkpt lat="48.30605" lon="-1.67665">
        <ele>65.7</ele>
        <time>2019-07-16T10:14:14Z</time>
      </trkpt>
      <trkpt lat="48.30605" lon="-1.67659">
        <ele>65.5</ele>
        <time>2019-07-16T10:14:15Z</time>
      </trkpt>
      <trkpt lat="48.30604" lon="-1.67652">
        <ele>65.6</ele>
        <time>2019-07-16T10:14:16Z</time>
      </trkpt>
      <trkpt lat="48.30604" lon="-1.67645">
        <ele>65.8</ele>
        <time>2019-07-16T10:14:17Z</time>
      </trkpt>
      <trkpt lat="48.30603" lon="-1.67637">
        <ele>65.7</ele>
        <time>2019-07-16T10:14:18Z</time>
      </trkpt>
      <trkpt lat="48.30603" lon="-1.67631">
        <ele>65.7</ele>
        <time>2019-07-16T10:14:19Z</time>
      </trkpt>
      <trkpt lat="48.30602" lon="-1.67623">
        <ele>65.7</ele>
        <time>2019-07-16T10:14:20Z</time>
      </trkpt>
      <trkpt lat="48.30602" lon="-1.67616">
        <ele>65.7</ele>
        <time>2019-07-16T10:14:21Z</time>
      </trkpt>
      <trkpt lat="48.30602" lon="-1.67608">
        <ele>65.7</ele>
        <time>2019-07-16T10:14:22Z</time>
      </trkpt>
      <trkpt lat="48.30602" lon="-1.67601">
        <ele>65.7</ele>
        <time>2019-07-16T10:14:23Z</time>
      </trkpt>
      <trkpt lat="48.30602" lon="-1.67594">
        <ele>65.9</ele>
        <time>2019-07-16T10:14:24Z</time>
      </trkpt>
      <trkpt lat="48.30601" lon="-1.67587">
        <ele>65.7</ele>
        <time>2019-07-16T10:14:25Z</time>
      </trkpt>
      <trkpt lat="48.30601" lon="-1.6758">
        <ele>65.4</ele>
        <time>2019-07-16T10:14:26Z</time>
      </trkpt>
      <trkpt lat="48.30601" lon="-1.67572">
        <ele>65.2</ele>
        <time>2019-07-16T10:14:27Z</time>
      </trkpt>
      <trkpt lat="48.306" lon="-1.67564">
        <ele>64.9</ele>
        <time>2019-07-16T10:14:28Z</time>
      </trkpt>
      <trkpt lat="48.306" lon="-1.67557">
        <ele>64.7</ele>
        <time>2019-07-16T10:14:29Z</time>
      </trkpt>
      <trkpt lat="48.306" lon="-1.67549">
        <ele>64.2</ele>
        <time>2019-07-16T10:14:30Z</time>
      </trkpt>
      <trkpt lat="48.30601" lon="-1.67541">
        <ele>64.1</ele>
        <time>2019-07-16T10:14:31Z</time>
      </trkpt>
      <trkpt lat="48.30601" lon="-1.67533">
        <ele>64</ele>
        <time>2019-07-16T10:14:32Z</time>
      </trkpt>
      <trkpt lat="48.306" lon="-1.67525">
        <ele>63.1</ele>
        <time>2019-07-16T10:14:33Z</time>
      </trkpt>
      <trkpt lat="48.306" lon="-1.67517">
        <ele>62.6</ele>
        <time>2019-07-16T10:14:34Z</time>
      </trkpt>
      <trkpt lat="48.30599" lon="-1.67509">
        <ele>62</ele>
        <time>2019-07-16T10:14:35Z</time>
      </trkpt>
      <trkpt lat="48.30598" lon="-1.675">
        <ele>61.5</ele>
        <time>2019-07-16T10:14:36Z</time>
      </trkpt>
      <trkpt lat="48.30596" lon="-1.67493">
        <ele>61</ele>
        <time>2019-07-16T10:14:37Z</time>
      </trkpt>
      <trkpt lat="48.30595" lon="-1.67487">
        <ele>61</ele>
        <time>2019-07-16T10:14:38Z</time>
      </trkpt>
      <trkpt lat="48.30592" lon="-1.67482">
        <ele>61.4</ele>
        <time>2019-07-16T10:14:39Z</time>
      </trkpt>
      <trkpt lat="48.30591" lon="-1.67479">
        <ele>61.5</ele>
        <time>2019-07-16T10:14:40Z</time>
      </trkpt>
      <trkpt lat="48.3059" lon="-1.67476">
        <ele>61.4</ele>
        <time>2019-07-16T10:14:41Z</time>
      </trkpt>
      <trkpt lat="48.3059" lon="-1.67473">
        <ele>61.2</ele>
        <time>2019-07-16T10:14:42Z</time>
      </trkpt>
      <trkpt lat="48.30589" lon="-1.67471">
        <ele>60.9</ele>
        <time>2019-07-16T10:14:43Z</time>
      </trkpt>
      <trkpt lat="48.3059" lon="-1.67469">
        <ele>61</ele>
        <time>2019-07-16T10:14:44Z</time>
      </trkpt>
      <trkpt lat="48.3059" lon="-1.67467">
        <ele>60.9</ele>
        <time>2019-07-16T10:14:45Z</time>
      </trkpt>
      <trkpt lat="48.3059" lon="-1.67465">
        <ele>60.8</ele>
        <time>2019-07-16T10:14:46Z</time>
      </trkpt>
      <trkpt lat="48.3059" lon="-1.67461">
        <ele>60.4</ele>
        <time>2019-07-16T10:14:47Z</time>
      </trkpt>
      <trkpt lat="48.30591" lon="-1.67457">
        <ele>60</ele>
        <time>2019-07-16T10:14:48Z</time>
      </trkpt>
      <trkpt lat="48.30592" lon="-1.67452">
        <ele>59.6</ele>
        <time>2019-07-16T10:14:49Z</time>
      </trkpt>
      <trkpt lat="48.30593" lon="-1.67447">
        <ele>59.5</ele>
        <time>2019-07-16T10:14:50Z</time>
      </trkpt>
      <trkpt lat="48.30595" lon="-1.67443">
        <ele>59.3</ele>
        <time>2019-07-16T10:14:51Z</time>
      </trkpt>
      <trkpt lat="48.30596" lon="-1.67438">
        <ele>59.1</ele>
        <time>2019-07-16T10:14:52Z</time>
      </trkpt>
      <trkpt lat="48.30597" lon="-1.67435">
        <ele>58.9</ele>
        <time>2019-07-16T10:14:53Z</time>
      </trkpt>
      <trkpt lat="48.30598" lon="-1.67433">
        <ele>58.8</ele>
        <time>2019-07-16T10:14:54Z</time>
      </trkpt>
      <trkpt lat="48.30599" lon="-1.67432">
        <ele>58.4</ele>
        <time>2019-07-16T10:14:55Z</time>
      </trkpt>
      <trkpt lat="48.306" lon="-1.6743">
        <ele>58.2</ele>
        <time>2019-07-16T10:14:56Z</time>
      </trkpt>
      <trkpt lat="48.30602" lon="-1.67428">
        <ele>57.9</ele>
        <time>2019-07-16T10:14:57Z</time>
      </trkpt>
      <trkpt lat="48.30602" lon="-1.67426">
        <ele>58</ele>
        <time>2019-07-16T10:14:58Z</time>
      </trkpt>
      <trkpt lat="48.30602" lon="-1.67423">
        <ele>58.9</ele>
        <time>2019-07-16T10:14:59Z</time>
      </trkpt>
      <trkpt lat="48.30603" lon="-1.67421">
        <ele>58.9</ele>
        <time>2019-07-16T10:15:00Z</time>
      </trkpt>
      <trkpt lat="48.30603" lon="-1.67417">
        <ele>59</ele>
        <time>2019-07-16T10:15:01Z</time>
      </trkpt>
      <trkpt lat="48.30605" lon="-1.67415">
        <ele>59</ele>
        <time>2019-07-16T10:15:02Z</time>
      </trkpt>
      <trkpt lat="48.30607" lon="-1.67412">
        <ele>58.4</ele>
        <time>2019-07-16T10:15:03Z</time>
      </trkpt>
      <trkpt lat="48.30609" lon="-1.6741">
        <ele>57.9</ele>
        <time>2019-07-16T10:15:04Z</time>
      </trkpt>
      <trkpt lat="48.30611" lon="-1.67407">
        <ele>57.6</ele>
        <time>2019-07-16T10:15:05Z</time>
      </trkpt>
      <trkpt lat="48.30612" lon="-1.67404">
        <ele>57.2</ele>
        <time>2019-07-16T10:15:06Z</time>
      </trkpt>
      <trkpt lat="48.30613" lon="-1.67401">
        <ele>57.2</ele>
        <time>2019-07-16T10:15:07Z</time>
      </trkpt>
      <trkpt lat="48.30614" lon="-1.67398">
        <ele>57.1</ele>
        <time>2019-07-16T10:15:08Z</time>
      </trkpt>
      <trkpt lat="48.30615" lon="-1.67395">
        <ele>57.2</ele>
        <time>2019-07-16T10:15:09Z</time>
      </trkpt>
      <trkpt lat="48.30615" lon="-1.67391">
        <ele>57</ele>
        <time>2019-07-16T10:15:10Z</time>
      </trkpt>
      <trkpt lat="48.30615" lon="-1.67388">
        <ele>56.9</ele>
        <time>2019-07-16T10:15:11Z</time>
      </trkpt>
      <trkpt lat="48.30616" lon="-1.67387">
        <ele>57.2</ele>
        <time>2019-07-16T10:15:12Z</time>
      </trkpt>
      <trkpt lat="48.30618" lon="-1.67387">
        <ele>57.9</ele>
        <time>2019-07-16T10:15:13Z</time>
      </trkpt>
      <trkpt lat="48.30619" lon="-1.67386">
        <ele>58.3</ele>
        <time>2019-07-16T10:15:14Z</time>
      </trkpt>
      <trkpt lat="48.3062" lon="-1.67386">
        <ele>58.7</ele>
        <time>2019-07-16T10:15:15Z</time>
      </trkpt>
      <trkpt lat="48.30621" lon="-1.67385">
        <ele>59</ele>
        <time>2019-07-16T10:15:16Z</time>
      </trkpt>
      <trkpt lat="48.30623" lon="-1.67384">
        <ele>59.2</ele>
        <time>2019-07-16T10:15:17Z</time>
      </trkpt>
      <trkpt lat="48.30624" lon="-1.67382">
        <ele>59.4</ele>
        <time>2019-07-16T10:15:18Z</time>
      </trkpt>
      <trkpt lat="48.30624" lon="-1.67372">
        <ele>58.9</ele>
        <time>2019-07-16T10:15:26Z</time>
      </trkpt>
      <trkpt lat="48.30625" lon="-1.67369">
        <ele>59</ele>
        <time>2019-07-16T10:15:27Z</time>
      </trkpt>
      <trkpt lat="48.30625" lon="-1.67365">
        <ele>58.9</ele>
        <time>2019-07-16T10:15:28Z</time>
      </trkpt>
      <trkpt lat="48.30626" lon="-1.67362">
        <ele>58.9</ele>
        <time>2019-07-16T10:15:29Z</time>
      </trkpt>
      <trkpt lat="48.30626" lon="-1.67358">
        <ele>58.7</ele>
        <time>2019-07-16T10:15:30Z</time>
      </trkpt>
      <trkpt lat="48.30627" lon="-1.67354">
        <ele>58.7</ele>
        <time>2019-07-16T10:15:31Z</time>
      </trkpt>
      <trkpt lat="48.30627" lon="-1.6735">
        <ele>59.1</ele>
        <time>2019-07-16T10:15:32Z</time>
      </trkpt>
      <trkpt lat="48.30629" lon="-1.67347">
        <ele>59.3</ele>
        <time>2019-07-16T10:15:33Z</time>
      </trkpt>
      <trkpt lat="48.3063" lon="-1.67343">
        <ele>59.1</ele>
        <time>2019-07-16T10:15:34Z</time>
      </trkpt>
      <trkpt lat="48.30631" lon="-1.67339">
        <ele>58.8</ele>
        <time>2019-07-16T10:15:35Z</time>
      </trkpt>
      <trkpt lat="48.30632" lon="-1.67334">
        <ele>58.1</ele>
        <time>2019-07-16T10:15:36Z</time>
      </trkpt>
      <trkpt lat="48.30634" lon="-1.6733">
        <ele>57.7</ele>
        <time>2019-07-16T10:15:37Z</time>
      </trkpt>
      <trkpt lat="48.30636" lon="-1.67327">
        <ele>57.4</ele>
        <time>2019-07-16T10:15:38Z</time>
      </trkpt>
      <trkpt lat="48.30638" lon="-1.67322">
        <ele>57.3</ele>
        <time>2019-07-16T10:15:39Z</time>
      </trkpt>
      <trkpt lat="48.3064" lon="-1.67318">
        <ele>57.2</ele>
        <time>2019-07-16T10:15:40Z</time>
      </trkpt>
      <trkpt lat="48.30642" lon="-1.67313">
        <ele>57.1</ele>
        <time>2019-07-16T10:15:41Z</time>
      </trkpt>
      <trkpt lat="48.30643" lon="-1.67308">
        <ele>56.8</ele>
        <time>2019-07-16T10:15:42Z</time>
      </trkpt>
      <trkpt lat="48.30645" lon="-1.67303">
        <ele>56.8</ele>
        <time>2019-07-16T10:15:43Z</time>
      </trkpt>
      <trkpt lat="48.30646" lon="-1.67297">
        <ele>56.9</ele>
        <time>2019-07-16T10:15:44Z</time>
      </trkpt>
      <trkpt lat="48.30648" lon="-1.67292">
        <ele>57.1</ele>
        <time>2019-07-16T10:15:45Z</time>
      </trkpt>
      <trkpt lat="48.3065" lon="-1.67286">
        <ele>57.2</ele>
        <time>2019-07-16T10:15:46Z</time>
      </trkpt>
      <trkpt lat="48.30653" lon="-1.67282">
        <ele>57.6</ele>
        <time>2019-07-16T10:15:47Z</time>
      </trkpt>
      <trkpt lat="48.30655" lon="-1.67278">
        <ele>57.8</ele>
        <time>2019-07-16T10:15:48Z</time>
      </trkpt>
      <trkpt lat="48.30656" lon="-1.67274">
        <ele>57.9</ele>
        <time>2019-07-16T10:15:49Z</time>
      </trkpt>
      <trkpt lat="48.30658" lon="-1.67271">
        <ele>57.7</ele>
        <time>2019-07-16T10:15:50Z</time>
      </trkpt>
      <trkpt lat="48.30658" lon="-1.67268">
        <ele>58</ele>
        <time>2019-07-16T10:15:51Z</time>
      </trkpt>
      <trkpt lat="48.30659" lon="-1.67265">
        <ele>57.8</ele>
        <time>2019-07-16T10:15:52Z</time>
      </trkpt>
      <trkpt lat="48.3066" lon="-1.67263">
        <ele>57.8</ele>
        <time>2019-07-16T10:15:53Z</time>
      </trkpt>
      <trkpt lat="48.30661" lon="-1.67262">
        <ele>58</ele>
        <time>2019-07-16T10:15:54Z</time>
      </trkpt>
      <trkpt lat="48.30663" lon="-1.6726">
        <ele>58.2</ele>
        <time>2019-07-16T10:15:55Z</time>
      </trkpt>
      <trkpt lat="48.30664" lon="-1.67259">
        <ele>58.5</ele>
        <time>2019-07-16T10:15:56Z</time>
      </trkpt>
      <trkpt lat="48.30666" lon="-1.67257">
        <ele>59.3</ele>
        <time>2019-07-16T10:15:57Z</time>
      </trkpt>
      <trkpt lat="48.30668" lon="-1.67255">
        <ele>58.9</ele>
        <time>2019-07-16T10:15:58Z</time>
      </trkpt>
      <trkpt lat="48.3067" lon="-1.67252">
        <ele>58.1</ele>
        <time>2019-07-16T10:15:59Z</time>
      </trkpt>
      <trkpt lat="48.30672" lon="-1.6725">
        <ele>57.5</ele>
        <time>2019-07-16T10:16:00Z</time>
      </trkpt>
      <trkpt lat="48.30674" lon="-1.67247">
        <ele>56.7</ele>
        <time>2019-07-16T10:16:01Z</time>
      </trkpt>
      <trkpt lat="48.30676" lon="-1.67244">
        <ele>56.2</ele>
        <time>2019-07-16T10:16:02Z</time>
      </trkpt>
      <trkpt lat="48.30678" lon="-1.6724">
        <ele>56.1</ele>
        <time>2019-07-16T10:16:03Z</time>
      </trkpt>
      <trkpt lat="48.30681" lon="-1.67237">
        <ele>56.1</ele>
        <time>2019-07-16T10:16:04Z</time>
      </trkpt>
      <trkpt lat="48.30682" lon="-1.67232">
        <ele>55.8</ele>
        <time>2019-07-16T10:16:05Z</time>
      </trkpt>
      <trkpt lat="48.30684" lon="-1.67228">
        <ele>55.6</ele>
        <time>2019-07-16T10:16:06Z</time>
      </trkpt>
      <trkpt lat="48.30685" lon="-1.67223">
        <ele>55</ele>
        <time>2019-07-16T10:16:07Z</time>
      </trkpt>
      <trkpt lat="48.30687" lon="-1.67218">
        <ele>55.1</ele>
        <time>2019-07-16T10:16:08Z</time>
      </trkpt>
      <trkpt lat="48.30689" lon="-1.67213">
        <ele>56.1</ele>
        <time>2019-07-16T10:16:09Z</time>
      </trkpt>
      <trkpt lat="48.3069" lon="-1.67208">
        <ele>56.8</ele>
        <time>2019-07-16T10:16:10Z</time>
      </trkpt>
      <trkpt lat="48.30692" lon="-1.67202">
        <ele>57.4</ele>
        <time>2019-07-16T10:16:11Z</time>
      </trkpt>
      <trkpt lat="48.30693" lon="-1.67197">
        <ele>57.4</ele>
        <time>2019-07-16T10:16:12Z</time>
      </trkpt>
      <trkpt lat="48.30695" lon="-1.67192">
        <ele>57.3</ele>
        <time>2019-07-16T10:16:13Z</time>
      </trkpt>
      <trkpt lat="48.30696" lon="-1.67187">
        <ele>57.1</ele>
        <time>2019-07-16T10:16:14Z</time>
      </trkpt>
      <trkpt lat="48.30697" lon="-1.67182">
        <ele>57</ele>
        <time>2019-07-16T10:16:15Z</time>
      </trkpt>
      <trkpt lat="48.30699" lon="-1.67177">
        <ele>56.6</ele>
        <time>2019-07-16T10:16:16Z</time>
      </trkpt>
      <trkpt lat="48.307" lon="-1.67172">
        <ele>55.8</ele>
        <time>2019-07-16T10:16:17Z</time>
      </trkpt>
      <trkpt lat="48.30701" lon="-1.67167">
        <ele>55.6</ele>
        <time>2019-07-16T10:16:18Z</time>
      </trkpt>
      <trkpt lat="48.30703" lon="-1.67162">
        <ele>55.6</ele>
        <time>2019-07-16T10:16:19Z</time>
      </trkpt>
      <trkpt lat="48.30705" lon="-1.67157">
        <ele>55.3</ele>
        <time>2019-07-16T10:16:20Z</time>
      </trkpt>
      <trkpt lat="48.30707" lon="-1.67152">
        <ele>55.5</ele>
        <time>2019-07-16T10:16:21Z</time>
      </trkpt>
      <trkpt lat="48.30709" lon="-1.67147">
        <ele>55.4</ele>
        <time>2019-07-16T10:16:22Z</time>
      </trkpt>
      <trkpt lat="48.30711" lon="-1.67143">
        <ele>56</ele>
        <time>2019-07-16T10:16:23Z</time>
      </trkpt>
      <trkpt lat="48.30713" lon="-1.67139">
        <ele>56.4</ele>
        <time>2019-07-16T10:16:24Z</time>
      </trkpt>
      <trkpt lat="48.30715" lon="-1.67135">
        <ele>56.3</ele>
        <time>2019-07-16T10:16:25Z</time>
      </trkpt>
      <trkpt lat="48.30717" lon="-1.67131">
        <ele>56.1</ele>
        <time>2019-07-16T10:16:26Z</time>
      </trkpt>
      <trkpt lat="48.30718" lon="-1.67128">
        <ele>55.4</ele>
        <time>2019-07-16T10:16:27Z</time>
      </trkpt>
      <trkpt lat="48.3072" lon="-1.67124">
        <ele>54.8</ele>
        <time>2019-07-16T10:16:28Z</time>
      </trkpt>
      <trkpt lat="48.30722" lon="-1.6712">
        <ele>54.7</ele>
        <time>2019-07-16T10:16:29Z</time>
      </trkpt>
      <trkpt lat="48.30723" lon="-1.67115">
        <ele>54.5</ele>
        <time>2019-07-16T10:16:30Z</time>
      </trkpt>
      <trkpt lat="48.30725" lon="-1.67111">
        <ele>54.5</ele>
        <time>2019-07-16T10:16:31Z</time>
      </trkpt>
      <trkpt lat="48.30727" lon="-1.67107">
        <ele>54.9</ele>
        <time>2019-07-16T10:16:32Z</time>
      </trkpt>
      <trkpt lat="48.30729" lon="-1.67103">
        <ele>55.4</ele>
        <time>2019-07-16T10:16:33Z</time>
      </trkpt>
      <trkpt lat="48.30732" lon="-1.67099">
        <ele>55</ele>
        <time>2019-07-16T10:16:34Z</time>
      </trkpt>
      <trkpt lat="48.30734" lon="-1.67095">
        <ele>54.7</ele>
        <time>2019-07-16T10:16:35Z</time>
      </trkpt>
      <trkpt lat="48.30734" lon="-1.67091">
        <ele>54.5</ele>
        <time>2019-07-16T10:16:36Z</time>
      </trkpt>
      <trkpt lat="48.30735" lon="-1.67086">
        <ele>54.2</ele>
        <time>2019-07-16T10:16:37Z</time>
      </trkpt>
      <trkpt lat="48.30737" lon="-1.67082">
        <ele>54.3</ele>
        <time>2019-07-16T10:16:38Z</time>
      </trkpt>
      <trkpt lat="48.30738" lon="-1.67077">
        <ele>54.6</ele>
        <time>2019-07-16T10:16:39Z</time>
      </trkpt>
      <trkpt lat="48.3074" lon="-1.67072">
        <ele>54.5</ele>
        <time>2019-07-16T10:16:40Z</time>
      </trkpt>
      <trkpt lat="48.30742" lon="-1.67067">
        <ele>54.4</ele>
        <time>2019-07-16T10:16:41Z</time>
      </trkpt>
      <trkpt lat="48.30744" lon="-1.67062">
        <ele>53.9</ele>
        <time>2019-07-16T10:16:42Z</time>
      </trkpt>
      <trkpt lat="48.30746" lon="-1.67057">
        <ele>53.5</ele>
        <time>2019-07-16T10:16:43Z</time>
      </trkpt>
      <trkpt lat="48.30747" lon="-1.67053">
        <ele>52.8</ele>
        <time>2019-07-16T10:16:44Z</time>
      </trkpt>
      <trkpt lat="48.30748" lon="-1.67048">
        <ele>51.7</ele>
        <time>2019-07-16T10:16:45Z</time>
      </trkpt>
      <trkpt lat="48.3075" lon="-1.67043">
        <ele>51</ele>
        <time>2019-07-16T10:16:46Z</time>
      </trkpt>
      <trkpt lat="48.30752" lon="-1.67038">
        <ele>50.7</ele>
        <time>2019-07-16T10:16:47Z</time>
      </trkpt>
      <trkpt lat="48.30754" lon="-1.67033">
        <ele>50.1</ele>
        <time>2019-07-16T10:16:48Z</time>
      </trkpt>
      <trkpt lat="48.30756" lon="-1.67029">
        <ele>50.1</ele>
        <time>2019-07-16T10:16:49Z</time>
      </trkpt>
      <trkpt lat="48.30758" lon="-1.67024">
        <ele>50.6</ele>
        <time>2019-07-16T10:16:50Z</time>
      </trkpt>
      <trkpt lat="48.30759" lon="-1.6702">
        <ele>51</ele>
        <time>2019-07-16T10:16:51Z</time>
      </trkpt>
      <trkpt lat="48.3076" lon="-1.67016">
        <ele>51</ele>
        <time>2019-07-16T10:16:52Z</time>
      </trkpt>
      <trkpt lat="48.30762" lon="-1.67012">
        <ele>51.3</ele>
        <time>2019-07-16T10:16:53Z</time>
      </trkpt>
      <trkpt lat="48.30763" lon="-1.67009">
        <ele>51.1</ele>
        <time>2019-07-16T10:16:54Z</time>
      </trkpt>
      <trkpt lat="48.30765" lon="-1.67006">
        <ele>51.1</ele>
        <time>2019-07-16T10:16:55Z</time>
      </trkpt>
      <trkpt lat="48.30767" lon="-1.67003">
        <ele>51.1</ele>
        <time>2019-07-16T10:16:56Z</time>
      </trkpt>
      <trkpt lat="48.30769" lon="-1.67001">
        <ele>51.3</ele>
        <time>2019-07-16T10:16:57Z</time>
      </trkpt>
      <trkpt lat="48.30771" lon="-1.66999">
        <ele>52.1</ele>
        <time>2019-07-16T10:16:58Z</time>
      </trkpt>
      <trkpt lat="48.30772" lon="-1.66997">
        <ele>52.5</ele>
        <time>2019-07-16T10:16:59Z</time>
      </trkpt>
      <trkpt lat="48.30774" lon="-1.66995">
        <ele>53</ele>
        <time>2019-07-16T10:17:00Z</time>
      </trkpt>
      <trkpt lat="48.30776" lon="-1.66993">
        <ele>53.2</ele>
        <time>2019-07-16T10:17:01Z</time>
      </trkpt>
      <trkpt lat="48.30778" lon="-1.66992">
        <ele>53.8</ele>
        <time>2019-07-16T10:17:02Z</time>
      </trkpt>
      <trkpt lat="48.3078" lon="-1.66991">
        <ele>54.5</ele>
        <time>2019-07-16T10:17:03Z</time>
      </trkpt>
      <trkpt lat="48.30782" lon="-1.6699">
        <ele>54.6</ele>
        <time>2019-07-16T10:17:04Z</time>
      </trkpt>
      <trkpt lat="48.30785" lon="-1.66988">
        <ele>54.5</ele>
        <time>2019-07-16T10:17:05Z</time>
      </trkpt>
      <trkpt lat="48.30787" lon="-1.66986">
        <ele>54.3</ele>
        <time>2019-07-16T10:17:06Z</time>
      </trkpt>
      <trkpt lat="48.30789" lon="-1.66984">
        <ele>54.2</ele>
        <time>2019-07-16T10:17:07Z</time>
      </trkpt>
      <trkpt lat="48.30791" lon="-1.66983">
        <ele>54.6</ele>
        <time>2019-07-16T10:17:08Z</time>
      </trkpt>
      <trkpt lat="48.30793" lon="-1.66981">
        <ele>55.3</ele>
        <time>2019-07-16T10:17:09Z</time>
      </trkpt>
      <trkpt lat="48.30795" lon="-1.66979">
        <ele>55.6</ele>
        <time>2019-07-16T10:17:10Z</time>
      </trkpt>
      <trkpt lat="48.30798" lon="-1.66977">
        <ele>55.2</ele>
        <time>2019-07-16T10:17:11Z</time>
      </trkpt>
      <trkpt lat="48.30801" lon="-1.66974">
        <ele>54.4</ele>
        <time>2019-07-16T10:17:12Z</time>
      </trkpt>
      <trkpt lat="48.30804" lon="-1.66971">
        <ele>54.3</ele>
        <time>2019-07-16T10:17:13Z</time>
      </trkpt>
      <trkpt lat="48.30806" lon="-1.66968">
        <ele>54.2</ele>
        <time>2019-07-16T10:17:14Z</time>
      </trkpt>
      <trkpt lat="48.30809" lon="-1.66965">
        <ele>54.5</ele>
        <time>2019-07-16T10:17:15Z</time>
      </trkpt>
      <trkpt lat="48.30811" lon="-1.66964">
        <ele>55.4</ele>
        <time>2019-07-16T10:17:16Z</time>
      </trkpt>
      <trkpt lat="48.30813" lon="-1.66962">
        <ele>56</ele>
        <time>2019-07-16T10:17:17Z</time>
      </trkpt>
      <trkpt lat="48.30816" lon="-1.6696">
        <ele>56.9</ele>
        <time>2019-07-16T10:17:18Z</time>
      </trkpt>
      <trkpt lat="48.30819" lon="-1.66958">
        <ele>57.9</ele>
        <time>2019-07-16T10:17:19Z</time>
      </trkpt>
      <trkpt lat="48.30821" lon="-1.66956">
        <ele>59.1</ele>
        <time>2019-07-16T10:17:20Z</time>
      </trkpt>
      <trkpt lat="48.30824" lon="-1.66954">
        <ele>59.2</ele>
        <time>2019-07-16T10:17:21Z</time>
      </trkpt>
      <trkpt lat="48.30826" lon="-1.66952">
        <ele>59.5</ele>
        <time>2019-07-16T10:17:22Z</time>
      </trkpt>
      <trkpt lat="48.30829" lon="-1.66952">
        <ele>60.4</ele>
        <time>2019-07-16T10:17:23Z</time>
      </trkpt>
      <trkpt lat="48.3083" lon="-1.66951">
        <ele>61.2</ele>
        <time>2019-07-16T10:17:24Z</time>
      </trkpt>
      <trkpt lat="48.30832" lon="-1.6695">
        <ele>62</ele>
        <time>2019-07-16T10:17:25Z</time>
      </trkpt>
      <trkpt lat="48.30834" lon="-1.66949">
        <ele>62.7</ele>
        <time>2019-07-16T10:17:26Z</time>
      </trkpt>
      <trkpt lat="48.30835" lon="-1.66949">
        <ele>63.2</ele>
        <time>2019-07-16T10:17:27Z</time>
      </trkpt>
      <trkpt lat="48.30837" lon="-1.66949">
        <ele>63</ele>
        <time>2019-07-16T10:17:28Z</time>
      </trkpt>
      <trkpt lat="48.30841" lon="-1.66951">
        <ele>63.5</ele>
        <time>2019-07-16T10:18:03Z</time>
      </trkpt>
      <trkpt lat="48.30843" lon="-1.66952">
        <ele>63.6</ele>
        <time>2019-07-16T10:18:04Z</time>
      </trkpt>
      <trkpt lat="48.30843" lon="-1.66953">
        <ele>63.7</ele>
        <time>2019-07-16T10:18:05Z</time>
      </trkpt>
      <trkpt lat="48.30845" lon="-1.66954">
        <ele>63.8</ele>
        <time>2019-07-16T10:18:06Z</time>
      </trkpt>
      <trkpt lat="48.30846" lon="-1.66954">
        <ele>63.9</ele>
        <time>2019-07-16T10:18:07Z</time>
      </trkpt>
      <trkpt lat="48.30848" lon="-1.66955">
        <ele>63.9</ele>
        <time>2019-07-16T10:18:08Z</time>
      </trkpt>
      <trkpt lat="48.30849" lon="-1.66956">
        <ele>63.9</ele>
        <time>2019-07-16T10:18:09Z</time>
      </trkpt>
      <trkpt lat="48.30851" lon="-1.66957">
        <ele>64</ele>
        <time>2019-07-16T10:18:10Z</time>
      </trkpt>
      <trkpt lat="48.30853" lon="-1.66957">
        <ele>64.2</ele>
        <time>2019-07-16T10:18:11Z</time>
      </trkpt>
      <trkpt lat="48.30854" lon="-1.66958">
        <ele>64.1</ele>
        <time>2019-07-16T10:18:12Z</time>
      </trkpt>
      <trkpt lat="48.30856" lon="-1.66958">
        <ele>64</ele>
        <time>2019-07-16T10:18:13Z</time>
      </trkpt>
      <trkpt lat="48.30859" lon="-1.6696">
        <ele>63.9</ele>
        <time>2019-07-16T10:18:14Z</time>
      </trkpt>
      <trkpt lat="48.30861" lon="-1.6696">
        <ele>63.7</ele>
        <time>2019-07-16T10:18:15Z</time>
      </trkpt>
      <trkpt lat="48.30864" lon="-1.6696">
        <ele>63.6</ele>
        <time>2019-07-16T10:18:16Z</time>
      </trkpt>
      <trkpt lat="48.30867" lon="-1.66961">
        <ele>63.5</ele>
        <time>2019-07-16T10:18:17Z</time>
      </trkpt>
      <trkpt lat="48.30869" lon="-1.66962">
        <ele>63.2</ele>
        <time>2019-07-16T10:18:18Z</time>
      </trkpt>
      <trkpt lat="48.30872" lon="-1.66963">
        <ele>62.8</ele>
        <time>2019-07-16T10:18:19Z</time>
      </trkpt>
      <trkpt lat="48.30874" lon="-1.66963">
        <ele>62.8</ele>
        <time>2019-07-16T10:18:20Z</time>
      </trkpt>
      <trkpt lat="48.30876" lon="-1.66965">
        <ele>62.5</ele>
        <time>2019-07-16T10:18:21Z</time>
      </trkpt>
      <trkpt lat="48.30878" lon="-1.66966">
        <ele>62.4</ele>
        <time>2019-07-16T10:18:22Z</time>
      </trkpt>
      <trkpt lat="48.30881" lon="-1.66968">
        <ele>62.4</ele>
        <time>2019-07-16T10:18:23Z</time>
      </trkpt>
      <trkpt lat="48.30883" lon="-1.66969">
        <ele>62.4</ele>
        <time>2019-07-16T10:18:24Z</time>
      </trkpt>
      <trkpt lat="48.30886" lon="-1.6697">
        <ele>62.7</ele>
        <time>2019-07-16T10:18:25Z</time>
      </trkpt>
      <trkpt lat="48.30888" lon="-1.66971">
        <ele>62.8</ele>
        <time>2019-07-16T10:18:26Z</time>
      </trkpt>
      <trkpt lat="48.3089" lon="-1.66972">
        <ele>62.9</ele>
        <time>2019-07-16T10:18:27Z</time>
      </trkpt>
      <trkpt lat="48.30893" lon="-1.66973">
        <ele>63.3</ele>
        <time>2019-07-16T10:18:28Z</time>
      </trkpt>
      <trkpt lat="48.30895" lon="-1.66974">
        <ele>63.6</ele>
        <time>2019-07-16T10:18:29Z</time>
      </trkpt>
      <trkpt lat="48.30897" lon="-1.66976">
        <ele>63.8</ele>
        <time>2019-07-16T10:18:30Z</time>
      </trkpt>
      <trkpt lat="48.30899" lon="-1.66978">
        <ele>63.9</ele>
        <time>2019-07-16T10:18:31Z</time>
      </trkpt>
      <trkpt lat="48.30901" lon="-1.66979">
        <ele>63.9</ele>
        <time>2019-07-16T10:18:32Z</time>
      </trkpt>
      <trkpt lat="48.30903" lon="-1.66981">
        <ele>63.8</ele>
        <time>2019-07-16T10:18:33Z</time>
      </trkpt>
      <trkpt lat="48.30906" lon="-1.66983">
        <ele>63.4</ele>
        <time>2019-07-16T10:18:34Z</time>
      </trkpt>
      <trkpt lat="48.30908" lon="-1.66984">
        <ele>62.7</ele>
        <time>2019-07-16T10:18:35Z</time>
      </trkpt>
      <trkpt lat="48.3091" lon="-1.66985">
        <ele>62.5</ele>
        <time>2019-07-16T10:18:36Z</time>
      </trkpt>
      <trkpt lat="48.30912" lon="-1.66985">
        <ele>62.2</ele>
        <time>2019-07-16T10:18:37Z</time>
      </trkpt>
      <trkpt lat="48.30914" lon="-1.66985">
        <ele>62</ele>
        <time>2019-07-16T10:18:38Z</time>
      </trkpt>
      <trkpt lat="48.30916" lon="-1.66986">
        <ele>61.5</ele>
        <time>2019-07-16T10:18:39Z</time>
      </trkpt>
      <trkpt lat="48.30922" lon="-1.66989">
        <ele>59.6</ele>
        <time>2019-07-16T10:19:57Z</time>
      </trkpt>
      <trkpt lat="48.30924" lon="-1.66989">
        <ele>59.8</ele>
        <time>2019-07-16T10:19:58Z</time>
      </trkpt>
      <trkpt lat="48.30925" lon="-1.66989">
        <ele>60.1</ele>
        <time>2019-07-16T10:19:59Z</time>
      </trkpt>
      <trkpt lat="48.30927" lon="-1.66989">
        <ele>60.3</ele>
        <time>2019-07-16T10:20:00Z</time>
      </trkpt>
      <trkpt lat="48.30929" lon="-1.66989">
        <ele>60.5</ele>
        <time>2019-07-16T10:20:01Z</time>
      </trkpt>
      <trkpt lat="48.30931" lon="-1.6699">
        <ele>60.8</ele>
        <time>2019-07-16T10:20:02Z</time>
      </trkpt>
      <trkpt lat="48.30933" lon="-1.66989">
        <ele>61</ele>
        <time>2019-07-16T10:20:03Z</time>
      </trkpt>
      <trkpt lat="48.30934" lon="-1.66989">
        <ele>61.4</ele>
        <time>2019-07-16T10:20:04Z</time>
      </trkpt>
      <trkpt lat="48.30936" lon="-1.66988">
        <ele>61.8</ele>
        <time>2019-07-16T10:20:05Z</time>
      </trkpt>
      <trkpt lat="48.30938" lon="-1.66988">
        <ele>62.1</ele>
        <time>2019-07-16T10:20:06Z</time>
      </trkpt>
      <trkpt lat="48.3094" lon="-1.66988">
        <ele>62.6</ele>
        <time>2019-07-16T10:20:07Z</time>
      </trkpt>
      <trkpt lat="48.30941" lon="-1.66988">
        <ele>63.2</ele>
        <time>2019-07-16T10:20:08Z</time>
      </trkpt>
      <trkpt lat="48.30943" lon="-1.66988">
        <ele>63.8</ele>
        <time>2019-07-16T10:20:09Z</time>
      </trkpt>
      <trkpt lat="48.30945" lon="-1.66987">
        <ele>64</ele>
        <time>2019-07-16T10:20:10Z</time>
      </trkpt>
      <trkpt lat="48.30947" lon="-1.66986">
        <ele>64.1</ele>
        <time>2019-07-16T10:20:11Z</time>
      </trkpt>
      <trkpt lat="48.30949" lon="-1.66985">
        <ele>64.1</ele>
        <time>2019-07-16T10:20:12Z</time>
      </trkpt>
      <trkpt lat="48.30951" lon="-1.66985">
        <ele>64.2</ele>
        <time>2019-07-16T10:20:13Z</time>
      </trkpt>
      <trkpt lat="48.30953" lon="-1.66984">
        <ele>64.3</ele>
        <time>2019-07-16T10:20:14Z</time>
      </trkpt>
      <trkpt lat="48.30955" lon="-1.66982">
        <ele>64.3</ele>
        <time>2019-07-16T10:20:15Z</time>
      </trkpt>
      <trkpt lat="48.30957" lon="-1.6698">
        <ele>64.5</ele>
        <time>2019-07-16T10:20:16Z</time>
      </trkpt>
      <trkpt lat="48.30959" lon="-1.6698">
        <ele>64.8</ele>
        <time>2019-07-16T10:20:17Z</time>
      </trkpt>
      <trkpt lat="48.3096" lon="-1.66978">
        <ele>64.9</ele>
        <time>2019-07-16T10:20:18Z</time>
      </trkpt>
      <trkpt lat="48.30962" lon="-1.66977">
        <ele>65</ele>
        <time>2019-07-16T10:20:19Z</time>
      </trkpt>
      <trkpt lat="48.30964" lon="-1.66976">
        <ele>65</ele>
        <time>2019-07-16T10:20:20Z</time>
      </trkpt>
      <trkpt lat="48.30965" lon="-1.66976">
        <ele>65</ele>
        <time>2019-07-16T10:20:21Z</time>
      </trkpt>
      <trkpt lat="48.30967" lon="-1.66976">
        <ele>65.1</ele>
        <time>2019-07-16T10:20:22Z</time>
      </trkpt>
      <trkpt lat="48.30969" lon="-1.66975">
        <ele>65.3</ele>
        <time>2019-07-16T10:20:23Z</time>
      </trkpt>
      <trkpt lat="48.30971" lon="-1.66975">
        <ele>65.5</ele>
        <time>2019-07-16T10:20:24Z</time>
      </trkpt>
      <trkpt lat="48.30973" lon="-1.66975">
        <ele>65.9</ele>
        <time>2019-07-16T10:20:25Z</time>
      </trkpt>
      <trkpt lat="48.30975" lon="-1.66975">
        <ele>66.3</ele>
        <time>2019-07-16T10:20:26Z</time>
      </trkpt>
      <trkpt lat="48.30977" lon="-1.66975">
        <ele>66.3</ele>
        <time>2019-07-16T10:20:27Z</time>
      </trkpt>
      <trkpt lat="48.30978" lon="-1.66975">
        <ele>66.5</ele>
        <time>2019-07-16T10:20:28Z</time>
      </trkpt>
      <trkpt lat="48.3098" lon="-1.66974">
        <ele>67</ele>
        <time>2019-07-16T10:20:29Z</time>
      </trkpt>
      <trkpt lat="48.30982" lon="-1.66973">
        <ele>67.2</ele>
        <time>2019-07-16T10:20:30Z</time>
      </trkpt>
      <trkpt lat="48.30984" lon="-1.66973">
        <ele>67.3</ele>
        <time>2019-07-16T10:20:31Z</time>
      </trkpt>
      <trkpt lat="48.30986" lon="-1.66972">
        <ele>67.3</ele>
        <time>2019-07-16T10:20:32Z</time>
      </trkpt>
      <trkpt lat="48.30987" lon="-1.66972">
        <ele>67.5</ele>
        <time>2019-07-16T10:20:33Z</time>
      </trkpt>
      <trkpt lat="48.30989" lon="-1.66972">
        <ele>67.8</ele>
        <time>2019-07-16T10:20:34Z</time>
      </trkpt>
      <trkpt lat="48.30991" lon="-1.66971">
        <ele>67.4</ele>
        <time>2019-07-16T10:20:35Z</time>
      </trkpt>
      <trkpt lat="48.30993" lon="-1.6697">
        <ele>67</ele>
        <time>2019-07-16T10:20:36Z</time>
      </trkpt>
      <trkpt lat="48.30995" lon="-1.66968">
        <ele>66.8</ele>
        <time>2019-07-16T10:20:37Z</time>
      </trkpt>
      <trkpt lat="48.30997" lon="-1.66967">
        <ele>67</ele>
        <time>2019-07-16T10:20:38Z</time>
      </trkpt>
      <trkpt lat="48.30999" lon="-1.66966">
        <ele>66.8</ele>
        <time>2019-07-16T10:20:39Z</time>
      </trkpt>
      <trkpt lat="48.31001" lon="-1.66966">
        <ele>67.2</ele>
        <time>2019-07-16T10:20:40Z</time>
      </trkpt>
      <trkpt lat="48.31003" lon="-1.66965">
        <ele>67.3</ele>
        <time>2019-07-16T10:20:41Z</time>
      </trkpt>
      <trkpt lat="48.31005" lon="-1.66965">
        <ele>67.8</ele>
        <time>2019-07-16T10:20:42Z</time>
      </trkpt>
      <trkpt lat="48.31007" lon="-1.66965">
        <ele>68.1</ele>
        <time>2019-07-16T10:20:43Z</time>
      </trkpt>
      <trkpt lat="48.31008" lon="-1.66965">
        <ele>68.3</ele>
        <time>2019-07-16T10:20:44Z</time>
      </trkpt>
      <trkpt lat="48.3101" lon="-1.66965">
        <ele>68.6</ele>
        <time>2019-07-16T10:20:45Z</time>
      </trkpt>
      <trkpt lat="48.31012" lon="-1.66964">
        <ele>68.6</ele>
        <time>2019-07-16T10:20:46Z</time>
      </trkpt>
      <trkpt lat="48.31014" lon="-1.66964">
        <ele>68.9</ele>
        <time>2019-07-16T10:20:47Z</time>
      </trkpt>
      <trkpt lat="48.31016" lon="-1.66964">
        <ele>69</ele>
        <time>2019-07-16T10:20:48Z</time>
      </trkpt>
      <trkpt lat="48.31018" lon="-1.66963">
        <ele>69.2</ele>
        <time>2019-07-16T10:20:49Z</time>
      </trkpt>
      <trkpt lat="48.31019" lon="-1.66964">
        <ele>69.8</ele>
        <time>2019-07-16T10:20:50Z</time>
      </trkpt>
      <trkpt lat="48.31021" lon="-1.66963">
        <ele>70</ele>
        <time>2019-07-16T10:20:51Z</time>
      </trkpt>
      <trkpt lat="48.31023" lon="-1.66962">
        <ele>69.9</ele>
        <time>2019-07-16T10:20:52Z</time>
      </trkpt>
      <trkpt lat="48.31025" lon="-1.66962">
        <ele>70.2</ele>
        <time>2019-07-16T10:20:53Z</time>
      </trkpt>
      <trkpt lat="48.31027" lon="-1.66962">
        <ele>70.3</ele>
        <time>2019-07-16T10:20:54Z</time>
      </trkpt>
      <trkpt lat="48.31028" lon="-1.66961">
        <ele>70.5</ele>
        <time>2019-07-16T10:20:55Z</time>
      </trkpt>
      <trkpt lat="48.3103" lon="-1.66961">
        <ele>71</ele>
        <time>2019-07-16T10:20:56Z</time>
      </trkpt>
      <trkpt lat="48.31032" lon="-1.66961">
        <ele>71.2</ele>
        <time>2019-07-16T10:20:57Z</time>
      </trkpt>
      <trkpt lat="48.31034" lon="-1.66961">
        <ele>71.3</ele>
        <time>2019-07-16T10:20:58Z</time>
      </trkpt>
      <trkpt lat="48.31036" lon="-1.66961">
        <ele>71.3</ele>
        <time>2019-07-16T10:20:59Z</time>
      </trkpt>
      <trkpt lat="48.31038" lon="-1.66961">
        <ele>71.4</ele>
        <time>2019-07-16T10:21:00Z</time>
      </trkpt>
      <trkpt lat="48.31039" lon="-1.66961">
        <ele>71.6</ele>
        <time>2019-07-16T10:21:01Z</time>
      </trkpt>
      <trkpt lat="48.31041" lon="-1.6696">
        <ele>72</ele>
        <time>2019-07-16T10:21:02Z</time>
      </trkpt>
      <trkpt lat="48.31044" lon="-1.6696">
        <ele>72.4</ele>
        <time>2019-07-16T10:21:03Z</time>
      </trkpt>
      <trkpt lat="48.31045" lon="-1.66961">
        <ele>73.1</ele>
        <time>2019-07-16T10:21:04Z</time>
      </trkpt>
      <trkpt lat="48.31047" lon="-1.66961">
        <ele>73.3</ele>
        <time>2019-07-16T10:21:05Z</time>
      </trkpt>
      <trkpt lat="48.31049" lon="-1.66961">
        <ele>73.7</ele>
        <time>2019-07-16T10:21:06Z</time>
      </trkpt>
      <trkpt lat="48.31052" lon="-1.66959">
        <ele>72.8</ele>
        <time>2019-07-16T10:21:07Z</time>
      </trkpt>
      <trkpt lat="48.31054" lon="-1.66958">
        <ele>72.5</ele>
        <time>2019-07-16T10:21:08Z</time>
      </trkpt>
      <trkpt lat="48.31057" lon="-1.66958">
        <ele>72.2</ele>
        <time>2019-07-16T10:21:09Z</time>
      </trkpt>
      <trkpt lat="48.31059" lon="-1.66959">
        <ele>72.3</ele>
        <time>2019-07-16T10:21:10Z</time>
      </trkpt>
      <trkpt lat="48.31061" lon="-1.66959">
        <ele>72.4</ele>
        <time>2019-07-16T10:21:11Z</time>
      </trkpt>
      <trkpt lat="48.31063" lon="-1.66959">
        <ele>72</ele>
        <time>2019-07-16T10:21:12Z</time>
      </trkpt>
      <trkpt lat="48.31065" lon="-1.66959">
        <ele>72</ele>
        <time>2019-07-16T10:21:13Z</time>
      </trkpt>
      <trkpt lat="48.31067" lon="-1.66959">
        <ele>72.1</ele>
        <time>2019-07-16T10:21:14Z</time>
      </trkpt>
      <trkpt lat="48.31069" lon="-1.6696">
        <ele>72.1</ele>
        <time>2019-07-16T10:21:15Z</time>
      </trkpt>
      <trkpt lat="48.31071" lon="-1.66961">
        <ele>72.2</ele>
        <time>2019-07-16T10:21:16Z</time>
      </trkpt>
      <trkpt lat="48.31072" lon="-1.66962">
        <ele>72.5</ele>
        <time>2019-07-16T10:21:17Z</time>
      </trkpt>
      <trkpt lat="48.31074" lon="-1.66962">
        <ele>72.7</ele>
        <time>2019-07-16T10:21:18Z</time>
      </trkpt>
      <trkpt lat="48.31076" lon="-1.66964">
        <ele>72.9</ele>
        <time>2019-07-16T10:21:19Z</time>
      </trkpt>
      <trkpt lat="48.31078" lon="-1.66965">
        <ele>73</ele>
        <time>2019-07-16T10:21:20Z</time>
      </trkpt>
      <trkpt lat="48.3108" lon="-1.66966">
        <ele>73.6</ele>
        <time>2019-07-16T10:21:21Z</time>
      </trkpt>
      <trkpt lat="48.31081" lon="-1.66966">
        <ele>74.1</ele>
        <time>2019-07-16T10:21:22Z</time>
      </trkpt>
      <trkpt lat="48.31083" lon="-1.66967">
        <ele>74.7</ele>
        <time>2019-07-16T10:21:23Z</time>
      </trkpt>
      <trkpt lat="48.31085" lon="-1.66968">
        <ele>75.2</ele>
        <time>2019-07-16T10:21:24Z</time>
      </trkpt>
      <trkpt lat="48.31086" lon="-1.66968">
        <ele>75.2</ele>
        <time>2019-07-16T10:21:25Z</time>
      </trkpt>
      <trkpt lat="48.31089" lon="-1.66969">
        <ele>75.4</ele>
        <time>2019-07-16T10:21:26Z</time>
      </trkpt>
      <trkpt lat="48.3109" lon="-1.66969">
        <ele>75.7</ele>
        <time>2019-07-16T10:21:27Z</time>
      </trkpt>
      <trkpt lat="48.31092" lon="-1.66968">
        <ele>75.7</ele>
        <time>2019-07-16T10:21:28Z</time>
      </trkpt>
      <trkpt lat="48.31094" lon="-1.66968">
        <ele>75.8</ele>
        <time>2019-07-16T10:21:29Z</time>
      </trkpt>
      <trkpt lat="48.31096" lon="-1.66968">
        <ele>75.7</ele>
        <time>2019-07-16T10:21:30Z</time>
      </trkpt>
      <trkpt lat="48.31097" lon="-1.66969">
        <ele>75.7</ele>
        <time>2019-07-16T10:21:31Z</time>
      </trkpt>
      <trkpt lat="48.311" lon="-1.66969">
        <ele>76.1</ele>
        <time>2019-07-16T10:21:32Z</time>
      </trkpt>
      <trkpt lat="48.31102" lon="-1.6697">
        <ele>76.8</ele>
        <time>2019-07-16T10:21:33Z</time>
      </trkpt>
      <trkpt lat="48.31104" lon="-1.6697">
        <ele>77.6</ele>
        <time>2019-07-16T10:21:34Z</time>
      </trkpt>
      <trkpt lat="48.31105" lon="-1.66971">
        <ele>78.1</ele>
        <time>2019-07-16T10:21:35Z</time>
      </trkpt>
      <trkpt lat="48.31107" lon="-1.66972">
        <ele>78.4</ele>
        <time>2019-07-16T10:21:36Z</time>
      </trkpt>
      <trkpt lat="48.31109" lon="-1.66972">
        <ele>78.9</ele>
        <time>2019-07-16T10:21:37Z</time>
      </trkpt>
      <trkpt lat="48.31111" lon="-1.66972">
        <ele>79.5</ele>
        <time>2019-07-16T10:21:38Z</time>
      </trkpt>
      <trkpt lat="48.31113" lon="-1.66973">
        <ele>80.4</ele>
        <time>2019-07-16T10:21:39Z</time>
      </trkpt>
      <trkpt lat="48.31115" lon="-1.66973">
        <ele>81.1</ele>
        <time>2019-07-16T10:21:40Z</time>
      </trkpt>
      <trkpt lat="48.31117" lon="-1.66974">
        <ele>81.9</ele>
        <time>2019-07-16T10:21:41Z</time>
      </trkpt>
      <trkpt lat="48.31119" lon="-1.66974">
        <ele>82.4</ele>
        <time>2019-07-16T10:21:42Z</time>
      </trkpt>
      <trkpt lat="48.31121" lon="-1.66974">
        <ele>82.5</ele>
        <time>2019-07-16T10:21:43Z</time>
      </trkpt>
      <trkpt lat="48.31123" lon="-1.66973">
        <ele>82.1</ele>
        <time>2019-07-16T10:21:44Z</time>
      </trkpt>
      <trkpt lat="48.31125" lon="-1.66973">
        <ele>82</ele>
        <time>2019-07-16T10:21:45Z</time>
      </trkpt>
      <trkpt lat="48.31127" lon="-1.66973">
        <ele>81.7</ele>
        <time>2019-07-16T10:21:46Z</time>
      </trkpt>
      <trkpt lat="48.31129" lon="-1.66973">
        <ele>81.6</ele>
        <time>2019-07-16T10:21:47Z</time>
      </trkpt>
      <trkpt lat="48.31131" lon="-1.66973">
        <ele>81.5</ele>
        <time>2019-07-16T10:21:48Z</time>
      </trkpt>
      <trkpt lat="48.31133" lon="-1.66973">
        <ele>81.5</ele>
        <time>2019-07-16T10:21:49Z</time>
      </trkpt>
      <trkpt lat="48.31136" lon="-1.66973">
        <ele>81.7</ele>
        <time>2019-07-16T10:21:50Z</time>
      </trkpt>
      <trkpt lat="48.31138" lon="-1.66973">
        <ele>81.8</ele>
        <time>2019-07-16T10:21:51Z</time>
      </trkpt>
      <trkpt lat="48.3114" lon="-1.66973">
        <ele>82.1</ele>
        <time>2019-07-16T10:21:52Z</time>
      </trkpt>
      <trkpt lat="48.31142" lon="-1.66973">
        <ele>82.3</ele>
        <time>2019-07-16T10:21:53Z</time>
      </trkpt>
      <trkpt lat="48.31144" lon="-1.66973">
        <ele>82.6</ele>
        <time>2019-07-16T10:21:54Z</time>
      </trkpt>
      <trkpt lat="48.31146" lon="-1.66973">
        <ele>82.9</ele>
        <time>2019-07-16T10:21:55Z</time>
      </trkpt>
      <trkpt lat="48.31148" lon="-1.66974">
        <ele>83.1</ele>
        <time>2019-07-16T10:21:56Z</time>
      </trkpt>
      <trkpt lat="48.3115" lon="-1.66974">
        <ele>83.1</ele>
        <time>2019-07-16T10:21:57Z</time>
      </trkpt>
      <trkpt lat="48.31153" lon="-1.66973">
        <ele>82.7</ele>
        <time>2019-07-16T10:21:58Z</time>
      </trkpt>
      <trkpt lat="48.31155" lon="-1.66973">
        <ele>82.3</ele>
        <time>2019-07-16T10:21:59Z</time>
      </trkpt>
      <trkpt lat="48.31157" lon="-1.66973">
        <ele>81.9</ele>
        <time>2019-07-16T10:22:00Z</time>
      </trkpt>
      <trkpt lat="48.31159" lon="-1.66973">
        <ele>81.6</ele>
        <time>2019-07-16T10:22:01Z</time>
      </trkpt>
      <trkpt lat="48.31162" lon="-1.66973">
        <ele>81.4</ele>
        <time>2019-07-16T10:22:02Z</time>
      </trkpt>
      <trkpt lat="48.31164" lon="-1.66973">
        <ele>81.3</ele>
        <time>2019-07-16T10:22:03Z</time>
      </trkpt>
      <trkpt lat="48.31166" lon="-1.66972">
        <ele>81.4</ele>
        <time>2019-07-16T10:22:04Z</time>
      </trkpt>
      <trkpt lat="48.31168" lon="-1.66973">
        <ele>81.6</ele>
        <time>2019-07-16T10:22:05Z</time>
      </trkpt>
      <trkpt lat="48.31171" lon="-1.66973">
        <ele>81.5</ele>
        <time>2019-07-16T10:22:06Z</time>
      </trkpt>
      <trkpt lat="48.31173" lon="-1.66972">
        <ele>81.4</ele>
        <time>2019-07-16T10:22:07Z</time>
      </trkpt>
      <trkpt lat="48.31175" lon="-1.66972">
        <ele>81.5</ele>
        <time>2019-07-16T10:22:08Z</time>
      </trkpt>
      <trkpt lat="48.31178" lon="-1.6697">
        <ele>81.4</ele>
        <time>2019-07-16T10:22:09Z</time>
      </trkpt>
      <trkpt lat="48.31179" lon="-1.66969">
        <ele>81.1</ele>
        <time>2019-07-16T10:22:10Z</time>
      </trkpt>
      <trkpt lat="48.31182" lon="-1.66969">
        <ele>81</ele>
        <time>2019-07-16T10:22:11Z</time>
      </trkpt>
      <trkpt lat="48.31184" lon="-1.66967">
        <ele>80.5</ele>
        <time>2019-07-16T10:22:12Z</time>
      </trkpt>
      <trkpt lat="48.31186" lon="-1.66965">
        <ele>80</ele>
        <time>2019-07-16T10:22:13Z</time>
      </trkpt>
      <trkpt lat="48.31189" lon="-1.66964">
        <ele>79.8</ele>
        <time>2019-07-16T10:22:14Z</time>
      </trkpt>
      <trkpt lat="48.31191" lon="-1.66963">
        <ele>79.6</ele>
        <time>2019-07-16T10:22:15Z</time>
      </trkpt>
      <trkpt lat="48.31193" lon="-1.66962">
        <ele>79.2</ele>
        <time>2019-07-16T10:22:16Z</time>
      </trkpt>
      <trkpt lat="48.31195" lon="-1.6696">
        <ele>79</ele>
        <time>2019-07-16T10:22:17Z</time>
      </trkpt>
      <trkpt lat="48.31197" lon="-1.6696">
        <ele>79.1</ele>
        <time>2019-07-16T10:22:18Z</time>
      </trkpt>
      <trkpt lat="48.312" lon="-1.66959">
        <ele>79.1</ele>
        <time>2019-07-16T10:22:19Z</time>
      </trkpt>
      <trkpt lat="48.31202" lon="-1.66958">
        <ele>79.2</ele>
        <time>2019-07-16T10:22:20Z</time>
      </trkpt>
      <trkpt lat="48.31204" lon="-1.66957">
        <ele>79.1</ele>
        <time>2019-07-16T10:22:21Z</time>
      </trkpt>
      <trkpt lat="48.31205" lon="-1.66957">
        <ele>79.3</ele>
        <time>2019-07-16T10:22:22Z</time>
      </trkpt>
      <trkpt lat="48.31207" lon="-1.66956">
        <ele>79.3</ele>
        <time>2019-07-16T10:22:23Z</time>
      </trkpt>
      <trkpt lat="48.31209" lon="-1.66955">
        <ele>79.5</ele>
        <time>2019-07-16T10:22:24Z</time>
      </trkpt>
      <trkpt lat="48.31211" lon="-1.66954">
        <ele>79.5</ele>
        <time>2019-07-16T10:22:25Z</time>
      </trkpt>
      <trkpt lat="48.31213" lon="-1.66953">
        <ele>79.6</ele>
        <time>2019-07-16T10:22:26Z</time>
      </trkpt>
      <trkpt lat="48.31216" lon="-1.66952">
        <ele>79.8</ele>
        <time>2019-07-16T10:22:27Z</time>
      </trkpt>
      <trkpt lat="48.31218" lon="-1.66951">
        <ele>80.1</ele>
        <time>2019-07-16T10:22:28Z</time>
      </trkpt>
      <trkpt lat="48.3122" lon="-1.6695">
        <ele>80.2</ele>
        <time>2019-07-16T10:22:29Z</time>
      </trkpt>
      <trkpt lat="48.31222" lon="-1.6695">
        <ele>80.3</ele>
        <time>2019-07-16T10:22:30Z</time>
      </trkpt>
      <trkpt lat="48.31224" lon="-1.66949">
        <ele>80.6</ele>
        <time>2019-07-16T10:22:31Z</time>
      </trkpt>
      <trkpt lat="48.31226" lon="-1.66949">
        <ele>81.1</ele>
        <time>2019-07-16T10:22:32Z</time>
      </trkpt>
      <trkpt lat="48.31228" lon="-1.66948">
        <ele>81.5</ele>
        <time>2019-07-16T10:22:33Z</time>
      </trkpt>
      <trkpt lat="48.3123" lon="-1.66947">
        <ele>81.5</ele>
        <time>2019-07-16T10:22:34Z</time>
      </trkpt>
      <trkpt lat="48.31233" lon="-1.66946">
        <ele>81.5</ele>
        <time>2019-07-16T10:22:35Z</time>
      </trkpt>
      <trkpt lat="48.31236" lon="-1.66946">
        <ele>82</ele>
        <time>2019-07-16T10:22:36Z</time>
      </trkpt>
      <trkpt lat="48.31238" lon="-1.66946">
        <ele>82.4</ele>
        <time>2019-07-16T10:22:37Z</time>
      </trkpt>
      <trkpt lat="48.31241" lon="-1.66946">
        <ele>82.5</ele>
        <time>2019-07-16T10:22:38Z</time>
      </trkpt>
      <trkpt lat="48.31244" lon="-1.66945">
        <ele>82.6</ele>
        <time>2019-07-16T10:22:39Z</time>
      </trkpt>
      <trkpt lat="48.31246" lon="-1.66945">
        <ele>82.8</ele>
        <time>2019-07-16T10:22:40Z</time>
      </trkpt>
      <trkpt lat="48.31249" lon="-1.66945">
        <ele>83</ele>
        <time>2019-07-16T10:22:41Z</time>
      </trkpt>
      <trkpt lat="48.31252" lon="-1.66944">
        <ele>82.8</ele>
        <time>2019-07-16T10:22:42Z</time>
      </trkpt>
      <trkpt lat="48.31255" lon="-1.66943">
        <ele>82.9</ele>
        <time>2019-07-16T10:22:43Z</time>
      </trkpt>
      <trkpt lat="48.31257" lon="-1.66943">
        <ele>82.8</ele>
        <time>2019-07-16T10:22:44Z</time>
      </trkpt>
      <trkpt lat="48.3126" lon="-1.66943">
        <ele>83.1</ele>
        <time>2019-07-16T10:22:45Z</time>
      </trkpt>
      <trkpt lat="48.31262" lon="-1.66943">
        <ele>83.3</ele>
        <time>2019-07-16T10:22:46Z</time>
      </trkpt>
      <trkpt lat="48.31265" lon="-1.66943">
        <ele>83.7</ele>
        <time>2019-07-16T10:22:47Z</time>
      </trkpt>
      <trkpt lat="48.31267" lon="-1.66943">
        <ele>83.2</ele>
        <time>2019-07-16T10:22:48Z</time>
      </trkpt>
      <trkpt lat="48.3127" lon="-1.66943">
        <ele>83</ele>
        <time>2019-07-16T10:22:49Z</time>
      </trkpt>
      <trkpt lat="48.31273" lon="-1.66943">
        <ele>83.1</ele>
        <time>2019-07-16T10:22:50Z</time>
      </trkpt>
      <trkpt lat="48.31276" lon="-1.66943">
        <ele>82.7</ele>
        <time>2019-07-16T10:22:51Z</time>
      </trkpt>
      <trkpt lat="48.31279" lon="-1.66944">
        <ele>82.7</ele>
        <time>2019-07-16T10:22:52Z</time>
      </trkpt>
      <trkpt lat="48.31281" lon="-1.66942">
        <ele>81.1</ele>
        <time>2019-07-16T10:22:53Z</time>
      </trkpt>
      <trkpt lat="48.31284" lon="-1.66942">
        <ele>80.9</ele>
        <time>2019-07-16T10:22:54Z</time>
      </trkpt>
      <trkpt lat="48.31287" lon="-1.66943">
        <ele>80.8</ele>
        <time>2019-07-16T10:22:55Z</time>
      </trkpt>
      <trkpt lat="48.3129" lon="-1.66943">
        <ele>81.1</ele>
        <time>2019-07-16T10:22:56Z</time>
      </trkpt>
      <trkpt lat="48.31292" lon="-1.66944">
        <ele>81.3</ele>
        <time>2019-07-16T10:22:57Z</time>
      </trkpt>
      <trkpt lat="48.31295" lon="-1.66944">
        <ele>81.8</ele>
        <time>2019-07-16T10:22:58Z</time>
      </trkpt>
      <trkpt lat="48.31299" lon="-1.66944">
        <ele>82.3</ele>
        <time>2019-07-16T10:22:59Z</time>
      </trkpt>
      <trkpt lat="48.31302" lon="-1.66944">
        <ele>82.8</ele>
        <time>2019-07-16T10:23:00Z</time>
      </trkpt>
      <trkpt lat="48.31305" lon="-1.66945">
        <ele>83.3</ele>
        <time>2019-07-16T10:23:01Z</time>
      </trkpt>
      <trkpt lat="48.31307" lon="-1.66946">
        <ele>83.7</ele>
        <time>2019-07-16T10:23:02Z</time>
      </trkpt>
      <trkpt lat="48.3131" lon="-1.66946">
        <ele>84.1</ele>
        <time>2019-07-16T10:23:03Z</time>
      </trkpt>
      <trkpt lat="48.31313" lon="-1.66945">
        <ele>84.2</ele>
        <time>2019-07-16T10:23:04Z</time>
      </trkpt>
      <trkpt lat="48.31316" lon="-1.66945">
        <ele>84.7</ele>
        <time>2019-07-16T10:23:05Z</time>
      </trkpt>
      <trkpt lat="48.31319" lon="-1.66946">
        <ele>85.1</ele>
        <time>2019-07-16T10:23:06Z</time>
      </trkpt>
      <trkpt lat="48.31322" lon="-1.66945">
        <ele>84.9</ele>
        <time>2019-07-16T10:23:07Z</time>
      </trkpt>
      <trkpt lat="48.31324" lon="-1.66944">
        <ele>84.8</ele>
        <time>2019-07-16T10:23:08Z</time>
      </trkpt>
      <trkpt lat="48.31327" lon="-1.66943">
        <ele>84.7</ele>
        <time>2019-07-16T10:23:09Z</time>
      </trkpt>
      <trkpt lat="48.3133" lon="-1.66941">
        <ele>84.9</ele>
        <time>2019-07-16T10:23:10Z</time>
      </trkpt>
      <trkpt lat="48.31332" lon="-1.6694">
        <ele>85.1</ele>
        <time>2019-07-16T10:23:11Z</time>
      </trkpt>
      <trkpt lat="48.31335" lon="-1.66938">
        <ele>84.9</ele>
        <time>2019-07-16T10:23:12Z</time>
      </trkpt>
      <trkpt lat="48.31338" lon="-1.66937">
        <ele>84.7</ele>
        <time>2019-07-16T10:23:13Z</time>
      </trkpt>
      <trkpt lat="48.3134" lon="-1.66935">
        <ele>84.8</ele>
        <time>2019-07-16T10:23:14Z</time>
      </trkpt>
      <trkpt lat="48.31343" lon="-1.66934">
        <ele>85.3</ele>
        <time>2019-07-16T10:23:15Z</time>
      </trkpt>
      <trkpt lat="48.31345" lon="-1.66932">
        <ele>85.3</ele>
        <time>2019-07-16T10:23:16Z</time>
      </trkpt>
      <trkpt lat="48.31348" lon="-1.6693">
        <ele>85.6</ele>
        <time>2019-07-16T10:23:17Z</time>
      </trkpt>
      <trkpt lat="48.31351" lon="-1.66928">
        <ele>85.6</ele>
        <time>2019-07-16T10:23:18Z</time>
      </trkpt>
      <trkpt lat="48.31354" lon="-1.66926">
        <ele>85.2</ele>
        <time>2019-07-16T10:23:19Z</time>
      </trkpt>
      <trkpt lat="48.31357" lon="-1.66924">
        <ele>85</ele>
        <time>2019-07-16T10:23:20Z</time>
      </trkpt>
      <trkpt lat="48.3136" lon="-1.66921">
        <ele>85</ele>
        <time>2019-07-16T10:23:21Z</time>
      </trkpt>
      <trkpt lat="48.31363" lon="-1.66919">
        <ele>84.9</ele>
        <time>2019-07-16T10:23:22Z</time>
      </trkpt>
      <trkpt lat="48.31365" lon="-1.66917">
        <ele>84.7</ele>
        <time>2019-07-16T10:23:23Z</time>
      </trkpt>
      <trkpt lat="48.31368" lon="-1.66914">
        <ele>84.7</ele>
        <time>2019-07-16T10:23:24Z</time>
      </trkpt>
      <trkpt lat="48.31371" lon="-1.66912">
        <ele>84.5</ele>
        <time>2019-07-16T10:23:25Z</time>
      </trkpt>
      <trkpt lat="48.31373" lon="-1.6691">
        <ele>84.6</ele>
        <time>2019-07-16T10:23:26Z</time>
      </trkpt>
      <trkpt lat="48.31376" lon="-1.66907">
        <ele>84</ele>
        <time>2019-07-16T10:23:27Z</time>
      </trkpt>
      <trkpt lat="48.31377" lon="-1.66904">
        <ele>83.4</ele>
        <time>2019-07-16T10:23:28Z</time>
      </trkpt>
      <trkpt lat="48.31379" lon="-1.66901">
        <ele>83.2</ele>
        <time>2019-07-16T10:23:29Z</time>
      </trkpt>
      <trkpt lat="48.31381" lon="-1.66897">
        <ele>83.4</ele>
        <time>2019-07-16T10:23:30Z</time>
      </trkpt>
      <trkpt lat="48.31383" lon="-1.66892">
        <ele>83.4</ele>
        <time>2019-07-16T10:23:31Z</time>
      </trkpt>
      <trkpt lat="48.31384" lon="-1.66887">
        <ele>83.1</ele>
        <time>2019-07-16T10:23:32Z</time>
      </trkpt>
      <trkpt lat="48.31384" lon="-1.66881">
        <ele>82.9</ele>
        <time>2019-07-16T10:23:33Z</time>
      </trkpt>
      <trkpt lat="48.31385" lon="-1.66876">
        <ele>82.8</ele>
        <time>2019-07-16T10:23:34Z</time>
      </trkpt>
      <trkpt lat="48.31386" lon="-1.6687">
        <ele>82.7</ele>
        <time>2019-07-16T10:23:35Z</time>
      </trkpt>
      <trkpt lat="48.31387" lon="-1.66865">
        <ele>82.7</ele>
        <time>2019-07-16T10:23:36Z</time>
      </trkpt>
      <trkpt lat="48.31387" lon="-1.6686">
        <ele>82.8</ele>
        <time>2019-07-16T10:23:37Z</time>
      </trkpt>
      <trkpt lat="48.31388" lon="-1.66854">
        <ele>83.1</ele>
        <time>2019-07-16T10:23:38Z</time>
      </trkpt>
      <trkpt lat="48.31389" lon="-1.66848">
        <ele>83.1</ele>
        <time>2019-07-16T10:23:39Z</time>
      </trkpt>
      <trkpt lat="48.3139" lon="-1.66843">
        <ele>83.2</ele>
        <time>2019-07-16T10:23:40Z</time>
      </trkpt>
      <trkpt lat="48.3139" lon="-1.66837">
        <ele>83.3</ele>
        <time>2019-07-16T10:23:41Z</time>
      </trkpt>
      <trkpt lat="48.31392" lon="-1.66831">
        <ele>83.4</ele>
        <time>2019-07-16T10:23:42Z</time>
      </trkpt>
      <trkpt lat="48.31393" lon="-1.66826">
        <ele>83.8</ele>
        <time>2019-07-16T10:23:43Z</time>
      </trkpt>
      <trkpt lat="48.31393" lon="-1.66821">
        <ele>84.2</ele>
        <time>2019-07-16T10:23:44Z</time>
      </trkpt>
      <trkpt lat="48.31395" lon="-1.66815">
        <ele>84.5</ele>
        <time>2019-07-16T10:23:45Z</time>
      </trkpt>
      <trkpt lat="48.31395" lon="-1.6681">
        <ele>84.6</ele>
        <time>2019-07-16T10:23:46Z</time>
      </trkpt>
      <trkpt lat="48.31397" lon="-1.66806">
        <ele>85</ele>
        <time>2019-07-16T10:23:47Z</time>
      </trkpt>
      <trkpt lat="48.31398" lon="-1.66801">
        <ele>85.4</ele>
        <time>2019-07-16T10:23:48Z</time>
      </trkpt>
      <trkpt lat="48.314" lon="-1.66796">
        <ele>85.6</ele>
        <time>2019-07-16T10:23:49Z</time>
      </trkpt>
      <trkpt lat="48.31402" lon="-1.66791">
        <ele>85.7</ele>
        <time>2019-07-16T10:23:50Z</time>
      </trkpt>
      <trkpt lat="48.31404" lon="-1.66787">
        <ele>85.2</ele>
        <time>2019-07-16T10:23:51Z</time>
      </trkpt>
      <trkpt lat="48.31406" lon="-1.66782">
        <ele>85.1</ele>
        <time>2019-07-16T10:23:52Z</time>
      </trkpt>
      <trkpt lat="48.31407" lon="-1.66777">
        <ele>85.2</ele>
        <time>2019-07-16T10:23:53Z</time>
      </trkpt>
      <trkpt lat="48.31408" lon="-1.66772">
        <ele>85.1</ele>
        <time>2019-07-16T10:23:54Z</time>
      </trkpt>
      <trkpt lat="48.3141" lon="-1.66767">
        <ele>84.8</ele>
        <time>2019-07-16T10:23:55Z</time>
      </trkpt>
      <trkpt lat="48.31413" lon="-1.66763">
        <ele>84.8</ele>
        <time>2019-07-16T10:23:56Z</time>
      </trkpt>
      <trkpt lat="48.31414" lon="-1.66758">
        <ele>84.8</ele>
        <time>2019-07-16T10:23:57Z</time>
      </trkpt>
      <trkpt lat="48.31416" lon="-1.66753">
        <ele>84.6</ele>
        <time>2019-07-16T10:23:58Z</time>
      </trkpt>
      <trkpt lat="48.31417" lon="-1.66749">
        <ele>84.6</ele>
        <time>2019-07-16T10:23:59Z</time>
      </trkpt>
      <trkpt lat="48.31419" lon="-1.66744">
        <ele>84.4</ele>
        <time>2019-07-16T10:24:00Z</time>
      </trkpt>
      <trkpt lat="48.3142" lon="-1.66739">
        <ele>84.6</ele>
        <time>2019-07-16T10:24:01Z</time>
      </trkpt>
      <trkpt lat="48.31421" lon="-1.66734">
        <ele>85</ele>
        <time>2019-07-16T10:24:02Z</time>
      </trkpt>
      <trkpt lat="48.31423" lon="-1.66729">
        <ele>84.7</ele>
        <time>2019-07-16T10:24:03Z</time>
      </trkpt>
      <trkpt lat="48.31425" lon="-1.66724">
        <ele>84.5</ele>
        <time>2019-07-16T10:24:04Z</time>
      </trkpt>
      <trkpt lat="48.31426" lon="-1.66719">
        <ele>84.8</ele>
        <time>2019-07-16T10:24:05Z</time>
      </trkpt>
      <trkpt lat="48.31428" lon="-1.66715">
        <ele>84.8</ele>
        <time>2019-07-16T10:24:06Z</time>
      </trkpt>
      <trkpt lat="48.31429" lon="-1.6671">
        <ele>85</ele>
        <time>2019-07-16T10:24:07Z</time>
      </trkpt>
      <trkpt lat="48.3143" lon="-1.66704">
        <ele>85.2</ele>
        <time>2019-07-16T10:24:08Z</time>
      </trkpt>
      <trkpt lat="48.31432" lon="-1.66699">
        <ele>85.2</ele>
        <time>2019-07-16T10:24:09Z</time>
      </trkpt>
      <trkpt lat="48.31433" lon="-1.66694">
        <ele>85.4</ele>
        <time>2019-07-16T10:24:10Z</time>
      </trkpt>
      <trkpt lat="48.31434" lon="-1.66689">
        <ele>85.8</ele>
        <time>2019-07-16T10:24:11Z</time>
      </trkpt>
      <trkpt lat="48.31436" lon="-1.66684">
        <ele>86.2</ele>
        <time>2019-07-16T10:24:12Z</time>
      </trkpt>
      <trkpt lat="48.31437" lon="-1.66679">
        <ele>86.7</ele>
        <time>2019-07-16T10:24:13Z</time>
      </trkpt>
      <trkpt lat="48.31438" lon="-1.66675">
        <ele>87.2</ele>
        <time>2019-07-16T10:24:14Z</time>
      </trkpt>
      <trkpt lat="48.3144" lon="-1.6667">
        <ele>87.6</ele>
        <time>2019-07-16T10:24:15Z</time>
      </trkpt>
      <trkpt lat="48.31441" lon="-1.66665">
        <ele>88</ele>
        <time>2019-07-16T10:24:16Z</time>
      </trkpt>
      <trkpt lat="48.31442" lon="-1.6666">
        <ele>88.2</ele>
        <time>2019-07-16T10:24:17Z</time>
      </trkpt>
      <trkpt lat="48.31444" lon="-1.66654">
        <ele>88.4</ele>
        <time>2019-07-16T10:24:18Z</time>
      </trkpt>
      <trkpt lat="48.31445" lon="-1.6665">
        <ele>88.5</ele>
        <time>2019-07-16T10:24:19Z</time>
      </trkpt>
      <trkpt lat="48.31447" lon="-1.66645">
        <ele>88.6</ele>
        <time>2019-07-16T10:24:20Z</time>
      </trkpt>
      <trkpt lat="48.31448" lon="-1.6664">
        <ele>88.7</ele>
        <time>2019-07-16T10:24:21Z</time>
      </trkpt>
      <trkpt lat="48.31449" lon="-1.66635">
        <ele>88.8</ele>
        <time>2019-07-16T10:24:22Z</time>
      </trkpt>
      <trkpt lat="48.3145" lon="-1.66631">
        <ele>88.6</ele>
        <time>2019-07-16T10:24:23Z</time>
      </trkpt>
      <trkpt lat="48.31451" lon="-1.66626">
        <ele>88.2</ele>
        <time>2019-07-16T10:24:24Z</time>
      </trkpt>
      <trkpt lat="48.31452" lon="-1.66622">
        <ele>87.8</ele>
        <time>2019-07-16T10:24:25Z</time>
      </trkpt>
      <trkpt lat="48.31454" lon="-1.66618">
        <ele>87.8</ele>
        <time>2019-07-16T10:24:26Z</time>
      </trkpt>
      <trkpt lat="48.31456" lon="-1.66613">
        <ele>87.7</ele>
        <time>2019-07-16T10:24:27Z</time>
      </trkpt>
      <trkpt lat="48.31457" lon="-1.66609">
        <ele>87.8</ele>
        <time>2019-07-16T10:24:28Z</time>
      </trkpt>
      <trkpt lat="48.31458" lon="-1.66604">
        <ele>87.8</ele>
        <time>2019-07-16T10:24:29Z</time>
      </trkpt>
      <trkpt lat="48.31458" lon="-1.66599">
        <ele>87.2</ele>
        <time>2019-07-16T10:24:30Z</time>
      </trkpt>
      <trkpt lat="48.31458" lon="-1.66594">
        <ele>86.8</ele>
        <time>2019-07-16T10:24:31Z</time>
      </trkpt>
      <trkpt lat="48.31459" lon="-1.6659">
        <ele>86.8</ele>
        <time>2019-07-16T10:24:32Z</time>
      </trkpt>
      <trkpt lat="48.31461" lon="-1.66585">
        <ele>86.9</ele>
        <time>2019-07-16T10:24:33Z</time>
      </trkpt>
      <trkpt lat="48.31462" lon="-1.6658">
        <ele>87.5</ele>
        <time>2019-07-16T10:24:34Z</time>
      </trkpt>
      <trkpt lat="48.31464" lon="-1.66575">
        <ele>88</ele>
        <time>2019-07-16T10:24:35Z</time>
      </trkpt>
      <trkpt lat="48.31464" lon="-1.6657">
        <ele>87.8</ele>
        <time>2019-07-16T10:24:36Z</time>
      </trkpt>
      <trkpt lat="48.31465" lon="-1.66565">
        <ele>88.2</ele>
        <time>2019-07-16T10:24:37Z</time>
      </trkpt>
      <trkpt lat="48.31466" lon="-1.6656">
        <ele>88.6</ele>
        <time>2019-07-16T10:24:38Z</time>
      </trkpt>
      <trkpt lat="48.31467" lon="-1.66555">
        <ele>89.1</ele>
        <time>2019-07-16T10:24:39Z</time>
      </trkpt>
      <trkpt lat="48.31468" lon="-1.6655">
        <ele>89.2</ele>
        <time>2019-07-16T10:24:40Z</time>
      </trkpt>
      <trkpt lat="48.31468" lon="-1.66545">
        <ele>89.3</ele>
        <time>2019-07-16T10:24:41Z</time>
      </trkpt>
      <trkpt lat="48.31469" lon="-1.66541">
        <ele>89.5</ele>
        <time>2019-07-16T10:24:42Z</time>
      </trkpt>
      <trkpt lat="48.3147" lon="-1.66536">
        <ele>89.5</ele>
        <time>2019-07-16T10:24:43Z</time>
      </trkpt>
      <trkpt lat="48.31471" lon="-1.66532">
        <ele>89.4</ele>
        <time>2019-07-16T10:24:44Z</time>
      </trkpt>
      <trkpt lat="48.31471" lon="-1.66527">
        <ele>89.5</ele>
        <time>2019-07-16T10:24:45Z</time>
      </trkpt>
      <trkpt lat="48.31472" lon="-1.66523">
        <ele>89.6</ele>
        <time>2019-07-16T10:24:46Z</time>
      </trkpt>
      <trkpt lat="48.31473" lon="-1.66518">
        <ele>89.5</ele>
        <time>2019-07-16T10:24:47Z</time>
      </trkpt>
      <trkpt lat="48.31474" lon="-1.66513">
        <ele>89.6</ele>
        <time>2019-07-16T10:24:48Z</time>
      </trkpt>
      <trkpt lat="48.31475" lon="-1.66509">
        <ele>89.9</ele>
        <time>2019-07-16T10:24:49Z</time>
      </trkpt>
      <trkpt lat="48.31475" lon="-1.66504">
        <ele>90.1</ele>
        <time>2019-07-16T10:24:50Z</time>
      </trkpt>
      <trkpt lat="48.31476" lon="-1.665">
        <ele>90.4</ele>
        <time>2019-07-16T10:24:51Z</time>
      </trkpt>
      <trkpt lat="48.31477" lon="-1.66495">
        <ele>90.7</ele>
        <time>2019-07-16T10:24:52Z</time>
      </trkpt>
      <trkpt lat="48.31478" lon="-1.66491">
        <ele>90.6</ele>
        <time>2019-07-16T10:24:53Z</time>
      </trkpt>
      <trkpt lat="48.31479" lon="-1.66486">
        <ele>91.1</ele>
        <time>2019-07-16T10:24:54Z</time>
      </trkpt>
      <trkpt lat="48.31479" lon="-1.66481">
        <ele>91.3</ele>
        <time>2019-07-16T10:24:55Z</time>
      </trkpt>
      <trkpt lat="48.3148" lon="-1.66476">
        <ele>91.7</ele>
        <time>2019-07-16T10:24:56Z</time>
      </trkpt>
      <trkpt lat="48.3148" lon="-1.66472">
        <ele>92.9</ele>
        <time>2019-07-16T10:24:57Z</time>
      </trkpt>
      <trkpt lat="48.31482" lon="-1.66467">
        <ele>93.2</ele>
        <time>2019-07-16T10:24:58Z</time>
      </trkpt>
      <trkpt lat="48.31483" lon="-1.66463">
        <ele>93.7</ele>
        <time>2019-07-16T10:24:59Z</time>
      </trkpt>
      <trkpt lat="48.31485" lon="-1.66458">
        <ele>93.6</ele>
        <time>2019-07-16T10:25:00Z</time>
      </trkpt>
      <trkpt lat="48.31487" lon="-1.66454">
        <ele>93.5</ele>
        <time>2019-07-16T10:25:01Z</time>
      </trkpt>
      <trkpt lat="48.3149" lon="-1.66451">
        <ele>92.8</ele>
        <time>2019-07-16T10:25:02Z</time>
      </trkpt>
      <trkpt lat="48.31493" lon="-1.66447">
        <ele>92.4</ele>
        <time>2019-07-16T10:25:03Z</time>
      </trkpt>
      <trkpt lat="48.31495" lon="-1.66443">
        <ele>92</ele>
        <time>2019-07-16T10:25:04Z</time>
      </trkpt>
      <trkpt lat="48.31498" lon="-1.6644">
        <ele>91.9</ele>
        <time>2019-07-16T10:25:05Z</time>
      </trkpt>
      <trkpt lat="48.31501" lon="-1.66437">
        <ele>91.8</ele>
        <time>2019-07-16T10:25:06Z</time>
      </trkpt>
      <trkpt lat="48.31503" lon="-1.66434">
        <ele>91.5</ele>
        <time>2019-07-16T10:25:07Z</time>
      </trkpt>
      <trkpt lat="48.31506" lon="-1.66431">
        <ele>91.3</ele>
        <time>2019-07-16T10:25:08Z</time>
      </trkpt>
      <trkpt lat="48.31508" lon="-1.66428">
        <ele>91.1</ele>
        <time>2019-07-16T10:25:09Z</time>
      </trkpt>
      <trkpt lat="48.31511" lon="-1.66424">
        <ele>91.2</ele>
        <time>2019-07-16T10:25:10Z</time>
      </trkpt>
      <trkpt lat="48.31513" lon="-1.6642">
        <ele>91.1</ele>
        <time>2019-07-16T10:25:11Z</time>
      </trkpt>
      <trkpt lat="48.31516" lon="-1.66417">
        <ele>91.1</ele>
        <time>2019-07-16T10:25:12Z</time>
      </trkpt>
      <trkpt lat="48.31519" lon="-1.66413">
        <ele>91</ele>
        <time>2019-07-16T10:25:13Z</time>
      </trkpt>
      <trkpt lat="48.31522" lon="-1.6641">
        <ele>91</ele>
        <time>2019-07-16T10:25:14Z</time>
      </trkpt>
      <trkpt lat="48.31525" lon="-1.66406">
        <ele>90.9</ele>
        <time>2019-07-16T10:25:15Z</time>
      </trkpt>
      <trkpt lat="48.31527" lon="-1.66402">
        <ele>90.8</ele>
        <time>2019-07-16T10:25:16Z</time>
      </trkpt>
      <trkpt lat="48.31531" lon="-1.66399">
        <ele>90.5</ele>
        <time>2019-07-16T10:25:17Z</time>
      </trkpt>
      <trkpt lat="48.31534" lon="-1.66396">
        <ele>91</ele>
        <time>2019-07-16T10:25:18Z</time>
      </trkpt>
      <trkpt lat="48.31537" lon="-1.66393">
        <ele>90.9</ele>
        <time>2019-07-16T10:25:19Z</time>
      </trkpt>
      <trkpt lat="48.31541" lon="-1.6639">
        <ele>90.9</ele>
        <time>2019-07-16T10:25:20Z</time>
      </trkpt>
      <trkpt lat="48.31544" lon="-1.66388">
        <ele>90.9</ele>
        <time>2019-07-16T10:25:21Z</time>
      </trkpt>
      <trkpt lat="48.31548" lon="-1.66386">
        <ele>91.1</ele>
        <time>2019-07-16T10:25:22Z</time>
      </trkpt>
      <trkpt lat="48.31552" lon="-1.66384">
        <ele>91.5</ele>
        <time>2019-07-16T10:25:23Z</time>
      </trkpt>
      <trkpt lat="48.31556" lon="-1.66382">
        <ele>91.8</ele>
        <time>2019-07-16T10:25:24Z</time>
      </trkpt>
      <trkpt lat="48.31561" lon="-1.6638">
        <ele>92.1</ele>
        <time>2019-07-16T10:25:25Z</time>
      </trkpt>
      <trkpt lat="48.31566" lon="-1.6638">
        <ele>92.5</ele>
        <time>2019-07-16T10:25:26Z</time>
      </trkpt>
      <trkpt lat="48.31571" lon="-1.66381">
        <ele>92.6</ele>
        <time>2019-07-16T10:25:27Z</time>
      </trkpt>
      <trkpt lat="48.31577" lon="-1.66383">
        <ele>92.6</ele>
        <time>2019-07-16T10:25:28Z</time>
      </trkpt>
      <trkpt lat="48.31582" lon="-1.66385">
        <ele>92.6</ele>
        <time>2019-07-16T10:25:29Z</time>
      </trkpt>
      <trkpt lat="48.31588" lon="-1.66388">
        <ele>92</ele>
        <time>2019-07-16T10:25:30Z</time>
      </trkpt>
      <trkpt lat="48.31595" lon="-1.6639">
        <ele>91.3</ele>
        <time>2019-07-16T10:25:31Z</time>
      </trkpt>
      <trkpt lat="48.31601" lon="-1.66393">
        <ele>91.1</ele>
        <time>2019-07-16T10:25:32Z</time>
      </trkpt>
      <trkpt lat="48.31607" lon="-1.66396">
        <ele>90.6</ele>
        <time>2019-07-16T10:25:33Z</time>
      </trkpt>
      <trkpt lat="48.31614" lon="-1.66399">
        <ele>90.1</ele>
        <time>2019-07-16T10:25:34Z</time>
      </trkpt>
      <trkpt lat="48.31621" lon="-1.66401">
        <ele>89.5</ele>
        <time>2019-07-16T10:25:35Z</time>
      </trkpt>
      <trkpt lat="48.31628" lon="-1.66403">
        <ele>88.6</ele>
        <time>2019-07-16T10:25:36Z</time>
      </trkpt>
      <trkpt lat="48.31635" lon="-1.66406">
        <ele>88.1</ele>
        <time>2019-07-16T10:25:37Z</time>
      </trkpt>
      <trkpt lat="48.31641" lon="-1.66409">
        <ele>87.3</ele>
        <time>2019-07-16T10:25:38Z</time>
      </trkpt>
      <trkpt lat="48.31647" lon="-1.66413">
        <ele>86.6</ele>
        <time>2019-07-16T10:25:39Z</time>
      </trkpt>
      <trkpt lat="48.31654" lon="-1.66416">
        <ele>86</ele>
        <time>2019-07-16T10:25:40Z</time>
      </trkpt>
      <trkpt lat="48.31661" lon="-1.6642">
        <ele>85.4</ele>
        <time>2019-07-16T10:25:41Z</time>
      </trkpt>
      <trkpt lat="48.31667" lon="-1.66424">
        <ele>84.7</ele>
        <time>2019-07-16T10:25:42Z</time>
      </trkpt>
      <trkpt lat="48.31673" lon="-1.66427">
        <ele>84</ele>
        <time>2019-07-16T10:25:43Z</time>
      </trkpt>
      <trkpt lat="48.3168" lon="-1.66431">
        <ele>83.6</ele>
        <time>2019-07-16T10:25:44Z</time>
      </trkpt>
      <trkpt lat="48.31687" lon="-1.66435">
        <ele>83.5</ele>
        <time>2019-07-16T10:25:45Z</time>
      </trkpt>
      <trkpt lat="48.31694" lon="-1.66439">
        <ele>83</ele>
        <time>2019-07-16T10:25:46Z</time>
      </trkpt>
      <trkpt lat="48.31701" lon="-1.66443">
        <ele>82.1</ele>
        <time>2019-07-16T10:25:47Z</time>
      </trkpt>
      <trkpt lat="48.31709" lon="-1.66447">
        <ele>81.5</ele>
        <time>2019-07-16T10:25:48Z</time>
      </trkpt>
      <trkpt lat="48.31716" lon="-1.6645">
        <ele>81.3</ele>
        <time>2019-07-16T10:25:49Z</time>
      </trkpt>
      <trkpt lat="48.31723" lon="-1.66452">
        <ele>80.8</ele>
        <time>2019-07-16T10:25:50Z</time>
      </trkpt>
      <trkpt lat="48.3173" lon="-1.66453">
        <ele>80.6</ele>
        <time>2019-07-16T10:25:51Z</time>
      </trkpt>
      <trkpt lat="48.31737" lon="-1.66451">
        <ele>80.2</ele>
        <time>2019-07-16T10:25:52Z</time>
      </trkpt>
      <trkpt lat="48.31743" lon="-1.66448">
        <ele>79.6</ele>
        <time>2019-07-16T10:25:53Z</time>
      </trkpt>
      <trkpt lat="48.31748" lon="-1.66441">
        <ele>79.1</ele>
        <time>2019-07-16T10:25:54Z</time>
      </trkpt>
      <trkpt lat="48.31753" lon="-1.66433">
        <ele>78.5</ele>
        <time>2019-07-16T10:25:55Z</time>
      </trkpt>
      <trkpt lat="48.31757" lon="-1.66426">
        <ele>78.3</ele>
        <time>2019-07-16T10:25:56Z</time>
      </trkpt>
      <trkpt lat="48.31762" lon="-1.66419">
        <ele>78.3</ele>
        <time>2019-07-16T10:25:57Z</time>
      </trkpt>
      <trkpt lat="48.31768" lon="-1.66415">
        <ele>77.9</ele>
        <time>2019-07-16T10:25:58Z</time>
      </trkpt>
      <trkpt lat="48.31775" lon="-1.66413">
        <ele>77.8</ele>
        <time>2019-07-16T10:25:59Z</time>
      </trkpt>
      <trkpt lat="48.31782" lon="-1.66414">
        <ele>77.8</ele>
        <time>2019-07-16T10:26:00Z</time>
      </trkpt>
      <trkpt lat="48.31791" lon="-1.66417">
        <ele>77.8</ele>
        <time>2019-07-16T10:26:01Z</time>
      </trkpt>
      <trkpt lat="48.31799" lon="-1.66421">
        <ele>77.8</ele>
        <time>2019-07-16T10:26:02Z</time>
      </trkpt>
      <trkpt lat="48.31809" lon="-1.66425">
        <ele>77.7</ele>
        <time>2019-07-16T10:26:03Z</time>
      </trkpt>
      <trkpt lat="48.31817" lon="-1.66426">
        <ele>78.2</ele>
        <time>2019-07-16T10:26:04Z</time>
      </trkpt>
      <trkpt lat="48.31826" lon="-1.66428">
        <ele>78.7</ele>
        <time>2019-07-16T10:26:05Z</time>
      </trkpt>
      <trkpt lat="48.31835" lon="-1.66428">
        <ele>78.2</ele>
        <time>2019-07-16T10:26:06Z</time>
      </trkpt>
      <trkpt lat="48.31845" lon="-1.66425">
        <ele>76.9</ele>
        <time>2019-07-16T10:26:07Z</time>
      </trkpt>
      <trkpt lat="48.31855" lon="-1.66421">
        <ele>75.7</ele>
        <time>2019-07-16T10:26:08Z</time>
      </trkpt>
      <trkpt lat="48.31867" lon="-1.66413">
        <ele>74.2</ele>
        <time>2019-07-16T10:26:09Z</time>
      </trkpt>
      <trkpt lat="48.31875" lon="-1.66405">
        <ele>73.1</ele>
        <time>2019-07-16T10:26:10Z</time>
      </trkpt>
      <trkpt lat="48.31884" lon="-1.66397">
        <ele>71.3</ele>
        <time>2019-07-16T10:26:11Z</time>
      </trkpt>
      <trkpt lat="48.31893" lon="-1.66391">
        <ele>69.3</ele>
        <time>2019-07-16T10:26:12Z</time>
      </trkpt>
      <trkpt lat="48.31902" lon="-1.66383">
        <ele>68.4</ele>
        <time>2019-07-16T10:26:13Z</time>
      </trkpt>
      <trkpt lat="48.31912" lon="-1.66376">
        <ele>65.9</ele>
        <time>2019-07-16T10:26:14Z</time>
      </trkpt>
      <trkpt lat="48.31922" lon="-1.66371">
        <ele>65</ele>
        <time>2019-07-16T10:26:15Z</time>
      </trkpt>
      <trkpt lat="48.3193" lon="-1.66363">
        <ele>65.3</ele>
        <time>2019-07-16T10:26:16Z</time>
      </trkpt>
      <trkpt lat="48.31939" lon="-1.66354">
        <ele>65.1</ele>
        <time>2019-07-16T10:26:17Z</time>
      </trkpt>
      <trkpt lat="48.31947" lon="-1.66347">
        <ele>64.2</ele>
        <time>2019-07-16T10:26:18Z</time>
      </trkpt>
      <trkpt lat="48.31954" lon="-1.6634">
        <ele>64</ele>
        <time>2019-07-16T10:26:19Z</time>
      </trkpt>
      <trkpt lat="48.31961" lon="-1.66331">
        <ele>63.7</ele>
        <time>2019-07-16T10:26:20Z</time>
      </trkpt>
      <trkpt lat="48.31968" lon="-1.66321">
        <ele>64</ele>
        <time>2019-07-16T10:26:21Z</time>
      </trkpt>
      <trkpt lat="48.31973" lon="-1.66312">
        <ele>62.2</ele>
        <time>2019-07-16T10:26:22Z</time>
      </trkpt>
      <trkpt lat="48.31978" lon="-1.66301">
        <ele>62.5</ele>
        <time>2019-07-16T10:26:23Z</time>
      </trkpt>
      <trkpt lat="48.31981" lon="-1.6629">
        <ele>62.5</ele>
        <time>2019-07-16T10:26:24Z</time>
      </trkpt>
      <trkpt lat="48.31985" lon="-1.66279">
        <ele>62.2</ele>
        <time>2019-07-16T10:26:25Z</time>
      </trkpt>
      <trkpt lat="48.31989" lon="-1.66268">
        <ele>62.2</ele>
        <time>2019-07-16T10:26:26Z</time>
      </trkpt>
      <trkpt lat="48.31992" lon="-1.66259">
        <ele>62.5</ele>
        <time>2019-07-16T10:26:27Z</time>
      </trkpt>
      <trkpt lat="48.31997" lon="-1.6625">
        <ele>62.8</ele>
        <time>2019-07-16T10:26:28Z</time>
      </trkpt>
      <trkpt lat="48.32003" lon="-1.66244">
        <ele>63.2</ele>
        <time>2019-07-16T10:26:29Z</time>
      </trkpt>
      <trkpt lat="48.32008" lon="-1.66238">
        <ele>63</ele>
        <time>2019-07-16T10:26:30Z</time>
      </trkpt>
      <trkpt lat="48.32013" lon="-1.66233">
        <ele>63</ele>
        <time>2019-07-16T10:26:31Z</time>
      </trkpt>
      <trkpt lat="48.32019" lon="-1.6623">
        <ele>63</ele>
        <time>2019-07-16T10:26:32Z</time>
      </trkpt>
      <trkpt lat="48.32024" lon="-1.66227">
        <ele>63.2</ele>
        <time>2019-07-16T10:26:33Z</time>
      </trkpt>
      <trkpt lat="48.32029" lon="-1.66224">
        <ele>62.5</ele>
        <time>2019-07-16T10:26:34Z</time>
      </trkpt>
      <trkpt lat="48.32034" lon="-1.66223">
        <ele>62.4</ele>
        <time>2019-07-16T10:26:35Z</time>
      </trkpt>
      <trkpt lat="48.32039" lon="-1.66223">
        <ele>63.4</ele>
        <time>2019-07-16T10:26:36Z</time>
      </trkpt>
      <trkpt lat="48.32045" lon="-1.66222">
        <ele>64.4</ele>
        <time>2019-07-16T10:26:37Z</time>
      </trkpt>
      <trkpt lat="48.3205" lon="-1.66222">
        <ele>64.7</ele>
        <time>2019-07-16T10:26:38Z</time>
      </trkpt>
      <trkpt lat="48.32054" lon="-1.6622">
        <ele>64.9</ele>
        <time>2019-07-16T10:26:39Z</time>
      </trkpt>
      <trkpt lat="48.32059" lon="-1.6622">
        <ele>65.2</ele>
        <time>2019-07-16T10:26:40Z</time>
      </trkpt>
      <trkpt lat="48.32064" lon="-1.66219">
        <ele>65.9</ele>
        <time>2019-07-16T10:26:41Z</time>
      </trkpt>
      <trkpt lat="48.32068" lon="-1.66219">
        <ele>66.2</ele>
        <time>2019-07-16T10:26:42Z</time>
      </trkpt>
      <trkpt lat="48.32072" lon="-1.66218">
        <ele>66.5</ele>
        <time>2019-07-16T10:26:43Z</time>
      </trkpt>
      <trkpt lat="48.32077" lon="-1.66217">
        <ele>67.1</ele>
        <time>2019-07-16T10:26:44Z</time>
      </trkpt>
      <trkpt lat="48.32082" lon="-1.66216">
        <ele>67.7</ele>
        <time>2019-07-16T10:26:45Z</time>
      </trkpt>
      <trkpt lat="48.32086" lon="-1.66215">
        <ele>68.5</ele>
        <time>2019-07-16T10:26:46Z</time>
      </trkpt>
      <trkpt lat="48.32091" lon="-1.66214">
        <ele>69</ele>
        <time>2019-07-16T10:26:47Z</time>
      </trkpt>
      <trkpt lat="48.32096" lon="-1.66213">
        <ele>69.2</ele>
        <time>2019-07-16T10:26:48Z</time>
      </trkpt>
      <trkpt lat="48.321" lon="-1.66214">
        <ele>69.8</ele>
        <time>2019-07-16T10:26:49Z</time>
      </trkpt>
      <trkpt lat="48.32105" lon="-1.66213">
        <ele>70.3</ele>
        <time>2019-07-16T10:26:50Z</time>
      </trkpt>
      <trkpt lat="48.32109" lon="-1.66213">
        <ele>70.6</ele>
        <time>2019-07-16T10:26:51Z</time>
      </trkpt>
      <trkpt lat="48.32114" lon="-1.66213">
        <ele>70.1</ele>
        <time>2019-07-16T10:26:52Z</time>
      </trkpt>
      <trkpt lat="48.32119" lon="-1.66213">
        <ele>69.9</ele>
        <time>2019-07-16T10:26:53Z</time>
      </trkpt>
      <trkpt lat="48.32124" lon="-1.66214">
        <ele>70</ele>
        <time>2019-07-16T10:26:54Z</time>
      </trkpt>
      <trkpt lat="48.32128" lon="-1.66214">
        <ele>69.7</ele>
        <time>2019-07-16T10:26:55Z</time>
      </trkpt>
      <trkpt lat="48.32133" lon="-1.66215">
        <ele>69.7</ele>
        <time>2019-07-16T10:26:56Z</time>
      </trkpt>
      <trkpt lat="48.32138" lon="-1.66216">
        <ele>69.5</ele>
        <time>2019-07-16T10:26:57Z</time>
      </trkpt>
      <trkpt lat="48.32143" lon="-1.66216">
        <ele>69.5</ele>
        <time>2019-07-16T10:26:58Z</time>
      </trkpt>
      <trkpt lat="48.32147" lon="-1.66217">
        <ele>69.5</ele>
        <time>2019-07-16T10:26:59Z</time>
      </trkpt>
      <trkpt lat="48.32152" lon="-1.66219">
        <ele>69.5</ele>
        <time>2019-07-16T10:27:00Z</time>
      </trkpt>
      <trkpt lat="48.32157" lon="-1.6622">
        <ele>69.5</ele>
        <time>2019-07-16T10:27:01Z</time>
      </trkpt>
      <trkpt lat="48.32161" lon="-1.66221">
        <ele>69.1</ele>
        <time>2019-07-16T10:27:02Z</time>
      </trkpt>
      <trkpt lat="48.32166" lon="-1.66222">
        <ele>68.7</ele>
        <time>2019-07-16T10:27:03Z</time>
      </trkpt>
      <trkpt lat="48.32171" lon="-1.66224">
        <ele>68.4</ele>
        <time>2019-07-16T10:27:04Z</time>
      </trkpt>
      <trkpt lat="48.32175" lon="-1.66225">
        <ele>68.2</ele>
        <time>2019-07-16T10:27:05Z</time>
      </trkpt>
      <trkpt lat="48.3218" lon="-1.66227">
        <ele>67.9</ele>
        <time>2019-07-16T10:27:06Z</time>
      </trkpt>
      <trkpt lat="48.32184" lon="-1.66229">
        <ele>67.7</ele>
        <time>2019-07-16T10:27:07Z</time>
      </trkpt>
      <trkpt lat="48.32188" lon="-1.6623">
        <ele>67.7</ele>
        <time>2019-07-16T10:27:08Z</time>
      </trkpt>
      <trkpt lat="48.32193" lon="-1.66232">
        <ele>67.6</ele>
        <time>2019-07-16T10:27:09Z</time>
      </trkpt>
      <trkpt lat="48.32197" lon="-1.66234">
        <ele>67.4</ele>
        <time>2019-07-16T10:27:10Z</time>
      </trkpt>
      <trkpt lat="48.32201" lon="-1.66235">
        <ele>67.2</ele>
        <time>2019-07-16T10:27:11Z</time>
      </trkpt>
      <trkpt lat="48.32206" lon="-1.66236">
        <ele>66.9</ele>
        <time>2019-07-16T10:27:12Z</time>
      </trkpt>
      <trkpt lat="48.3221" lon="-1.66238">
        <ele>66.6</ele>
        <time>2019-07-16T10:27:13Z</time>
      </trkpt>
      <trkpt lat="48.32214" lon="-1.6624">
        <ele>66.5</ele>
        <time>2019-07-16T10:27:14Z</time>
      </trkpt>
      <trkpt lat="48.32219" lon="-1.66242">
        <ele>66.5</ele>
        <time>2019-07-16T10:27:15Z</time>
      </trkpt>
      <trkpt lat="48.32223" lon="-1.66244">
        <ele>66.4</ele>
        <time>2019-07-16T10:27:16Z</time>
      </trkpt>
      <trkpt lat="48.32227" lon="-1.66245">
        <ele>66</ele>
        <time>2019-07-16T10:27:17Z</time>
      </trkpt>
      <trkpt lat="48.32232" lon="-1.66246">
        <ele>65.6</ele>
        <time>2019-07-16T10:27:18Z</time>
      </trkpt>
      <trkpt lat="48.32237" lon="-1.66247">
        <ele>64.8</ele>
        <time>2019-07-16T10:27:19Z</time>
      </trkpt>
      <trkpt lat="48.32242" lon="-1.66249">
        <ele>64.6</ele>
        <time>2019-07-16T10:27:20Z</time>
      </trkpt>
      <trkpt lat="48.32247" lon="-1.6625">
        <ele>64.5</ele>
        <time>2019-07-16T10:27:21Z</time>
      </trkpt>
      <trkpt lat="48.32251" lon="-1.66251">
        <ele>64.4</ele>
        <time>2019-07-16T10:27:22Z</time>
      </trkpt>
      <trkpt lat="48.32256" lon="-1.66253">
        <ele>64.1</ele>
        <time>2019-07-16T10:27:23Z</time>
      </trkpt>
      <trkpt lat="48.32261" lon="-1.66255">
        <ele>63.7</ele>
        <time>2019-07-16T10:27:24Z</time>
      </trkpt>
      <trkpt lat="48.32266" lon="-1.66257">
        <ele>62.6</ele>
        <time>2019-07-16T10:27:25Z</time>
      </trkpt>
      <trkpt lat="48.32272" lon="-1.66259">
        <ele>61.8</ele>
        <time>2019-07-16T10:27:26Z</time>
      </trkpt>
      <trkpt lat="48.32277" lon="-1.6626">
        <ele>61.2</ele>
        <time>2019-07-16T10:27:27Z</time>
      </trkpt>
      <trkpt lat="48.32282" lon="-1.66261">
        <ele>61</ele>
        <time>2019-07-16T10:27:28Z</time>
      </trkpt>
      <trkpt lat="48.32287" lon="-1.66263">
        <ele>60.7</ele>
        <time>2019-07-16T10:27:29Z</time>
      </trkpt>
      <trkpt lat="48.32292" lon="-1.66264">
        <ele>60.6</ele>
        <time>2019-07-16T10:27:30Z</time>
      </trkpt>
      <trkpt lat="48.32296" lon="-1.66266">
        <ele>60.2</ele>
        <time>2019-07-16T10:27:31Z</time>
      </trkpt>
      <trkpt lat="48.32301" lon="-1.66267">
        <ele>60.1</ele>
        <time>2019-07-16T10:27:32Z</time>
      </trkpt>
      <trkpt lat="48.32306" lon="-1.66269">
        <ele>59.9</ele>
        <time>2019-07-16T10:27:33Z</time>
      </trkpt>
      <trkpt lat="48.32311" lon="-1.66271">
        <ele>59.9</ele>
        <time>2019-07-16T10:27:34Z</time>
      </trkpt>
      <trkpt lat="48.32316" lon="-1.66273">
        <ele>59.9</ele>
        <time>2019-07-16T10:27:35Z</time>
      </trkpt>
      <trkpt lat="48.32321" lon="-1.66275">
        <ele>60.2</ele>
        <time>2019-07-16T10:27:36Z</time>
      </trkpt>
      <trkpt lat="48.32325" lon="-1.66276">
        <ele>60.4</ele>
        <time>2019-07-16T10:27:37Z</time>
      </trkpt>
      <trkpt lat="48.3233" lon="-1.66277">
        <ele>60.7</ele>
        <time>2019-07-16T10:27:38Z</time>
      </trkpt>
      <trkpt lat="48.32335" lon="-1.66279">
        <ele>61.1</ele>
        <time>2019-07-16T10:27:39Z</time>
      </trkpt>
      <trkpt lat="48.3234" lon="-1.6628">
        <ele>60.9</ele>
        <time>2019-07-16T10:27:40Z</time>
      </trkpt>
      <trkpt lat="48.32344" lon="-1.66281">
        <ele>60.8</ele>
        <time>2019-07-16T10:27:41Z</time>
      </trkpt>
      <trkpt lat="48.32349" lon="-1.66283">
        <ele>60.6</ele>
        <time>2019-07-16T10:27:42Z</time>
      </trkpt>
      <trkpt lat="48.32354" lon="-1.66285">
        <ele>60.7</ele>
        <time>2019-07-16T10:27:43Z</time>
      </trkpt>
      <trkpt lat="48.32358" lon="-1.66287">
        <ele>60.9</ele>
        <time>2019-07-16T10:27:44Z</time>
      </trkpt>
      <trkpt lat="48.32363" lon="-1.66288">
        <ele>61</ele>
        <time>2019-07-16T10:27:45Z</time>
      </trkpt>
      <trkpt lat="48.32367" lon="-1.6629">
        <ele>61.7</ele>
        <time>2019-07-16T10:27:46Z</time>
      </trkpt>
      <trkpt lat="48.32372" lon="-1.66291">
        <ele>60.9</ele>
        <time>2019-07-16T10:27:47Z</time>
      </trkpt>
      <trkpt lat="48.32377" lon="-1.66293">
        <ele>60.6</ele>
        <time>2019-07-16T10:27:48Z</time>
      </trkpt>
      <trkpt lat="48.32381" lon="-1.66294">
        <ele>60.7</ele>
        <time>2019-07-16T10:27:49Z</time>
      </trkpt>
      <trkpt lat="48.32386" lon="-1.66296">
        <ele>60.8</ele>
        <time>2019-07-16T10:27:50Z</time>
      </trkpt>
      <trkpt lat="48.3239" lon="-1.66298">
        <ele>60.9</ele>
        <time>2019-07-16T10:27:51Z</time>
      </trkpt>
      <trkpt lat="48.32395" lon="-1.66299">
        <ele>60.9</ele>
        <time>2019-07-16T10:27:52Z</time>
      </trkpt>
      <trkpt lat="48.32399" lon="-1.66301">
        <ele>60.9</ele>
        <time>2019-07-16T10:27:53Z</time>
      </trkpt>
      <trkpt lat="48.32404" lon="-1.66302">
        <ele>60.8</ele>
        <time>2019-07-16T10:27:54Z</time>
      </trkpt>
      <trkpt lat="48.32409" lon="-1.66304">
        <ele>60.9</ele>
        <time>2019-07-16T10:27:55Z</time>
      </trkpt>
      <trkpt lat="48.32413" lon="-1.66306">
        <ele>60.9</ele>
        <time>2019-07-16T10:27:56Z</time>
      </trkpt>
      <trkpt lat="48.32417" lon="-1.66307">
        <ele>60.6</ele>
        <time>2019-07-16T10:27:57Z</time>
      </trkpt>
      <trkpt lat="48.32422" lon="-1.66309">
        <ele>60.5</ele>
        <time>2019-07-16T10:27:58Z</time>
      </trkpt>
      <trkpt lat="48.32427" lon="-1.6631">
        <ele>60.6</ele>
        <time>2019-07-16T10:27:59Z</time>
      </trkpt>
      <trkpt lat="48.32431" lon="-1.66312">
        <ele>60.6</ele>
        <time>2019-07-16T10:28:00Z</time>
      </trkpt>
      <trkpt lat="48.32436" lon="-1.66312">
        <ele>60.5</ele>
        <time>2019-07-16T10:28:01Z</time>
      </trkpt>
      <trkpt lat="48.32441" lon="-1.66314">
        <ele>60.8</ele>
        <time>2019-07-16T10:28:02Z</time>
      </trkpt>
      <trkpt lat="48.32445" lon="-1.66315">
        <ele>60.4</ele>
        <time>2019-07-16T10:28:03Z</time>
      </trkpt>
      <trkpt lat="48.3245" lon="-1.66316">
        <ele>60.1</ele>
        <time>2019-07-16T10:28:04Z</time>
      </trkpt>
      <trkpt lat="48.32455" lon="-1.66318">
        <ele>59.9</ele>
        <time>2019-07-16T10:28:05Z</time>
      </trkpt>
      <trkpt lat="48.3246" lon="-1.6632">
        <ele>59.7</ele>
        <time>2019-07-16T10:28:06Z</time>
      </trkpt>
      <trkpt lat="48.32464" lon="-1.66321">
        <ele>59.5</ele>
        <time>2019-07-16T10:28:07Z</time>
      </trkpt>
      <trkpt lat="48.32469" lon="-1.66323">
        <ele>59.5</ele>
        <time>2019-07-16T10:28:08Z</time>
      </trkpt>
      <trkpt lat="48.32473" lon="-1.66324">
        <ele>59.6</ele>
        <time>2019-07-16T10:28:09Z</time>
      </trkpt>
      <trkpt lat="48.32478" lon="-1.66326">
        <ele>59.8</ele>
        <time>2019-07-16T10:28:10Z</time>
      </trkpt>
      <trkpt lat="48.32483" lon="-1.66328">
        <ele>60.1</ele>
        <time>2019-07-16T10:28:11Z</time>
      </trkpt>
      <trkpt lat="48.32488" lon="-1.66329">
        <ele>60.3</ele>
        <time>2019-07-16T10:28:12Z</time>
      </trkpt>
      <trkpt lat="48.32492" lon="-1.66331">
        <ele>60.4</ele>
        <time>2019-07-16T10:28:13Z</time>
      </trkpt>
      <trkpt lat="48.32497" lon="-1.66333">
        <ele>60.5</ele>
        <time>2019-07-16T10:28:14Z</time>
      </trkpt>
      <trkpt lat="48.32502" lon="-1.66334">
        <ele>60.8</ele>
        <time>2019-07-16T10:28:15Z</time>
      </trkpt>
      <trkpt lat="48.32506" lon="-1.66336">
        <ele>60.8</ele>
        <time>2019-07-16T10:28:16Z</time>
      </trkpt>
      <trkpt lat="48.32511" lon="-1.66337">
        <ele>60.8</ele>
        <time>2019-07-16T10:28:17Z</time>
      </trkpt>
      <trkpt lat="48.32516" lon="-1.66339">
        <ele>60.8</ele>
        <time>2019-07-16T10:28:18Z</time>
      </trkpt>
      <trkpt lat="48.32521" lon="-1.6634">
        <ele>60.9</ele>
        <time>2019-07-16T10:28:19Z</time>
      </trkpt>
      <trkpt lat="48.32525" lon="-1.66342">
        <ele>61.3</ele>
        <time>2019-07-16T10:28:20Z</time>
      </trkpt>
      <trkpt lat="48.3253" lon="-1.66343">
        <ele>61.3</ele>
        <time>2019-07-16T10:28:21Z</time>
      </trkpt>
      <trkpt lat="48.32535" lon="-1.66345">
        <ele>61.5</ele>
        <time>2019-07-16T10:28:22Z</time>
      </trkpt>
      <trkpt lat="48.32539" lon="-1.66347">
        <ele>61.7</ele>
        <time>2019-07-16T10:28:23Z</time>
      </trkpt>
      <trkpt lat="48.32544" lon="-1.66349">
        <ele>62</ele>
        <time>2019-07-16T10:28:24Z</time>
      </trkpt>
      <trkpt lat="48.32548" lon="-1.66352">
        <ele>62.3</ele>
        <time>2019-07-16T10:28:25Z</time>
      </trkpt>
      <trkpt lat="48.32552" lon="-1.66354">
        <ele>62</ele>
        <time>2019-07-16T10:28:26Z</time>
      </trkpt>
      <trkpt lat="48.32557" lon="-1.66356">
        <ele>61.9</ele>
        <time>2019-07-16T10:28:27Z</time>
      </trkpt>
      <trkpt lat="48.32562" lon="-1.66359">
        <ele>62.2</ele>
        <time>2019-07-16T10:28:28Z</time>
      </trkpt>
      <trkpt lat="48.32567" lon="-1.66361">
        <ele>62.3</ele>
        <time>2019-07-16T10:28:29Z</time>
      </trkpt>
      <trkpt lat="48.32571" lon="-1.66362">
        <ele>62.7</ele>
        <time>2019-07-16T10:28:30Z</time>
      </trkpt>
      <trkpt lat="48.32576" lon="-1.66364">
        <ele>63.1</ele>
        <time>2019-07-16T10:28:31Z</time>
      </trkpt>
      <trkpt lat="48.3258" lon="-1.66366">
        <ele>63.3</ele>
        <time>2019-07-16T10:28:32Z</time>
      </trkpt>
      <trkpt lat="48.32584" lon="-1.66368">
        <ele>63.6</ele>
        <time>2019-07-16T10:28:33Z</time>
      </trkpt>
      <trkpt lat="48.32588" lon="-1.6637">
        <ele>63.7</ele>
        <time>2019-07-16T10:28:34Z</time>
      </trkpt>
      <trkpt lat="48.32593" lon="-1.66372">
        <ele>63.5</ele>
        <time>2019-07-16T10:28:35Z</time>
      </trkpt>
      <trkpt lat="48.32597" lon="-1.66374">
        <ele>63.2</ele>
        <time>2019-07-16T10:28:36Z</time>
      </trkpt>
      <trkpt lat="48.32602" lon="-1.66376">
        <ele>63.2</ele>
        <time>2019-07-16T10:28:37Z</time>
      </trkpt>
      <trkpt lat="48.32606" lon="-1.66379">
        <ele>63.5</ele>
        <time>2019-07-16T10:28:38Z</time>
      </trkpt>
      <trkpt lat="48.3261" lon="-1.66381">
        <ele>63.4</ele>
        <time>2019-07-16T10:28:39Z</time>
      </trkpt>
      <trkpt lat="48.32615" lon="-1.66384">
        <ele>63.4</ele>
        <time>2019-07-16T10:28:40Z</time>
      </trkpt>
      <trkpt lat="48.3262" lon="-1.66386">
        <ele>63.1</ele>
        <time>2019-07-16T10:28:41Z</time>
      </trkpt>
      <trkpt lat="48.32625" lon="-1.66389">
        <ele>62.9</ele>
        <time>2019-07-16T10:28:42Z</time>
      </trkpt>
      <trkpt lat="48.3263" lon="-1.66391">
        <ele>62.5</ele>
        <time>2019-07-16T10:28:43Z</time>
      </trkpt>
      <trkpt lat="48.32635" lon="-1.66393">
        <ele>62.8</ele>
        <time>2019-07-16T10:28:44Z</time>
      </trkpt>
      <trkpt lat="48.32639" lon="-1.66396">
        <ele>62.7</ele>
        <time>2019-07-16T10:28:45Z</time>
      </trkpt>
      <trkpt lat="48.32644" lon="-1.66398">
        <ele>63</ele>
        <time>2019-07-16T10:28:46Z</time>
      </trkpt>
      <trkpt lat="48.32648" lon="-1.664">
        <ele>63.1</ele>
        <time>2019-07-16T10:28:47Z</time>
      </trkpt>
      <trkpt lat="48.32653" lon="-1.66402">
        <ele>62.9</ele>
        <time>2019-07-16T10:28:48Z</time>
      </trkpt>
      <trkpt lat="48.32658" lon="-1.66405">
        <ele>62.9</ele>
        <time>2019-07-16T10:28:49Z</time>
      </trkpt>
      <trkpt lat="48.32663" lon="-1.66407">
        <ele>62.9</ele>
        <time>2019-07-16T10:28:50Z</time>
      </trkpt>
      <trkpt lat="48.32667" lon="-1.6641">
        <ele>62.5</ele>
        <time>2019-07-16T10:28:51Z</time>
      </trkpt>
      <trkpt lat="48.32672" lon="-1.66413">
        <ele>62.3</ele>
        <time>2019-07-16T10:28:52Z</time>
      </trkpt>
      <trkpt lat="48.32678" lon="-1.66415">
        <ele>61.9</ele>
        <time>2019-07-16T10:28:53Z</time>
      </trkpt>
      <trkpt lat="48.32683" lon="-1.66417">
        <ele>61.7</ele>
        <time>2019-07-16T10:28:54Z</time>
      </trkpt>
      <trkpt lat="48.32688" lon="-1.66419">
        <ele>61.7</ele>
        <time>2019-07-16T10:28:55Z</time>
      </trkpt>
      <trkpt lat="48.32693" lon="-1.66421">
        <ele>61.8</ele>
        <time>2019-07-16T10:28:56Z</time>
      </trkpt>
      <trkpt lat="48.32698" lon="-1.66424">
        <ele>61.6</ele>
        <time>2019-07-16T10:28:57Z</time>
      </trkpt>
      <trkpt lat="48.32703" lon="-1.66427">
        <ele>61.7</ele>
        <time>2019-07-16T10:28:58Z</time>
      </trkpt>
      <trkpt lat="48.32708" lon="-1.66429">
        <ele>61.5</ele>
        <time>2019-07-16T10:28:59Z</time>
      </trkpt>
      <trkpt lat="48.32713" lon="-1.66432">
        <ele>61.5</ele>
        <time>2019-07-16T10:29:00Z</time>
      </trkpt>
      <trkpt lat="48.32718" lon="-1.66435">
        <ele>60.9</ele>
        <time>2019-07-16T10:29:01Z</time>
      </trkpt>
      <trkpt lat="48.32723" lon="-1.66438">
        <ele>60.9</ele>
        <time>2019-07-16T10:29:02Z</time>
      </trkpt>
      <trkpt lat="48.32728" lon="-1.6644">
        <ele>61</ele>
        <time>2019-07-16T10:29:03Z</time>
      </trkpt>
      <trkpt lat="48.32733" lon="-1.66442">
        <ele>61.3</ele>
        <time>2019-07-16T10:29:04Z</time>
      </trkpt>
      <trkpt lat="48.32738" lon="-1.66445">
        <ele>61.3</ele>
        <time>2019-07-16T10:29:05Z</time>
      </trkpt>
      <trkpt lat="48.32743" lon="-1.66447">
        <ele>61.7</ele>
        <time>2019-07-16T10:29:06Z</time>
      </trkpt>
      <trkpt lat="48.32748" lon="-1.6645">
        <ele>61.9</ele>
        <time>2019-07-16T10:29:07Z</time>
      </trkpt>
      <trkpt lat="48.32753" lon="-1.66452">
        <ele>61.9</ele>
        <time>2019-07-16T10:29:08Z</time>
      </trkpt>
      <trkpt lat="48.32758" lon="-1.66454">
        <ele>62</ele>
        <time>2019-07-16T10:29:09Z</time>
      </trkpt>
      <trkpt lat="48.32764" lon="-1.66456">
        <ele>61.7</ele>
        <time>2019-07-16T10:29:10Z</time>
      </trkpt>
      <trkpt lat="48.32769" lon="-1.66459">
        <ele>61.1</ele>
        <time>2019-07-16T10:29:11Z</time>
      </trkpt>
      <trkpt lat="48.32774" lon="-1.66462">
        <ele>60.8</ele>
        <time>2019-07-16T10:29:12Z</time>
      </trkpt>
      <trkpt lat="48.32778" lon="-1.66464">
        <ele>60.7</ele>
        <time>2019-07-16T10:29:13Z</time>
      </trkpt>
      <trkpt lat="48.32783" lon="-1.66466">
        <ele>59.8</ele>
        <time>2019-07-16T10:29:14Z</time>
      </trkpt>
      <trkpt lat="48.32788" lon="-1.66468">
        <ele>59.2</ele>
        <time>2019-07-16T10:29:15Z</time>
      </trkpt>
      <trkpt lat="48.32793" lon="-1.6647">
        <ele>58.9</ele>
        <time>2019-07-16T10:29:16Z</time>
      </trkpt>
      <trkpt lat="48.32798" lon="-1.66471">
        <ele>58.6</ele>
        <time>2019-07-16T10:29:17Z</time>
      </trkpt>
      <trkpt lat="48.32802" lon="-1.66474">
        <ele>58.3</ele>
        <time>2019-07-16T10:29:18Z</time>
      </trkpt>
      <trkpt lat="48.32806" lon="-1.66475">
        <ele>58.3</ele>
        <time>2019-07-16T10:29:19Z</time>
      </trkpt>
      <trkpt lat="48.32811" lon="-1.66478">
        <ele>58.2</ele>
        <time>2019-07-16T10:29:20Z</time>
      </trkpt>
      <trkpt lat="48.32814" lon="-1.66481">
        <ele>58.1</ele>
        <time>2019-07-16T10:29:21Z</time>
      </trkpt>
      <trkpt lat="48.32818" lon="-1.66483">
        <ele>57.9</ele>
        <time>2019-07-16T10:29:22Z</time>
      </trkpt>
      <trkpt lat="48.32822" lon="-1.66486">
        <ele>57.9</ele>
        <time>2019-07-16T10:29:23Z</time>
      </trkpt>
      <trkpt lat="48.32826" lon="-1.66489">
        <ele>57.3</ele>
        <time>2019-07-16T10:29:24Z</time>
      </trkpt>
      <trkpt lat="48.3283" lon="-1.66493">
        <ele>56.1</ele>
        <time>2019-07-16T10:29:25Z</time>
      </trkpt>
      <trkpt lat="48.32834" lon="-1.66497">
        <ele>55.7</ele>
        <time>2019-07-16T10:29:26Z</time>
      </trkpt>
      <trkpt lat="48.32838" lon="-1.66501">
        <ele>55</ele>
        <time>2019-07-16T10:29:27Z</time>
      </trkpt>
      <trkpt lat="48.32842" lon="-1.66505">
        <ele>54.5</ele>
        <time>2019-07-16T10:29:28Z</time>
      </trkpt>
      <trkpt lat="48.32845" lon="-1.66509">
        <ele>53.9</ele>
        <time>2019-07-16T10:29:29Z</time>
      </trkpt>
      <trkpt lat="48.32849" lon="-1.66513">
        <ele>53.9</ele>
        <time>2019-07-16T10:29:30Z</time>
      </trkpt>
      <trkpt lat="48.32853" lon="-1.66518">
        <ele>53.8</ele>
        <time>2019-07-16T10:29:31Z</time>
      </trkpt>
      <trkpt lat="48.32856" lon="-1.66522">
        <ele>53.7</ele>
        <time>2019-07-16T10:29:32Z</time>
      </trkpt>
      <trkpt lat="48.3286" lon="-1.66526">
        <ele>53.5</ele>
        <time>2019-07-16T10:29:33Z</time>
      </trkpt>
      <trkpt lat="48.32863" lon="-1.6653">
        <ele>53.4</ele>
        <time>2019-07-16T10:29:34Z</time>
      </trkpt>
      <trkpt lat="48.32867" lon="-1.66533">
        <ele>53.3</ele>
        <time>2019-07-16T10:29:35Z</time>
      </trkpt>
      <trkpt lat="48.3287" lon="-1.66537">
        <ele>53.5</ele>
        <time>2019-07-16T10:29:36Z</time>
      </trkpt>
      <trkpt lat="48.32874" lon="-1.66542">
        <ele>53.6</ele>
        <time>2019-07-16T10:29:37Z</time>
      </trkpt>
      <trkpt lat="48.32876" lon="-1.66546">
        <ele>53.9</ele>
        <time>2019-07-16T10:29:38Z</time>
      </trkpt>
      <trkpt lat="48.32879" lon="-1.6655">
        <ele>53.8</ele>
        <time>2019-07-16T10:29:39Z</time>
      </trkpt>
      <trkpt lat="48.32882" lon="-1.66553">
        <ele>54</ele>
        <time>2019-07-16T10:29:40Z</time>
      </trkpt>
      <trkpt lat="48.32885" lon="-1.66557">
        <ele>54.5</ele>
        <time>2019-07-16T10:29:41Z</time>
      </trkpt>
      <trkpt lat="48.32888" lon="-1.66561">
        <ele>54.8</ele>
        <time>2019-07-16T10:29:42Z</time>
      </trkpt>
      <trkpt lat="48.3289" lon="-1.66565">
        <ele>55.1</ele>
        <time>2019-07-16T10:29:43Z</time>
      </trkpt>
      <trkpt lat="48.32894" lon="-1.66569">
        <ele>55.2</ele>
        <time>2019-07-16T10:29:44Z</time>
      </trkpt>
      <trkpt lat="48.32897" lon="-1.66572">
        <ele>55.8</ele>
        <time>2019-07-16T10:29:45Z</time>
      </trkpt>
      <trkpt lat="48.32901" lon="-1.66575">
        <ele>56</ele>
        <time>2019-07-16T10:29:46Z</time>
      </trkpt>
      <trkpt lat="48.32904" lon="-1.66578">
        <ele>56.2</ele>
        <time>2019-07-16T10:29:47Z</time>
      </trkpt>
      <trkpt lat="48.32908" lon="-1.66582">
        <ele>56.7</ele>
        <time>2019-07-16T10:29:48Z</time>
      </trkpt>
      <trkpt lat="48.32911" lon="-1.66585">
        <ele>57.1</ele>
        <time>2019-07-16T10:29:49Z</time>
      </trkpt>
      <trkpt lat="48.32915" lon="-1.66587">
        <ele>58</ele>
        <time>2019-07-16T10:29:50Z</time>
      </trkpt>
      <trkpt lat="48.32919" lon="-1.66589">
        <ele>58.5</ele>
        <time>2019-07-16T10:29:51Z</time>
      </trkpt>
      <trkpt lat="48.32923" lon="-1.66591">
        <ele>58.8</ele>
        <time>2019-07-16T10:29:52Z</time>
      </trkpt>
      <trkpt lat="48.32927" lon="-1.66593">
        <ele>58.9</ele>
        <time>2019-07-16T10:29:53Z</time>
      </trkpt>
      <trkpt lat="48.32931" lon="-1.66595">
        <ele>59</ele>
        <time>2019-07-16T10:29:54Z</time>
      </trkpt>
      <trkpt lat="48.32935" lon="-1.66597">
        <ele>58.9</ele>
        <time>2019-07-16T10:29:55Z</time>
      </trkpt>
      <trkpt lat="48.32939" lon="-1.66598">
        <ele>59.1</ele>
        <time>2019-07-16T10:29:56Z</time>
      </trkpt>
      <trkpt lat="48.32943" lon="-1.666">
        <ele>59.3</ele>
        <time>2019-07-16T10:29:57Z</time>
      </trkpt>
      <trkpt lat="48.32947" lon="-1.66602">
        <ele>59.3</ele>
        <time>2019-07-16T10:29:58Z</time>
      </trkpt>
      <trkpt lat="48.32951" lon="-1.66603">
        <ele>59.4</ele>
        <time>2019-07-16T10:29:59Z</time>
      </trkpt>
      <trkpt lat="48.32955" lon="-1.66605">
        <ele>59.3</ele>
        <time>2019-07-16T10:30:00Z</time>
      </trkpt>
      <trkpt lat="48.32959" lon="-1.66606">
        <ele>59.3</ele>
        <time>2019-07-16T10:30:01Z</time>
      </trkpt>
      <trkpt lat="48.32964" lon="-1.66607">
        <ele>58.8</ele>
        <time>2019-07-16T10:30:02Z</time>
      </trkpt>
      <trkpt lat="48.32968" lon="-1.66607">
        <ele>58.4</ele>
        <time>2019-07-16T10:30:03Z</time>
      </trkpt>
      <trkpt lat="48.32972" lon="-1.66608">
        <ele>58.3</ele>
        <time>2019-07-16T10:30:04Z</time>
      </trkpt>
      <trkpt lat="48.32977" lon="-1.6661">
        <ele>59.3</ele>
        <time>2019-07-16T10:30:05Z</time>
      </trkpt>
      <trkpt lat="48.32981" lon="-1.66611">
        <ele>59.4</ele>
        <time>2019-07-16T10:30:06Z</time>
      </trkpt>
      <trkpt lat="48.32985" lon="-1.66613">
        <ele>59.5</ele>
        <time>2019-07-16T10:30:07Z</time>
      </trkpt>
      <trkpt lat="48.32988" lon="-1.66616">
        <ele>59.4</ele>
        <time>2019-07-16T10:30:08Z</time>
      </trkpt>
      <trkpt lat="48.32992" lon="-1.66619">
        <ele>60</ele>
        <time>2019-07-16T10:30:09Z</time>
      </trkpt>
      <trkpt lat="48.32995" lon="-1.66623">
        <ele>60</ele>
        <time>2019-07-16T10:30:10Z</time>
      </trkpt>
      <trkpt lat="48.32998" lon="-1.66628">
        <ele>59.9</ele>
        <time>2019-07-16T10:30:11Z</time>
      </trkpt>
      <trkpt lat="48.33" lon="-1.66632">
        <ele>59.3</ele>
        <time>2019-07-16T10:30:12Z</time>
      </trkpt>
      <trkpt lat="48.33002" lon="-1.66638">
        <ele>59.3</ele>
        <time>2019-07-16T10:30:13Z</time>
      </trkpt>
      <trkpt lat="48.33003" lon="-1.66643">
        <ele>59.2</ele>
        <time>2019-07-16T10:30:14Z</time>
      </trkpt>
      <trkpt lat="48.33003" lon="-1.66648">
        <ele>58.5</ele>
        <time>2019-07-16T10:30:15Z</time>
      </trkpt>
      <trkpt lat="48.33003" lon="-1.66653">
        <ele>58.1</ele>
        <time>2019-07-16T10:30:16Z</time>
      </trkpt>
      <trkpt lat="48.33002" lon="-1.66659">
        <ele>58.1</ele>
        <time>2019-07-16T10:30:17Z</time>
      </trkpt>
      <trkpt lat="48.33002" lon="-1.66664">
        <ele>57.9</ele>
        <time>2019-07-16T10:30:18Z</time>
      </trkpt>
      <trkpt lat="48.33002" lon="-1.66669">
        <ele>57.9</ele>
        <time>2019-07-16T10:30:19Z</time>
      </trkpt>
      <trkpt lat="48.33002" lon="-1.66675">
        <ele>57.8</ele>
        <time>2019-07-16T10:30:20Z</time>
      </trkpt>
      <trkpt lat="48.33001" lon="-1.6668">
        <ele>57.7</ele>
        <time>2019-07-16T10:30:21Z</time>
      </trkpt>
      <trkpt lat="48.33001" lon="-1.66686">
        <ele>57.7</ele>
        <time>2019-07-16T10:30:22Z</time>
      </trkpt>
      <trkpt lat="48.33003" lon="-1.66693">
        <ele>57.7</ele>
        <time>2019-07-16T10:30:23Z</time>
      </trkpt>
      <trkpt lat="48.33004" lon="-1.66699">
        <ele>57.6</ele>
        <time>2019-07-16T10:30:24Z</time>
      </trkpt>
      <trkpt lat="48.33006" lon="-1.66706">
        <ele>57.7</ele>
        <time>2019-07-16T10:30:25Z</time>
      </trkpt>
      <trkpt lat="48.33007" lon="-1.66713">
        <ele>57.9</ele>
        <time>2019-07-16T10:30:26Z</time>
      </trkpt>
      <trkpt lat="48.3301" lon="-1.66719">
        <ele>58.1</ele>
        <time>2019-07-16T10:30:27Z</time>
      </trkpt>
      <trkpt lat="48.33013" lon="-1.66725">
        <ele>58.2</ele>
        <time>2019-07-16T10:30:28Z</time>
      </trkpt>
      <trkpt lat="48.33016" lon="-1.6673">
        <ele>58</ele>
        <time>2019-07-16T10:30:29Z</time>
      </trkpt>
      <trkpt lat="48.33019" lon="-1.66734">
        <ele>58.6</ele>
        <time>2019-07-16T10:30:30Z</time>
      </trkpt>
      <trkpt lat="48.33022" lon="-1.66738">
        <ele>59.2</ele>
        <time>2019-07-16T10:30:31Z</time>
      </trkpt>
      <trkpt lat="48.33025" lon="-1.66743">
        <ele>59.3</ele>
        <time>2019-07-16T10:30:32Z</time>
      </trkpt>
      <trkpt lat="48.33028" lon="-1.66747">
        <ele>59.6</ele>
        <time>2019-07-16T10:30:33Z</time>
      </trkpt>
      <trkpt lat="48.33032" lon="-1.66752">
        <ele>59.9</ele>
        <time>2019-07-16T10:30:34Z</time>
      </trkpt>
      <trkpt lat="48.33035" lon="-1.66756">
        <ele>60</ele>
        <time>2019-07-16T10:30:35Z</time>
      </trkpt>
      <trkpt lat="48.33037" lon="-1.66761">
        <ele>59.8</ele>
        <time>2019-07-16T10:30:36Z</time>
      </trkpt>
      <trkpt lat="48.3304" lon="-1.66765">
        <ele>59.5</ele>
        <time>2019-07-16T10:30:37Z</time>
      </trkpt>
      <trkpt lat="48.33043" lon="-1.66767">
        <ele>59.7</ele>
        <time>2019-07-16T10:30:38Z</time>
      </trkpt>
      <trkpt lat="48.33047" lon="-1.66769">
        <ele>58.8</ele>
        <time>2019-07-16T10:30:39Z</time>
      </trkpt>
      <trkpt lat="48.33051" lon="-1.6677">
        <ele>59.1</ele>
        <time>2019-07-16T10:30:40Z</time>
      </trkpt>
      <trkpt lat="48.33054" lon="-1.66771">
        <ele>58.6</ele>
        <time>2019-07-16T10:30:41Z</time>
      </trkpt>
      <trkpt lat="48.33058" lon="-1.66772">
        <ele>58.9</ele>
        <time>2019-07-16T10:30:42Z</time>
      </trkpt>
      <trkpt lat="48.33062" lon="-1.66772">
        <ele>59.1</ele>
        <time>2019-07-16T10:30:43Z</time>
      </trkpt>
      <trkpt lat="48.33065" lon="-1.66772">
        <ele>59.4</ele>
        <time>2019-07-16T10:30:44Z</time>
      </trkpt>
      <trkpt lat="48.33069" lon="-1.66772">
        <ele>59.5</ele>
        <time>2019-07-16T10:30:45Z</time>
      </trkpt>
      <trkpt lat="48.33072" lon="-1.66771">
        <ele>59.6</ele>
        <time>2019-07-16T10:30:46Z</time>
      </trkpt>
      <trkpt lat="48.33075" lon="-1.66771">
        <ele>59.4</ele>
        <time>2019-07-16T10:30:47Z</time>
      </trkpt>
      <trkpt lat="48.33079" lon="-1.66771">
        <ele>58.4</ele>
        <time>2019-07-16T10:30:48Z</time>
      </trkpt>
      <trkpt lat="48.33083" lon="-1.66771">
        <ele>58.1</ele>
        <time>2019-07-16T10:30:49Z</time>
      </trkpt>
      <trkpt lat="48.33086" lon="-1.6677">
        <ele>58.4</ele>
        <time>2019-07-16T10:30:50Z</time>
      </trkpt>
      <trkpt lat="48.33091" lon="-1.66768">
        <ele>59</ele>
        <time>2019-07-16T10:30:51Z</time>
      </trkpt>
      <trkpt lat="48.33095" lon="-1.66766">
        <ele>59.7</ele>
        <time>2019-07-16T10:30:52Z</time>
      </trkpt>
      <trkpt lat="48.33099" lon="-1.66764">
        <ele>60.4</ele>
        <time>2019-07-16T10:30:53Z</time>
      </trkpt>
      <trkpt lat="48.33102" lon="-1.66762">
        <ele>60.7</ele>
        <time>2019-07-16T10:30:54Z</time>
      </trkpt>
      <trkpt lat="48.33106" lon="-1.6676">
        <ele>60.8</ele>
        <time>2019-07-16T10:30:55Z</time>
      </trkpt>
      <trkpt lat="48.33109" lon="-1.66758">
        <ele>61.4</ele>
        <time>2019-07-16T10:30:56Z</time>
      </trkpt>
      <trkpt lat="48.33112" lon="-1.66756">
        <ele>61.6</ele>
        <time>2019-07-16T10:30:57Z</time>
      </trkpt>
      <trkpt lat="48.33115" lon="-1.66753">
        <ele>61.5</ele>
        <time>2019-07-16T10:30:58Z</time>
      </trkpt>
      <trkpt lat="48.33117" lon="-1.66751">
        <ele>62.2</ele>
        <time>2019-07-16T10:30:59Z</time>
      </trkpt>
      <trkpt lat="48.33119" lon="-1.66748">
        <ele>62.3</ele>
        <time>2019-07-16T10:31:00Z</time>
      </trkpt>
      <trkpt lat="48.33122" lon="-1.66746">
        <ele>62.4</ele>
        <time>2019-07-16T10:31:01Z</time>
      </trkpt>
      <trkpt lat="48.33124" lon="-1.66743">
        <ele>61.7</ele>
        <time>2019-07-16T10:31:02Z</time>
      </trkpt>
      <trkpt lat="48.33127" lon="-1.66741">
        <ele>61.2</ele>
        <time>2019-07-16T10:31:03Z</time>
      </trkpt>
      <trkpt lat="48.3313" lon="-1.66739">
        <ele>61.1</ele>
        <time>2019-07-16T10:31:04Z</time>
      </trkpt>
      <trkpt lat="48.33133" lon="-1.66736">
        <ele>60.8</ele>
        <time>2019-07-16T10:31:05Z</time>
      </trkpt>
      <trkpt lat="48.33136" lon="-1.66733">
        <ele>60.4</ele>
        <time>2019-07-16T10:31:06Z</time>
      </trkpt>
      <trkpt lat="48.33139" lon="-1.66731">
        <ele>59.9</ele>
        <time>2019-07-16T10:31:07Z</time>
      </trkpt>
      <trkpt lat="48.33142" lon="-1.66729">
        <ele>59.7</ele>
        <time>2019-07-16T10:31:08Z</time>
      </trkpt>
      <trkpt lat="48.33146" lon="-1.66726">
        <ele>58.9</ele>
        <time>2019-07-16T10:31:09Z</time>
      </trkpt>
      <trkpt lat="48.33149" lon="-1.66723">
        <ele>58.3</ele>
        <time>2019-07-16T10:31:10Z</time>
      </trkpt>
      <trkpt lat="48.33152" lon="-1.66719">
        <ele>58.1</ele>
        <time>2019-07-16T10:31:11Z</time>
      </trkpt>
      <trkpt lat="48.33155" lon="-1.66715">
        <ele>57.7</ele>
        <time>2019-07-16T10:31:12Z</time>
      </trkpt>
      <trkpt lat="48.33159" lon="-1.66711">
        <ele>57.6</ele>
        <time>2019-07-16T10:31:13Z</time>
      </trkpt>
      <trkpt lat="48.33162" lon="-1.66706">
        <ele>58</ele>
        <time>2019-07-16T10:31:14Z</time>
      </trkpt>
      <trkpt lat="48.33165" lon="-1.667">
        <ele>58</ele>
        <time>2019-07-16T10:31:15Z</time>
      </trkpt>
      <trkpt lat="48.33168" lon="-1.66692">
        <ele>58.6</ele>
        <time>2019-07-16T10:31:16Z</time>
      </trkpt>
      <trkpt lat="48.33171" lon="-1.66684">
        <ele>59.1</ele>
        <time>2019-07-16T10:31:17Z</time>
      </trkpt>
      <trkpt lat="48.33172" lon="-1.66676">
        <ele>59.1</ele>
        <time>2019-07-16T10:31:18Z</time>
      </trkpt>
      <trkpt lat="48.33174" lon="-1.66669">
        <ele>59.2</ele>
        <time>2019-07-16T10:31:19Z</time>
      </trkpt>
      <trkpt lat="48.33175" lon="-1.66661">
        <ele>59.2</ele>
        <time>2019-07-16T10:31:20Z</time>
      </trkpt>
      <trkpt lat="48.33177" lon="-1.66654">
        <ele>59.3</ele>
        <time>2019-07-16T10:31:21Z</time>
      </trkpt>
      <trkpt lat="48.33178" lon="-1.66648">
        <ele>59.6</ele>
        <time>2019-07-16T10:31:22Z</time>
      </trkpt>
      <trkpt lat="48.3318" lon="-1.66641">
        <ele>59.6</ele>
        <time>2019-07-16T10:31:23Z</time>
      </trkpt>
      <trkpt lat="48.33181" lon="-1.66636">
        <ele>59.7</ele>
        <time>2019-07-16T10:31:24Z</time>
      </trkpt>
      <trkpt lat="48.33182" lon="-1.6663">
        <ele>59.7</ele>
        <time>2019-07-16T10:31:25Z</time>
      </trkpt>
      <trkpt lat="48.33183" lon="-1.66625">
        <ele>59.7</ele>
        <time>2019-07-16T10:31:26Z</time>
      </trkpt>
      <trkpt lat="48.33185" lon="-1.66621">
        <ele>60</ele>
        <time>2019-07-16T10:31:27Z</time>
      </trkpt>
      <trkpt lat="48.33186" lon="-1.66616">
        <ele>60.4</ele>
        <time>2019-07-16T10:31:28Z</time>
      </trkpt>
      <trkpt lat="48.33188" lon="-1.66612">
        <ele>60.8</ele>
        <time>2019-07-16T10:31:29Z</time>
      </trkpt>
      <trkpt lat="48.33189" lon="-1.66608">
        <ele>60.9</ele>
        <time>2019-07-16T10:31:30Z</time>
      </trkpt>
      <trkpt lat="48.33191" lon="-1.66604">
        <ele>61</ele>
        <time>2019-07-16T10:31:31Z</time>
      </trkpt>
      <trkpt lat="48.33193" lon="-1.66602">
        <ele>61.8</ele>
        <time>2019-07-16T10:31:32Z</time>
      </trkpt>
      <trkpt lat="48.33196" lon="-1.66598">
        <ele>62.6</ele>
        <time>2019-07-16T10:31:33Z</time>
      </trkpt>
      <trkpt lat="48.33198" lon="-1.66593">
        <ele>62.8</ele>
        <time>2019-07-16T10:31:34Z</time>
      </trkpt>
      <trkpt lat="48.332" lon="-1.66588">
        <ele>63</ele>
        <time>2019-07-16T10:31:35Z</time>
      </trkpt>
      <trkpt lat="48.33202" lon="-1.66583">
        <ele>62.6</ele>
        <time>2019-07-16T10:31:36Z</time>
      </trkpt>
      <trkpt lat="48.33205" lon="-1.66578">
        <ele>62.4</ele>
        <time>2019-07-16T10:31:37Z</time>
      </trkpt>
      <trkpt lat="48.33207" lon="-1.66573">
        <ele>62.2</ele>
        <time>2019-07-16T10:31:38Z</time>
      </trkpt>
      <trkpt lat="48.3321" lon="-1.66568">
        <ele>62</ele>
        <time>2019-07-16T10:31:39Z</time>
      </trkpt>
      <trkpt lat="48.33212" lon="-1.66563">
        <ele>61.6</ele>
        <time>2019-07-16T10:31:40Z</time>
      </trkpt>
      <trkpt lat="48.33213" lon="-1.66558">
        <ele>61.4</ele>
        <time>2019-07-16T10:31:41Z</time>
      </trkpt>
      <trkpt lat="48.33215" lon="-1.66552">
        <ele>61.4</ele>
        <time>2019-07-16T10:31:42Z</time>
      </trkpt>
      <trkpt lat="48.33216" lon="-1.66546">
        <ele>61.6</ele>
        <time>2019-07-16T10:31:43Z</time>
      </trkpt>
      <trkpt lat="48.33218" lon="-1.66541">
        <ele>62.1</ele>
        <time>2019-07-16T10:31:44Z</time>
      </trkpt>
      <trkpt lat="48.3322" lon="-1.66534">
        <ele>62.2</ele>
        <time>2019-07-16T10:31:45Z</time>
      </trkpt>
      <trkpt lat="48.33222" lon="-1.66527">
        <ele>62.1</ele>
        <time>2019-07-16T10:31:46Z</time>
      </trkpt>
      <trkpt lat="48.33223" lon="-1.6652">
        <ele>62.3</ele>
        <time>2019-07-16T10:31:47Z</time>
      </trkpt>
      <trkpt lat="48.33224" lon="-1.66513">
        <ele>62.5</ele>
        <time>2019-07-16T10:31:48Z</time>
      </trkpt>
      <trkpt lat="48.33225" lon="-1.66506">
        <ele>62.7</ele>
        <time>2019-07-16T10:31:49Z</time>
      </trkpt>
      <trkpt lat="48.33226" lon="-1.66499">
        <ele>62.5</ele>
        <time>2019-07-16T10:31:50Z</time>
      </trkpt>
      <trkpt lat="48.33226" lon="-1.66492">
        <ele>61.6</ele>
        <time>2019-07-16T10:31:51Z</time>
      </trkpt>
      <trkpt lat="48.33227" lon="-1.66485">
        <ele>61.2</ele>
        <time>2019-07-16T10:31:52Z</time>
      </trkpt>
      <trkpt lat="48.33228" lon="-1.66478">
        <ele>60.7</ele>
        <time>2019-07-16T10:31:53Z</time>
      </trkpt>
      <trkpt lat="48.33229" lon="-1.66471">
        <ele>60.1</ele>
        <time>2019-07-16T10:31:54Z</time>
      </trkpt>
      <trkpt lat="48.3323" lon="-1.66465">
        <ele>59.2</ele>
        <time>2019-07-16T10:31:55Z</time>
      </trkpt>
      <trkpt lat="48.33231" lon="-1.66459">
        <ele>59.2</ele>
        <time>2019-07-16T10:31:56Z</time>
      </trkpt>
      <trkpt lat="48.33233" lon="-1.66454">
        <ele>59</ele>
        <time>2019-07-16T10:31:57Z</time>
      </trkpt>
      <trkpt lat="48.33235" lon="-1.66448">
        <ele>58.8</ele>
        <time>2019-07-16T10:31:58Z</time>
      </trkpt>
      <trkpt lat="48.33237" lon="-1.66442">
        <ele>59</ele>
        <time>2019-07-16T10:31:59Z</time>
      </trkpt>
      <trkpt lat="48.3324" lon="-1.66437">
        <ele>59.1</ele>
        <time>2019-07-16T10:32:00Z</time>
      </trkpt>
      <trkpt lat="48.33242" lon="-1.66431">
        <ele>59.1</ele>
        <time>2019-07-16T10:32:01Z</time>
      </trkpt>
      <trkpt lat="48.33246" lon="-1.66426">
        <ele>59.4</ele>
        <time>2019-07-16T10:32:02Z</time>
      </trkpt>
      <trkpt lat="48.33249" lon="-1.66422">
        <ele>59.6</ele>
        <time>2019-07-16T10:32:03Z</time>
      </trkpt>
      <trkpt lat="48.33252" lon="-1.66417">
        <ele>59.7</ele>
        <time>2019-07-16T10:32:04Z</time>
      </trkpt>
      <trkpt lat="48.33255" lon="-1.66414">
        <ele>59.8</ele>
        <time>2019-07-16T10:32:05Z</time>
      </trkpt>
      <trkpt lat="48.33259" lon="-1.6641">
        <ele>60.1</ele>
        <time>2019-07-16T10:32:06Z</time>
      </trkpt>
      <trkpt lat="48.33262" lon="-1.66407">
        <ele>60.3</ele>
        <time>2019-07-16T10:32:07Z</time>
      </trkpt>
      <trkpt lat="48.33266" lon="-1.66403">
        <ele>60.7</ele>
        <time>2019-07-16T10:32:08Z</time>
      </trkpt>
      <trkpt lat="48.33268" lon="-1.664">
        <ele>60.8</ele>
        <time>2019-07-16T10:32:09Z</time>
      </trkpt>
      <trkpt lat="48.33272" lon="-1.66398">
        <ele>61.1</ele>
        <time>2019-07-16T10:32:10Z</time>
      </trkpt>
      <trkpt lat="48.33275" lon="-1.66395">
        <ele>61.3</ele>
        <time>2019-07-16T10:32:11Z</time>
      </trkpt>
      <trkpt lat="48.33278" lon="-1.66392">
        <ele>61.5</ele>
        <time>2019-07-16T10:32:12Z</time>
      </trkpt>
      <trkpt lat="48.33281" lon="-1.66389">
        <ele>60.8</ele>
        <time>2019-07-16T10:32:13Z</time>
      </trkpt>
      <trkpt lat="48.33284" lon="-1.66386">
        <ele>60.6</ele>
        <time>2019-07-16T10:32:14Z</time>
      </trkpt>
      <trkpt lat="48.33286" lon="-1.66382">
        <ele>60.3</ele>
        <time>2019-07-16T10:32:15Z</time>
      </trkpt>
      <trkpt lat="48.33289" lon="-1.66378">
        <ele>59.6</ele>
        <time>2019-07-16T10:32:16Z</time>
      </trkpt>
      <trkpt lat="48.33291" lon="-1.66374">
        <ele>59.4</ele>
        <time>2019-07-16T10:32:17Z</time>
      </trkpt>
      <trkpt lat="48.33294" lon="-1.6637">
        <ele>59.3</ele>
        <time>2019-07-16T10:32:18Z</time>
      </trkpt>
      <trkpt lat="48.33297" lon="-1.66367">
        <ele>59</ele>
        <time>2019-07-16T10:32:19Z</time>
      </trkpt>
      <trkpt lat="48.333" lon="-1.66362">
        <ele>58.8</ele>
        <time>2019-07-16T10:32:20Z</time>
      </trkpt>
      <trkpt lat="48.33302" lon="-1.66358">
        <ele>58.5</ele>
        <time>2019-07-16T10:32:21Z</time>
      </trkpt>
      <trkpt lat="48.33305" lon="-1.66353">
        <ele>58.1</ele>
        <time>2019-07-16T10:32:22Z</time>
      </trkpt>
      <trkpt lat="48.33307" lon="-1.66348">
        <ele>57.7</ele>
        <time>2019-07-16T10:32:23Z</time>
      </trkpt>
      <trkpt lat="48.3331" lon="-1.66343">
        <ele>57.5</ele>
        <time>2019-07-16T10:32:24Z</time>
      </trkpt>
      <trkpt lat="48.33312" lon="-1.66337">
        <ele>57.6</ele>
        <time>2019-07-16T10:32:25Z</time>
      </trkpt>
      <trkpt lat="48.33314" lon="-1.66332">
        <ele>57.5</ele>
        <time>2019-07-16T10:32:26Z</time>
      </trkpt>
      <trkpt lat="48.33317" lon="-1.66328">
        <ele>57.6</ele>
        <time>2019-07-16T10:32:27Z</time>
      </trkpt>
      <trkpt lat="48.33321" lon="-1.66324">
        <ele>57.9</ele>
        <time>2019-07-16T10:32:28Z</time>
      </trkpt>
      <trkpt lat="48.33324" lon="-1.6632">
        <ele>57.9</ele>
        <time>2019-07-16T10:32:29Z</time>
      </trkpt>
      <trkpt lat="48.33328" lon="-1.66318">
        <ele>58</ele>
        <time>2019-07-16T10:32:30Z</time>
      </trkpt>
      <trkpt lat="48.33332" lon="-1.66315">
        <ele>57.9</ele>
        <time>2019-07-16T10:32:31Z</time>
      </trkpt>
      <trkpt lat="48.33336" lon="-1.66314">
        <ele>57.8</ele>
        <time>2019-07-16T10:32:32Z</time>
      </trkpt>
      <trkpt lat="48.3334" lon="-1.66313">
        <ele>57.7</ele>
        <time>2019-07-16T10:32:33Z</time>
      </trkpt>
      <trkpt lat="48.33344" lon="-1.66312">
        <ele>57.4</ele>
        <time>2019-07-16T10:32:34Z</time>
      </trkpt>
      <trkpt lat="48.33347" lon="-1.66311">
        <ele>56.6</ele>
        <time>2019-07-16T10:32:35Z</time>
      </trkpt>
      <trkpt lat="48.3335" lon="-1.66309">
        <ele>56.1</ele>
        <time>2019-07-16T10:32:36Z</time>
      </trkpt>
      <trkpt lat="48.33354" lon="-1.66308">
        <ele>56.1</ele>
        <time>2019-07-16T10:32:37Z</time>
      </trkpt>
      <trkpt lat="48.33357" lon="-1.66307">
        <ele>56.7</ele>
        <time>2019-07-16T10:32:38Z</time>
      </trkpt>
      <trkpt lat="48.33361" lon="-1.66306">
        <ele>57.3</ele>
        <time>2019-07-16T10:32:39Z</time>
      </trkpt>
      <trkpt lat="48.33365" lon="-1.66304">
        <ele>57.9</ele>
        <time>2019-07-16T10:32:40Z</time>
      </trkpt>
      <trkpt lat="48.33368" lon="-1.66303">
        <ele>58.6</ele>
        <time>2019-07-16T10:32:41Z</time>
      </trkpt>
      <trkpt lat="48.33372" lon="-1.66302">
        <ele>59</ele>
        <time>2019-07-16T10:32:42Z</time>
      </trkpt>
      <trkpt lat="48.33375" lon="-1.66301">
        <ele>59.5</ele>
        <time>2019-07-16T10:32:43Z</time>
      </trkpt>
      <trkpt lat="48.33379" lon="-1.663">
        <ele>59.9</ele>
        <time>2019-07-16T10:32:44Z</time>
      </trkpt>
      <trkpt lat="48.33383" lon="-1.66298">
        <ele>60.2</ele>
        <time>2019-07-16T10:32:45Z</time>
      </trkpt>
      <trkpt lat="48.33386" lon="-1.66297">
        <ele>59.9</ele>
        <time>2019-07-16T10:32:46Z</time>
      </trkpt>
      <trkpt lat="48.33389" lon="-1.66295">
        <ele>59.8</ele>
        <time>2019-07-16T10:32:47Z</time>
      </trkpt>
      <trkpt lat="48.33393" lon="-1.66293">
        <ele>59.9</ele>
        <time>2019-07-16T10:32:48Z</time>
      </trkpt>
      <trkpt lat="48.33396" lon="-1.66292">
        <ele>59.9</ele>
        <time>2019-07-16T10:32:49Z</time>
      </trkpt>
      <trkpt lat="48.33399" lon="-1.6629">
        <ele>59.5</ele>
        <time>2019-07-16T10:32:50Z</time>
      </trkpt>
      <trkpt lat="48.33403" lon="-1.66288">
        <ele>59.4</ele>
        <time>2019-07-16T10:32:51Z</time>
      </trkpt>
      <trkpt lat="48.33406" lon="-1.66286">
        <ele>59.4</ele>
        <time>2019-07-16T10:32:52Z</time>
      </trkpt>
      <trkpt lat="48.33409" lon="-1.66283">
        <ele>59.5</ele>
        <time>2019-07-16T10:32:53Z</time>
      </trkpt>
      <trkpt lat="48.33412" lon="-1.6628">
        <ele>59.7</ele>
        <time>2019-07-16T10:32:54Z</time>
      </trkpt>
      <trkpt lat="48.33415" lon="-1.66277">
        <ele>59.4</ele>
        <time>2019-07-16T10:32:55Z</time>
      </trkpt>
      <trkpt lat="48.33418" lon="-1.66273">
        <ele>59.3</ele>
        <time>2019-07-16T10:32:56Z</time>
      </trkpt>
      <trkpt lat="48.33421" lon="-1.6627">
        <ele>59.2</ele>
        <time>2019-07-16T10:32:57Z</time>
      </trkpt>
      <trkpt lat="48.33424" lon="-1.66267">
        <ele>59.4</ele>
        <time>2019-07-16T10:32:58Z</time>
      </trkpt>
      <trkpt lat="48.33427" lon="-1.66264">
        <ele>59.6</ele>
        <time>2019-07-16T10:32:59Z</time>
      </trkpt>
      <trkpt lat="48.3343" lon="-1.6626">
        <ele>59.9</ele>
        <time>2019-07-16T10:33:00Z</time>
      </trkpt>
      <trkpt lat="48.33432" lon="-1.66256">
        <ele>60.3</ele>
        <time>2019-07-16T10:33:01Z</time>
      </trkpt>
      <trkpt lat="48.33435" lon="-1.66251">
        <ele>60.4</ele>
        <time>2019-07-16T10:33:02Z</time>
      </trkpt>
      <trkpt lat="48.33437" lon="-1.66247">
        <ele>60.6</ele>
        <time>2019-07-16T10:33:03Z</time>
      </trkpt>
      <trkpt lat="48.3344" lon="-1.66242">
        <ele>61.1</ele>
        <time>2019-07-16T10:33:04Z</time>
      </trkpt>
      <trkpt lat="48.33442" lon="-1.66237">
        <ele>61.3</ele>
        <time>2019-07-16T10:33:05Z</time>
      </trkpt>
      <trkpt lat="48.33444" lon="-1.66233">
        <ele>61.6</ele>
        <time>2019-07-16T10:33:06Z</time>
      </trkpt>
      <trkpt lat="48.33446" lon="-1.66227">
        <ele>62</ele>
        <time>2019-07-16T10:33:07Z</time>
      </trkpt>
      <trkpt lat="48.33448" lon="-1.66222">
        <ele>62.6</ele>
        <time>2019-07-16T10:33:08Z</time>
      </trkpt>
      <trkpt lat="48.3345" lon="-1.66218">
        <ele>62.8</ele>
        <time>2019-07-16T10:33:09Z</time>
      </trkpt>
      <trkpt lat="48.33452" lon="-1.66213">
        <ele>63</ele>
        <time>2019-07-16T10:33:10Z</time>
      </trkpt>
      <trkpt lat="48.33455" lon="-1.66208">
        <ele>63.2</ele>
        <time>2019-07-16T10:33:11Z</time>
      </trkpt>
      <trkpt lat="48.33456" lon="-1.66203">
        <ele>62.9</ele>
        <time>2019-07-16T10:33:12Z</time>
      </trkpt>
      <trkpt lat="48.33458" lon="-1.66198">
        <ele>62.6</ele>
        <time>2019-07-16T10:33:13Z</time>
      </trkpt>
      <trkpt lat="48.3346" lon="-1.66193">
        <ele>62.4</ele>
        <time>2019-07-16T10:33:14Z</time>
      </trkpt>
      <trkpt lat="48.33462" lon="-1.66189">
        <ele>62.2</ele>
        <time>2019-07-16T10:33:15Z</time>
      </trkpt>
      <trkpt lat="48.33464" lon="-1.66184">
        <ele>62</ele>
        <time>2019-07-16T10:33:16Z</time>
      </trkpt>
      <trkpt lat="48.33466" lon="-1.66179">
        <ele>61.9</ele>
        <time>2019-07-16T10:33:17Z</time>
      </trkpt>
      <trkpt lat="48.33468" lon="-1.66175">
        <ele>62</ele>
        <time>2019-07-16T10:33:18Z</time>
      </trkpt>
      <trkpt lat="48.3347" lon="-1.6617">
        <ele>61.8</ele>
        <time>2019-07-16T10:33:19Z</time>
      </trkpt>
      <trkpt lat="48.33472" lon="-1.66165">
        <ele>61.5</ele>
        <time>2019-07-16T10:33:20Z</time>
      </trkpt>
      <trkpt lat="48.33474" lon="-1.66161">
        <ele>61.2</ele>
        <time>2019-07-16T10:33:21Z</time>
      </trkpt>
      <trkpt lat="48.33476" lon="-1.66157">
        <ele>61.1</ele>
        <time>2019-07-16T10:33:22Z</time>
      </trkpt>
      <trkpt lat="48.33478" lon="-1.66153">
        <ele>61.2</ele>
        <time>2019-07-16T10:33:23Z</time>
      </trkpt>
      <trkpt lat="48.3348" lon="-1.66148">
        <ele>61.2</ele>
        <time>2019-07-16T10:33:24Z</time>
      </trkpt>
      <trkpt lat="48.33482" lon="-1.66143">
        <ele>61.5</ele>
        <time>2019-07-16T10:33:25Z</time>
      </trkpt>
      <trkpt lat="48.33483" lon="-1.66138">
        <ele>61.6</ele>
        <time>2019-07-16T10:33:26Z</time>
      </trkpt>
      <trkpt lat="48.33485" lon="-1.66134">
        <ele>61.5</ele>
        <time>2019-07-16T10:33:27Z</time>
      </trkpt>
      <trkpt lat="48.33487" lon="-1.6613">
        <ele>61.4</ele>
        <time>2019-07-16T10:33:28Z</time>
      </trkpt>
      <trkpt lat="48.33489" lon="-1.66126">
        <ele>61.8</ele>
        <time>2019-07-16T10:33:29Z</time>
      </trkpt>
      <trkpt lat="48.33491" lon="-1.66121">
        <ele>62.3</ele>
        <time>2019-07-16T10:33:30Z</time>
      </trkpt>
      <trkpt lat="48.33494" lon="-1.66117">
        <ele>63.1</ele>
        <time>2019-07-16T10:33:31Z</time>
      </trkpt>
      <trkpt lat="48.33497" lon="-1.66115">
        <ele>62.9</ele>
        <time>2019-07-16T10:33:32Z</time>
      </trkpt>
      <trkpt lat="48.335" lon="-1.66114">
        <ele>62.7</ele>
        <time>2019-07-16T10:33:33Z</time>
      </trkpt>
      <trkpt lat="48.33502" lon="-1.66113">
        <ele>63</ele>
        <time>2019-07-16T10:33:34Z</time>
      </trkpt>
      <trkpt lat="48.33505" lon="-1.66111">
        <ele>62.6</ele>
        <time>2019-07-16T10:33:35Z</time>
      </trkpt>
      <trkpt lat="48.33509" lon="-1.66108">
        <ele>61.4</ele>
        <time>2019-07-16T10:33:36Z</time>
      </trkpt>
      <trkpt lat="48.33513" lon="-1.66105">
        <ele>61.1</ele>
        <time>2019-07-16T10:33:37Z</time>
      </trkpt>
      <trkpt lat="48.33516" lon="-1.66104">
        <ele>61.6</ele>
        <time>2019-07-16T10:33:38Z</time>
      </trkpt>
      <trkpt lat="48.3352" lon="-1.66104">
        <ele>61.7</ele>
        <time>2019-07-16T10:33:39Z</time>
      </trkpt>
      <trkpt lat="48.33524" lon="-1.66104">
        <ele>61.7</ele>
        <time>2019-07-16T10:33:40Z</time>
      </trkpt>
      <trkpt lat="48.33527" lon="-1.66103">
        <ele>62</ele>
        <time>2019-07-16T10:33:41Z</time>
      </trkpt>
      <trkpt lat="48.33531" lon="-1.66103">
        <ele>62.1</ele>
        <time>2019-07-16T10:33:42Z</time>
      </trkpt>
      <trkpt lat="48.33534" lon="-1.66103">
        <ele>62.6</ele>
        <time>2019-07-16T10:33:43Z</time>
      </trkpt>
      <trkpt lat="48.33538" lon="-1.66103">
        <ele>63.6</ele>
        <time>2019-07-16T10:33:44Z</time>
      </trkpt>
      <trkpt lat="48.33542" lon="-1.66104">
        <ele>65.1</ele>
        <time>2019-07-16T10:33:45Z</time>
      </trkpt>
      <trkpt lat="48.33546" lon="-1.66105">
        <ele>65.7</ele>
        <time>2019-07-16T10:33:46Z</time>
      </trkpt>
      <trkpt lat="48.3355" lon="-1.66106">
        <ele>66.3</ele>
        <time>2019-07-16T10:33:47Z</time>
      </trkpt>
      <trkpt lat="48.33554" lon="-1.66108">
        <ele>67.1</ele>
        <time>2019-07-16T10:33:48Z</time>
      </trkpt>
      <trkpt lat="48.33558" lon="-1.66108">
        <ele>67.5</ele>
        <time>2019-07-16T10:33:49Z</time>
      </trkpt>
      <trkpt lat="48.33561" lon="-1.66109">
        <ele>67.5</ele>
        <time>2019-07-16T10:33:50Z</time>
      </trkpt>
      <trkpt lat="48.33564" lon="-1.66111">
        <ele>67.5</ele>
        <time>2019-07-16T10:33:51Z</time>
      </trkpt>
      <trkpt lat="48.33567" lon="-1.66112">
        <ele>67.2</ele>
        <time>2019-07-16T10:33:52Z</time>
      </trkpt>
      <trkpt lat="48.3357" lon="-1.66113">
        <ele>66.5</ele>
        <time>2019-07-16T10:33:53Z</time>
      </trkpt>
      <trkpt lat="48.33573" lon="-1.66114">
        <ele>66</ele>
        <time>2019-07-16T10:33:54Z</time>
      </trkpt>
      <trkpt lat="48.33576" lon="-1.66114">
        <ele>65.6</ele>
        <time>2019-07-16T10:33:55Z</time>
      </trkpt>
      <trkpt lat="48.33579" lon="-1.66115">
        <ele>65.1</ele>
        <time>2019-07-16T10:33:56Z</time>
      </trkpt>
      <trkpt lat="48.33582" lon="-1.66116">
        <ele>64.5</ele>
        <time>2019-07-16T10:33:57Z</time>
      </trkpt>
      <trkpt lat="48.33585" lon="-1.66116">
        <ele>64.1</ele>
        <time>2019-07-16T10:33:58Z</time>
      </trkpt>
      <trkpt lat="48.33589" lon="-1.66116">
        <ele>64.1</ele>
        <time>2019-07-16T10:33:59Z</time>
      </trkpt>
      <trkpt lat="48.33592" lon="-1.66116">
        <ele>64.1</ele>
        <time>2019-07-16T10:34:00Z</time>
      </trkpt>
      <trkpt lat="48.33596" lon="-1.66117">
        <ele>63.8</ele>
        <time>2019-07-16T10:34:01Z</time>
      </trkpt>
      <trkpt lat="48.33599" lon="-1.66118">
        <ele>63.9</ele>
        <time>2019-07-16T10:34:02Z</time>
      </trkpt>
      <trkpt lat="48.33603" lon="-1.66118">
        <ele>64.1</ele>
        <time>2019-07-16T10:34:03Z</time>
      </trkpt>
      <trkpt lat="48.33606" lon="-1.66118">
        <ele>64.1</ele>
        <time>2019-07-16T10:34:04Z</time>
      </trkpt>
      <trkpt lat="48.33609" lon="-1.66119">
        <ele>63.9</ele>
        <time>2019-07-16T10:34:05Z</time>
      </trkpt>
      <trkpt lat="48.33613" lon="-1.66119">
        <ele>64.1</ele>
        <time>2019-07-16T10:34:06Z</time>
      </trkpt>
      <trkpt lat="48.33616" lon="-1.6612">
        <ele>64.1</ele>
        <time>2019-07-16T10:34:07Z</time>
      </trkpt>
      <trkpt lat="48.3362" lon="-1.6612">
        <ele>63.7</ele>
        <time>2019-07-16T10:34:08Z</time>
      </trkpt>
      <trkpt lat="48.33624" lon="-1.66121">
        <ele>63.7</ele>
        <time>2019-07-16T10:34:09Z</time>
      </trkpt>
      <trkpt lat="48.33627" lon="-1.66121">
        <ele>63.3</ele>
        <time>2019-07-16T10:34:10Z</time>
      </trkpt>
      <trkpt lat="48.3363" lon="-1.66122">
        <ele>63</ele>
        <time>2019-07-16T10:34:11Z</time>
      </trkpt>
      <trkpt lat="48.33633" lon="-1.66123">
        <ele>62.7</ele>
        <time>2019-07-16T10:34:12Z</time>
      </trkpt>
      <trkpt lat="48.33637" lon="-1.66123">
        <ele>62.5</ele>
        <time>2019-07-16T10:34:13Z</time>
      </trkpt>
      <trkpt lat="48.3364" lon="-1.66124">
        <ele>62.5</ele>
        <time>2019-07-16T10:34:14Z</time>
      </trkpt>
      <trkpt lat="48.33643" lon="-1.66125">
        <ele>62.3</ele>
        <time>2019-07-16T10:34:15Z</time>
      </trkpt>
      <trkpt lat="48.33646" lon="-1.66125">
        <ele>62.3</ele>
        <time>2019-07-16T10:34:16Z</time>
      </trkpt>
      <trkpt lat="48.3365" lon="-1.66126">
        <ele>62.4</ele>
        <time>2019-07-16T10:34:17Z</time>
      </trkpt>
      <trkpt lat="48.33653" lon="-1.66127">
        <ele>62.6</ele>
        <time>2019-07-16T10:34:18Z</time>
      </trkpt>
      <trkpt lat="48.33656" lon="-1.66128">
        <ele>63.1</ele>
        <time>2019-07-16T10:34:19Z</time>
      </trkpt>
      <trkpt lat="48.3366" lon="-1.66129">
        <ele>63.3</ele>
        <time>2019-07-16T10:34:20Z</time>
      </trkpt>
      <trkpt lat="48.33663" lon="-1.66131">
        <ele>63.8</ele>
        <time>2019-07-16T10:34:21Z</time>
      </trkpt>
      <trkpt lat="48.33666" lon="-1.66133">
        <ele>64</ele>
        <time>2019-07-16T10:34:22Z</time>
      </trkpt>
      <trkpt lat="48.3367" lon="-1.66135">
        <ele>63.6</ele>
        <time>2019-07-16T10:34:23Z</time>
      </trkpt>
      <trkpt lat="48.33673" lon="-1.66136">
        <ele>63.8</ele>
        <time>2019-07-16T10:34:24Z</time>
      </trkpt>
      <trkpt lat="48.33676" lon="-1.66138">
        <ele>63.9</ele>
        <time>2019-07-16T10:34:25Z</time>
      </trkpt>
      <trkpt lat="48.33679" lon="-1.66141">
        <ele>63.7</ele>
        <time>2019-07-16T10:34:26Z</time>
      </trkpt>
      <trkpt lat="48.33683" lon="-1.66143">
        <ele>63.7</ele>
        <time>2019-07-16T10:34:27Z</time>
      </trkpt>
      <trkpt lat="48.33686" lon="-1.66145">
        <ele>63.8</ele>
        <time>2019-07-16T10:34:28Z</time>
      </trkpt>
      <trkpt lat="48.33688" lon="-1.66147">
        <ele>63.7</ele>
        <time>2019-07-16T10:34:29Z</time>
      </trkpt>
      <trkpt lat="48.33691" lon="-1.6615">
        <ele>63.9</ele>
        <time>2019-07-16T10:34:30Z</time>
      </trkpt>
      <trkpt lat="48.33694" lon="-1.66153">
        <ele>63.9</ele>
        <time>2019-07-16T10:34:31Z</time>
      </trkpt>
      <trkpt lat="48.33696" lon="-1.66157">
        <ele>64.1</ele>
        <time>2019-07-16T10:34:32Z</time>
      </trkpt>
      <trkpt lat="48.33699" lon="-1.66161">
        <ele>64.3</ele>
        <time>2019-07-16T10:34:33Z</time>
      </trkpt>
      <trkpt lat="48.33701" lon="-1.66165">
        <ele>64.6</ele>
        <time>2019-07-16T10:34:34Z</time>
      </trkpt>
      <trkpt lat="48.33704" lon="-1.66168">
        <ele>64.7</ele>
        <time>2019-07-16T10:34:35Z</time>
      </trkpt>
      <trkpt lat="48.33707" lon="-1.66172">
        <ele>64.8</ele>
        <time>2019-07-16T10:34:36Z</time>
      </trkpt>
      <trkpt lat="48.33709" lon="-1.66175">
        <ele>64.7</ele>
        <time>2019-07-16T10:34:37Z</time>
      </trkpt>
      <trkpt lat="48.33712" lon="-1.66179">
        <ele>65</ele>
        <time>2019-07-16T10:34:38Z</time>
      </trkpt>
      <trkpt lat="48.33714" lon="-1.66183">
        <ele>65.3</ele>
        <time>2019-07-16T10:34:39Z</time>
      </trkpt>
      <trkpt lat="48.33717" lon="-1.66186">
        <ele>65.4</ele>
        <time>2019-07-16T10:34:40Z</time>
      </trkpt>
      <trkpt lat="48.33719" lon="-1.6619">
        <ele>65.5</ele>
        <time>2019-07-16T10:34:41Z</time>
      </trkpt>
      <trkpt lat="48.33722" lon="-1.66194">
        <ele>65.8</ele>
        <time>2019-07-16T10:34:42Z</time>
      </trkpt>
      <trkpt lat="48.33724" lon="-1.66197">
        <ele>66.1</ele>
        <time>2019-07-16T10:34:43Z</time>
      </trkpt>
      <trkpt lat="48.33727" lon="-1.66201">
        <ele>66.2</ele>
        <time>2019-07-16T10:34:44Z</time>
      </trkpt>
      <trkpt lat="48.3373" lon="-1.66205">
        <ele>66.3</ele>
        <time>2019-07-16T10:34:45Z</time>
      </trkpt>
      <trkpt lat="48.33732" lon="-1.66209">
        <ele>66.7</ele>
        <time>2019-07-16T10:34:46Z</time>
      </trkpt>
      <trkpt lat="48.33735" lon="-1.66213">
        <ele>66.8</ele>
        <time>2019-07-16T10:34:47Z</time>
      </trkpt>
      <trkpt lat="48.33738" lon="-1.66217">
        <ele>67</ele>
        <time>2019-07-16T10:34:48Z</time>
      </trkpt>
      <trkpt lat="48.33741" lon="-1.66221">
        <ele>67</ele>
        <time>2019-07-16T10:34:49Z</time>
      </trkpt>
      <trkpt lat="48.33744" lon="-1.66224">
        <ele>67</ele>
        <time>2019-07-16T10:34:50Z</time>
      </trkpt>
      <trkpt lat="48.33747" lon="-1.66228">
        <ele>67.1</ele>
        <time>2019-07-16T10:34:51Z</time>
      </trkpt>
      <trkpt lat="48.3375" lon="-1.66232">
        <ele>66.9</ele>
        <time>2019-07-16T10:34:52Z</time>
      </trkpt>
      <trkpt lat="48.33753" lon="-1.66236">
        <ele>66.8</ele>
        <time>2019-07-16T10:34:53Z</time>
      </trkpt>
      <trkpt lat="48.33756" lon="-1.6624">
        <ele>66.6</ele>
        <time>2019-07-16T10:34:54Z</time>
      </trkpt>
      <trkpt lat="48.33759" lon="-1.66244">
        <ele>66.7</ele>
        <time>2019-07-16T10:34:55Z</time>
      </trkpt>
      <trkpt lat="48.33762" lon="-1.66248">
        <ele>66.6</ele>
        <time>2019-07-16T10:34:56Z</time>
      </trkpt>
      <trkpt lat="48.33765" lon="-1.66252">
        <ele>66.4</ele>
        <time>2019-07-16T10:34:57Z</time>
      </trkpt>
      <trkpt lat="48.33769" lon="-1.66256">
        <ele>66.2</ele>
        <time>2019-07-16T10:34:58Z</time>
      </trkpt>
      <trkpt lat="48.33772" lon="-1.6626">
        <ele>66.3</ele>
        <time>2019-07-16T10:34:59Z</time>
      </trkpt>
      <trkpt lat="48.33775" lon="-1.66264">
        <ele>66.2</ele>
        <time>2019-07-16T10:35:00Z</time>
      </trkpt>
      <trkpt lat="48.33778" lon="-1.66268">
        <ele>66.3</ele>
        <time>2019-07-16T10:35:01Z</time>
      </trkpt>
      <trkpt lat="48.33782" lon="-1.66272">
        <ele>66.3</ele>
        <time>2019-07-16T10:35:02Z</time>
      </trkpt>
      <trkpt lat="48.33785" lon="-1.66276">
        <ele>66.5</ele>
        <time>2019-07-16T10:35:03Z</time>
      </trkpt>
      <trkpt lat="48.33789" lon="-1.6628">
        <ele>66.3</ele>
        <time>2019-07-16T10:35:04Z</time>
      </trkpt>
      <trkpt lat="48.33792" lon="-1.66284">
        <ele>66.1</ele>
        <time>2019-07-16T10:35:05Z</time>
      </trkpt>
      <trkpt lat="48.33796" lon="-1.66288">
        <ele>66.1</ele>
        <time>2019-07-16T10:35:06Z</time>
      </trkpt>
      <trkpt lat="48.33799" lon="-1.66291">
        <ele>65.9</ele>
        <time>2019-07-16T10:35:07Z</time>
      </trkpt>
      <trkpt lat="48.33803" lon="-1.66294">
        <ele>65.9</ele>
        <time>2019-07-16T10:35:08Z</time>
      </trkpt>
      <trkpt lat="48.33807" lon="-1.66297">
        <ele>65.9</ele>
        <time>2019-07-16T10:35:09Z</time>
      </trkpt>
      <trkpt lat="48.33811" lon="-1.66301">
        <ele>65.8</ele>
        <time>2019-07-16T10:35:10Z</time>
      </trkpt>
      <trkpt lat="48.33815" lon="-1.66304">
        <ele>65.7</ele>
        <time>2019-07-16T10:35:11Z</time>
      </trkpt>
      <trkpt lat="48.33819" lon="-1.66306">
        <ele>65.6</ele>
        <time>2019-07-16T10:35:12Z</time>
      </trkpt>
      <trkpt lat="48.33823" lon="-1.66308">
        <ele>65.8</ele>
        <time>2019-07-16T10:35:13Z</time>
      </trkpt>
      <trkpt lat="48.33827" lon="-1.66311">
        <ele>65.7</ele>
        <time>2019-07-16T10:35:14Z</time>
      </trkpt>
      <trkpt lat="48.33831" lon="-1.66313">
        <ele>65.4</ele>
        <time>2019-07-16T10:35:15Z</time>
      </trkpt>
      <trkpt lat="48.33836" lon="-1.66314">
        <ele>65.4</ele>
        <time>2019-07-16T10:35:16Z</time>
      </trkpt>
      <trkpt lat="48.3384" lon="-1.66315">
        <ele>65.9</ele>
        <time>2019-07-16T10:35:17Z</time>
      </trkpt>
      <trkpt lat="48.33844" lon="-1.66316">
        <ele>66.5</ele>
        <time>2019-07-16T10:35:18Z</time>
      </trkpt>
      <trkpt lat="48.33847" lon="-1.66317">
        <ele>67.5</ele>
        <time>2019-07-16T10:35:19Z</time>
      </trkpt>
      <trkpt lat="48.33851" lon="-1.66318">
        <ele>68.5</ele>
        <time>2019-07-16T10:35:20Z</time>
      </trkpt>
      <trkpt lat="48.33855" lon="-1.66318">
        <ele>68.7</ele>
        <time>2019-07-16T10:35:21Z</time>
      </trkpt>
      <trkpt lat="48.33859" lon="-1.66318">
        <ele>68.7</ele>
        <time>2019-07-16T10:35:22Z</time>
      </trkpt>
      <trkpt lat="48.33862" lon="-1.66318">
        <ele>68.2</ele>
        <time>2019-07-16T10:35:23Z</time>
      </trkpt>
      <trkpt lat="48.33865" lon="-1.66317">
        <ele>68</ele>
        <time>2019-07-16T10:35:24Z</time>
      </trkpt>
      <trkpt lat="48.33868" lon="-1.66317">
        <ele>67.9</ele>
        <time>2019-07-16T10:35:25Z</time>
      </trkpt>
      <trkpt lat="48.33871" lon="-1.66317">
        <ele>68</ele>
        <time>2019-07-16T10:35:26Z</time>
      </trkpt>
      <trkpt lat="48.33873" lon="-1.66317">
        <ele>68.1</ele>
        <time>2019-07-16T10:35:27Z</time>
      </trkpt>
      <trkpt lat="48.33875" lon="-1.66315">
        <ele>68.1</ele>
        <time>2019-07-16T10:35:28Z</time>
      </trkpt>
      <trkpt lat="48.33878" lon="-1.66306">
        <ele>68.8</ele>
        <time>2019-07-16T10:38:54Z</time>
      </trkpt>
      <trkpt lat="48.33878" lon="-1.66303">
        <ele>68.5</ele>
        <time>2019-07-16T10:38:55Z</time>
      </trkpt>
      <trkpt lat="48.33878" lon="-1.663">
        <ele>68.4</ele>
        <time>2019-07-16T10:38:56Z</time>
      </trkpt>
      <trkpt lat="48.33878" lon="-1.66296">
        <ele>68.2</ele>
        <time>2019-07-16T10:38:57Z</time>
      </trkpt>
      <trkpt lat="48.33878" lon="-1.66292">
        <ele>68.2</ele>
        <time>2019-07-16T10:38:58Z</time>
      </trkpt>
      <trkpt lat="48.33878" lon="-1.66288">
        <ele>68.1</ele>
        <time>2019-07-16T10:38:59Z</time>
      </trkpt>
      <trkpt lat="48.33877" lon="-1.66283">
        <ele>68.1</ele>
        <time>2019-07-16T10:39:00Z</time>
      </trkpt>
      <trkpt lat="48.33877" lon="-1.66279">
        <ele>68.1</ele>
        <time>2019-07-16T10:39:01Z</time>
      </trkpt>
      <trkpt lat="48.33877" lon="-1.66274">
        <ele>68.1</ele>
        <time>2019-07-16T10:39:02Z</time>
      </trkpt>
      <trkpt lat="48.33878" lon="-1.66269">
        <ele>68.4</ele>
        <time>2019-07-16T10:39:03Z</time>
      </trkpt>
      <trkpt lat="48.33878" lon="-1.66263">
        <ele>68.6</ele>
        <time>2019-07-16T10:39:04Z</time>
      </trkpt>
      <trkpt lat="48.33879" lon="-1.66258">
        <ele>68.7</ele>
        <time>2019-07-16T10:39:05Z</time>
      </trkpt>
      <trkpt lat="48.3388" lon="-1.66253">
        <ele>68.8</ele>
        <time>2019-07-16T10:39:06Z</time>
      </trkpt>
      <trkpt lat="48.3388" lon="-1.66247">
        <ele>68.8</ele>
        <time>2019-07-16T10:39:07Z</time>
      </trkpt>
      <trkpt lat="48.3388" lon="-1.66242">
        <ele>68.5</ele>
        <time>2019-07-16T10:39:08Z</time>
      </trkpt>
      <trkpt lat="48.3388" lon="-1.66237">
        <ele>68.3</ele>
        <time>2019-07-16T10:39:09Z</time>
      </trkpt>
      <trkpt lat="48.3388" lon="-1.66232">
        <ele>68.5</ele>
        <time>2019-07-16T10:39:10Z</time>
      </trkpt>
      <trkpt lat="48.3388" lon="-1.66226">
        <ele>68.4</ele>
        <time>2019-07-16T10:39:11Z</time>
      </trkpt>
      <trkpt lat="48.3388" lon="-1.66221">
        <ele>68.6</ele>
        <time>2019-07-16T10:39:12Z</time>
      </trkpt>
      <trkpt lat="48.3388" lon="-1.66216">
        <ele>68.5</ele>
        <time>2019-07-16T10:39:13Z</time>
      </trkpt>
      <trkpt lat="48.3388" lon="-1.6621">
        <ele>68.3</ele>
        <time>2019-07-16T10:39:14Z</time>
      </trkpt>
      <trkpt lat="48.3388" lon="-1.66205">
        <ele>68.5</ele>
        <time>2019-07-16T10:39:15Z</time>
      </trkpt>
      <trkpt lat="48.3388" lon="-1.66199">
        <ele>68.4</ele>
        <time>2019-07-16T10:39:16Z</time>
      </trkpt>
      <trkpt lat="48.33881" lon="-1.66194">
        <ele>68.2</ele>
        <time>2019-07-16T10:39:17Z</time>
      </trkpt>
      <trkpt lat="48.3388" lon="-1.66188">
        <ele>68.2</ele>
        <time>2019-07-16T10:39:18Z</time>
      </trkpt>
      <trkpt lat="48.3388" lon="-1.66182">
        <ele>68.2</ele>
        <time>2019-07-16T10:39:19Z</time>
      </trkpt>
      <trkpt lat="48.3388" lon="-1.66177">
        <ele>68.2</ele>
        <time>2019-07-16T10:39:20Z</time>
      </trkpt>
      <trkpt lat="48.3388" lon="-1.66171">
        <ele>68.5</ele>
        <time>2019-07-16T10:39:21Z</time>
      </trkpt>
      <trkpt lat="48.33881" lon="-1.66165">
        <ele>68</ele>
        <time>2019-07-16T10:39:22Z</time>
      </trkpt>
      <trkpt lat="48.33881" lon="-1.6616">
        <ele>67.3</ele>
        <time>2019-07-16T10:39:23Z</time>
      </trkpt>
      <trkpt lat="48.33881" lon="-1.66154">
        <ele>67.1</ele>
        <time>2019-07-16T10:39:24Z</time>
      </trkpt>
      <trkpt lat="48.33881" lon="-1.66148">
        <ele>67</ele>
        <time>2019-07-16T10:39:25Z</time>
      </trkpt>
      <trkpt lat="48.33881" lon="-1.66143">
        <ele>66.8</ele>
        <time>2019-07-16T10:39:26Z</time>
      </trkpt>
      <trkpt lat="48.33882" lon="-1.66137">
        <ele>66.9</ele>
        <time>2019-07-16T10:39:27Z</time>
      </trkpt>
      <trkpt lat="48.33882" lon="-1.66131">
        <ele>66.7</ele>
        <time>2019-07-16T10:39:28Z</time>
      </trkpt>
      <trkpt lat="48.33883" lon="-1.66126">
        <ele>66.5</ele>
        <time>2019-07-16T10:39:29Z</time>
      </trkpt>
      <trkpt lat="48.33883" lon="-1.6612">
        <ele>66.8</ele>
        <time>2019-07-16T10:39:30Z</time>
      </trkpt>
      <trkpt lat="48.33883" lon="-1.66114">
        <ele>67.1</ele>
        <time>2019-07-16T10:39:31Z</time>
      </trkpt>
      <trkpt lat="48.33884" lon="-1.66108">
        <ele>68</ele>
        <time>2019-07-16T10:39:32Z</time>
      </trkpt>
      <trkpt lat="48.33884" lon="-1.66102">
        <ele>68.5</ele>
        <time>2019-07-16T10:39:33Z</time>
      </trkpt>
      <trkpt lat="48.33884" lon="-1.66097">
        <ele>68.8</ele>
        <time>2019-07-16T10:39:34Z</time>
      </trkpt>
      <trkpt lat="48.33884" lon="-1.66091">
        <ele>68.8</ele>
        <time>2019-07-16T10:39:35Z</time>
      </trkpt>
      <trkpt lat="48.33884" lon="-1.66085">
        <ele>69.3</ele>
        <time>2019-07-16T10:39:36Z</time>
      </trkpt>
      <trkpt lat="48.33884" lon="-1.66079">
        <ele>69.3</ele>
        <time>2019-07-16T10:39:37Z</time>
      </trkpt>
      <trkpt lat="48.33883" lon="-1.66072">
        <ele>69.3</ele>
        <time>2019-07-16T10:39:38Z</time>
      </trkpt>
      <trkpt lat="48.33883" lon="-1.66066">
        <ele>69.3</ele>
        <time>2019-07-16T10:39:39Z</time>
      </trkpt>
      <trkpt lat="48.33882" lon="-1.6606">
        <ele>69</ele>
        <time>2019-07-16T10:39:40Z</time>
      </trkpt>
      <trkpt lat="48.33882" lon="-1.66054">
        <ele>69</ele>
        <time>2019-07-16T10:39:41Z</time>
      </trkpt>
      <trkpt lat="48.33883" lon="-1.66049">
        <ele>69.3</ele>
        <time>2019-07-16T10:39:42Z</time>
      </trkpt>
      <trkpt lat="48.33882" lon="-1.66043">
        <ele>69.3</ele>
        <time>2019-07-16T10:39:43Z</time>
      </trkpt>
      <trkpt lat="48.33881" lon="-1.66037">
        <ele>68.6</ele>
        <time>2019-07-16T10:39:44Z</time>
      </trkpt>
      <trkpt lat="48.33881" lon="-1.66031">
        <ele>68.4</ele>
        <time>2019-07-16T10:39:45Z</time>
      </trkpt>
      <trkpt lat="48.33882" lon="-1.66026">
        <ele>68.1</ele>
        <time>2019-07-16T10:39:46Z</time>
      </trkpt>
      <trkpt lat="48.33881" lon="-1.6602">
        <ele>68.2</ele>
        <time>2019-07-16T10:39:47Z</time>
      </trkpt>
      <trkpt lat="48.33881" lon="-1.66015">
        <ele>68.3</ele>
        <time>2019-07-16T10:39:48Z</time>
      </trkpt>
      <trkpt lat="48.33881" lon="-1.66011">
        <ele>68.3</ele>
        <time>2019-07-16T10:39:49Z</time>
      </trkpt>
      <trkpt lat="48.33881" lon="-1.66006">
        <ele>68.2</ele>
        <time>2019-07-16T10:39:50Z</time>
      </trkpt>
      <trkpt lat="48.33882" lon="-1.66002">
        <ele>68.2</ele>
        <time>2019-07-16T10:39:51Z</time>
      </trkpt>
      <trkpt lat="48.33883" lon="-1.65998">
        <ele>68.3</ele>
        <time>2019-07-16T10:39:52Z</time>
      </trkpt>
      <trkpt lat="48.33884" lon="-1.65993">
        <ele>68.9</ele>
        <time>2019-07-16T10:39:53Z</time>
      </trkpt>
      <trkpt lat="48.33885" lon="-1.65989">
        <ele>69.5</ele>
        <time>2019-07-16T10:39:54Z</time>
      </trkpt>
      <trkpt lat="48.33885" lon="-1.65985">
        <ele>69.6</ele>
        <time>2019-07-16T10:39:55Z</time>
      </trkpt>
      <trkpt lat="48.33886" lon="-1.65981">
        <ele>70.3</ele>
        <time>2019-07-16T10:39:56Z</time>
      </trkpt>
      <trkpt lat="48.33886" lon="-1.65977">
        <ele>70.6</ele>
        <time>2019-07-16T10:39:57Z</time>
      </trkpt>
      <trkpt lat="48.33886" lon="-1.65973">
        <ele>70.7</ele>
        <time>2019-07-16T10:39:58Z</time>
      </trkpt>
      <trkpt lat="48.33885" lon="-1.65969">
        <ele>71.1</ele>
        <time>2019-07-16T10:39:59Z</time>
      </trkpt>
      <trkpt lat="48.33885" lon="-1.65966">
        <ele>71.6</ele>
        <time>2019-07-16T10:40:00Z</time>
      </trkpt>
      <trkpt lat="48.33885" lon="-1.65962">
        <ele>72.2</ele>
        <time>2019-07-16T10:40:01Z</time>
      </trkpt>
      <trkpt lat="48.33884" lon="-1.65958">
        <ele>72.7</ele>
        <time>2019-07-16T10:40:02Z</time>
      </trkpt>
      <trkpt lat="48.33885" lon="-1.65954">
        <ele>72.9</ele>
        <time>2019-07-16T10:40:03Z</time>
      </trkpt>
      <trkpt lat="48.33885" lon="-1.6595">
        <ele>73.5</ele>
        <time>2019-07-16T10:40:04Z</time>
      </trkpt>
      <trkpt lat="48.33885" lon="-1.65946">
        <ele>73.6</ele>
        <time>2019-07-16T10:40:05Z</time>
      </trkpt>
      <trkpt lat="48.33885" lon="-1.65942">
        <ele>73.4</ele>
        <time>2019-07-16T10:40:06Z</time>
      </trkpt>
      <trkpt lat="48.33885" lon="-1.65937">
        <ele>73.7</ele>
        <time>2019-07-16T10:40:07Z</time>
      </trkpt>
      <trkpt lat="48.33884" lon="-1.65934">
        <ele>72.9</ele>
        <time>2019-07-16T10:40:08Z</time>
      </trkpt>
      <trkpt lat="48.33884" lon="-1.6593">
        <ele>72.5</ele>
        <time>2019-07-16T10:40:09Z</time>
      </trkpt>
      <trkpt lat="48.33883" lon="-1.65926">
        <ele>72</ele>
        <time>2019-07-16T10:40:10Z</time>
      </trkpt>
      <trkpt lat="48.33883" lon="-1.65922">
        <ele>72.1</ele>
        <time>2019-07-16T10:40:11Z</time>
      </trkpt>
      <trkpt lat="48.33883" lon="-1.65918">
        <ele>72.2</ele>
        <time>2019-07-16T10:40:12Z</time>
      </trkpt>
      <trkpt lat="48.33883" lon="-1.65914">
        <ele>71.9</ele>
        <time>2019-07-16T10:40:13Z</time>
      </trkpt>
      <trkpt lat="48.33883" lon="-1.65911">
        <ele>71.7</ele>
        <time>2019-07-16T10:40:14Z</time>
      </trkpt>
      <trkpt lat="48.33883" lon="-1.65907">
        <ele>71.4</ele>
        <time>2019-07-16T10:40:15Z</time>
      </trkpt>
      <trkpt lat="48.33883" lon="-1.65904">
        <ele>71.4</ele>
        <time>2019-07-16T10:40:16Z</time>
      </trkpt>
      <trkpt lat="48.33883" lon="-1.65901">
        <ele>71.6</ele>
        <time>2019-07-16T10:40:17Z</time>
      </trkpt>
      <trkpt lat="48.33883" lon="-1.65897">
        <ele>71.1</ele>
        <time>2019-07-16T10:40:18Z</time>
      </trkpt>
      <trkpt lat="48.33883" lon="-1.65893">
        <ele>70.8</ele>
        <time>2019-07-16T10:40:19Z</time>
      </trkpt>
      <trkpt lat="48.33883" lon="-1.65889">
        <ele>70.6</ele>
        <time>2019-07-16T10:40:20Z</time>
      </trkpt>
      <trkpt lat="48.33883" lon="-1.65885">
        <ele>70.2</ele>
        <time>2019-07-16T10:40:21Z</time>
      </trkpt>
      <trkpt lat="48.33883" lon="-1.65881">
        <ele>70.1</ele>
        <time>2019-07-16T10:40:22Z</time>
      </trkpt>
      <trkpt lat="48.33883" lon="-1.65877">
        <ele>70.2</ele>
        <time>2019-07-16T10:40:23Z</time>
      </trkpt>
      <trkpt lat="48.33883" lon="-1.65874">
        <ele>70.3</ele>
        <time>2019-07-16T10:40:24Z</time>
      </trkpt>
      <trkpt lat="48.33883" lon="-1.6587">
        <ele>70.4</ele>
        <time>2019-07-16T10:40:25Z</time>
      </trkpt>
      <trkpt lat="48.33882" lon="-1.65866">
        <ele>70.7</ele>
        <time>2019-07-16T10:40:26Z</time>
      </trkpt>
      <trkpt lat="48.33883" lon="-1.65862">
        <ele>70.8</ele>
        <time>2019-07-16T10:40:27Z</time>
      </trkpt>
      <trkpt lat="48.33882" lon="-1.65859">
        <ele>71.1</ele>
        <time>2019-07-16T10:40:28Z</time>
      </trkpt>
      <trkpt lat="48.33882" lon="-1.65855">
        <ele>71.4</ele>
        <time>2019-07-16T10:40:29Z</time>
      </trkpt>
      <trkpt lat="48.33882" lon="-1.65851">
        <ele>71.9</ele>
        <time>2019-07-16T10:40:30Z</time>
      </trkpt>
      <trkpt lat="48.33881" lon="-1.65847">
        <ele>72.2</ele>
        <time>2019-07-16T10:40:31Z</time>
      </trkpt>
      <trkpt lat="48.33882" lon="-1.65843">
        <ele>72.5</ele>
        <time>2019-07-16T10:40:32Z</time>
      </trkpt>
      <trkpt lat="48.33882" lon="-1.65839">
        <ele>72.6</ele>
        <time>2019-07-16T10:40:33Z</time>
      </trkpt>
      <trkpt lat="48.33882" lon="-1.65835">
        <ele>72.7</ele>
        <time>2019-07-16T10:40:34Z</time>
      </trkpt>
      <trkpt lat="48.33882" lon="-1.65831">
        <ele>72.8</ele>
        <time>2019-07-16T10:40:35Z</time>
      </trkpt>
      <trkpt lat="48.33882" lon="-1.65827">
        <ele>72.8</ele>
        <time>2019-07-16T10:40:36Z</time>
      </trkpt>
      <trkpt lat="48.33882" lon="-1.65823">
        <ele>72.9</ele>
        <time>2019-07-16T10:40:37Z</time>
      </trkpt>
      <trkpt lat="48.33881" lon="-1.65819">
        <ele>73</ele>
        <time>2019-07-16T10:40:38Z</time>
      </trkpt>
      <trkpt lat="48.33881" lon="-1.65815">
        <ele>72.7</ele>
        <time>2019-07-16T10:40:39Z</time>
      </trkpt>
      <trkpt lat="48.33881" lon="-1.65811">
        <ele>72.3</ele>
        <time>2019-07-16T10:40:40Z</time>
      </trkpt>
      <trkpt lat="48.33881" lon="-1.65808">
        <ele>71.9</ele>
        <time>2019-07-16T10:40:41Z</time>
      </trkpt>
      <trkpt lat="48.33881" lon="-1.65804">
        <ele>72.1</ele>
        <time>2019-07-16T10:40:42Z</time>
      </trkpt>
      <trkpt lat="48.33881" lon="-1.658">
        <ele>72.6</ele>
        <time>2019-07-16T10:40:43Z</time>
      </trkpt>
      <trkpt lat="48.33881" lon="-1.65796">
        <ele>72.8</ele>
        <time>2019-07-16T10:40:44Z</time>
      </trkpt>
      <trkpt lat="48.33881" lon="-1.65792">
        <ele>72.9</ele>
        <time>2019-07-16T10:40:45Z</time>
      </trkpt>
      <trkpt lat="48.33881" lon="-1.65788">
        <ele>73.1</ele>
        <time>2019-07-16T10:40:46Z</time>
      </trkpt>
      <trkpt lat="48.33881" lon="-1.65784">
        <ele>73.5</ele>
        <time>2019-07-16T10:40:47Z</time>
      </trkpt>
      <trkpt lat="48.33881" lon="-1.6578">
        <ele>74.1</ele>
        <time>2019-07-16T10:40:48Z</time>
      </trkpt>
      <trkpt lat="48.33881" lon="-1.65775">
        <ele>74.7</ele>
        <time>2019-07-16T10:40:49Z</time>
      </trkpt>
      <trkpt lat="48.33881" lon="-1.65771">
        <ele>74.8</ele>
        <time>2019-07-16T10:40:50Z</time>
      </trkpt>
      <trkpt lat="48.33882" lon="-1.65767">
        <ele>74.9</ele>
        <time>2019-07-16T10:40:51Z</time>
      </trkpt>
      <trkpt lat="48.33882" lon="-1.65763">
        <ele>75.2</ele>
        <time>2019-07-16T10:40:52Z</time>
      </trkpt>
      <trkpt lat="48.33882" lon="-1.65759">
        <ele>75.2</ele>
        <time>2019-07-16T10:40:53Z</time>
      </trkpt>
      <trkpt lat="48.33882" lon="-1.65756">
        <ele>75.2</ele>
        <time>2019-07-16T10:40:54Z</time>
      </trkpt>
      <trkpt lat="48.33882" lon="-1.65752">
        <ele>75.8</ele>
        <time>2019-07-16T10:40:55Z</time>
      </trkpt>
      <trkpt lat="48.33883" lon="-1.65748">
        <ele>76.3</ele>
        <time>2019-07-16T10:40:56Z</time>
      </trkpt>
      <trkpt lat="48.33883" lon="-1.65744">
        <ele>77.2</ele>
        <time>2019-07-16T10:40:57Z</time>
      </trkpt>
      <trkpt lat="48.33883" lon="-1.65739">
        <ele>77.7</ele>
        <time>2019-07-16T10:40:58Z</time>
      </trkpt>
      <trkpt lat="48.33883" lon="-1.65735">
        <ele>78.2</ele>
        <time>2019-07-16T10:40:59Z</time>
      </trkpt>
      <trkpt lat="48.33883" lon="-1.65731">
        <ele>78.6</ele>
        <time>2019-07-16T10:41:00Z</time>
      </trkpt>
      <trkpt lat="48.33883" lon="-1.65727">
        <ele>79.2</ele>
        <time>2019-07-16T10:41:01Z</time>
      </trkpt>
      <trkpt lat="48.33883" lon="-1.65722">
        <ele>79.5</ele>
        <time>2019-07-16T10:41:02Z</time>
      </trkpt>
      <trkpt lat="48.33883" lon="-1.65718">
        <ele>79.5</ele>
        <time>2019-07-16T10:41:03Z</time>
      </trkpt>
      <trkpt lat="48.33882" lon="-1.65715">
        <ele>79.9</ele>
        <time>2019-07-16T10:41:04Z</time>
      </trkpt>
      <trkpt lat="48.33882" lon="-1.65711">
        <ele>80.3</ele>
        <time>2019-07-16T10:41:05Z</time>
      </trkpt>
      <trkpt lat="48.33882" lon="-1.65707">
        <ele>80.5</ele>
        <time>2019-07-16T10:41:06Z</time>
      </trkpt>
      <trkpt lat="48.33881" lon="-1.65703">
        <ele>80.5</ele>
        <time>2019-07-16T10:41:07Z</time>
      </trkpt>
      <trkpt lat="48.33881" lon="-1.65699">
        <ele>80.4</ele>
        <time>2019-07-16T10:41:08Z</time>
      </trkpt>
      <trkpt lat="48.33881" lon="-1.65695">
        <ele>80.3</ele>
        <time>2019-07-16T10:41:09Z</time>
      </trkpt>
      <trkpt lat="48.3388" lon="-1.65691">
        <ele>80.3</ele>
        <time>2019-07-16T10:41:10Z</time>
      </trkpt>
      <trkpt lat="48.3388" lon="-1.65687">
        <ele>80.3</ele>
        <time>2019-07-16T10:41:11Z</time>
      </trkpt>
      <trkpt lat="48.33879" lon="-1.65683">
        <ele>80</ele>
        <time>2019-07-16T10:41:12Z</time>
      </trkpt>
      <trkpt lat="48.33878" lon="-1.65678">
        <ele>79.6</ele>
        <time>2019-07-16T10:41:13Z</time>
      </trkpt>
      <trkpt lat="48.33878" lon="-1.65674">
        <ele>79.7</ele>
        <time>2019-07-16T10:41:14Z</time>
      </trkpt>
      <trkpt lat="48.33878" lon="-1.6567">
        <ele>80.1</ele>
        <time>2019-07-16T10:41:15Z</time>
      </trkpt>
      <trkpt lat="48.33877" lon="-1.65665">
        <ele>80.4</ele>
        <time>2019-07-16T10:41:16Z</time>
      </trkpt>
      <trkpt lat="48.33877" lon="-1.65661">
        <ele>80.9</ele>
        <time>2019-07-16T10:41:17Z</time>
      </trkpt>
      <trkpt lat="48.33877" lon="-1.65657">
        <ele>80.9</ele>
        <time>2019-07-16T10:41:18Z</time>
      </trkpt>
      <trkpt lat="48.33876" lon="-1.65653">
        <ele>81.1</ele>
        <time>2019-07-16T10:41:19Z</time>
      </trkpt>
      <trkpt lat="48.33875" lon="-1.65649">
        <ele>80.9</ele>
        <time>2019-07-16T10:41:20Z</time>
      </trkpt>
      <trkpt lat="48.33874" lon="-1.65645">
        <ele>80.6</ele>
        <time>2019-07-16T10:41:21Z</time>
      </trkpt>
      <trkpt lat="48.33873" lon="-1.65641">
        <ele>81.1</ele>
        <time>2019-07-16T10:41:22Z</time>
      </trkpt>
      <trkpt lat="48.33872" lon="-1.65637">
        <ele>81.4</ele>
        <time>2019-07-16T10:41:23Z</time>
      </trkpt>
      <trkpt lat="48.33872" lon="-1.65633">
        <ele>81.9</ele>
        <time>2019-07-16T10:41:24Z</time>
      </trkpt>
      <trkpt lat="48.33871" lon="-1.6563">
        <ele>81.5</ele>
        <time>2019-07-16T10:41:25Z</time>
      </trkpt>
      <trkpt lat="48.3387" lon="-1.65626">
        <ele>81.5</ele>
        <time>2019-07-16T10:41:26Z</time>
      </trkpt>
      <trkpt lat="48.3387" lon="-1.65622">
        <ele>81.7</ele>
        <time>2019-07-16T10:41:27Z</time>
      </trkpt>
      <trkpt lat="48.33869" lon="-1.65617">
        <ele>82.1</ele>
        <time>2019-07-16T10:41:28Z</time>
      </trkpt>
      <trkpt lat="48.33868" lon="-1.65613">
        <ele>82.3</ele>
        <time>2019-07-16T10:41:29Z</time>
      </trkpt>
      <trkpt lat="48.33868" lon="-1.65608">
        <ele>82.4</ele>
        <time>2019-07-16T10:41:30Z</time>
      </trkpt>
      <trkpt lat="48.33867" lon="-1.65603">
        <ele>82.7</ele>
        <time>2019-07-16T10:41:31Z</time>
      </trkpt>
      <trkpt lat="48.33866" lon="-1.65599">
        <ele>82.7</ele>
        <time>2019-07-16T10:41:32Z</time>
      </trkpt>
      <trkpt lat="48.33865" lon="-1.65595">
        <ele>82.4</ele>
        <time>2019-07-16T10:41:33Z</time>
      </trkpt>
      <trkpt lat="48.33863" lon="-1.6559">
        <ele>82.2</ele>
        <time>2019-07-16T10:41:34Z</time>
      </trkpt>
      <trkpt lat="48.33862" lon="-1.65586">
        <ele>82.3</ele>
        <time>2019-07-16T10:41:35Z</time>
      </trkpt>
      <trkpt lat="48.33861" lon="-1.65581">
        <ele>82.2</ele>
        <time>2019-07-16T10:41:36Z</time>
      </trkpt>
      <trkpt lat="48.33859" lon="-1.65576">
        <ele>81.9</ele>
        <time>2019-07-16T10:41:37Z</time>
      </trkpt>
      <trkpt lat="48.33858" lon="-1.65571">
        <ele>81.9</ele>
        <time>2019-07-16T10:41:38Z</time>
      </trkpt>
      <trkpt lat="48.33857" lon="-1.65567">
        <ele>81.9</ele>
        <time>2019-07-16T10:41:39Z</time>
      </trkpt>
      <trkpt lat="48.33856" lon="-1.65562">
        <ele>81.9</ele>
        <time>2019-07-16T10:41:40Z</time>
      </trkpt>
      <trkpt lat="48.33855" lon="-1.65558">
        <ele>82.2</ele>
        <time>2019-07-16T10:41:41Z</time>
      </trkpt>
      <trkpt lat="48.33854" lon="-1.65554">
        <ele>82.5</ele>
        <time>2019-07-16T10:41:42Z</time>
      </trkpt>
      <trkpt lat="48.33853" lon="-1.6555">
        <ele>82.5</ele>
        <time>2019-07-16T10:41:43Z</time>
      </trkpt>
      <trkpt lat="48.33852" lon="-1.65547">
        <ele>82.3</ele>
        <time>2019-07-16T10:41:44Z</time>
      </trkpt>
      <trkpt lat="48.33852" lon="-1.65543">
        <ele>82.1</ele>
        <time>2019-07-16T10:41:45Z</time>
      </trkpt>
      <trkpt lat="48.33851" lon="-1.6554">
        <ele>82</ele>
        <time>2019-07-16T10:41:46Z</time>
      </trkpt>
      <trkpt lat="48.33851" lon="-1.65537">
        <ele>82.2</ele>
        <time>2019-07-16T10:41:47Z</time>
      </trkpt>
      <trkpt lat="48.33851" lon="-1.65534">
        <ele>82.6</ele>
        <time>2019-07-16T10:41:48Z</time>
      </trkpt>
      <trkpt lat="48.33852" lon="-1.65531">
        <ele>82.9</ele>
        <time>2019-07-16T10:41:49Z</time>
      </trkpt>
      <trkpt lat="48.33852" lon="-1.65529">
        <ele>82.9</ele>
        <time>2019-07-16T10:41:50Z</time>
      </trkpt>
      <trkpt lat="48.33852" lon="-1.65527">
        <ele>82.6</ele>
        <time>2019-07-16T10:41:51Z</time>
      </trkpt>
      <trkpt lat="48.33853" lon="-1.65525">
        <ele>82.1</ele>
        <time>2019-07-16T10:41:52Z</time>
      </trkpt>
      <trkpt lat="48.33855" lon="-1.65522">
        <ele>81.7</ele>
        <time>2019-07-16T10:42:19Z</time>
      </trkpt>
      <trkpt lat="48.33855" lon="-1.6552">
        <ele>81.6</ele>
        <time>2019-07-16T10:42:20Z</time>
      </trkpt>
      <trkpt lat="48.33855" lon="-1.65518">
        <ele>81.5</ele>
        <time>2019-07-16T10:42:21Z</time>
      </trkpt>
      <trkpt lat="48.33853" lon="-1.65517">
        <ele>81.4</ele>
        <time>2019-07-16T10:42:22Z</time>
      </trkpt>
      <trkpt lat="48.33852" lon="-1.65515">
        <ele>81.4</ele>
        <time>2019-07-16T10:42:23Z</time>
      </trkpt>
      <trkpt lat="48.3385" lon="-1.65512">
        <ele>81.5</ele>
        <time>2019-07-16T10:42:24Z</time>
      </trkpt>
      <trkpt lat="48.33848" lon="-1.65509">
        <ele>81.6</ele>
        <time>2019-07-16T10:42:25Z</time>
      </trkpt>
      <trkpt lat="48.33847" lon="-1.65505">
        <ele>81.7</ele>
        <time>2019-07-16T10:42:26Z</time>
      </trkpt>
      <trkpt lat="48.33845" lon="-1.65501">
        <ele>81.8</ele>
        <time>2019-07-16T10:42:27Z</time>
      </trkpt>
      <trkpt lat="48.33844" lon="-1.65497">
        <ele>82</ele>
        <time>2019-07-16T10:42:28Z</time>
      </trkpt>
      <trkpt lat="48.33842" lon="-1.65493">
        <ele>82.1</ele>
        <time>2019-07-16T10:42:29Z</time>
      </trkpt>
      <trkpt lat="48.33841" lon="-1.65489">
        <ele>82.1</ele>
        <time>2019-07-16T10:42:30Z</time>
      </trkpt>
      <trkpt lat="48.3384" lon="-1.65484">
        <ele>82.1</ele>
        <time>2019-07-16T10:42:31Z</time>
      </trkpt>
      <trkpt lat="48.33839" lon="-1.6548">
        <ele>82.2</ele>
        <time>2019-07-16T10:42:32Z</time>
      </trkpt>
      <trkpt lat="48.33838" lon="-1.65475">
        <ele>82.2</ele>
        <time>2019-07-16T10:42:33Z</time>
      </trkpt>
      <trkpt lat="48.33837" lon="-1.65471">
        <ele>82.2</ele>
        <time>2019-07-16T10:42:34Z</time>
      </trkpt>
      <trkpt lat="48.33836" lon="-1.65466">
        <ele>82.3</ele>
        <time>2019-07-16T10:42:35Z</time>
      </trkpt>
      <trkpt lat="48.33835" lon="-1.65461">
        <ele>82.5</ele>
        <time>2019-07-16T10:42:36Z</time>
      </trkpt>
      <trkpt lat="48.33834" lon="-1.65456">
        <ele>82.6</ele>
        <time>2019-07-16T10:42:37Z</time>
      </trkpt>
      <trkpt lat="48.33833" lon="-1.65452">
        <ele>82.7</ele>
        <time>2019-07-16T10:42:38Z</time>
      </trkpt>
      <trkpt lat="48.33831" lon="-1.65447">
        <ele>83</ele>
        <time>2019-07-16T10:42:39Z</time>
      </trkpt>
      <trkpt lat="48.3383" lon="-1.65442">
        <ele>82.9</ele>
        <time>2019-07-16T10:42:40Z</time>
      </trkpt>
      <trkpt lat="48.33829" lon="-1.65438">
        <ele>83.1</ele>
        <time>2019-07-16T10:42:41Z</time>
      </trkpt>
      <trkpt lat="48.33828" lon="-1.65433">
        <ele>82.9</ele>
        <time>2019-07-16T10:42:42Z</time>
      </trkpt>
      <trkpt lat="48.33827" lon="-1.65429">
        <ele>82.7</ele>
        <time>2019-07-16T10:42:43Z</time>
      </trkpt>
      <trkpt lat="48.33826" lon="-1.65424">
        <ele>82.5</ele>
        <time>2019-07-16T10:42:44Z</time>
      </trkpt>
      <trkpt lat="48.33825" lon="-1.65419">
        <ele>82.6</ele>
        <time>2019-07-16T10:42:45Z</time>
      </trkpt>
      <trkpt lat="48.33823" lon="-1.65414">
        <ele>82.7</ele>
        <time>2019-07-16T10:42:46Z</time>
      </trkpt>
      <trkpt lat="48.33822" lon="-1.65409">
        <ele>83.1</ele>
        <time>2019-07-16T10:42:47Z</time>
      </trkpt>
      <trkpt lat="48.33821" lon="-1.65404">
        <ele>83.5</ele>
        <time>2019-07-16T10:42:48Z</time>
      </trkpt>
      <trkpt lat="48.33819" lon="-1.65399">
        <ele>83.5</ele>
        <time>2019-07-16T10:42:49Z</time>
      </trkpt>
      <trkpt lat="48.33818" lon="-1.65394">
        <ele>83.6</ele>
        <time>2019-07-16T10:42:50Z</time>
      </trkpt>
      <trkpt lat="48.33817" lon="-1.65388">
        <ele>83.2</ele>
        <time>2019-07-16T10:42:51Z</time>
      </trkpt>
      <trkpt lat="48.33815" lon="-1.65383">
        <ele>82.9</ele>
        <time>2019-07-16T10:42:52Z</time>
      </trkpt>
      <trkpt lat="48.33814" lon="-1.65377">
        <ele>82.8</ele>
        <time>2019-07-16T10:42:53Z</time>
      </trkpt>
      <trkpt lat="48.33812" lon="-1.65372">
        <ele>82.9</ele>
        <time>2019-07-16T10:42:54Z</time>
      </trkpt>
      <trkpt lat="48.3381" lon="-1.65366">
        <ele>83.1</ele>
        <time>2019-07-16T10:42:55Z</time>
      </trkpt>
      <trkpt lat="48.33809" lon="-1.6536">
        <ele>83.4</ele>
        <time>2019-07-16T10:42:56Z</time>
      </trkpt>
      <trkpt lat="48.33807" lon="-1.65354">
        <ele>83.5</ele>
        <time>2019-07-16T10:42:57Z</time>
      </trkpt>
      <trkpt lat="48.33806" lon="-1.65348">
        <ele>83.5</ele>
        <time>2019-07-16T10:42:58Z</time>
      </trkpt>
      <trkpt lat="48.33804" lon="-1.65341">
        <ele>83.9</ele>
        <time>2019-07-16T10:42:59Z</time>
      </trkpt>
      <trkpt lat="48.33802" lon="-1.65335">
        <ele>83.7</ele>
        <time>2019-07-16T10:43:00Z</time>
      </trkpt>
      <trkpt lat="48.33801" lon="-1.65328">
        <ele>83.4</ele>
        <time>2019-07-16T10:43:01Z</time>
      </trkpt>
      <trkpt lat="48.33799" lon="-1.65322">
        <ele>82.7</ele>
        <time>2019-07-16T10:43:02Z</time>
      </trkpt>
      <trkpt lat="48.33798" lon="-1.65315">
        <ele>82.3</ele>
        <time>2019-07-16T10:43:03Z</time>
      </trkpt>
      <trkpt lat="48.33796" lon="-1.65307">
        <ele>82.1</ele>
        <time>2019-07-16T10:43:04Z</time>
      </trkpt>
      <trkpt lat="48.33794" lon="-1.653">
        <ele>81.8</ele>
        <time>2019-07-16T10:43:05Z</time>
      </trkpt>
      <trkpt lat="48.33792" lon="-1.65293">
        <ele>82.1</ele>
        <time>2019-07-16T10:43:06Z</time>
      </trkpt>
      <trkpt lat="48.33789" lon="-1.65287">
        <ele>81.7</ele>
        <time>2019-07-16T10:43:07Z</time>
      </trkpt>
      <trkpt lat="48.33787" lon="-1.6528">
        <ele>81.4</ele>
        <time>2019-07-16T10:43:08Z</time>
      </trkpt>
      <trkpt lat="48.33784" lon="-1.65273">
        <ele>80.9</ele>
        <time>2019-07-16T10:43:09Z</time>
      </trkpt>
      <trkpt lat="48.33782" lon="-1.65267">
        <ele>81</ele>
        <time>2019-07-16T10:43:10Z</time>
      </trkpt>
      <trkpt lat="48.3378" lon="-1.6526">
        <ele>80.7</ele>
        <time>2019-07-16T10:43:11Z</time>
      </trkpt>
      <trkpt lat="48.33777" lon="-1.65253">
        <ele>80.3</ele>
        <time>2019-07-16T10:43:12Z</time>
      </trkpt>
      <trkpt lat="48.33774" lon="-1.65246">
        <ele>80.1</ele>
        <time>2019-07-16T10:43:13Z</time>
      </trkpt>
      <trkpt lat="48.33771" lon="-1.65238">
        <ele>79.8</ele>
        <time>2019-07-16T10:43:14Z</time>
      </trkpt>
      <trkpt lat="48.33767" lon="-1.65231">
        <ele>79.4</ele>
        <time>2019-07-16T10:43:15Z</time>
      </trkpt>
      <trkpt lat="48.33762" lon="-1.65223">
        <ele>78.9</ele>
        <time>2019-07-16T10:43:16Z</time>
      </trkpt>
      <trkpt lat="48.33758" lon="-1.65216">
        <ele>78.7</ele>
        <time>2019-07-16T10:43:17Z</time>
      </trkpt>
      <trkpt lat="48.33754" lon="-1.65209">
        <ele>78.6</ele>
        <time>2019-07-16T10:43:18Z</time>
      </trkpt>
      <trkpt lat="48.33749" lon="-1.65201">
        <ele>78.4</ele>
        <time>2019-07-16T10:43:19Z</time>
      </trkpt>
      <trkpt lat="48.33743" lon="-1.65193">
        <ele>78.1</ele>
        <time>2019-07-16T10:43:20Z</time>
      </trkpt>
      <trkpt lat="48.33738" lon="-1.65184">
        <ele>78.1</ele>
        <time>2019-07-16T10:43:21Z</time>
      </trkpt>
      <trkpt lat="48.33732" lon="-1.65175">
        <ele>78.2</ele>
        <time>2019-07-16T10:43:22Z</time>
      </trkpt>
      <trkpt lat="48.33726" lon="-1.65166">
        <ele>78.4</ele>
        <time>2019-07-16T10:43:23Z</time>
      </trkpt>
      <trkpt lat="48.33719" lon="-1.65157">
        <ele>78.3</ele>
        <time>2019-07-16T10:43:24Z</time>
      </trkpt>
      <trkpt lat="48.33713" lon="-1.65147">
        <ele>78.3</ele>
        <time>2019-07-16T10:43:25Z</time>
      </trkpt>
      <trkpt lat="48.33707" lon="-1.65138">
        <ele>78.1</ele>
        <time>2019-07-16T10:43:26Z</time>
      </trkpt>
      <trkpt lat="48.337" lon="-1.65128">
        <ele>77.6</ele>
        <time>2019-07-16T10:43:27Z</time>
      </trkpt>
      <trkpt lat="48.33694" lon="-1.65117">
        <ele>75.3</ele>
        <time>2019-07-16T10:43:28Z</time>
      </trkpt>
      <trkpt lat="48.33688" lon="-1.65106">
        <ele>74.8</ele>
        <time>2019-07-16T10:43:29Z</time>
      </trkpt>
      <trkpt lat="48.33682" lon="-1.65094">
        <ele>73.8</ele>
        <time>2019-07-16T10:43:30Z</time>
      </trkpt>
      <trkpt lat="48.33676" lon="-1.65081">
        <ele>72.4</ele>
        <time>2019-07-16T10:43:31Z</time>
      </trkpt>
      <trkpt lat="48.33671" lon="-1.65071">
        <ele>71.9</ele>
        <time>2019-07-16T10:43:32Z</time>
      </trkpt>
      <trkpt lat="48.33667" lon="-1.65057">
        <ele>70.6</ele>
        <time>2019-07-16T10:43:33Z</time>
      </trkpt>
      <trkpt lat="48.33662" lon="-1.65043">
        <ele>69.9</ele>
        <time>2019-07-16T10:43:34Z</time>
      </trkpt>
      <trkpt lat="48.33659" lon="-1.65028">
        <ele>68.2</ele>
        <time>2019-07-16T10:43:35Z</time>
      </trkpt>
      <trkpt lat="48.33655" lon="-1.65015">
        <ele>67.4</ele>
        <time>2019-07-16T10:43:36Z</time>
      </trkpt>
      <trkpt lat="48.3365" lon="-1.65004">
        <ele>68.4</ele>
        <time>2019-07-16T10:43:37Z</time>
      </trkpt>
      <trkpt lat="48.33647" lon="-1.64992">
        <ele>68.2</ele>
        <time>2019-07-16T10:43:38Z</time>
      </trkpt>
      <trkpt lat="48.33643" lon="-1.64981">
        <ele>68.4</ele>
        <time>2019-07-16T10:43:39Z</time>
      </trkpt>
      <trkpt lat="48.3364" lon="-1.64969">
        <ele>68.5</ele>
        <time>2019-07-16T10:43:40Z</time>
      </trkpt>
      <trkpt lat="48.33637" lon="-1.64959">
        <ele>69</ele>
        <time>2019-07-16T10:43:41Z</time>
      </trkpt>
      <trkpt lat="48.33635" lon="-1.6495">
        <ele>69.5</ele>
        <time>2019-07-16T10:43:42Z</time>
      </trkpt>
      <trkpt lat="48.33632" lon="-1.64943">
        <ele>69.8</ele>
        <time>2019-07-16T10:43:43Z</time>
      </trkpt>
      <trkpt lat="48.33629" lon="-1.64936">
        <ele>70.1</ele>
        <time>2019-07-16T10:43:44Z</time>
      </trkpt>
      <trkpt lat="48.33625" lon="-1.6493">
        <ele>70.5</ele>
        <time>2019-07-16T10:43:45Z</time>
      </trkpt>
      <trkpt lat="48.33622" lon="-1.64926">
        <ele>70.6</ele>
        <time>2019-07-16T10:43:46Z</time>
      </trkpt>
      <trkpt lat="48.33619" lon="-1.64922">
        <ele>70.5</ele>
        <time>2019-07-16T10:43:47Z</time>
      </trkpt>
      <trkpt lat="48.33616" lon="-1.64918">
        <ele>70.7</ele>
        <time>2019-07-16T10:43:48Z</time>
      </trkpt>
      <trkpt lat="48.33614" lon="-1.64916">
        <ele>71</ele>
        <time>2019-07-16T10:43:49Z</time>
      </trkpt>
      <trkpt lat="48.33612" lon="-1.64913">
        <ele>70.8</ele>
        <time>2019-07-16T10:43:50Z</time>
      </trkpt>
      <trkpt lat="48.33611" lon="-1.6491">
        <ele>70.7</ele>
        <time>2019-07-16T10:43:51Z</time>
      </trkpt>
      <trkpt lat="48.33609" lon="-1.64908">
        <ele>70.8</ele>
        <time>2019-07-16T10:43:52Z</time>
      </trkpt>
      <trkpt lat="48.33606" lon="-1.64905">
        <ele>71</ele>
        <time>2019-07-16T10:43:53Z</time>
      </trkpt>
      <trkpt lat="48.33604" lon="-1.64903">
        <ele>71.2</ele>
        <time>2019-07-16T10:43:54Z</time>
      </trkpt>
      <trkpt lat="48.33602" lon="-1.649">
        <ele>71.4</ele>
        <time>2019-07-16T10:43:55Z</time>
      </trkpt>
      <trkpt lat="48.336" lon="-1.64898">
        <ele>71.5</ele>
        <time>2019-07-16T10:43:56Z</time>
      </trkpt>
      <trkpt lat="48.33598" lon="-1.64896">
        <ele>72.2</ele>
        <time>2019-07-16T10:43:57Z</time>
      </trkpt>
      <trkpt lat="48.33595" lon="-1.64894">
        <ele>72.7</ele>
        <time>2019-07-16T10:43:58Z</time>
      </trkpt>
      <trkpt lat="48.33593" lon="-1.64892">
        <ele>73.3</ele>
        <time>2019-07-16T10:43:59Z</time>
      </trkpt>
      <trkpt lat="48.3359" lon="-1.64889">
        <ele>73.2</ele>
        <time>2019-07-16T10:44:00Z</time>
      </trkpt>
      <trkpt lat="48.33588" lon="-1.64887">
        <ele>73.1</ele>
        <time>2019-07-16T10:44:01Z</time>
      </trkpt>
      <trkpt lat="48.33586" lon="-1.64884">
        <ele>73</ele>
        <time>2019-07-16T10:44:02Z</time>
      </trkpt>
      <trkpt lat="48.33584" lon="-1.64882">
        <ele>72.8</ele>
        <time>2019-07-16T10:44:03Z</time>
      </trkpt>
      <trkpt lat="48.33581" lon="-1.64881">
        <ele>72.9</ele>
        <time>2019-07-16T10:44:04Z</time>
      </trkpt>
      <trkpt lat="48.33579" lon="-1.64879">
        <ele>72.9</ele>
        <time>2019-07-16T10:44:05Z</time>
      </trkpt>
      <trkpt lat="48.33576" lon="-1.64877">
        <ele>73.3</ele>
        <time>2019-07-16T10:44:06Z</time>
      </trkpt>
      <trkpt lat="48.33574" lon="-1.64874">
        <ele>73.4</ele>
        <time>2019-07-16T10:44:07Z</time>
      </trkpt>
      <trkpt lat="48.33572" lon="-1.64871">
        <ele>73.7</ele>
        <time>2019-07-16T10:44:08Z</time>
      </trkpt>
      <trkpt lat="48.3357" lon="-1.64868">
        <ele>74</ele>
        <time>2019-07-16T10:44:09Z</time>
      </trkpt>
      <trkpt lat="48.33568" lon="-1.64865">
        <ele>74.4</ele>
        <time>2019-07-16T10:44:10Z</time>
      </trkpt>
      <trkpt lat="48.33566" lon="-1.64862">
        <ele>74.8</ele>
        <time>2019-07-16T10:44:11Z</time>
      </trkpt>
      <trkpt lat="48.33564" lon="-1.6486">
        <ele>75.4</ele>
        <time>2019-07-16T10:44:12Z</time>
      </trkpt>
      <trkpt lat="48.33562" lon="-1.64858">
        <ele>75.5</ele>
        <time>2019-07-16T10:44:13Z</time>
      </trkpt>
      <trkpt lat="48.3356" lon="-1.64855">
        <ele>75.8</ele>
        <time>2019-07-16T10:44:14Z</time>
      </trkpt>
      <trkpt lat="48.33558" lon="-1.64853">
        <ele>76</ele>
        <time>2019-07-16T10:44:15Z</time>
      </trkpt>
      <trkpt lat="48.33556" lon="-1.64851">
        <ele>76.3</ele>
        <time>2019-07-16T10:44:16Z</time>
      </trkpt>
      <trkpt lat="48.33553" lon="-1.64848">
        <ele>76.4</ele>
        <time>2019-07-16T10:44:17Z</time>
      </trkpt>
      <trkpt lat="48.33551" lon="-1.64846">
        <ele>76.3</ele>
        <time>2019-07-16T10:44:18Z</time>
      </trkpt>
      <trkpt lat="48.33549" lon="-1.64844">
        <ele>76.1</ele>
        <time>2019-07-16T10:44:19Z</time>
      </trkpt>
      <trkpt lat="48.33547" lon="-1.64842">
        <ele>76.3</ele>
        <time>2019-07-16T10:44:20Z</time>
      </trkpt>
      <trkpt lat="48.33545" lon="-1.64839">
        <ele>76.3</ele>
        <time>2019-07-16T10:44:21Z</time>
      </trkpt>
      <trkpt lat="48.33543" lon="-1.64837">
        <ele>76.1</ele>
        <time>2019-07-16T10:44:22Z</time>
      </trkpt>
      <trkpt lat="48.3354" lon="-1.64835">
        <ele>76.1</ele>
        <time>2019-07-16T10:44:23Z</time>
      </trkpt>
      <trkpt lat="48.33538" lon="-1.64833">
        <ele>76</ele>
        <time>2019-07-16T10:44:24Z</time>
      </trkpt>
      <trkpt lat="48.33536" lon="-1.6483">
        <ele>76.4</ele>
        <time>2019-07-16T10:44:25Z</time>
      </trkpt>
      <trkpt lat="48.33534" lon="-1.64828">
        <ele>76.6</ele>
        <time>2019-07-16T10:44:26Z</time>
      </trkpt>
      <trkpt lat="48.33532" lon="-1.64825">
        <ele>76.7</ele>
        <time>2019-07-16T10:44:27Z</time>
      </trkpt>
      <trkpt lat="48.3353" lon="-1.64823">
        <ele>76.9</ele>
        <time>2019-07-16T10:44:28Z</time>
      </trkpt>
      <trkpt lat="48.33527" lon="-1.64821">
        <ele>77.3</ele>
        <time>2019-07-16T10:44:29Z</time>
      </trkpt>
      <trkpt lat="48.33525" lon="-1.64819">
        <ele>78.1</ele>
        <time>2019-07-16T10:44:30Z</time>
      </trkpt>
      <trkpt lat="48.33523" lon="-1.64816">
        <ele>78.8</ele>
        <time>2019-07-16T10:44:31Z</time>
      </trkpt>
      <trkpt lat="48.33521" lon="-1.64814">
        <ele>78.9</ele>
        <time>2019-07-16T10:44:32Z</time>
      </trkpt>
      <trkpt lat="48.33518" lon="-1.64812">
        <ele>79.4</ele>
        <time>2019-07-16T10:44:33Z</time>
      </trkpt>
      <trkpt lat="48.33516" lon="-1.64809">
        <ele>80</ele>
        <time>2019-07-16T10:44:34Z</time>
      </trkpt>
      <trkpt lat="48.33513" lon="-1.64806">
        <ele>80.4</ele>
        <time>2019-07-16T10:44:35Z</time>
      </trkpt>
      <trkpt lat="48.33511" lon="-1.64804">
        <ele>80.7</ele>
        <time>2019-07-16T10:44:36Z</time>
      </trkpt>
      <trkpt lat="48.33509" lon="-1.64802">
        <ele>81.1</ele>
        <time>2019-07-16T10:44:37Z</time>
      </trkpt>
      <trkpt lat="48.33507" lon="-1.648">
        <ele>81.3</ele>
        <time>2019-07-16T10:44:38Z</time>
      </trkpt>
      <trkpt lat="48.33505" lon="-1.64798">
        <ele>81.6</ele>
        <time>2019-07-16T10:44:39Z</time>
      </trkpt>
      <trkpt lat="48.33503" lon="-1.64795">
        <ele>81.8</ele>
        <time>2019-07-16T10:44:40Z</time>
      </trkpt>
      <trkpt lat="48.335" lon="-1.64793">
        <ele>82</ele>
        <time>2019-07-16T10:44:41Z</time>
      </trkpt>
      <trkpt lat="48.33498" lon="-1.6479">
        <ele>82.3</ele>
        <time>2019-07-16T10:44:42Z</time>
      </trkpt>
      <trkpt lat="48.33495" lon="-1.64788">
        <ele>82.3</ele>
        <time>2019-07-16T10:44:43Z</time>
      </trkpt>
      <trkpt lat="48.33493" lon="-1.64785">
        <ele>82.4</ele>
        <time>2019-07-16T10:44:44Z</time>
      </trkpt>
      <trkpt lat="48.33491" lon="-1.64783">
        <ele>82.2</ele>
        <time>2019-07-16T10:44:45Z</time>
      </trkpt>
      <trkpt lat="48.33489" lon="-1.64781">
        <ele>82.1</ele>
        <time>2019-07-16T10:44:46Z</time>
      </trkpt>
      <trkpt lat="48.33487" lon="-1.64778">
        <ele>82.1</ele>
        <time>2019-07-16T10:44:47Z</time>
      </trkpt>
      <trkpt lat="48.33484" lon="-1.64776">
        <ele>82.1</ele>
        <time>2019-07-16T10:44:48Z</time>
      </trkpt>
      <trkpt lat="48.33482" lon="-1.64774">
        <ele>82.2</ele>
        <time>2019-07-16T10:44:49Z</time>
      </trkpt>
      <trkpt lat="48.3348" lon="-1.64771">
        <ele>82.6</ele>
        <time>2019-07-16T10:44:50Z</time>
      </trkpt>
      <trkpt lat="48.33478" lon="-1.64769">
        <ele>82.9</ele>
        <time>2019-07-16T10:44:51Z</time>
      </trkpt>
      <trkpt lat="48.33476" lon="-1.64766">
        <ele>82.9</ele>
        <time>2019-07-16T10:44:52Z</time>
      </trkpt>
      <trkpt lat="48.33474" lon="-1.64764">
        <ele>82.7</ele>
        <time>2019-07-16T10:44:53Z</time>
      </trkpt>
      <trkpt lat="48.33471" lon="-1.64762">
        <ele>82.6</ele>
        <time>2019-07-16T10:44:54Z</time>
      </trkpt>
      <trkpt lat="48.33469" lon="-1.6476">
        <ele>82.8</ele>
        <time>2019-07-16T10:44:55Z</time>
      </trkpt>
      <trkpt lat="48.33466" lon="-1.64757">
        <ele>83</ele>
        <time>2019-07-16T10:44:56Z</time>
      </trkpt>
      <trkpt lat="48.33464" lon="-1.64755">
        <ele>83.1</ele>
        <time>2019-07-16T10:44:57Z</time>
      </trkpt>
      <trkpt lat="48.33462" lon="-1.64753">
        <ele>83.3</ele>
        <time>2019-07-16T10:44:58Z</time>
      </trkpt>
      <trkpt lat="48.3346" lon="-1.6475">
        <ele>83.6</ele>
        <time>2019-07-16T10:44:59Z</time>
      </trkpt>
      <trkpt lat="48.33457" lon="-1.64748">
        <ele>83.8</ele>
        <time>2019-07-16T10:45:00Z</time>
      </trkpt>
      <trkpt lat="48.33455" lon="-1.64745">
        <ele>84.1</ele>
        <time>2019-07-16T10:45:01Z</time>
      </trkpt>
      <trkpt lat="48.33453" lon="-1.64743">
        <ele>84.4</ele>
        <time>2019-07-16T10:45:02Z</time>
      </trkpt>
      <trkpt lat="48.3345" lon="-1.64741">
        <ele>84.3</ele>
        <time>2019-07-16T10:45:03Z</time>
      </trkpt>
      <trkpt lat="48.33448" lon="-1.64739">
        <ele>84.4</ele>
        <time>2019-07-16T10:45:04Z</time>
      </trkpt>
      <trkpt lat="48.33446" lon="-1.64737">
        <ele>84.3</ele>
        <time>2019-07-16T10:45:05Z</time>
      </trkpt>
      <trkpt lat="48.33443" lon="-1.64734">
        <ele>84.2</ele>
        <time>2019-07-16T10:45:06Z</time>
      </trkpt>
      <trkpt lat="48.33441" lon="-1.64732">
        <ele>84.5</ele>
        <time>2019-07-16T10:45:07Z</time>
      </trkpt>
      <trkpt lat="48.33439" lon="-1.64729">
        <ele>84.9</ele>
        <time>2019-07-16T10:45:08Z</time>
      </trkpt>
      <trkpt lat="48.33437" lon="-1.64727">
        <ele>85.3</ele>
        <time>2019-07-16T10:45:09Z</time>
      </trkpt>
      <trkpt lat="48.33434" lon="-1.64725">
        <ele>85.2</ele>
        <time>2019-07-16T10:45:10Z</time>
      </trkpt>
      <trkpt lat="48.33432" lon="-1.64723">
        <ele>85.1</ele>
        <time>2019-07-16T10:45:11Z</time>
      </trkpt>
      <trkpt lat="48.33429" lon="-1.64721">
        <ele>85.1</ele>
        <time>2019-07-16T10:45:12Z</time>
      </trkpt>
      <trkpt lat="48.33427" lon="-1.64719">
        <ele>85.1</ele>
        <time>2019-07-16T10:45:13Z</time>
      </trkpt>
      <trkpt lat="48.33424" lon="-1.64717">
        <ele>85.1</ele>
        <time>2019-07-16T10:45:14Z</time>
      </trkpt>
      <trkpt lat="48.33422" lon="-1.64714">
        <ele>85.1</ele>
        <time>2019-07-16T10:45:15Z</time>
      </trkpt>
      <trkpt lat="48.33419" lon="-1.64712">
        <ele>85.2</ele>
        <time>2019-07-16T10:45:16Z</time>
      </trkpt>
      <trkpt lat="48.33417" lon="-1.6471">
        <ele>85.2</ele>
        <time>2019-07-16T10:45:17Z</time>
      </trkpt>
      <trkpt lat="48.33414" lon="-1.64708">
        <ele>85.6</ele>
        <time>2019-07-16T10:45:18Z</time>
      </trkpt>
      <trkpt lat="48.33411" lon="-1.64706">
        <ele>85.8</ele>
        <time>2019-07-16T10:45:19Z</time>
      </trkpt>
      <trkpt lat="48.33409" lon="-1.64704">
        <ele>86.3</ele>
        <time>2019-07-16T10:45:20Z</time>
      </trkpt>
      <trkpt lat="48.33406" lon="-1.64701">
        <ele>86.7</ele>
        <time>2019-07-16T10:45:21Z</time>
      </trkpt>
      <trkpt lat="48.33403" lon="-1.64699">
        <ele>87</ele>
        <time>2019-07-16T10:45:22Z</time>
      </trkpt>
      <trkpt lat="48.33401" lon="-1.64697">
        <ele>87.1</ele>
        <time>2019-07-16T10:45:23Z</time>
      </trkpt>
      <trkpt lat="48.33398" lon="-1.64695">
        <ele>87.2</ele>
        <time>2019-07-16T10:45:24Z</time>
      </trkpt>
      <trkpt lat="48.33395" lon="-1.64693">
        <ele>87.5</ele>
        <time>2019-07-16T10:45:25Z</time>
      </trkpt>
      <trkpt lat="48.33393" lon="-1.6469">
        <ele>87.5</ele>
        <time>2019-07-16T10:45:26Z</time>
      </trkpt>
      <trkpt lat="48.3339" lon="-1.64688">
        <ele>87.3</ele>
        <time>2019-07-16T10:45:27Z</time>
      </trkpt>
      <trkpt lat="48.33387" lon="-1.64686">
        <ele>87.3</ele>
        <time>2019-07-16T10:45:28Z</time>
      </trkpt>
      <trkpt lat="48.33385" lon="-1.64683">
        <ele>87.5</ele>
        <time>2019-07-16T10:45:29Z</time>
      </trkpt>
      <trkpt lat="48.33382" lon="-1.64682">
        <ele>87.4</ele>
        <time>2019-07-16T10:45:30Z</time>
      </trkpt>
      <trkpt lat="48.33379" lon="-1.64681">
        <ele>87.6</ele>
        <time>2019-07-16T10:45:31Z</time>
      </trkpt>
      <trkpt lat="48.33376" lon="-1.64679">
        <ele>88</ele>
        <time>2019-07-16T10:45:32Z</time>
      </trkpt>
      <trkpt lat="48.33373" lon="-1.64677">
        <ele>88.2</ele>
        <time>2019-07-16T10:45:33Z</time>
      </trkpt>
      <trkpt lat="48.3337" lon="-1.64675">
        <ele>88.4</ele>
        <time>2019-07-16T10:45:34Z</time>
      </trkpt>
      <trkpt lat="48.33367" lon="-1.64673">
        <ele>88.3</ele>
        <time>2019-07-16T10:45:35Z</time>
      </trkpt>
      <trkpt lat="48.33365" lon="-1.64671">
        <ele>88.2</ele>
        <time>2019-07-16T10:45:36Z</time>
      </trkpt>
      <trkpt lat="48.33362" lon="-1.64669">
        <ele>88.2</ele>
        <time>2019-07-16T10:45:37Z</time>
      </trkpt>
      <trkpt lat="48.33359" lon="-1.64667">
        <ele>88.3</ele>
        <time>2019-07-16T10:45:38Z</time>
      </trkpt>
      <trkpt lat="48.33357" lon="-1.64665">
        <ele>88.5</ele>
        <time>2019-07-16T10:45:39Z</time>
      </trkpt>
      <trkpt lat="48.33354" lon="-1.64663">
        <ele>88.7</ele>
        <time>2019-07-16T10:45:40Z</time>
      </trkpt>
      <trkpt lat="48.33351" lon="-1.64661">
        <ele>88.7</ele>
        <time>2019-07-16T10:45:41Z</time>
      </trkpt>
      <trkpt lat="48.33348" lon="-1.64658">
        <ele>88.7</ele>
        <time>2019-07-16T10:45:42Z</time>
      </trkpt>
      <trkpt lat="48.33345" lon="-1.64656">
        <ele>88.6</ele>
        <time>2019-07-16T10:45:43Z</time>
      </trkpt>
      <trkpt lat="48.33342" lon="-1.64654">
        <ele>88.5</ele>
        <time>2019-07-16T10:45:44Z</time>
      </trkpt>
      <trkpt lat="48.33339" lon="-1.64652">
        <ele>88.2</ele>
        <time>2019-07-16T10:45:45Z</time>
      </trkpt>
      <trkpt lat="48.33337" lon="-1.6465">
        <ele>88.2</ele>
        <time>2019-07-16T10:45:46Z</time>
      </trkpt>
      <trkpt lat="48.33334" lon="-1.64648">
        <ele>88.2</ele>
        <time>2019-07-16T10:45:47Z</time>
      </trkpt>
      <trkpt lat="48.33331" lon="-1.64647">
        <ele>87.7</ele>
        <time>2019-07-16T10:45:48Z</time>
      </trkpt>
      <trkpt lat="48.33328" lon="-1.64645">
        <ele>87.5</ele>
        <time>2019-07-16T10:45:49Z</time>
      </trkpt>
      <trkpt lat="48.33325" lon="-1.64643">
        <ele>87.2</ele>
        <time>2019-07-16T10:45:50Z</time>
      </trkpt>
      <trkpt lat="48.33322" lon="-1.64642">
        <ele>87.5</ele>
        <time>2019-07-16T10:45:51Z</time>
      </trkpt>
      <trkpt lat="48.3332" lon="-1.6464">
        <ele>87.9</ele>
        <time>2019-07-16T10:45:52Z</time>
      </trkpt>
      <trkpt lat="48.33317" lon="-1.64637">
        <ele>87.8</ele>
        <time>2019-07-16T10:45:53Z</time>
      </trkpt>
      <trkpt lat="48.33315" lon="-1.64636">
        <ele>87.4</ele>
        <time>2019-07-16T10:45:54Z</time>
      </trkpt>
      <trkpt lat="48.33312" lon="-1.64634">
        <ele>87.6</ele>
        <time>2019-07-16T10:45:55Z</time>
      </trkpt>
      <trkpt lat="48.33309" lon="-1.64632">
        <ele>87.4</ele>
        <time>2019-07-16T10:45:56Z</time>
      </trkpt>
      <trkpt lat="48.33306" lon="-1.6463">
        <ele>87.5</ele>
        <time>2019-07-16T10:45:57Z</time>
      </trkpt>
      <trkpt lat="48.33303" lon="-1.64628">
        <ele>87.5</ele>
        <time>2019-07-16T10:45:58Z</time>
      </trkpt>
      <trkpt lat="48.333" lon="-1.64625">
        <ele>87.5</ele>
        <time>2019-07-16T10:45:59Z</time>
      </trkpt>
      <trkpt lat="48.33297" lon="-1.64624">
        <ele>87.7</ele>
        <time>2019-07-16T10:46:00Z</time>
      </trkpt>
      <trkpt lat="48.33294" lon="-1.64622">
        <ele>87.5</ele>
        <time>2019-07-16T10:46:01Z</time>
      </trkpt>
      <trkpt lat="48.33291" lon="-1.64619">
        <ele>87.8</ele>
        <time>2019-07-16T10:46:02Z</time>
      </trkpt>
      <trkpt lat="48.33288" lon="-1.64617">
        <ele>87.9</ele>
        <time>2019-07-16T10:46:03Z</time>
      </trkpt>
      <trkpt lat="48.33285" lon="-1.64615">
        <ele>88</ele>
        <time>2019-07-16T10:46:04Z</time>
      </trkpt>
      <trkpt lat="48.33282" lon="-1.64612">
        <ele>88.1</ele>
        <time>2019-07-16T10:46:05Z</time>
      </trkpt>
      <trkpt lat="48.33279" lon="-1.6461">
        <ele>88.3</ele>
        <time>2019-07-16T10:46:06Z</time>
      </trkpt>
      <trkpt lat="48.33276" lon="-1.64607">
        <ele>88.6</ele>
        <time>2019-07-16T10:46:07Z</time>
      </trkpt>
      <trkpt lat="48.33274" lon="-1.64605">
        <ele>88.6</ele>
        <time>2019-07-16T10:46:08Z</time>
      </trkpt>
      <trkpt lat="48.33271" lon="-1.64603">
        <ele>88.5</ele>
        <time>2019-07-16T10:46:09Z</time>
      </trkpt>
      <trkpt lat="48.33268" lon="-1.64601">
        <ele>88.4</ele>
        <time>2019-07-16T10:46:10Z</time>
      </trkpt>
      <trkpt lat="48.33265" lon="-1.64598">
        <ele>89.1</ele>
        <time>2019-07-16T10:46:11Z</time>
      </trkpt>
      <trkpt lat="48.33262" lon="-1.64596">
        <ele>89.7</ele>
        <time>2019-07-16T10:46:12Z</time>
      </trkpt>
      <trkpt lat="48.33259" lon="-1.64593">
        <ele>90.1</ele>
        <time>2019-07-16T10:46:13Z</time>
      </trkpt>
      <trkpt lat="48.33256" lon="-1.64591">
        <ele>90.2</ele>
        <time>2019-07-16T10:46:14Z</time>
      </trkpt>
      <trkpt lat="48.33253" lon="-1.64588">
        <ele>90.3</ele>
        <time>2019-07-16T10:46:15Z</time>
      </trkpt>
      <trkpt lat="48.3325" lon="-1.64586">
        <ele>90.6</ele>
        <time>2019-07-16T10:46:16Z</time>
      </trkpt>
      <trkpt lat="48.33247" lon="-1.64583">
        <ele>90.8</ele>
        <time>2019-07-16T10:46:17Z</time>
      </trkpt>
      <trkpt lat="48.33244" lon="-1.64581">
        <ele>90.8</ele>
        <time>2019-07-16T10:46:18Z</time>
      </trkpt>
      <trkpt lat="48.33242" lon="-1.64578">
        <ele>90.7</ele>
        <time>2019-07-16T10:46:19Z</time>
      </trkpt>
      <trkpt lat="48.33239" lon="-1.64576">
        <ele>90.8</ele>
        <time>2019-07-16T10:46:20Z</time>
      </trkpt>
      <trkpt lat="48.33236" lon="-1.64573">
        <ele>91</ele>
        <time>2019-07-16T10:46:21Z</time>
      </trkpt>
      <trkpt lat="48.33233" lon="-1.64571">
        <ele>90.8</ele>
        <time>2019-07-16T10:46:22Z</time>
      </trkpt>
      <trkpt lat="48.33231" lon="-1.64569">
        <ele>91.2</ele>
        <time>2019-07-16T10:46:23Z</time>
      </trkpt>
      <trkpt lat="48.33228" lon="-1.64566">
        <ele>91.4</ele>
        <time>2019-07-16T10:46:24Z</time>
      </trkpt>
      <trkpt lat="48.33225" lon="-1.64564">
        <ele>91.8</ele>
        <time>2019-07-16T10:46:25Z</time>
      </trkpt>
      <trkpt lat="48.33222" lon="-1.64561">
        <ele>92.1</ele>
        <time>2019-07-16T10:46:26Z</time>
      </trkpt>
      <trkpt lat="48.3322" lon="-1.64558">
        <ele>92.4</ele>
        <time>2019-07-16T10:46:27Z</time>
      </trkpt>
      <trkpt lat="48.33217" lon="-1.64556">
        <ele>92.7</ele>
        <time>2019-07-16T10:46:28Z</time>
      </trkpt>
      <trkpt lat="48.33215" lon="-1.64553">
        <ele>92.7</ele>
        <time>2019-07-16T10:46:29Z</time>
      </trkpt>
      <trkpt lat="48.33212" lon="-1.6455">
        <ele>92.7</ele>
        <time>2019-07-16T10:46:30Z</time>
      </trkpt>
      <trkpt lat="48.3321" lon="-1.64548">
        <ele>93</ele>
        <time>2019-07-16T10:46:31Z</time>
      </trkpt>
      <trkpt lat="48.33207" lon="-1.64546">
        <ele>93.3</ele>
        <time>2019-07-16T10:46:32Z</time>
      </trkpt>
      <trkpt lat="48.33205" lon="-1.64544">
        <ele>93.5</ele>
        <time>2019-07-16T10:46:33Z</time>
      </trkpt>
      <trkpt lat="48.33203" lon="-1.64542">
        <ele>94.1</ele>
        <time>2019-07-16T10:46:34Z</time>
      </trkpt>
      <trkpt lat="48.33201" lon="-1.6454">
        <ele>94.1</ele>
        <time>2019-07-16T10:46:35Z</time>
      </trkpt>
      <trkpt lat="48.33198" lon="-1.64537">
        <ele>93.9</ele>
        <time>2019-07-16T10:46:36Z</time>
      </trkpt>
      <trkpt lat="48.33195" lon="-1.64535">
        <ele>94</ele>
        <time>2019-07-16T10:46:37Z</time>
      </trkpt>
      <trkpt lat="48.33193" lon="-1.64532">
        <ele>94.2</ele>
        <time>2019-07-16T10:46:38Z</time>
      </trkpt>
      <trkpt lat="48.3319" lon="-1.6453">
        <ele>94.4</ele>
        <time>2019-07-16T10:46:39Z</time>
      </trkpt>
      <trkpt lat="48.33188" lon="-1.64527">
        <ele>94.6</ele>
        <time>2019-07-16T10:46:40Z</time>
      </trkpt>
      <trkpt lat="48.33186" lon="-1.64525">
        <ele>94.7</ele>
        <time>2019-07-16T10:46:41Z</time>
      </trkpt>
      <trkpt lat="48.33183" lon="-1.64523">
        <ele>94.7</ele>
        <time>2019-07-16T10:46:42Z</time>
      </trkpt>
      <trkpt lat="48.33181" lon="-1.64521">
        <ele>94.4</ele>
        <time>2019-07-16T10:46:43Z</time>
      </trkpt>
      <trkpt lat="48.33178" lon="-1.64519">
        <ele>94.4</ele>
        <time>2019-07-16T10:46:44Z</time>
      </trkpt>
      <trkpt lat="48.33175" lon="-1.64517">
        <ele>94.3</ele>
        <time>2019-07-16T10:46:45Z</time>
      </trkpt>
      <trkpt lat="48.33173" lon="-1.64514">
        <ele>94.4</ele>
        <time>2019-07-16T10:46:46Z</time>
      </trkpt>
      <trkpt lat="48.3317" lon="-1.64513">
        <ele>94.5</ele>
        <time>2019-07-16T10:46:47Z</time>
      </trkpt>
      <trkpt lat="48.33168" lon="-1.6451">
        <ele>94.6</ele>
        <time>2019-07-16T10:46:48Z</time>
      </trkpt>
      <trkpt lat="48.33165" lon="-1.64508">
        <ele>94.7</ele>
        <time>2019-07-16T10:46:49Z</time>
      </trkpt>
      <trkpt lat="48.33163" lon="-1.64506">
        <ele>94.6</ele>
        <time>2019-07-16T10:46:50Z</time>
      </trkpt>
      <trkpt lat="48.3316" lon="-1.64504">
        <ele>94.6</ele>
        <time>2019-07-16T10:46:51Z</time>
      </trkpt>
      <trkpt lat="48.33157" lon="-1.64501">
        <ele>94.8</ele>
        <time>2019-07-16T10:46:52Z</time>
      </trkpt>
      <trkpt lat="48.33155" lon="-1.64499">
        <ele>94.8</ele>
        <time>2019-07-16T10:46:53Z</time>
      </trkpt>
      <trkpt lat="48.33152" lon="-1.64496">
        <ele>94.9</ele>
        <time>2019-07-16T10:46:54Z</time>
      </trkpt>
      <trkpt lat="48.33149" lon="-1.64494">
        <ele>95.1</ele>
        <time>2019-07-16T10:46:55Z</time>
      </trkpt>
      <trkpt lat="48.33147" lon="-1.64491">
        <ele>95.2</ele>
        <time>2019-07-16T10:46:56Z</time>
      </trkpt>
      <trkpt lat="48.33144" lon="-1.64489">
        <ele>95.4</ele>
        <time>2019-07-16T10:46:57Z</time>
      </trkpt>
      <trkpt lat="48.33141" lon="-1.64487">
        <ele>95.8</ele>
        <time>2019-07-16T10:46:58Z</time>
      </trkpt>
      <trkpt lat="48.33138" lon="-1.64485">
        <ele>96.1</ele>
        <time>2019-07-16T10:46:59Z</time>
      </trkpt>
      <trkpt lat="48.33135" lon="-1.64482">
        <ele>96.3</ele>
        <time>2019-07-16T10:47:00Z</time>
      </trkpt>
      <trkpt lat="48.33133" lon="-1.6448">
        <ele>96.2</ele>
        <time>2019-07-16T10:47:01Z</time>
      </trkpt>
      <trkpt lat="48.3313" lon="-1.64477">
        <ele>96.1</ele>
        <time>2019-07-16T10:47:02Z</time>
      </trkpt>
      <trkpt lat="48.33126" lon="-1.64475">
        <ele>96</ele>
        <time>2019-07-16T10:47:03Z</time>
      </trkpt>
      <trkpt lat="48.33124" lon="-1.64472">
        <ele>95.9</ele>
        <time>2019-07-16T10:47:04Z</time>
      </trkpt>
      <trkpt lat="48.33121" lon="-1.6447">
        <ele>95.4</ele>
        <time>2019-07-16T10:47:05Z</time>
      </trkpt>
      <trkpt lat="48.33118" lon="-1.64467">
        <ele>95.2</ele>
        <time>2019-07-16T10:47:06Z</time>
      </trkpt>
      <trkpt lat="48.33115" lon="-1.64464">
        <ele>95</ele>
        <time>2019-07-16T10:47:07Z</time>
      </trkpt>
      <trkpt lat="48.33112" lon="-1.64461">
        <ele>94.7</ele>
        <time>2019-07-16T10:47:08Z</time>
      </trkpt>
      <trkpt lat="48.33109" lon="-1.64459">
        <ele>94.9</ele>
        <time>2019-07-16T10:47:09Z</time>
      </trkpt>
      <trkpt lat="48.33106" lon="-1.64456">
        <ele>94.8</ele>
        <time>2019-07-16T10:47:10Z</time>
      </trkpt>
      <trkpt lat="48.33103" lon="-1.64453">
        <ele>94.8</ele>
        <time>2019-07-16T10:47:11Z</time>
      </trkpt>
      <trkpt lat="48.331" lon="-1.64451">
        <ele>94.7</ele>
        <time>2019-07-16T10:47:12Z</time>
      </trkpt>
      <trkpt lat="48.33098" lon="-1.64448">
        <ele>94.7</ele>
        <time>2019-07-16T10:47:13Z</time>
      </trkpt>
      <trkpt lat="48.33095" lon="-1.64445">
        <ele>95.2</ele>
        <time>2019-07-16T10:47:14Z</time>
      </trkpt>
      <trkpt lat="48.33093" lon="-1.64443">
        <ele>95.6</ele>
        <time>2019-07-16T10:47:15Z</time>
      </trkpt>
      <trkpt lat="48.3309" lon="-1.6444">
        <ele>96.2</ele>
        <time>2019-07-16T10:47:16Z</time>
      </trkpt>
      <trkpt lat="48.33087" lon="-1.64438">
        <ele>96.7</ele>
        <time>2019-07-16T10:47:17Z</time>
      </trkpt>
      <trkpt lat="48.33084" lon="-1.64435">
        <ele>97.1</ele>
        <time>2019-07-16T10:47:18Z</time>
      </trkpt>
      <trkpt lat="48.33081" lon="-1.64432">
        <ele>97.6</ele>
        <time>2019-07-16T10:47:19Z</time>
      </trkpt>
      <trkpt lat="48.33078" lon="-1.6443">
        <ele>98.1</ele>
        <time>2019-07-16T10:47:20Z</time>
      </trkpt>
      <trkpt lat="48.33075" lon="-1.64427">
        <ele>98.3</ele>
        <time>2019-07-16T10:47:21Z</time>
      </trkpt>
      <trkpt lat="48.33072" lon="-1.64424">
        <ele>98.2</ele>
        <time>2019-07-16T10:47:22Z</time>
      </trkpt>
      <trkpt lat="48.33069" lon="-1.64421">
        <ele>98</ele>
        <time>2019-07-16T10:47:23Z</time>
      </trkpt>
      <trkpt lat="48.33066" lon="-1.64419">
        <ele>98.2</ele>
        <time>2019-07-16T10:47:24Z</time>
      </trkpt>
      <trkpt lat="48.33063" lon="-1.64416">
        <ele>98.1</ele>
        <time>2019-07-16T10:47:25Z</time>
      </trkpt>
      <trkpt lat="48.33061" lon="-1.64413">
        <ele>98.2</ele>
        <time>2019-07-16T10:47:26Z</time>
      </trkpt>
      <trkpt lat="48.33057" lon="-1.64411">
        <ele>98.2</ele>
        <time>2019-07-16T10:47:27Z</time>
      </trkpt>
      <trkpt lat="48.33055" lon="-1.64408">
        <ele>98.6</ele>
        <time>2019-07-16T10:47:28Z</time>
      </trkpt>
      <trkpt lat="48.33052" lon="-1.64406">
        <ele>98.7</ele>
        <time>2019-07-16T10:47:29Z</time>
      </trkpt>
      <trkpt lat="48.33049" lon="-1.64403">
        <ele>99.2</ele>
        <time>2019-07-16T10:47:30Z</time>
      </trkpt>
      <trkpt lat="48.33047" lon="-1.644">
        <ele>99.2</ele>
        <time>2019-07-16T10:47:31Z</time>
      </trkpt>
      <trkpt lat="48.33044" lon="-1.64398">
        <ele>99.7</ele>
        <time>2019-07-16T10:47:32Z</time>
      </trkpt>
      <trkpt lat="48.33041" lon="-1.64395">
        <ele>99.8</ele>
        <time>2019-07-16T10:47:33Z</time>
      </trkpt>
      <trkpt lat="48.33039" lon="-1.64392">
        <ele>100.4</ele>
        <time>2019-07-16T10:47:34Z</time>
      </trkpt>
      <trkpt lat="48.33036" lon="-1.64389">
        <ele>100.4</ele>
        <time>2019-07-16T10:47:35Z</time>
      </trkpt>
      <trkpt lat="48.33033" lon="-1.64387">
        <ele>100.1</ele>
        <time>2019-07-16T10:47:36Z</time>
      </trkpt>
      <trkpt lat="48.33031" lon="-1.64384">
        <ele>100.2</ele>
        <time>2019-07-16T10:47:37Z</time>
      </trkpt>
      <trkpt lat="48.33028" lon="-1.64382">
        <ele>100.1</ele>
        <time>2019-07-16T10:47:38Z</time>
      </trkpt>
      <trkpt lat="48.33025" lon="-1.64379">
        <ele>99.9</ele>
        <time>2019-07-16T10:47:39Z</time>
      </trkpt>
      <trkpt lat="48.33023" lon="-1.64376">
        <ele>100</ele>
        <time>2019-07-16T10:47:40Z</time>
      </trkpt>
      <trkpt lat="48.3302" lon="-1.64373">
        <ele>99.8</ele>
        <time>2019-07-16T10:47:41Z</time>
      </trkpt>
      <trkpt lat="48.33017" lon="-1.6437">
        <ele>99.8</ele>
        <time>2019-07-16T10:47:42Z</time>
      </trkpt>
      <trkpt lat="48.33014" lon="-1.64367">
        <ele>99.9</ele>
        <time>2019-07-16T10:47:43Z</time>
      </trkpt>
      <trkpt lat="48.33011" lon="-1.64364">
        <ele>99.9</ele>
        <time>2019-07-16T10:47:44Z</time>
      </trkpt>
      <trkpt lat="48.33009" lon="-1.64361">
        <ele>100</ele>
        <time>2019-07-16T10:47:45Z</time>
      </trkpt>
      <trkpt lat="48.33007" lon="-1.64358">
        <ele>100</ele>
        <time>2019-07-16T10:47:46Z</time>
      </trkpt>
      <trkpt lat="48.33004" lon="-1.64355">
        <ele>99.5</ele>
        <time>2019-07-16T10:47:47Z</time>
      </trkpt>
      <trkpt lat="48.33002" lon="-1.64352">
        <ele>99.5</ele>
        <time>2019-07-16T10:47:48Z</time>
      </trkpt>
      <trkpt lat="48.32999" lon="-1.64349">
        <ele>99.4</ele>
        <time>2019-07-16T10:47:49Z</time>
      </trkpt>
      <trkpt lat="48.32997" lon="-1.64345">
        <ele>99.3</ele>
        <time>2019-07-16T10:47:50Z</time>
      </trkpt>
      <trkpt lat="48.32995" lon="-1.64342">
        <ele>99.6</ele>
        <time>2019-07-16T10:47:51Z</time>
      </trkpt>
      <trkpt lat="48.32992" lon="-1.64338">
        <ele>99.7</ele>
        <time>2019-07-16T10:47:52Z</time>
      </trkpt>
      <trkpt lat="48.3299" lon="-1.64335">
        <ele>100.2</ele>
        <time>2019-07-16T10:47:53Z</time>
      </trkpt>
      <trkpt lat="48.32988" lon="-1.64332">
        <ele>100.6</ele>
        <time>2019-07-16T10:47:54Z</time>
      </trkpt>
      <trkpt lat="48.32985" lon="-1.64329">
        <ele>100.8</ele>
        <time>2019-07-16T10:47:55Z</time>
      </trkpt>
      <trkpt lat="48.32983" lon="-1.64326">
        <ele>100.9</ele>
        <time>2019-07-16T10:47:56Z</time>
      </trkpt>
      <trkpt lat="48.3298" lon="-1.64323">
        <ele>100.7</ele>
        <time>2019-07-16T10:47:57Z</time>
      </trkpt>
      <trkpt lat="48.32978" lon="-1.64321">
        <ele>101.3</ele>
        <time>2019-07-16T10:47:58Z</time>
      </trkpt>
      <trkpt lat="48.32975" lon="-1.64319">
        <ele>100.5</ele>
        <time>2019-07-16T10:47:59Z</time>
      </trkpt>
      <trkpt lat="48.32973" lon="-1.64316">
        <ele>100</ele>
        <time>2019-07-16T10:48:00Z</time>
      </trkpt>
      <trkpt lat="48.3297" lon="-1.64313">
        <ele>99.7</ele>
        <time>2019-07-16T10:48:01Z</time>
      </trkpt>
      <trkpt lat="48.32968" lon="-1.6431">
        <ele>99.7</ele>
        <time>2019-07-16T10:48:02Z</time>
      </trkpt>
      <trkpt lat="48.32966" lon="-1.64306">
        <ele>99.8</ele>
        <time>2019-07-16T10:48:03Z</time>
      </trkpt>
      <trkpt lat="48.32964" lon="-1.64302">
        <ele>99.6</ele>
        <time>2019-07-16T10:48:04Z</time>
      </trkpt>
      <trkpt lat="48.32963" lon="-1.64299">
        <ele>99.4</ele>
        <time>2019-07-16T10:48:05Z</time>
      </trkpt>
      <trkpt lat="48.32961" lon="-1.64295">
        <ele>99.4</ele>
        <time>2019-07-16T10:48:06Z</time>
      </trkpt>
      <trkpt lat="48.32959" lon="-1.64292">
        <ele>99.6</ele>
        <time>2019-07-16T10:48:07Z</time>
      </trkpt>
      <trkpt lat="48.32958" lon="-1.64288">
        <ele>100</ele>
        <time>2019-07-16T10:48:08Z</time>
      </trkpt>
      <trkpt lat="48.32956" lon="-1.64284">
        <ele>100.4</ele>
        <time>2019-07-16T10:48:09Z</time>
      </trkpt>
      <trkpt lat="48.32954" lon="-1.6428">
        <ele>100.4</ele>
        <time>2019-07-16T10:48:10Z</time>
      </trkpt>
      <trkpt lat="48.32952" lon="-1.64275">
        <ele>100.5</ele>
        <time>2019-07-16T10:48:11Z</time>
      </trkpt>
      <trkpt lat="48.32951" lon="-1.64271">
        <ele>101</ele>
        <time>2019-07-16T10:48:12Z</time>
      </trkpt>
      <trkpt lat="48.32949" lon="-1.64267">
        <ele>101.1</ele>
        <time>2019-07-16T10:48:13Z</time>
      </trkpt>
      <trkpt lat="48.32947" lon="-1.64263">
        <ele>101.8</ele>
        <time>2019-07-16T10:48:14Z</time>
      </trkpt>
      <trkpt lat="48.32945" lon="-1.64259">
        <ele>102.4</ele>
        <time>2019-07-16T10:48:15Z</time>
      </trkpt>
      <trkpt lat="48.32943" lon="-1.64254">
        <ele>102.8</ele>
        <time>2019-07-16T10:48:16Z</time>
      </trkpt>
      <trkpt lat="48.32941" lon="-1.6425">
        <ele>103.1</ele>
        <time>2019-07-16T10:48:17Z</time>
      </trkpt>
      <trkpt lat="48.3294" lon="-1.64246">
        <ele>103.4</ele>
        <time>2019-07-16T10:48:18Z</time>
      </trkpt>
      <trkpt lat="48.3294" lon="-1.64241">
        <ele>103.7</ele>
        <time>2019-07-16T10:48:19Z</time>
      </trkpt>
      <trkpt lat="48.32939" lon="-1.64237">
        <ele>104.4</ele>
        <time>2019-07-16T10:48:20Z</time>
      </trkpt>
      <trkpt lat="48.32937" lon="-1.64233">
        <ele>105.4</ele>
        <time>2019-07-16T10:48:21Z</time>
      </trkpt>
      <trkpt lat="48.32935" lon="-1.6423">
        <ele>106.5</ele>
        <time>2019-07-16T10:48:22Z</time>
      </trkpt>
      <trkpt lat="48.32933" lon="-1.64228">
        <ele>106.8</ele>
        <time>2019-07-16T10:48:23Z</time>
      </trkpt>
      <trkpt lat="48.3293" lon="-1.64225">
        <ele>106.5</ele>
        <time>2019-07-16T10:48:24Z</time>
      </trkpt>
      <trkpt lat="48.32927" lon="-1.64222">
        <ele>106.6</ele>
        <time>2019-07-16T10:48:25Z</time>
      </trkpt>
      <trkpt lat="48.32925" lon="-1.6422">
        <ele>106.6</ele>
        <time>2019-07-16T10:48:26Z</time>
      </trkpt>
      <trkpt lat="48.32922" lon="-1.64218">
        <ele>106.9</ele>
        <time>2019-07-16T10:48:27Z</time>
      </trkpt>
      <trkpt lat="48.3292" lon="-1.64215">
        <ele>106.7</ele>
        <time>2019-07-16T10:48:28Z</time>
      </trkpt>
      <trkpt lat="48.32918" lon="-1.64211">
        <ele>106.5</ele>
        <time>2019-07-16T10:48:29Z</time>
      </trkpt>
      <trkpt lat="48.32916" lon="-1.64208">
        <ele>106.5</ele>
        <time>2019-07-16T10:48:30Z</time>
      </trkpt>
      <trkpt lat="48.32913" lon="-1.64205">
        <ele>106.4</ele>
        <time>2019-07-16T10:48:31Z</time>
      </trkpt>
      <trkpt lat="48.3291" lon="-1.64202">
        <ele>106.6</ele>
        <time>2019-07-16T10:48:32Z</time>
      </trkpt>
      <trkpt lat="48.32908" lon="-1.64199">
        <ele>106.7</ele>
        <time>2019-07-16T10:48:33Z</time>
      </trkpt>
      <trkpt lat="48.32904" lon="-1.64196">
        <ele>106.7</ele>
        <time>2019-07-16T10:48:34Z</time>
      </trkpt>
      <trkpt lat="48.32901" lon="-1.64194">
        <ele>106.6</ele>
        <time>2019-07-16T10:48:35Z</time>
      </trkpt>
      <trkpt lat="48.32898" lon="-1.64191">
        <ele>105.9</ele>
        <time>2019-07-16T10:48:36Z</time>
      </trkpt>
      <trkpt lat="48.32895" lon="-1.64189">
        <ele>105.1</ele>
        <time>2019-07-16T10:48:37Z</time>
      </trkpt>
      <trkpt lat="48.32892" lon="-1.64186">
        <ele>104.8</ele>
        <time>2019-07-16T10:48:38Z</time>
      </trkpt>
      <trkpt lat="48.32889" lon="-1.64183">
        <ele>104.7</ele>
        <time>2019-07-16T10:48:39Z</time>
      </trkpt>
      <trkpt lat="48.32887" lon="-1.6418">
        <ele>104.6</ele>
        <time>2019-07-16T10:48:40Z</time>
      </trkpt>
      <trkpt lat="48.32884" lon="-1.64177">
        <ele>104.5</ele>
        <time>2019-07-16T10:48:41Z</time>
      </trkpt>
      <trkpt lat="48.32881" lon="-1.64175">
        <ele>104.5</ele>
        <time>2019-07-16T10:48:42Z</time>
      </trkpt>
      <trkpt lat="48.32879" lon="-1.64172">
        <ele>104.1</ele>
        <time>2019-07-16T10:48:43Z</time>
      </trkpt>
      <trkpt lat="48.32876" lon="-1.64169">
        <ele>104</ele>
        <time>2019-07-16T10:48:44Z</time>
      </trkpt>
      <trkpt lat="48.32873" lon="-1.64167">
        <ele>104</ele>
        <time>2019-07-16T10:48:45Z</time>
      </trkpt>
      <trkpt lat="48.32871" lon="-1.64163">
        <ele>104</ele>
        <time>2019-07-16T10:48:46Z</time>
      </trkpt>
      <trkpt lat="48.32869" lon="-1.64161">
        <ele>103.9</ele>
        <time>2019-07-16T10:48:47Z</time>
      </trkpt>
      <trkpt lat="48.32867" lon="-1.64158">
        <ele>104.1</ele>
        <time>2019-07-16T10:48:48Z</time>
      </trkpt>
      <trkpt lat="48.32865" lon="-1.64155">
        <ele>104</ele>
        <time>2019-07-16T10:48:49Z</time>
      </trkpt>
      <trkpt lat="48.32863" lon="-1.64151">
        <ele>104.1</ele>
        <time>2019-07-16T10:48:50Z</time>
      </trkpt>
      <trkpt lat="48.32861" lon="-1.6415">
        <ele>104.7</ele>
        <time>2019-07-16T10:48:51Z</time>
      </trkpt>
      <trkpt lat="48.32859" lon="-1.64148">
        <ele>105.4</ele>
        <time>2019-07-16T10:48:52Z</time>
      </trkpt>
      <trkpt lat="48.32858" lon="-1.64146">
        <ele>105.9</ele>
        <time>2019-07-16T10:48:53Z</time>
      </trkpt>
      <trkpt lat="48.32856" lon="-1.64145">
        <ele>106</ele>
        <time>2019-07-16T10:48:54Z</time>
      </trkpt>
      <trkpt lat="48.32855" lon="-1.64145">
        <ele>105.8</ele>
        <time>2019-07-16T10:48:55Z</time>
      </trkpt>
      <trkpt lat="48.32853" lon="-1.64145">
        <ele>105.9</ele>
        <time>2019-07-16T10:48:56Z</time>
      </trkpt>
      <trkpt lat="48.32848" lon="-1.64157">
        <ele>110.7</ele>
        <time>2019-07-16T10:51:33Z</time>
      </trkpt>
      <trkpt lat="48.32853" lon="-1.64154">
        <ele>107.2</ele>
        <time>2019-07-16T11:39:03Z</time>
      </trkpt>
      <trkpt lat="48.32855" lon="-1.64153">
        <ele>107.2</ele>
        <time>2019-07-16T11:39:04Z</time>
      </trkpt>
      <trkpt lat="48.32856" lon="-1.64152">
        <ele>107.1</ele>
        <time>2019-07-16T11:39:05Z</time>
      </trkpt>
      <trkpt lat="48.32856" lon="-1.64151">
        <ele>107.3</ele>
        <time>2019-07-16T11:39:06Z</time>
      </trkpt>
      <trkpt lat="48.32858" lon="-1.64151">
        <ele>107.4</ele>
        <time>2019-07-16T11:39:07Z</time>
      </trkpt>
      <trkpt lat="48.32858" lon="-1.6415">
        <ele>107.4</ele>
        <time>2019-07-16T11:39:08Z</time>
      </trkpt>
      <trkpt lat="48.32858" lon="-1.64148">
        <ele>107.9</ele>
        <time>2019-07-16T11:39:09Z</time>
      </trkpt>
      <trkpt lat="48.32858" lon="-1.64147">
        <ele>108.5</ele>
        <time>2019-07-16T11:39:10Z</time>
      </trkpt>
      <trkpt lat="48.32858" lon="-1.64146">
        <ele>108.8</ele>
        <time>2019-07-16T11:39:11Z</time>
      </trkpt>
      <trkpt lat="48.32857" lon="-1.64144">
        <ele>109.7</ele>
        <time>2019-07-16T11:39:12Z</time>
      </trkpt>
      <trkpt lat="48.32855" lon="-1.64142">
        <ele>110.1</ele>
        <time>2019-07-16T11:39:13Z</time>
      </trkpt>
      <trkpt lat="48.32853" lon="-1.64139">
        <ele>110.4</ele>
        <time>2019-07-16T11:39:14Z</time>
      </trkpt>
      <trkpt lat="48.3285" lon="-1.64136">
        <ele>109.8</ele>
        <time>2019-07-16T11:39:15Z</time>
      </trkpt>
      <trkpt lat="48.32847" lon="-1.64133">
        <ele>110</ele>
        <time>2019-07-16T11:39:16Z</time>
      </trkpt>
      <trkpt lat="48.32844" lon="-1.64133">
        <ele>110.1</ele>
        <time>2019-07-16T11:39:17Z</time>
      </trkpt>
      <trkpt lat="48.32842" lon="-1.64132">
        <ele>109.6</ele>
        <time>2019-07-16T11:39:18Z</time>
      </trkpt>
      <trkpt lat="48.32839" lon="-1.6413">
        <ele>109.2</ele>
        <time>2019-07-16T11:39:19Z</time>
      </trkpt>
      <trkpt lat="48.32837" lon="-1.64129">
        <ele>108.8</ele>
        <time>2019-07-16T11:39:20Z</time>
      </trkpt>
      <trkpt lat="48.32834" lon="-1.64127">
        <ele>108.3</ele>
        <time>2019-07-16T11:39:21Z</time>
      </trkpt>
      <trkpt lat="48.32831" lon="-1.64125">
        <ele>107.6</ele>
        <time>2019-07-16T11:39:22Z</time>
      </trkpt>
      <trkpt lat="48.32829" lon="-1.64124">
        <ele>107.1</ele>
        <time>2019-07-16T11:39:23Z</time>
      </trkpt>
      <trkpt lat="48.32826" lon="-1.64123">
        <ele>107.1</ele>
        <time>2019-07-16T11:39:24Z</time>
      </trkpt>
      <trkpt lat="48.32822" lon="-1.64122">
        <ele>106.4</ele>
        <time>2019-07-16T11:39:25Z</time>
      </trkpt>
      <trkpt lat="48.3282" lon="-1.64121">
        <ele>106.3</ele>
        <time>2019-07-16T11:39:26Z</time>
      </trkpt>
      <trkpt lat="48.32819" lon="-1.64119">
        <ele>105.8</ele>
        <time>2019-07-16T11:39:27Z</time>
      </trkpt>
      <trkpt lat="48.32818" lon="-1.64118">
        <ele>105.5</ele>
        <time>2019-07-16T11:39:28Z</time>
      </trkpt>
      <trkpt lat="48.32815" lon="-1.64111">
        <ele>106.3</ele>
        <time>2019-07-16T11:39:39Z</time>
      </trkpt>
      <trkpt lat="48.32816" lon="-1.64109">
        <ele>106.6</ele>
        <time>2019-07-16T11:39:40Z</time>
      </trkpt>
      <trkpt lat="48.32816" lon="-1.64108">
        <ele>107</ele>
        <time>2019-07-16T11:39:41Z</time>
      </trkpt>
      <trkpt lat="48.32818" lon="-1.64106">
        <ele>107.3</ele>
        <time>2019-07-16T11:39:42Z</time>
      </trkpt>
      <trkpt lat="48.32819" lon="-1.64103">
        <ele>107.5</ele>
        <time>2019-07-16T11:39:43Z</time>
      </trkpt>
      <trkpt lat="48.3282" lon="-1.64101">
        <ele>107.8</ele>
        <time>2019-07-16T11:39:44Z</time>
      </trkpt>
      <trkpt lat="48.32821" lon="-1.64099">
        <ele>108.2</ele>
        <time>2019-07-16T11:39:45Z</time>
      </trkpt>
      <trkpt lat="48.32822" lon="-1.64097">
        <ele>108.8</ele>
        <time>2019-07-16T11:39:46Z</time>
      </trkpt>
      <trkpt lat="48.32824" lon="-1.64095">
        <ele>109.3</ele>
        <time>2019-07-16T11:39:47Z</time>
      </trkpt>
      <trkpt lat="48.32824" lon="-1.64093">
        <ele>109.8</ele>
        <time>2019-07-16T11:39:48Z</time>
      </trkpt>
      <trkpt lat="48.32825" lon="-1.6409">
        <ele>109.9</ele>
        <time>2019-07-16T11:39:49Z</time>
      </trkpt>
      <trkpt lat="48.32826" lon="-1.64088">
        <ele>109.7</ele>
        <time>2019-07-16T11:39:50Z</time>
      </trkpt>
      <trkpt lat="48.32827" lon="-1.64085">
        <ele>109.7</ele>
        <time>2019-07-16T11:39:51Z</time>
      </trkpt>
      <trkpt lat="48.32828" lon="-1.64083">
        <ele>109.8</ele>
        <time>2019-07-16T11:39:52Z</time>
      </trkpt>
      <trkpt lat="48.32829" lon="-1.64081">
        <ele>109.7</ele>
        <time>2019-07-16T11:39:53Z</time>
      </trkpt>
      <trkpt lat="48.3283" lon="-1.64079">
        <ele>109.8</ele>
        <time>2019-07-16T11:39:54Z</time>
      </trkpt>
      <trkpt lat="48.32832" lon="-1.64076">
        <ele>110</ele>
        <time>2019-07-16T11:39:55Z</time>
      </trkpt>
      <trkpt lat="48.32834" lon="-1.64074">
        <ele>110.1</ele>
        <time>2019-07-16T11:39:56Z</time>
      </trkpt>
      <trkpt lat="48.32835" lon="-1.64073">
        <ele>110.1</ele>
        <time>2019-07-16T11:39:57Z</time>
      </trkpt>
      <trkpt lat="48.32836" lon="-1.64072">
        <ele>110.5</ele>
        <time>2019-07-16T11:39:58Z</time>
      </trkpt>
      <trkpt lat="48.32838" lon="-1.64071">
        <ele>111</ele>
        <time>2019-07-16T11:39:59Z</time>
      </trkpt>
      <trkpt lat="48.3284" lon="-1.6407">
        <ele>112.6</ele>
        <time>2019-07-16T11:40:00Z</time>
      </trkpt>
      <trkpt lat="48.32843" lon="-1.6407">
        <ele>113</ele>
        <time>2019-07-16T11:40:01Z</time>
      </trkpt>
      <trkpt lat="48.32847" lon="-1.64069">
        <ele>113.2</ele>
        <time>2019-07-16T11:40:02Z</time>
      </trkpt>
      <trkpt lat="48.3285" lon="-1.64068">
        <ele>112.9</ele>
        <time>2019-07-16T11:40:03Z</time>
      </trkpt>
      <trkpt lat="48.32851" lon="-1.64068">
        <ele>112.9</ele>
        <time>2019-07-16T11:40:04Z</time>
      </trkpt>
      <trkpt lat="48.32853" lon="-1.64068">
        <ele>113</ele>
        <time>2019-07-16T11:40:05Z</time>
      </trkpt>
      <trkpt lat="48.32855" lon="-1.6407">
        <ele>113.6</ele>
        <time>2019-07-16T11:40:06Z</time>
      </trkpt>
      <trkpt lat="48.32857" lon="-1.64071">
        <ele>114.3</ele>
        <time>2019-07-16T11:40:07Z</time>
      </trkpt>
      <trkpt lat="48.32859" lon="-1.64071">
        <ele>114.7</ele>
        <time>2019-07-16T11:40:08Z</time>
      </trkpt>
      <trkpt lat="48.32861" lon="-1.64071">
        <ele>115</ele>
        <time>2019-07-16T11:40:09Z</time>
      </trkpt>
      <trkpt lat="48.32864" lon="-1.64072">
        <ele>114.2</ele>
        <time>2019-07-16T11:40:10Z</time>
      </trkpt>
      <trkpt lat="48.32867" lon="-1.64072">
        <ele>113.9</ele>
        <time>2019-07-16T11:40:11Z</time>
      </trkpt>
      <trkpt lat="48.3287" lon="-1.64072">
        <ele>113.4</ele>
        <time>2019-07-16T11:40:12Z</time>
      </trkpt>
      <trkpt lat="48.32873" lon="-1.6407">
        <ele>113.1</ele>
        <time>2019-07-16T11:40:13Z</time>
      </trkpt>
      <trkpt lat="48.32875" lon="-1.64069">
        <ele>113.9</ele>
        <time>2019-07-16T11:40:14Z</time>
      </trkpt>
      <trkpt lat="48.32877" lon="-1.64068">
        <ele>114.1</ele>
        <time>2019-07-16T11:40:15Z</time>
      </trkpt>
      <trkpt lat="48.32879" lon="-1.64069">
        <ele>116.2</ele>
        <time>2019-07-16T11:40:22Z</time>
      </trkpt>
      <trkpt lat="48.32876" lon="-1.6407">
        <ele>116.4</ele>
        <time>2019-07-16T11:40:23Z</time>
      </trkpt>
      <trkpt lat="48.32873" lon="-1.6407">
        <ele>116.7</ele>
        <time>2019-07-16T11:40:24Z</time>
      </trkpt>
      <trkpt lat="48.32871" lon="-1.64069">
        <ele>116.9</ele>
        <time>2019-07-16T11:40:25Z</time>
      </trkpt>
      <trkpt lat="48.32868" lon="-1.64068">
        <ele>117</ele>
        <time>2019-07-16T11:40:26Z</time>
      </trkpt>
      <trkpt lat="48.32866" lon="-1.64068">
        <ele>117.5</ele>
        <time>2019-07-16T11:40:27Z</time>
      </trkpt>
      <trkpt lat="48.32865" lon="-1.64065">
        <ele>116.6</ele>
        <time>2019-07-16T11:40:28Z</time>
      </trkpt>
      <trkpt lat="48.32863" lon="-1.64066">
        <ele>116.1</ele>
        <time>2019-07-16T11:40:29Z</time>
      </trkpt>
      <trkpt lat="48.32861" lon="-1.64066">
        <ele>115</ele>
        <time>2019-07-16T11:40:30Z</time>
      </trkpt>
      <trkpt lat="48.3286" lon="-1.64068">
        <ele>115</ele>
        <time>2019-07-16T11:40:31Z</time>
      </trkpt>
      <trkpt lat="48.32858" lon="-1.64071">
        <ele>115.1</ele>
        <time>2019-07-16T11:40:32Z</time>
      </trkpt>
      <trkpt lat="48.32857" lon="-1.64075">
        <ele>115.1</ele>
        <time>2019-07-16T11:40:33Z</time>
      </trkpt>
      <trkpt lat="48.32857" lon="-1.64078">
        <ele>115.4</ele>
        <time>2019-07-16T11:40:34Z</time>
      </trkpt>
      <trkpt lat="48.32857" lon="-1.6408">
        <ele>115.5</ele>
        <time>2019-07-16T11:40:35Z</time>
      </trkpt>
      <trkpt lat="48.32856" lon="-1.64083">
        <ele>115.7</ele>
        <time>2019-07-16T11:40:36Z</time>
      </trkpt>
      <trkpt lat="48.32856" lon="-1.64084">
        <ele>116</ele>
        <time>2019-07-16T11:40:37Z</time>
      </trkpt>
      <trkpt lat="48.32858" lon="-1.64092">
        <ele>115.8</ele>
        <time>2019-07-16T11:48:08Z</time>
      </trkpt>
      <trkpt lat="48.32858" lon="-1.6409">
        <ele>115.7</ele>
        <time>2019-07-16T11:48:09Z</time>
      </trkpt>
      <trkpt lat="48.32858" lon="-1.64089">
        <ele>115.5</ele>
        <time>2019-07-16T11:48:10Z</time>
      </trkpt>
      <trkpt lat="48.32859" lon="-1.64087">
        <ele>115.3</ele>
        <time>2019-07-16T11:48:11Z</time>
      </trkpt>
      <trkpt lat="48.32858" lon="-1.64074">
        <ele>114.3</ele>
        <time>2019-07-16T11:48:27Z</time>
      </trkpt>
      <trkpt lat="48.32859" lon="-1.64074">
        <ele>114.4</ele>
        <time>2019-07-16T11:48:28Z</time>
      </trkpt>
      <trkpt lat="48.32861" lon="-1.64073">
        <ele>114.5</ele>
        <time>2019-07-16T11:48:29Z</time>
      </trkpt>
      <trkpt lat="48.32863" lon="-1.64073">
        <ele>114.7</ele>
        <time>2019-07-16T11:48:30Z</time>
      </trkpt>
      <trkpt lat="48.32864" lon="-1.64073">
        <ele>115</ele>
        <time>2019-07-16T11:48:31Z</time>
      </trkpt>
      <trkpt lat="48.32866" lon="-1.64072">
        <ele>115.8</ele>
        <time>2019-07-16T11:48:32Z</time>
      </trkpt>
      <trkpt lat="48.32868" lon="-1.64072">
        <ele>116.2</ele>
        <time>2019-07-16T11:48:33Z</time>
      </trkpt>
      <trkpt lat="48.32871" lon="-1.64073">
        <ele>116.3</ele>
        <time>2019-07-16T11:48:34Z</time>
      </trkpt>
      <trkpt lat="48.32874" lon="-1.64073">
        <ele>116.6</ele>
        <time>2019-07-16T11:48:35Z</time>
      </trkpt>
      <trkpt lat="48.32877" lon="-1.64074">
        <ele>116.8</ele>
        <time>2019-07-16T11:48:36Z</time>
      </trkpt>
      <trkpt lat="48.32881" lon="-1.64073">
        <ele>116.8</ele>
        <time>2019-07-16T11:48:37Z</time>
      </trkpt>
      <trkpt lat="48.32885" lon="-1.64073">
        <ele>116.8</ele>
        <time>2019-07-16T11:48:38Z</time>
      </trkpt>
      <trkpt lat="48.32888" lon="-1.64073">
        <ele>116.3</ele>
        <time>2019-07-16T11:48:39Z</time>
      </trkpt>
      <trkpt lat="48.32892" lon="-1.64074">
        <ele>115.5</ele>
        <time>2019-07-16T11:48:40Z</time>
      </trkpt>
      <trkpt lat="48.32895" lon="-1.64074">
        <ele>114.7</ele>
        <time>2019-07-16T11:48:41Z</time>
      </trkpt>
      <trkpt lat="48.32898" lon="-1.64075">
        <ele>114.4</ele>
        <time>2019-07-16T11:48:42Z</time>
      </trkpt>
      <trkpt lat="48.32903" lon="-1.64075">
        <ele>114</ele>
        <time>2019-07-16T11:48:43Z</time>
      </trkpt>
      <trkpt lat="48.32906" lon="-1.64077">
        <ele>113.2</ele>
        <time>2019-07-16T11:48:44Z</time>
      </trkpt>
      <trkpt lat="48.3291" lon="-1.64078">
        <ele>112.9</ele>
        <time>2019-07-16T11:48:45Z</time>
      </trkpt>
      <trkpt lat="48.32914" lon="-1.6408">
        <ele>112.5</ele>
        <time>2019-07-16T11:48:46Z</time>
      </trkpt>
      <trkpt lat="48.32917" lon="-1.64083">
        <ele>111.8</ele>
        <time>2019-07-16T11:48:47Z</time>
      </trkpt>
      <trkpt lat="48.32921" lon="-1.64084">
        <ele>111</ele>
        <time>2019-07-16T11:48:48Z</time>
      </trkpt>
      <trkpt lat="48.32924" lon="-1.64087">
        <ele>110</ele>
        <time>2019-07-16T11:48:49Z</time>
      </trkpt>
      <trkpt lat="48.32928" lon="-1.64089">
        <ele>108.9</ele>
        <time>2019-07-16T11:48:50Z</time>
      </trkpt>
      <trkpt lat="48.32932" lon="-1.64091">
        <ele>107.9</ele>
        <time>2019-07-16T11:48:51Z</time>
      </trkpt>
      <trkpt lat="48.32935" lon="-1.64093">
        <ele>106.7</ele>
        <time>2019-07-16T11:48:52Z</time>
      </trkpt>
      <trkpt lat="48.3294" lon="-1.64095">
        <ele>105.7</ele>
        <time>2019-07-16T11:48:53Z</time>
      </trkpt>
      <trkpt lat="48.32943" lon="-1.64097">
        <ele>104.9</ele>
        <time>2019-07-16T11:48:54Z</time>
      </trkpt>
      <trkpt lat="48.32947" lon="-1.64099">
        <ele>104</ele>
        <time>2019-07-16T11:48:55Z</time>
      </trkpt>
      <trkpt lat="48.32951" lon="-1.641">
        <ele>102.8</ele>
        <time>2019-07-16T11:48:56Z</time>
      </trkpt>
      <trkpt lat="48.32956" lon="-1.641">
        <ele>101.7</ele>
        <time>2019-07-16T11:48:57Z</time>
      </trkpt>
      <trkpt lat="48.3296" lon="-1.64099">
        <ele>100.9</ele>
        <time>2019-07-16T11:48:58Z</time>
      </trkpt>
      <trkpt lat="48.32964" lon="-1.64099">
        <ele>100.3</ele>
        <time>2019-07-16T11:48:59Z</time>
      </trkpt>
      <trkpt lat="48.32967" lon="-1.641">
        <ele>100</ele>
        <time>2019-07-16T11:49:00Z</time>
      </trkpt>
      <trkpt lat="48.32971" lon="-1.641">
        <ele>99.5</ele>
        <time>2019-07-16T11:49:01Z</time>
      </trkpt>
      <trkpt lat="48.32974" lon="-1.64099">
        <ele>99.2</ele>
        <time>2019-07-16T11:49:02Z</time>
      </trkpt>
      <trkpt lat="48.32977" lon="-1.64097">
        <ele>99.2</ele>
        <time>2019-07-16T11:49:03Z</time>
      </trkpt>
      <trkpt lat="48.3298" lon="-1.64094">
        <ele>99</ele>
        <time>2019-07-16T11:49:04Z</time>
      </trkpt>
      <trkpt lat="48.32983" lon="-1.6409">
        <ele>98.9</ele>
        <time>2019-07-16T11:49:05Z</time>
      </trkpt>
      <trkpt lat="48.32987" lon="-1.64086">
        <ele>98.9</ele>
        <time>2019-07-16T11:49:06Z</time>
      </trkpt>
      <trkpt lat="48.3299" lon="-1.64081">
        <ele>98.8</ele>
        <time>2019-07-16T11:49:07Z</time>
      </trkpt>
      <trkpt lat="48.32993" lon="-1.64076">
        <ele>98.4</ele>
        <time>2019-07-16T11:49:08Z</time>
      </trkpt>
      <trkpt lat="48.32996" lon="-1.64071">
        <ele>98.4</ele>
        <time>2019-07-16T11:49:09Z</time>
      </trkpt>
      <trkpt lat="48.32999" lon="-1.64065">
        <ele>98.4</ele>
        <time>2019-07-16T11:49:10Z</time>
      </trkpt>
      <trkpt lat="48.33002" lon="-1.64059">
        <ele>98.4</ele>
        <time>2019-07-16T11:49:11Z</time>
      </trkpt>
      <trkpt lat="48.33005" lon="-1.64054">
        <ele>98.4</ele>
        <time>2019-07-16T11:49:12Z</time>
      </trkpt>
      <trkpt lat="48.33008" lon="-1.64049">
        <ele>98.3</ele>
        <time>2019-07-16T11:49:13Z</time>
      </trkpt>
      <trkpt lat="48.33012" lon="-1.64043">
        <ele>97.5</ele>
        <time>2019-07-16T11:49:14Z</time>
      </trkpt>
      <trkpt lat="48.33015" lon="-1.64035">
        <ele>98.1</ele>
        <time>2019-07-16T11:49:15Z</time>
      </trkpt>
      <trkpt lat="48.33018" lon="-1.64027">
        <ele>98.9</ele>
        <time>2019-07-16T11:49:16Z</time>
      </trkpt>
      <trkpt lat="48.33021" lon="-1.6402">
        <ele>98.8</ele>
        <time>2019-07-16T11:49:17Z</time>
      </trkpt>
      <trkpt lat="48.33025" lon="-1.64013">
        <ele>98.9</ele>
        <time>2019-07-16T11:49:18Z</time>
      </trkpt>
      <trkpt lat="48.33027" lon="-1.64005">
        <ele>99.2</ele>
        <time>2019-07-16T11:49:19Z</time>
      </trkpt>
      <trkpt lat="48.3303" lon="-1.63999">
        <ele>99.5</ele>
        <time>2019-07-16T11:49:20Z</time>
      </trkpt>
      <trkpt lat="48.33033" lon="-1.63992">
        <ele>99.1</ele>
        <time>2019-07-16T11:49:21Z</time>
      </trkpt>
      <trkpt lat="48.33036" lon="-1.63985">
        <ele>99.5</ele>
        <time>2019-07-16T11:49:22Z</time>
      </trkpt>
      <trkpt lat="48.33038" lon="-1.6398">
        <ele>100.5</ele>
        <time>2019-07-16T11:49:23Z</time>
      </trkpt>
      <trkpt lat="48.33041" lon="-1.63974">
        <ele>101.1</ele>
        <time>2019-07-16T11:49:24Z</time>
      </trkpt>
      <trkpt lat="48.33044" lon="-1.6397">
        <ele>101.4</ele>
        <time>2019-07-16T11:49:25Z</time>
      </trkpt>
      <trkpt lat="48.33047" lon="-1.63964">
        <ele>101.4</ele>
        <time>2019-07-16T11:49:26Z</time>
      </trkpt>
      <trkpt lat="48.33049" lon="-1.63958">
        <ele>101.5</ele>
        <time>2019-07-16T11:49:27Z</time>
      </trkpt>
      <trkpt lat="48.33052" lon="-1.63952">
        <ele>101.6</ele>
        <time>2019-07-16T11:49:28Z</time>
      </trkpt>
      <trkpt lat="48.33056" lon="-1.63946">
        <ele>101.8</ele>
        <time>2019-07-16T11:49:29Z</time>
      </trkpt>
      <trkpt lat="48.33058" lon="-1.63941">
        <ele>101.4</ele>
        <time>2019-07-16T11:49:30Z</time>
      </trkpt>
      <trkpt lat="48.33061" lon="-1.63935">
        <ele>101.2</ele>
        <time>2019-07-16T11:49:31Z</time>
      </trkpt>
      <trkpt lat="48.33064" lon="-1.6393">
        <ele>101.1</ele>
        <time>2019-07-16T11:49:32Z</time>
      </trkpt>
      <trkpt lat="48.33066" lon="-1.63925">
        <ele>100.3</ele>
        <time>2019-07-16T11:49:33Z</time>
      </trkpt>
      <trkpt lat="48.33069" lon="-1.6392">
        <ele>100</ele>
        <time>2019-07-16T11:49:34Z</time>
      </trkpt>
      <trkpt lat="48.33072" lon="-1.63915">
        <ele>99.9</ele>
        <time>2019-07-16T11:49:35Z</time>
      </trkpt>
      <trkpt lat="48.33074" lon="-1.6391">
        <ele>99.9</ele>
        <time>2019-07-16T11:49:36Z</time>
      </trkpt>
      <trkpt lat="48.33078" lon="-1.63904">
        <ele>99.8</ele>
        <time>2019-07-16T11:49:37Z</time>
      </trkpt>
      <trkpt lat="48.33081" lon="-1.63898">
        <ele>99.8</ele>
        <time>2019-07-16T11:49:38Z</time>
      </trkpt>
      <trkpt lat="48.33084" lon="-1.63893">
        <ele>100.1</ele>
        <time>2019-07-16T11:49:39Z</time>
      </trkpt>
      <trkpt lat="48.33087" lon="-1.63888">
        <ele>100</ele>
        <time>2019-07-16T11:49:40Z</time>
      </trkpt>
      <trkpt lat="48.3309" lon="-1.63883">
        <ele>99.3</ele>
        <time>2019-07-16T11:49:41Z</time>
      </trkpt>
      <trkpt lat="48.33094" lon="-1.63878">
        <ele>98.8</ele>
        <time>2019-07-16T11:49:42Z</time>
      </trkpt>
      <trkpt lat="48.331" lon="-1.63869">
        <ele>99</ele>
        <time>2019-07-16T11:49:44Z</time>
      </trkpt>
      <trkpt lat="48.33104" lon="-1.63863">
        <ele>98.7</ele>
        <time>2019-07-16T11:49:45Z</time>
      </trkpt>
      <trkpt lat="48.33107" lon="-1.63859">
        <ele>98.7</ele>
        <time>2019-07-16T11:49:46Z</time>
      </trkpt>
      <trkpt lat="48.33111" lon="-1.63854">
        <ele>98.8</ele>
        <time>2019-07-16T11:49:47Z</time>
      </trkpt>
      <trkpt lat="48.33115" lon="-1.63849">
        <ele>98.9</ele>
        <time>2019-07-16T11:49:48Z</time>
      </trkpt>
      <trkpt lat="48.33119" lon="-1.63845">
        <ele>99.3</ele>
        <time>2019-07-16T11:49:49Z</time>
      </trkpt>
      <trkpt lat="48.33123" lon="-1.6384">
        <ele>99.8</ele>
        <time>2019-07-16T11:49:50Z</time>
      </trkpt>
      <trkpt lat="48.33127" lon="-1.63835">
        <ele>99.8</ele>
        <time>2019-07-16T11:49:51Z</time>
      </trkpt>
      <trkpt lat="48.33131" lon="-1.6383">
        <ele>99.9</ele>
        <time>2019-07-16T11:49:52Z</time>
      </trkpt>
      <trkpt lat="48.33134" lon="-1.63826">
        <ele>99.7</ele>
        <time>2019-07-16T11:49:53Z</time>
      </trkpt>
      <trkpt lat="48.33138" lon="-1.63822">
        <ele>99.8</ele>
        <time>2019-07-16T11:49:54Z</time>
      </trkpt>
      <trkpt lat="48.33141" lon="-1.63818">
        <ele>100</ele>
        <time>2019-07-16T11:49:55Z</time>
      </trkpt>
      <trkpt lat="48.33144" lon="-1.63814">
        <ele>100.3</ele>
        <time>2019-07-16T11:49:56Z</time>
      </trkpt>
      <trkpt lat="48.33148" lon="-1.6381">
        <ele>100.2</ele>
        <time>2019-07-16T11:49:57Z</time>
      </trkpt>
      <trkpt lat="48.33151" lon="-1.63807">
        <ele>100.3</ele>
        <time>2019-07-16T11:49:58Z</time>
      </trkpt>
      <trkpt lat="48.33154" lon="-1.63803">
        <ele>100.6</ele>
        <time>2019-07-16T11:49:59Z</time>
      </trkpt>
      <trkpt lat="48.33157" lon="-1.63799">
        <ele>100.6</ele>
        <time>2019-07-16T11:50:00Z</time>
      </trkpt>
      <trkpt lat="48.3316" lon="-1.63796">
        <ele>101.2</ele>
        <time>2019-07-16T11:50:01Z</time>
      </trkpt>
      <trkpt lat="48.33164" lon="-1.63793">
        <ele>101.9</ele>
        <time>2019-07-16T11:50:02Z</time>
      </trkpt>
      <trkpt lat="48.33168" lon="-1.6379">
        <ele>102.7</ele>
        <time>2019-07-16T11:50:03Z</time>
      </trkpt>
      <trkpt lat="48.33172" lon="-1.63788">
        <ele>102.1</ele>
        <time>2019-07-16T11:50:04Z</time>
      </trkpt>
      <trkpt lat="48.33176" lon="-1.63786">
        <ele>101.6</ele>
        <time>2019-07-16T11:50:05Z</time>
      </trkpt>
      <trkpt lat="48.33181" lon="-1.63784">
        <ele>101.1</ele>
        <time>2019-07-16T11:50:06Z</time>
      </trkpt>
      <trkpt lat="48.33185" lon="-1.63782">
        <ele>100.7</ele>
        <time>2019-07-16T11:50:07Z</time>
      </trkpt>
      <trkpt lat="48.33189" lon="-1.6378">
        <ele>100.4</ele>
        <time>2019-07-16T11:50:08Z</time>
      </trkpt>
      <trkpt lat="48.33193" lon="-1.63779">
        <ele>100.2</ele>
        <time>2019-07-16T11:50:09Z</time>
      </trkpt>
      <trkpt lat="48.33197" lon="-1.63777">
        <ele>99.7</ele>
        <time>2019-07-16T11:50:10Z</time>
      </trkpt>
      <trkpt lat="48.33201" lon="-1.63775">
        <ele>99.2</ele>
        <time>2019-07-16T11:50:11Z</time>
      </trkpt>
      <trkpt lat="48.33205" lon="-1.63772">
        <ele>98.8</ele>
        <time>2019-07-16T11:50:12Z</time>
      </trkpt>
      <trkpt lat="48.3321" lon="-1.6377">
        <ele>98.4</ele>
        <time>2019-07-16T11:50:13Z</time>
      </trkpt>
      <trkpt lat="48.33215" lon="-1.63767">
        <ele>98</ele>
        <time>2019-07-16T11:50:14Z</time>
      </trkpt>
      <trkpt lat="48.3322" lon="-1.63765">
        <ele>98</ele>
        <time>2019-07-16T11:50:15Z</time>
      </trkpt>
      <trkpt lat="48.33225" lon="-1.63762">
        <ele>97.8</ele>
        <time>2019-07-16T11:50:16Z</time>
      </trkpt>
      <trkpt lat="48.3323" lon="-1.6376">
        <ele>98</ele>
        <time>2019-07-16T11:50:17Z</time>
      </trkpt>
      <trkpt lat="48.33235" lon="-1.63757">
        <ele>98</ele>
        <time>2019-07-16T11:50:18Z</time>
      </trkpt>
      <trkpt lat="48.33239" lon="-1.63755">
        <ele>98.1</ele>
        <time>2019-07-16T11:50:19Z</time>
      </trkpt>
      <trkpt lat="48.33244" lon="-1.63752">
        <ele>98.1</ele>
        <time>2019-07-16T11:50:20Z</time>
      </trkpt>
      <trkpt lat="48.33249" lon="-1.6375">
        <ele>97.6</ele>
        <time>2019-07-16T11:50:21Z</time>
      </trkpt>
      <trkpt lat="48.33253" lon="-1.63749">
        <ele>96.8</ele>
        <time>2019-07-16T11:50:22Z</time>
      </trkpt>
      <trkpt lat="48.33257" lon="-1.63747">
        <ele>96.5</ele>
        <time>2019-07-16T11:50:23Z</time>
      </trkpt>
      <trkpt lat="48.33262" lon="-1.63745">
        <ele>95.3</ele>
        <time>2019-07-16T11:50:24Z</time>
      </trkpt>
      <trkpt lat="48.33266" lon="-1.63742">
        <ele>94.9</ele>
        <time>2019-07-16T11:50:25Z</time>
      </trkpt>
      <trkpt lat="48.3327" lon="-1.6374">
        <ele>95.1</ele>
        <time>2019-07-16T11:50:26Z</time>
      </trkpt>
      <trkpt lat="48.33275" lon="-1.63738">
        <ele>94.9</ele>
        <time>2019-07-16T11:50:27Z</time>
      </trkpt>
      <trkpt lat="48.33279" lon="-1.63736">
        <ele>95.4</ele>
        <time>2019-07-16T11:50:28Z</time>
      </trkpt>
      <trkpt lat="48.33284" lon="-1.63734">
        <ele>96.3</ele>
        <time>2019-07-16T11:50:29Z</time>
      </trkpt>
      <trkpt lat="48.33288" lon="-1.63731">
        <ele>96.8</ele>
        <time>2019-07-16T11:50:30Z</time>
      </trkpt>
      <trkpt lat="48.33292" lon="-1.63728">
        <ele>97.1</ele>
        <time>2019-07-16T11:50:31Z</time>
      </trkpt>
      <trkpt lat="48.33297" lon="-1.63725">
        <ele>97.5</ele>
        <time>2019-07-16T11:50:32Z</time>
      </trkpt>
      <trkpt lat="48.33302" lon="-1.63722">
        <ele>97.6</ele>
        <time>2019-07-16T11:50:33Z</time>
      </trkpt>
      <trkpt lat="48.33308" lon="-1.63717">
        <ele>97.4</ele>
        <time>2019-07-16T11:50:34Z</time>
      </trkpt>
      <trkpt lat="48.33313" lon="-1.63713">
        <ele>96.9</ele>
        <time>2019-07-16T11:50:35Z</time>
      </trkpt>
      <trkpt lat="48.33318" lon="-1.63708">
        <ele>96.5</ele>
        <time>2019-07-16T11:50:36Z</time>
      </trkpt>
      <trkpt lat="48.33323" lon="-1.63703">
        <ele>96.2</ele>
        <time>2019-07-16T11:50:37Z</time>
      </trkpt>
      <trkpt lat="48.33329" lon="-1.63698">
        <ele>96.1</ele>
        <time>2019-07-16T11:50:38Z</time>
      </trkpt>
      <trkpt lat="48.33335" lon="-1.63692">
        <ele>96.3</ele>
        <time>2019-07-16T11:50:39Z</time>
      </trkpt>
      <trkpt lat="48.33341" lon="-1.63686">
        <ele>96.6</ele>
        <time>2019-07-16T11:50:40Z</time>
      </trkpt>
      <trkpt lat="48.33346" lon="-1.6368">
        <ele>96.6</ele>
        <time>2019-07-16T11:50:41Z</time>
      </trkpt>
      <trkpt lat="48.33352" lon="-1.63675">
        <ele>96.2</ele>
        <time>2019-07-16T11:50:42Z</time>
      </trkpt>
      <trkpt lat="48.33358" lon="-1.63669">
        <ele>96.1</ele>
        <time>2019-07-16T11:50:43Z</time>
      </trkpt>
      <trkpt lat="48.33365" lon="-1.63663">
        <ele>96.1</ele>
        <time>2019-07-16T11:50:44Z</time>
      </trkpt>
      <trkpt lat="48.33371" lon="-1.63657">
        <ele>96</ele>
        <time>2019-07-16T11:50:45Z</time>
      </trkpt>
      <trkpt lat="48.33378" lon="-1.63652">
        <ele>95.2</ele>
        <time>2019-07-16T11:50:46Z</time>
      </trkpt>
      <trkpt lat="48.33386" lon="-1.63647">
        <ele>94.4</ele>
        <time>2019-07-16T11:50:47Z</time>
      </trkpt>
      <trkpt lat="48.33393" lon="-1.63643">
        <ele>93.8</ele>
        <time>2019-07-16T11:50:48Z</time>
      </trkpt>
      <trkpt lat="48.334" lon="-1.63639">
        <ele>92.9</ele>
        <time>2019-07-16T11:50:49Z</time>
      </trkpt>
      <trkpt lat="48.33408" lon="-1.63634">
        <ele>92.2</ele>
        <time>2019-07-16T11:50:50Z</time>
      </trkpt>
      <trkpt lat="48.33414" lon="-1.63629">
        <ele>92.1</ele>
        <time>2019-07-16T11:50:51Z</time>
      </trkpt>
      <trkpt lat="48.33421" lon="-1.63624">
        <ele>92.1</ele>
        <time>2019-07-16T11:50:52Z</time>
      </trkpt>
      <trkpt lat="48.33428" lon="-1.63619">
        <ele>91.9</ele>
        <time>2019-07-16T11:50:53Z</time>
      </trkpt>
      <trkpt lat="48.33435" lon="-1.63613">
        <ele>91.5</ele>
        <time>2019-07-16T11:50:54Z</time>
      </trkpt>
      <trkpt lat="48.33443" lon="-1.63606">
        <ele>91.3</ele>
        <time>2019-07-16T11:50:55Z</time>
      </trkpt>
      <trkpt lat="48.33451" lon="-1.636">
        <ele>90.7</ele>
        <time>2019-07-16T11:50:56Z</time>
      </trkpt>
      <trkpt lat="48.33458" lon="-1.63595">
        <ele>90.2</ele>
        <time>2019-07-16T11:50:57Z</time>
      </trkpt>
      <trkpt lat="48.33466" lon="-1.63588">
        <ele>89.5</ele>
        <time>2019-07-16T11:50:58Z</time>
      </trkpt>
      <trkpt lat="48.33473" lon="-1.63582">
        <ele>88.5</ele>
        <time>2019-07-16T11:50:59Z</time>
      </trkpt>
      <trkpt lat="48.33481" lon="-1.63576">
        <ele>87.4</ele>
        <time>2019-07-16T11:51:00Z</time>
      </trkpt>
      <trkpt lat="48.33489" lon="-1.63569">
        <ele>85.6</ele>
        <time>2019-07-16T11:51:01Z</time>
      </trkpt>
      <trkpt lat="48.33496" lon="-1.63564">
        <ele>84.8</ele>
        <time>2019-07-16T11:51:02Z</time>
      </trkpt>
      <trkpt lat="48.33503" lon="-1.63559">
        <ele>83.9</ele>
        <time>2019-07-16T11:51:03Z</time>
      </trkpt>
      <trkpt lat="48.33509" lon="-1.63553">
        <ele>83.4</ele>
        <time>2019-07-16T11:51:04Z</time>
      </trkpt>
      <trkpt lat="48.33516" lon="-1.63549">
        <ele>82.8</ele>
        <time>2019-07-16T11:51:05Z</time>
      </trkpt>
      <trkpt lat="48.33522" lon="-1.63544">
        <ele>82.2</ele>
        <time>2019-07-16T11:51:06Z</time>
      </trkpt>
      <trkpt lat="48.33528" lon="-1.6354">
        <ele>81.7</ele>
        <time>2019-07-16T11:51:07Z</time>
      </trkpt>
      <trkpt lat="48.33534" lon="-1.63535">
        <ele>81.3</ele>
        <time>2019-07-16T11:51:08Z</time>
      </trkpt>
      <trkpt lat="48.33539" lon="-1.63532">
        <ele>80.9</ele>
        <time>2019-07-16T11:51:09Z</time>
      </trkpt>
      <trkpt lat="48.33544" lon="-1.63528">
        <ele>80.5</ele>
        <time>2019-07-16T11:51:10Z</time>
      </trkpt>
      <trkpt lat="48.33549" lon="-1.63524">
        <ele>80.1</ele>
        <time>2019-07-16T11:51:11Z</time>
      </trkpt>
      <trkpt lat="48.33554" lon="-1.6352">
        <ele>79.6</ele>
        <time>2019-07-16T11:51:12Z</time>
      </trkpt>
      <trkpt lat="48.33558" lon="-1.63517">
        <ele>79.7</ele>
        <time>2019-07-16T11:51:13Z</time>
      </trkpt>
      <trkpt lat="48.33562" lon="-1.63514">
        <ele>79.7</ele>
        <time>2019-07-16T11:51:14Z</time>
      </trkpt>
      <trkpt lat="48.33567" lon="-1.63511">
        <ele>79.6</ele>
        <time>2019-07-16T11:51:15Z</time>
      </trkpt>
      <trkpt lat="48.33571" lon="-1.63508">
        <ele>79.5</ele>
        <time>2019-07-16T11:51:16Z</time>
      </trkpt>
      <trkpt lat="48.33575" lon="-1.63505">
        <ele>79.7</ele>
        <time>2019-07-16T11:51:17Z</time>
      </trkpt>
      <trkpt lat="48.33579" lon="-1.63503">
        <ele>79.7</ele>
        <time>2019-07-16T11:51:18Z</time>
      </trkpt>
      <trkpt lat="48.33584" lon="-1.63499">
        <ele>79.9</ele>
        <time>2019-07-16T11:51:19Z</time>
      </trkpt>
      <trkpt lat="48.33588" lon="-1.63494">
        <ele>80.1</ele>
        <time>2019-07-16T11:51:20Z</time>
      </trkpt>
      <trkpt lat="48.33593" lon="-1.6349">
        <ele>80.5</ele>
        <time>2019-07-16T11:51:21Z</time>
      </trkpt>
      <trkpt lat="48.33597" lon="-1.63486">
        <ele>80.9</ele>
        <time>2019-07-16T11:51:22Z</time>
      </trkpt>
      <trkpt lat="48.33602" lon="-1.63483">
        <ele>80.9</ele>
        <time>2019-07-16T11:51:23Z</time>
      </trkpt>
      <trkpt lat="48.33606" lon="-1.6348">
        <ele>81</ele>
        <time>2019-07-16T11:51:24Z</time>
      </trkpt>
      <trkpt lat="48.3361" lon="-1.63476">
        <ele>81.3</ele>
        <time>2019-07-16T11:51:25Z</time>
      </trkpt>
      <trkpt lat="48.33615" lon="-1.63473">
        <ele>81.7</ele>
        <time>2019-07-16T11:51:26Z</time>
      </trkpt>
      <trkpt lat="48.33619" lon="-1.63469">
        <ele>82.5</ele>
        <time>2019-07-16T11:51:27Z</time>
      </trkpt>
      <trkpt lat="48.33624" lon="-1.63466">
        <ele>83</ele>
        <time>2019-07-16T11:51:28Z</time>
      </trkpt>
      <trkpt lat="48.33628" lon="-1.63463">
        <ele>83</ele>
        <time>2019-07-16T11:51:29Z</time>
      </trkpt>
      <trkpt lat="48.33632" lon="-1.6346">
        <ele>82.9</ele>
        <time>2019-07-16T11:51:30Z</time>
      </trkpt>
      <trkpt lat="48.33636" lon="-1.63457">
        <ele>82.6</ele>
        <time>2019-07-16T11:51:31Z</time>
      </trkpt>
      <trkpt lat="48.3364" lon="-1.63454">
        <ele>82.3</ele>
        <time>2019-07-16T11:51:32Z</time>
      </trkpt>
      <trkpt lat="48.33643" lon="-1.63451">
        <ele>82.5</ele>
        <time>2019-07-16T11:51:33Z</time>
      </trkpt>
      <trkpt lat="48.33647" lon="-1.63448">
        <ele>82.4</ele>
        <time>2019-07-16T11:51:34Z</time>
      </trkpt>
      <trkpt lat="48.33651" lon="-1.63445">
        <ele>82.7</ele>
        <time>2019-07-16T11:51:35Z</time>
      </trkpt>
      <trkpt lat="48.33656" lon="-1.63442">
        <ele>82.7</ele>
        <time>2019-07-16T11:51:36Z</time>
      </trkpt>
      <trkpt lat="48.3366" lon="-1.63439">
        <ele>82.4</ele>
        <time>2019-07-16T11:51:37Z</time>
      </trkpt>
      <trkpt lat="48.33664" lon="-1.63436">
        <ele>82.2</ele>
        <time>2019-07-16T11:51:38Z</time>
      </trkpt>
      <trkpt lat="48.33667" lon="-1.63434">
        <ele>81.8</ele>
        <time>2019-07-16T11:51:39Z</time>
      </trkpt>
      <trkpt lat="48.33671" lon="-1.63432">
        <ele>81.6</ele>
        <time>2019-07-16T11:51:40Z</time>
      </trkpt>
      <trkpt lat="48.33674" lon="-1.63429">
        <ele>81.5</ele>
        <time>2019-07-16T11:51:41Z</time>
      </trkpt>
      <trkpt lat="48.33678" lon="-1.63427">
        <ele>81.5</ele>
        <time>2019-07-16T11:51:42Z</time>
      </trkpt>
      <trkpt lat="48.33681" lon="-1.63424">
        <ele>81.7</ele>
        <time>2019-07-16T11:51:43Z</time>
      </trkpt>
      <trkpt lat="48.33685" lon="-1.63421">
        <ele>81.9</ele>
        <time>2019-07-16T11:51:44Z</time>
      </trkpt>
      <trkpt lat="48.33688" lon="-1.63419">
        <ele>82.2</ele>
        <time>2019-07-16T11:51:45Z</time>
      </trkpt>
      <trkpt lat="48.33692" lon="-1.63416">
        <ele>82.6</ele>
        <time>2019-07-16T11:51:46Z</time>
      </trkpt>
      <trkpt lat="48.33695" lon="-1.63413">
        <ele>82.9</ele>
        <time>2019-07-16T11:51:47Z</time>
      </trkpt>
      <trkpt lat="48.33698" lon="-1.6341">
        <ele>83.1</ele>
        <time>2019-07-16T11:51:48Z</time>
      </trkpt>
      <trkpt lat="48.33702" lon="-1.63407">
        <ele>83.1</ele>
        <time>2019-07-16T11:51:49Z</time>
      </trkpt>
      <trkpt lat="48.33705" lon="-1.63405">
        <ele>83.3</ele>
        <time>2019-07-16T11:51:50Z</time>
      </trkpt>
      <trkpt lat="48.33708" lon="-1.63402">
        <ele>83.4</ele>
        <time>2019-07-16T11:51:51Z</time>
      </trkpt>
      <trkpt lat="48.33712" lon="-1.63399">
        <ele>83.8</ele>
        <time>2019-07-16T11:51:52Z</time>
      </trkpt>
      <trkpt lat="48.33715" lon="-1.63396">
        <ele>84.1</ele>
        <time>2019-07-16T11:51:53Z</time>
      </trkpt>
      <trkpt lat="48.33719" lon="-1.63393">
        <ele>84.5</ele>
        <time>2019-07-16T11:51:54Z</time>
      </trkpt>
      <trkpt lat="48.33722" lon="-1.6339">
        <ele>84.9</ele>
        <time>2019-07-16T11:51:55Z</time>
      </trkpt>
      <trkpt lat="48.33727" lon="-1.63387">
        <ele>84.6</ele>
        <time>2019-07-16T11:51:56Z</time>
      </trkpt>
      <trkpt lat="48.3373" lon="-1.63383">
        <ele>84.2</ele>
        <time>2019-07-16T11:51:57Z</time>
      </trkpt>
      <trkpt lat="48.33735" lon="-1.6338">
        <ele>84.4</ele>
        <time>2019-07-16T11:51:58Z</time>
      </trkpt>
      <trkpt lat="48.33738" lon="-1.63377">
        <ele>84.2</ele>
        <time>2019-07-16T11:51:59Z</time>
      </trkpt>
      <trkpt lat="48.33743" lon="-1.63374">
        <ele>84.3</ele>
        <time>2019-07-16T11:52:00Z</time>
      </trkpt>
      <trkpt lat="48.33746" lon="-1.63372">
        <ele>83.7</ele>
        <time>2019-07-16T11:52:01Z</time>
      </trkpt>
      <trkpt lat="48.3375" lon="-1.63369">
        <ele>83.4</ele>
        <time>2019-07-16T11:52:02Z</time>
      </trkpt>
      <trkpt lat="48.33754" lon="-1.63366">
        <ele>83.4</ele>
        <time>2019-07-16T11:52:03Z</time>
      </trkpt>
      <trkpt lat="48.33758" lon="-1.63363">
        <ele>82.9</ele>
        <time>2019-07-16T11:52:04Z</time>
      </trkpt>
      <trkpt lat="48.33762" lon="-1.6336">
        <ele>82.9</ele>
        <time>2019-07-16T11:52:05Z</time>
      </trkpt>
      <trkpt lat="48.33766" lon="-1.63357">
        <ele>83</ele>
        <time>2019-07-16T11:52:06Z</time>
      </trkpt>
      <trkpt lat="48.3377" lon="-1.63354">
        <ele>83.4</ele>
        <time>2019-07-16T11:52:07Z</time>
      </trkpt>
      <trkpt lat="48.33774" lon="-1.63351">
        <ele>83.7</ele>
        <time>2019-07-16T11:52:08Z</time>
      </trkpt>
      <trkpt lat="48.33778" lon="-1.63347">
        <ele>83.5</ele>
        <time>2019-07-16T11:52:09Z</time>
      </trkpt>
      <trkpt lat="48.33781" lon="-1.63345">
        <ele>83.6</ele>
        <time>2019-07-16T11:52:10Z</time>
      </trkpt>
      <trkpt lat="48.33786" lon="-1.63341">
        <ele>83.7</ele>
        <time>2019-07-16T11:52:11Z</time>
      </trkpt>
      <trkpt lat="48.3379" lon="-1.63338">
        <ele>83.9</ele>
        <time>2019-07-16T11:52:12Z</time>
      </trkpt>
      <trkpt lat="48.33794" lon="-1.63335">
        <ele>84</ele>
        <time>2019-07-16T11:52:13Z</time>
      </trkpt>
      <trkpt lat="48.33799" lon="-1.63331">
        <ele>84</ele>
        <time>2019-07-16T11:52:14Z</time>
      </trkpt>
      <trkpt lat="48.33803" lon="-1.63328">
        <ele>83.8</ele>
        <time>2019-07-16T11:52:15Z</time>
      </trkpt>
      <trkpt lat="48.33807" lon="-1.63324">
        <ele>83.9</ele>
        <time>2019-07-16T11:52:16Z</time>
      </trkpt>
      <trkpt lat="48.33811" lon="-1.63321">
        <ele>83.6</ele>
        <time>2019-07-16T11:52:17Z</time>
      </trkpt>
      <trkpt lat="48.33816" lon="-1.63318">
        <ele>83.8</ele>
        <time>2019-07-16T11:52:18Z</time>
      </trkpt>
      <trkpt lat="48.3382" lon="-1.63315">
        <ele>83.8</ele>
        <time>2019-07-16T11:52:19Z</time>
      </trkpt>
      <trkpt lat="48.33825" lon="-1.63312">
        <ele>83.7</ele>
        <time>2019-07-16T11:52:20Z</time>
      </trkpt>
      <trkpt lat="48.33829" lon="-1.63309">
        <ele>83.5</ele>
        <time>2019-07-16T11:52:21Z</time>
      </trkpt>
      <trkpt lat="48.33833" lon="-1.63306">
        <ele>82.7</ele>
        <time>2019-07-16T11:52:22Z</time>
      </trkpt>
      <trkpt lat="48.33838" lon="-1.63304">
        <ele>82.5</ele>
        <time>2019-07-16T11:52:23Z</time>
      </trkpt>
      <trkpt lat="48.33842" lon="-1.63302">
        <ele>82.7</ele>
        <time>2019-07-16T11:52:24Z</time>
      </trkpt>
      <trkpt lat="48.33847" lon="-1.633">
        <ele>82.4</ele>
        <time>2019-07-16T11:52:25Z</time>
      </trkpt>
      <trkpt lat="48.33852" lon="-1.63297">
        <ele>82.4</ele>
        <time>2019-07-16T11:52:26Z</time>
      </trkpt>
      <trkpt lat="48.33856" lon="-1.63295">
        <ele>82</ele>
        <time>2019-07-16T11:52:27Z</time>
      </trkpt>
      <trkpt lat="48.3386" lon="-1.63294">
        <ele>82.1</ele>
        <time>2019-07-16T11:52:28Z</time>
      </trkpt>
      <trkpt lat="48.33864" lon="-1.63292">
        <ele>82.7</ele>
        <time>2019-07-16T11:52:29Z</time>
      </trkpt>
      <trkpt lat="48.33869" lon="-1.6329">
        <ele>82.8</ele>
        <time>2019-07-16T11:52:30Z</time>
      </trkpt>
      <trkpt lat="48.33873" lon="-1.63289">
        <ele>82.8</ele>
        <time>2019-07-16T11:52:31Z</time>
      </trkpt>
      <trkpt lat="48.33877" lon="-1.63288">
        <ele>82.8</ele>
        <time>2019-07-16T11:52:32Z</time>
      </trkpt>
      <trkpt lat="48.33881" lon="-1.63287">
        <ele>82.8</ele>
        <time>2019-07-16T11:52:33Z</time>
      </trkpt>
      <trkpt lat="48.33886" lon="-1.63285">
        <ele>83</ele>
        <time>2019-07-16T11:52:34Z</time>
      </trkpt>
      <trkpt lat="48.33891" lon="-1.63285">
        <ele>83.4</ele>
        <time>2019-07-16T11:52:35Z</time>
      </trkpt>
      <trkpt lat="48.33896" lon="-1.63284">
        <ele>83.8</ele>
        <time>2019-07-16T11:52:36Z</time>
      </trkpt>
      <trkpt lat="48.339" lon="-1.63284">
        <ele>84</ele>
        <time>2019-07-16T11:52:37Z</time>
      </trkpt>
      <trkpt lat="48.33905" lon="-1.63285">
        <ele>84.4</ele>
        <time>2019-07-16T11:52:38Z</time>
      </trkpt>
      <trkpt lat="48.3391" lon="-1.63283">
        <ele>85</ele>
        <time>2019-07-16T11:52:39Z</time>
      </trkpt>
      <trkpt lat="48.33915" lon="-1.63282">
        <ele>85.3</ele>
        <time>2019-07-16T11:52:40Z</time>
      </trkpt>
      <trkpt lat="48.3392" lon="-1.63282">
        <ele>84.9</ele>
        <time>2019-07-16T11:52:41Z</time>
      </trkpt>
      <trkpt lat="48.33924" lon="-1.63281">
        <ele>84.8</ele>
        <time>2019-07-16T11:52:42Z</time>
      </trkpt>
      <trkpt lat="48.33929" lon="-1.6328">
        <ele>84.8</ele>
        <time>2019-07-16T11:52:43Z</time>
      </trkpt>
      <trkpt lat="48.33933" lon="-1.63279">
        <ele>84.8</ele>
        <time>2019-07-16T11:52:44Z</time>
      </trkpt>
      <trkpt lat="48.33938" lon="-1.63278">
        <ele>84.7</ele>
        <time>2019-07-16T11:52:45Z</time>
      </trkpt>
      <trkpt lat="48.33942" lon="-1.63277">
        <ele>84.5</ele>
        <time>2019-07-16T11:52:46Z</time>
      </trkpt>
      <trkpt lat="48.33946" lon="-1.63276">
        <ele>84.5</ele>
        <time>2019-07-16T11:52:47Z</time>
      </trkpt>
      <trkpt lat="48.33951" lon="-1.63275">
        <ele>84.2</ele>
        <time>2019-07-16T11:52:48Z</time>
      </trkpt>
      <trkpt lat="48.33955" lon="-1.63274">
        <ele>84.1</ele>
        <time>2019-07-16T11:52:49Z</time>
      </trkpt>
      <trkpt lat="48.3396" lon="-1.63273">
        <ele>83.6</ele>
        <time>2019-07-16T11:52:50Z</time>
      </trkpt>
      <trkpt lat="48.33965" lon="-1.63272">
        <ele>83.8</ele>
        <time>2019-07-16T11:52:51Z</time>
      </trkpt>
      <trkpt lat="48.3397" lon="-1.63271">
        <ele>83.9</ele>
        <time>2019-07-16T11:52:52Z</time>
      </trkpt>
      <trkpt lat="48.33974" lon="-1.63271">
        <ele>83.6</ele>
        <time>2019-07-16T11:52:53Z</time>
      </trkpt>
      <trkpt lat="48.33979" lon="-1.6327">
        <ele>83.6</ele>
        <time>2019-07-16T11:52:54Z</time>
      </trkpt>
      <trkpt lat="48.33983" lon="-1.63269">
        <ele>83.3</ele>
        <time>2019-07-16T11:52:55Z</time>
      </trkpt>
      <trkpt lat="48.33989" lon="-1.63269">
        <ele>83.1</ele>
        <time>2019-07-16T11:52:56Z</time>
      </trkpt>
      <trkpt lat="48.33994" lon="-1.63268">
        <ele>82.6</ele>
        <time>2019-07-16T11:52:57Z</time>
      </trkpt>
      <trkpt lat="48.33999" lon="-1.63267">
        <ele>82.3</ele>
        <time>2019-07-16T11:52:58Z</time>
      </trkpt>
      <trkpt lat="48.34004" lon="-1.63266">
        <ele>82</ele>
        <time>2019-07-16T11:52:59Z</time>
      </trkpt>
      <trkpt lat="48.3401" lon="-1.63265">
        <ele>81.4</ele>
        <time>2019-07-16T11:53:00Z</time>
      </trkpt>
      <trkpt lat="48.34015" lon="-1.63264">
        <ele>81.2</ele>
        <time>2019-07-16T11:53:01Z</time>
      </trkpt>
      <trkpt lat="48.3402" lon="-1.63264">
        <ele>80.8</ele>
        <time>2019-07-16T11:53:02Z</time>
      </trkpt>
      <trkpt lat="48.34025" lon="-1.63263">
        <ele>80.3</ele>
        <time>2019-07-16T11:53:03Z</time>
      </trkpt>
      <trkpt lat="48.34031" lon="-1.63261">
        <ele>80.2</ele>
        <time>2019-07-16T11:53:04Z</time>
      </trkpt>
      <trkpt lat="48.34036" lon="-1.6326">
        <ele>79.7</ele>
        <time>2019-07-16T11:53:05Z</time>
      </trkpt>
      <trkpt lat="48.34042" lon="-1.63259">
        <ele>79.4</ele>
        <time>2019-07-16T11:53:06Z</time>
      </trkpt>
      <trkpt lat="48.34046" lon="-1.63258">
        <ele>78.5</ele>
        <time>2019-07-16T11:53:07Z</time>
      </trkpt>
      <trkpt lat="48.34052" lon="-1.63257">
        <ele>77.9</ele>
        <time>2019-07-16T11:53:08Z</time>
      </trkpt>
      <trkpt lat="48.34057" lon="-1.63255">
        <ele>77.4</ele>
        <time>2019-07-16T11:53:09Z</time>
      </trkpt>
      <trkpt lat="48.34062" lon="-1.63254">
        <ele>76.9</ele>
        <time>2019-07-16T11:53:10Z</time>
      </trkpt>
      <trkpt lat="48.34066" lon="-1.63254">
        <ele>76.4</ele>
        <time>2019-07-16T11:53:11Z</time>
      </trkpt>
      <trkpt lat="48.34071" lon="-1.63253">
        <ele>75.8</ele>
        <time>2019-07-16T11:53:12Z</time>
      </trkpt>
      <trkpt lat="48.34077" lon="-1.63253">
        <ele>75.5</ele>
        <time>2019-07-16T11:53:13Z</time>
      </trkpt>
      <trkpt lat="48.34082" lon="-1.63253">
        <ele>75.2</ele>
        <time>2019-07-16T11:53:14Z</time>
      </trkpt>
      <trkpt lat="48.34087" lon="-1.63253">
        <ele>74.5</ele>
        <time>2019-07-16T11:53:15Z</time>
      </trkpt>
      <trkpt lat="48.34093" lon="-1.63252">
        <ele>74.1</ele>
        <time>2019-07-16T11:53:16Z</time>
      </trkpt>
      <trkpt lat="48.34098" lon="-1.63251">
        <ele>73.9</ele>
        <time>2019-07-16T11:53:17Z</time>
      </trkpt>
      <trkpt lat="48.34104" lon="-1.6325">
        <ele>73.7</ele>
        <time>2019-07-16T11:53:18Z</time>
      </trkpt>
      <trkpt lat="48.3411" lon="-1.63249">
        <ele>73.6</ele>
        <time>2019-07-16T11:53:19Z</time>
      </trkpt>
      <trkpt lat="48.34115" lon="-1.63248">
        <ele>73.4</ele>
        <time>2019-07-16T11:53:20Z</time>
      </trkpt>
      <trkpt lat="48.34121" lon="-1.63247">
        <ele>73</ele>
        <time>2019-07-16T11:53:21Z</time>
      </trkpt>
      <trkpt lat="48.34126" lon="-1.63246">
        <ele>72.7</ele>
        <time>2019-07-16T11:53:22Z</time>
      </trkpt>
      <trkpt lat="48.34131" lon="-1.63245">
        <ele>72.5</ele>
        <time>2019-07-16T11:53:23Z</time>
      </trkpt>
      <trkpt lat="48.34136" lon="-1.63245">
        <ele>72.3</ele>
        <time>2019-07-16T11:53:24Z</time>
      </trkpt>
      <trkpt lat="48.34141" lon="-1.63244">
        <ele>72.3</ele>
        <time>2019-07-16T11:53:25Z</time>
      </trkpt>
      <trkpt lat="48.34146" lon="-1.63243">
        <ele>72.3</ele>
        <time>2019-07-16T11:53:26Z</time>
      </trkpt>
      <trkpt lat="48.34151" lon="-1.63243">
        <ele>72.4</ele>
        <time>2019-07-16T11:53:27Z</time>
      </trkpt>
      <trkpt lat="48.34156" lon="-1.63243">
        <ele>72.4</ele>
        <time>2019-07-16T11:53:28Z</time>
      </trkpt>
      <trkpt lat="48.3416" lon="-1.63242">
        <ele>72.5</ele>
        <time>2019-07-16T11:53:29Z</time>
      </trkpt>
      <trkpt lat="48.34165" lon="-1.63242">
        <ele>72.6</ele>
        <time>2019-07-16T11:53:30Z</time>
      </trkpt>
      <trkpt lat="48.3417" lon="-1.63241">
        <ele>73</ele>
        <time>2019-07-16T11:53:31Z</time>
      </trkpt>
      <trkpt lat="48.34175" lon="-1.63241">
        <ele>72.6</ele>
        <time>2019-07-16T11:53:32Z</time>
      </trkpt>
      <trkpt lat="48.3418" lon="-1.6324">
        <ele>73</ele>
        <time>2019-07-16T11:53:33Z</time>
      </trkpt>
      <trkpt lat="48.34185" lon="-1.63238">
        <ele>73.8</ele>
        <time>2019-07-16T11:53:34Z</time>
      </trkpt>
      <trkpt lat="48.3419" lon="-1.63238">
        <ele>73.9</ele>
        <time>2019-07-16T11:53:35Z</time>
      </trkpt>
      <trkpt lat="48.34195" lon="-1.63238">
        <ele>74.3</ele>
        <time>2019-07-16T11:53:36Z</time>
      </trkpt>
      <trkpt lat="48.342" lon="-1.63237">
        <ele>74.7</ele>
        <time>2019-07-16T11:53:37Z</time>
      </trkpt>
      <trkpt lat="48.34205" lon="-1.63237">
        <ele>74.9</ele>
        <time>2019-07-16T11:53:38Z</time>
      </trkpt>
      <trkpt lat="48.3421" lon="-1.63236">
        <ele>75.6</ele>
        <time>2019-07-16T11:53:39Z</time>
      </trkpt>
      <trkpt lat="48.34215" lon="-1.63235">
        <ele>76.2</ele>
        <time>2019-07-16T11:53:40Z</time>
      </trkpt>
      <trkpt lat="48.3422" lon="-1.63235">
        <ele>76.5</ele>
        <time>2019-07-16T11:53:41Z</time>
      </trkpt>
      <trkpt lat="48.34225" lon="-1.63234">
        <ele>76.7</ele>
        <time>2019-07-16T11:53:42Z</time>
      </trkpt>
      <trkpt lat="48.3423" lon="-1.63233">
        <ele>76.9</ele>
        <time>2019-07-16T11:53:43Z</time>
      </trkpt>
      <trkpt lat="48.34235" lon="-1.63233">
        <ele>77</ele>
        <time>2019-07-16T11:53:44Z</time>
      </trkpt>
      <trkpt lat="48.3424" lon="-1.63233">
        <ele>77.1</ele>
        <time>2019-07-16T11:53:45Z</time>
      </trkpt>
      <trkpt lat="48.34245" lon="-1.63232">
        <ele>77.4</ele>
        <time>2019-07-16T11:53:46Z</time>
      </trkpt>
      <trkpt lat="48.3425" lon="-1.63232">
        <ele>77.3</ele>
        <time>2019-07-16T11:53:47Z</time>
      </trkpt>
      <trkpt lat="48.34254" lon="-1.63232">
        <ele>76.7</ele>
        <time>2019-07-16T11:53:48Z</time>
      </trkpt>
      <trkpt lat="48.34259" lon="-1.63232">
        <ele>76.4</ele>
        <time>2019-07-16T11:53:49Z</time>
      </trkpt>
      <trkpt lat="48.34264" lon="-1.63232">
        <ele>76.2</ele>
        <time>2019-07-16T11:53:50Z</time>
      </trkpt>
      <trkpt lat="48.34269" lon="-1.63231">
        <ele>75.9</ele>
        <time>2019-07-16T11:53:51Z</time>
      </trkpt>
      <trkpt lat="48.34273" lon="-1.63231">
        <ele>75.4</ele>
        <time>2019-07-16T11:53:52Z</time>
      </trkpt>
      <trkpt lat="48.34279" lon="-1.63231">
        <ele>75.5</ele>
        <time>2019-07-16T11:53:53Z</time>
      </trkpt>
      <trkpt lat="48.34283" lon="-1.6323">
        <ele>75.7</ele>
        <time>2019-07-16T11:53:54Z</time>
      </trkpt>
      <trkpt lat="48.34288" lon="-1.6323">
        <ele>76</ele>
        <time>2019-07-16T11:53:55Z</time>
      </trkpt>
      <trkpt lat="48.34293" lon="-1.6323">
        <ele>76.3</ele>
        <time>2019-07-16T11:53:56Z</time>
      </trkpt>
      <trkpt lat="48.34298" lon="-1.63229">
        <ele>76.6</ele>
        <time>2019-07-16T11:53:57Z</time>
      </trkpt>
      <trkpt lat="48.34303" lon="-1.63228">
        <ele>76.9</ele>
        <time>2019-07-16T11:53:58Z</time>
      </trkpt>
      <trkpt lat="48.34308" lon="-1.63227">
        <ele>76.7</ele>
        <time>2019-07-16T11:53:59Z</time>
      </trkpt>
      <trkpt lat="48.34312" lon="-1.63227">
        <ele>76.5</ele>
        <time>2019-07-16T11:54:00Z</time>
      </trkpt>
      <trkpt lat="48.34317" lon="-1.63228">
        <ele>75.9</ele>
        <time>2019-07-16T11:54:01Z</time>
      </trkpt>
      <trkpt lat="48.34322" lon="-1.63228">
        <ele>75.5</ele>
        <time>2019-07-16T11:54:02Z</time>
      </trkpt>
      <trkpt lat="48.34327" lon="-1.63227">
        <ele>74.9</ele>
        <time>2019-07-16T11:54:03Z</time>
      </trkpt>
      <trkpt lat="48.34332" lon="-1.63227">
        <ele>74.3</ele>
        <time>2019-07-16T11:54:04Z</time>
      </trkpt>
      <trkpt lat="48.34337" lon="-1.63227">
        <ele>73.9</ele>
        <time>2019-07-16T11:54:05Z</time>
      </trkpt>
      <trkpt lat="48.34342" lon="-1.63227">
        <ele>73.7</ele>
        <time>2019-07-16T11:54:06Z</time>
      </trkpt>
      <trkpt lat="48.34346" lon="-1.63227">
        <ele>73.7</ele>
        <time>2019-07-16T11:54:07Z</time>
      </trkpt>
      <trkpt lat="48.34356" lon="-1.63226">
        <ele>73.6</ele>
        <time>2019-07-16T11:54:09Z</time>
      </trkpt>
      <trkpt lat="48.34362" lon="-1.63225">
        <ele>73.4</ele>
        <time>2019-07-16T11:54:10Z</time>
      </trkpt>
      <trkpt lat="48.34367" lon="-1.63225">
        <ele>73.3</ele>
        <time>2019-07-16T11:54:11Z</time>
      </trkpt>
      <trkpt lat="48.34373" lon="-1.63225">
        <ele>73.6</ele>
        <time>2019-07-16T11:54:12Z</time>
      </trkpt>
      <trkpt lat="48.34378" lon="-1.63226">
        <ele>73.5</ele>
        <time>2019-07-16T11:54:13Z</time>
      </trkpt>
      <trkpt lat="48.34384" lon="-1.63227">
        <ele>73.3</ele>
        <time>2019-07-16T11:54:14Z</time>
      </trkpt>
      <trkpt lat="48.34389" lon="-1.63227">
        <ele>73.1</ele>
        <time>2019-07-16T11:54:15Z</time>
      </trkpt>
      <trkpt lat="48.34395" lon="-1.63227">
        <ele>73</ele>
        <time>2019-07-16T11:54:16Z</time>
      </trkpt>
      <trkpt lat="48.344" lon="-1.63228">
        <ele>72.8</ele>
        <time>2019-07-16T11:54:17Z</time>
      </trkpt>
      <trkpt lat="48.34405" lon="-1.63228">
        <ele>72.4</ele>
        <time>2019-07-16T11:54:18Z</time>
      </trkpt>
      <trkpt lat="48.34411" lon="-1.63228">
        <ele>72.3</ele>
        <time>2019-07-16T11:54:19Z</time>
      </trkpt>
      <trkpt lat="48.34415" lon="-1.63229">
        <ele>72.2</ele>
        <time>2019-07-16T11:54:20Z</time>
      </trkpt>
      <trkpt lat="48.3442" lon="-1.63229">
        <ele>72.3</ele>
        <time>2019-07-16T11:54:21Z</time>
      </trkpt>
      <trkpt lat="48.34425" lon="-1.63229">
        <ele>71.8</ele>
        <time>2019-07-16T11:54:22Z</time>
      </trkpt>
      <trkpt lat="48.3443" lon="-1.6323">
        <ele>71.4</ele>
        <time>2019-07-16T11:54:23Z</time>
      </trkpt>
      <trkpt lat="48.34435" lon="-1.6323">
        <ele>71</ele>
        <time>2019-07-16T11:54:24Z</time>
      </trkpt>
      <trkpt lat="48.34441" lon="-1.6323">
        <ele>70.8</ele>
        <time>2019-07-16T11:54:25Z</time>
      </trkpt>
      <trkpt lat="48.34446" lon="-1.6323">
        <ele>70.6</ele>
        <time>2019-07-16T11:54:26Z</time>
      </trkpt>
      <trkpt lat="48.34452" lon="-1.6323">
        <ele>70.3</ele>
        <time>2019-07-16T11:54:27Z</time>
      </trkpt>
      <trkpt lat="48.34457" lon="-1.6323">
        <ele>69.6</ele>
        <time>2019-07-16T11:54:28Z</time>
      </trkpt>
      <trkpt lat="48.34462" lon="-1.63231">
        <ele>69.1</ele>
        <time>2019-07-16T11:54:29Z</time>
      </trkpt>
      <trkpt lat="48.34467" lon="-1.63231">
        <ele>68.5</ele>
        <time>2019-07-16T11:54:30Z</time>
      </trkpt>
      <trkpt lat="48.34473" lon="-1.63231">
        <ele>68</ele>
        <time>2019-07-16T11:54:31Z</time>
      </trkpt>
      <trkpt lat="48.34478" lon="-1.63232">
        <ele>67.4</ele>
        <time>2019-07-16T11:54:32Z</time>
      </trkpt>
      <trkpt lat="48.34483" lon="-1.63232">
        <ele>66.9</ele>
        <time>2019-07-16T11:54:33Z</time>
      </trkpt>
      <trkpt lat="48.34488" lon="-1.63232">
        <ele>66.8</ele>
        <time>2019-07-16T11:54:34Z</time>
      </trkpt>
      <trkpt lat="48.34493" lon="-1.63233">
        <ele>66.3</ele>
        <time>2019-07-16T11:54:35Z</time>
      </trkpt>
      <trkpt lat="48.34498" lon="-1.63232">
        <ele>66.7</ele>
        <time>2019-07-16T11:54:36Z</time>
      </trkpt>
      <trkpt lat="48.34502" lon="-1.63232">
        <ele>67.3</ele>
        <time>2019-07-16T11:54:37Z</time>
      </trkpt>
      <trkpt lat="48.34507" lon="-1.63232">
        <ele>68</ele>
        <time>2019-07-16T11:54:38Z</time>
      </trkpt>
      <trkpt lat="48.34512" lon="-1.63232">
        <ele>68.1</ele>
        <time>2019-07-16T11:54:39Z</time>
      </trkpt>
      <trkpt lat="48.34517" lon="-1.63231">
        <ele>68.6</ele>
        <time>2019-07-16T11:54:40Z</time>
      </trkpt>
      <trkpt lat="48.34522" lon="-1.63231">
        <ele>68.9</ele>
        <time>2019-07-16T11:54:41Z</time>
      </trkpt>
      <trkpt lat="48.34526" lon="-1.63231">
        <ele>69.5</ele>
        <time>2019-07-16T11:54:42Z</time>
      </trkpt>
      <trkpt lat="48.34531" lon="-1.6323">
        <ele>70.1</ele>
        <time>2019-07-16T11:54:43Z</time>
      </trkpt>
      <trkpt lat="48.34535" lon="-1.63231">
        <ele>70</ele>
        <time>2019-07-16T11:54:44Z</time>
      </trkpt>
      <trkpt lat="48.34539" lon="-1.63232">
        <ele>69.9</ele>
        <time>2019-07-16T11:54:45Z</time>
      </trkpt>
      <trkpt lat="48.34543" lon="-1.63233">
        <ele>70.1</ele>
        <time>2019-07-16T11:54:46Z</time>
      </trkpt>
      <trkpt lat="48.34546" lon="-1.63235">
        <ele>70</ele>
        <time>2019-07-16T11:54:47Z</time>
      </trkpt>
      <trkpt lat="48.34551" lon="-1.63235">
        <ele>70.3</ele>
        <time>2019-07-16T11:54:48Z</time>
      </trkpt>
      <trkpt lat="48.34555" lon="-1.63234">
        <ele>70.4</ele>
        <time>2019-07-16T11:54:49Z</time>
      </trkpt>
      <trkpt lat="48.3456" lon="-1.63233">
        <ele>70.8</ele>
        <time>2019-07-16T11:54:50Z</time>
      </trkpt>
      <trkpt lat="48.34564" lon="-1.63232">
        <ele>71.2</ele>
        <time>2019-07-16T11:54:51Z</time>
      </trkpt>
      <trkpt lat="48.34569" lon="-1.63231">
        <ele>71.5</ele>
        <time>2019-07-16T11:54:52Z</time>
      </trkpt>
      <trkpt lat="48.34573" lon="-1.63231">
        <ele>71.8</ele>
        <time>2019-07-16T11:54:53Z</time>
      </trkpt>
      <trkpt lat="48.34578" lon="-1.6323">
        <ele>71.9</ele>
        <time>2019-07-16T11:54:54Z</time>
      </trkpt>
      <trkpt lat="48.34582" lon="-1.6323">
        <ele>72</ele>
        <time>2019-07-16T11:54:55Z</time>
      </trkpt>
      <trkpt lat="48.34586" lon="-1.63229">
        <ele>71.7</ele>
        <time>2019-07-16T11:54:56Z</time>
      </trkpt>
      <trkpt lat="48.3459" lon="-1.63228">
        <ele>71.9</ele>
        <time>2019-07-16T11:54:57Z</time>
      </trkpt>
      <trkpt lat="48.34594" lon="-1.63227">
        <ele>72.4</ele>
        <time>2019-07-16T11:54:58Z</time>
      </trkpt>
      <trkpt lat="48.34598" lon="-1.63226">
        <ele>73.3</ele>
        <time>2019-07-16T11:54:59Z</time>
      </trkpt>
      <trkpt lat="48.34602" lon="-1.63226">
        <ele>74</ele>
        <time>2019-07-16T11:55:00Z</time>
      </trkpt>
      <trkpt lat="48.34606" lon="-1.63225">
        <ele>74.5</ele>
        <time>2019-07-16T11:55:01Z</time>
      </trkpt>
      <trkpt lat="48.3461" lon="-1.63224">
        <ele>75.1</ele>
        <time>2019-07-16T11:55:02Z</time>
      </trkpt>
      <trkpt lat="48.34614" lon="-1.63223">
        <ele>76.1</ele>
        <time>2019-07-16T11:55:03Z</time>
      </trkpt>
      <trkpt lat="48.34618" lon="-1.63222">
        <ele>76.6</ele>
        <time>2019-07-16T11:55:04Z</time>
      </trkpt>
      <trkpt lat="48.34622" lon="-1.63222">
        <ele>76.6</ele>
        <time>2019-07-16T11:55:05Z</time>
      </trkpt>
      <trkpt lat="48.34626" lon="-1.63221">
        <ele>76.4</ele>
        <time>2019-07-16T11:55:06Z</time>
      </trkpt>
      <trkpt lat="48.34629" lon="-1.6322">
        <ele>76.1</ele>
        <time>2019-07-16T11:55:07Z</time>
      </trkpt>
      <trkpt lat="48.34633" lon="-1.6322">
        <ele>75.4</ele>
        <time>2019-07-16T11:55:08Z</time>
      </trkpt>
      <trkpt lat="48.34637" lon="-1.63219">
        <ele>74.8</ele>
        <time>2019-07-16T11:55:09Z</time>
      </trkpt>
      <trkpt lat="48.34641" lon="-1.63218">
        <ele>74.4</ele>
        <time>2019-07-16T11:55:10Z</time>
      </trkpt>
      <trkpt lat="48.34645" lon="-1.63217">
        <ele>74.5</ele>
        <time>2019-07-16T11:55:11Z</time>
      </trkpt>
      <trkpt lat="48.34649" lon="-1.63216">
        <ele>74.4</ele>
        <time>2019-07-16T11:55:12Z</time>
      </trkpt>
      <trkpt lat="48.34653" lon="-1.63215">
        <ele>74.4</ele>
        <time>2019-07-16T11:55:13Z</time>
      </trkpt>
      <trkpt lat="48.34657" lon="-1.63214">
        <ele>73.8</ele>
        <time>2019-07-16T11:55:14Z</time>
      </trkpt>
      <trkpt lat="48.34662" lon="-1.63213">
        <ele>73.5</ele>
        <time>2019-07-16T11:55:15Z</time>
      </trkpt>
      <trkpt lat="48.34666" lon="-1.63213">
        <ele>73.5</ele>
        <time>2019-07-16T11:55:16Z</time>
      </trkpt>
      <trkpt lat="48.3467" lon="-1.63212">
        <ele>74.1</ele>
        <time>2019-07-16T11:55:17Z</time>
      </trkpt>
      <trkpt lat="48.34674" lon="-1.63211">
        <ele>74.5</ele>
        <time>2019-07-16T11:55:18Z</time>
      </trkpt>
      <trkpt lat="48.34678" lon="-1.63211">
        <ele>74.6</ele>
        <time>2019-07-16T11:55:19Z</time>
      </trkpt>
      <trkpt lat="48.34682" lon="-1.6321">
        <ele>74.7</ele>
        <time>2019-07-16T11:55:20Z</time>
      </trkpt>
      <trkpt lat="48.34686" lon="-1.6321">
        <ele>74.5</ele>
        <time>2019-07-16T11:55:21Z</time>
      </trkpt>
      <trkpt lat="48.3469" lon="-1.63209">
        <ele>74.6</ele>
        <time>2019-07-16T11:55:22Z</time>
      </trkpt>
      <trkpt lat="48.34693" lon="-1.63209">
        <ele>74.4</ele>
        <time>2019-07-16T11:55:23Z</time>
      </trkpt>
      <trkpt lat="48.34697" lon="-1.63209">
        <ele>74.1</ele>
        <time>2019-07-16T11:55:24Z</time>
      </trkpt>
      <trkpt lat="48.347" lon="-1.63209">
        <ele>74</ele>
        <time>2019-07-16T11:55:25Z</time>
      </trkpt>
      <trkpt lat="48.34702" lon="-1.63209">
        <ele>73.3</ele>
        <time>2019-07-16T11:55:26Z</time>
      </trkpt>
      <trkpt lat="48.34705" lon="-1.63209">
        <ele>73.1</ele>
        <time>2019-07-16T11:55:27Z</time>
      </trkpt>
      <trkpt lat="48.34708" lon="-1.63209">
        <ele>72.9</ele>
        <time>2019-07-16T11:55:28Z</time>
      </trkpt>
      <trkpt lat="48.3471" lon="-1.63209">
        <ele>72.8</ele>
        <time>2019-07-16T11:55:29Z</time>
      </trkpt>
      <trkpt lat="48.34713" lon="-1.63209">
        <ele>72.6</ele>
        <time>2019-07-16T11:55:30Z</time>
      </trkpt>
      <trkpt lat="48.34715" lon="-1.63209">
        <ele>72.6</ele>
        <time>2019-07-16T11:55:31Z</time>
      </trkpt>
      <trkpt lat="48.34718" lon="-1.63209">
        <ele>72.8</ele>
        <time>2019-07-16T11:55:32Z</time>
      </trkpt>
      <trkpt lat="48.3472" lon="-1.63209">
        <ele>72.7</ele>
        <time>2019-07-16T11:55:33Z</time>
      </trkpt>
      <trkpt lat="48.34723" lon="-1.63208">
        <ele>72.8</ele>
        <time>2019-07-16T11:55:34Z</time>
      </trkpt>
      <trkpt lat="48.34725" lon="-1.63206">
        <ele>73</ele>
        <time>2019-07-16T11:55:35Z</time>
      </trkpt>
      <trkpt lat="48.34728" lon="-1.63204">
        <ele>73.1</ele>
        <time>2019-07-16T11:55:36Z</time>
      </trkpt>
      <trkpt lat="48.34731" lon="-1.63202">
        <ele>73.4</ele>
        <time>2019-07-16T11:55:37Z</time>
      </trkpt>
      <trkpt lat="48.34735" lon="-1.63201">
        <ele>73.6</ele>
        <time>2019-07-16T11:55:38Z</time>
      </trkpt>
      <trkpt lat="48.34739" lon="-1.63199">
        <ele>74</ele>
        <time>2019-07-16T11:55:39Z</time>
      </trkpt>
      <trkpt lat="48.34741" lon="-1.63198">
        <ele>74.2</ele>
        <time>2019-07-16T11:55:40Z</time>
      </trkpt>
      <trkpt lat="48.34744" lon="-1.63197">
        <ele>74.7</ele>
        <time>2019-07-16T11:55:41Z</time>
      </trkpt>
      <trkpt lat="48.34747" lon="-1.63195">
        <ele>75.2</ele>
        <time>2019-07-16T11:55:42Z</time>
      </trkpt>
      <trkpt lat="48.34749" lon="-1.63193">
        <ele>75.6</ele>
        <time>2019-07-16T11:55:43Z</time>
      </trkpt>
      <trkpt lat="48.34752" lon="-1.63192">
        <ele>75.9</ele>
        <time>2019-07-16T11:55:44Z</time>
      </trkpt>
      <trkpt lat="48.34754" lon="-1.6319">
        <ele>76.5</ele>
        <time>2019-07-16T11:55:45Z</time>
      </trkpt>
      <trkpt lat="48.34757" lon="-1.6319">
        <ele>77</ele>
        <time>2019-07-16T11:55:46Z</time>
      </trkpt>
      <trkpt lat="48.34759" lon="-1.63188">
        <ele>77.3</ele>
        <time>2019-07-16T11:55:47Z</time>
      </trkpt>
      <trkpt lat="48.34761" lon="-1.63188">
        <ele>77.7</ele>
        <time>2019-07-16T11:55:48Z</time>
      </trkpt>
      <trkpt lat="48.34763" lon="-1.63187">
        <ele>78.3</ele>
        <time>2019-07-16T11:55:49Z</time>
      </trkpt>
      <trkpt lat="48.34766" lon="-1.63184">
        <ele>78.9</ele>
        <time>2019-07-16T11:55:50Z</time>
      </trkpt>
      <trkpt lat="48.34769" lon="-1.63183">
        <ele>79.4</ele>
        <time>2019-07-16T11:55:51Z</time>
      </trkpt>
      <trkpt lat="48.34771" lon="-1.63181">
        <ele>79.9</ele>
        <time>2019-07-16T11:55:52Z</time>
      </trkpt>
      <trkpt lat="48.34773" lon="-1.63181">
        <ele>80.3</ele>
        <time>2019-07-16T11:55:53Z</time>
      </trkpt>
      <trkpt lat="48.34776" lon="-1.6318">
        <ele>80.8</ele>
        <time>2019-07-16T11:55:54Z</time>
      </trkpt>
      <trkpt lat="48.34779" lon="-1.6318">
        <ele>81.1</ele>
        <time>2019-07-16T11:55:55Z</time>
      </trkpt>
      <trkpt lat="48.34781" lon="-1.63179">
        <ele>81.6</ele>
        <time>2019-07-16T11:55:56Z</time>
      </trkpt>
      <trkpt lat="48.34782" lon="-1.63179">
        <ele>82.2</ele>
        <time>2019-07-16T11:55:57Z</time>
      </trkpt>
      <trkpt lat="48.34785" lon="-1.63178">
        <ele>83</ele>
        <time>2019-07-16T11:55:58Z</time>
      </trkpt>
      <trkpt lat="48.34787" lon="-1.63176">
        <ele>84.1</ele>
        <time>2019-07-16T11:55:59Z</time>
      </trkpt>
      <trkpt lat="48.3479" lon="-1.63176">
        <ele>84.8</ele>
        <time>2019-07-16T11:56:00Z</time>
      </trkpt>
      <trkpt lat="48.34792" lon="-1.63176">
        <ele>85.6</ele>
        <time>2019-07-16T11:56:01Z</time>
      </trkpt>
      <trkpt lat="48.34794" lon="-1.63175">
        <ele>86.5</ele>
        <time>2019-07-16T11:56:02Z</time>
      </trkpt>
      <trkpt lat="48.34797" lon="-1.63174">
        <ele>87.4</ele>
        <time>2019-07-16T11:56:03Z</time>
      </trkpt>
      <trkpt lat="48.348" lon="-1.63172">
        <ele>88.6</ele>
        <time>2019-07-16T11:56:04Z</time>
      </trkpt>
      <trkpt lat="48.34802" lon="-1.63171">
        <ele>89.5</ele>
        <time>2019-07-16T11:56:05Z</time>
      </trkpt>
      <trkpt lat="48.34805" lon="-1.63169">
        <ele>90.4</ele>
        <time>2019-07-16T11:56:06Z</time>
      </trkpt>
      <trkpt lat="48.34808" lon="-1.63168">
        <ele>91.3</ele>
        <time>2019-07-16T11:56:07Z</time>
      </trkpt>
      <trkpt lat="48.34811" lon="-1.63166">
        <ele>92.3</ele>
        <time>2019-07-16T11:56:08Z</time>
      </trkpt>
      <trkpt lat="48.34814" lon="-1.63165">
        <ele>93.1</ele>
        <time>2019-07-16T11:56:09Z</time>
      </trkpt>
      <trkpt lat="48.34816" lon="-1.63165">
        <ele>93.9</ele>
        <time>2019-07-16T11:56:10Z</time>
      </trkpt>
      <trkpt lat="48.34819" lon="-1.63163">
        <ele>94.6</ele>
        <time>2019-07-16T11:56:11Z</time>
      </trkpt>
      <trkpt lat="48.34822" lon="-1.63161">
        <ele>95</ele>
        <time>2019-07-16T11:56:12Z</time>
      </trkpt>
      <trkpt lat="48.34825" lon="-1.63159">
        <ele>95.7</ele>
        <time>2019-07-16T11:56:13Z</time>
      </trkpt>
      <trkpt lat="48.34828" lon="-1.63157">
        <ele>96.2</ele>
        <time>2019-07-16T11:56:14Z</time>
      </trkpt>
      <trkpt lat="48.3483" lon="-1.63157">
        <ele>96.8</ele>
        <time>2019-07-16T11:56:15Z</time>
      </trkpt>
      <trkpt lat="48.34833" lon="-1.63155">
        <ele>97.4</ele>
        <time>2019-07-16T11:56:16Z</time>
      </trkpt>
      <trkpt lat="48.34835" lon="-1.63154">
        <ele>97.6</ele>
        <time>2019-07-16T11:56:17Z</time>
      </trkpt>
      <trkpt lat="48.34838" lon="-1.63154">
        <ele>97.5</ele>
        <time>2019-07-16T11:56:18Z</time>
      </trkpt>
      <trkpt lat="48.34842" lon="-1.63153">
        <ele>96.7</ele>
        <time>2019-07-16T11:56:19Z</time>
      </trkpt>
      <trkpt lat="48.34845" lon="-1.63151">
        <ele>96.6</ele>
        <time>2019-07-16T11:56:20Z</time>
      </trkpt>
      <trkpt lat="48.34848" lon="-1.6315">
        <ele>96.6</ele>
        <time>2019-07-16T11:56:21Z</time>
      </trkpt>
      <trkpt lat="48.3485" lon="-1.63149">
        <ele>96.9</ele>
        <time>2019-07-16T11:56:22Z</time>
      </trkpt>
      <trkpt lat="48.34852" lon="-1.63148">
        <ele>97</ele>
        <time>2019-07-16T11:56:23Z</time>
      </trkpt>
      <trkpt lat="48.34855" lon="-1.63147">
        <ele>97.1</ele>
        <time>2019-07-16T11:56:24Z</time>
      </trkpt>
      <trkpt lat="48.34858" lon="-1.63146">
        <ele>96.4</ele>
        <time>2019-07-16T11:56:25Z</time>
      </trkpt>
      <trkpt lat="48.34861" lon="-1.63144">
        <ele>96.9</ele>
        <time>2019-07-16T11:56:26Z</time>
      </trkpt>
      <trkpt lat="48.34864" lon="-1.63142">
        <ele>96.7</ele>
        <time>2019-07-16T11:56:27Z</time>
      </trkpt>
      <trkpt lat="48.34867" lon="-1.63141">
        <ele>96.7</ele>
        <time>2019-07-16T11:56:28Z</time>
      </trkpt>
      <trkpt lat="48.34871" lon="-1.63138">
        <ele>97</ele>
        <time>2019-07-16T11:56:29Z</time>
      </trkpt>
      <trkpt lat="48.34873" lon="-1.63136">
        <ele>97.4</ele>
        <time>2019-07-16T11:56:30Z</time>
      </trkpt>
      <trkpt lat="48.34876" lon="-1.63134">
        <ele>97.7</ele>
        <time>2019-07-16T11:56:31Z</time>
      </trkpt>
      <trkpt lat="48.3488" lon="-1.63132">
        <ele>97.5</ele>
        <time>2019-07-16T11:56:32Z</time>
      </trkpt>
      <trkpt lat="48.34884" lon="-1.6313">
        <ele>97.8</ele>
        <time>2019-07-16T11:56:33Z</time>
      </trkpt>
      <trkpt lat="48.34886" lon="-1.63128">
        <ele>97.7</ele>
        <time>2019-07-16T11:56:34Z</time>
      </trkpt>
      <trkpt lat="48.34889" lon="-1.63127">
        <ele>97.5</ele>
        <time>2019-07-16T11:56:35Z</time>
      </trkpt>
      <trkpt lat="48.34891" lon="-1.63126">
        <ele>97.3</ele>
        <time>2019-07-16T11:56:36Z</time>
      </trkpt>
      <trkpt lat="48.34893" lon="-1.63125">
        <ele>97.4</ele>
        <time>2019-07-16T11:56:37Z</time>
      </trkpt>
      <trkpt lat="48.34895" lon="-1.63123">
        <ele>97.2</ele>
        <time>2019-07-16T11:56:38Z</time>
      </trkpt>
      <trkpt lat="48.34898" lon="-1.63123">
        <ele>96.8</ele>
        <time>2019-07-16T11:56:39Z</time>
      </trkpt>
      <trkpt lat="48.349" lon="-1.63121">
        <ele>96.5</ele>
        <time>2019-07-16T11:56:40Z</time>
      </trkpt>
      <trkpt lat="48.34904" lon="-1.63119">
        <ele>96.3</ele>
        <time>2019-07-16T11:56:41Z</time>
      </trkpt>
      <trkpt lat="48.34907" lon="-1.63115">
        <ele>96.1</ele>
        <time>2019-07-16T11:56:42Z</time>
      </trkpt>
      <trkpt lat="48.3491" lon="-1.63114">
        <ele>96.1</ele>
        <time>2019-07-16T11:56:43Z</time>
      </trkpt>
      <trkpt lat="48.34913" lon="-1.63113">
        <ele>95.7</ele>
        <time>2019-07-16T11:56:44Z</time>
      </trkpt>
      <trkpt lat="48.34914" lon="-1.63112">
        <ele>95.1</ele>
        <time>2019-07-16T11:56:45Z</time>
      </trkpt>
      <trkpt lat="48.34917" lon="-1.6311">
        <ele>94.8</ele>
        <time>2019-07-16T11:56:46Z</time>
      </trkpt>
      <trkpt lat="48.3492" lon="-1.63108">
        <ele>94.8</ele>
        <time>2019-07-16T11:56:47Z</time>
      </trkpt>
      <trkpt lat="48.34922" lon="-1.63107">
        <ele>94.9</ele>
        <time>2019-07-16T11:56:48Z</time>
      </trkpt>
      <trkpt lat="48.34923" lon="-1.63106">
        <ele>95</ele>
        <time>2019-07-16T11:56:49Z</time>
      </trkpt>
      <trkpt lat="48.34926" lon="-1.63106">
        <ele>94.8</ele>
        <time>2019-07-16T11:56:50Z</time>
      </trkpt>
      <trkpt lat="48.34929" lon="-1.63105">
        <ele>94.7</ele>
        <time>2019-07-16T11:56:51Z</time>
      </trkpt>
      <trkpt lat="48.34932" lon="-1.63104">
        <ele>94.9</ele>
        <time>2019-07-16T11:56:52Z</time>
      </trkpt>
      <trkpt lat="48.34934" lon="-1.63103">
        <ele>94.9</ele>
        <time>2019-07-16T11:56:53Z</time>
      </trkpt>
      <trkpt lat="48.34936" lon="-1.63102">
        <ele>94.7</ele>
        <time>2019-07-16T11:56:54Z</time>
      </trkpt>
      <trkpt lat="48.34938" lon="-1.63101">
        <ele>95</ele>
        <time>2019-07-16T11:56:55Z</time>
      </trkpt>
      <trkpt lat="48.34941" lon="-1.63099">
        <ele>95.3</ele>
        <time>2019-07-16T11:56:56Z</time>
      </trkpt>
      <trkpt lat="48.34943" lon="-1.63098">
        <ele>95.9</ele>
        <time>2019-07-16T11:56:57Z</time>
      </trkpt>
      <trkpt lat="48.34947" lon="-1.63097">
        <ele>96.1</ele>
        <time>2019-07-16T11:56:58Z</time>
      </trkpt>
      <trkpt lat="48.34949" lon="-1.63095">
        <ele>96.4</ele>
        <time>2019-07-16T11:56:59Z</time>
      </trkpt>
      <trkpt lat="48.34952" lon="-1.63094">
        <ele>96.6</ele>
        <time>2019-07-16T11:57:00Z</time>
      </trkpt>
      <trkpt lat="48.34955" lon="-1.63092">
        <ele>96.8</ele>
        <time>2019-07-16T11:57:01Z</time>
      </trkpt>
      <trkpt lat="48.34957" lon="-1.63091">
        <ele>97.1</ele>
        <time>2019-07-16T11:57:02Z</time>
      </trkpt>
      <trkpt lat="48.34959" lon="-1.6309">
        <ele>97.5</ele>
        <time>2019-07-16T11:57:03Z</time>
      </trkpt>
      <trkpt lat="48.34962" lon="-1.63089">
        <ele>97.9</ele>
        <time>2019-07-16T11:57:04Z</time>
      </trkpt>
      <trkpt lat="48.34964" lon="-1.63089">
        <ele>98.2</ele>
        <time>2019-07-16T11:57:05Z</time>
      </trkpt>
      <trkpt lat="48.34966" lon="-1.63089">
        <ele>98.5</ele>
        <time>2019-07-16T11:57:06Z</time>
      </trkpt>
      <trkpt lat="48.34969" lon="-1.63088">
        <ele>98.8</ele>
        <time>2019-07-16T11:57:07Z</time>
      </trkpt>
      <trkpt lat="48.34971" lon="-1.63086">
        <ele>99</ele>
        <time>2019-07-16T11:57:08Z</time>
      </trkpt>
      <trkpt lat="48.34974" lon="-1.63085">
        <ele>99.2</ele>
        <time>2019-07-16T11:57:09Z</time>
      </trkpt>
      <trkpt lat="48.34976" lon="-1.63084">
        <ele>99.5</ele>
        <time>2019-07-16T11:57:10Z</time>
      </trkpt>
      <trkpt lat="48.34979" lon="-1.63083">
        <ele>100</ele>
        <time>2019-07-16T11:57:11Z</time>
      </trkpt>
      <trkpt lat="48.34982" lon="-1.63082">
        <ele>100.3</ele>
        <time>2019-07-16T11:57:12Z</time>
      </trkpt>
      <trkpt lat="48.34985" lon="-1.6308">
        <ele>100.6</ele>
        <time>2019-07-16T11:57:13Z</time>
      </trkpt>
      <trkpt lat="48.34987" lon="-1.63079">
        <ele>101.2</ele>
        <time>2019-07-16T11:57:14Z</time>
      </trkpt>
      <trkpt lat="48.3499" lon="-1.63078">
        <ele>101.8</ele>
        <time>2019-07-16T11:57:15Z</time>
      </trkpt>
      <trkpt lat="48.34992" lon="-1.63077">
        <ele>102.6</ele>
        <time>2019-07-16T11:57:16Z</time>
      </trkpt>
      <trkpt lat="48.34995" lon="-1.63075">
        <ele>102.9</ele>
        <time>2019-07-16T11:57:17Z</time>
      </trkpt>
      <trkpt lat="48.34998" lon="-1.63074">
        <ele>103.7</ele>
        <time>2019-07-16T11:57:18Z</time>
      </trkpt>
      <trkpt lat="48.35001" lon="-1.63072">
        <ele>104.3</ele>
        <time>2019-07-16T11:57:19Z</time>
      </trkpt>
      <trkpt lat="48.35003" lon="-1.6307">
        <ele>104.4</ele>
        <time>2019-07-16T11:57:20Z</time>
      </trkpt>
      <trkpt lat="48.35006" lon="-1.63068">
        <ele>104.5</ele>
        <time>2019-07-16T11:57:21Z</time>
      </trkpt>
      <trkpt lat="48.3501" lon="-1.63067">
        <ele>105.1</ele>
        <time>2019-07-16T11:57:22Z</time>
      </trkpt>
      <trkpt lat="48.35013" lon="-1.63065">
        <ele>105.5</ele>
        <time>2019-07-16T11:57:23Z</time>
      </trkpt>
      <trkpt lat="48.35016" lon="-1.63064">
        <ele>105.5</ele>
        <time>2019-07-16T11:57:24Z</time>
      </trkpt>
      <trkpt lat="48.3502" lon="-1.63063">
        <ele>105.9</ele>
        <time>2019-07-16T11:57:25Z</time>
      </trkpt>
      <trkpt lat="48.35022" lon="-1.63062">
        <ele>106.2</ele>
        <time>2019-07-16T11:57:26Z</time>
      </trkpt>
      <trkpt lat="48.35024" lon="-1.6306">
        <ele>106.5</ele>
        <time>2019-07-16T11:57:27Z</time>
      </trkpt>
      <trkpt lat="48.35027" lon="-1.63058">
        <ele>107</ele>
        <time>2019-07-16T11:57:28Z</time>
      </trkpt>
      <trkpt lat="48.3503" lon="-1.63057">
        <ele>107.4</ele>
        <time>2019-07-16T11:57:29Z</time>
      </trkpt>
      <trkpt lat="48.35032" lon="-1.63057">
        <ele>107.9</ele>
        <time>2019-07-16T11:57:30Z</time>
      </trkpt>
      <trkpt lat="48.35035" lon="-1.63056">
        <ele>108.3</ele>
        <time>2019-07-16T11:57:31Z</time>
      </trkpt>
      <trkpt lat="48.35038" lon="-1.63053">
        <ele>108.8</ele>
        <time>2019-07-16T11:57:32Z</time>
      </trkpt>
      <trkpt lat="48.3504" lon="-1.63052">
        <ele>109.3</ele>
        <time>2019-07-16T11:57:33Z</time>
      </trkpt>
      <trkpt lat="48.35043" lon="-1.6305">
        <ele>110</ele>
        <time>2019-07-16T11:57:34Z</time>
      </trkpt>
      <trkpt lat="48.35044" lon="-1.63049">
        <ele>110.2</ele>
        <time>2019-07-16T11:57:35Z</time>
      </trkpt>
      <trkpt lat="48.35046" lon="-1.63047">
        <ele>110.8</ele>
        <time>2019-07-16T11:57:36Z</time>
      </trkpt>
      <trkpt lat="48.35049" lon="-1.63045">
        <ele>111.3</ele>
        <time>2019-07-16T11:57:37Z</time>
      </trkpt>
      <trkpt lat="48.35051" lon="-1.63043">
        <ele>111.7</ele>
        <time>2019-07-16T11:57:38Z</time>
      </trkpt>
      <trkpt lat="48.35054" lon="-1.63042">
        <ele>111.6</ele>
        <time>2019-07-16T11:57:39Z</time>
      </trkpt>
      <trkpt lat="48.35057" lon="-1.63039">
        <ele>111.6</ele>
        <time>2019-07-16T11:57:40Z</time>
      </trkpt>
      <trkpt lat="48.3506" lon="-1.63038">
        <ele>111.6</ele>
        <time>2019-07-16T11:57:41Z</time>
      </trkpt>
      <trkpt lat="48.35064" lon="-1.63034">
        <ele>111.3</ele>
        <time>2019-07-16T11:57:42Z</time>
      </trkpt>
      <trkpt lat="48.35067" lon="-1.63032">
        <ele>110.9</ele>
        <time>2019-07-16T11:57:43Z</time>
      </trkpt>
      <trkpt lat="48.35071" lon="-1.6303">
        <ele>110.6</ele>
        <time>2019-07-16T11:57:44Z</time>
      </trkpt>
      <trkpt lat="48.35074" lon="-1.63029">
        <ele>109.7</ele>
        <time>2019-07-16T11:57:45Z</time>
      </trkpt>
      <trkpt lat="48.35078" lon="-1.63028">
        <ele>109.5</ele>
        <time>2019-07-16T11:57:46Z</time>
      </trkpt>
      <trkpt lat="48.35081" lon="-1.63026">
        <ele>109.4</ele>
        <time>2019-07-16T11:57:47Z</time>
      </trkpt>
      <trkpt lat="48.35084" lon="-1.63024">
        <ele>109.6</ele>
        <time>2019-07-16T11:57:48Z</time>
      </trkpt>
      <trkpt lat="48.35087" lon="-1.63023">
        <ele>109.7</ele>
        <time>2019-07-16T11:57:49Z</time>
      </trkpt>
      <trkpt lat="48.3509" lon="-1.63021">
        <ele>109.8</ele>
        <time>2019-07-16T11:57:50Z</time>
      </trkpt>
      <trkpt lat="48.35093" lon="-1.63019">
        <ele>110</ele>
        <time>2019-07-16T11:57:51Z</time>
      </trkpt>
      <trkpt lat="48.35097" lon="-1.63017">
        <ele>110.1</ele>
        <time>2019-07-16T11:57:52Z</time>
      </trkpt>
      <trkpt lat="48.35101" lon="-1.63015">
        <ele>110.5</ele>
        <time>2019-07-16T11:57:53Z</time>
      </trkpt>
      <trkpt lat="48.35104" lon="-1.63014">
        <ele>110.4</ele>
        <time>2019-07-16T11:57:54Z</time>
      </trkpt>
      <trkpt lat="48.35107" lon="-1.63013">
        <ele>110.7</ele>
        <time>2019-07-16T11:57:55Z</time>
      </trkpt>
      <trkpt lat="48.35111" lon="-1.63011">
        <ele>111</ele>
        <time>2019-07-16T11:57:56Z</time>
      </trkpt>
      <trkpt lat="48.35114" lon="-1.6301">
        <ele>110.9</ele>
        <time>2019-07-16T11:57:57Z</time>
      </trkpt>
      <trkpt lat="48.35117" lon="-1.63009">
        <ele>110.8</ele>
        <time>2019-07-16T11:57:58Z</time>
      </trkpt>
      <trkpt lat="48.35119" lon="-1.63009">
        <ele>110.8</ele>
        <time>2019-07-16T11:57:59Z</time>
      </trkpt>
      <trkpt lat="48.35122" lon="-1.63006">
        <ele>111</ele>
        <time>2019-07-16T11:58:00Z</time>
      </trkpt>
      <trkpt lat="48.35125" lon="-1.63005">
        <ele>111.2</ele>
        <time>2019-07-16T11:58:01Z</time>
      </trkpt>
      <trkpt lat="48.35127" lon="-1.63003">
        <ele>111.5</ele>
        <time>2019-07-16T11:58:02Z</time>
      </trkpt>
      <trkpt lat="48.3513" lon="-1.63002">
        <ele>111.6</ele>
        <time>2019-07-16T11:58:03Z</time>
      </trkpt>
      <trkpt lat="48.35134" lon="-1.62999">
        <ele>111.6</ele>
        <time>2019-07-16T11:58:04Z</time>
      </trkpt>
      <trkpt lat="48.35137" lon="-1.62996">
        <ele>111.5</ele>
        <time>2019-07-16T11:58:05Z</time>
      </trkpt>
      <trkpt lat="48.35139" lon="-1.62993">
        <ele>111.6</ele>
        <time>2019-07-16T11:58:06Z</time>
      </trkpt>
      <trkpt lat="48.35142" lon="-1.62992">
        <ele>111.6</ele>
        <time>2019-07-16T11:58:07Z</time>
      </trkpt>
      <trkpt lat="48.35145" lon="-1.6299">
        <ele>111.6</ele>
        <time>2019-07-16T11:58:08Z</time>
      </trkpt>
      <trkpt lat="48.35148" lon="-1.62987">
        <ele>110.8</ele>
        <time>2019-07-16T11:58:09Z</time>
      </trkpt>
      <trkpt lat="48.3515" lon="-1.62986">
        <ele>110.5</ele>
        <time>2019-07-16T11:58:10Z</time>
      </trkpt>
      <trkpt lat="48.35152" lon="-1.62984">
        <ele>110.5</ele>
        <time>2019-07-16T11:58:11Z</time>
      </trkpt>
      <trkpt lat="48.35156" lon="-1.62983">
        <ele>110.8</ele>
        <time>2019-07-16T11:58:12Z</time>
      </trkpt>
      <trkpt lat="48.35158" lon="-1.62981">
        <ele>110.8</ele>
        <time>2019-07-16T11:58:13Z</time>
      </trkpt>
      <trkpt lat="48.35161" lon="-1.62979">
        <ele>111.1</ele>
        <time>2019-07-16T11:58:14Z</time>
      </trkpt>
      <trkpt lat="48.35165" lon="-1.62977">
        <ele>111</ele>
        <time>2019-07-16T11:58:15Z</time>
      </trkpt>
      <trkpt lat="48.3517" lon="-1.62974">
        <ele>111.1</ele>
        <time>2019-07-16T11:58:16Z</time>
      </trkpt>
      <trkpt lat="48.35173" lon="-1.62972">
        <ele>111.3</ele>
        <time>2019-07-16T11:58:17Z</time>
      </trkpt>
      <trkpt lat="48.35176" lon="-1.62971">
        <ele>111.6</ele>
        <time>2019-07-16T11:58:18Z</time>
      </trkpt>
      <trkpt lat="48.3518" lon="-1.62969">
        <ele>112.3</ele>
        <time>2019-07-16T11:58:19Z</time>
      </trkpt>
      <trkpt lat="48.35183" lon="-1.62966">
        <ele>113.1</ele>
        <time>2019-07-16T11:58:20Z</time>
      </trkpt>
      <trkpt lat="48.35186" lon="-1.62964">
        <ele>113.8</ele>
        <time>2019-07-16T11:58:21Z</time>
      </trkpt>
      <trkpt lat="48.35189" lon="-1.62963">
        <ele>114</ele>
        <time>2019-07-16T11:58:22Z</time>
      </trkpt>
      <trkpt lat="48.35192" lon="-1.6296">
        <ele>114.1</ele>
        <time>2019-07-16T11:58:23Z</time>
      </trkpt>
      <trkpt lat="48.35195" lon="-1.62959">
        <ele>114.1</ele>
        <time>2019-07-16T11:58:24Z</time>
      </trkpt>
      <trkpt lat="48.35198" lon="-1.62959">
        <ele>113.4</ele>
        <time>2019-07-16T11:58:25Z</time>
      </trkpt>
      <trkpt lat="48.35201" lon="-1.62958">
        <ele>113.7</ele>
        <time>2019-07-16T11:58:26Z</time>
      </trkpt>
      <trkpt lat="48.35203" lon="-1.62956">
        <ele>114</ele>
        <time>2019-07-16T11:58:27Z</time>
      </trkpt>
      <trkpt lat="48.35206" lon="-1.62956">
        <ele>114.2</ele>
        <time>2019-07-16T11:58:28Z</time>
      </trkpt>
      <trkpt lat="48.35208" lon="-1.62954">
        <ele>114.4</ele>
        <time>2019-07-16T11:58:29Z</time>
      </trkpt>
      <trkpt lat="48.3521" lon="-1.62954">
        <ele>114.9</ele>
        <time>2019-07-16T11:58:30Z</time>
      </trkpt>
      <trkpt lat="48.35213" lon="-1.62953">
        <ele>115</ele>
        <time>2019-07-16T11:58:31Z</time>
      </trkpt>
      <trkpt lat="48.35218" lon="-1.6295">
        <ele>115.4</ele>
        <time>2019-07-16T11:58:32Z</time>
      </trkpt>
      <trkpt lat="48.3522" lon="-1.62948">
        <ele>115.5</ele>
        <time>2019-07-16T11:58:33Z</time>
      </trkpt>
      <trkpt lat="48.35223" lon="-1.62946">
        <ele>115.6</ele>
        <time>2019-07-16T11:58:34Z</time>
      </trkpt>
      <trkpt lat="48.35226" lon="-1.62945">
        <ele>115.8</ele>
        <time>2019-07-16T11:58:35Z</time>
      </trkpt>
      <trkpt lat="48.3523" lon="-1.62943">
        <ele>115.9</ele>
        <time>2019-07-16T11:58:36Z</time>
      </trkpt>
      <trkpt lat="48.35233" lon="-1.62942">
        <ele>116.2</ele>
        <time>2019-07-16T11:58:37Z</time>
      </trkpt>
      <trkpt lat="48.35238" lon="-1.62942">
        <ele>115.3</ele>
        <time>2019-07-16T11:58:38Z</time>
      </trkpt>
      <trkpt lat="48.35243" lon="-1.62939">
        <ele>115.6</ele>
        <time>2019-07-16T11:58:39Z</time>
      </trkpt>
      <trkpt lat="48.35246" lon="-1.62936">
        <ele>115.6</ele>
        <time>2019-07-16T11:58:40Z</time>
      </trkpt>
      <trkpt lat="48.35249" lon="-1.62935">
        <ele>115.7</ele>
        <time>2019-07-16T11:58:41Z</time>
      </trkpt>
      <trkpt lat="48.35253" lon="-1.62934">
        <ele>115.6</ele>
        <time>2019-07-16T11:58:42Z</time>
      </trkpt>
      <trkpt lat="48.35257" lon="-1.62932">
        <ele>115.6</ele>
        <time>2019-07-16T11:58:43Z</time>
      </trkpt>
      <trkpt lat="48.3526" lon="-1.6293">
        <ele>115.7</ele>
        <time>2019-07-16T11:58:44Z</time>
      </trkpt>
      <trkpt lat="48.35264" lon="-1.62928">
        <ele>115.4</ele>
        <time>2019-07-16T11:58:45Z</time>
      </trkpt>
      <trkpt lat="48.35266" lon="-1.62925">
        <ele>114.9</ele>
        <time>2019-07-16T11:58:46Z</time>
      </trkpt>
      <trkpt lat="48.3527" lon="-1.62924">
        <ele>114.6</ele>
        <time>2019-07-16T11:58:47Z</time>
      </trkpt>
      <trkpt lat="48.35273" lon="-1.62923">
        <ele>114.6</ele>
        <time>2019-07-16T11:58:48Z</time>
      </trkpt>
      <trkpt lat="48.35277" lon="-1.62922">
        <ele>114.4</ele>
        <time>2019-07-16T11:58:49Z</time>
      </trkpt>
      <trkpt lat="48.35282" lon="-1.62921">
        <ele>114.6</ele>
        <time>2019-07-16T11:58:50Z</time>
      </trkpt>
      <trkpt lat="48.35286" lon="-1.62919">
        <ele>114.4</ele>
        <time>2019-07-16T11:58:51Z</time>
      </trkpt>
      <trkpt lat="48.3529" lon="-1.62917">
        <ele>114.6</ele>
        <time>2019-07-16T11:58:52Z</time>
      </trkpt>
      <trkpt lat="48.35293" lon="-1.62915">
        <ele>114.5</ele>
        <time>2019-07-16T11:58:53Z</time>
      </trkpt>
      <trkpt lat="48.35297" lon="-1.62914">
        <ele>114.7</ele>
        <time>2019-07-16T11:58:54Z</time>
      </trkpt>
      <trkpt lat="48.35301" lon="-1.62913">
        <ele>114.2</ele>
        <time>2019-07-16T11:58:55Z</time>
      </trkpt>
      <trkpt lat="48.35305" lon="-1.62911">
        <ele>114.2</ele>
        <time>2019-07-16T11:58:56Z</time>
      </trkpt>
      <trkpt lat="48.35308" lon="-1.6291">
        <ele>114.4</ele>
        <time>2019-07-16T11:58:57Z</time>
      </trkpt>
      <trkpt lat="48.35312" lon="-1.62908">
        <ele>114.7</ele>
        <time>2019-07-16T11:58:58Z</time>
      </trkpt>
      <trkpt lat="48.35314" lon="-1.62906">
        <ele>114.5</ele>
        <time>2019-07-16T11:58:59Z</time>
      </trkpt>
      <trkpt lat="48.35317" lon="-1.62904">
        <ele>114.5</ele>
        <time>2019-07-16T11:59:00Z</time>
      </trkpt>
      <trkpt lat="48.3532" lon="-1.62902">
        <ele>114.6</ele>
        <time>2019-07-16T11:59:01Z</time>
      </trkpt>
      <trkpt lat="48.35325" lon="-1.62902">
        <ele>113.3</ele>
        <time>2019-07-16T11:59:02Z</time>
      </trkpt>
      <trkpt lat="48.35329" lon="-1.62901">
        <ele>113.1</ele>
        <time>2019-07-16T11:59:03Z</time>
      </trkpt>
      <trkpt lat="48.35333" lon="-1.62899">
        <ele>113</ele>
        <time>2019-07-16T11:59:04Z</time>
      </trkpt>
      <trkpt lat="48.35339" lon="-1.62897">
        <ele>113.4</ele>
        <time>2019-07-16T11:59:05Z</time>
      </trkpt>
      <trkpt lat="48.35342" lon="-1.62895">
        <ele>113.5</ele>
        <time>2019-07-16T11:59:06Z</time>
      </trkpt>
      <trkpt lat="48.35346" lon="-1.62892">
        <ele>113.4</ele>
        <time>2019-07-16T11:59:07Z</time>
      </trkpt>
      <trkpt lat="48.35352" lon="-1.62889">
        <ele>114.1</ele>
        <time>2019-07-16T11:59:08Z</time>
      </trkpt>
      <trkpt lat="48.35355" lon="-1.62886">
        <ele>114</ele>
        <time>2019-07-16T11:59:09Z</time>
      </trkpt>
      <trkpt lat="48.35359" lon="-1.62884">
        <ele>114.1</ele>
        <time>2019-07-16T11:59:10Z</time>
      </trkpt>
      <trkpt lat="48.35363" lon="-1.6288">
        <ele>114</ele>
        <time>2019-07-16T11:59:11Z</time>
      </trkpt>
      <trkpt lat="48.35366" lon="-1.62876">
        <ele>113.9</ele>
        <time>2019-07-16T11:59:12Z</time>
      </trkpt>
      <trkpt lat="48.35371" lon="-1.62874">
        <ele>114.3</ele>
        <time>2019-07-16T11:59:13Z</time>
      </trkpt>
      <trkpt lat="48.35375" lon="-1.62871">
        <ele>114.4</ele>
        <time>2019-07-16T11:59:14Z</time>
      </trkpt>
      <trkpt lat="48.35378" lon="-1.6287">
        <ele>114.5</ele>
        <time>2019-07-16T11:59:15Z</time>
      </trkpt>
      <trkpt lat="48.35382" lon="-1.62867">
        <ele>114.7</ele>
        <time>2019-07-16T11:59:16Z</time>
      </trkpt>
      <trkpt lat="48.35385" lon="-1.62866">
        <ele>114.9</ele>
        <time>2019-07-16T11:59:17Z</time>
      </trkpt>
      <trkpt lat="48.35388" lon="-1.62863">
        <ele>115.2</ele>
        <time>2019-07-16T11:59:18Z</time>
      </trkpt>
      <trkpt lat="48.35391" lon="-1.62862">
        <ele>115.6</ele>
        <time>2019-07-16T11:59:19Z</time>
      </trkpt>
      <trkpt lat="48.35395" lon="-1.62862">
        <ele>116.2</ele>
        <time>2019-07-16T11:59:20Z</time>
      </trkpt>
      <trkpt lat="48.35399" lon="-1.62862">
        <ele>116</ele>
        <time>2019-07-16T11:59:21Z</time>
      </trkpt>
      <trkpt lat="48.35403" lon="-1.62861">
        <ele>115.4</ele>
        <time>2019-07-16T11:59:22Z</time>
      </trkpt>
      <trkpt lat="48.35407" lon="-1.62859">
        <ele>114.9</ele>
        <time>2019-07-16T11:59:23Z</time>
      </trkpt>
      <trkpt lat="48.35412" lon="-1.62855">
        <ele>114.4</ele>
        <time>2019-07-16T11:59:24Z</time>
      </trkpt>
      <trkpt lat="48.35416" lon="-1.62852">
        <ele>114.2</ele>
        <time>2019-07-16T11:59:25Z</time>
      </trkpt>
      <trkpt lat="48.3542" lon="-1.62848">
        <ele>114.2</ele>
        <time>2019-07-16T11:59:26Z</time>
      </trkpt>
      <trkpt lat="48.35449" lon="-1.62829">
        <ele>112.2</ele>
        <time>2019-07-16T11:59:34Z</time>
      </trkpt>
      <trkpt lat="48.35453" lon="-1.62828">
        <ele>110.7</ele>
        <time>2019-07-16T11:59:35Z</time>
      </trkpt>
      <trkpt lat="48.35457" lon="-1.62828">
        <ele>108.9</ele>
        <time>2019-07-16T11:59:36Z</time>
      </trkpt>
      <trkpt lat="48.35461" lon="-1.62826">
        <ele>107.8</ele>
        <time>2019-07-16T11:59:37Z</time>
      </trkpt>
      <trkpt lat="48.35465" lon="-1.62824">
        <ele>106.7</ele>
        <time>2019-07-16T11:59:38Z</time>
      </trkpt>
      <trkpt lat="48.35469" lon="-1.62822">
        <ele>105.7</ele>
        <time>2019-07-16T11:59:39Z</time>
      </trkpt>
      <trkpt lat="48.35473" lon="-1.62819">
        <ele>104.6</ele>
        <time>2019-07-16T11:59:40Z</time>
      </trkpt>
      <trkpt lat="48.35477" lon="-1.62817">
        <ele>103.5</ele>
        <time>2019-07-16T11:59:41Z</time>
      </trkpt>
      <trkpt lat="48.3548" lon="-1.62815">
        <ele>102.8</ele>
        <time>2019-07-16T11:59:42Z</time>
      </trkpt>
      <trkpt lat="48.35483" lon="-1.62813">
        <ele>101.9</ele>
        <time>2019-07-16T11:59:43Z</time>
      </trkpt>
      <trkpt lat="48.35486" lon="-1.62811">
        <ele>101</ele>
        <time>2019-07-16T11:59:44Z</time>
      </trkpt>
      <trkpt lat="48.35489" lon="-1.62809">
        <ele>100.4</ele>
        <time>2019-07-16T11:59:45Z</time>
      </trkpt>
      <trkpt lat="48.35492" lon="-1.62807">
        <ele>99.6</ele>
        <time>2019-07-16T11:59:46Z</time>
      </trkpt>
      <trkpt lat="48.35495" lon="-1.62805">
        <ele>98.9</ele>
        <time>2019-07-16T11:59:47Z</time>
      </trkpt>
      <trkpt lat="48.35498" lon="-1.62805">
        <ele>98.4</ele>
        <time>2019-07-16T11:59:48Z</time>
      </trkpt>
      <trkpt lat="48.355" lon="-1.62804">
        <ele>98</ele>
        <time>2019-07-16T11:59:49Z</time>
      </trkpt>
      <trkpt lat="48.35502" lon="-1.62804">
        <ele>97.6</ele>
        <time>2019-07-16T11:59:50Z</time>
      </trkpt>
      <trkpt lat="48.35505" lon="-1.62802">
        <ele>97.2</ele>
        <time>2019-07-16T11:59:51Z</time>
      </trkpt>
      <trkpt lat="48.35507" lon="-1.62801">
        <ele>96.9</ele>
        <time>2019-07-16T11:59:52Z</time>
      </trkpt>
      <trkpt lat="48.3551" lon="-1.628">
        <ele>96.6</ele>
        <time>2019-07-16T11:59:53Z</time>
      </trkpt>
      <trkpt lat="48.35513" lon="-1.62798">
        <ele>96.3</ele>
        <time>2019-07-16T11:59:54Z</time>
      </trkpt>
      <trkpt lat="48.35516" lon="-1.62797">
        <ele>96.1</ele>
        <time>2019-07-16T11:59:55Z</time>
      </trkpt>
      <trkpt lat="48.35518" lon="-1.62796">
        <ele>96</ele>
        <time>2019-07-16T11:59:56Z</time>
      </trkpt>
      <trkpt lat="48.3552" lon="-1.62795">
        <ele>96</ele>
        <time>2019-07-16T11:59:57Z</time>
      </trkpt>
      <trkpt lat="48.35523" lon="-1.62793">
        <ele>96.4</ele>
        <time>2019-07-16T11:59:58Z</time>
      </trkpt>
      <trkpt lat="48.35524" lon="-1.62791">
        <ele>96.3</ele>
        <time>2019-07-16T11:59:59Z</time>
      </trkpt>
      <trkpt lat="48.35527" lon="-1.62789">
        <ele>96.8</ele>
        <time>2019-07-16T12:00:00Z</time>
      </trkpt>
      <trkpt lat="48.3553" lon="-1.62787">
        <ele>97.2</ele>
        <time>2019-07-16T12:00:01Z</time>
      </trkpt>
      <trkpt lat="48.35532" lon="-1.62785">
        <ele>97.2</ele>
        <time>2019-07-16T12:00:02Z</time>
      </trkpt>
      <trkpt lat="48.35536" lon="-1.62781">
        <ele>97.7</ele>
        <time>2019-07-16T12:00:03Z</time>
      </trkpt>
      <trkpt lat="48.3554" lon="-1.62776">
        <ele>98</ele>
        <time>2019-07-16T12:00:04Z</time>
      </trkpt>
      <trkpt lat="48.35543" lon="-1.62773">
        <ele>98.4</ele>
        <time>2019-07-16T12:00:05Z</time>
      </trkpt>
      <trkpt lat="48.35547" lon="-1.62768">
        <ele>98.9</ele>
        <time>2019-07-16T12:00:06Z</time>
      </trkpt>
      <trkpt lat="48.3555" lon="-1.62765">
        <ele>99.3</ele>
        <time>2019-07-16T12:00:07Z</time>
      </trkpt>
      <trkpt lat="48.35553" lon="-1.62761">
        <ele>99.5</ele>
        <time>2019-07-16T12:00:08Z</time>
      </trkpt>
      <trkpt lat="48.35556" lon="-1.62757">
        <ele>99.9</ele>
        <time>2019-07-16T12:00:09Z</time>
      </trkpt>
      <trkpt lat="48.35558" lon="-1.62756">
        <ele>100.1</ele>
        <time>2019-07-16T12:00:10Z</time>
      </trkpt>
      <trkpt lat="48.3556" lon="-1.62754">
        <ele>100.5</ele>
        <time>2019-07-16T12:00:11Z</time>
      </trkpt>
      <trkpt lat="48.35564" lon="-1.62753">
        <ele>100.8</ele>
        <time>2019-07-16T12:00:12Z</time>
      </trkpt>
      <trkpt lat="48.35567" lon="-1.62751">
        <ele>101.9</ele>
        <time>2019-07-16T12:00:13Z</time>
      </trkpt>
      <trkpt lat="48.3557" lon="-1.62749">
        <ele>102.6</ele>
        <time>2019-07-16T12:00:14Z</time>
      </trkpt>
      <trkpt lat="48.35572" lon="-1.62748">
        <ele>103.1</ele>
        <time>2019-07-16T12:00:15Z</time>
      </trkpt>
      <trkpt lat="48.35574" lon="-1.62745">
        <ele>103.8</ele>
        <time>2019-07-16T12:00:16Z</time>
      </trkpt>
      <trkpt lat="48.35578" lon="-1.62743">
        <ele>104.1</ele>
        <time>2019-07-16T12:00:17Z</time>
      </trkpt>
      <trkpt lat="48.35581" lon="-1.62742">
        <ele>103.9</ele>
        <time>2019-07-16T12:00:18Z</time>
      </trkpt>
      <trkpt lat="48.35584" lon="-1.6274">
        <ele>103.7</ele>
        <time>2019-07-16T12:00:19Z</time>
      </trkpt>
      <trkpt lat="48.35589" lon="-1.62737">
        <ele>103.5</ele>
        <time>2019-07-16T12:00:20Z</time>
      </trkpt>
      <trkpt lat="48.35593" lon="-1.62735">
        <ele>103.1</ele>
        <time>2019-07-16T12:00:21Z</time>
      </trkpt>
      <trkpt lat="48.35597" lon="-1.62732">
        <ele>102.1</ele>
        <time>2019-07-16T12:00:22Z</time>
      </trkpt>
      <trkpt lat="48.35603" lon="-1.62728">
        <ele>101.4</ele>
        <time>2019-07-16T12:00:23Z</time>
      </trkpt>
      <trkpt lat="48.35606" lon="-1.62726">
        <ele>101</ele>
        <time>2019-07-16T12:00:24Z</time>
      </trkpt>
      <trkpt lat="48.35611" lon="-1.62723">
        <ele>99.3</ele>
        <time>2019-07-16T12:00:25Z</time>
      </trkpt>
      <trkpt lat="48.35617" lon="-1.62719">
        <ele>97.8</ele>
        <time>2019-07-16T12:00:26Z</time>
      </trkpt>
      <trkpt lat="48.35621" lon="-1.62714">
        <ele>96.7</ele>
        <time>2019-07-16T12:00:27Z</time>
      </trkpt>
      <trkpt lat="48.35625" lon="-1.62711">
        <ele>96.4</ele>
        <time>2019-07-16T12:00:28Z</time>
      </trkpt>
      <trkpt lat="48.35629" lon="-1.62708">
        <ele>96.6</ele>
        <time>2019-07-16T12:00:29Z</time>
      </trkpt>
      <trkpt lat="48.35633" lon="-1.62706">
        <ele>96.5</ele>
        <time>2019-07-16T12:00:30Z</time>
      </trkpt>
      <trkpt lat="48.35637" lon="-1.62703">
        <ele>96</ele>
        <time>2019-07-16T12:00:31Z</time>
      </trkpt>
      <trkpt lat="48.3564" lon="-1.627">
        <ele>95.4</ele>
        <time>2019-07-16T12:00:32Z</time>
      </trkpt>
      <trkpt lat="48.35644" lon="-1.62697">
        <ele>95.1</ele>
        <time>2019-07-16T12:00:33Z</time>
      </trkpt>
      <trkpt lat="48.35648" lon="-1.62694">
        <ele>94.9</ele>
        <time>2019-07-16T12:00:34Z</time>
      </trkpt>
      <trkpt lat="48.35652" lon="-1.62692">
        <ele>94.6</ele>
        <time>2019-07-16T12:00:35Z</time>
      </trkpt>
      <trkpt lat="48.35655" lon="-1.6269">
        <ele>94.5</ele>
        <time>2019-07-16T12:00:36Z</time>
      </trkpt>
      <trkpt lat="48.3566" lon="-1.62688">
        <ele>93.8</ele>
        <time>2019-07-16T12:00:37Z</time>
      </trkpt>
      <trkpt lat="48.35664" lon="-1.62685">
        <ele>93.5</ele>
        <time>2019-07-16T12:00:38Z</time>
      </trkpt>
      <trkpt lat="48.35668" lon="-1.62682">
        <ele>92.8</ele>
        <time>2019-07-16T12:00:39Z</time>
      </trkpt>
      <trkpt lat="48.35673" lon="-1.62679">
        <ele>92.1</ele>
        <time>2019-07-16T12:00:40Z</time>
      </trkpt>
      <trkpt lat="48.35677" lon="-1.62676">
        <ele>91.5</ele>
        <time>2019-07-16T12:00:41Z</time>
      </trkpt>
      <trkpt lat="48.3568" lon="-1.62674">
        <ele>91.1</ele>
        <time>2019-07-16T12:00:42Z</time>
      </trkpt>
      <trkpt lat="48.35684" lon="-1.62671">
        <ele>90.8</ele>
        <time>2019-07-16T12:00:43Z</time>
      </trkpt>
      <trkpt lat="48.35689" lon="-1.62668">
        <ele>90.7</ele>
        <time>2019-07-16T12:00:44Z</time>
      </trkpt>
      <trkpt lat="48.35693" lon="-1.62664">
        <ele>90.1</ele>
        <time>2019-07-16T12:00:45Z</time>
      </trkpt>
      <trkpt lat="48.35696" lon="-1.62661">
        <ele>89.7</ele>
        <time>2019-07-16T12:00:46Z</time>
      </trkpt>
      <trkpt lat="48.357" lon="-1.62658">
        <ele>88.9</ele>
        <time>2019-07-16T12:00:47Z</time>
      </trkpt>
      <trkpt lat="48.35703" lon="-1.62656">
        <ele>88.9</ele>
        <time>2019-07-16T12:00:48Z</time>
      </trkpt>
      <trkpt lat="48.35706" lon="-1.62654">
        <ele>89.1</ele>
        <time>2019-07-16T12:00:49Z</time>
      </trkpt>
      <trkpt lat="48.3571" lon="-1.62652">
        <ele>89.8</ele>
        <time>2019-07-16T12:00:50Z</time>
      </trkpt>
      <trkpt lat="48.35713" lon="-1.6265">
        <ele>90.8</ele>
        <time>2019-07-16T12:00:51Z</time>
      </trkpt>
      <trkpt lat="48.35716" lon="-1.62649">
        <ele>91.4</ele>
        <time>2019-07-16T12:00:52Z</time>
      </trkpt>
      <trkpt lat="48.3572" lon="-1.62648">
        <ele>92</ele>
        <time>2019-07-16T12:00:53Z</time>
      </trkpt>
      <trkpt lat="48.35724" lon="-1.62645">
        <ele>92.2</ele>
        <time>2019-07-16T12:00:54Z</time>
      </trkpt>
      <trkpt lat="48.35727" lon="-1.62643">
        <ele>92.9</ele>
        <time>2019-07-16T12:00:55Z</time>
      </trkpt>
      <trkpt lat="48.3573" lon="-1.62642">
        <ele>94.2</ele>
        <time>2019-07-16T12:00:56Z</time>
      </trkpt>
      <trkpt lat="48.35733" lon="-1.62639">
        <ele>94.7</ele>
        <time>2019-07-16T12:00:57Z</time>
      </trkpt>
      <trkpt lat="48.35737" lon="-1.62636">
        <ele>95.2</ele>
        <time>2019-07-16T12:00:58Z</time>
      </trkpt>
      <trkpt lat="48.35741" lon="-1.62633">
        <ele>95.8</ele>
        <time>2019-07-16T12:00:59Z</time>
      </trkpt>
      <trkpt lat="48.35745" lon="-1.62631">
        <ele>96.7</ele>
        <time>2019-07-16T12:01:00Z</time>
      </trkpt>
      <trkpt lat="48.35748" lon="-1.6263">
        <ele>97.7</ele>
        <time>2019-07-16T12:01:01Z</time>
      </trkpt>
      <trkpt lat="48.35752" lon="-1.62628">
        <ele>98.9</ele>
        <time>2019-07-16T12:01:02Z</time>
      </trkpt>
      <trkpt lat="48.35756" lon="-1.62626">
        <ele>99.3</ele>
        <time>2019-07-16T12:01:03Z</time>
      </trkpt>
      <trkpt lat="48.3576" lon="-1.62624">
        <ele>99.3</ele>
        <time>2019-07-16T12:01:04Z</time>
      </trkpt>
      <trkpt lat="48.35764" lon="-1.62621">
        <ele>99.8</ele>
        <time>2019-07-16T12:01:05Z</time>
      </trkpt>
      <trkpt lat="48.35769" lon="-1.62619">
        <ele>100.1</ele>
        <time>2019-07-16T12:01:06Z</time>
      </trkpt>
      <trkpt lat="48.35772" lon="-1.62616">
        <ele>100.6</ele>
        <time>2019-07-16T12:01:07Z</time>
      </trkpt>
      <trkpt lat="48.35777" lon="-1.62613">
        <ele>100.5</ele>
        <time>2019-07-16T12:01:08Z</time>
      </trkpt>
      <trkpt lat="48.3578" lon="-1.6261">
        <ele>100.3</ele>
        <time>2019-07-16T12:01:09Z</time>
      </trkpt>
      <trkpt lat="48.35785" lon="-1.62607">
        <ele>100.6</ele>
        <time>2019-07-16T12:01:10Z</time>
      </trkpt>
      <trkpt lat="48.35788" lon="-1.62604">
        <ele>100.9</ele>
        <time>2019-07-16T12:01:11Z</time>
      </trkpt>
      <trkpt lat="48.35792" lon="-1.626">
        <ele>101.2</ele>
        <time>2019-07-16T12:01:12Z</time>
      </trkpt>
      <trkpt lat="48.35796" lon="-1.62597">
        <ele>101.7</ele>
        <time>2019-07-16T12:01:13Z</time>
      </trkpt>
      <trkpt lat="48.35801" lon="-1.62594">
        <ele>102.3</ele>
        <time>2019-07-16T12:01:14Z</time>
      </trkpt>
      <trkpt lat="48.35804" lon="-1.62592">
        <ele>103.4</ele>
        <time>2019-07-16T12:01:15Z</time>
      </trkpt>
      <trkpt lat="48.35807" lon="-1.62591">
        <ele>104.1</ele>
        <time>2019-07-16T12:01:16Z</time>
      </trkpt>
      <trkpt lat="48.35811" lon="-1.62589">
        <ele>104.1</ele>
        <time>2019-07-16T12:01:17Z</time>
      </trkpt>
      <trkpt lat="48.35815" lon="-1.62587">
        <ele>103.7</ele>
        <time>2019-07-16T12:01:18Z</time>
      </trkpt>
      <trkpt lat="48.3582" lon="-1.62585">
        <ele>103.3</ele>
        <time>2019-07-16T12:01:19Z</time>
      </trkpt>
      <trkpt lat="48.35824" lon="-1.62582">
        <ele>103.3</ele>
        <time>2019-07-16T12:01:20Z</time>
      </trkpt>
      <trkpt lat="48.35828" lon="-1.62579">
        <ele>102.9</ele>
        <time>2019-07-16T12:01:21Z</time>
      </trkpt>
      <trkpt lat="48.35832" lon="-1.62577">
        <ele>102.9</ele>
        <time>2019-07-16T12:01:22Z</time>
      </trkpt>
      <trkpt lat="48.35835" lon="-1.62574">
        <ele>102.4</ele>
        <time>2019-07-16T12:01:23Z</time>
      </trkpt>
      <trkpt lat="48.35838" lon="-1.62572">
        <ele>101.9</ele>
        <time>2019-07-16T12:01:24Z</time>
      </trkpt>
      <trkpt lat="48.35841" lon="-1.6257">
        <ele>101.6</ele>
        <time>2019-07-16T12:01:25Z</time>
      </trkpt>
      <trkpt lat="48.35845" lon="-1.62567">
        <ele>101</ele>
        <time>2019-07-16T12:01:26Z</time>
      </trkpt>
      <trkpt lat="48.35849" lon="-1.62566">
        <ele>100.7</ele>
        <time>2019-07-16T12:01:27Z</time>
      </trkpt>
      <trkpt lat="48.35853" lon="-1.62563">
        <ele>100.1</ele>
        <time>2019-07-16T12:01:28Z</time>
      </trkpt>
      <trkpt lat="48.35857" lon="-1.6256">
        <ele>99.3</ele>
        <time>2019-07-16T12:01:29Z</time>
      </trkpt>
      <trkpt lat="48.35861" lon="-1.62556">
        <ele>98.6</ele>
        <time>2019-07-16T12:01:30Z</time>
      </trkpt>
      <trkpt lat="48.35865" lon="-1.62553">
        <ele>98</ele>
        <time>2019-07-16T12:01:31Z</time>
      </trkpt>
      <trkpt lat="48.35869" lon="-1.62549">
        <ele>97.1</ele>
        <time>2019-07-16T12:01:32Z</time>
      </trkpt>
      <trkpt lat="48.35873" lon="-1.62544">
        <ele>95.9</ele>
        <time>2019-07-16T12:01:33Z</time>
      </trkpt>
      <trkpt lat="48.35877" lon="-1.6254">
        <ele>94.4</ele>
        <time>2019-07-16T12:01:34Z</time>
      </trkpt>
      <trkpt lat="48.3588" lon="-1.62537">
        <ele>93.7</ele>
        <time>2019-07-16T12:01:35Z</time>
      </trkpt>
      <trkpt lat="48.35884" lon="-1.62533">
        <ele>92.6</ele>
        <time>2019-07-16T12:01:36Z</time>
      </trkpt>
      <trkpt lat="48.35888" lon="-1.6253">
        <ele>91.7</ele>
        <time>2019-07-16T12:01:37Z</time>
      </trkpt>
      <trkpt lat="48.35891" lon="-1.62526">
        <ele>91.2</ele>
        <time>2019-07-16T12:01:38Z</time>
      </trkpt>
      <trkpt lat="48.35895" lon="-1.62523">
        <ele>90.8</ele>
        <time>2019-07-16T12:01:39Z</time>
      </trkpt>
      <trkpt lat="48.35898" lon="-1.62519">
        <ele>90.2</ele>
        <time>2019-07-16T12:01:40Z</time>
      </trkpt>
      <trkpt lat="48.35902" lon="-1.62516">
        <ele>90</ele>
        <time>2019-07-16T12:01:41Z</time>
      </trkpt>
      <trkpt lat="48.35906" lon="-1.62513">
        <ele>89.7</ele>
        <time>2019-07-16T12:01:42Z</time>
      </trkpt>
      <trkpt lat="48.3591" lon="-1.62509">
        <ele>89.2</ele>
        <time>2019-07-16T12:01:43Z</time>
      </trkpt>
      <trkpt lat="48.35914" lon="-1.62506">
        <ele>88.9</ele>
        <time>2019-07-16T12:01:44Z</time>
      </trkpt>
      <trkpt lat="48.35918" lon="-1.62503">
        <ele>88.3</ele>
        <time>2019-07-16T12:01:45Z</time>
      </trkpt>
      <trkpt lat="48.35922" lon="-1.625">
        <ele>87.6</ele>
        <time>2019-07-16T12:01:46Z</time>
      </trkpt>
      <trkpt lat="48.35926" lon="-1.62497">
        <ele>86.8</ele>
        <time>2019-07-16T12:01:47Z</time>
      </trkpt>
      <trkpt lat="48.3593" lon="-1.62494">
        <ele>86.3</ele>
        <time>2019-07-16T12:01:48Z</time>
      </trkpt>
      <trkpt lat="48.35934" lon="-1.62491">
        <ele>86</ele>
        <time>2019-07-16T12:01:49Z</time>
      </trkpt>
      <trkpt lat="48.35937" lon="-1.62488">
        <ele>84.9</ele>
        <time>2019-07-16T12:01:50Z</time>
      </trkpt>
      <trkpt lat="48.35941" lon="-1.62484">
        <ele>83.7</ele>
        <time>2019-07-16T12:01:51Z</time>
      </trkpt>
      <trkpt lat="48.35944" lon="-1.62481">
        <ele>83.1</ele>
        <time>2019-07-16T12:01:52Z</time>
      </trkpt>
      <trkpt lat="48.35947" lon="-1.62478">
        <ele>82.9</ele>
        <time>2019-07-16T12:01:53Z</time>
      </trkpt>
      <trkpt lat="48.35952" lon="-1.62476">
        <ele>83.2</ele>
        <time>2019-07-16T12:01:54Z</time>
      </trkpt>
      <trkpt lat="48.35955" lon="-1.62473">
        <ele>83.2</ele>
        <time>2019-07-16T12:01:55Z</time>
      </trkpt>
      <trkpt lat="48.35959" lon="-1.62471">
        <ele>83.4</ele>
        <time>2019-07-16T12:01:56Z</time>
      </trkpt>
      <trkpt lat="48.35962" lon="-1.62468">
        <ele>82.7</ele>
        <time>2019-07-16T12:01:57Z</time>
      </trkpt>
      <trkpt lat="48.35966" lon="-1.62465">
        <ele>82.5</ele>
        <time>2019-07-16T12:01:58Z</time>
      </trkpt>
      <trkpt lat="48.3597" lon="-1.62463">
        <ele>82.7</ele>
        <time>2019-07-16T12:01:59Z</time>
      </trkpt>
      <trkpt lat="48.35974" lon="-1.6246">
        <ele>83</ele>
        <time>2019-07-16T12:02:00Z</time>
      </trkpt>
      <trkpt lat="48.35978" lon="-1.62458">
        <ele>83.5</ele>
        <time>2019-07-16T12:02:01Z</time>
      </trkpt>
      <trkpt lat="48.35981" lon="-1.62457">
        <ele>84</ele>
        <time>2019-07-16T12:02:02Z</time>
      </trkpt>
      <trkpt lat="48.35984" lon="-1.62455">
        <ele>84.7</ele>
        <time>2019-07-16T12:02:03Z</time>
      </trkpt>
      <trkpt lat="48.35987" lon="-1.62452">
        <ele>85</ele>
        <time>2019-07-16T12:02:04Z</time>
      </trkpt>
      <trkpt lat="48.3599" lon="-1.6245">
        <ele>85.1</ele>
        <time>2019-07-16T12:02:05Z</time>
      </trkpt>
      <trkpt lat="48.35994" lon="-1.62447">
        <ele>85.2</ele>
        <time>2019-07-16T12:02:06Z</time>
      </trkpt>
      <trkpt lat="48.35997" lon="-1.62445">
        <ele>85.4</ele>
        <time>2019-07-16T12:02:07Z</time>
      </trkpt>
      <trkpt lat="48.36001" lon="-1.62443">
        <ele>85.6</ele>
        <time>2019-07-16T12:02:08Z</time>
      </trkpt>
      <trkpt lat="48.36004" lon="-1.6244">
        <ele>85.7</ele>
        <time>2019-07-16T12:02:09Z</time>
      </trkpt>
      <trkpt lat="48.36008" lon="-1.62438">
        <ele>86.2</ele>
        <time>2019-07-16T12:02:10Z</time>
      </trkpt>
      <trkpt lat="48.36011" lon="-1.62435">
        <ele>86.6</ele>
        <time>2019-07-16T12:02:11Z</time>
      </trkpt>
      <trkpt lat="48.36015" lon="-1.62432">
        <ele>86.8</ele>
        <time>2019-07-16T12:02:12Z</time>
      </trkpt>
      <trkpt lat="48.36018" lon="-1.62429">
        <ele>86.8</ele>
        <time>2019-07-16T12:02:13Z</time>
      </trkpt>
      <trkpt lat="48.36022" lon="-1.62427">
        <ele>86.4</ele>
        <time>2019-07-16T12:02:14Z</time>
      </trkpt>
      <trkpt lat="48.36025" lon="-1.62424">
        <ele>86.1</ele>
        <time>2019-07-16T12:02:15Z</time>
      </trkpt>
      <trkpt lat="48.36029" lon="-1.62421">
        <ele>85.5</ele>
        <time>2019-07-16T12:02:16Z</time>
      </trkpt>
      <trkpt lat="48.36033" lon="-1.62418">
        <ele>85.4</ele>
        <time>2019-07-16T12:02:17Z</time>
      </trkpt>
      <trkpt lat="48.36037" lon="-1.62414">
        <ele>85.5</ele>
        <time>2019-07-16T12:02:18Z</time>
      </trkpt>
      <trkpt lat="48.36041" lon="-1.62412">
        <ele>85.9</ele>
        <time>2019-07-16T12:02:19Z</time>
      </trkpt>
      <trkpt lat="48.36045" lon="-1.62409">
        <ele>86.3</ele>
        <time>2019-07-16T12:02:20Z</time>
      </trkpt>
      <trkpt lat="48.36049" lon="-1.62406">
        <ele>86.3</ele>
        <time>2019-07-16T12:02:21Z</time>
      </trkpt>
      <trkpt lat="48.36053" lon="-1.62403">
        <ele>86.3</ele>
        <time>2019-07-16T12:02:22Z</time>
      </trkpt>
      <trkpt lat="48.36057" lon="-1.624">
        <ele>86.6</ele>
        <time>2019-07-16T12:02:23Z</time>
      </trkpt>
      <trkpt lat="48.36062" lon="-1.62397">
        <ele>86.6</ele>
        <time>2019-07-16T12:02:24Z</time>
      </trkpt>
      <trkpt lat="48.36066" lon="-1.62393">
        <ele>86.7</ele>
        <time>2019-07-16T12:02:25Z</time>
      </trkpt>
      <trkpt lat="48.3607" lon="-1.6239">
        <ele>86.1</ele>
        <time>2019-07-16T12:02:26Z</time>
      </trkpt>
      <trkpt lat="48.36073" lon="-1.62387">
        <ele>85.7</ele>
        <time>2019-07-16T12:02:27Z</time>
      </trkpt>
      <trkpt lat="48.36077" lon="-1.62383">
        <ele>85.9</ele>
        <time>2019-07-16T12:02:28Z</time>
      </trkpt>
      <trkpt lat="48.3608" lon="-1.6238">
        <ele>86.1</ele>
        <time>2019-07-16T12:02:29Z</time>
      </trkpt>
      <trkpt lat="48.36084" lon="-1.62377">
        <ele>86</ele>
        <time>2019-07-16T12:02:30Z</time>
      </trkpt>
      <trkpt lat="48.36088" lon="-1.62374">
        <ele>85.9</ele>
        <time>2019-07-16T12:02:31Z</time>
      </trkpt>
      <trkpt lat="48.36092" lon="-1.62372">
        <ele>85.9</ele>
        <time>2019-07-16T12:02:32Z</time>
      </trkpt>
      <trkpt lat="48.36095" lon="-1.62368">
        <ele>85.7</ele>
        <time>2019-07-16T12:02:33Z</time>
      </trkpt>
      <trkpt lat="48.36099" lon="-1.62365">
        <ele>85.5</ele>
        <time>2019-07-16T12:02:34Z</time>
      </trkpt>
      <trkpt lat="48.36103" lon="-1.62362">
        <ele>85</ele>
        <time>2019-07-16T12:02:35Z</time>
      </trkpt>
      <trkpt lat="48.36107" lon="-1.62359">
        <ele>84.4</ele>
        <time>2019-07-16T12:02:36Z</time>
      </trkpt>
      <trkpt lat="48.36111" lon="-1.62356">
        <ele>84.4</ele>
        <time>2019-07-16T12:02:37Z</time>
      </trkpt>
      <trkpt lat="48.36115" lon="-1.62353">
        <ele>84.7</ele>
        <time>2019-07-16T12:02:38Z</time>
      </trkpt>
      <trkpt lat="48.36118" lon="-1.62351">
        <ele>84.7</ele>
        <time>2019-07-16T12:02:39Z</time>
      </trkpt>
      <trkpt lat="48.36121" lon="-1.62348">
        <ele>84.6</ele>
        <time>2019-07-16T12:02:40Z</time>
      </trkpt>
      <trkpt lat="48.36125" lon="-1.62345">
        <ele>84.7</ele>
        <time>2019-07-16T12:02:41Z</time>
      </trkpt>
      <trkpt lat="48.36129" lon="-1.62342">
        <ele>84.8</ele>
        <time>2019-07-16T12:02:42Z</time>
      </trkpt>
      <trkpt lat="48.36133" lon="-1.6234">
        <ele>84.8</ele>
        <time>2019-07-16T12:02:43Z</time>
      </trkpt>
      <trkpt lat="48.36136" lon="-1.62337">
        <ele>84.8</ele>
        <time>2019-07-16T12:02:44Z</time>
      </trkpt>
      <trkpt lat="48.3614" lon="-1.62334">
        <ele>85</ele>
        <time>2019-07-16T12:02:45Z</time>
      </trkpt>
      <trkpt lat="48.36144" lon="-1.62331">
        <ele>84.9</ele>
        <time>2019-07-16T12:02:46Z</time>
      </trkpt>
      <trkpt lat="48.36149" lon="-1.62327">
        <ele>84.6</ele>
        <time>2019-07-16T12:02:47Z</time>
      </trkpt>
      <trkpt lat="48.36152" lon="-1.62324">
        <ele>84.1</ele>
        <time>2019-07-16T12:02:48Z</time>
      </trkpt>
      <trkpt lat="48.36157" lon="-1.6232">
        <ele>83.9</ele>
        <time>2019-07-16T12:02:49Z</time>
      </trkpt>
      <trkpt lat="48.36161" lon="-1.62318">
        <ele>83.6</ele>
        <time>2019-07-16T12:02:50Z</time>
      </trkpt>
      <trkpt lat="48.36164" lon="-1.62314">
        <ele>83.2</ele>
        <time>2019-07-16T12:02:51Z</time>
      </trkpt>
      <trkpt lat="48.36168" lon="-1.62311">
        <ele>83.1</ele>
        <time>2019-07-16T12:02:52Z</time>
      </trkpt>
      <trkpt lat="48.36172" lon="-1.62309">
        <ele>82.8</ele>
        <time>2019-07-16T12:02:53Z</time>
      </trkpt>
      <trkpt lat="48.36176" lon="-1.62306">
        <ele>82.8</ele>
        <time>2019-07-16T12:02:54Z</time>
      </trkpt>
      <trkpt lat="48.36179" lon="-1.62304">
        <ele>82.4</ele>
        <time>2019-07-16T12:02:55Z</time>
      </trkpt>
      <trkpt lat="48.36183" lon="-1.62301">
        <ele>82.2</ele>
        <time>2019-07-16T12:02:56Z</time>
      </trkpt>
      <trkpt lat="48.36187" lon="-1.62298">
        <ele>81.8</ele>
        <time>2019-07-16T12:02:57Z</time>
      </trkpt>
      <trkpt lat="48.3619" lon="-1.62295">
        <ele>81.8</ele>
        <time>2019-07-16T12:02:58Z</time>
      </trkpt>
      <trkpt lat="48.36194" lon="-1.62292">
        <ele>81.7</ele>
        <time>2019-07-16T12:02:59Z</time>
      </trkpt>
      <trkpt lat="48.36198" lon="-1.62289">
        <ele>81.4</ele>
        <time>2019-07-16T12:03:00Z</time>
      </trkpt>
      <trkpt lat="48.36202" lon="-1.62286">
        <ele>81.3</ele>
        <time>2019-07-16T12:03:01Z</time>
      </trkpt>
      <trkpt lat="48.36205" lon="-1.62283">
        <ele>81.3</ele>
        <time>2019-07-16T12:03:02Z</time>
      </trkpt>
      <trkpt lat="48.36209" lon="-1.6228">
        <ele>81</ele>
        <time>2019-07-16T12:03:03Z</time>
      </trkpt>
      <trkpt lat="48.36213" lon="-1.62278">
        <ele>81.3</ele>
        <time>2019-07-16T12:03:04Z</time>
      </trkpt>
      <trkpt lat="48.36216" lon="-1.62275">
        <ele>81.2</ele>
        <time>2019-07-16T12:03:05Z</time>
      </trkpt>
      <trkpt lat="48.3622" lon="-1.62272">
        <ele>81.4</ele>
        <time>2019-07-16T12:03:06Z</time>
      </trkpt>
      <trkpt lat="48.36224" lon="-1.62269">
        <ele>82</ele>
        <time>2019-07-16T12:03:07Z</time>
      </trkpt>
      <trkpt lat="48.36227" lon="-1.62266">
        <ele>82.1</ele>
        <time>2019-07-16T12:03:08Z</time>
      </trkpt>
      <trkpt lat="48.36231" lon="-1.62264">
        <ele>82.4</ele>
        <time>2019-07-16T12:03:09Z</time>
      </trkpt>
      <trkpt lat="48.36235" lon="-1.62261">
        <ele>82.8</ele>
        <time>2019-07-16T12:03:10Z</time>
      </trkpt>
      <trkpt lat="48.36239" lon="-1.62258">
        <ele>82.9</ele>
        <time>2019-07-16T12:03:11Z</time>
      </trkpt>
      <trkpt lat="48.36243" lon="-1.62255">
        <ele>83.1</ele>
        <time>2019-07-16T12:03:12Z</time>
      </trkpt>
      <trkpt lat="48.36247" lon="-1.62253">
        <ele>83.5</ele>
        <time>2019-07-16T12:03:13Z</time>
      </trkpt>
      <trkpt lat="48.36251" lon="-1.6225">
        <ele>83.7</ele>
        <time>2019-07-16T12:03:14Z</time>
      </trkpt>
      <trkpt lat="48.36255" lon="-1.62247">
        <ele>83.4</ele>
        <time>2019-07-16T12:03:15Z</time>
      </trkpt>
      <trkpt lat="48.36258" lon="-1.62244">
        <ele>83</ele>
        <time>2019-07-16T12:03:16Z</time>
      </trkpt>
      <trkpt lat="48.36262" lon="-1.62241">
        <ele>83.1</ele>
        <time>2019-07-16T12:03:17Z</time>
      </trkpt>
      <trkpt lat="48.36266" lon="-1.62238">
        <ele>83</ele>
        <time>2019-07-16T12:03:18Z</time>
      </trkpt>
      <trkpt lat="48.36269" lon="-1.62236">
        <ele>82.9</ele>
        <time>2019-07-16T12:03:19Z</time>
      </trkpt>
      <trkpt lat="48.36273" lon="-1.62233">
        <ele>83</ele>
        <time>2019-07-16T12:03:20Z</time>
      </trkpt>
      <trkpt lat="48.36277" lon="-1.6223">
        <ele>82.8</ele>
        <time>2019-07-16T12:03:21Z</time>
      </trkpt>
      <trkpt lat="48.36281" lon="-1.62227">
        <ele>82.5</ele>
        <time>2019-07-16T12:03:22Z</time>
      </trkpt>
      <trkpt lat="48.36284" lon="-1.62224">
        <ele>82.5</ele>
        <time>2019-07-16T12:03:23Z</time>
      </trkpt>
      <trkpt lat="48.36288" lon="-1.62222">
        <ele>82.6</ele>
        <time>2019-07-16T12:03:24Z</time>
      </trkpt>
      <trkpt lat="48.36292" lon="-1.6222">
        <ele>82.7</ele>
        <time>2019-07-16T12:03:25Z</time>
      </trkpt>
      <trkpt lat="48.36295" lon="-1.62217">
        <ele>82.7</ele>
        <time>2019-07-16T12:03:26Z</time>
      </trkpt>
      <trkpt lat="48.36299" lon="-1.62214">
        <ele>82.9</ele>
        <time>2019-07-16T12:03:27Z</time>
      </trkpt>
      <trkpt lat="48.36302" lon="-1.62211">
        <ele>82.8</ele>
        <time>2019-07-16T12:03:28Z</time>
      </trkpt>
      <trkpt lat="48.36306" lon="-1.62208">
        <ele>82.6</ele>
        <time>2019-07-16T12:03:29Z</time>
      </trkpt>
      <trkpt lat="48.36309" lon="-1.62205">
        <ele>82.4</ele>
        <time>2019-07-16T12:03:30Z</time>
      </trkpt>
      <trkpt lat="48.36313" lon="-1.62203">
        <ele>82.8</ele>
        <time>2019-07-16T12:03:31Z</time>
      </trkpt>
      <trkpt lat="48.36316" lon="-1.622">
        <ele>83</ele>
        <time>2019-07-16T12:03:32Z</time>
      </trkpt>
      <trkpt lat="48.3632" lon="-1.62198">
        <ele>83.1</ele>
        <time>2019-07-16T12:03:33Z</time>
      </trkpt>
      <trkpt lat="48.36323" lon="-1.62195">
        <ele>83.4</ele>
        <time>2019-07-16T12:03:34Z</time>
      </trkpt>
      <trkpt lat="48.36327" lon="-1.62193">
        <ele>83.8</ele>
        <time>2019-07-16T12:03:35Z</time>
      </trkpt>
      <trkpt lat="48.3633" lon="-1.6219">
        <ele>84</ele>
        <time>2019-07-16T12:03:36Z</time>
      </trkpt>
      <trkpt lat="48.36334" lon="-1.62188">
        <ele>84.2</ele>
        <time>2019-07-16T12:03:37Z</time>
      </trkpt>
      <trkpt lat="48.36337" lon="-1.62185">
        <ele>84.4</ele>
        <time>2019-07-16T12:03:38Z</time>
      </trkpt>
      <trkpt lat="48.3634" lon="-1.62182">
        <ele>84.2</ele>
        <time>2019-07-16T12:03:39Z</time>
      </trkpt>
      <trkpt lat="48.36344" lon="-1.6218">
        <ele>84</ele>
        <time>2019-07-16T12:03:40Z</time>
      </trkpt>
      <trkpt lat="48.36348" lon="-1.62177">
        <ele>84</ele>
        <time>2019-07-16T12:03:41Z</time>
      </trkpt>
      <trkpt lat="48.36351" lon="-1.62175">
        <ele>84</ele>
        <time>2019-07-16T12:03:42Z</time>
      </trkpt>
      <trkpt lat="48.36354" lon="-1.62172">
        <ele>83.8</ele>
        <time>2019-07-16T12:03:43Z</time>
      </trkpt>
      <trkpt lat="48.36358" lon="-1.6217">
        <ele>83.6</ele>
        <time>2019-07-16T12:03:44Z</time>
      </trkpt>
      <trkpt lat="48.36361" lon="-1.62167">
        <ele>83.3</ele>
        <time>2019-07-16T12:03:45Z</time>
      </trkpt>
      <trkpt lat="48.36364" lon="-1.62164">
        <ele>83.4</ele>
        <time>2019-07-16T12:03:46Z</time>
      </trkpt>
      <trkpt lat="48.36368" lon="-1.62161">
        <ele>83.3</ele>
        <time>2019-07-16T12:03:47Z</time>
      </trkpt>
      <trkpt lat="48.36371" lon="-1.62158">
        <ele>83.4</ele>
        <time>2019-07-16T12:03:48Z</time>
      </trkpt>
      <trkpt lat="48.36375" lon="-1.62155">
        <ele>83.3</ele>
        <time>2019-07-16T12:03:49Z</time>
      </trkpt>
      <trkpt lat="48.36378" lon="-1.62153">
        <ele>83.3</ele>
        <time>2019-07-16T12:03:50Z</time>
      </trkpt>
      <trkpt lat="48.36381" lon="-1.6215">
        <ele>83.8</ele>
        <time>2019-07-16T12:03:51Z</time>
      </trkpt>
      <trkpt lat="48.36384" lon="-1.62146">
        <ele>84.2</ele>
        <time>2019-07-16T12:03:52Z</time>
      </trkpt>
      <trkpt lat="48.36387" lon="-1.62143">
        <ele>84.5</ele>
        <time>2019-07-16T12:03:53Z</time>
      </trkpt>
      <trkpt lat="48.3639" lon="-1.6214">
        <ele>84.9</ele>
        <time>2019-07-16T12:03:54Z</time>
      </trkpt>
      <trkpt lat="48.36393" lon="-1.62136">
        <ele>85.2</ele>
        <time>2019-07-16T12:03:55Z</time>
      </trkpt>
      <trkpt lat="48.36396" lon="-1.62133">
        <ele>85.1</ele>
        <time>2019-07-16T12:03:56Z</time>
      </trkpt>
      <trkpt lat="48.36398" lon="-1.6213">
        <ele>85.4</ele>
        <time>2019-07-16T12:03:57Z</time>
      </trkpt>
      <trkpt lat="48.36401" lon="-1.62127">
        <ele>85.5</ele>
        <time>2019-07-16T12:03:58Z</time>
      </trkpt>
      <trkpt lat="48.36403" lon="-1.62124">
        <ele>85.3</ele>
        <time>2019-07-16T12:03:59Z</time>
      </trkpt>
      <trkpt lat="48.36406" lon="-1.62121">
        <ele>85.4</ele>
        <time>2019-07-16T12:04:00Z</time>
      </trkpt>
      <trkpt lat="48.36408" lon="-1.62118">
        <ele>85.4</ele>
        <time>2019-07-16T12:04:01Z</time>
      </trkpt>
      <trkpt lat="48.36411" lon="-1.62114">
        <ele>85.4</ele>
        <time>2019-07-16T12:04:02Z</time>
      </trkpt>
      <trkpt lat="48.36414" lon="-1.62111">
        <ele>85.8</ele>
        <time>2019-07-16T12:04:03Z</time>
      </trkpt>
      <trkpt lat="48.36416" lon="-1.62108">
        <ele>85.9</ele>
        <time>2019-07-16T12:04:04Z</time>
      </trkpt>
      <trkpt lat="48.36419" lon="-1.62105">
        <ele>86.1</ele>
        <time>2019-07-16T12:04:05Z</time>
      </trkpt>
      <trkpt lat="48.36422" lon="-1.62101">
        <ele>86.1</ele>
        <time>2019-07-16T12:04:06Z</time>
      </trkpt>
      <trkpt lat="48.36425" lon="-1.62098">
        <ele>85.9</ele>
        <time>2019-07-16T12:04:07Z</time>
      </trkpt>
      <trkpt lat="48.36427" lon="-1.62094">
        <ele>86.3</ele>
        <time>2019-07-16T12:04:08Z</time>
      </trkpt>
      <trkpt lat="48.3643" lon="-1.62091">
        <ele>86.5</ele>
        <time>2019-07-16T12:04:09Z</time>
      </trkpt>
      <trkpt lat="48.36433" lon="-1.62087">
        <ele>86.7</ele>
        <time>2019-07-16T12:04:10Z</time>
      </trkpt>
      <trkpt lat="48.36436" lon="-1.62084">
        <ele>86.9</ele>
        <time>2019-07-16T12:04:11Z</time>
      </trkpt>
      <trkpt lat="48.36439" lon="-1.6208">
        <ele>87.1</ele>
        <time>2019-07-16T12:04:12Z</time>
      </trkpt>
      <trkpt lat="48.36441" lon="-1.62076">
        <ele>87.1</ele>
        <time>2019-07-16T12:04:13Z</time>
      </trkpt>
      <trkpt lat="48.36445" lon="-1.62072">
        <ele>87.3</ele>
        <time>2019-07-16T12:04:14Z</time>
      </trkpt>
      <trkpt lat="48.36448" lon="-1.62068">
        <ele>87.7</ele>
        <time>2019-07-16T12:04:15Z</time>
      </trkpt>
      <trkpt lat="48.36451" lon="-1.62063">
        <ele>87.8</ele>
        <time>2019-07-16T12:04:16Z</time>
      </trkpt>
      <trkpt lat="48.36454" lon="-1.62058">
        <ele>87.5</ele>
        <time>2019-07-16T12:04:17Z</time>
      </trkpt>
      <trkpt lat="48.36457" lon="-1.62053">
        <ele>87.1</ele>
        <time>2019-07-16T12:04:18Z</time>
      </trkpt>
      <trkpt lat="48.3646" lon="-1.62048">
        <ele>86.7</ele>
        <time>2019-07-16T12:04:19Z</time>
      </trkpt>
      <trkpt lat="48.36464" lon="-1.62044">
        <ele>86.3</ele>
        <time>2019-07-16T12:04:20Z</time>
      </trkpt>
      <trkpt lat="48.36467" lon="-1.6204">
        <ele>85.8</ele>
        <time>2019-07-16T12:04:21Z</time>
      </trkpt>
      <trkpt lat="48.3647" lon="-1.62035">
        <ele>85.6</ele>
        <time>2019-07-16T12:04:22Z</time>
      </trkpt>
      <trkpt lat="48.36473" lon="-1.62031">
        <ele>85.5</ele>
        <time>2019-07-16T12:04:23Z</time>
      </trkpt>
      <trkpt lat="48.36477" lon="-1.62027">
        <ele>85.7</ele>
        <time>2019-07-16T12:04:24Z</time>
      </trkpt>
      <trkpt lat="48.3648" lon="-1.62023">
        <ele>85.9</ele>
        <time>2019-07-16T12:04:25Z</time>
      </trkpt>
      <trkpt lat="48.36483" lon="-1.62018">
        <ele>85.7</ele>
        <time>2019-07-16T12:04:26Z</time>
      </trkpt>
      <trkpt lat="48.36486" lon="-1.62014">
        <ele>85.6</ele>
        <time>2019-07-16T12:04:27Z</time>
      </trkpt>
      <trkpt lat="48.3649" lon="-1.6201">
        <ele>85.7</ele>
        <time>2019-07-16T12:04:28Z</time>
      </trkpt>
      <trkpt lat="48.36493" lon="-1.62005">
        <ele>85.7</ele>
        <time>2019-07-16T12:04:29Z</time>
      </trkpt>
      <trkpt lat="48.36496" lon="-1.62001">
        <ele>85.5</ele>
        <time>2019-07-16T12:04:30Z</time>
      </trkpt>
      <trkpt lat="48.36499" lon="-1.61997">
        <ele>85.7</ele>
        <time>2019-07-16T12:04:31Z</time>
      </trkpt>
      <trkpt lat="48.36503" lon="-1.61993">
        <ele>85.9</ele>
        <time>2019-07-16T12:04:32Z</time>
      </trkpt>
      <trkpt lat="48.36506" lon="-1.61989">
        <ele>85.9</ele>
        <time>2019-07-16T12:04:33Z</time>
      </trkpt>
      <trkpt lat="48.36509" lon="-1.61985">
        <ele>85.9</ele>
        <time>2019-07-16T12:04:34Z</time>
      </trkpt>
      <trkpt lat="48.36512" lon="-1.61981">
        <ele>85.9</ele>
        <time>2019-07-16T12:04:35Z</time>
      </trkpt>
      <trkpt lat="48.36515" lon="-1.61977">
        <ele>86.4</ele>
        <time>2019-07-16T12:04:36Z</time>
      </trkpt>
      <trkpt lat="48.36519" lon="-1.61973">
        <ele>86</ele>
        <time>2019-07-16T12:04:37Z</time>
      </trkpt>
      <trkpt lat="48.36522" lon="-1.61968">
        <ele>86</ele>
        <time>2019-07-16T12:04:38Z</time>
      </trkpt>
      <trkpt lat="48.36525" lon="-1.61964">
        <ele>86.5</ele>
        <time>2019-07-16T12:04:39Z</time>
      </trkpt>
      <trkpt lat="48.36528" lon="-1.6196">
        <ele>87.1</ele>
        <time>2019-07-16T12:04:40Z</time>
      </trkpt>
      <trkpt lat="48.36532" lon="-1.61956">
        <ele>87.4</ele>
        <time>2019-07-16T12:04:41Z</time>
      </trkpt>
      <trkpt lat="48.36535" lon="-1.61952">
        <ele>87</ele>
        <time>2019-07-16T12:04:42Z</time>
      </trkpt>
      <trkpt lat="48.36538" lon="-1.61948">
        <ele>87</ele>
        <time>2019-07-16T12:04:43Z</time>
      </trkpt>
      <trkpt lat="48.36541" lon="-1.61944">
        <ele>87</ele>
        <time>2019-07-16T12:04:44Z</time>
      </trkpt>
      <trkpt lat="48.36544" lon="-1.61939">
        <ele>87.4</ele>
        <time>2019-07-16T12:04:45Z</time>
      </trkpt>
      <trkpt lat="48.36547" lon="-1.61936">
        <ele>87.8</ele>
        <time>2019-07-16T12:04:46Z</time>
      </trkpt>
      <trkpt lat="48.3655" lon="-1.61931">
        <ele>87.6</ele>
        <time>2019-07-16T12:04:47Z</time>
      </trkpt>
      <trkpt lat="48.36553" lon="-1.61927">
        <ele>87.8</ele>
        <time>2019-07-16T12:04:48Z</time>
      </trkpt>
      <trkpt lat="48.36556" lon="-1.61922">
        <ele>87.8</ele>
        <time>2019-07-16T12:04:49Z</time>
      </trkpt>
      <trkpt lat="48.36559" lon="-1.61918">
        <ele>87.9</ele>
        <time>2019-07-16T12:04:50Z</time>
      </trkpt>
      <trkpt lat="48.36562" lon="-1.61914">
        <ele>88.5</ele>
        <time>2019-07-16T12:04:51Z</time>
      </trkpt>
      <trkpt lat="48.36565" lon="-1.6191">
        <ele>89.2</ele>
        <time>2019-07-16T12:04:52Z</time>
      </trkpt>
      <trkpt lat="48.36567" lon="-1.61906">
        <ele>89.3</ele>
        <time>2019-07-16T12:04:53Z</time>
      </trkpt>
      <trkpt lat="48.3657" lon="-1.61903">
        <ele>89.1</ele>
        <time>2019-07-16T12:04:54Z</time>
      </trkpt>
      <trkpt lat="48.36572" lon="-1.61899">
        <ele>88.9</ele>
        <time>2019-07-16T12:04:55Z</time>
      </trkpt>
      <trkpt lat="48.36574" lon="-1.61895">
        <ele>88.5</ele>
        <time>2019-07-16T12:04:56Z</time>
      </trkpt>
      <trkpt lat="48.36577" lon="-1.61893">
        <ele>88.4</ele>
        <time>2019-07-16T12:04:57Z</time>
      </trkpt>
      <trkpt lat="48.36578" lon="-1.61889">
        <ele>87.9</ele>
        <time>2019-07-16T12:04:58Z</time>
      </trkpt>
      <trkpt lat="48.36581" lon="-1.61886">
        <ele>87.7</ele>
        <time>2019-07-16T12:04:59Z</time>
      </trkpt>
      <trkpt lat="48.36583" lon="-1.61883">
        <ele>87.4</ele>
        <time>2019-07-16T12:05:00Z</time>
      </trkpt>
      <trkpt lat="48.36585" lon="-1.61881">
        <ele>87.5</ele>
        <time>2019-07-16T12:05:01Z</time>
      </trkpt>
      <trkpt lat="48.36587" lon="-1.61878">
        <ele>87.5</ele>
        <time>2019-07-16T12:05:02Z</time>
      </trkpt>
      <trkpt lat="48.36589" lon="-1.61875">
        <ele>87.4</ele>
        <time>2019-07-16T12:05:03Z</time>
      </trkpt>
      <trkpt lat="48.36591" lon="-1.61872">
        <ele>87.3</ele>
        <time>2019-07-16T12:05:04Z</time>
      </trkpt>
      <trkpt lat="48.36593" lon="-1.61869">
        <ele>87.1</ele>
        <time>2019-07-16T12:05:05Z</time>
      </trkpt>
      <trkpt lat="48.36596" lon="-1.61866">
        <ele>87.2</ele>
        <time>2019-07-16T12:05:06Z</time>
      </trkpt>
      <trkpt lat="48.36597" lon="-1.61863">
        <ele>87.1</ele>
        <time>2019-07-16T12:05:07Z</time>
      </trkpt>
      <trkpt lat="48.366" lon="-1.6186">
        <ele>87.1</ele>
        <time>2019-07-16T12:05:08Z</time>
      </trkpt>
      <trkpt lat="48.36602" lon="-1.61857">
        <ele>87.1</ele>
        <time>2019-07-16T12:05:09Z</time>
      </trkpt>
      <trkpt lat="48.36604" lon="-1.61854">
        <ele>87.5</ele>
        <time>2019-07-16T12:05:10Z</time>
      </trkpt>
      <trkpt lat="48.36606" lon="-1.61852">
        <ele>87.8</ele>
        <time>2019-07-16T12:05:11Z</time>
      </trkpt>
      <trkpt lat="48.36607" lon="-1.61849">
        <ele>88.1</ele>
        <time>2019-07-16T12:05:12Z</time>
      </trkpt>
      <trkpt lat="48.3661" lon="-1.61847">
        <ele>88.6</ele>
        <time>2019-07-16T12:05:13Z</time>
      </trkpt>
      <trkpt lat="48.36612" lon="-1.61844">
        <ele>89.1</ele>
        <time>2019-07-16T12:05:14Z</time>
      </trkpt>
      <trkpt lat="48.36614" lon="-1.61842">
        <ele>89.3</ele>
        <time>2019-07-16T12:05:15Z</time>
      </trkpt>
      <trkpt lat="48.36616" lon="-1.6184">
        <ele>89.4</ele>
        <time>2019-07-16T12:05:16Z</time>
      </trkpt>
      <trkpt lat="48.36618" lon="-1.61837">
        <ele>89.7</ele>
        <time>2019-07-16T12:05:17Z</time>
      </trkpt>
      <trkpt lat="48.3662" lon="-1.61835">
        <ele>90.7</ele>
        <time>2019-07-16T12:05:18Z</time>
      </trkpt>
      <trkpt lat="48.36622" lon="-1.61834">
        <ele>91.9</ele>
        <time>2019-07-16T12:05:19Z</time>
      </trkpt>
      <trkpt lat="48.36624" lon="-1.61832">
        <ele>92.5</ele>
        <time>2019-07-16T12:05:20Z</time>
      </trkpt>
      <trkpt lat="48.36627" lon="-1.61831">
        <ele>93</ele>
        <time>2019-07-16T12:05:21Z</time>
      </trkpt>
      <trkpt lat="48.3663" lon="-1.61829">
        <ele>93.5</ele>
        <time>2019-07-16T12:05:22Z</time>
      </trkpt>
      <trkpt lat="48.36632" lon="-1.61827">
        <ele>93.3</ele>
        <time>2019-07-16T12:05:23Z</time>
      </trkpt>
      <trkpt lat="48.36635" lon="-1.61825">
        <ele>93.4</ele>
        <time>2019-07-16T12:05:24Z</time>
      </trkpt>
      <trkpt lat="48.36638" lon="-1.61823">
        <ele>93.2</ele>
        <time>2019-07-16T12:05:25Z</time>
      </trkpt>
      <trkpt lat="48.36641" lon="-1.61821">
        <ele>93</ele>
        <time>2019-07-16T12:05:26Z</time>
      </trkpt>
      <trkpt lat="48.36644" lon="-1.6182">
        <ele>93.1</ele>
        <time>2019-07-16T12:05:27Z</time>
      </trkpt>
      <trkpt lat="48.36647" lon="-1.61818">
        <ele>92.8</ele>
        <time>2019-07-16T12:05:28Z</time>
      </trkpt>
      <trkpt lat="48.36649" lon="-1.61816">
        <ele>93</ele>
        <time>2019-07-16T12:05:29Z</time>
      </trkpt>
      <trkpt lat="48.36652" lon="-1.61814">
        <ele>92.5</ele>
        <time>2019-07-16T12:05:30Z</time>
      </trkpt>
      <trkpt lat="48.36656" lon="-1.61813">
        <ele>92.2</ele>
        <time>2019-07-16T12:05:31Z</time>
      </trkpt>
      <trkpt lat="48.36659" lon="-1.61811">
        <ele>91.8</ele>
        <time>2019-07-16T12:05:32Z</time>
      </trkpt>
      <trkpt lat="48.36662" lon="-1.6181">
        <ele>91.2</ele>
        <time>2019-07-16T12:05:33Z</time>
      </trkpt>
      <trkpt lat="48.36665" lon="-1.61808">
        <ele>90.7</ele>
        <time>2019-07-16T12:05:34Z</time>
      </trkpt>
      <trkpt lat="48.36668" lon="-1.61807">
        <ele>90.2</ele>
        <time>2019-07-16T12:05:35Z</time>
      </trkpt>
      <trkpt lat="48.36671" lon="-1.61805">
        <ele>89.9</ele>
        <time>2019-07-16T12:05:36Z</time>
      </trkpt>
      <trkpt lat="48.36673" lon="-1.61803">
        <ele>89.9</ele>
        <time>2019-07-16T12:05:37Z</time>
      </trkpt>
      <trkpt lat="48.36676" lon="-1.61802">
        <ele>90</ele>
        <time>2019-07-16T12:05:38Z</time>
      </trkpt>
      <trkpt lat="48.36679" lon="-1.618">
        <ele>90</ele>
        <time>2019-07-16T12:05:39Z</time>
      </trkpt>
      <trkpt lat="48.36682" lon="-1.61799">
        <ele>89.7</ele>
        <time>2019-07-16T12:05:40Z</time>
      </trkpt>
      <trkpt lat="48.36685" lon="-1.61797">
        <ele>89.6</ele>
        <time>2019-07-16T12:05:41Z</time>
      </trkpt>
      <trkpt lat="48.36689" lon="-1.61796">
        <ele>89.3</ele>
        <time>2019-07-16T12:05:42Z</time>
      </trkpt>
      <trkpt lat="48.36692" lon="-1.61794">
        <ele>89</ele>
        <time>2019-07-16T12:05:43Z</time>
      </trkpt>
      <trkpt lat="48.36696" lon="-1.61792">
        <ele>88.8</ele>
        <time>2019-07-16T12:05:44Z</time>
      </trkpt>
      <trkpt lat="48.367" lon="-1.6179">
        <ele>88.4</ele>
        <time>2019-07-16T12:05:45Z</time>
      </trkpt>
      <trkpt lat="48.36704" lon="-1.61788">
        <ele>87.8</ele>
        <time>2019-07-16T12:05:46Z</time>
      </trkpt>
      <trkpt lat="48.36707" lon="-1.61786">
        <ele>86.9</ele>
        <time>2019-07-16T12:05:47Z</time>
      </trkpt>
      <trkpt lat="48.36711" lon="-1.61784">
        <ele>86.9</ele>
        <time>2019-07-16T12:05:48Z</time>
      </trkpt>
      <trkpt lat="48.36715" lon="-1.61782">
        <ele>86.2</ele>
        <time>2019-07-16T12:05:49Z</time>
      </trkpt>
      <trkpt lat="48.36718" lon="-1.6178">
        <ele>85.9</ele>
        <time>2019-07-16T12:05:50Z</time>
      </trkpt>
      <trkpt lat="48.36722" lon="-1.61779">
        <ele>85.6</ele>
        <time>2019-07-16T12:05:51Z</time>
      </trkpt>
      <trkpt lat="48.36726" lon="-1.61777">
        <ele>85.5</ele>
        <time>2019-07-16T12:05:52Z</time>
      </trkpt>
      <trkpt lat="48.36729" lon="-1.61774">
        <ele>85.7</ele>
        <time>2019-07-16T12:05:53Z</time>
      </trkpt>
      <trkpt lat="48.36733" lon="-1.61772">
        <ele>85.8</ele>
        <time>2019-07-16T12:05:54Z</time>
      </trkpt>
      <trkpt lat="48.36737" lon="-1.6177">
        <ele>85.7</ele>
        <time>2019-07-16T12:05:55Z</time>
      </trkpt>
      <trkpt lat="48.3674" lon="-1.61768">
        <ele>85.7</ele>
        <time>2019-07-16T12:05:56Z</time>
      </trkpt>
      <trkpt lat="48.36744" lon="-1.61766">
        <ele>85.5</ele>
        <time>2019-07-16T12:05:57Z</time>
      </trkpt>
      <trkpt lat="48.36747" lon="-1.61764">
        <ele>85.3</ele>
        <time>2019-07-16T12:05:58Z</time>
      </trkpt>
      <trkpt lat="48.36751" lon="-1.61762">
        <ele>85.2</ele>
        <time>2019-07-16T12:05:59Z</time>
      </trkpt>
      <trkpt lat="48.36755" lon="-1.6176">
        <ele>85.2</ele>
        <time>2019-07-16T12:06:00Z</time>
      </trkpt>
      <trkpt lat="48.36759" lon="-1.61758">
        <ele>85</ele>
        <time>2019-07-16T12:06:01Z</time>
      </trkpt>
      <trkpt lat="48.36763" lon="-1.61756">
        <ele>85</ele>
        <time>2019-07-16T12:06:02Z</time>
      </trkpt>
      <trkpt lat="48.36767" lon="-1.61754">
        <ele>85.4</ele>
        <time>2019-07-16T12:06:03Z</time>
      </trkpt>
      <trkpt lat="48.36771" lon="-1.61751">
        <ele>85.3</ele>
        <time>2019-07-16T12:06:04Z</time>
      </trkpt>
      <trkpt lat="48.36776" lon="-1.61749">
        <ele>85.6</ele>
        <time>2019-07-16T12:06:05Z</time>
      </trkpt>
      <trkpt lat="48.3678" lon="-1.61747">
        <ele>85.5</ele>
        <time>2019-07-16T12:06:06Z</time>
      </trkpt>
      <trkpt lat="48.36784" lon="-1.61745">
        <ele>85.4</ele>
        <time>2019-07-16T12:06:07Z</time>
      </trkpt>
      <trkpt lat="48.36788" lon="-1.61743">
        <ele>85.3</ele>
        <time>2019-07-16T12:06:08Z</time>
      </trkpt>
      <trkpt lat="48.36792" lon="-1.6174">
        <ele>85.3</ele>
        <time>2019-07-16T12:06:09Z</time>
      </trkpt>
      <trkpt lat="48.36796" lon="-1.61738">
        <ele>85.4</ele>
        <time>2019-07-16T12:06:10Z</time>
      </trkpt>
      <trkpt lat="48.368" lon="-1.61736">
        <ele>85.5</ele>
        <time>2019-07-16T12:06:11Z</time>
      </trkpt>
      <trkpt lat="48.36804" lon="-1.61734">
        <ele>85.6</ele>
        <time>2019-07-16T12:06:12Z</time>
      </trkpt>
      <trkpt lat="48.36808" lon="-1.61732">
        <ele>85.4</ele>
        <time>2019-07-16T12:06:13Z</time>
      </trkpt>
      <trkpt lat="48.36812" lon="-1.6173">
        <ele>85.1</ele>
        <time>2019-07-16T12:06:14Z</time>
      </trkpt>
      <trkpt lat="48.36816" lon="-1.61728">
        <ele>84.7</ele>
        <time>2019-07-16T12:06:15Z</time>
      </trkpt>
      <trkpt lat="48.3682" lon="-1.61726">
        <ele>84.6</ele>
        <time>2019-07-16T12:06:16Z</time>
      </trkpt>
      <trkpt lat="48.36824" lon="-1.61723">
        <ele>84.1</ele>
        <time>2019-07-16T12:06:17Z</time>
      </trkpt>
      <trkpt lat="48.36828" lon="-1.6172">
        <ele>84.3</ele>
        <time>2019-07-16T12:06:18Z</time>
      </trkpt>
      <trkpt lat="48.36832" lon="-1.61718">
        <ele>84.3</ele>
        <time>2019-07-16T12:06:19Z</time>
      </trkpt>
      <trkpt lat="48.36836" lon="-1.61716">
        <ele>84.6</ele>
        <time>2019-07-16T12:06:20Z</time>
      </trkpt>
      <trkpt lat="48.36839" lon="-1.61714">
        <ele>84.4</ele>
        <time>2019-07-16T12:06:21Z</time>
      </trkpt>
      <trkpt lat="48.36843" lon="-1.61711">
        <ele>84.3</ele>
        <time>2019-07-16T12:06:22Z</time>
      </trkpt>
      <trkpt lat="48.36846" lon="-1.61709">
        <ele>84.4</ele>
        <time>2019-07-16T12:06:23Z</time>
      </trkpt>
      <trkpt lat="48.3685" lon="-1.61706">
        <ele>84.5</ele>
        <time>2019-07-16T12:06:24Z</time>
      </trkpt>
      <trkpt lat="48.36853" lon="-1.61704">
        <ele>84.1</ele>
        <time>2019-07-16T12:06:25Z</time>
      </trkpt>
      <trkpt lat="48.36857" lon="-1.61701">
        <ele>84.1</ele>
        <time>2019-07-16T12:06:26Z</time>
      </trkpt>
      <trkpt lat="48.36861" lon="-1.61699">
        <ele>84.6</ele>
        <time>2019-07-16T12:06:27Z</time>
      </trkpt>
      <trkpt lat="48.36865" lon="-1.61696">
        <ele>84.9</ele>
        <time>2019-07-16T12:06:28Z</time>
      </trkpt>
      <trkpt lat="48.36869" lon="-1.61693">
        <ele>84.9</ele>
        <time>2019-07-16T12:06:29Z</time>
      </trkpt>
      <trkpt lat="48.36873" lon="-1.6169">
        <ele>84.9</ele>
        <time>2019-07-16T12:06:30Z</time>
      </trkpt>
      <trkpt lat="48.36876" lon="-1.61687">
        <ele>85</ele>
        <time>2019-07-16T12:06:31Z</time>
      </trkpt>
      <trkpt lat="48.3688" lon="-1.61684">
        <ele>85.1</ele>
        <time>2019-07-16T12:06:32Z</time>
      </trkpt>
      <trkpt lat="48.36884" lon="-1.61681">
        <ele>85.2</ele>
        <time>2019-07-16T12:06:33Z</time>
      </trkpt>
      <trkpt lat="48.36888" lon="-1.61678">
        <ele>85.7</ele>
        <time>2019-07-16T12:06:34Z</time>
      </trkpt>
      <trkpt lat="48.36892" lon="-1.61675">
        <ele>86</ele>
        <time>2019-07-16T12:06:35Z</time>
      </trkpt>
      <trkpt lat="48.36896" lon="-1.61672">
        <ele>85.9</ele>
        <time>2019-07-16T12:06:36Z</time>
      </trkpt>
      <trkpt lat="48.369" lon="-1.61669">
        <ele>86</ele>
        <time>2019-07-16T12:06:37Z</time>
      </trkpt>
      <trkpt lat="48.36904" lon="-1.61666">
        <ele>85.9</ele>
        <time>2019-07-16T12:06:38Z</time>
      </trkpt>
      <trkpt lat="48.36908" lon="-1.61662">
        <ele>85.6</ele>
        <time>2019-07-16T12:06:39Z</time>
      </trkpt>
      <trkpt lat="48.36912" lon="-1.61659">
        <ele>85.3</ele>
        <time>2019-07-16T12:06:40Z</time>
      </trkpt>
      <trkpt lat="48.36917" lon="-1.61655">
        <ele>84.8</ele>
        <time>2019-07-16T12:06:41Z</time>
      </trkpt>
      <trkpt lat="48.36921" lon="-1.61652">
        <ele>84.6</ele>
        <time>2019-07-16T12:06:42Z</time>
      </trkpt>
      <trkpt lat="48.36926" lon="-1.61648">
        <ele>84.5</ele>
        <time>2019-07-16T12:06:43Z</time>
      </trkpt>
      <trkpt lat="48.3693" lon="-1.61643">
        <ele>84.2</ele>
        <time>2019-07-16T12:06:44Z</time>
      </trkpt>
      <trkpt lat="48.36934" lon="-1.61639">
        <ele>84.2</ele>
        <time>2019-07-16T12:06:45Z</time>
      </trkpt>
      <trkpt lat="48.36938" lon="-1.61635">
        <ele>84.1</ele>
        <time>2019-07-16T12:06:46Z</time>
      </trkpt>
      <trkpt lat="48.36942" lon="-1.6163">
        <ele>83.9</ele>
        <time>2019-07-16T12:06:47Z</time>
      </trkpt>
      <trkpt lat="48.36946" lon="-1.61625">
        <ele>83.4</ele>
        <time>2019-07-16T12:06:48Z</time>
      </trkpt>
      <trkpt lat="48.3695" lon="-1.61621">
        <ele>83.1</ele>
        <time>2019-07-16T12:06:49Z</time>
      </trkpt>
      <trkpt lat="48.36954" lon="-1.61616">
        <ele>83.1</ele>
        <time>2019-07-16T12:06:50Z</time>
      </trkpt>
      <trkpt lat="48.36958" lon="-1.61611">
        <ele>83.1</ele>
        <time>2019-07-16T12:06:51Z</time>
      </trkpt>
      <trkpt lat="48.36961" lon="-1.61606">
        <ele>82.7</ele>
        <time>2019-07-16T12:06:52Z</time>
      </trkpt>
      <trkpt lat="48.36965" lon="-1.61601">
        <ele>82.3</ele>
        <time>2019-07-16T12:06:53Z</time>
      </trkpt>
      <trkpt lat="48.36968" lon="-1.61595">
        <ele>82.2</ele>
        <time>2019-07-16T12:06:54Z</time>
      </trkpt>
      <trkpt lat="48.36972" lon="-1.6159">
        <ele>82.2</ele>
        <time>2019-07-16T12:06:55Z</time>
      </trkpt>
      <trkpt lat="48.36975" lon="-1.61585">
        <ele>82.4</ele>
        <time>2019-07-16T12:06:56Z</time>
      </trkpt>
      <trkpt lat="48.36978" lon="-1.6158">
        <ele>82.5</ele>
        <time>2019-07-16T12:06:57Z</time>
      </trkpt>
      <trkpt lat="48.36982" lon="-1.61574">
        <ele>82.7</ele>
        <time>2019-07-16T12:06:58Z</time>
      </trkpt>
      <trkpt lat="48.36984" lon="-1.61569">
        <ele>82.7</ele>
        <time>2019-07-16T12:06:59Z</time>
      </trkpt>
      <trkpt lat="48.36987" lon="-1.61564">
        <ele>83</ele>
        <time>2019-07-16T12:07:00Z</time>
      </trkpt>
      <trkpt lat="48.3699" lon="-1.61558">
        <ele>83</ele>
        <time>2019-07-16T12:07:01Z</time>
      </trkpt>
      <trkpt lat="48.36993" lon="-1.61553">
        <ele>83.1</ele>
        <time>2019-07-16T12:07:02Z</time>
      </trkpt>
      <trkpt lat="48.36997" lon="-1.61549">
        <ele>83.1</ele>
        <time>2019-07-16T12:07:03Z</time>
      </trkpt>
      <trkpt lat="48.37" lon="-1.61544">
        <ele>83</ele>
        <time>2019-07-16T12:07:04Z</time>
      </trkpt>
      <trkpt lat="48.37002" lon="-1.61539">
        <ele>82.7</ele>
        <time>2019-07-16T12:07:05Z</time>
      </trkpt>
      <trkpt lat="48.37005" lon="-1.61534">
        <ele>82.7</ele>
        <time>2019-07-16T12:07:06Z</time>
      </trkpt>
      <trkpt lat="48.37008" lon="-1.61529">
        <ele>82.5</ele>
        <time>2019-07-16T12:07:07Z</time>
      </trkpt>
      <trkpt lat="48.37011" lon="-1.61524">
        <ele>82.2</ele>
        <time>2019-07-16T12:07:08Z</time>
      </trkpt>
      <trkpt lat="48.37014" lon="-1.61519">
        <ele>82.2</ele>
        <time>2019-07-16T12:07:09Z</time>
      </trkpt>
      <trkpt lat="48.37017" lon="-1.61515">
        <ele>82.2</ele>
        <time>2019-07-16T12:07:10Z</time>
      </trkpt>
      <trkpt lat="48.37021" lon="-1.6151">
        <ele>81.9</ele>
        <time>2019-07-16T12:07:11Z</time>
      </trkpt>
      <trkpt lat="48.37024" lon="-1.61505">
        <ele>81.5</ele>
        <time>2019-07-16T12:07:12Z</time>
      </trkpt>
      <trkpt lat="48.37027" lon="-1.615">
        <ele>81.4</ele>
        <time>2019-07-16T12:07:13Z</time>
      </trkpt>
      <trkpt lat="48.37031" lon="-1.61496">
        <ele>81.5</ele>
        <time>2019-07-16T12:07:14Z</time>
      </trkpt>
      <trkpt lat="48.37035" lon="-1.61491">
        <ele>81.3</ele>
        <time>2019-07-16T12:07:15Z</time>
      </trkpt>
      <trkpt lat="48.37038" lon="-1.61486">
        <ele>80.9</ele>
        <time>2019-07-16T12:07:16Z</time>
      </trkpt>
      <trkpt lat="48.37042" lon="-1.61481">
        <ele>80.8</ele>
        <time>2019-07-16T12:07:17Z</time>
      </trkpt>
      <trkpt lat="48.37045" lon="-1.61476">
        <ele>80.5</ele>
        <time>2019-07-16T12:07:18Z</time>
      </trkpt>
      <trkpt lat="48.37049" lon="-1.61472">
        <ele>80.5</ele>
        <time>2019-07-16T12:07:19Z</time>
      </trkpt>
      <trkpt lat="48.37052" lon="-1.61468">
        <ele>80.9</ele>
        <time>2019-07-16T12:07:20Z</time>
      </trkpt>
      <trkpt lat="48.37055" lon="-1.61463">
        <ele>81.2</ele>
        <time>2019-07-16T12:07:21Z</time>
      </trkpt>
      <trkpt lat="48.37059" lon="-1.61459">
        <ele>81.2</ele>
        <time>2019-07-16T12:07:22Z</time>
      </trkpt>
      <trkpt lat="48.37063" lon="-1.61455">
        <ele>81.2</ele>
        <time>2019-07-16T12:07:23Z</time>
      </trkpt>
      <trkpt lat="48.37066" lon="-1.61451">
        <ele>81.1</ele>
        <time>2019-07-16T12:07:24Z</time>
      </trkpt>
      <trkpt lat="48.37069" lon="-1.61447">
        <ele>81.2</ele>
        <time>2019-07-16T12:07:25Z</time>
      </trkpt>
      <trkpt lat="48.37072" lon="-1.61444">
        <ele>81.4</ele>
        <time>2019-07-16T12:07:26Z</time>
      </trkpt>
      <trkpt lat="48.37075" lon="-1.6144">
        <ele>82.1</ele>
        <time>2019-07-16T12:07:27Z</time>
      </trkpt>
      <trkpt lat="48.37079" lon="-1.61437">
        <ele>82.4</ele>
        <time>2019-07-16T12:07:28Z</time>
      </trkpt>
      <trkpt lat="48.37083" lon="-1.61433">
        <ele>82.4</ele>
        <time>2019-07-16T12:07:29Z</time>
      </trkpt>
      <trkpt lat="48.37087" lon="-1.61428">
        <ele>82.3</ele>
        <time>2019-07-16T12:07:30Z</time>
      </trkpt>
      <trkpt lat="48.3709" lon="-1.61423">
        <ele>82.7</ele>
        <time>2019-07-16T12:07:31Z</time>
      </trkpt>
      <trkpt lat="48.37094" lon="-1.61419">
        <ele>82.8</ele>
        <time>2019-07-16T12:07:32Z</time>
      </trkpt>
      <trkpt lat="48.37098" lon="-1.61414">
        <ele>82.6</ele>
        <time>2019-07-16T12:07:33Z</time>
      </trkpt>
      <trkpt lat="48.37102" lon="-1.61409">
        <ele>82.5</ele>
        <time>2019-07-16T12:07:34Z</time>
      </trkpt>
      <trkpt lat="48.37106" lon="-1.61404">
        <ele>82.1</ele>
        <time>2019-07-16T12:07:35Z</time>
      </trkpt>
      <trkpt lat="48.37111" lon="-1.61399">
        <ele>81.6</ele>
        <time>2019-07-16T12:07:36Z</time>
      </trkpt>
      <trkpt lat="48.37115" lon="-1.61394">
        <ele>81.2</ele>
        <time>2019-07-16T12:07:37Z</time>
      </trkpt>
      <trkpt lat="48.37119" lon="-1.61389">
        <ele>81</ele>
        <time>2019-07-16T12:07:38Z</time>
      </trkpt>
      <trkpt lat="48.37124" lon="-1.61384">
        <ele>80.7</ele>
        <time>2019-07-16T12:07:39Z</time>
      </trkpt>
      <trkpt lat="48.37129" lon="-1.61379">
        <ele>80.1</ele>
        <time>2019-07-16T12:07:40Z</time>
      </trkpt>
      <trkpt lat="48.37134" lon="-1.61374">
        <ele>79.6</ele>
        <time>2019-07-16T12:07:41Z</time>
      </trkpt>
      <trkpt lat="48.37139" lon="-1.61369">
        <ele>78.9</ele>
        <time>2019-07-16T12:07:42Z</time>
      </trkpt>
      <trkpt lat="48.37144" lon="-1.61364">
        <ele>78.5</ele>
        <time>2019-07-16T12:07:43Z</time>
      </trkpt>
      <trkpt lat="48.37149" lon="-1.61359">
        <ele>78.2</ele>
        <time>2019-07-16T12:07:44Z</time>
      </trkpt>
      <trkpt lat="48.37154" lon="-1.61355">
        <ele>77.9</ele>
        <time>2019-07-16T12:07:45Z</time>
      </trkpt>
      <trkpt lat="48.37159" lon="-1.6135">
        <ele>78.1</ele>
        <time>2019-07-16T12:07:46Z</time>
      </trkpt>
      <trkpt lat="48.37166" lon="-1.61346">
        <ele>77.8</ele>
        <time>2019-07-16T12:07:47Z</time>
      </trkpt>
      <trkpt lat="48.37171" lon="-1.61342">
        <ele>77.7</ele>
        <time>2019-07-16T12:07:48Z</time>
      </trkpt>
      <trkpt lat="48.37177" lon="-1.61338">
        <ele>77.5</ele>
        <time>2019-07-16T12:07:49Z</time>
      </trkpt>
      <trkpt lat="48.37182" lon="-1.61334">
        <ele>77</ele>
        <time>2019-07-16T12:07:50Z</time>
      </trkpt>
      <trkpt lat="48.37188" lon="-1.61329">
        <ele>76.8</ele>
        <time>2019-07-16T12:07:51Z</time>
      </trkpt>
      <trkpt lat="48.37193" lon="-1.61325">
        <ele>77</ele>
        <time>2019-07-16T12:07:52Z</time>
      </trkpt>
      <trkpt lat="48.37199" lon="-1.61321">
        <ele>76.9</ele>
        <time>2019-07-16T12:07:53Z</time>
      </trkpt>
      <trkpt lat="48.37204" lon="-1.61317">
        <ele>76.9</ele>
        <time>2019-07-16T12:07:54Z</time>
      </trkpt>
      <trkpt lat="48.37209" lon="-1.61313">
        <ele>76.9</ele>
        <time>2019-07-16T12:07:55Z</time>
      </trkpt>
      <trkpt lat="48.37215" lon="-1.61309">
        <ele>76.7</ele>
        <time>2019-07-16T12:07:56Z</time>
      </trkpt>
      <trkpt lat="48.3722" lon="-1.61305">
        <ele>76.5</ele>
        <time>2019-07-16T12:07:57Z</time>
      </trkpt>
      <trkpt lat="48.37225" lon="-1.61302">
        <ele>76.6</ele>
        <time>2019-07-16T12:07:58Z</time>
      </trkpt>
      <trkpt lat="48.37231" lon="-1.61298">
        <ele>76.4</ele>
        <time>2019-07-16T12:07:59Z</time>
      </trkpt>
      <trkpt lat="48.37236" lon="-1.61294">
        <ele>76.2</ele>
        <time>2019-07-16T12:08:00Z</time>
      </trkpt>
      <trkpt lat="48.37242" lon="-1.61289">
        <ele>76.2</ele>
        <time>2019-07-16T12:08:01Z</time>
      </trkpt>
      <trkpt lat="48.37248" lon="-1.61285">
        <ele>76.2</ele>
        <time>2019-07-16T12:08:02Z</time>
      </trkpt>
      <trkpt lat="48.37253" lon="-1.61281">
        <ele>76.2</ele>
        <time>2019-07-16T12:08:03Z</time>
      </trkpt>
      <trkpt lat="48.37258" lon="-1.61277">
        <ele>76</ele>
        <time>2019-07-16T12:08:04Z</time>
      </trkpt>
      <trkpt lat="48.37264" lon="-1.61272">
        <ele>75.7</ele>
        <time>2019-07-16T12:08:05Z</time>
      </trkpt>
      <trkpt lat="48.3727" lon="-1.61268">
        <ele>75.4</ele>
        <time>2019-07-16T12:08:06Z</time>
      </trkpt>
      <trkpt lat="48.37275" lon="-1.61263">
        <ele>75.2</ele>
        <time>2019-07-16T12:08:07Z</time>
      </trkpt>
      <trkpt lat="48.37281" lon="-1.61259">
        <ele>74.6</ele>
        <time>2019-07-16T12:08:08Z</time>
      </trkpt>
      <trkpt lat="48.37287" lon="-1.61254">
        <ele>74.3</ele>
        <time>2019-07-16T12:08:09Z</time>
      </trkpt>
      <trkpt lat="48.37293" lon="-1.6125">
        <ele>73.9</ele>
        <time>2019-07-16T12:08:10Z</time>
      </trkpt>
      <trkpt lat="48.37299" lon="-1.61246">
        <ele>73.7</ele>
        <time>2019-07-16T12:08:11Z</time>
      </trkpt>
      <trkpt lat="48.37306" lon="-1.61242">
        <ele>73.5</ele>
        <time>2019-07-16T12:08:12Z</time>
      </trkpt>
      <trkpt lat="48.37312" lon="-1.61237">
        <ele>73.1</ele>
        <time>2019-07-16T12:08:13Z</time>
      </trkpt>
      <trkpt lat="48.37318" lon="-1.61233">
        <ele>72.8</ele>
        <time>2019-07-16T12:08:14Z</time>
      </trkpt>
      <trkpt lat="48.37323" lon="-1.61228">
        <ele>72.6</ele>
        <time>2019-07-16T12:08:15Z</time>
      </trkpt>
      <trkpt lat="48.3733" lon="-1.61223">
        <ele>72.4</ele>
        <time>2019-07-16T12:08:16Z</time>
      </trkpt>
      <trkpt lat="48.37336" lon="-1.61219">
        <ele>72.3</ele>
        <time>2019-07-16T12:08:17Z</time>
      </trkpt>
      <trkpt lat="48.37342" lon="-1.61214">
        <ele>71.8</ele>
        <time>2019-07-16T12:08:18Z</time>
      </trkpt>
      <trkpt lat="48.37348" lon="-1.61209">
        <ele>71.2</ele>
        <time>2019-07-16T12:08:19Z</time>
      </trkpt>
      <trkpt lat="48.37354" lon="-1.61204">
        <ele>71</ele>
        <time>2019-07-16T12:08:20Z</time>
      </trkpt>
      <trkpt lat="48.3736" lon="-1.61198">
        <ele>71.1</ele>
        <time>2019-07-16T12:08:21Z</time>
      </trkpt>
      <trkpt lat="48.37365" lon="-1.61191">
        <ele>71.3</ele>
        <time>2019-07-16T12:08:22Z</time>
      </trkpt>
      <trkpt lat="48.37369" lon="-1.61183">
        <ele>71.4</ele>
        <time>2019-07-16T12:08:23Z</time>
      </trkpt>
      <trkpt lat="48.37373" lon="-1.61175">
        <ele>71.4</ele>
        <time>2019-07-16T12:08:24Z</time>
      </trkpt>
      <trkpt lat="48.37377" lon="-1.61167">
        <ele>71.9</ele>
        <time>2019-07-16T12:08:25Z</time>
      </trkpt>
      <trkpt lat="48.3738" lon="-1.61159">
        <ele>72.3</ele>
        <time>2019-07-16T12:08:26Z</time>
      </trkpt>
      <trkpt lat="48.37383" lon="-1.61151">
        <ele>72.4</ele>
        <time>2019-07-16T12:08:27Z</time>
      </trkpt>
      <trkpt lat="48.37386" lon="-1.61142">
        <ele>72.2</ele>
        <time>2019-07-16T12:08:28Z</time>
      </trkpt>
      <trkpt lat="48.37389" lon="-1.61133">
        <ele>71.4</ele>
        <time>2019-07-16T12:08:29Z</time>
      </trkpt>
      <trkpt lat="48.37392" lon="-1.61124">
        <ele>71</ele>
        <time>2019-07-16T12:08:30Z</time>
      </trkpt>
      <trkpt lat="48.37396" lon="-1.61116">
        <ele>70.8</ele>
        <time>2019-07-16T12:08:31Z</time>
      </trkpt>
      <trkpt lat="48.37399" lon="-1.61107">
        <ele>70.5</ele>
        <time>2019-07-16T12:08:32Z</time>
      </trkpt>
      <trkpt lat="48.37402" lon="-1.61097">
        <ele>70.2</ele>
        <time>2019-07-16T12:08:33Z</time>
      </trkpt>
      <trkpt lat="48.37405" lon="-1.61088">
        <ele>70.2</ele>
        <time>2019-07-16T12:08:34Z</time>
      </trkpt>
      <trkpt lat="48.37409" lon="-1.61078">
        <ele>70</ele>
        <time>2019-07-16T12:08:35Z</time>
      </trkpt>
      <trkpt lat="48.37412" lon="-1.61069">
        <ele>69.8</ele>
        <time>2019-07-16T12:08:36Z</time>
      </trkpt>
      <trkpt lat="48.37416" lon="-1.61059">
        <ele>69.8</ele>
        <time>2019-07-16T12:08:37Z</time>
      </trkpt>
      <trkpt lat="48.37419" lon="-1.6105">
        <ele>69.1</ele>
        <time>2019-07-16T12:08:38Z</time>
      </trkpt>
      <trkpt lat="48.37422" lon="-1.61041">
        <ele>68.8</ele>
        <time>2019-07-16T12:08:39Z</time>
      </trkpt>
      <trkpt lat="48.37425" lon="-1.61031">
        <ele>68.3</ele>
        <time>2019-07-16T12:08:40Z</time>
      </trkpt>
      <trkpt lat="48.37428" lon="-1.61021">
        <ele>68.4</ele>
        <time>2019-07-16T12:08:41Z</time>
      </trkpt>
      <trkpt lat="48.37431" lon="-1.61012">
        <ele>68.1</ele>
        <time>2019-07-16T12:08:42Z</time>
      </trkpt>
      <trkpt lat="48.37434" lon="-1.61003">
        <ele>68.2</ele>
        <time>2019-07-16T12:08:43Z</time>
      </trkpt>
      <trkpt lat="48.37437" lon="-1.60994">
        <ele>68.4</ele>
        <time>2019-07-16T12:08:44Z</time>
      </trkpt>
      <trkpt lat="48.37441" lon="-1.60986">
        <ele>68.4</ele>
        <time>2019-07-16T12:08:45Z</time>
      </trkpt>
      <trkpt lat="48.37443" lon="-1.60977">
        <ele>68.3</ele>
        <time>2019-07-16T12:08:46Z</time>
      </trkpt>
      <trkpt lat="48.37446" lon="-1.60968">
        <ele>67.9</ele>
        <time>2019-07-16T12:08:47Z</time>
      </trkpt>
      <trkpt lat="48.37449" lon="-1.60959">
        <ele>67.5</ele>
        <time>2019-07-16T12:08:48Z</time>
      </trkpt>
      <trkpt lat="48.37452" lon="-1.60951">
        <ele>67.1</ele>
        <time>2019-07-16T12:08:49Z</time>
      </trkpt>
      <trkpt lat="48.37455" lon="-1.60943">
        <ele>67</ele>
        <time>2019-07-16T12:08:50Z</time>
      </trkpt>
      <trkpt lat="48.37458" lon="-1.60935">
        <ele>67</ele>
        <time>2019-07-16T12:08:51Z</time>
      </trkpt>
      <trkpt lat="48.3746" lon="-1.60927">
        <ele>66.9</ele>
        <time>2019-07-16T12:08:52Z</time>
      </trkpt>
      <trkpt lat="48.37463" lon="-1.6092">
        <ele>66.9</ele>
        <time>2019-07-16T12:08:53Z</time>
      </trkpt>
      <trkpt lat="48.37465" lon="-1.60913">
        <ele>67.2</ele>
        <time>2019-07-16T12:08:54Z</time>
      </trkpt>
      <trkpt lat="48.37468" lon="-1.60906">
        <ele>67.6</ele>
        <time>2019-07-16T12:08:55Z</time>
      </trkpt>
      <trkpt lat="48.37471" lon="-1.609">
        <ele>67.3</ele>
        <time>2019-07-16T12:08:56Z</time>
      </trkpt>
      <trkpt lat="48.37473" lon="-1.60894">
        <ele>67.3</ele>
        <time>2019-07-16T12:08:57Z</time>
      </trkpt>
      <trkpt lat="48.37476" lon="-1.60888">
        <ele>67.5</ele>
        <time>2019-07-16T12:08:58Z</time>
      </trkpt>
      <trkpt lat="48.37478" lon="-1.60882">
        <ele>67.4</ele>
        <time>2019-07-16T12:08:59Z</time>
      </trkpt>
      <trkpt lat="48.37481" lon="-1.60877">
        <ele>67.5</ele>
        <time>2019-07-16T12:09:00Z</time>
      </trkpt>
      <trkpt lat="48.37484" lon="-1.60873">
        <ele>67.9</ele>
        <time>2019-07-16T12:09:01Z</time>
      </trkpt>
      <trkpt lat="48.37486" lon="-1.60869">
        <ele>68.3</ele>
        <time>2019-07-16T12:09:02Z</time>
      </trkpt>
      <trkpt lat="48.37489" lon="-1.60865">
        <ele>68.8</ele>
        <time>2019-07-16T12:09:03Z</time>
      </trkpt>
      <trkpt lat="48.37492" lon="-1.60862">
        <ele>69.4</ele>
        <time>2019-07-16T12:09:04Z</time>
      </trkpt>
      <trkpt lat="48.37494" lon="-1.60859">
        <ele>69.7</ele>
        <time>2019-07-16T12:09:05Z</time>
      </trkpt>
      <trkpt lat="48.37497" lon="-1.60855">
        <ele>69.9</ele>
        <time>2019-07-16T12:09:06Z</time>
      </trkpt>
      <trkpt lat="48.375" lon="-1.60851">
        <ele>70.3</ele>
        <time>2019-07-16T12:09:07Z</time>
      </trkpt>
      <trkpt lat="48.37503" lon="-1.60847">
        <ele>70.3</ele>
        <time>2019-07-16T12:09:08Z</time>
      </trkpt>
      <trkpt lat="48.37505" lon="-1.60844">
        <ele>70.7</ele>
        <time>2019-07-16T12:09:09Z</time>
      </trkpt>
      <trkpt lat="48.37508" lon="-1.60841">
        <ele>70.9</ele>
        <time>2019-07-16T12:09:10Z</time>
      </trkpt>
      <trkpt lat="48.37512" lon="-1.60838">
        <ele>71.3</ele>
        <time>2019-07-16T12:09:11Z</time>
      </trkpt>
      <trkpt lat="48.37515" lon="-1.60835">
        <ele>71.5</ele>
        <time>2019-07-16T12:09:12Z</time>
      </trkpt>
      <trkpt lat="48.37518" lon="-1.60833">
        <ele>71.6</ele>
        <time>2019-07-16T12:09:13Z</time>
      </trkpt>
      <trkpt lat="48.37521" lon="-1.6083">
        <ele>71.9</ele>
        <time>2019-07-16T12:09:14Z</time>
      </trkpt>
      <trkpt lat="48.37524" lon="-1.60827">
        <ele>72</ele>
        <time>2019-07-16T12:09:15Z</time>
      </trkpt>
      <trkpt lat="48.37528" lon="-1.60824">
        <ele>71.8</ele>
        <time>2019-07-16T12:09:16Z</time>
      </trkpt>
      <trkpt lat="48.37531" lon="-1.6082">
        <ele>71.6</ele>
        <time>2019-07-16T12:09:17Z</time>
      </trkpt>
      <trkpt lat="48.37535" lon="-1.60817">
        <ele>71.2</ele>
        <time>2019-07-16T12:09:18Z</time>
      </trkpt>
      <trkpt lat="48.37538" lon="-1.60814">
        <ele>70.9</ele>
        <time>2019-07-16T12:09:19Z</time>
      </trkpt>
      <trkpt lat="48.37542" lon="-1.60811">
        <ele>70.6</ele>
        <time>2019-07-16T12:09:20Z</time>
      </trkpt>
      <trkpt lat="48.37545" lon="-1.60808">
        <ele>70.5</ele>
        <time>2019-07-16T12:09:21Z</time>
      </trkpt>
      <trkpt lat="48.37549" lon="-1.60805">
        <ele>70.6</ele>
        <time>2019-07-16T12:09:22Z</time>
      </trkpt>
      <trkpt lat="48.37553" lon="-1.60802">
        <ele>70.5</ele>
        <time>2019-07-16T12:09:23Z</time>
      </trkpt>
      <trkpt lat="48.37557" lon="-1.60798">
        <ele>70.1</ele>
        <time>2019-07-16T12:09:24Z</time>
      </trkpt>
      <trkpt lat="48.3756" lon="-1.60795">
        <ele>69.6</ele>
        <time>2019-07-16T12:09:25Z</time>
      </trkpt>
      <trkpt lat="48.37564" lon="-1.60792">
        <ele>69.7</ele>
        <time>2019-07-16T12:09:26Z</time>
      </trkpt>
      <trkpt lat="48.37568" lon="-1.60789">
        <ele>70</ele>
        <time>2019-07-16T12:09:27Z</time>
      </trkpt>
      <trkpt lat="48.37571" lon="-1.60786">
        <ele>69.8</ele>
        <time>2019-07-16T12:09:28Z</time>
      </trkpt>
      <trkpt lat="48.37575" lon="-1.60783">
        <ele>69.5</ele>
        <time>2019-07-16T12:09:29Z</time>
      </trkpt>
      <trkpt lat="48.37579" lon="-1.60781">
        <ele>69.3</ele>
        <time>2019-07-16T12:09:30Z</time>
      </trkpt>
      <trkpt lat="48.37582" lon="-1.60778">
        <ele>69.2</ele>
        <time>2019-07-16T12:09:31Z</time>
      </trkpt>
      <trkpt lat="48.37585" lon="-1.60776">
        <ele>69</ele>
        <time>2019-07-16T12:09:32Z</time>
      </trkpt>
      <trkpt lat="48.37589" lon="-1.60773">
        <ele>68.9</ele>
        <time>2019-07-16T12:09:33Z</time>
      </trkpt>
      <trkpt lat="48.37592" lon="-1.60771">
        <ele>68.9</ele>
        <time>2019-07-16T12:09:34Z</time>
      </trkpt>
      <trkpt lat="48.37596" lon="-1.60768">
        <ele>68.9</ele>
        <time>2019-07-16T12:09:35Z</time>
      </trkpt>
      <trkpt lat="48.376" lon="-1.60765">
        <ele>68.7</ele>
        <time>2019-07-16T12:09:36Z</time>
      </trkpt>
      <trkpt lat="48.37603" lon="-1.60762">
        <ele>68.8</ele>
        <time>2019-07-16T12:09:37Z</time>
      </trkpt>
      <trkpt lat="48.37606" lon="-1.6076">
        <ele>68.8</ele>
        <time>2019-07-16T12:09:38Z</time>
      </trkpt>
      <trkpt lat="48.3761" lon="-1.60757">
        <ele>68.6</ele>
        <time>2019-07-16T12:09:39Z</time>
      </trkpt>
      <trkpt lat="48.37614" lon="-1.60754">
        <ele>68.8</ele>
        <time>2019-07-16T12:09:40Z</time>
      </trkpt>
      <trkpt lat="48.37618" lon="-1.60752">
        <ele>68.9</ele>
        <time>2019-07-16T12:09:41Z</time>
      </trkpt>
      <trkpt lat="48.37621" lon="-1.6075">
        <ele>68.9</ele>
        <time>2019-07-16T12:09:42Z</time>
      </trkpt>
      <trkpt lat="48.37625" lon="-1.60748">
        <ele>68.8</ele>
        <time>2019-07-16T12:09:43Z</time>
      </trkpt>
      <trkpt lat="48.37628" lon="-1.60746">
        <ele>68.6</ele>
        <time>2019-07-16T12:09:44Z</time>
      </trkpt>
      <trkpt lat="48.37632" lon="-1.60744">
        <ele>68.4</ele>
        <time>2019-07-16T12:09:45Z</time>
      </trkpt>
      <trkpt lat="48.37636" lon="-1.60743">
        <ele>68.2</ele>
        <time>2019-07-16T12:09:46Z</time>
      </trkpt>
      <trkpt lat="48.37639" lon="-1.60741">
        <ele>68.2</ele>
        <time>2019-07-16T12:09:47Z</time>
      </trkpt>
      <trkpt lat="48.37643" lon="-1.6074">
        <ele>68.3</ele>
        <time>2019-07-16T12:09:48Z</time>
      </trkpt>
      <trkpt lat="48.37647" lon="-1.60739">
        <ele>68.6</ele>
        <time>2019-07-16T12:09:49Z</time>
      </trkpt>
      <trkpt lat="48.3765" lon="-1.60738">
        <ele>68.7</ele>
        <time>2019-07-16T12:09:50Z</time>
      </trkpt>
      <trkpt lat="48.37654" lon="-1.60738">
        <ele>68.8</ele>
        <time>2019-07-16T12:09:51Z</time>
      </trkpt>
      <trkpt lat="48.37658" lon="-1.60737">
        <ele>68.4</ele>
        <time>2019-07-16T12:09:52Z</time>
      </trkpt>
      <trkpt lat="48.37661" lon="-1.60737">
        <ele>68.1</ele>
        <time>2019-07-16T12:09:53Z</time>
      </trkpt>
      <trkpt lat="48.37665" lon="-1.60736">
        <ele>68.1</ele>
        <time>2019-07-16T12:09:54Z</time>
      </trkpt>
      <trkpt lat="48.37668" lon="-1.60736">
        <ele>68</ele>
        <time>2019-07-16T12:09:55Z</time>
      </trkpt>
      <trkpt lat="48.37672" lon="-1.60736">
        <ele>68</ele>
        <time>2019-07-16T12:09:56Z</time>
      </trkpt>
      <trkpt lat="48.37676" lon="-1.60736">
        <ele>68</ele>
        <time>2019-07-16T12:09:57Z</time>
      </trkpt>
      <trkpt lat="48.3768" lon="-1.60735">
        <ele>68</ele>
        <time>2019-07-16T12:09:58Z</time>
      </trkpt>
      <trkpt lat="48.37684" lon="-1.60735">
        <ele>67.9</ele>
        <time>2019-07-16T12:09:59Z</time>
      </trkpt>
      <trkpt lat="48.37687" lon="-1.60735">
        <ele>67.6</ele>
        <time>2019-07-16T12:10:00Z</time>
      </trkpt>
      <trkpt lat="48.37691" lon="-1.60735">
        <ele>67.4</ele>
        <time>2019-07-16T12:10:01Z</time>
      </trkpt>
      <trkpt lat="48.37695" lon="-1.60734">
        <ele>67.2</ele>
        <time>2019-07-16T12:10:02Z</time>
      </trkpt>
      <trkpt lat="48.37699" lon="-1.60734">
        <ele>66.8</ele>
        <time>2019-07-16T12:10:03Z</time>
      </trkpt>
      <trkpt lat="48.37703" lon="-1.60734">
        <ele>66.9</ele>
        <time>2019-07-16T12:10:04Z</time>
      </trkpt>
      <trkpt lat="48.37707" lon="-1.60734">
        <ele>67</ele>
        <time>2019-07-16T12:10:05Z</time>
      </trkpt>
      <trkpt lat="48.37711" lon="-1.60734">
        <ele>67</ele>
        <time>2019-07-16T12:10:06Z</time>
      </trkpt>
      <trkpt lat="48.37715" lon="-1.60734">
        <ele>67.4</ele>
        <time>2019-07-16T12:10:07Z</time>
      </trkpt>
      <trkpt lat="48.37719" lon="-1.60734">
        <ele>67.6</ele>
        <time>2019-07-16T12:10:08Z</time>
      </trkpt>
      <trkpt lat="48.37724" lon="-1.60735">
        <ele>67</ele>
        <time>2019-07-16T12:10:09Z</time>
      </trkpt>
      <trkpt lat="48.37729" lon="-1.60735">
        <ele>67</ele>
        <time>2019-07-16T12:10:10Z</time>
      </trkpt>
      <trkpt lat="48.37733" lon="-1.60735">
        <ele>67.1</ele>
        <time>2019-07-16T12:10:11Z</time>
      </trkpt>
      <trkpt lat="48.37738" lon="-1.60736">
        <ele>66.6</ele>
        <time>2019-07-16T12:10:12Z</time>
      </trkpt>
      <trkpt lat="48.37742" lon="-1.60736">
        <ele>66.6</ele>
        <time>2019-07-16T12:10:13Z</time>
      </trkpt>
      <trkpt lat="48.37746" lon="-1.60736">
        <ele>66.7</ele>
        <time>2019-07-16T12:10:14Z</time>
      </trkpt>
      <trkpt lat="48.37751" lon="-1.60736">
        <ele>67</ele>
        <time>2019-07-16T12:10:15Z</time>
      </trkpt>
      <trkpt lat="48.37756" lon="-1.60736">
        <ele>67.4</ele>
        <time>2019-07-16T12:10:16Z</time>
      </trkpt>
      <trkpt lat="48.3776" lon="-1.60736">
        <ele>67.7</ele>
        <time>2019-07-16T12:10:17Z</time>
      </trkpt>
      <trkpt lat="48.37764" lon="-1.60736">
        <ele>67.7</ele>
        <time>2019-07-16T12:10:18Z</time>
      </trkpt>
      <trkpt lat="48.37769" lon="-1.60736">
        <ele>67.4</ele>
        <time>2019-07-16T12:10:19Z</time>
      </trkpt>
      <trkpt lat="48.37774" lon="-1.60736">
        <ele>67.7</ele>
        <time>2019-07-16T12:10:20Z</time>
      </trkpt>
      <trkpt lat="48.37779" lon="-1.60736">
        <ele>68.2</ele>
        <time>2019-07-16T12:10:21Z</time>
      </trkpt>
      <trkpt lat="48.37784" lon="-1.60735">
        <ele>68.8</ele>
        <time>2019-07-16T12:10:22Z</time>
      </trkpt>
      <trkpt lat="48.37789" lon="-1.60734">
        <ele>69.3</ele>
        <time>2019-07-16T12:10:23Z</time>
      </trkpt>
      <trkpt lat="48.37794" lon="-1.60732">
        <ele>69.1</ele>
        <time>2019-07-16T12:10:24Z</time>
      </trkpt>
      <trkpt lat="48.37799" lon="-1.6073">
        <ele>69</ele>
        <time>2019-07-16T12:10:25Z</time>
      </trkpt>
      <trkpt lat="48.37804" lon="-1.60728">
        <ele>69.1</ele>
        <time>2019-07-16T12:10:26Z</time>
      </trkpt>
      <trkpt lat="48.37809" lon="-1.60726">
        <ele>69.2</ele>
        <time>2019-07-16T12:10:27Z</time>
      </trkpt>
      <trkpt lat="48.37814" lon="-1.60724">
        <ele>69.2</ele>
        <time>2019-07-16T12:10:28Z</time>
      </trkpt>
      <trkpt lat="48.3782" lon="-1.60722">
        <ele>69</ele>
        <time>2019-07-16T12:10:29Z</time>
      </trkpt>
      <trkpt lat="48.37825" lon="-1.6072">
        <ele>68.8</ele>
        <time>2019-07-16T12:10:30Z</time>
      </trkpt>
      <trkpt lat="48.37831" lon="-1.60718">
        <ele>68.7</ele>
        <time>2019-07-16T12:10:31Z</time>
      </trkpt>
      <trkpt lat="48.37836" lon="-1.60715">
        <ele>68.7</ele>
        <time>2019-07-16T12:10:32Z</time>
      </trkpt>
      <trkpt lat="48.37841" lon="-1.60713">
        <ele>68.9</ele>
        <time>2019-07-16T12:10:33Z</time>
      </trkpt>
      <trkpt lat="48.37847" lon="-1.60711">
        <ele>69.1</ele>
        <time>2019-07-16T12:10:34Z</time>
      </trkpt>
      <trkpt lat="48.37852" lon="-1.60709">
        <ele>69.3</ele>
        <time>2019-07-16T12:10:35Z</time>
      </trkpt>
      <trkpt lat="48.37858" lon="-1.60707">
        <ele>69.1</ele>
        <time>2019-07-16T12:10:36Z</time>
      </trkpt>
      <trkpt lat="48.37864" lon="-1.60704">
        <ele>68.5</ele>
        <time>2019-07-16T12:10:37Z</time>
      </trkpt>
      <trkpt lat="48.37869" lon="-1.60702">
        <ele>68.3</ele>
        <time>2019-07-16T12:10:38Z</time>
      </trkpt>
      <trkpt lat="48.37875" lon="-1.607">
        <ele>68.5</ele>
        <time>2019-07-16T12:10:39Z</time>
      </trkpt>
      <trkpt lat="48.3788" lon="-1.60698">
        <ele>68.7</ele>
        <time>2019-07-16T12:10:40Z</time>
      </trkpt>
      <trkpt lat="48.37886" lon="-1.60695">
        <ele>68.9</ele>
        <time>2019-07-16T12:10:41Z</time>
      </trkpt>
      <trkpt lat="48.37891" lon="-1.60693">
        <ele>69.1</ele>
        <time>2019-07-16T12:10:42Z</time>
      </trkpt>
      <trkpt lat="48.37897" lon="-1.60691">
        <ele>69.1</ele>
        <time>2019-07-16T12:10:43Z</time>
      </trkpt>
      <trkpt lat="48.37903" lon="-1.60688">
        <ele>69.2</ele>
        <time>2019-07-16T12:10:44Z</time>
      </trkpt>
      <trkpt lat="48.37909" lon="-1.60686">
        <ele>69.6</ele>
        <time>2019-07-16T12:10:45Z</time>
      </trkpt>
      <trkpt lat="48.37914" lon="-1.60684">
        <ele>69.4</ele>
        <time>2019-07-16T12:10:46Z</time>
      </trkpt>
      <trkpt lat="48.3792" lon="-1.60682">
        <ele>69.1</ele>
        <time>2019-07-16T12:10:47Z</time>
      </trkpt>
      <trkpt lat="48.37925" lon="-1.60679">
        <ele>68.6</ele>
        <time>2019-07-16T12:10:48Z</time>
      </trkpt>
      <trkpt lat="48.37931" lon="-1.60677">
        <ele>68.1</ele>
        <time>2019-07-16T12:10:49Z</time>
      </trkpt>
      <trkpt lat="48.37937" lon="-1.60674">
        <ele>67.8</ele>
        <time>2019-07-16T12:10:50Z</time>
      </trkpt>
      <trkpt lat="48.37943" lon="-1.60672">
        <ele>67.6</ele>
        <time>2019-07-16T12:10:51Z</time>
      </trkpt>
      <trkpt lat="48.37948" lon="-1.6067">
        <ele>67.6</ele>
        <time>2019-07-16T12:10:52Z</time>
      </trkpt>
      <trkpt lat="48.37953" lon="-1.60668">
        <ele>67.4</ele>
        <time>2019-07-16T12:10:53Z</time>
      </trkpt>
      <trkpt lat="48.37958" lon="-1.60666">
        <ele>67.2</ele>
        <time>2019-07-16T12:10:54Z</time>
      </trkpt>
      <trkpt lat="48.37964" lon="-1.60664">
        <ele>67.2</ele>
        <time>2019-07-16T12:10:55Z</time>
      </trkpt>
      <trkpt lat="48.37968" lon="-1.60662">
        <ele>67.3</ele>
        <time>2019-07-16T12:10:56Z</time>
      </trkpt>
      <trkpt lat="48.37973" lon="-1.6066">
        <ele>67.4</ele>
        <time>2019-07-16T12:10:57Z</time>
      </trkpt>
      <trkpt lat="48.37978" lon="-1.60658">
        <ele>67.4</ele>
        <time>2019-07-16T12:10:58Z</time>
      </trkpt>
      <trkpt lat="48.37983" lon="-1.60656">
        <ele>67.8</ele>
        <time>2019-07-16T12:10:59Z</time>
      </trkpt>
      <trkpt lat="48.37988" lon="-1.60654">
        <ele>67.8</ele>
        <time>2019-07-16T12:11:00Z</time>
      </trkpt>
      <trkpt lat="48.37992" lon="-1.60652">
        <ele>67.4</ele>
        <time>2019-07-16T12:11:01Z</time>
      </trkpt>
      <trkpt lat="48.37997" lon="-1.60651">
        <ele>67.1</ele>
        <time>2019-07-16T12:11:02Z</time>
      </trkpt>
      <trkpt lat="48.38002" lon="-1.60649">
        <ele>67</ele>
        <time>2019-07-16T12:11:03Z</time>
      </trkpt>
      <trkpt lat="48.38007" lon="-1.60647">
        <ele>66.6</ele>
        <time>2019-07-16T12:11:04Z</time>
      </trkpt>
      <trkpt lat="48.38012" lon="-1.60646">
        <ele>66.6</ele>
        <time>2019-07-16T12:11:05Z</time>
      </trkpt>
      <trkpt lat="48.38017" lon="-1.60643">
        <ele>66.3</ele>
        <time>2019-07-16T12:11:06Z</time>
      </trkpt>
      <trkpt lat="48.38022" lon="-1.60641">
        <ele>66.1</ele>
        <time>2019-07-16T12:11:07Z</time>
      </trkpt>
      <trkpt lat="48.38026" lon="-1.60639">
        <ele>66.1</ele>
        <time>2019-07-16T12:11:08Z</time>
      </trkpt>
      <trkpt lat="48.38031" lon="-1.60637">
        <ele>66.2</ele>
        <time>2019-07-16T12:11:09Z</time>
      </trkpt>
      <trkpt lat="48.38036" lon="-1.60635">
        <ele>66.1</ele>
        <time>2019-07-16T12:11:10Z</time>
      </trkpt>
      <trkpt lat="48.38041" lon="-1.60633">
        <ele>66.3</ele>
        <time>2019-07-16T12:11:11Z</time>
      </trkpt>
      <trkpt lat="48.38046" lon="-1.60631">
        <ele>66.8</ele>
        <time>2019-07-16T12:11:12Z</time>
      </trkpt>
      <trkpt lat="48.38051" lon="-1.60629">
        <ele>67.1</ele>
        <time>2019-07-16T12:11:13Z</time>
      </trkpt>
      <trkpt lat="48.38056" lon="-1.60626">
        <ele>67.2</ele>
        <time>2019-07-16T12:11:14Z</time>
      </trkpt>
      <trkpt lat="48.38061" lon="-1.60624">
        <ele>67.2</ele>
        <time>2019-07-16T12:11:15Z</time>
      </trkpt>
      <trkpt lat="48.38066" lon="-1.60622">
        <ele>67.3</ele>
        <time>2019-07-16T12:11:16Z</time>
      </trkpt>
      <trkpt lat="48.38071" lon="-1.60619">
        <ele>67.3</ele>
        <time>2019-07-16T12:11:17Z</time>
      </trkpt>
      <trkpt lat="48.38076" lon="-1.60616">
        <ele>67.5</ele>
        <time>2019-07-16T12:11:18Z</time>
      </trkpt>
      <trkpt lat="48.38081" lon="-1.60614">
        <ele>68</ele>
        <time>2019-07-16T12:11:19Z</time>
      </trkpt>
      <trkpt lat="48.38086" lon="-1.60611">
        <ele>68.3</ele>
        <time>2019-07-16T12:11:20Z</time>
      </trkpt>
      <trkpt lat="48.38091" lon="-1.60608">
        <ele>68.7</ele>
        <time>2019-07-16T12:11:21Z</time>
      </trkpt>
      <trkpt lat="48.38096" lon="-1.60606">
        <ele>69.1</ele>
        <time>2019-07-16T12:11:22Z</time>
      </trkpt>
      <trkpt lat="48.381" lon="-1.60603">
        <ele>69.4</ele>
        <time>2019-07-16T12:11:23Z</time>
      </trkpt>
      <trkpt lat="48.38105" lon="-1.60601">
        <ele>69.5</ele>
        <time>2019-07-16T12:11:24Z</time>
      </trkpt>
      <trkpt lat="48.38109" lon="-1.60598">
        <ele>69.7</ele>
        <time>2019-07-16T12:11:25Z</time>
      </trkpt>
      <trkpt lat="48.38114" lon="-1.60594">
        <ele>68.9</ele>
        <time>2019-07-16T12:11:26Z</time>
      </trkpt>
      <trkpt lat="48.38119" lon="-1.60591">
        <ele>68.7</ele>
        <time>2019-07-16T12:11:27Z</time>
      </trkpt>
      <trkpt lat="48.38124" lon="-1.60588">
        <ele>68.6</ele>
        <time>2019-07-16T12:11:28Z</time>
      </trkpt>
      <trkpt lat="48.38128" lon="-1.60585">
        <ele>68.6</ele>
        <time>2019-07-16T12:11:29Z</time>
      </trkpt>
      <trkpt lat="48.38133" lon="-1.60583">
        <ele>68.7</ele>
        <time>2019-07-16T12:11:30Z</time>
      </trkpt>
      <trkpt lat="48.38138" lon="-1.6058">
        <ele>68.7</ele>
        <time>2019-07-16T12:11:31Z</time>
      </trkpt>
      <trkpt lat="48.38143" lon="-1.60577">
        <ele>69</ele>
        <time>2019-07-16T12:11:32Z</time>
      </trkpt>
      <trkpt lat="48.38148" lon="-1.60575">
        <ele>69.3</ele>
        <time>2019-07-16T12:11:33Z</time>
      </trkpt>
      <trkpt lat="48.38153" lon="-1.60572">
        <ele>69.7</ele>
        <time>2019-07-16T12:11:34Z</time>
      </trkpt>
      <trkpt lat="48.38158" lon="-1.6057">
        <ele>69.6</ele>
        <time>2019-07-16T12:11:35Z</time>
      </trkpt>
      <trkpt lat="48.38164" lon="-1.60568">
        <ele>69.5</ele>
        <time>2019-07-16T12:11:36Z</time>
      </trkpt>
      <trkpt lat="48.3817" lon="-1.60567">
        <ele>68.9</ele>
        <time>2019-07-16T12:11:37Z</time>
      </trkpt>
      <trkpt lat="48.38175" lon="-1.60566">
        <ele>68.7</ele>
        <time>2019-07-16T12:11:38Z</time>
      </trkpt>
      <trkpt lat="48.38181" lon="-1.60564">
        <ele>68.4</ele>
        <time>2019-07-16T12:11:39Z</time>
      </trkpt>
      <trkpt lat="48.38187" lon="-1.60563">
        <ele>68.2</ele>
        <time>2019-07-16T12:11:40Z</time>
      </trkpt>
      <trkpt lat="48.38193" lon="-1.60562">
        <ele>67.9</ele>
        <time>2019-07-16T12:11:41Z</time>
      </trkpt>
      <trkpt lat="48.38199" lon="-1.60562">
        <ele>68</ele>
        <time>2019-07-16T12:11:42Z</time>
      </trkpt>
      <trkpt lat="48.38205" lon="-1.60562">
        <ele>67.8</ele>
        <time>2019-07-16T12:11:43Z</time>
      </trkpt>
      <trkpt lat="48.38211" lon="-1.60561">
        <ele>67.5</ele>
        <time>2019-07-16T12:11:44Z</time>
      </trkpt>
      <trkpt lat="48.38217" lon="-1.60561">
        <ele>66.9</ele>
        <time>2019-07-16T12:11:45Z</time>
      </trkpt>
      <trkpt lat="48.38224" lon="-1.60561">
        <ele>66.4</ele>
        <time>2019-07-16T12:11:46Z</time>
      </trkpt>
      <trkpt lat="48.3823" lon="-1.60562">
        <ele>65.8</ele>
        <time>2019-07-16T12:11:47Z</time>
      </trkpt>
      <trkpt lat="48.38237" lon="-1.60563">
        <ele>65.4</ele>
        <time>2019-07-16T12:11:48Z</time>
      </trkpt>
      <trkpt lat="48.38243" lon="-1.60564">
        <ele>64.7</ele>
        <time>2019-07-16T12:11:49Z</time>
      </trkpt>
      <trkpt lat="48.3825" lon="-1.60564">
        <ele>63.7</ele>
        <time>2019-07-16T12:11:50Z</time>
      </trkpt>
      <trkpt lat="48.38257" lon="-1.60565">
        <ele>62.9</ele>
        <time>2019-07-16T12:11:51Z</time>
      </trkpt>
      <trkpt lat="48.38264" lon="-1.60565">
        <ele>62.3</ele>
        <time>2019-07-16T12:11:52Z</time>
      </trkpt>
      <trkpt lat="48.38271" lon="-1.60566">
        <ele>62.1</ele>
        <time>2019-07-16T12:11:53Z</time>
      </trkpt>
      <trkpt lat="48.38279" lon="-1.60566">
        <ele>61.8</ele>
        <time>2019-07-16T12:11:54Z</time>
      </trkpt>
      <trkpt lat="48.38287" lon="-1.60566">
        <ele>60.7</ele>
        <time>2019-07-16T12:11:55Z</time>
      </trkpt>
      <trkpt lat="48.38296" lon="-1.60566">
        <ele>59.9</ele>
        <time>2019-07-16T12:11:56Z</time>
      </trkpt>
      <trkpt lat="48.38303" lon="-1.60566">
        <ele>59.4</ele>
        <time>2019-07-16T12:11:57Z</time>
      </trkpt>
      <trkpt lat="48.38311" lon="-1.60566">
        <ele>58.9</ele>
        <time>2019-07-16T12:11:58Z</time>
      </trkpt>
      <trkpt lat="48.38319" lon="-1.60566">
        <ele>58.1</ele>
        <time>2019-07-16T12:11:59Z</time>
      </trkpt>
      <trkpt lat="48.38326" lon="-1.60566">
        <ele>57.4</ele>
        <time>2019-07-16T12:12:00Z</time>
      </trkpt>
      <trkpt lat="48.38334" lon="-1.60567">
        <ele>56.8</ele>
        <time>2019-07-16T12:12:01Z</time>
      </trkpt>
      <trkpt lat="48.38342" lon="-1.60568">
        <ele>56.3</ele>
        <time>2019-07-16T12:12:02Z</time>
      </trkpt>
      <trkpt lat="48.3835" lon="-1.60569">
        <ele>56.3</ele>
        <time>2019-07-16T12:12:03Z</time>
      </trkpt>
      <trkpt lat="48.38358" lon="-1.60571">
        <ele>56</ele>
        <time>2019-07-16T12:12:04Z</time>
      </trkpt>
      <trkpt lat="48.38366" lon="-1.60573">
        <ele>55.5</ele>
        <time>2019-07-16T12:12:05Z</time>
      </trkpt>
      <trkpt lat="48.38374" lon="-1.60576">
        <ele>55.1</ele>
        <time>2019-07-16T12:12:06Z</time>
      </trkpt>
      <trkpt lat="48.38381" lon="-1.60578">
        <ele>54.8</ele>
        <time>2019-07-16T12:12:07Z</time>
      </trkpt>
      <trkpt lat="48.38389" lon="-1.60581">
        <ele>54.6</ele>
        <time>2019-07-16T12:12:08Z</time>
      </trkpt>
      <trkpt lat="48.38396" lon="-1.60584">
        <ele>54.5</ele>
        <time>2019-07-16T12:12:09Z</time>
      </trkpt>
      <trkpt lat="48.38404" lon="-1.60586">
        <ele>54.3</ele>
        <time>2019-07-16T12:12:10Z</time>
      </trkpt>
      <trkpt lat="48.38411" lon="-1.60589">
        <ele>53.9</ele>
        <time>2019-07-16T12:12:11Z</time>
      </trkpt>
      <trkpt lat="48.38418" lon="-1.60591">
        <ele>53.8</ele>
        <time>2019-07-16T12:12:12Z</time>
      </trkpt>
      <trkpt lat="48.38425" lon="-1.60593">
        <ele>53.7</ele>
        <time>2019-07-16T12:12:13Z</time>
      </trkpt>
      <trkpt lat="48.38432" lon="-1.60594">
        <ele>53.7</ele>
        <time>2019-07-16T12:12:14Z</time>
      </trkpt>
      <trkpt lat="48.38439" lon="-1.60596">
        <ele>53.7</ele>
        <time>2019-07-16T12:12:15Z</time>
      </trkpt>
      <trkpt lat="48.38446" lon="-1.60597">
        <ele>54</ele>
        <time>2019-07-16T12:12:16Z</time>
      </trkpt>
      <trkpt lat="48.38453" lon="-1.60599">
        <ele>53.8</ele>
        <time>2019-07-16T12:12:17Z</time>
      </trkpt>
      <trkpt lat="48.38459" lon="-1.606">
        <ele>53.8</ele>
        <time>2019-07-16T12:12:18Z</time>
      </trkpt>
      <trkpt lat="48.38466" lon="-1.60601">
        <ele>53.5</ele>
        <time>2019-07-16T12:12:19Z</time>
      </trkpt>
      <trkpt lat="48.38473" lon="-1.60602">
        <ele>53.4</ele>
        <time>2019-07-16T12:12:20Z</time>
      </trkpt>
      <trkpt lat="48.38479" lon="-1.60604">
        <ele>53.6</ele>
        <time>2019-07-16T12:12:21Z</time>
      </trkpt>
      <trkpt lat="48.38485" lon="-1.60606">
        <ele>53.5</ele>
        <time>2019-07-16T12:12:22Z</time>
      </trkpt>
      <trkpt lat="48.38492" lon="-1.60607">
        <ele>52.9</ele>
        <time>2019-07-16T12:12:23Z</time>
      </trkpt>
      <trkpt lat="48.38498" lon="-1.60608">
        <ele>52.9</ele>
        <time>2019-07-16T12:12:24Z</time>
      </trkpt>
      <trkpt lat="48.38505" lon="-1.60609">
        <ele>53.1</ele>
        <time>2019-07-16T12:12:25Z</time>
      </trkpt>
      <trkpt lat="48.38511" lon="-1.60608">
        <ele>53</ele>
        <time>2019-07-16T12:12:26Z</time>
      </trkpt>
      <trkpt lat="48.38517" lon="-1.60607">
        <ele>52.4</ele>
        <time>2019-07-16T12:12:27Z</time>
      </trkpt>
      <trkpt lat="48.38524" lon="-1.60605">
        <ele>52.2</ele>
        <time>2019-07-16T12:12:28Z</time>
      </trkpt>
      <trkpt lat="48.38529" lon="-1.60604">
        <ele>51.9</ele>
        <time>2019-07-16T12:12:29Z</time>
      </trkpt>
      <trkpt lat="48.38535" lon="-1.60603">
        <ele>52</ele>
        <time>2019-07-16T12:12:30Z</time>
      </trkpt>
      <trkpt lat="48.38541" lon="-1.60601">
        <ele>51.6</ele>
        <time>2019-07-16T12:12:31Z</time>
      </trkpt>
      <trkpt lat="48.38547" lon="-1.606">
        <ele>51.8</ele>
        <time>2019-07-16T12:12:32Z</time>
      </trkpt>
      <trkpt lat="48.38553" lon="-1.60599">
        <ele>52.3</ele>
        <time>2019-07-16T12:12:33Z</time>
      </trkpt>
      <trkpt lat="48.38557" lon="-1.60598">
        <ele>52.8</ele>
        <time>2019-07-16T12:12:34Z</time>
      </trkpt>
      <trkpt lat="48.38562" lon="-1.60597">
        <ele>53.3</ele>
        <time>2019-07-16T12:12:35Z</time>
      </trkpt>
      <trkpt lat="48.38565" lon="-1.60596">
        <ele>53.4</ele>
        <time>2019-07-16T12:12:36Z</time>
      </trkpt>
      <trkpt lat="48.38569" lon="-1.60597">
        <ele>53.9</ele>
        <time>2019-07-16T12:12:37Z</time>
      </trkpt>
      <trkpt lat="48.38571" lon="-1.60599">
        <ele>54.4</ele>
        <time>2019-07-16T12:12:38Z</time>
      </trkpt>
      <trkpt lat="48.38573" lon="-1.606">
        <ele>54.4</ele>
        <time>2019-07-16T12:12:39Z</time>
      </trkpt>
      <trkpt lat="48.38575" lon="-1.60601">
        <ele>54.2</ele>
        <time>2019-07-16T12:12:40Z</time>
      </trkpt>
      <trkpt lat="48.38577" lon="-1.60601">
        <ele>54.1</ele>
        <time>2019-07-16T12:12:41Z</time>
      </trkpt>
      <trkpt lat="48.3858" lon="-1.606">
        <ele>53.8</ele>
        <time>2019-07-16T12:12:42Z</time>
      </trkpt>
      <trkpt lat="48.38582" lon="-1.606">
        <ele>53.6</ele>
        <time>2019-07-16T12:12:43Z</time>
      </trkpt>
      <trkpt lat="48.38585" lon="-1.60599">
        <ele>53.4</ele>
        <time>2019-07-16T12:12:44Z</time>
      </trkpt>
      <trkpt lat="48.38588" lon="-1.60599">
        <ele>53.2</ele>
        <time>2019-07-16T12:12:45Z</time>
      </trkpt>
      <trkpt lat="48.38591" lon="-1.60599">
        <ele>52.9</ele>
        <time>2019-07-16T12:12:46Z</time>
      </trkpt>
      <trkpt lat="48.38594" lon="-1.60599">
        <ele>53</ele>
        <time>2019-07-16T12:12:47Z</time>
      </trkpt>
      <trkpt lat="48.38596" lon="-1.60599">
        <ele>52.8</ele>
        <time>2019-07-16T12:12:48Z</time>
      </trkpt>
      <trkpt lat="48.38599" lon="-1.60597">
        <ele>52.8</ele>
        <time>2019-07-16T12:12:49Z</time>
      </trkpt>
      <trkpt lat="48.38602" lon="-1.60596">
        <ele>53.2</ele>
        <time>2019-07-16T12:12:50Z</time>
      </trkpt>
      <trkpt lat="48.38605" lon="-1.60595">
        <ele>53.2</ele>
        <time>2019-07-16T12:12:51Z</time>
      </trkpt>
      <trkpt lat="48.38608" lon="-1.60594">
        <ele>53.6</ele>
        <time>2019-07-16T12:12:52Z</time>
      </trkpt>
      <trkpt lat="48.38612" lon="-1.60593">
        <ele>53.7</ele>
        <time>2019-07-16T12:12:53Z</time>
      </trkpt>
      <trkpt lat="48.38615" lon="-1.60592">
        <ele>53.8</ele>
        <time>2019-07-16T12:12:54Z</time>
      </trkpt>
      <trkpt lat="48.38619" lon="-1.60591">
        <ele>53.4</ele>
        <time>2019-07-16T12:12:55Z</time>
      </trkpt>
      <trkpt lat="48.38622" lon="-1.6059">
        <ele>54.4</ele>
        <time>2019-07-16T12:12:56Z</time>
      </trkpt>
      <trkpt lat="48.38625" lon="-1.60589">
        <ele>55.2</ele>
        <time>2019-07-16T12:12:57Z</time>
      </trkpt>
      <trkpt lat="48.38628" lon="-1.60587">
        <ele>56.1</ele>
        <time>2019-07-16T12:12:58Z</time>
      </trkpt>
      <trkpt lat="48.38631" lon="-1.60586">
        <ele>56.6</ele>
        <time>2019-07-16T12:12:59Z</time>
      </trkpt>
      <trkpt lat="48.38634" lon="-1.60585">
        <ele>56.5</ele>
        <time>2019-07-16T12:13:00Z</time>
      </trkpt>
      <trkpt lat="48.38638" lon="-1.60584">
        <ele>56.5</ele>
        <time>2019-07-16T12:13:01Z</time>
      </trkpt>
      <trkpt lat="48.38641" lon="-1.60583">
        <ele>56.7</ele>
        <time>2019-07-16T12:13:02Z</time>
      </trkpt>
      <trkpt lat="48.38644" lon="-1.60581">
        <ele>56.7</ele>
        <time>2019-07-16T12:13:03Z</time>
      </trkpt>
      <trkpt lat="48.38647" lon="-1.60579">
        <ele>56.4</ele>
        <time>2019-07-16T12:13:04Z</time>
      </trkpt>
      <trkpt lat="48.3865" lon="-1.60578">
        <ele>56.3</ele>
        <time>2019-07-16T12:13:05Z</time>
      </trkpt>
      <trkpt lat="48.38653" lon="-1.60577">
        <ele>56.8</ele>
        <time>2019-07-16T12:13:06Z</time>
      </trkpt>
      <trkpt lat="48.38655" lon="-1.60576">
        <ele>57.2</ele>
        <time>2019-07-16T12:13:07Z</time>
      </trkpt>
      <trkpt lat="48.38657" lon="-1.60575">
        <ele>58.2</ele>
        <time>2019-07-16T12:13:08Z</time>
      </trkpt>
      <trkpt lat="48.38659" lon="-1.60573">
        <ele>59.1</ele>
        <time>2019-07-16T12:13:09Z</time>
      </trkpt>
      <trkpt lat="48.38661" lon="-1.60572">
        <ele>60.5</ele>
        <time>2019-07-16T12:13:10Z</time>
      </trkpt>
      <trkpt lat="48.38662" lon="-1.60571">
        <ele>62.2</ele>
        <time>2019-07-16T12:13:11Z</time>
      </trkpt>
      <trkpt lat="48.38663" lon="-1.60573">
        <ele>63.5</ele>
        <time>2019-07-16T12:13:12Z</time>
      </trkpt>
      <trkpt lat="48.38664" lon="-1.60575">
        <ele>64.6</ele>
        <time>2019-07-16T12:13:13Z</time>
      </trkpt>
      <trkpt lat="48.38665" lon="-1.60579">
        <ele>63.5</ele>
        <time>2019-07-16T12:13:14Z</time>
      </trkpt>
      <trkpt lat="48.38666" lon="-1.6058">
        <ele>64</ele>
        <time>2019-07-16T12:13:15Z</time>
      </trkpt>
      <trkpt lat="48.38667" lon="-1.60582">
        <ele>63.8</ele>
        <time>2019-07-16T12:13:16Z</time>
      </trkpt>
      <trkpt lat="48.38677" lon="-1.60582">
        <ele>59</ele>
        <time>2019-07-16T12:24:20Z</time>
      </trkpt>
      <trkpt lat="48.38679" lon="-1.60578">
        <ele>59.3</ele>
        <time>2019-07-16T12:24:25Z</time>
      </trkpt>
      <trkpt lat="48.3868" lon="-1.60578">
        <ele>59.5</ele>
        <time>2019-07-16T12:24:26Z</time>
      </trkpt>
      <trkpt lat="48.38682" lon="-1.60577">
        <ele>59.6</ele>
        <time>2019-07-16T12:24:27Z</time>
      </trkpt>
      <trkpt lat="48.38685" lon="-1.60576">
        <ele>59.6</ele>
        <time>2019-07-16T12:24:28Z</time>
      </trkpt>
      <trkpt lat="48.38689" lon="-1.60575">
        <ele>59.8</ele>
        <time>2019-07-16T12:24:29Z</time>
      </trkpt>
      <trkpt lat="48.38693" lon="-1.60575">
        <ele>59.9</ele>
        <time>2019-07-16T12:24:30Z</time>
      </trkpt>
      <trkpt lat="48.38697" lon="-1.60575">
        <ele>60.1</ele>
        <time>2019-07-16T12:24:31Z</time>
      </trkpt>
      <trkpt lat="48.38701" lon="-1.60575">
        <ele>60.2</ele>
        <time>2019-07-16T12:24:32Z</time>
      </trkpt>
      <trkpt lat="48.38706" lon="-1.60574">
        <ele>59.8</ele>
        <time>2019-07-16T12:24:33Z</time>
      </trkpt>
      <trkpt lat="48.38711" lon="-1.60574">
        <ele>59.3</ele>
        <time>2019-07-16T12:24:34Z</time>
      </trkpt>
      <trkpt lat="48.38717" lon="-1.60574">
        <ele>58.5</ele>
        <time>2019-07-16T12:24:35Z</time>
      </trkpt>
      <trkpt lat="48.38722" lon="-1.60574">
        <ele>57.9</ele>
        <time>2019-07-16T12:24:36Z</time>
      </trkpt>
      <trkpt lat="48.38726" lon="-1.60575">
        <ele>57.3</ele>
        <time>2019-07-16T12:24:37Z</time>
      </trkpt>
      <trkpt lat="48.38731" lon="-1.60576">
        <ele>56.6</ele>
        <time>2019-07-16T12:24:38Z</time>
      </trkpt>
      <trkpt lat="48.38736" lon="-1.60577">
        <ele>56.1</ele>
        <time>2019-07-16T12:24:39Z</time>
      </trkpt>
      <trkpt lat="48.38742" lon="-1.60577">
        <ele>54.4</ele>
        <time>2019-07-16T12:24:40Z</time>
      </trkpt>
      <trkpt lat="48.38746" lon="-1.60577">
        <ele>53</ele>
        <time>2019-07-16T12:24:41Z</time>
      </trkpt>
      <trkpt lat="48.38752" lon="-1.60577">
        <ele>51.8</ele>
        <time>2019-07-16T12:24:42Z</time>
      </trkpt>
      <trkpt lat="48.38757" lon="-1.60577">
        <ele>51.1</ele>
        <time>2019-07-16T12:24:43Z</time>
      </trkpt>
      <trkpt lat="48.38762" lon="-1.60578">
        <ele>50.1</ele>
        <time>2019-07-16T12:24:44Z</time>
      </trkpt>
      <trkpt lat="48.38767" lon="-1.60579">
        <ele>49.4</ele>
        <time>2019-07-16T12:24:45Z</time>
      </trkpt>
      <trkpt lat="48.38772" lon="-1.6058">
        <ele>48.9</ele>
        <time>2019-07-16T12:24:46Z</time>
      </trkpt>
      <trkpt lat="48.38778" lon="-1.6058">
        <ele>48.6</ele>
        <time>2019-07-16T12:24:47Z</time>
      </trkpt>
      <trkpt lat="48.38783" lon="-1.6058">
        <ele>48.3</ele>
        <time>2019-07-16T12:24:48Z</time>
      </trkpt>
      <trkpt lat="48.38788" lon="-1.60579">
        <ele>48</ele>
        <time>2019-07-16T12:24:49Z</time>
      </trkpt>
      <trkpt lat="48.38794" lon="-1.60578">
        <ele>47.8</ele>
        <time>2019-07-16T12:24:50Z</time>
      </trkpt>
      <trkpt lat="48.38799" lon="-1.60576">
        <ele>47.7</ele>
        <time>2019-07-16T12:24:51Z</time>
      </trkpt>
      <trkpt lat="48.38805" lon="-1.60574">
        <ele>47.6</ele>
        <time>2019-07-16T12:24:52Z</time>
      </trkpt>
      <trkpt lat="48.38811" lon="-1.60573">
        <ele>46.4</ele>
        <time>2019-07-16T12:24:53Z</time>
      </trkpt>
      <trkpt lat="48.38817" lon="-1.60571">
        <ele>45.5</ele>
        <time>2019-07-16T12:24:54Z</time>
      </trkpt>
      <trkpt lat="48.38822" lon="-1.60569">
        <ele>45.1</ele>
        <time>2019-07-16T12:24:55Z</time>
      </trkpt>
      <trkpt lat="48.38828" lon="-1.60565">
        <ele>44.7</ele>
        <time>2019-07-16T12:24:56Z</time>
      </trkpt>
      <trkpt lat="48.38833" lon="-1.60561">
        <ele>44.3</ele>
        <time>2019-07-16T12:24:57Z</time>
      </trkpt>
      <trkpt lat="48.38837" lon="-1.60556">
        <ele>44.2</ele>
        <time>2019-07-16T12:24:58Z</time>
      </trkpt>
      <trkpt lat="48.38841" lon="-1.6055">
        <ele>44.1</ele>
        <time>2019-07-16T12:24:59Z</time>
      </trkpt>
      <trkpt lat="48.38844" lon="-1.60543">
        <ele>44.2</ele>
        <time>2019-07-16T12:25:00Z</time>
      </trkpt>
      <trkpt lat="48.38847" lon="-1.60535">
        <ele>43.2</ele>
        <time>2019-07-16T12:25:01Z</time>
      </trkpt>
      <trkpt lat="48.38849" lon="-1.60528">
        <ele>43.1</ele>
        <time>2019-07-16T12:25:02Z</time>
      </trkpt>
      <trkpt lat="48.38851" lon="-1.60521">
        <ele>42.9</ele>
        <time>2019-07-16T12:25:03Z</time>
      </trkpt>
      <trkpt lat="48.38852" lon="-1.60516">
        <ele>42.9</ele>
        <time>2019-07-16T12:25:04Z</time>
      </trkpt>
      <trkpt lat="48.38853" lon="-1.60513">
        <ele>43.1</ele>
        <time>2019-07-16T12:25:05Z</time>
      </trkpt>
      <trkpt lat="48.38855" lon="-1.60507">
        <ele>43.1</ele>
        <time>2019-07-16T12:25:30Z</time>
      </trkpt>
      <trkpt lat="48.38856" lon="-1.60505">
        <ele>43</ele>
        <time>2019-07-16T12:25:31Z</time>
      </trkpt>
      <trkpt lat="48.38857" lon="-1.60502">
        <ele>42.8</ele>
        <time>2019-07-16T12:25:32Z</time>
      </trkpt>
      <trkpt lat="48.38857" lon="-1.60499">
        <ele>42.8</ele>
        <time>2019-07-16T12:25:33Z</time>
      </trkpt>
      <trkpt lat="48.38858" lon="-1.60496">
        <ele>42.8</ele>
        <time>2019-07-16T12:25:34Z</time>
      </trkpt>
      <trkpt lat="48.38858" lon="-1.60492">
        <ele>42.7</ele>
        <time>2019-07-16T12:25:35Z</time>
      </trkpt>
      <trkpt lat="48.38859" lon="-1.60488">
        <ele>42.4</ele>
        <time>2019-07-16T12:25:36Z</time>
      </trkpt>
      <trkpt lat="48.3886" lon="-1.60485">
        <ele>42.3</ele>
        <time>2019-07-16T12:25:37Z</time>
      </trkpt>
      <trkpt lat="48.38861" lon="-1.60482">
        <ele>42.9</ele>
        <time>2019-07-16T12:25:38Z</time>
      </trkpt>
      <trkpt lat="48.38863" lon="-1.60479">
        <ele>43</ele>
        <time>2019-07-16T12:25:39Z</time>
      </trkpt>
      <trkpt lat="48.38867" lon="-1.60477">
        <ele>44.1</ele>
        <time>2019-07-16T12:25:40Z</time>
      </trkpt>
      <trkpt lat="48.3887" lon="-1.60475">
        <ele>44.9</ele>
        <time>2019-07-16T12:25:41Z</time>
      </trkpt>
      <trkpt lat="48.38874" lon="-1.60474">
        <ele>45.5</ele>
        <time>2019-07-16T12:25:42Z</time>
      </trkpt>
      <trkpt lat="48.38877" lon="-1.60474">
        <ele>46.1</ele>
        <time>2019-07-16T12:25:43Z</time>
      </trkpt>
      <trkpt lat="48.38881" lon="-1.60473">
        <ele>45.5</ele>
        <time>2019-07-16T12:25:44Z</time>
      </trkpt>
      <trkpt lat="48.38885" lon="-1.60473">
        <ele>44.7</ele>
        <time>2019-07-16T12:25:45Z</time>
      </trkpt>
      <trkpt lat="48.38889" lon="-1.60473">
        <ele>44.1</ele>
        <time>2019-07-16T12:25:46Z</time>
      </trkpt>
      <trkpt lat="48.38892" lon="-1.60474">
        <ele>43.7</ele>
        <time>2019-07-16T12:25:47Z</time>
      </trkpt>
      <trkpt lat="48.38896" lon="-1.60474">
        <ele>43.5</ele>
        <time>2019-07-16T12:25:48Z</time>
      </trkpt>
      <trkpt lat="48.389" lon="-1.60475">
        <ele>43.1</ele>
        <time>2019-07-16T12:25:49Z</time>
      </trkpt>
      <trkpt lat="48.38904" lon="-1.60476">
        <ele>42.9</ele>
        <time>2019-07-16T12:25:50Z</time>
      </trkpt>
      <trkpt lat="48.38908" lon="-1.60477">
        <ele>42.8</ele>
        <time>2019-07-16T12:25:51Z</time>
      </trkpt>
      <trkpt lat="48.38912" lon="-1.60477">
        <ele>42.8</ele>
        <time>2019-07-16T12:25:52Z</time>
      </trkpt>
      <trkpt lat="48.38916" lon="-1.60478">
        <ele>42.9</ele>
        <time>2019-07-16T12:25:53Z</time>
      </trkpt>
      <trkpt lat="48.3892" lon="-1.60479">
        <ele>43</ele>
        <time>2019-07-16T12:25:54Z</time>
      </trkpt>
      <trkpt lat="48.38925" lon="-1.60479">
        <ele>42.9</ele>
        <time>2019-07-16T12:25:55Z</time>
      </trkpt>
      <trkpt lat="48.38929" lon="-1.6048">
        <ele>42.5</ele>
        <time>2019-07-16T12:25:56Z</time>
      </trkpt>
      <trkpt lat="48.38934" lon="-1.60481">
        <ele>42.2</ele>
        <time>2019-07-16T12:25:57Z</time>
      </trkpt>
      <trkpt lat="48.38938" lon="-1.60481">
        <ele>42.1</ele>
        <time>2019-07-16T12:25:58Z</time>
      </trkpt>
      <trkpt lat="48.38942" lon="-1.60482">
        <ele>42</ele>
        <time>2019-07-16T12:25:59Z</time>
      </trkpt>
      <trkpt lat="48.38947" lon="-1.60482">
        <ele>42</ele>
        <time>2019-07-16T12:26:00Z</time>
      </trkpt>
      <trkpt lat="48.38951" lon="-1.60482">
        <ele>41.9</ele>
        <time>2019-07-16T12:26:01Z</time>
      </trkpt>
      <trkpt lat="48.38956" lon="-1.60483">
        <ele>41.9</ele>
        <time>2019-07-16T12:26:02Z</time>
      </trkpt>
      <trkpt lat="48.3896" lon="-1.60483">
        <ele>41.7</ele>
        <time>2019-07-16T12:26:03Z</time>
      </trkpt>
      <trkpt lat="48.38965" lon="-1.60484">
        <ele>41.4</ele>
        <time>2019-07-16T12:26:04Z</time>
      </trkpt>
      <trkpt lat="48.3897" lon="-1.60484">
        <ele>41</ele>
        <time>2019-07-16T12:26:05Z</time>
      </trkpt>
      <trkpt lat="48.38975" lon="-1.60484">
        <ele>40.6</ele>
        <time>2019-07-16T12:26:06Z</time>
      </trkpt>
      <trkpt lat="48.3898" lon="-1.60484">
        <ele>40.2</ele>
        <time>2019-07-16T12:26:07Z</time>
      </trkpt>
      <trkpt lat="48.38985" lon="-1.60484">
        <ele>40</ele>
        <time>2019-07-16T12:26:08Z</time>
      </trkpt>
      <trkpt lat="48.3899" lon="-1.60484">
        <ele>39.8</ele>
        <time>2019-07-16T12:26:09Z</time>
      </trkpt>
      <trkpt lat="48.38996" lon="-1.60484">
        <ele>39.6</ele>
        <time>2019-07-16T12:26:10Z</time>
      </trkpt>
      <trkpt lat="48.39001" lon="-1.60484">
        <ele>39.2</ele>
        <time>2019-07-16T12:26:11Z</time>
      </trkpt>
      <trkpt lat="48.39006" lon="-1.60484">
        <ele>38.7</ele>
        <time>2019-07-16T12:26:12Z</time>
      </trkpt>
      <trkpt lat="48.39012" lon="-1.60483">
        <ele>38.6</ele>
        <time>2019-07-16T12:26:13Z</time>
      </trkpt>
      <trkpt lat="48.39018" lon="-1.60483">
        <ele>38.3</ele>
        <time>2019-07-16T12:26:14Z</time>
      </trkpt>
      <trkpt lat="48.39023" lon="-1.60483">
        <ele>38.2</ele>
        <time>2019-07-16T12:26:15Z</time>
      </trkpt>
      <trkpt lat="48.39029" lon="-1.60484">
        <ele>37.9</ele>
        <time>2019-07-16T12:26:16Z</time>
      </trkpt>
      <trkpt lat="48.39035" lon="-1.60484">
        <ele>37.6</ele>
        <time>2019-07-16T12:26:17Z</time>
      </trkpt>
      <trkpt lat="48.3904" lon="-1.60485">
        <ele>37.7</ele>
        <time>2019-07-16T12:26:18Z</time>
      </trkpt>
      <trkpt lat="48.39046" lon="-1.60486">
        <ele>37.5</ele>
        <time>2019-07-16T12:26:19Z</time>
      </trkpt>
      <trkpt lat="48.39051" lon="-1.60486">
        <ele>37.5</ele>
        <time>2019-07-16T12:26:20Z</time>
      </trkpt>
      <trkpt lat="48.39057" lon="-1.60487">
        <ele>37.5</ele>
        <time>2019-07-16T12:26:21Z</time>
      </trkpt>
      <trkpt lat="48.39062" lon="-1.60488">
        <ele>37.9</ele>
        <time>2019-07-16T12:26:22Z</time>
      </trkpt>
      <trkpt lat="48.39067" lon="-1.60489">
        <ele>37.9</ele>
        <time>2019-07-16T12:26:23Z</time>
      </trkpt>
      <trkpt lat="48.39071" lon="-1.60489">
        <ele>37.4</ele>
        <time>2019-07-16T12:26:24Z</time>
      </trkpt>
      <trkpt lat="48.39076" lon="-1.6049">
        <ele>36.8</ele>
        <time>2019-07-16T12:26:25Z</time>
      </trkpt>
      <trkpt lat="48.3908" lon="-1.60491">
        <ele>36.5</ele>
        <time>2019-07-16T12:26:26Z</time>
      </trkpt>
      <trkpt lat="48.39085" lon="-1.60492">
        <ele>36.4</ele>
        <time>2019-07-16T12:26:27Z</time>
      </trkpt>
      <trkpt lat="48.39089" lon="-1.60493">
        <ele>36.4</ele>
        <time>2019-07-16T12:26:28Z</time>
      </trkpt>
      <trkpt lat="48.39094" lon="-1.60494">
        <ele>36.3</ele>
        <time>2019-07-16T12:26:29Z</time>
      </trkpt>
      <trkpt lat="48.39098" lon="-1.60495">
        <ele>36</ele>
        <time>2019-07-16T12:26:30Z</time>
      </trkpt>
      <trkpt lat="48.39103" lon="-1.60496">
        <ele>35.8</ele>
        <time>2019-07-16T12:26:31Z</time>
      </trkpt>
      <trkpt lat="48.39107" lon="-1.60496">
        <ele>35.8</ele>
        <time>2019-07-16T12:26:32Z</time>
      </trkpt>
      <trkpt lat="48.39111" lon="-1.60497">
        <ele>35.8</ele>
        <time>2019-07-16T12:26:33Z</time>
      </trkpt>
      <trkpt lat="48.39116" lon="-1.60498">
        <ele>35.7</ele>
        <time>2019-07-16T12:26:34Z</time>
      </trkpt>
      <trkpt lat="48.39119" lon="-1.605">
        <ele>35.8</ele>
        <time>2019-07-16T12:26:35Z</time>
      </trkpt>
      <trkpt lat="48.39123" lon="-1.60501">
        <ele>35.9</ele>
        <time>2019-07-16T12:26:36Z</time>
      </trkpt>
      <trkpt lat="48.39127" lon="-1.60502">
        <ele>35.9</ele>
        <time>2019-07-16T12:26:37Z</time>
      </trkpt>
      <trkpt lat="48.39131" lon="-1.60503">
        <ele>36.1</ele>
        <time>2019-07-16T12:26:38Z</time>
      </trkpt>
      <trkpt lat="48.39135" lon="-1.60505">
        <ele>36.3</ele>
        <time>2019-07-16T12:26:39Z</time>
      </trkpt>
      <trkpt lat="48.39139" lon="-1.60506">
        <ele>36.8</ele>
        <time>2019-07-16T12:26:40Z</time>
      </trkpt>
      <trkpt lat="48.39143" lon="-1.60507">
        <ele>37.2</ele>
        <time>2019-07-16T12:26:41Z</time>
      </trkpt>
      <trkpt lat="48.39146" lon="-1.60508">
        <ele>37.3</ele>
        <time>2019-07-16T12:26:42Z</time>
      </trkpt>
      <trkpt lat="48.3915" lon="-1.6051">
        <ele>37.6</ele>
        <time>2019-07-16T12:26:43Z</time>
      </trkpt>
      <trkpt lat="48.39154" lon="-1.60512">
        <ele>37.9</ele>
        <time>2019-07-16T12:26:44Z</time>
      </trkpt>
      <trkpt lat="48.39157" lon="-1.60513">
        <ele>38.2</ele>
        <time>2019-07-16T12:26:45Z</time>
      </trkpt>
      <trkpt lat="48.3916" lon="-1.60514">
        <ele>38.4</ele>
        <time>2019-07-16T12:26:46Z</time>
      </trkpt>
      <trkpt lat="48.39164" lon="-1.60515">
        <ele>38.3</ele>
        <time>2019-07-16T12:26:47Z</time>
      </trkpt>
      <trkpt lat="48.39167" lon="-1.60516">
        <ele>38.4</ele>
        <time>2019-07-16T12:26:48Z</time>
      </trkpt>
      <trkpt lat="48.39169" lon="-1.60517">
        <ele>38.6</ele>
        <time>2019-07-16T12:26:49Z</time>
      </trkpt>
      <trkpt lat="48.39172" lon="-1.60518">
        <ele>38.8</ele>
        <time>2019-07-16T12:26:50Z</time>
      </trkpt>
      <trkpt lat="48.39175" lon="-1.60518">
        <ele>38.8</ele>
        <time>2019-07-16T12:26:51Z</time>
      </trkpt>
      <trkpt lat="48.39179" lon="-1.60519">
        <ele>38.9</ele>
        <time>2019-07-16T12:26:52Z</time>
      </trkpt>
      <trkpt lat="48.39182" lon="-1.6052">
        <ele>39</ele>
        <time>2019-07-16T12:26:53Z</time>
      </trkpt>
      <trkpt lat="48.39185" lon="-1.60521">
        <ele>39.3</ele>
        <time>2019-07-16T12:26:54Z</time>
      </trkpt>
      <trkpt lat="48.39188" lon="-1.60522">
        <ele>39.5</ele>
        <time>2019-07-16T12:26:55Z</time>
      </trkpt>
      <trkpt lat="48.39191" lon="-1.60523">
        <ele>39.4</ele>
        <time>2019-07-16T12:26:56Z</time>
      </trkpt>
      <trkpt lat="48.39193" lon="-1.60524">
        <ele>39.6</ele>
        <time>2019-07-16T12:26:57Z</time>
      </trkpt>
      <trkpt lat="48.39196" lon="-1.60525">
        <ele>39.6</ele>
        <time>2019-07-16T12:26:58Z</time>
      </trkpt>
      <trkpt lat="48.39199" lon="-1.60525">
        <ele>39.4</ele>
        <time>2019-07-16T12:26:59Z</time>
      </trkpt>
      <trkpt lat="48.39202" lon="-1.60526">
        <ele>39.4</ele>
        <time>2019-07-16T12:27:00Z</time>
      </trkpt>
      <trkpt lat="48.39204" lon="-1.60527">
        <ele>39.3</ele>
        <time>2019-07-16T12:27:01Z</time>
      </trkpt>
      <trkpt lat="48.39207" lon="-1.60527">
        <ele>39.3</ele>
        <time>2019-07-16T12:27:02Z</time>
      </trkpt>
      <trkpt lat="48.39209" lon="-1.60528">
        <ele>39.3</ele>
        <time>2019-07-16T12:27:03Z</time>
      </trkpt>
      <trkpt lat="48.39212" lon="-1.60529">
        <ele>39.3</ele>
        <time>2019-07-16T12:27:04Z</time>
      </trkpt>
      <trkpt lat="48.39215" lon="-1.60529">
        <ele>39.5</ele>
        <time>2019-07-16T12:27:05Z</time>
      </trkpt>
      <trkpt lat="48.39217" lon="-1.6053">
        <ele>39.6</ele>
        <time>2019-07-16T12:27:06Z</time>
      </trkpt>
      <trkpt lat="48.3922" lon="-1.6053">
        <ele>39.9</ele>
        <time>2019-07-16T12:27:07Z</time>
      </trkpt>
      <trkpt lat="48.39222" lon="-1.60531">
        <ele>40.1</ele>
        <time>2019-07-16T12:27:08Z</time>
      </trkpt>
      <trkpt lat="48.39225" lon="-1.60532">
        <ele>40.2</ele>
        <time>2019-07-16T12:27:09Z</time>
      </trkpt>
      <trkpt lat="48.39227" lon="-1.60533">
        <ele>40.3</ele>
        <time>2019-07-16T12:27:10Z</time>
      </trkpt>
      <trkpt lat="48.3923" lon="-1.60533">
        <ele>40.6</ele>
        <time>2019-07-16T12:27:11Z</time>
      </trkpt>
      <trkpt lat="48.39232" lon="-1.60534">
        <ele>40.8</ele>
        <time>2019-07-16T12:27:12Z</time>
      </trkpt>
      <trkpt lat="48.39234" lon="-1.60534">
        <ele>41</ele>
        <time>2019-07-16T12:27:13Z</time>
      </trkpt>
      <trkpt lat="48.39237" lon="-1.60534">
        <ele>41.1</ele>
        <time>2019-07-16T12:27:14Z</time>
      </trkpt>
      <trkpt lat="48.3924" lon="-1.60535">
        <ele>41.2</ele>
        <time>2019-07-16T12:27:15Z</time>
      </trkpt>
      <trkpt lat="48.39242" lon="-1.60535">
        <ele>41.2</ele>
        <time>2019-07-16T12:27:16Z</time>
      </trkpt>
      <trkpt lat="48.39244" lon="-1.60535">
        <ele>41.2</ele>
        <time>2019-07-16T12:27:17Z</time>
      </trkpt>
      <trkpt lat="48.39247" lon="-1.60536">
        <ele>41.2</ele>
        <time>2019-07-16T12:27:18Z</time>
      </trkpt>
      <trkpt lat="48.39249" lon="-1.60536">
        <ele>41.3</ele>
        <time>2019-07-16T12:27:19Z</time>
      </trkpt>
      <trkpt lat="48.39252" lon="-1.60537">
        <ele>41.3</ele>
        <time>2019-07-16T12:27:20Z</time>
      </trkpt>
      <trkpt lat="48.39254" lon="-1.60537">
        <ele>41.6</ele>
        <time>2019-07-16T12:27:21Z</time>
      </trkpt>
      <trkpt lat="48.39257" lon="-1.60538">
        <ele>41.8</ele>
        <time>2019-07-16T12:27:22Z</time>
      </trkpt>
      <trkpt lat="48.39259" lon="-1.60538">
        <ele>41.8</ele>
        <time>2019-07-16T12:27:23Z</time>
      </trkpt>
      <trkpt lat="48.39261" lon="-1.60538">
        <ele>41.9</ele>
        <time>2019-07-16T12:27:24Z</time>
      </trkpt>
      <trkpt lat="48.39264" lon="-1.60539">
        <ele>41.9</ele>
        <time>2019-07-16T12:27:25Z</time>
      </trkpt>
      <trkpt lat="48.39266" lon="-1.60538">
        <ele>42.2</ele>
        <time>2019-07-16T12:27:26Z</time>
      </trkpt>
      <trkpt lat="48.39269" lon="-1.60539">
        <ele>42.4</ele>
        <time>2019-07-16T12:27:27Z</time>
      </trkpt>
      <trkpt lat="48.39271" lon="-1.60539">
        <ele>42.7</ele>
        <time>2019-07-16T12:27:28Z</time>
      </trkpt>
      <trkpt lat="48.39273" lon="-1.60539">
        <ele>43</ele>
        <time>2019-07-16T12:27:29Z</time>
      </trkpt>
      <trkpt lat="48.39275" lon="-1.60539">
        <ele>43</ele>
        <time>2019-07-16T12:27:30Z</time>
      </trkpt>
      <trkpt lat="48.39278" lon="-1.60539">
        <ele>43.1</ele>
        <time>2019-07-16T12:27:31Z</time>
      </trkpt>
      <trkpt lat="48.3928" lon="-1.60539">
        <ele>43.1</ele>
        <time>2019-07-16T12:27:32Z</time>
      </trkpt>
      <trkpt lat="48.39282" lon="-1.60539">
        <ele>43</ele>
        <time>2019-07-16T12:27:33Z</time>
      </trkpt>
      <trkpt lat="48.39284" lon="-1.60539">
        <ele>43.1</ele>
        <time>2019-07-16T12:27:34Z</time>
      </trkpt>
      <trkpt lat="48.39286" lon="-1.60539">
        <ele>43.2</ele>
        <time>2019-07-16T12:27:35Z</time>
      </trkpt>
      <trkpt lat="48.39288" lon="-1.60539">
        <ele>43.5</ele>
        <time>2019-07-16T12:27:36Z</time>
      </trkpt>
      <trkpt lat="48.3929" lon="-1.60539">
        <ele>43.2</ele>
        <time>2019-07-16T12:27:37Z</time>
      </trkpt>
      <trkpt lat="48.39293" lon="-1.60539">
        <ele>43</ele>
        <time>2019-07-16T12:27:38Z</time>
      </trkpt>
      <trkpt lat="48.39295" lon="-1.60539">
        <ele>42.9</ele>
        <time>2019-07-16T12:27:39Z</time>
      </trkpt>
      <trkpt lat="48.39297" lon="-1.6054">
        <ele>42.9</ele>
        <time>2019-07-16T12:27:40Z</time>
      </trkpt>
      <trkpt lat="48.39299" lon="-1.6054">
        <ele>43</ele>
        <time>2019-07-16T12:27:41Z</time>
      </trkpt>
      <trkpt lat="48.39301" lon="-1.6054">
        <ele>42.9</ele>
        <time>2019-07-16T12:27:42Z</time>
      </trkpt>
      <trkpt lat="48.39303" lon="-1.6054">
        <ele>42.9</ele>
        <time>2019-07-16T12:27:43Z</time>
      </trkpt>
      <trkpt lat="48.39305" lon="-1.60541">
        <ele>43</ele>
        <time>2019-07-16T12:27:44Z</time>
      </trkpt>
      <trkpt lat="48.39307" lon="-1.60541">
        <ele>42.9</ele>
        <time>2019-07-16T12:27:45Z</time>
      </trkpt>
      <trkpt lat="48.39309" lon="-1.60541">
        <ele>43</ele>
        <time>2019-07-16T12:27:46Z</time>
      </trkpt>
      <trkpt lat="48.39311" lon="-1.60541">
        <ele>43.1</ele>
        <time>2019-07-16T12:27:47Z</time>
      </trkpt>
      <trkpt lat="48.39314" lon="-1.60541">
        <ele>43.2</ele>
        <time>2019-07-16T12:27:48Z</time>
      </trkpt>
      <trkpt lat="48.39315" lon="-1.60541">
        <ele>43.4</ele>
        <time>2019-07-16T12:27:49Z</time>
      </trkpt>
      <trkpt lat="48.39317" lon="-1.60542">
        <ele>43.7</ele>
        <time>2019-07-16T12:27:50Z</time>
      </trkpt>
      <trkpt lat="48.39319" lon="-1.60542">
        <ele>44.1</ele>
        <time>2019-07-16T12:27:51Z</time>
      </trkpt>
      <trkpt lat="48.39322" lon="-1.60542">
        <ele>44.5</ele>
        <time>2019-07-16T12:27:52Z</time>
      </trkpt>
      <trkpt lat="48.39324" lon="-1.60542">
        <ele>44.3</ele>
        <time>2019-07-16T12:27:53Z</time>
      </trkpt>
      <trkpt lat="48.39326" lon="-1.60542">
        <ele>44.2</ele>
        <time>2019-07-16T12:27:54Z</time>
      </trkpt>
      <trkpt lat="48.39328" lon="-1.60542">
        <ele>44.3</ele>
        <time>2019-07-16T12:27:55Z</time>
      </trkpt>
      <trkpt lat="48.3933" lon="-1.60542">
        <ele>44.3</ele>
        <time>2019-07-16T12:27:56Z</time>
      </trkpt>
      <trkpt lat="48.39332" lon="-1.60543">
        <ele>44.4</ele>
        <time>2019-07-16T12:27:57Z</time>
      </trkpt>
      <trkpt lat="48.39335" lon="-1.60543">
        <ele>44.9</ele>
        <time>2019-07-16T12:27:58Z</time>
      </trkpt>
      <trkpt lat="48.39337" lon="-1.60543">
        <ele>44.9</ele>
        <time>2019-07-16T12:27:59Z</time>
      </trkpt>
      <trkpt lat="48.39339" lon="-1.60543">
        <ele>44.9</ele>
        <time>2019-07-16T12:28:00Z</time>
      </trkpt>
      <trkpt lat="48.39341" lon="-1.60543">
        <ele>44.6</ele>
        <time>2019-07-16T12:28:01Z</time>
      </trkpt>
      <trkpt lat="48.39343" lon="-1.60544">
        <ele>44.6</ele>
        <time>2019-07-16T12:28:02Z</time>
      </trkpt>
      <trkpt lat="48.39346" lon="-1.60544">
        <ele>44.6</ele>
        <time>2019-07-16T12:28:03Z</time>
      </trkpt>
      <trkpt lat="48.39348" lon="-1.60544">
        <ele>44.5</ele>
        <time>2019-07-16T12:28:04Z</time>
      </trkpt>
      <trkpt lat="48.3935" lon="-1.60544">
        <ele>44.6</ele>
        <time>2019-07-16T12:28:05Z</time>
      </trkpt>
      <trkpt lat="48.39352" lon="-1.60544">
        <ele>44.7</ele>
        <time>2019-07-16T12:28:06Z</time>
      </trkpt>
      <trkpt lat="48.39355" lon="-1.60544">
        <ele>44.9</ele>
        <time>2019-07-16T12:28:07Z</time>
      </trkpt>
      <trkpt lat="48.39357" lon="-1.60545">
        <ele>45.3</ele>
        <time>2019-07-16T12:28:08Z</time>
      </trkpt>
      <trkpt lat="48.39359" lon="-1.60545">
        <ele>45.8</ele>
        <time>2019-07-16T12:28:09Z</time>
      </trkpt>
      <trkpt lat="48.39361" lon="-1.60545">
        <ele>46.1</ele>
        <time>2019-07-16T12:28:10Z</time>
      </trkpt>
      <trkpt lat="48.39363" lon="-1.60545">
        <ele>46.4</ele>
        <time>2019-07-16T12:28:11Z</time>
      </trkpt>
      <trkpt lat="48.39365" lon="-1.60545">
        <ele>46.8</ele>
        <time>2019-07-16T12:28:12Z</time>
      </trkpt>
      <trkpt lat="48.39367" lon="-1.60546">
        <ele>47.1</ele>
        <time>2019-07-16T12:28:13Z</time>
      </trkpt>
      <trkpt lat="48.3937" lon="-1.60546">
        <ele>47.4</ele>
        <time>2019-07-16T12:28:14Z</time>
      </trkpt>
      <trkpt lat="48.39372" lon="-1.60546">
        <ele>47.5</ele>
        <time>2019-07-16T12:28:15Z</time>
      </trkpt>
      <trkpt lat="48.39374" lon="-1.60546">
        <ele>47.8</ele>
        <time>2019-07-16T12:28:16Z</time>
      </trkpt>
      <trkpt lat="48.39376" lon="-1.60546">
        <ele>48</ele>
        <time>2019-07-16T12:28:17Z</time>
      </trkpt>
      <trkpt lat="48.39379" lon="-1.60547">
        <ele>48.3</ele>
        <time>2019-07-16T12:28:18Z</time>
      </trkpt>
      <trkpt lat="48.39381" lon="-1.60547">
        <ele>48.7</ele>
        <time>2019-07-16T12:28:19Z</time>
      </trkpt>
      <trkpt lat="48.39383" lon="-1.60547">
        <ele>49.1</ele>
        <time>2019-07-16T12:28:20Z</time>
      </trkpt>
      <trkpt lat="48.39385" lon="-1.60547">
        <ele>49.1</ele>
        <time>2019-07-16T12:28:21Z</time>
      </trkpt>
      <trkpt lat="48.39388" lon="-1.60547">
        <ele>49.1</ele>
        <time>2019-07-16T12:28:22Z</time>
      </trkpt>
      <trkpt lat="48.39389" lon="-1.60547">
        <ele>49.1</ele>
        <time>2019-07-16T12:28:23Z</time>
      </trkpt>
      <trkpt lat="48.39391" lon="-1.60548">
        <ele>49.2</ele>
        <time>2019-07-16T12:28:24Z</time>
      </trkpt>
      <trkpt lat="48.39394" lon="-1.60548">
        <ele>49.2</ele>
        <time>2019-07-16T12:28:25Z</time>
      </trkpt>
      <trkpt lat="48.39396" lon="-1.60548">
        <ele>49.2</ele>
        <time>2019-07-16T12:28:26Z</time>
      </trkpt>
      <trkpt lat="48.39398" lon="-1.60548">
        <ele>49.3</ele>
        <time>2019-07-16T12:28:27Z</time>
      </trkpt>
      <trkpt lat="48.39401" lon="-1.60548">
        <ele>49.3</ele>
        <time>2019-07-16T12:28:28Z</time>
      </trkpt>
      <trkpt lat="48.39403" lon="-1.60548">
        <ele>49.3</ele>
        <time>2019-07-16T12:28:29Z</time>
      </trkpt>
      <trkpt lat="48.39405" lon="-1.60548">
        <ele>49.3</ele>
        <time>2019-07-16T12:28:30Z</time>
      </trkpt>
      <trkpt lat="48.39407" lon="-1.60548">
        <ele>49.3</ele>
        <time>2019-07-16T12:28:31Z</time>
      </trkpt>
      <trkpt lat="48.39409" lon="-1.60548">
        <ele>49.3</ele>
        <time>2019-07-16T12:28:32Z</time>
      </trkpt>
      <trkpt lat="48.39411" lon="-1.60549">
        <ele>49.2</ele>
        <time>2019-07-16T12:28:33Z</time>
      </trkpt>
      <trkpt lat="48.39414" lon="-1.60549">
        <ele>49.2</ele>
        <time>2019-07-16T12:28:34Z</time>
      </trkpt>
      <trkpt lat="48.39415" lon="-1.60549">
        <ele>49.4</ele>
        <time>2019-07-16T12:28:35Z</time>
      </trkpt>
      <trkpt lat="48.39418" lon="-1.60549">
        <ele>49.5</ele>
        <time>2019-07-16T12:28:36Z</time>
      </trkpt>
      <trkpt lat="48.3942" lon="-1.60549">
        <ele>49.6</ele>
        <time>2019-07-16T12:28:37Z</time>
      </trkpt>
      <trkpt lat="48.39422" lon="-1.60549">
        <ele>49.7</ele>
        <time>2019-07-16T12:28:38Z</time>
      </trkpt>
      <trkpt lat="48.39424" lon="-1.6055">
        <ele>49.7</ele>
        <time>2019-07-16T12:28:39Z</time>
      </trkpt>
      <trkpt lat="48.39426" lon="-1.60551">
        <ele>49.9</ele>
        <time>2019-07-16T12:28:40Z</time>
      </trkpt>
      <trkpt lat="48.39429" lon="-1.60551">
        <ele>50.2</ele>
        <time>2019-07-16T12:28:41Z</time>
      </trkpt>
      <trkpt lat="48.39431" lon="-1.60551">
        <ele>50.2</ele>
        <time>2019-07-16T12:28:42Z</time>
      </trkpt>
      <trkpt lat="48.39433" lon="-1.60551">
        <ele>50.2</ele>
        <time>2019-07-16T12:28:43Z</time>
      </trkpt>
      <trkpt lat="48.39435" lon="-1.60551">
        <ele>50.5</ele>
        <time>2019-07-16T12:28:44Z</time>
      </trkpt>
      <trkpt lat="48.39438" lon="-1.60551">
        <ele>50.8</ele>
        <time>2019-07-16T12:28:45Z</time>
      </trkpt>
      <trkpt lat="48.39439" lon="-1.60551">
        <ele>50.9</ele>
        <time>2019-07-16T12:28:46Z</time>
      </trkpt>
      <trkpt lat="48.39442" lon="-1.60552">
        <ele>51.1</ele>
        <time>2019-07-16T12:28:47Z</time>
      </trkpt>
      <trkpt lat="48.39444" lon="-1.60552">
        <ele>51.4</ele>
        <time>2019-07-16T12:28:48Z</time>
      </trkpt>
      <trkpt lat="48.39446" lon="-1.60552">
        <ele>51.7</ele>
        <time>2019-07-16T12:28:49Z</time>
      </trkpt>
      <trkpt lat="48.39448" lon="-1.60552">
        <ele>52.1</ele>
        <time>2019-07-16T12:28:50Z</time>
      </trkpt>
      <trkpt lat="48.3945" lon="-1.60552">
        <ele>52.3</ele>
        <time>2019-07-16T12:28:51Z</time>
      </trkpt>
      <trkpt lat="48.39452" lon="-1.60553">
        <ele>52.4</ele>
        <time>2019-07-16T12:28:52Z</time>
      </trkpt>
      <trkpt lat="48.39454" lon="-1.60553">
        <ele>52.6</ele>
        <time>2019-07-16T12:28:53Z</time>
      </trkpt>
      <trkpt lat="48.39457" lon="-1.60553">
        <ele>52.5</ele>
        <time>2019-07-16T12:28:54Z</time>
      </trkpt>
      <trkpt lat="48.39459" lon="-1.60553">
        <ele>52.5</ele>
        <time>2019-07-16T12:28:55Z</time>
      </trkpt>
      <trkpt lat="48.39462" lon="-1.60553">
        <ele>52.7</ele>
        <time>2019-07-16T12:28:56Z</time>
      </trkpt>
      <trkpt lat="48.39464" lon="-1.60553">
        <ele>52.8</ele>
        <time>2019-07-16T12:28:57Z</time>
      </trkpt>
      <trkpt lat="48.39466" lon="-1.60553">
        <ele>52.9</ele>
        <time>2019-07-16T12:28:58Z</time>
      </trkpt>
      <trkpt lat="48.39468" lon="-1.60553">
        <ele>52.8</ele>
        <time>2019-07-16T12:28:59Z</time>
      </trkpt>
      <trkpt lat="48.39471" lon="-1.60553">
        <ele>52.8</ele>
        <time>2019-07-16T12:29:00Z</time>
      </trkpt>
      <trkpt lat="48.39473" lon="-1.60553">
        <ele>52.6</ele>
        <time>2019-07-16T12:29:01Z</time>
      </trkpt>
      <trkpt lat="48.39476" lon="-1.60554">
        <ele>52.4</ele>
        <time>2019-07-16T12:29:02Z</time>
      </trkpt>
      <trkpt lat="48.39478" lon="-1.60554">
        <ele>52.4</ele>
        <time>2019-07-16T12:29:03Z</time>
      </trkpt>
      <trkpt lat="48.3948" lon="-1.60554">
        <ele>52.2</ele>
        <time>2019-07-16T12:29:04Z</time>
      </trkpt>
      <trkpt lat="48.39483" lon="-1.60554">
        <ele>52.1</ele>
        <time>2019-07-16T12:29:05Z</time>
      </trkpt>
      <trkpt lat="48.39486" lon="-1.60554">
        <ele>52</ele>
        <time>2019-07-16T12:29:06Z</time>
      </trkpt>
      <trkpt lat="48.39488" lon="-1.60555">
        <ele>52</ele>
        <time>2019-07-16T12:29:07Z</time>
      </trkpt>
      <trkpt lat="48.39491" lon="-1.60555">
        <ele>51.8</ele>
        <time>2019-07-16T12:29:08Z</time>
      </trkpt>
      <trkpt lat="48.39493" lon="-1.60555">
        <ele>51.8</ele>
        <time>2019-07-16T12:29:09Z</time>
      </trkpt>
      <trkpt lat="48.39496" lon="-1.60554">
        <ele>51.7</ele>
        <time>2019-07-16T12:29:10Z</time>
      </trkpt>
      <trkpt lat="48.39498" lon="-1.60554">
        <ele>51.6</ele>
        <time>2019-07-16T12:29:11Z</time>
      </trkpt>
      <trkpt lat="48.39501" lon="-1.60554">
        <ele>51.6</ele>
        <time>2019-07-16T12:29:12Z</time>
      </trkpt>
      <trkpt lat="48.39504" lon="-1.60554">
        <ele>51.8</ele>
        <time>2019-07-16T12:29:13Z</time>
      </trkpt>
      <trkpt lat="48.39506" lon="-1.60554">
        <ele>51.8</ele>
        <time>2019-07-16T12:29:14Z</time>
      </trkpt>
      <trkpt lat="48.39509" lon="-1.60555">
        <ele>51.9</ele>
        <time>2019-07-16T12:29:15Z</time>
      </trkpt>
      <trkpt lat="48.39512" lon="-1.60555">
        <ele>51.9</ele>
        <time>2019-07-16T12:29:16Z</time>
      </trkpt>
      <trkpt lat="48.39515" lon="-1.60556">
        <ele>52</ele>
        <time>2019-07-16T12:29:17Z</time>
      </trkpt>
      <trkpt lat="48.39517" lon="-1.60556">
        <ele>52.2</ele>
        <time>2019-07-16T12:29:18Z</time>
      </trkpt>
      <trkpt lat="48.3952" lon="-1.60557">
        <ele>52.4</ele>
        <time>2019-07-16T12:29:19Z</time>
      </trkpt>
      <trkpt lat="48.39522" lon="-1.60557">
        <ele>52.5</ele>
        <time>2019-07-16T12:29:20Z</time>
      </trkpt>
      <trkpt lat="48.39525" lon="-1.60557">
        <ele>52.6</ele>
        <time>2019-07-16T12:29:21Z</time>
      </trkpt>
      <trkpt lat="48.39528" lon="-1.60558">
        <ele>52.4</ele>
        <time>2019-07-16T12:29:22Z</time>
      </trkpt>
      <trkpt lat="48.3953" lon="-1.60558">
        <ele>52.2</ele>
        <time>2019-07-16T12:29:23Z</time>
      </trkpt>
      <trkpt lat="48.39533" lon="-1.60558">
        <ele>51.9</ele>
        <time>2019-07-16T12:29:24Z</time>
      </trkpt>
      <trkpt lat="48.39536" lon="-1.60558">
        <ele>51.5</ele>
        <time>2019-07-16T12:29:25Z</time>
      </trkpt>
      <trkpt lat="48.39538" lon="-1.60558">
        <ele>51.2</ele>
        <time>2019-07-16T12:29:26Z</time>
      </trkpt>
      <trkpt lat="48.39541" lon="-1.60558">
        <ele>51</ele>
        <time>2019-07-16T12:29:27Z</time>
      </trkpt>
      <trkpt lat="48.39544" lon="-1.60558">
        <ele>50.8</ele>
        <time>2019-07-16T12:29:28Z</time>
      </trkpt>
      <trkpt lat="48.39547" lon="-1.60559">
        <ele>50.8</ele>
        <time>2019-07-16T12:29:29Z</time>
      </trkpt>
      <trkpt lat="48.3955" lon="-1.60559">
        <ele>50.8</ele>
        <time>2019-07-16T12:29:30Z</time>
      </trkpt>
      <trkpt lat="48.39553" lon="-1.60559">
        <ele>50.9</ele>
        <time>2019-07-16T12:29:31Z</time>
      </trkpt>
      <trkpt lat="48.39556" lon="-1.6056">
        <ele>51.1</ele>
        <time>2019-07-16T12:29:32Z</time>
      </trkpt>
      <trkpt lat="48.39559" lon="-1.6056">
        <ele>51.4</ele>
        <time>2019-07-16T12:29:33Z</time>
      </trkpt>
      <trkpt lat="48.39562" lon="-1.6056">
        <ele>51.6</ele>
        <time>2019-07-16T12:29:34Z</time>
      </trkpt>
      <trkpt lat="48.39566" lon="-1.6056">
        <ele>51.3</ele>
        <time>2019-07-16T12:29:35Z</time>
      </trkpt>
      <trkpt lat="48.39569" lon="-1.6056">
        <ele>51.1</ele>
        <time>2019-07-16T12:29:36Z</time>
      </trkpt>
      <trkpt lat="48.39572" lon="-1.60561">
        <ele>50.9</ele>
        <time>2019-07-16T12:29:37Z</time>
      </trkpt>
      <trkpt lat="48.39576" lon="-1.60562">
        <ele>50.8</ele>
        <time>2019-07-16T12:29:38Z</time>
      </trkpt>
      <trkpt lat="48.39579" lon="-1.60562">
        <ele>50.6</ele>
        <time>2019-07-16T12:29:39Z</time>
      </trkpt>
      <trkpt lat="48.39583" lon="-1.60562">
        <ele>50.6</ele>
        <time>2019-07-16T12:29:40Z</time>
      </trkpt>
      <trkpt lat="48.39586" lon="-1.60562">
        <ele>50.6</ele>
        <time>2019-07-16T12:29:41Z</time>
      </trkpt>
      <trkpt lat="48.3959" lon="-1.60563">
        <ele>50.4</ele>
        <time>2019-07-16T12:29:42Z</time>
      </trkpt>
      <trkpt lat="48.39594" lon="-1.60563">
        <ele>50.2</ele>
        <time>2019-07-16T12:29:43Z</time>
      </trkpt>
      <trkpt lat="48.39598" lon="-1.60563">
        <ele>50.2</ele>
        <time>2019-07-16T12:29:44Z</time>
      </trkpt>
      <trkpt lat="48.39602" lon="-1.60563">
        <ele>50.2</ele>
        <time>2019-07-16T12:29:45Z</time>
      </trkpt>
      <trkpt lat="48.39606" lon="-1.60563">
        <ele>50.1</ele>
        <time>2019-07-16T12:29:46Z</time>
      </trkpt>
      <trkpt lat="48.3961" lon="-1.60563">
        <ele>50.2</ele>
        <time>2019-07-16T12:29:47Z</time>
      </trkpt>
      <trkpt lat="48.39614" lon="-1.60564">
        <ele>50.4</ele>
        <time>2019-07-16T12:29:48Z</time>
      </trkpt>
      <trkpt lat="48.39618" lon="-1.60564">
        <ele>50.7</ele>
        <time>2019-07-16T12:29:49Z</time>
      </trkpt>
      <trkpt lat="48.39621" lon="-1.60564">
        <ele>50.9</ele>
        <time>2019-07-16T12:29:50Z</time>
      </trkpt>
      <trkpt lat="48.39626" lon="-1.60564">
        <ele>51.1</ele>
        <time>2019-07-16T12:29:51Z</time>
      </trkpt>
      <trkpt lat="48.39629" lon="-1.60564">
        <ele>51.3</ele>
        <time>2019-07-16T12:29:52Z</time>
      </trkpt>
      <trkpt lat="48.39633" lon="-1.60564">
        <ele>51.6</ele>
        <time>2019-07-16T12:29:53Z</time>
      </trkpt>
      <trkpt lat="48.39637" lon="-1.60564">
        <ele>51.9</ele>
        <time>2019-07-16T12:29:54Z</time>
      </trkpt>
      <trkpt lat="48.3964" lon="-1.60564">
        <ele>52.3</ele>
        <time>2019-07-16T12:29:55Z</time>
      </trkpt>
      <trkpt lat="48.39645" lon="-1.60563">
        <ele>52.6</ele>
        <time>2019-07-16T12:29:56Z</time>
      </trkpt>
      <trkpt lat="48.39648" lon="-1.60563">
        <ele>52.6</ele>
        <time>2019-07-16T12:29:57Z</time>
      </trkpt>
      <trkpt lat="48.39652" lon="-1.60562">
        <ele>52.7</ele>
        <time>2019-07-16T12:29:58Z</time>
      </trkpt>
      <trkpt lat="48.39656" lon="-1.60561">
        <ele>53.1</ele>
        <time>2019-07-16T12:29:59Z</time>
      </trkpt>
      <trkpt lat="48.3966" lon="-1.6056">
        <ele>53.6</ele>
        <time>2019-07-16T12:30:00Z</time>
      </trkpt>
      <trkpt lat="48.39663" lon="-1.60559">
        <ele>53.9</ele>
        <time>2019-07-16T12:30:01Z</time>
      </trkpt>
      <trkpt lat="48.39667" lon="-1.60558">
        <ele>54.1</ele>
        <time>2019-07-16T12:30:02Z</time>
      </trkpt>
      <trkpt lat="48.39671" lon="-1.60557">
        <ele>54.1</ele>
        <time>2019-07-16T12:30:03Z</time>
      </trkpt>
      <trkpt lat="48.39674" lon="-1.60557">
        <ele>54.6</ele>
        <time>2019-07-16T12:30:04Z</time>
      </trkpt>
      <trkpt lat="48.39678" lon="-1.60555">
        <ele>54.8</ele>
        <time>2019-07-16T12:30:05Z</time>
      </trkpt>
      <trkpt lat="48.39681" lon="-1.60554">
        <ele>54.9</ele>
        <time>2019-07-16T12:30:06Z</time>
      </trkpt>
      <trkpt lat="48.39685" lon="-1.60553">
        <ele>55.1</ele>
        <time>2019-07-16T12:30:07Z</time>
      </trkpt>
      <trkpt lat="48.39689" lon="-1.60552">
        <ele>55.3</ele>
        <time>2019-07-16T12:30:08Z</time>
      </trkpt>
      <trkpt lat="48.39692" lon="-1.60551">
        <ele>55.4</ele>
        <time>2019-07-16T12:30:09Z</time>
      </trkpt>
      <trkpt lat="48.39696" lon="-1.6055">
        <ele>55.7</ele>
        <time>2019-07-16T12:30:10Z</time>
      </trkpt>
      <trkpt lat="48.397" lon="-1.60549">
        <ele>56</ele>
        <time>2019-07-16T12:30:11Z</time>
      </trkpt>
      <trkpt lat="48.39703" lon="-1.60548">
        <ele>56.1</ele>
        <time>2019-07-16T12:30:12Z</time>
      </trkpt>
      <trkpt lat="48.39707" lon="-1.60546">
        <ele>55.9</ele>
        <time>2019-07-16T12:30:13Z</time>
      </trkpt>
      <trkpt lat="48.39711" lon="-1.60545">
        <ele>55.9</ele>
        <time>2019-07-16T12:30:14Z</time>
      </trkpt>
      <trkpt lat="48.39715" lon="-1.60543">
        <ele>55.8</ele>
        <time>2019-07-16T12:30:15Z</time>
      </trkpt>
      <trkpt lat="48.39719" lon="-1.60541">
        <ele>55.5</ele>
        <time>2019-07-16T12:30:16Z</time>
      </trkpt>
      <trkpt lat="48.39723" lon="-1.60539">
        <ele>55.4</ele>
        <time>2019-07-16T12:30:17Z</time>
      </trkpt>
      <trkpt lat="48.39727" lon="-1.60537">
        <ele>55.2</ele>
        <time>2019-07-16T12:30:18Z</time>
      </trkpt>
      <trkpt lat="48.39731" lon="-1.60535">
        <ele>55.6</ele>
        <time>2019-07-16T12:30:19Z</time>
      </trkpt>
      <trkpt lat="48.39735" lon="-1.60532">
        <ele>55.8</ele>
        <time>2019-07-16T12:30:20Z</time>
      </trkpt>
      <trkpt lat="48.39739" lon="-1.6053">
        <ele>55.7</ele>
        <time>2019-07-16T12:30:21Z</time>
      </trkpt>
      <trkpt lat="48.39743" lon="-1.60527">
        <ele>56.1</ele>
        <time>2019-07-16T12:30:22Z</time>
      </trkpt>
      <trkpt lat="48.39747" lon="-1.60523">
        <ele>55.8</ele>
        <time>2019-07-16T12:30:23Z</time>
      </trkpt>
      <trkpt lat="48.39751" lon="-1.6052">
        <ele>55.7</ele>
        <time>2019-07-16T12:30:24Z</time>
      </trkpt>
      <trkpt lat="48.39755" lon="-1.60516">
        <ele>55.4</ele>
        <time>2019-07-16T12:30:25Z</time>
      </trkpt>
      <trkpt lat="48.39759" lon="-1.60513">
        <ele>55.1</ele>
        <time>2019-07-16T12:30:26Z</time>
      </trkpt>
      <trkpt lat="48.39763" lon="-1.60509">
        <ele>54.9</ele>
        <time>2019-07-16T12:30:27Z</time>
      </trkpt>
      <trkpt lat="48.39767" lon="-1.60506">
        <ele>54.7</ele>
        <time>2019-07-16T12:30:28Z</time>
      </trkpt>
      <trkpt lat="48.39771" lon="-1.60502">
        <ele>54.6</ele>
        <time>2019-07-16T12:30:29Z</time>
      </trkpt>
      <trkpt lat="48.39775" lon="-1.60498">
        <ele>54.4</ele>
        <time>2019-07-16T12:30:30Z</time>
      </trkpt>
      <trkpt lat="48.39779" lon="-1.60495">
        <ele>54.1</ele>
        <time>2019-07-16T12:30:31Z</time>
      </trkpt>
      <trkpt lat="48.39783" lon="-1.60492">
        <ele>54.2</ele>
        <time>2019-07-16T12:30:32Z</time>
      </trkpt>
      <trkpt lat="48.39787" lon="-1.60488">
        <ele>53.9</ele>
        <time>2019-07-16T12:30:33Z</time>
      </trkpt>
      <trkpt lat="48.3979" lon="-1.60485">
        <ele>53.7</ele>
        <time>2019-07-16T12:30:34Z</time>
      </trkpt>
      <trkpt lat="48.39794" lon="-1.60481">
        <ele>53.4</ele>
        <time>2019-07-16T12:30:35Z</time>
      </trkpt>
      <trkpt lat="48.39797" lon="-1.60477">
        <ele>53.2</ele>
        <time>2019-07-16T12:30:36Z</time>
      </trkpt>
      <trkpt lat="48.398" lon="-1.60474">
        <ele>53.3</ele>
        <time>2019-07-16T12:30:37Z</time>
      </trkpt>
      <trkpt lat="48.39803" lon="-1.60471">
        <ele>53.4</ele>
        <time>2019-07-16T12:30:38Z</time>
      </trkpt>
      <trkpt lat="48.39806" lon="-1.60467">
        <ele>53</ele>
        <time>2019-07-16T12:30:39Z</time>
      </trkpt>
      <trkpt lat="48.3981" lon="-1.60464">
        <ele>52.7</ele>
        <time>2019-07-16T12:30:40Z</time>
      </trkpt>
      <trkpt lat="48.39813" lon="-1.60461">
        <ele>52.5</ele>
        <time>2019-07-16T12:30:41Z</time>
      </trkpt>
      <trkpt lat="48.39816" lon="-1.60457">
        <ele>52.3</ele>
        <time>2019-07-16T12:30:42Z</time>
      </trkpt>
      <trkpt lat="48.39819" lon="-1.60453">
        <ele>52.1</ele>
        <time>2019-07-16T12:30:43Z</time>
      </trkpt>
      <trkpt lat="48.39823" lon="-1.60449">
        <ele>52</ele>
        <time>2019-07-16T12:30:44Z</time>
      </trkpt>
      <trkpt lat="48.39826" lon="-1.60445">
        <ele>51.9</ele>
        <time>2019-07-16T12:30:45Z</time>
      </trkpt>
      <trkpt lat="48.39829" lon="-1.60441">
        <ele>51.8</ele>
        <time>2019-07-16T12:30:46Z</time>
      </trkpt>
      <trkpt lat="48.39832" lon="-1.60437">
        <ele>51.6</ele>
        <time>2019-07-16T12:30:47Z</time>
      </trkpt>
      <trkpt lat="48.39835" lon="-1.60432">
        <ele>51.3</ele>
        <time>2019-07-16T12:30:48Z</time>
      </trkpt>
      <trkpt lat="48.39838" lon="-1.60428">
        <ele>50.9</ele>
        <time>2019-07-16T12:30:49Z</time>
      </trkpt>
      <trkpt lat="48.3984" lon="-1.60424">
        <ele>50.6</ele>
        <time>2019-07-16T12:30:50Z</time>
      </trkpt>
      <trkpt lat="48.39843" lon="-1.60419">
        <ele>50.5</ele>
        <time>2019-07-16T12:30:51Z</time>
      </trkpt>
      <trkpt lat="48.39846" lon="-1.60415">
        <ele>50.1</ele>
        <time>2019-07-16T12:30:52Z</time>
      </trkpt>
      <trkpt lat="48.39849" lon="-1.6041">
        <ele>50</ele>
        <time>2019-07-16T12:30:53Z</time>
      </trkpt>
      <trkpt lat="48.39851" lon="-1.60405">
        <ele>49.9</ele>
        <time>2019-07-16T12:30:54Z</time>
      </trkpt>
      <trkpt lat="48.39854" lon="-1.604">
        <ele>49.6</ele>
        <time>2019-07-16T12:30:55Z</time>
      </trkpt>
      <trkpt lat="48.39857" lon="-1.60395">
        <ele>49.4</ele>
        <time>2019-07-16T12:30:56Z</time>
      </trkpt>
      <trkpt lat="48.39859" lon="-1.6039">
        <ele>49.3</ele>
        <time>2019-07-16T12:30:57Z</time>
      </trkpt>
      <trkpt lat="48.39862" lon="-1.60385">
        <ele>49</ele>
        <time>2019-07-16T12:30:58Z</time>
      </trkpt>
      <trkpt lat="48.39865" lon="-1.60381">
        <ele>49</ele>
        <time>2019-07-16T12:30:59Z</time>
      </trkpt>
      <trkpt lat="48.39867" lon="-1.60376">
        <ele>48.8</ele>
        <time>2019-07-16T12:31:00Z</time>
      </trkpt>
      <trkpt lat="48.3987" lon="-1.60371">
        <ele>48.7</ele>
        <time>2019-07-16T12:31:01Z</time>
      </trkpt>
      <trkpt lat="48.39873" lon="-1.60366">
        <ele>48.4</ele>
        <time>2019-07-16T12:31:02Z</time>
      </trkpt>
      <trkpt lat="48.39875" lon="-1.60361">
        <ele>48.2</ele>
        <time>2019-07-16T12:31:03Z</time>
      </trkpt>
      <trkpt lat="48.39878" lon="-1.60356">
        <ele>48</ele>
        <time>2019-07-16T12:31:04Z</time>
      </trkpt>
      <trkpt lat="48.3988" lon="-1.60352">
        <ele>47.7</ele>
        <time>2019-07-16T12:31:05Z</time>
      </trkpt>
      <trkpt lat="48.39883" lon="-1.60347">
        <ele>47.6</ele>
        <time>2019-07-16T12:31:06Z</time>
      </trkpt>
      <trkpt lat="48.39885" lon="-1.60343">
        <ele>47.9</ele>
        <time>2019-07-16T12:31:07Z</time>
      </trkpt>
      <trkpt lat="48.39888" lon="-1.60338">
        <ele>48.2</ele>
        <time>2019-07-16T12:31:08Z</time>
      </trkpt>
      <trkpt lat="48.3989" lon="-1.60333">
        <ele>48.4</ele>
        <time>2019-07-16T12:31:09Z</time>
      </trkpt>
      <trkpt lat="48.39893" lon="-1.60329">
        <ele>48.7</ele>
        <time>2019-07-16T12:31:10Z</time>
      </trkpt>
      <trkpt lat="48.39896" lon="-1.60324">
        <ele>48.7</ele>
        <time>2019-07-16T12:31:11Z</time>
      </trkpt>
      <trkpt lat="48.39898" lon="-1.60319">
        <ele>49</ele>
        <time>2019-07-16T12:31:12Z</time>
      </trkpt>
      <trkpt lat="48.39901" lon="-1.60315">
        <ele>49.2</ele>
        <time>2019-07-16T12:31:13Z</time>
      </trkpt>
      <trkpt lat="48.39903" lon="-1.6031">
        <ele>49.4</ele>
        <time>2019-07-16T12:31:14Z</time>
      </trkpt>
      <trkpt lat="48.39906" lon="-1.60306">
        <ele>49.3</ele>
        <time>2019-07-16T12:31:15Z</time>
      </trkpt>
      <trkpt lat="48.39908" lon="-1.60301">
        <ele>49</ele>
        <time>2019-07-16T12:31:16Z</time>
      </trkpt>
      <trkpt lat="48.39911" lon="-1.60297">
        <ele>49</ele>
        <time>2019-07-16T12:31:17Z</time>
      </trkpt>
      <trkpt lat="48.39913" lon="-1.60292">
        <ele>49.1</ele>
        <time>2019-07-16T12:31:18Z</time>
      </trkpt>
      <trkpt lat="48.39916" lon="-1.60287">
        <ele>48.9</ele>
        <time>2019-07-16T12:31:19Z</time>
      </trkpt>
      <trkpt lat="48.39919" lon="-1.60283">
        <ele>48.6</ele>
        <time>2019-07-16T12:31:20Z</time>
      </trkpt>
      <trkpt lat="48.39922" lon="-1.60279">
        <ele>48.6</ele>
        <time>2019-07-16T12:31:21Z</time>
      </trkpt>
      <trkpt lat="48.39924" lon="-1.60274">
        <ele>48.5</ele>
        <time>2019-07-16T12:31:22Z</time>
      </trkpt>
      <trkpt lat="48.39927" lon="-1.6027">
        <ele>48.5</ele>
        <time>2019-07-16T12:31:23Z</time>
      </trkpt>
      <trkpt lat="48.3993" lon="-1.60266">
        <ele>48.4</ele>
        <time>2019-07-16T12:31:24Z</time>
      </trkpt>
      <trkpt lat="48.39932" lon="-1.60263">
        <ele>48.4</ele>
        <time>2019-07-16T12:31:25Z</time>
      </trkpt>
      <trkpt lat="48.39935" lon="-1.60259">
        <ele>48.1</ele>
        <time>2019-07-16T12:31:26Z</time>
      </trkpt>
      <trkpt lat="48.39937" lon="-1.60255">
        <ele>48.3</ele>
        <time>2019-07-16T12:31:27Z</time>
      </trkpt>
      <trkpt lat="48.3994" lon="-1.60252">
        <ele>47.9</ele>
        <time>2019-07-16T12:31:28Z</time>
      </trkpt>
      <trkpt lat="48.39942" lon="-1.60248">
        <ele>47.9</ele>
        <time>2019-07-16T12:31:29Z</time>
      </trkpt>
      <trkpt lat="48.39944" lon="-1.60245">
        <ele>48</ele>
        <time>2019-07-16T12:31:30Z</time>
      </trkpt>
      <trkpt lat="48.39946" lon="-1.60242">
        <ele>48</ele>
        <time>2019-07-16T12:31:31Z</time>
      </trkpt>
      <trkpt lat="48.39948" lon="-1.6024">
        <ele>48.2</ele>
        <time>2019-07-16T12:31:32Z</time>
      </trkpt>
      <trkpt lat="48.39949" lon="-1.60237">
        <ele>48.4</ele>
        <time>2019-07-16T12:31:33Z</time>
      </trkpt>
      <trkpt lat="48.39951" lon="-1.60235">
        <ele>48.7</ele>
        <time>2019-07-16T12:31:34Z</time>
      </trkpt>
      <trkpt lat="48.39953" lon="-1.60233">
        <ele>48.7</ele>
        <time>2019-07-16T12:31:35Z</time>
      </trkpt>
      <trkpt lat="48.39956" lon="-1.60231">
        <ele>48.8</ele>
        <time>2019-07-16T12:31:36Z</time>
      </trkpt>
      <trkpt lat="48.39957" lon="-1.60229">
        <ele>49.1</ele>
        <time>2019-07-16T12:31:37Z</time>
      </trkpt>
      <trkpt lat="48.39959" lon="-1.60227">
        <ele>49.4</ele>
        <time>2019-07-16T12:31:38Z</time>
      </trkpt>
      <trkpt lat="48.39961" lon="-1.60224">
        <ele>49.4</ele>
        <time>2019-07-16T12:31:39Z</time>
      </trkpt>
      <trkpt lat="48.39963" lon="-1.60222">
        <ele>49.5</ele>
        <time>2019-07-16T12:31:40Z</time>
      </trkpt>
      <trkpt lat="48.39965" lon="-1.6022">
        <ele>49.6</ele>
        <time>2019-07-16T12:31:41Z</time>
      </trkpt>
      <trkpt lat="48.39966" lon="-1.60218">
        <ele>50</ele>
        <time>2019-07-16T12:31:42Z</time>
      </trkpt>
      <trkpt lat="48.39969" lon="-1.60216">
        <ele>50.6</ele>
        <time>2019-07-16T12:31:43Z</time>
      </trkpt>
      <trkpt lat="48.3997" lon="-1.60214">
        <ele>51</ele>
        <time>2019-07-16T12:31:44Z</time>
      </trkpt>
      <trkpt lat="48.39972" lon="-1.60212">
        <ele>51.2</ele>
        <time>2019-07-16T12:31:45Z</time>
      </trkpt>
      <trkpt lat="48.39974" lon="-1.60209">
        <ele>51.3</ele>
        <time>2019-07-16T12:31:46Z</time>
      </trkpt>
      <trkpt lat="48.39976" lon="-1.60207">
        <ele>51.5</ele>
        <time>2019-07-16T12:31:47Z</time>
      </trkpt>
      <trkpt lat="48.39978" lon="-1.60205">
        <ele>51.6</ele>
        <time>2019-07-16T12:31:48Z</time>
      </trkpt>
      <trkpt lat="48.3998" lon="-1.60202">
        <ele>52.1</ele>
        <time>2019-07-16T12:31:49Z</time>
      </trkpt>
      <trkpt lat="48.39982" lon="-1.602">
        <ele>52.3</ele>
        <time>2019-07-16T12:31:50Z</time>
      </trkpt>
      <trkpt lat="48.39984" lon="-1.60197">
        <ele>52.7</ele>
        <time>2019-07-16T12:31:51Z</time>
      </trkpt>
      <trkpt lat="48.39986" lon="-1.60195">
        <ele>53.1</ele>
        <time>2019-07-16T12:31:52Z</time>
      </trkpt>
      <trkpt lat="48.39988" lon="-1.60193">
        <ele>53.4</ele>
        <time>2019-07-16T12:31:53Z</time>
      </trkpt>
      <trkpt lat="48.3999" lon="-1.60191">
        <ele>53.7</ele>
        <time>2019-07-16T12:31:54Z</time>
      </trkpt>
      <trkpt lat="48.39992" lon="-1.60188">
        <ele>53.9</ele>
        <time>2019-07-16T12:31:55Z</time>
      </trkpt>
      <trkpt lat="48.39994" lon="-1.60186">
        <ele>53.9</ele>
        <time>2019-07-16T12:31:56Z</time>
      </trkpt>
      <trkpt lat="48.39996" lon="-1.60183">
        <ele>54.3</ele>
        <time>2019-07-16T12:31:57Z</time>
      </trkpt>
      <trkpt lat="48.39998" lon="-1.6018">
        <ele>54.2</ele>
        <time>2019-07-16T12:31:58Z</time>
      </trkpt>
      <trkpt lat="48.4" lon="-1.60176">
        <ele>53.6</ele>
        <time>2019-07-16T12:31:59Z</time>
      </trkpt>
      <trkpt lat="48.40002" lon="-1.60173">
        <ele>53.1</ele>
        <time>2019-07-16T12:32:00Z</time>
      </trkpt>
      <trkpt lat="48.40004" lon="-1.6017">
        <ele>53.2</ele>
        <time>2019-07-16T12:32:01Z</time>
      </trkpt>
      <trkpt lat="48.40006" lon="-1.60168">
        <ele>53.2</ele>
        <time>2019-07-16T12:32:02Z</time>
      </trkpt>
      <trkpt lat="48.40007" lon="-1.60165">
        <ele>53.1</ele>
        <time>2019-07-16T12:32:03Z</time>
      </trkpt>
      <trkpt lat="48.40009" lon="-1.60163">
        <ele>53.3</ele>
        <time>2019-07-16T12:32:04Z</time>
      </trkpt>
      <trkpt lat="48.40011" lon="-1.60161">
        <ele>53.6</ele>
        <time>2019-07-16T12:32:05Z</time>
      </trkpt>
      <trkpt lat="48.40013" lon="-1.60159">
        <ele>53.5</ele>
        <time>2019-07-16T12:32:06Z</time>
      </trkpt>
      <trkpt lat="48.40015" lon="-1.60156">
        <ele>53.2</ele>
        <time>2019-07-16T12:32:07Z</time>
      </trkpt>
      <trkpt lat="48.40017" lon="-1.60153">
        <ele>53</ele>
        <time>2019-07-16T12:32:08Z</time>
      </trkpt>
      <trkpt lat="48.40019" lon="-1.6015">
        <ele>53.2</ele>
        <time>2019-07-16T12:32:09Z</time>
      </trkpt>
      <trkpt lat="48.4002" lon="-1.60148">
        <ele>53.2</ele>
        <time>2019-07-16T12:32:10Z</time>
      </trkpt>
      <trkpt lat="48.40022" lon="-1.60146">
        <ele>53.2</ele>
        <time>2019-07-16T12:32:11Z</time>
      </trkpt>
      <trkpt lat="48.40024" lon="-1.60144">
        <ele>53.2</ele>
        <time>2019-07-16T12:32:12Z</time>
      </trkpt>
      <trkpt lat="48.40026" lon="-1.60141">
        <ele>53</ele>
        <time>2019-07-16T12:32:13Z</time>
      </trkpt>
      <trkpt lat="48.40028" lon="-1.60138">
        <ele>52.8</ele>
        <time>2019-07-16T12:32:14Z</time>
      </trkpt>
      <trkpt lat="48.4003" lon="-1.60136">
        <ele>52.8</ele>
        <time>2019-07-16T12:32:15Z</time>
      </trkpt>
      <trkpt lat="48.40032" lon="-1.60133">
        <ele>52.8</ele>
        <time>2019-07-16T12:32:16Z</time>
      </trkpt>
      <trkpt lat="48.40034" lon="-1.60131">
        <ele>53</ele>
        <time>2019-07-16T12:32:17Z</time>
      </trkpt>
      <trkpt lat="48.40036" lon="-1.60129">
        <ele>53.2</ele>
        <time>2019-07-16T12:32:18Z</time>
      </trkpt>
      <trkpt lat="48.40038" lon="-1.60127">
        <ele>53.5</ele>
        <time>2019-07-16T12:32:19Z</time>
      </trkpt>
      <trkpt lat="48.4004" lon="-1.60125">
        <ele>53.8</ele>
        <time>2019-07-16T12:32:20Z</time>
      </trkpt>
      <trkpt lat="48.40043" lon="-1.60123">
        <ele>54.1</ele>
        <time>2019-07-16T12:32:21Z</time>
      </trkpt>
      <trkpt lat="48.40044" lon="-1.6012">
        <ele>54.5</ele>
        <time>2019-07-16T12:32:22Z</time>
      </trkpt>
      <trkpt lat="48.40046" lon="-1.60118">
        <ele>54.9</ele>
        <time>2019-07-16T12:32:23Z</time>
      </trkpt>
      <trkpt lat="48.40048" lon="-1.60116">
        <ele>55.2</ele>
        <time>2019-07-16T12:32:24Z</time>
      </trkpt>
      <trkpt lat="48.4005" lon="-1.60114">
        <ele>55.7</ele>
        <time>2019-07-16T12:32:25Z</time>
      </trkpt>
      <trkpt lat="48.40052" lon="-1.60112">
        <ele>55.9</ele>
        <time>2019-07-16T12:32:26Z</time>
      </trkpt>
      <trkpt lat="48.40054" lon="-1.6011">
        <ele>55.8</ele>
        <time>2019-07-16T12:32:27Z</time>
      </trkpt>
      <trkpt lat="48.40056" lon="-1.60107">
        <ele>55.7</ele>
        <time>2019-07-16T12:32:28Z</time>
      </trkpt>
      <trkpt lat="48.40058" lon="-1.60104">
        <ele>55.5</ele>
        <time>2019-07-16T12:32:29Z</time>
      </trkpt>
      <trkpt lat="48.4006" lon="-1.60102">
        <ele>55.7</ele>
        <time>2019-07-16T12:32:30Z</time>
      </trkpt>
      <trkpt lat="48.40062" lon="-1.601">
        <ele>56.1</ele>
        <time>2019-07-16T12:32:31Z</time>
      </trkpt>
      <trkpt lat="48.40064" lon="-1.60098">
        <ele>56.7</ele>
        <time>2019-07-16T12:32:32Z</time>
      </trkpt>
      <trkpt lat="48.40066" lon="-1.60096">
        <ele>56.8</ele>
        <time>2019-07-16T12:32:33Z</time>
      </trkpt>
      <trkpt lat="48.40068" lon="-1.60093">
        <ele>57.1</ele>
        <time>2019-07-16T12:32:34Z</time>
      </trkpt>
      <trkpt lat="48.4007" lon="-1.60091">
        <ele>57.2</ele>
        <time>2019-07-16T12:32:35Z</time>
      </trkpt>
      <trkpt lat="48.40072" lon="-1.60088">
        <ele>57</ele>
        <time>2019-07-16T12:32:36Z</time>
      </trkpt>
      <trkpt lat="48.40073" lon="-1.60086">
        <ele>57.3</ele>
        <time>2019-07-16T12:32:37Z</time>
      </trkpt>
      <trkpt lat="48.40075" lon="-1.60084">
        <ele>57.8</ele>
        <time>2019-07-16T12:32:38Z</time>
      </trkpt>
      <trkpt lat="48.40077" lon="-1.60082">
        <ele>58.8</ele>
        <time>2019-07-16T12:32:39Z</time>
      </trkpt>
      <trkpt lat="48.40078" lon="-1.6008">
        <ele>59.5</ele>
        <time>2019-07-16T12:32:40Z</time>
      </trkpt>
      <trkpt lat="48.4008" lon="-1.60078">
        <ele>60</ele>
        <time>2019-07-16T12:32:41Z</time>
      </trkpt>
      <trkpt lat="48.40082" lon="-1.60076">
        <ele>59.8</ele>
        <time>2019-07-16T12:32:42Z</time>
      </trkpt>
      <trkpt lat="48.40083" lon="-1.60073">
        <ele>59.2</ele>
        <time>2019-07-16T12:32:43Z</time>
      </trkpt>
      <trkpt lat="48.40086" lon="-1.6007">
        <ele>58.9</ele>
        <time>2019-07-16T12:32:44Z</time>
      </trkpt>
      <trkpt lat="48.40088" lon="-1.60068">
        <ele>58.8</ele>
        <time>2019-07-16T12:32:45Z</time>
      </trkpt>
      <trkpt lat="48.40089" lon="-1.60065">
        <ele>58.4</ele>
        <time>2019-07-16T12:32:46Z</time>
      </trkpt>
      <trkpt lat="48.40092" lon="-1.60062">
        <ele>58.2</ele>
        <time>2019-07-16T12:32:47Z</time>
      </trkpt>
      <trkpt lat="48.40094" lon="-1.6006">
        <ele>57.9</ele>
        <time>2019-07-16T12:32:48Z</time>
      </trkpt>
      <trkpt lat="48.40096" lon="-1.60057">
        <ele>57.3</ele>
        <time>2019-07-16T12:32:49Z</time>
      </trkpt>
      <trkpt lat="48.40098" lon="-1.60054">
        <ele>57</ele>
        <time>2019-07-16T12:32:50Z</time>
      </trkpt>
      <trkpt lat="48.401" lon="-1.60051">
        <ele>56.8</ele>
        <time>2019-07-16T12:32:51Z</time>
      </trkpt>
      <trkpt lat="48.40102" lon="-1.60049">
        <ele>56.7</ele>
        <time>2019-07-16T12:32:52Z</time>
      </trkpt>
      <trkpt lat="48.40104" lon="-1.60046">
        <ele>56.7</ele>
        <time>2019-07-16T12:32:53Z</time>
      </trkpt>
      <trkpt lat="48.40106" lon="-1.60044">
        <ele>57</ele>
        <time>2019-07-16T12:32:54Z</time>
      </trkpt>
      <trkpt lat="48.40108" lon="-1.60041">
        <ele>57.2</ele>
        <time>2019-07-16T12:32:55Z</time>
      </trkpt>
      <trkpt lat="48.4011" lon="-1.60039">
        <ele>57.3</ele>
        <time>2019-07-16T12:32:56Z</time>
      </trkpt>
      <trkpt lat="48.40112" lon="-1.60038">
        <ele>57.6</ele>
        <time>2019-07-16T12:32:57Z</time>
      </trkpt>
      <trkpt lat="48.40114" lon="-1.60035">
        <ele>57.9</ele>
        <time>2019-07-16T12:32:58Z</time>
      </trkpt>
      <trkpt lat="48.40115" lon="-1.60033">
        <ele>58.4</ele>
        <time>2019-07-16T12:32:59Z</time>
      </trkpt>
      <trkpt lat="48.40118" lon="-1.6003">
        <ele>58.3</ele>
        <time>2019-07-16T12:33:00Z</time>
      </trkpt>
      <trkpt lat="48.4012" lon="-1.60028">
        <ele>58.5</ele>
        <time>2019-07-16T12:33:01Z</time>
      </trkpt>
      <trkpt lat="48.40122" lon="-1.60025">
        <ele>59</ele>
        <time>2019-07-16T12:33:02Z</time>
      </trkpt>
      <trkpt lat="48.40124" lon="-1.60023">
        <ele>59.4</ele>
        <time>2019-07-16T12:33:03Z</time>
      </trkpt>
      <trkpt lat="48.40126" lon="-1.6002">
        <ele>59.8</ele>
        <time>2019-07-16T12:33:04Z</time>
      </trkpt>
      <trkpt lat="48.40129" lon="-1.60017">
        <ele>60.1</ele>
        <time>2019-07-16T12:33:05Z</time>
      </trkpt>
      <trkpt lat="48.40131" lon="-1.60014">
        <ele>60.2</ele>
        <time>2019-07-16T12:33:06Z</time>
      </trkpt>
      <trkpt lat="48.40134" lon="-1.60011">
        <ele>60.3</ele>
        <time>2019-07-16T12:33:07Z</time>
      </trkpt>
      <trkpt lat="48.40136" lon="-1.60008">
        <ele>60.1</ele>
        <time>2019-07-16T12:33:08Z</time>
      </trkpt>
      <trkpt lat="48.40138" lon="-1.60005">
        <ele>59.9</ele>
        <time>2019-07-16T12:33:09Z</time>
      </trkpt>
      <trkpt lat="48.40141" lon="-1.60002">
        <ele>59.6</ele>
        <time>2019-07-16T12:33:10Z</time>
      </trkpt>
      <trkpt lat="48.40143" lon="-1.59999">
        <ele>59.5</ele>
        <time>2019-07-16T12:33:11Z</time>
      </trkpt>
      <trkpt lat="48.40146" lon="-1.59996">
        <ele>59.3</ele>
        <time>2019-07-16T12:33:12Z</time>
      </trkpt>
      <trkpt lat="48.40148" lon="-1.59992">
        <ele>59.2</ele>
        <time>2019-07-16T12:33:13Z</time>
      </trkpt>
      <trkpt lat="48.40151" lon="-1.59989">
        <ele>59.2</ele>
        <time>2019-07-16T12:33:14Z</time>
      </trkpt>
      <trkpt lat="48.40153" lon="-1.59986">
        <ele>59.4</ele>
        <time>2019-07-16T12:33:15Z</time>
      </trkpt>
      <trkpt lat="48.40155" lon="-1.59984">
        <ele>60</ele>
        <time>2019-07-16T12:33:16Z</time>
      </trkpt>
      <trkpt lat="48.40157" lon="-1.59981">
        <ele>60</ele>
        <time>2019-07-16T12:33:17Z</time>
      </trkpt>
      <trkpt lat="48.4016" lon="-1.59978">
        <ele>59.6</ele>
        <time>2019-07-16T12:33:18Z</time>
      </trkpt>
      <trkpt lat="48.40163" lon="-1.59974">
        <ele>59.2</ele>
        <time>2019-07-16T12:33:19Z</time>
      </trkpt>
      <trkpt lat="48.40166" lon="-1.59971">
        <ele>59.1</ele>
        <time>2019-07-16T12:33:20Z</time>
      </trkpt>
      <trkpt lat="48.40168" lon="-1.59967">
        <ele>58.8</ele>
        <time>2019-07-16T12:33:21Z</time>
      </trkpt>
      <trkpt lat="48.40171" lon="-1.59963">
        <ele>59.1</ele>
        <time>2019-07-16T12:33:22Z</time>
      </trkpt>
      <trkpt lat="48.40174" lon="-1.5996">
        <ele>58.9</ele>
        <time>2019-07-16T12:33:23Z</time>
      </trkpt>
      <trkpt lat="48.40177" lon="-1.59956">
        <ele>58.9</ele>
        <time>2019-07-16T12:33:24Z</time>
      </trkpt>
      <trkpt lat="48.4018" lon="-1.59952">
        <ele>58.7</ele>
        <time>2019-07-16T12:33:25Z</time>
      </trkpt>
      <trkpt lat="48.40184" lon="-1.59948">
        <ele>58.5</ele>
        <time>2019-07-16T12:33:26Z</time>
      </trkpt>
      <trkpt lat="48.40187" lon="-1.59943">
        <ele>58.3</ele>
        <time>2019-07-16T12:33:27Z</time>
      </trkpt>
      <trkpt lat="48.4019" lon="-1.59939">
        <ele>58.8</ele>
        <time>2019-07-16T12:33:28Z</time>
      </trkpt>
      <trkpt lat="48.40194" lon="-1.59935">
        <ele>58.3</ele>
        <time>2019-07-16T12:33:29Z</time>
      </trkpt>
      <trkpt lat="48.40197" lon="-1.59931">
        <ele>58</ele>
        <time>2019-07-16T12:33:30Z</time>
      </trkpt>
      <trkpt lat="48.402" lon="-1.59926">
        <ele>58</ele>
        <time>2019-07-16T12:33:31Z</time>
      </trkpt>
      <trkpt lat="48.40204" lon="-1.59922">
        <ele>57.3</ele>
        <time>2019-07-16T12:33:32Z</time>
      </trkpt>
      <trkpt lat="48.40208" lon="-1.59917">
        <ele>56.8</ele>
        <time>2019-07-16T12:33:33Z</time>
      </trkpt>
      <trkpt lat="48.40212" lon="-1.59913">
        <ele>56.6</ele>
        <time>2019-07-16T12:33:34Z</time>
      </trkpt>
      <trkpt lat="48.40216" lon="-1.59909">
        <ele>56.3</ele>
        <time>2019-07-16T12:33:35Z</time>
      </trkpt>
      <trkpt lat="48.4022" lon="-1.59906">
        <ele>56</ele>
        <time>2019-07-16T12:33:36Z</time>
      </trkpt>
      <trkpt lat="48.40223" lon="-1.59902">
        <ele>55.8</ele>
        <time>2019-07-16T12:33:37Z</time>
      </trkpt>
      <trkpt lat="48.40228" lon="-1.59899">
        <ele>55.5</ele>
        <time>2019-07-16T12:33:38Z</time>
      </trkpt>
      <trkpt lat="48.40231" lon="-1.59896">
        <ele>55.6</ele>
        <time>2019-07-16T12:33:39Z</time>
      </trkpt>
      <trkpt lat="48.40236" lon="-1.59893">
        <ele>55.8</ele>
        <time>2019-07-16T12:33:40Z</time>
      </trkpt>
      <trkpt lat="48.4024" lon="-1.59891">
        <ele>56</ele>
        <time>2019-07-16T12:33:41Z</time>
      </trkpt>
      <trkpt lat="48.40244" lon="-1.59889">
        <ele>55.9</ele>
        <time>2019-07-16T12:33:42Z</time>
      </trkpt>
      <trkpt lat="48.40249" lon="-1.59888">
        <ele>55.7</ele>
        <time>2019-07-16T12:33:43Z</time>
      </trkpt>
      <trkpt lat="48.40253" lon="-1.59887">
        <ele>55.8</ele>
        <time>2019-07-16T12:33:44Z</time>
      </trkpt>
      <trkpt lat="48.40257" lon="-1.59885">
        <ele>56.2</ele>
        <time>2019-07-16T12:33:45Z</time>
      </trkpt>
      <trkpt lat="48.40262" lon="-1.59884">
        <ele>56.3</ele>
        <time>2019-07-16T12:33:46Z</time>
      </trkpt>
      <trkpt lat="48.40266" lon="-1.59882">
        <ele>56.4</ele>
        <time>2019-07-16T12:33:47Z</time>
      </trkpt>
      <trkpt lat="48.40271" lon="-1.59881">
        <ele>56.3</ele>
        <time>2019-07-16T12:33:48Z</time>
      </trkpt>
      <trkpt lat="48.40275" lon="-1.5988">
        <ele>56.3</ele>
        <time>2019-07-16T12:33:49Z</time>
      </trkpt>
      <trkpt lat="48.4028" lon="-1.59878">
        <ele>56.3</ele>
        <time>2019-07-16T12:33:50Z</time>
      </trkpt>
      <trkpt lat="48.40285" lon="-1.59877">
        <ele>56.5</ele>
        <time>2019-07-16T12:33:51Z</time>
      </trkpt>
      <trkpt lat="48.4029" lon="-1.59876">
        <ele>56.6</ele>
        <time>2019-07-16T12:33:52Z</time>
      </trkpt>
      <trkpt lat="48.40295" lon="-1.59875">
        <ele>56.7</ele>
        <time>2019-07-16T12:33:53Z</time>
      </trkpt>
      <trkpt lat="48.40299" lon="-1.59873">
        <ele>56.8</ele>
        <time>2019-07-16T12:33:54Z</time>
      </trkpt>
      <trkpt lat="48.40304" lon="-1.59871">
        <ele>56.8</ele>
        <time>2019-07-16T12:33:55Z</time>
      </trkpt>
      <trkpt lat="48.40308" lon="-1.5987">
        <ele>56.6</ele>
        <time>2019-07-16T12:33:56Z</time>
      </trkpt>
      <trkpt lat="48.40313" lon="-1.59868">
        <ele>56.5</ele>
        <time>2019-07-16T12:33:57Z</time>
      </trkpt>
      <trkpt lat="48.40318" lon="-1.59867">
        <ele>56.4</ele>
        <time>2019-07-16T12:33:58Z</time>
      </trkpt>
      <trkpt lat="48.40324" lon="-1.59865">
        <ele>56.4</ele>
        <time>2019-07-16T12:33:59Z</time>
      </trkpt>
      <trkpt lat="48.40329" lon="-1.59864">
        <ele>56.3</ele>
        <time>2019-07-16T12:34:00Z</time>
      </trkpt>
      <trkpt lat="48.40334" lon="-1.59862">
        <ele>56.1</ele>
        <time>2019-07-16T12:34:01Z</time>
      </trkpt>
      <trkpt lat="48.40339" lon="-1.59861">
        <ele>56.2</ele>
        <time>2019-07-16T12:34:02Z</time>
      </trkpt>
      <trkpt lat="48.40344" lon="-1.59859">
        <ele>56</ele>
        <time>2019-07-16T12:34:03Z</time>
      </trkpt>
      <trkpt lat="48.40349" lon="-1.59857">
        <ele>55.7</ele>
        <time>2019-07-16T12:34:04Z</time>
      </trkpt>
      <trkpt lat="48.40354" lon="-1.59856">
        <ele>55.4</ele>
        <time>2019-07-16T12:34:05Z</time>
      </trkpt>
      <trkpt lat="48.4036" lon="-1.59853">
        <ele>55.1</ele>
        <time>2019-07-16T12:34:06Z</time>
      </trkpt>
      <trkpt lat="48.40365" lon="-1.59851">
        <ele>54.8</ele>
        <time>2019-07-16T12:34:07Z</time>
      </trkpt>
      <trkpt lat="48.4037" lon="-1.59849">
        <ele>54.5</ele>
        <time>2019-07-16T12:34:08Z</time>
      </trkpt>
      <trkpt lat="48.40374" lon="-1.59846">
        <ele>54.7</ele>
        <time>2019-07-16T12:34:09Z</time>
      </trkpt>
      <trkpt lat="48.40379" lon="-1.59843">
        <ele>54.4</ele>
        <time>2019-07-16T12:34:10Z</time>
      </trkpt>
      <trkpt lat="48.40384" lon="-1.59838">
        <ele>54.8</ele>
        <time>2019-07-16T12:34:11Z</time>
      </trkpt>
      <trkpt lat="48.40388" lon="-1.59833">
        <ele>54.2</ele>
        <time>2019-07-16T12:34:12Z</time>
      </trkpt>
      <trkpt lat="48.40392" lon="-1.59826">
        <ele>53.2</ele>
        <time>2019-07-16T12:34:13Z</time>
      </trkpt>
      <trkpt lat="48.40395" lon="-1.59819">
        <ele>52.7</ele>
        <time>2019-07-16T12:34:14Z</time>
      </trkpt>
      <trkpt lat="48.40398" lon="-1.59813">
        <ele>52.3</ele>
        <time>2019-07-16T12:34:15Z</time>
      </trkpt>
      <trkpt lat="48.40401" lon="-1.59806">
        <ele>51.9</ele>
        <time>2019-07-16T12:34:16Z</time>
      </trkpt>
      <trkpt lat="48.40403" lon="-1.598">
        <ele>51.4</ele>
        <time>2019-07-16T12:34:17Z</time>
      </trkpt>
      <trkpt lat="48.40405" lon="-1.59793">
        <ele>51.2</ele>
        <time>2019-07-16T12:34:18Z</time>
      </trkpt>
      <trkpt lat="48.40406" lon="-1.59786">
        <ele>51.1</ele>
        <time>2019-07-16T12:34:19Z</time>
      </trkpt>
      <trkpt lat="48.40408" lon="-1.5978">
        <ele>50.9</ele>
        <time>2019-07-16T12:34:20Z</time>
      </trkpt>
      <trkpt lat="48.4041" lon="-1.59774">
        <ele>50.9</ele>
        <time>2019-07-16T12:34:21Z</time>
      </trkpt>
      <trkpt lat="48.40412" lon="-1.59768">
        <ele>51</ele>
        <time>2019-07-16T12:34:22Z</time>
      </trkpt>
      <trkpt lat="48.40414" lon="-1.59762">
        <ele>50.9</ele>
        <time>2019-07-16T12:34:23Z</time>
      </trkpt>
      <trkpt lat="48.40415" lon="-1.59756">
        <ele>50.9</ele>
        <time>2019-07-16T12:34:24Z</time>
      </trkpt>
      <trkpt lat="48.40417" lon="-1.5975">
        <ele>50.9</ele>
        <time>2019-07-16T12:34:25Z</time>
      </trkpt>
      <trkpt lat="48.40419" lon="-1.59743">
        <ele>50.7</ele>
        <time>2019-07-16T12:34:26Z</time>
      </trkpt>
      <trkpt lat="48.4042" lon="-1.59737">
        <ele>50.8</ele>
        <time>2019-07-16T12:34:27Z</time>
      </trkpt>
      <trkpt lat="48.40422" lon="-1.59731">
        <ele>51</ele>
        <time>2019-07-16T12:34:28Z</time>
      </trkpt>
      <trkpt lat="48.40424" lon="-1.59725">
        <ele>51.2</ele>
        <time>2019-07-16T12:34:29Z</time>
      </trkpt>
      <trkpt lat="48.40425" lon="-1.59719">
        <ele>51.4</ele>
        <time>2019-07-16T12:34:30Z</time>
      </trkpt>
      <trkpt lat="48.40427" lon="-1.59712">
        <ele>51.4</ele>
        <time>2019-07-16T12:34:31Z</time>
      </trkpt>
      <trkpt lat="48.40429" lon="-1.59706">
        <ele>51.5</ele>
        <time>2019-07-16T12:34:32Z</time>
      </trkpt>
      <trkpt lat="48.40431" lon="-1.597">
        <ele>51.5</ele>
        <time>2019-07-16T12:34:33Z</time>
      </trkpt>
      <trkpt lat="48.40432" lon="-1.59693">
        <ele>51.6</ele>
        <time>2019-07-16T12:34:34Z</time>
      </trkpt>
      <trkpt lat="48.40434" lon="-1.59686">
        <ele>51.3</ele>
        <time>2019-07-16T12:34:35Z</time>
      </trkpt>
      <trkpt lat="48.40435" lon="-1.59679">
        <ele>50.9</ele>
        <time>2019-07-16T12:34:36Z</time>
      </trkpt>
      <trkpt lat="48.40437" lon="-1.59672">
        <ele>50.7</ele>
        <time>2019-07-16T12:34:37Z</time>
      </trkpt>
      <trkpt lat="48.40439" lon="-1.59665">
        <ele>50.4</ele>
        <time>2019-07-16T12:34:38Z</time>
      </trkpt>
      <trkpt lat="48.40441" lon="-1.59657">
        <ele>50.1</ele>
        <time>2019-07-16T12:34:39Z</time>
      </trkpt>
      <trkpt lat="48.40443" lon="-1.5965">
        <ele>49.9</ele>
        <time>2019-07-16T12:34:40Z</time>
      </trkpt>
      <trkpt lat="48.40445" lon="-1.59642">
        <ele>49.5</ele>
        <time>2019-07-16T12:34:41Z</time>
      </trkpt>
      <trkpt lat="48.40448" lon="-1.59635">
        <ele>49.3</ele>
        <time>2019-07-16T12:34:42Z</time>
      </trkpt>
      <trkpt lat="48.4045" lon="-1.59627">
        <ele>49.1</ele>
        <time>2019-07-16T12:34:43Z</time>
      </trkpt>
      <trkpt lat="48.40452" lon="-1.5962">
        <ele>49.1</ele>
        <time>2019-07-16T12:34:44Z</time>
      </trkpt>
      <trkpt lat="48.40454" lon="-1.59612">
        <ele>49</ele>
        <time>2019-07-16T12:34:45Z</time>
      </trkpt>
      <trkpt lat="48.40456" lon="-1.59604">
        <ele>48.6</ele>
        <time>2019-07-16T12:34:46Z</time>
      </trkpt>
      <trkpt lat="48.40458" lon="-1.59596">
        <ele>48.2</ele>
        <time>2019-07-16T12:34:47Z</time>
      </trkpt>
      <trkpt lat="48.4046" lon="-1.59588">
        <ele>47.9</ele>
        <time>2019-07-16T12:34:48Z</time>
      </trkpt>
      <trkpt lat="48.40462" lon="-1.5958">
        <ele>47.7</ele>
        <time>2019-07-16T12:34:49Z</time>
      </trkpt>
      <trkpt lat="48.40464" lon="-1.59572">
        <ele>47.5</ele>
        <time>2019-07-16T12:34:50Z</time>
      </trkpt>
      <trkpt lat="48.40467" lon="-1.59564">
        <ele>47.4</ele>
        <time>2019-07-16T12:34:51Z</time>
      </trkpt>
      <trkpt lat="48.40469" lon="-1.59556">
        <ele>47.3</ele>
        <time>2019-07-16T12:34:52Z</time>
      </trkpt>
      <trkpt lat="48.40471" lon="-1.59548">
        <ele>47.1</ele>
        <time>2019-07-16T12:34:53Z</time>
      </trkpt>
      <trkpt lat="48.40473" lon="-1.59541">
        <ele>47</ele>
        <time>2019-07-16T12:34:54Z</time>
      </trkpt>
      <trkpt lat="48.40476" lon="-1.59533">
        <ele>46.7</ele>
        <time>2019-07-16T12:34:55Z</time>
      </trkpt>
      <trkpt lat="48.40478" lon="-1.59525">
        <ele>46.8</ele>
        <time>2019-07-16T12:34:56Z</time>
      </trkpt>
      <trkpt lat="48.4048" lon="-1.59517">
        <ele>46.9</ele>
        <time>2019-07-16T12:34:57Z</time>
      </trkpt>
      <trkpt lat="48.40482" lon="-1.59509">
        <ele>47</ele>
        <time>2019-07-16T12:34:58Z</time>
      </trkpt>
      <trkpt lat="48.40485" lon="-1.59501">
        <ele>47.1</ele>
        <time>2019-07-16T12:34:59Z</time>
      </trkpt>
      <trkpt lat="48.40487" lon="-1.59492">
        <ele>47.2</ele>
        <time>2019-07-16T12:35:00Z</time>
      </trkpt>
      <trkpt lat="48.40489" lon="-1.59484">
        <ele>47.4</ele>
        <time>2019-07-16T12:35:01Z</time>
      </trkpt>
      <trkpt lat="48.40492" lon="-1.59476">
        <ele>47.5</ele>
        <time>2019-07-16T12:35:02Z</time>
      </trkpt>
      <trkpt lat="48.40494" lon="-1.59468">
        <ele>47.1</ele>
        <time>2019-07-16T12:35:03Z</time>
      </trkpt>
      <trkpt lat="48.40497" lon="-1.5946">
        <ele>46.8</ele>
        <time>2019-07-16T12:35:04Z</time>
      </trkpt>
      <trkpt lat="48.405" lon="-1.59452">
        <ele>46.7</ele>
        <time>2019-07-16T12:35:05Z</time>
      </trkpt>
      <trkpt lat="48.40502" lon="-1.59444">
        <ele>46.6</ele>
        <time>2019-07-16T12:35:06Z</time>
      </trkpt>
      <trkpt lat="48.40505" lon="-1.59436">
        <ele>46.7</ele>
        <time>2019-07-16T12:35:07Z</time>
      </trkpt>
      <trkpt lat="48.40508" lon="-1.59429">
        <ele>46.8</ele>
        <time>2019-07-16T12:35:08Z</time>
      </trkpt>
      <trkpt lat="48.40511" lon="-1.59421">
        <ele>47</ele>
        <time>2019-07-16T12:35:09Z</time>
      </trkpt>
      <trkpt lat="48.40514" lon="-1.59413">
        <ele>47</ele>
        <time>2019-07-16T12:35:10Z</time>
      </trkpt>
      <trkpt lat="48.40517" lon="-1.59406">
        <ele>47.2</ele>
        <time>2019-07-16T12:35:11Z</time>
      </trkpt>
      <trkpt lat="48.40521" lon="-1.59398">
        <ele>47.2</ele>
        <time>2019-07-16T12:35:12Z</time>
      </trkpt>
      <trkpt lat="48.40524" lon="-1.59391">
        <ele>46.8</ele>
        <time>2019-07-16T12:35:13Z</time>
      </trkpt>
      <trkpt lat="48.40527" lon="-1.59384">
        <ele>46.6</ele>
        <time>2019-07-16T12:35:14Z</time>
      </trkpt>
      <trkpt lat="48.4053" lon="-1.59377">
        <ele>46.3</ele>
        <time>2019-07-16T12:35:15Z</time>
      </trkpt>
      <trkpt lat="48.40533" lon="-1.5937">
        <ele>46.3</ele>
        <time>2019-07-16T12:35:16Z</time>
      </trkpt>
      <trkpt lat="48.40537" lon="-1.59362">
        <ele>46.2</ele>
        <time>2019-07-16T12:35:17Z</time>
      </trkpt>
      <trkpt lat="48.40539" lon="-1.59355">
        <ele>46.1</ele>
        <time>2019-07-16T12:35:18Z</time>
      </trkpt>
      <trkpt lat="48.40542" lon="-1.59347">
        <ele>45.9</ele>
        <time>2019-07-16T12:35:19Z</time>
      </trkpt>
      <trkpt lat="48.40545" lon="-1.5934">
        <ele>45.8</ele>
        <time>2019-07-16T12:35:20Z</time>
      </trkpt>
      <trkpt lat="48.40548" lon="-1.59332">
        <ele>45.7</ele>
        <time>2019-07-16T12:35:21Z</time>
      </trkpt>
      <trkpt lat="48.40551" lon="-1.59325">
        <ele>45.8</ele>
        <time>2019-07-16T12:35:22Z</time>
      </trkpt>
      <trkpt lat="48.40554" lon="-1.59318">
        <ele>45.9</ele>
        <time>2019-07-16T12:35:23Z</time>
      </trkpt>
      <trkpt lat="48.40558" lon="-1.59311">
        <ele>46</ele>
        <time>2019-07-16T12:35:24Z</time>
      </trkpt>
      <trkpt lat="48.40561" lon="-1.59304">
        <ele>46.1</ele>
        <time>2019-07-16T12:35:25Z</time>
      </trkpt>
      <trkpt lat="48.40564" lon="-1.59296">
        <ele>45.9</ele>
        <time>2019-07-16T12:35:26Z</time>
      </trkpt>
      <trkpt lat="48.40567" lon="-1.59289">
        <ele>45.7</ele>
        <time>2019-07-16T12:35:27Z</time>
      </trkpt>
      <trkpt lat="48.4057" lon="-1.59281">
        <ele>45.5</ele>
        <time>2019-07-16T12:35:28Z</time>
      </trkpt>
      <trkpt lat="48.40574" lon="-1.59274">
        <ele>45.4</ele>
        <time>2019-07-16T12:35:29Z</time>
      </trkpt>
      <trkpt lat="48.40577" lon="-1.59266">
        <ele>45.2</ele>
        <time>2019-07-16T12:35:30Z</time>
      </trkpt>
      <trkpt lat="48.40583" lon="-1.59251">
        <ele>44.4</ele>
        <time>2019-07-16T12:35:32Z</time>
      </trkpt>
      <trkpt lat="48.40587" lon="-1.59243">
        <ele>44.1</ele>
        <time>2019-07-16T12:35:33Z</time>
      </trkpt>
      <trkpt lat="48.4059" lon="-1.59236">
        <ele>44</ele>
        <time>2019-07-16T12:35:34Z</time>
      </trkpt>
      <trkpt lat="48.40594" lon="-1.59229">
        <ele>43.7</ele>
        <time>2019-07-16T12:35:35Z</time>
      </trkpt>
      <trkpt lat="48.40598" lon="-1.59222">
        <ele>43.9</ele>
        <time>2019-07-16T12:35:36Z</time>
      </trkpt>
      <trkpt lat="48.40601" lon="-1.59215">
        <ele>43.9</ele>
        <time>2019-07-16T12:35:37Z</time>
      </trkpt>
      <trkpt lat="48.40605" lon="-1.59208">
        <ele>44.2</ele>
        <time>2019-07-16T12:35:38Z</time>
      </trkpt>
      <trkpt lat="48.40608" lon="-1.59201">
        <ele>44.2</ele>
        <time>2019-07-16T12:35:39Z</time>
      </trkpt>
      <trkpt lat="48.40612" lon="-1.59194">
        <ele>43.9</ele>
        <time>2019-07-16T12:35:40Z</time>
      </trkpt>
      <trkpt lat="48.40615" lon="-1.59188">
        <ele>44</ele>
        <time>2019-07-16T12:35:41Z</time>
      </trkpt>
      <trkpt lat="48.40619" lon="-1.59181">
        <ele>44</ele>
        <time>2019-07-16T12:35:42Z</time>
      </trkpt>
      <trkpt lat="48.40622" lon="-1.59174">
        <ele>43.7</ele>
        <time>2019-07-16T12:35:43Z</time>
      </trkpt>
      <trkpt lat="48.40626" lon="-1.59167">
        <ele>43.7</ele>
        <time>2019-07-16T12:35:44Z</time>
      </trkpt>
      <trkpt lat="48.4063" lon="-1.59161">
        <ele>43.5</ele>
        <time>2019-07-16T12:35:45Z</time>
      </trkpt>
      <trkpt lat="48.40634" lon="-1.59154">
        <ele>43.4</ele>
        <time>2019-07-16T12:35:46Z</time>
      </trkpt>
      <trkpt lat="48.40638" lon="-1.59147">
        <ele>43.1</ele>
        <time>2019-07-16T12:35:47Z</time>
      </trkpt>
      <trkpt lat="48.40642" lon="-1.59141">
        <ele>43.1</ele>
        <time>2019-07-16T12:35:48Z</time>
      </trkpt>
      <trkpt lat="48.40646" lon="-1.59133">
        <ele>42.8</ele>
        <time>2019-07-16T12:35:49Z</time>
      </trkpt>
      <trkpt lat="48.4065" lon="-1.59126">
        <ele>42.8</ele>
        <time>2019-07-16T12:35:50Z</time>
      </trkpt>
      <trkpt lat="48.40653" lon="-1.5912">
        <ele>42.4</ele>
        <time>2019-07-16T12:35:51Z</time>
      </trkpt>
      <trkpt lat="48.40657" lon="-1.59113">
        <ele>42.2</ele>
        <time>2019-07-16T12:35:52Z</time>
      </trkpt>
      <trkpt lat="48.40661" lon="-1.59106">
        <ele>42</ele>
        <time>2019-07-16T12:35:53Z</time>
      </trkpt>
      <trkpt lat="48.40664" lon="-1.59098">
        <ele>41.7</ele>
        <time>2019-07-16T12:35:54Z</time>
      </trkpt>
      <trkpt lat="48.40668" lon="-1.59091">
        <ele>41.5</ele>
        <time>2019-07-16T12:35:55Z</time>
      </trkpt>
      <trkpt lat="48.40672" lon="-1.59083">
        <ele>41.1</ele>
        <time>2019-07-16T12:35:56Z</time>
      </trkpt>
      <trkpt lat="48.40676" lon="-1.59076">
        <ele>40.8</ele>
        <time>2019-07-16T12:35:57Z</time>
      </trkpt>
      <trkpt lat="48.4068" lon="-1.59068">
        <ele>40.6</ele>
        <time>2019-07-16T12:35:58Z</time>
      </trkpt>
      <trkpt lat="48.40685" lon="-1.5906">
        <ele>40.5</ele>
        <time>2019-07-16T12:35:59Z</time>
      </trkpt>
      <trkpt lat="48.40688" lon="-1.59053">
        <ele>40.4</ele>
        <time>2019-07-16T12:36:00Z</time>
      </trkpt>
      <trkpt lat="48.40693" lon="-1.59046">
        <ele>40.5</ele>
        <time>2019-07-16T12:36:01Z</time>
      </trkpt>
      <trkpt lat="48.40697" lon="-1.59038">
        <ele>40.5</ele>
        <time>2019-07-16T12:36:02Z</time>
      </trkpt>
      <trkpt lat="48.40701" lon="-1.5903">
        <ele>40.4</ele>
        <time>2019-07-16T12:36:03Z</time>
      </trkpt>
      <trkpt lat="48.40706" lon="-1.59022">
        <ele>40.4</ele>
        <time>2019-07-16T12:36:04Z</time>
      </trkpt>
      <trkpt lat="48.4071" lon="-1.59015">
        <ele>40.4</ele>
        <time>2019-07-16T12:36:05Z</time>
      </trkpt>
      <trkpt lat="48.40714" lon="-1.59007">
        <ele>40.1</ele>
        <time>2019-07-16T12:36:06Z</time>
      </trkpt>
      <trkpt lat="48.40718" lon="-1.58999">
        <ele>39.7</ele>
        <time>2019-07-16T12:36:07Z</time>
      </trkpt>
      <trkpt lat="48.40722" lon="-1.58991">
        <ele>39.6</ele>
        <time>2019-07-16T12:36:08Z</time>
      </trkpt>
      <trkpt lat="48.40727" lon="-1.58984">
        <ele>39.5</ele>
        <time>2019-07-16T12:36:09Z</time>
      </trkpt>
      <trkpt lat="48.40731" lon="-1.58976">
        <ele>39.3</ele>
        <time>2019-07-16T12:36:10Z</time>
      </trkpt>
      <trkpt lat="48.40735" lon="-1.58969">
        <ele>39.3</ele>
        <time>2019-07-16T12:36:11Z</time>
      </trkpt>
      <trkpt lat="48.40739" lon="-1.58961">
        <ele>39.3</ele>
        <time>2019-07-16T12:36:12Z</time>
      </trkpt>
      <trkpt lat="48.40743" lon="-1.58953">
        <ele>39.3</ele>
        <time>2019-07-16T12:36:13Z</time>
      </trkpt>
      <trkpt lat="48.40747" lon="-1.58946">
        <ele>39</ele>
        <time>2019-07-16T12:36:14Z</time>
      </trkpt>
      <trkpt lat="48.40751" lon="-1.58938">
        <ele>38.7</ele>
        <time>2019-07-16T12:36:15Z</time>
      </trkpt>
      <trkpt lat="48.40756" lon="-1.5893">
        <ele>38.2</ele>
        <time>2019-07-16T12:36:16Z</time>
      </trkpt>
      <trkpt lat="48.4076" lon="-1.58922">
        <ele>37.7</ele>
        <time>2019-07-16T12:36:17Z</time>
      </trkpt>
      <trkpt lat="48.40764" lon="-1.58914">
        <ele>37.3</ele>
        <time>2019-07-16T12:36:18Z</time>
      </trkpt>
      <trkpt lat="48.40768" lon="-1.58906">
        <ele>37</ele>
        <time>2019-07-16T12:36:19Z</time>
      </trkpt>
      <trkpt lat="48.40773" lon="-1.58898">
        <ele>36.7</ele>
        <time>2019-07-16T12:36:20Z</time>
      </trkpt>
      <trkpt lat="48.40777" lon="-1.5889">
        <ele>36.4</ele>
        <time>2019-07-16T12:36:21Z</time>
      </trkpt>
      <trkpt lat="48.40781" lon="-1.58882">
        <ele>35.8</ele>
        <time>2019-07-16T12:36:22Z</time>
      </trkpt>
      <trkpt lat="48.40786" lon="-1.58874">
        <ele>35.5</ele>
        <time>2019-07-16T12:36:23Z</time>
      </trkpt>
      <trkpt lat="48.4079" lon="-1.58867">
        <ele>35.2</ele>
        <time>2019-07-16T12:36:24Z</time>
      </trkpt>
      <trkpt lat="48.40794" lon="-1.58859">
        <ele>34.9</ele>
        <time>2019-07-16T12:36:25Z</time>
      </trkpt>
      <trkpt lat="48.40798" lon="-1.58851">
        <ele>34.6</ele>
        <time>2019-07-16T12:36:26Z</time>
      </trkpt>
      <trkpt lat="48.40802" lon="-1.58843">
        <ele>34.1</ele>
        <time>2019-07-16T12:36:27Z</time>
      </trkpt>
      <trkpt lat="48.40807" lon="-1.58835">
        <ele>33.6</ele>
        <time>2019-07-16T12:36:28Z</time>
      </trkpt>
      <trkpt lat="48.40811" lon="-1.58827">
        <ele>33.1</ele>
        <time>2019-07-16T12:36:29Z</time>
      </trkpt>
      <trkpt lat="48.40815" lon="-1.58819">
        <ele>32.7</ele>
        <time>2019-07-16T12:36:30Z</time>
      </trkpt>
      <trkpt lat="48.4082" lon="-1.58811">
        <ele>32.3</ele>
        <time>2019-07-16T12:36:31Z</time>
      </trkpt>
      <trkpt lat="48.40824" lon="-1.58803">
        <ele>32</ele>
        <time>2019-07-16T12:36:32Z</time>
      </trkpt>
      <trkpt lat="48.40828" lon="-1.58795">
        <ele>31.8</ele>
        <time>2019-07-16T12:36:33Z</time>
      </trkpt>
      <trkpt lat="48.40833" lon="-1.58786">
        <ele>31.6</ele>
        <time>2019-07-16T12:36:34Z</time>
      </trkpt>
      <trkpt lat="48.40838" lon="-1.58777">
        <ele>31.3</ele>
        <time>2019-07-16T12:36:35Z</time>
      </trkpt>
      <trkpt lat="48.40842" lon="-1.58768">
        <ele>31</ele>
        <time>2019-07-16T12:36:36Z</time>
      </trkpt>
      <trkpt lat="48.40847" lon="-1.5876">
        <ele>30.6</ele>
        <time>2019-07-16T12:36:37Z</time>
      </trkpt>
      <trkpt lat="48.40852" lon="-1.58751">
        <ele>30.3</ele>
        <time>2019-07-16T12:36:38Z</time>
      </trkpt>
      <trkpt lat="48.40857" lon="-1.58742">
        <ele>30.1</ele>
        <time>2019-07-16T12:36:39Z</time>
      </trkpt>
      <trkpt lat="48.40862" lon="-1.58733">
        <ele>29.9</ele>
        <time>2019-07-16T12:36:40Z</time>
      </trkpt>
      <trkpt lat="48.40867" lon="-1.58724">
        <ele>29.5</ele>
        <time>2019-07-16T12:36:41Z</time>
      </trkpt>
      <trkpt lat="48.40871" lon="-1.58715">
        <ele>29.2</ele>
        <time>2019-07-16T12:36:42Z</time>
      </trkpt>
      <trkpt lat="48.40876" lon="-1.58706">
        <ele>28.9</ele>
        <time>2019-07-16T12:36:43Z</time>
      </trkpt>
      <trkpt lat="48.40881" lon="-1.58697">
        <ele>28.8</ele>
        <time>2019-07-16T12:36:44Z</time>
      </trkpt>
      <trkpt lat="48.40886" lon="-1.58687">
        <ele>28.5</ele>
        <time>2019-07-16T12:36:45Z</time>
      </trkpt>
      <trkpt lat="48.40892" lon="-1.58678">
        <ele>28.2</ele>
        <time>2019-07-16T12:36:46Z</time>
      </trkpt>
      <trkpt lat="48.40897" lon="-1.58668">
        <ele>27.4</ele>
        <time>2019-07-16T12:36:47Z</time>
      </trkpt>
      <trkpt lat="48.40902" lon="-1.58658">
        <ele>27</ele>
        <time>2019-07-16T12:36:48Z</time>
      </trkpt>
      <trkpt lat="48.40908" lon="-1.58648">
        <ele>27</ele>
        <time>2019-07-16T12:36:49Z</time>
      </trkpt>
      <trkpt lat="48.40913" lon="-1.58638">
        <ele>26.9</ele>
        <time>2019-07-16T12:36:50Z</time>
      </trkpt>
      <trkpt lat="48.40918" lon="-1.58628">
        <ele>26.5</ele>
        <time>2019-07-16T12:36:51Z</time>
      </trkpt>
      <trkpt lat="48.40923" lon="-1.58619">
        <ele>26.2</ele>
        <time>2019-07-16T12:36:52Z</time>
      </trkpt>
      <trkpt lat="48.40928" lon="-1.58609">
        <ele>25.9</ele>
        <time>2019-07-16T12:36:53Z</time>
      </trkpt>
      <trkpt lat="48.40934" lon="-1.58599">
        <ele>25.5</ele>
        <time>2019-07-16T12:36:54Z</time>
      </trkpt>
      <trkpt lat="48.40939" lon="-1.5859">
        <ele>25.5</ele>
        <time>2019-07-16T12:36:55Z</time>
      </trkpt>
      <trkpt lat="48.40944" lon="-1.58581">
        <ele>25.4</ele>
        <time>2019-07-16T12:36:56Z</time>
      </trkpt>
      <trkpt lat="48.40949" lon="-1.58572">
        <ele>25.3</ele>
        <time>2019-07-16T12:36:57Z</time>
      </trkpt>
      <trkpt lat="48.40953" lon="-1.58564">
        <ele>25.3</ele>
        <time>2019-07-16T12:36:58Z</time>
      </trkpt>
      <trkpt lat="48.40958" lon="-1.58556">
        <ele>25.5</ele>
        <time>2019-07-16T12:36:59Z</time>
      </trkpt>
      <trkpt lat="48.40962" lon="-1.58549">
        <ele>25.6</ele>
        <time>2019-07-16T12:37:00Z</time>
      </trkpt>
      <trkpt lat="48.40966" lon="-1.58542">
        <ele>25.6</ele>
        <time>2019-07-16T12:37:01Z</time>
      </trkpt>
      <trkpt lat="48.40971" lon="-1.58535">
        <ele>25.6</ele>
        <time>2019-07-16T12:37:02Z</time>
      </trkpt>
      <trkpt lat="48.40975" lon="-1.58529">
        <ele>25.9</ele>
        <time>2019-07-16T12:37:03Z</time>
      </trkpt>
      <trkpt lat="48.40979" lon="-1.58523">
        <ele>26.1</ele>
        <time>2019-07-16T12:37:04Z</time>
      </trkpt>
      <trkpt lat="48.40983" lon="-1.58518">
        <ele>26.3</ele>
        <time>2019-07-16T12:37:05Z</time>
      </trkpt>
      <trkpt lat="48.40987" lon="-1.58513">
        <ele>26.6</ele>
        <time>2019-07-16T12:37:06Z</time>
      </trkpt>
      <trkpt lat="48.4099" lon="-1.58509">
        <ele>26.7</ele>
        <time>2019-07-16T12:37:07Z</time>
      </trkpt>
      <trkpt lat="48.40994" lon="-1.58505">
        <ele>27.3</ele>
        <time>2019-07-16T12:37:08Z</time>
      </trkpt>
      <trkpt lat="48.40998" lon="-1.58501">
        <ele>27.4</ele>
        <time>2019-07-16T12:37:09Z</time>
      </trkpt>
      <trkpt lat="48.41001" lon="-1.58498">
        <ele>27.8</ele>
        <time>2019-07-16T12:37:10Z</time>
      </trkpt>
      <trkpt lat="48.41004" lon="-1.58495">
        <ele>28.1</ele>
        <time>2019-07-16T12:37:11Z</time>
      </trkpt>
      <trkpt lat="48.41007" lon="-1.58491">
        <ele>28.4</ele>
        <time>2019-07-16T12:37:12Z</time>
      </trkpt>
      <trkpt lat="48.4101" lon="-1.58488">
        <ele>29.1</ele>
        <time>2019-07-16T12:37:13Z</time>
      </trkpt>
      <trkpt lat="48.41013" lon="-1.58484">
        <ele>29</ele>
        <time>2019-07-16T12:37:14Z</time>
      </trkpt>
      <trkpt lat="48.41017" lon="-1.58481">
        <ele>29</ele>
        <time>2019-07-16T12:37:15Z</time>
      </trkpt>
      <trkpt lat="48.4102" lon="-1.58478">
        <ele>28.8</ele>
        <time>2019-07-16T12:37:16Z</time>
      </trkpt>
      <trkpt lat="48.41023" lon="-1.58475">
        <ele>29</ele>
        <time>2019-07-16T12:37:17Z</time>
      </trkpt>
      <trkpt lat="48.41026" lon="-1.58472">
        <ele>29</ele>
        <time>2019-07-16T12:37:18Z</time>
      </trkpt>
      <trkpt lat="48.41029" lon="-1.5847">
        <ele>29</ele>
        <time>2019-07-16T12:37:19Z</time>
      </trkpt>
      <trkpt lat="48.41031" lon="-1.58467">
        <ele>29.1</ele>
        <time>2019-07-16T12:37:20Z</time>
      </trkpt>
      <trkpt lat="48.41034" lon="-1.58464">
        <ele>29.2</ele>
        <time>2019-07-16T12:37:21Z</time>
      </trkpt>
      <trkpt lat="48.41036" lon="-1.58461">
        <ele>29.3</ele>
        <time>2019-07-16T12:37:22Z</time>
      </trkpt>
      <trkpt lat="48.41039" lon="-1.58457">
        <ele>29.4</ele>
        <time>2019-07-16T12:37:23Z</time>
      </trkpt>
      <trkpt lat="48.4104" lon="-1.58454">
        <ele>30.3</ele>
        <time>2019-07-16T12:37:24Z</time>
      </trkpt>
      <trkpt lat="48.41042" lon="-1.58451">
        <ele>30.5</ele>
        <time>2019-07-16T12:37:25Z</time>
      </trkpt>
      <trkpt lat="48.41045" lon="-1.58449">
        <ele>30.5</ele>
        <time>2019-07-16T12:37:26Z</time>
      </trkpt>
      <trkpt lat="48.41047" lon="-1.58447">
        <ele>30.3</ele>
        <time>2019-07-16T12:37:27Z</time>
      </trkpt>
      <trkpt lat="48.41049" lon="-1.58445">
        <ele>30.3</ele>
        <time>2019-07-16T12:37:28Z</time>
      </trkpt>
      <trkpt lat="48.4105" lon="-1.58443">
        <ele>30.8</ele>
        <time>2019-07-16T12:37:29Z</time>
      </trkpt>
      <trkpt lat="48.41053" lon="-1.58439">
        <ele>30.1</ele>
        <time>2019-07-16T12:37:30Z</time>
      </trkpt>
      <trkpt lat="48.41055" lon="-1.58436">
        <ele>29.9</ele>
        <time>2019-07-16T12:37:31Z</time>
      </trkpt>
      <trkpt lat="48.41056" lon="-1.58433">
        <ele>29.8</ele>
        <time>2019-07-16T12:37:32Z</time>
      </trkpt>
      <trkpt lat="48.41059" lon="-1.58431">
        <ele>30.2</ele>
        <time>2019-07-16T12:37:33Z</time>
      </trkpt>
      <trkpt lat="48.41061" lon="-1.58429">
        <ele>30.3</ele>
        <time>2019-07-16T12:37:34Z</time>
      </trkpt>
      <trkpt lat="48.41063" lon="-1.58427">
        <ele>30.5</ele>
        <time>2019-07-16T12:37:35Z</time>
      </trkpt>
      <trkpt lat="48.41065" lon="-1.58425">
        <ele>31.2</ele>
        <time>2019-07-16T12:37:36Z</time>
      </trkpt>
      <trkpt lat="48.41066" lon="-1.58423">
        <ele>31.6</ele>
        <time>2019-07-16T12:37:37Z</time>
      </trkpt>
      <trkpt lat="48.41068" lon="-1.58421">
        <ele>32.1</ele>
        <time>2019-07-16T12:37:38Z</time>
      </trkpt>
      <trkpt lat="48.4107" lon="-1.5842">
        <ele>32.9</ele>
        <time>2019-07-16T12:37:39Z</time>
      </trkpt>
      <trkpt lat="48.41072" lon="-1.58418">
        <ele>33.7</ele>
        <time>2019-07-16T12:37:40Z</time>
      </trkpt>
      <trkpt lat="48.41074" lon="-1.58417">
        <ele>34.6</ele>
        <time>2019-07-16T12:37:41Z</time>
      </trkpt>
      <trkpt lat="48.41076" lon="-1.58416">
        <ele>35</ele>
        <time>2019-07-16T12:37:42Z</time>
      </trkpt>
      <trkpt lat="48.41077" lon="-1.58414">
        <ele>35.8</ele>
        <time>2019-07-16T12:37:43Z</time>
      </trkpt>
      <trkpt lat="48.41079" lon="-1.58412">
        <ele>36.2</ele>
        <time>2019-07-16T12:37:44Z</time>
      </trkpt>
      <trkpt lat="48.41081" lon="-1.58411">
        <ele>36.4</ele>
        <time>2019-07-16T12:37:45Z</time>
      </trkpt>
      <trkpt lat="48.41082" lon="-1.5841">
        <ele>36.8</ele>
        <time>2019-07-16T12:37:46Z</time>
      </trkpt>
      <trkpt lat="48.41084" lon="-1.58408">
        <ele>37.3</ele>
        <time>2019-07-16T12:37:47Z</time>
      </trkpt>
      <trkpt lat="48.41086" lon="-1.58406">
        <ele>37.5</ele>
        <time>2019-07-16T12:37:48Z</time>
      </trkpt>
      <trkpt lat="48.41089" lon="-1.58404">
        <ele>37.8</ele>
        <time>2019-07-16T12:37:49Z</time>
      </trkpt>
      <trkpt lat="48.4109" lon="-1.58402">
        <ele>38.5</ele>
        <time>2019-07-16T12:37:50Z</time>
      </trkpt>
      <trkpt lat="48.41092" lon="-1.584">
        <ele>39.1</ele>
        <time>2019-07-16T12:37:51Z</time>
      </trkpt>
      <trkpt lat="48.41093" lon="-1.58399">
        <ele>39.9</ele>
        <time>2019-07-16T12:37:52Z</time>
      </trkpt>
      <trkpt lat="48.41095" lon="-1.58397">
        <ele>40.3</ele>
        <time>2019-07-16T12:37:53Z</time>
      </trkpt>
      <trkpt lat="48.41097" lon="-1.58395">
        <ele>40.6</ele>
        <time>2019-07-16T12:37:54Z</time>
      </trkpt>
      <trkpt lat="48.41099" lon="-1.58392">
        <ele>39.2</ele>
        <time>2019-07-16T12:37:55Z</time>
      </trkpt>
      <trkpt lat="48.41101" lon="-1.58388">
        <ele>38.6</ele>
        <time>2019-07-16T12:37:56Z</time>
      </trkpt>
      <trkpt lat="48.41103" lon="-1.58386">
        <ele>38.6</ele>
        <time>2019-07-16T12:37:57Z</time>
      </trkpt>
      <trkpt lat="48.41105" lon="-1.58383">
        <ele>38.2</ele>
        <time>2019-07-16T12:37:58Z</time>
      </trkpt>
      <trkpt lat="48.41108" lon="-1.5838">
        <ele>37.7</ele>
        <time>2019-07-16T12:37:59Z</time>
      </trkpt>
      <trkpt lat="48.41109" lon="-1.58377">
        <ele>38</ele>
        <time>2019-07-16T12:38:00Z</time>
      </trkpt>
      <trkpt lat="48.41111" lon="-1.58375">
        <ele>37.6</ele>
        <time>2019-07-16T12:38:01Z</time>
      </trkpt>
      <trkpt lat="48.41114" lon="-1.58373">
        <ele>37</ele>
        <time>2019-07-16T12:38:02Z</time>
      </trkpt>
      <trkpt lat="48.41116" lon="-1.58371">
        <ele>36.7</ele>
        <time>2019-07-16T12:38:03Z</time>
      </trkpt>
      <trkpt lat="48.41118" lon="-1.58369">
        <ele>36.3</ele>
        <time>2019-07-16T12:38:04Z</time>
      </trkpt>
      <trkpt lat="48.41119" lon="-1.58367">
        <ele>36.6</ele>
        <time>2019-07-16T12:38:05Z</time>
      </trkpt>
      <trkpt lat="48.41121" lon="-1.58364">
        <ele>36.9</ele>
        <time>2019-07-16T12:38:06Z</time>
      </trkpt>
      <trkpt lat="48.41122" lon="-1.58362">
        <ele>37</ele>
        <time>2019-07-16T12:38:07Z</time>
      </trkpt>
      <trkpt lat="48.41124" lon="-1.5836">
        <ele>37.6</ele>
        <time>2019-07-16T12:38:08Z</time>
      </trkpt>
      <trkpt lat="48.41126" lon="-1.58358">
        <ele>38.2</ele>
        <time>2019-07-16T12:38:09Z</time>
      </trkpt>
      <trkpt lat="48.41127" lon="-1.58356">
        <ele>38.9</ele>
        <time>2019-07-16T12:38:10Z</time>
      </trkpt>
      <trkpt lat="48.41128" lon="-1.58354">
        <ele>39.3</ele>
        <time>2019-07-16T12:38:11Z</time>
      </trkpt>
      <trkpt lat="48.41129" lon="-1.58351">
        <ele>39.8</ele>
        <time>2019-07-16T12:38:12Z</time>
      </trkpt>
      <trkpt lat="48.41131" lon="-1.58348">
        <ele>40</ele>
        <time>2019-07-16T12:38:13Z</time>
      </trkpt>
      <trkpt lat="48.41132" lon="-1.58345">
        <ele>40.3</ele>
        <time>2019-07-16T12:38:14Z</time>
      </trkpt>
      <trkpt lat="48.41134" lon="-1.58342">
        <ele>40</ele>
        <time>2019-07-16T12:38:15Z</time>
      </trkpt>
      <trkpt lat="48.41136" lon="-1.58338">
        <ele>39.4</ele>
        <time>2019-07-16T12:38:16Z</time>
      </trkpt>
      <trkpt lat="48.41138" lon="-1.58335">
        <ele>39.7</ele>
        <time>2019-07-16T12:38:17Z</time>
      </trkpt>
      <trkpt lat="48.4114" lon="-1.58332">
        <ele>40.2</ele>
        <time>2019-07-16T12:38:18Z</time>
      </trkpt>
      <trkpt lat="48.41142" lon="-1.58329">
        <ele>40.4</ele>
        <time>2019-07-16T12:38:19Z</time>
      </trkpt>
      <trkpt lat="48.41144" lon="-1.58326">
        <ele>39.6</ele>
        <time>2019-07-16T12:38:20Z</time>
      </trkpt>
      <trkpt lat="48.41146" lon="-1.58322">
        <ele>39.3</ele>
        <time>2019-07-16T12:38:21Z</time>
      </trkpt>
      <trkpt lat="48.41148" lon="-1.58319">
        <ele>39.2</ele>
        <time>2019-07-16T12:38:22Z</time>
      </trkpt>
      <trkpt lat="48.4115" lon="-1.58316">
        <ele>38.7</ele>
        <time>2019-07-16T12:38:23Z</time>
      </trkpt>
      <trkpt lat="48.41151" lon="-1.58313">
        <ele>37.8</ele>
        <time>2019-07-16T12:38:24Z</time>
      </trkpt>
      <trkpt lat="48.41153" lon="-1.5831">
        <ele>37.2</ele>
        <time>2019-07-16T12:38:25Z</time>
      </trkpt>
      <trkpt lat="48.41155" lon="-1.58306">
        <ele>36.8</ele>
        <time>2019-07-16T12:38:26Z</time>
      </trkpt>
      <trkpt lat="48.41157" lon="-1.58303">
        <ele>36.6</ele>
        <time>2019-07-16T12:38:27Z</time>
      </trkpt>
      <trkpt lat="48.41159" lon="-1.58301">
        <ele>36.2</ele>
        <time>2019-07-16T12:38:28Z</time>
      </trkpt>
      <trkpt lat="48.4116" lon="-1.58298">
        <ele>36.4</ele>
        <time>2019-07-16T12:38:29Z</time>
      </trkpt>
      <trkpt lat="48.41162" lon="-1.58295">
        <ele>36.6</ele>
        <time>2019-07-16T12:38:30Z</time>
      </trkpt>
      <trkpt lat="48.41164" lon="-1.58293">
        <ele>36.7</ele>
        <time>2019-07-16T12:38:31Z</time>
      </trkpt>
      <trkpt lat="48.41165" lon="-1.5829">
        <ele>37.1</ele>
        <time>2019-07-16T12:38:32Z</time>
      </trkpt>
      <trkpt lat="48.41167" lon="-1.58288">
        <ele>37.1</ele>
        <time>2019-07-16T12:38:33Z</time>
      </trkpt>
      <trkpt lat="48.41169" lon="-1.58285">
        <ele>37.3</ele>
        <time>2019-07-16T12:38:34Z</time>
      </trkpt>
      <trkpt lat="48.41171" lon="-1.58282">
        <ele>37.6</ele>
        <time>2019-07-16T12:38:35Z</time>
      </trkpt>
      <trkpt lat="48.41172" lon="-1.5828">
        <ele>37.8</ele>
        <time>2019-07-16T12:38:36Z</time>
      </trkpt>
      <trkpt lat="48.41174" lon="-1.58277">
        <ele>38</ele>
        <time>2019-07-16T12:38:37Z</time>
      </trkpt>
      <trkpt lat="48.41176" lon="-1.58275">
        <ele>38.5</ele>
        <time>2019-07-16T12:38:38Z</time>
      </trkpt>
      <trkpt lat="48.41178" lon="-1.58273">
        <ele>39.5</ele>
        <time>2019-07-16T12:38:39Z</time>
      </trkpt>
      <trkpt lat="48.4118" lon="-1.58271">
        <ele>40.4</ele>
        <time>2019-07-16T12:38:40Z</time>
      </trkpt>
      <trkpt lat="48.41182" lon="-1.58269">
        <ele>41.1</ele>
        <time>2019-07-16T12:38:41Z</time>
      </trkpt>
      <trkpt lat="48.41184" lon="-1.58267">
        <ele>41.3</ele>
        <time>2019-07-16T12:38:42Z</time>
      </trkpt>
      <trkpt lat="48.41186" lon="-1.58265">
        <ele>41.8</ele>
        <time>2019-07-16T12:38:43Z</time>
      </trkpt>
      <trkpt lat="48.41188" lon="-1.58263">
        <ele>42.2</ele>
        <time>2019-07-16T12:38:44Z</time>
      </trkpt>
      <trkpt lat="48.4119" lon="-1.58261">
        <ele>42.8</ele>
        <time>2019-07-16T12:38:45Z</time>
      </trkpt>
      <trkpt lat="48.41192" lon="-1.5826">
        <ele>43.5</ele>
        <time>2019-07-16T12:38:46Z</time>
      </trkpt>
      <trkpt lat="48.41193" lon="-1.58258">
        <ele>43.8</ele>
        <time>2019-07-16T12:38:47Z</time>
      </trkpt>
      <trkpt lat="48.41195" lon="-1.58257">
        <ele>43.9</ele>
        <time>2019-07-16T12:38:48Z</time>
      </trkpt>
      <trkpt lat="48.41198" lon="-1.58255">
        <ele>44</ele>
        <time>2019-07-16T12:38:49Z</time>
      </trkpt>
      <trkpt lat="48.412" lon="-1.58254">
        <ele>44.1</ele>
        <time>2019-07-16T12:38:50Z</time>
      </trkpt>
      <trkpt lat="48.41202" lon="-1.58253">
        <ele>44.2</ele>
        <time>2019-07-16T12:38:51Z</time>
      </trkpt>
      <trkpt lat="48.41205" lon="-1.58252">
        <ele>44</ele>
        <time>2019-07-16T12:38:52Z</time>
      </trkpt>
      <trkpt lat="48.41207" lon="-1.58252">
        <ele>44.2</ele>
        <time>2019-07-16T12:38:53Z</time>
      </trkpt>
      <trkpt lat="48.41209" lon="-1.58251">
        <ele>44.1</ele>
        <time>2019-07-16T12:38:54Z</time>
      </trkpt>
      <trkpt lat="48.41212" lon="-1.58251">
        <ele>44.1</ele>
        <time>2019-07-16T12:38:55Z</time>
      </trkpt>
      <trkpt lat="48.41214" lon="-1.5825">
        <ele>44.2</ele>
        <time>2019-07-16T12:38:56Z</time>
      </trkpt>
      <trkpt lat="48.41217" lon="-1.58249">
        <ele>44.2</ele>
        <time>2019-07-16T12:38:57Z</time>
      </trkpt>
      <trkpt lat="48.41219" lon="-1.58249">
        <ele>44.4</ele>
        <time>2019-07-16T12:38:58Z</time>
      </trkpt>
      <trkpt lat="48.41221" lon="-1.58248">
        <ele>44.5</ele>
        <time>2019-07-16T12:38:59Z</time>
      </trkpt>
      <trkpt lat="48.41224" lon="-1.58247">
        <ele>44.5</ele>
        <time>2019-07-16T12:39:00Z</time>
      </trkpt>
      <trkpt lat="48.41227" lon="-1.58246">
        <ele>44.4</ele>
        <time>2019-07-16T12:39:01Z</time>
      </trkpt>
      <trkpt lat="48.41229" lon="-1.58245">
        <ele>44.5</ele>
        <time>2019-07-16T12:39:02Z</time>
      </trkpt>
      <trkpt lat="48.41232" lon="-1.58245">
        <ele>44.2</ele>
        <time>2019-07-16T12:39:03Z</time>
      </trkpt>
      <trkpt lat="48.41235" lon="-1.58244">
        <ele>44.4</ele>
        <time>2019-07-16T12:39:04Z</time>
      </trkpt>
      <trkpt lat="48.41237" lon="-1.58243">
        <ele>44.4</ele>
        <time>2019-07-16T12:39:05Z</time>
      </trkpt>
      <trkpt lat="48.4124" lon="-1.58243">
        <ele>44.5</ele>
        <time>2019-07-16T12:39:06Z</time>
      </trkpt>
      <trkpt lat="48.41243" lon="-1.58242">
        <ele>44.5</ele>
        <time>2019-07-16T12:39:07Z</time>
      </trkpt>
      <trkpt lat="48.41245" lon="-1.58242">
        <ele>44.5</ele>
        <time>2019-07-16T12:39:08Z</time>
      </trkpt>
      <trkpt lat="48.41248" lon="-1.58242">
        <ele>44.5</ele>
        <time>2019-07-16T12:39:09Z</time>
      </trkpt>
      <trkpt lat="48.41251" lon="-1.58241">
        <ele>44.5</ele>
        <time>2019-07-16T12:39:10Z</time>
      </trkpt>
      <trkpt lat="48.41254" lon="-1.58241">
        <ele>44.4</ele>
        <time>2019-07-16T12:39:11Z</time>
      </trkpt>
      <trkpt lat="48.41256" lon="-1.58241">
        <ele>44.4</ele>
        <time>2019-07-16T12:39:12Z</time>
      </trkpt>
      <trkpt lat="48.41259" lon="-1.58241">
        <ele>44.4</ele>
        <time>2019-07-16T12:39:13Z</time>
      </trkpt>
      <trkpt lat="48.41262" lon="-1.5824">
        <ele>44.3</ele>
        <time>2019-07-16T12:39:14Z</time>
      </trkpt>
      <trkpt lat="48.41265" lon="-1.5824">
        <ele>44.2</ele>
        <time>2019-07-16T12:39:15Z</time>
      </trkpt>
      <trkpt lat="48.41267" lon="-1.5824">
        <ele>44.3</ele>
        <time>2019-07-16T12:39:16Z</time>
      </trkpt>
      <trkpt lat="48.4127" lon="-1.5824">
        <ele>44.2</ele>
        <time>2019-07-16T12:39:17Z</time>
      </trkpt>
      <trkpt lat="48.41273" lon="-1.5824">
        <ele>44.1</ele>
        <time>2019-07-16T12:39:18Z</time>
      </trkpt>
      <trkpt lat="48.41276" lon="-1.58241">
        <ele>44.2</ele>
        <time>2019-07-16T12:39:19Z</time>
      </trkpt>
      <trkpt lat="48.41279" lon="-1.58241">
        <ele>44</ele>
        <time>2019-07-16T12:39:20Z</time>
      </trkpt>
      <trkpt lat="48.41282" lon="-1.5824">
        <ele>43.9</ele>
        <time>2019-07-16T12:39:21Z</time>
      </trkpt>
      <trkpt lat="48.41285" lon="-1.5824">
        <ele>43.7</ele>
        <time>2019-07-16T12:39:22Z</time>
      </trkpt>
      <trkpt lat="48.41288" lon="-1.5824">
        <ele>43.8</ele>
        <time>2019-07-16T12:39:23Z</time>
      </trkpt>
      <trkpt lat="48.4129" lon="-1.5824">
        <ele>44.2</ele>
        <time>2019-07-16T12:39:24Z</time>
      </trkpt>
      <trkpt lat="48.41293" lon="-1.5824">
        <ele>44.7</ele>
        <time>2019-07-16T12:39:25Z</time>
      </trkpt>
      <trkpt lat="48.41296" lon="-1.5824">
        <ele>44.8</ele>
        <time>2019-07-16T12:39:26Z</time>
      </trkpt>
      <trkpt lat="48.41299" lon="-1.58239">
        <ele>44.9</ele>
        <time>2019-07-16T12:39:27Z</time>
      </trkpt>
      <trkpt lat="48.41303" lon="-1.58239">
        <ele>44.9</ele>
        <time>2019-07-16T12:39:28Z</time>
      </trkpt>
      <trkpt lat="48.41306" lon="-1.58239">
        <ele>44.6</ele>
        <time>2019-07-16T12:39:29Z</time>
      </trkpt>
      <trkpt lat="48.41309" lon="-1.58239">
        <ele>44.4</ele>
        <time>2019-07-16T12:39:30Z</time>
      </trkpt>
      <trkpt lat="48.41312" lon="-1.58239">
        <ele>44.3</ele>
        <time>2019-07-16T12:39:31Z</time>
      </trkpt>
      <trkpt lat="48.41316" lon="-1.58239">
        <ele>44.5</ele>
        <time>2019-07-16T12:39:32Z</time>
      </trkpt>
      <trkpt lat="48.41319" lon="-1.58239">
        <ele>44.5</ele>
        <time>2019-07-16T12:39:33Z</time>
      </trkpt>
      <trkpt lat="48.41322" lon="-1.58239">
        <ele>44.5</ele>
        <time>2019-07-16T12:39:34Z</time>
      </trkpt>
      <trkpt lat="48.41325" lon="-1.58238">
        <ele>44.4</ele>
        <time>2019-07-16T12:39:35Z</time>
      </trkpt>
      <trkpt lat="48.41329" lon="-1.58238">
        <ele>44.5</ele>
        <time>2019-07-16T12:39:36Z</time>
      </trkpt>
      <trkpt lat="48.41332" lon="-1.58238">
        <ele>44.3</ele>
        <time>2019-07-16T12:39:37Z</time>
      </trkpt>
      <trkpt lat="48.41335" lon="-1.58238">
        <ele>44.2</ele>
        <time>2019-07-16T12:39:38Z</time>
      </trkpt>
      <trkpt lat="48.41339" lon="-1.58238">
        <ele>44.2</ele>
        <time>2019-07-16T12:39:39Z</time>
      </trkpt>
      <trkpt lat="48.41342" lon="-1.58238">
        <ele>44.1</ele>
        <time>2019-07-16T12:39:40Z</time>
      </trkpt>
      <trkpt lat="48.41345" lon="-1.58238">
        <ele>44.1</ele>
        <time>2019-07-16T12:39:41Z</time>
      </trkpt>
      <trkpt lat="48.41349" lon="-1.58237">
        <ele>44.1</ele>
        <time>2019-07-16T12:39:42Z</time>
      </trkpt>
      <trkpt lat="48.41352" lon="-1.58237">
        <ele>44</ele>
        <time>2019-07-16T12:39:43Z</time>
      </trkpt>
      <trkpt lat="48.41355" lon="-1.58237">
        <ele>43.8</ele>
        <time>2019-07-16T12:39:44Z</time>
      </trkpt>
      <trkpt lat="48.41358" lon="-1.58237">
        <ele>43.7</ele>
        <time>2019-07-16T12:39:45Z</time>
      </trkpt>
      <trkpt lat="48.41362" lon="-1.58237">
        <ele>43.7</ele>
        <time>2019-07-16T12:39:46Z</time>
      </trkpt>
      <trkpt lat="48.41365" lon="-1.58237">
        <ele>43.7</ele>
        <time>2019-07-16T12:39:47Z</time>
      </trkpt>
      <trkpt lat="48.41368" lon="-1.58237">
        <ele>43.6</ele>
        <time>2019-07-16T12:39:48Z</time>
      </trkpt>
      <trkpt lat="48.41371" lon="-1.58237">
        <ele>43.5</ele>
        <time>2019-07-16T12:39:49Z</time>
      </trkpt>
      <trkpt lat="48.41374" lon="-1.58237">
        <ele>43.4</ele>
        <time>2019-07-16T12:39:50Z</time>
      </trkpt>
      <trkpt lat="48.41376" lon="-1.58237">
        <ele>43.1</ele>
        <time>2019-07-16T12:39:51Z</time>
      </trkpt>
      <trkpt lat="48.41378" lon="-1.58238">
        <ele>43.1</ele>
        <time>2019-07-16T12:39:52Z</time>
      </trkpt>
      <trkpt lat="48.4138" lon="-1.58239">
        <ele>42.8</ele>
        <time>2019-07-16T12:39:53Z</time>
      </trkpt>
      <trkpt lat="48.41381" lon="-1.5824">
        <ele>42.7</ele>
        <time>2019-07-16T12:39:54Z</time>
      </trkpt>
      <trkpt lat="48.41382" lon="-1.58242">
        <ele>42.9</ele>
        <time>2019-07-16T12:39:55Z</time>
      </trkpt>
      <trkpt lat="48.41387" lon="-1.58243">
        <ele>42.7</ele>
        <time>2019-07-16T12:40:57Z</time>
      </trkpt>
      <trkpt lat="48.41388" lon="-1.58241">
        <ele>42.9</ele>
        <time>2019-07-16T12:40:58Z</time>
      </trkpt>
      <trkpt lat="48.4139" lon="-1.5824">
        <ele>42.9</ele>
        <time>2019-07-16T12:40:59Z</time>
      </trkpt>
      <trkpt lat="48.41391" lon="-1.58239">
        <ele>43</ele>
        <time>2019-07-16T12:41:00Z</time>
      </trkpt>
      <trkpt lat="48.41393" lon="-1.58238">
        <ele>43.1</ele>
        <time>2019-07-16T12:41:01Z</time>
      </trkpt>
      <trkpt lat="48.41395" lon="-1.58238">
        <ele>43</ele>
        <time>2019-07-16T12:41:02Z</time>
      </trkpt>
      <trkpt lat="48.41398" lon="-1.58238">
        <ele>43.2</ele>
        <time>2019-07-16T12:41:03Z</time>
      </trkpt>
      <trkpt lat="48.414" lon="-1.58238">
        <ele>43.4</ele>
        <time>2019-07-16T12:41:04Z</time>
      </trkpt>
      <trkpt lat="48.41403" lon="-1.58237">
        <ele>43.7</ele>
        <time>2019-07-16T12:41:05Z</time>
      </trkpt>
      <trkpt lat="48.41406" lon="-1.58237">
        <ele>44.1</ele>
        <time>2019-07-16T12:41:06Z</time>
      </trkpt>
      <trkpt lat="48.41409" lon="-1.58237">
        <ele>44.3</ele>
        <time>2019-07-16T12:41:07Z</time>
      </trkpt>
      <trkpt lat="48.41411" lon="-1.58237">
        <ele>44.4</ele>
        <time>2019-07-16T12:41:08Z</time>
      </trkpt>
      <trkpt lat="48.41414" lon="-1.58237">
        <ele>44.4</ele>
        <time>2019-07-16T12:41:09Z</time>
      </trkpt>
      <trkpt lat="48.41417" lon="-1.58236">
        <ele>44.3</ele>
        <time>2019-07-16T12:41:10Z</time>
      </trkpt>
      <trkpt lat="48.4142" lon="-1.58236">
        <ele>44.4</ele>
        <time>2019-07-16T12:41:11Z</time>
      </trkpt>
      <trkpt lat="48.41423" lon="-1.58236">
        <ele>44.4</ele>
        <time>2019-07-16T12:41:12Z</time>
      </trkpt>
      <trkpt lat="48.41426" lon="-1.58236">
        <ele>44.2</ele>
        <time>2019-07-16T12:41:13Z</time>
      </trkpt>
      <trkpt lat="48.41428" lon="-1.58236">
        <ele>44.4</ele>
        <time>2019-07-16T12:41:14Z</time>
      </trkpt>
      <trkpt lat="48.41431" lon="-1.58236">
        <ele>44.3</ele>
        <time>2019-07-16T12:41:15Z</time>
      </trkpt>
      <trkpt lat="48.41435" lon="-1.58236">
        <ele>44.5</ele>
        <time>2019-07-16T12:41:16Z</time>
      </trkpt>
      <trkpt lat="48.41437" lon="-1.58236">
        <ele>44.7</ele>
        <time>2019-07-16T12:41:17Z</time>
      </trkpt>
      <trkpt lat="48.4144" lon="-1.58236">
        <ele>44.8</ele>
        <time>2019-07-16T12:41:18Z</time>
      </trkpt>
      <trkpt lat="48.41443" lon="-1.58237">
        <ele>44.8</ele>
        <time>2019-07-16T12:41:19Z</time>
      </trkpt>
      <trkpt lat="48.41446" lon="-1.58237">
        <ele>45</ele>
        <time>2019-07-16T12:41:20Z</time>
      </trkpt>
      <trkpt lat="48.41448" lon="-1.58237">
        <ele>45.1</ele>
        <time>2019-07-16T12:41:21Z</time>
      </trkpt>
      <trkpt lat="48.41451" lon="-1.58237">
        <ele>45.3</ele>
        <time>2019-07-16T12:41:22Z</time>
      </trkpt>
      <trkpt lat="48.41454" lon="-1.58237">
        <ele>45.3</ele>
        <time>2019-07-16T12:41:23Z</time>
      </trkpt>
      <trkpt lat="48.41457" lon="-1.58237">
        <ele>45.3</ele>
        <time>2019-07-16T12:41:24Z</time>
      </trkpt>
      <trkpt lat="48.4146" lon="-1.58237">
        <ele>45.2</ele>
        <time>2019-07-16T12:41:25Z</time>
      </trkpt>
      <trkpt lat="48.41464" lon="-1.58236">
        <ele>45.2</ele>
        <time>2019-07-16T12:41:26Z</time>
      </trkpt>
      <trkpt lat="48.41467" lon="-1.58236">
        <ele>45.3</ele>
        <time>2019-07-16T12:41:27Z</time>
      </trkpt>
      <trkpt lat="48.41469" lon="-1.58236">
        <ele>45.2</ele>
        <time>2019-07-16T12:41:28Z</time>
      </trkpt>
      <trkpt lat="48.41472" lon="-1.58236">
        <ele>45.4</ele>
        <time>2019-07-16T12:41:29Z</time>
      </trkpt>
      <trkpt lat="48.41475" lon="-1.58235">
        <ele>45.4</ele>
        <time>2019-07-16T12:41:30Z</time>
      </trkpt>
      <trkpt lat="48.41478" lon="-1.58235">
        <ele>45.4</ele>
        <time>2019-07-16T12:41:31Z</time>
      </trkpt>
      <trkpt lat="48.41482" lon="-1.58235">
        <ele>45.3</ele>
        <time>2019-07-16T12:41:32Z</time>
      </trkpt>
      <trkpt lat="48.41485" lon="-1.58235">
        <ele>45.2</ele>
        <time>2019-07-16T12:41:33Z</time>
      </trkpt>
      <trkpt lat="48.41488" lon="-1.58234">
        <ele>45</ele>
        <time>2019-07-16T12:41:34Z</time>
      </trkpt>
      <trkpt lat="48.41491" lon="-1.58233">
        <ele>45.2</ele>
        <time>2019-07-16T12:41:35Z</time>
      </trkpt>
      <trkpt lat="48.41494" lon="-1.58233">
        <ele>45.4</ele>
        <time>2019-07-16T12:41:36Z</time>
      </trkpt>
      <trkpt lat="48.41498" lon="-1.58232">
        <ele>45.9</ele>
        <time>2019-07-16T12:41:37Z</time>
      </trkpt>
      <trkpt lat="48.41501" lon="-1.58231">
        <ele>46</ele>
        <time>2019-07-16T12:41:38Z</time>
      </trkpt>
      <trkpt lat="48.41505" lon="-1.5823">
        <ele>46.3</ele>
        <time>2019-07-16T12:41:39Z</time>
      </trkpt>
      <trkpt lat="48.41507" lon="-1.58229">
        <ele>46.5</ele>
        <time>2019-07-16T12:41:40Z</time>
      </trkpt>
      <trkpt lat="48.4151" lon="-1.58228">
        <ele>46.8</ele>
        <time>2019-07-16T12:41:41Z</time>
      </trkpt>
      <trkpt lat="48.41513" lon="-1.58227">
        <ele>46.9</ele>
        <time>2019-07-16T12:41:42Z</time>
      </trkpt>
      <trkpt lat="48.41517" lon="-1.58226">
        <ele>47.1</ele>
        <time>2019-07-16T12:41:43Z</time>
      </trkpt>
      <trkpt lat="48.41519" lon="-1.58224">
        <ele>47.2</ele>
        <time>2019-07-16T12:41:44Z</time>
      </trkpt>
      <trkpt lat="48.41522" lon="-1.58223">
        <ele>47.4</ele>
        <time>2019-07-16T12:41:45Z</time>
      </trkpt>
      <trkpt lat="48.41525" lon="-1.58222">
        <ele>47.3</ele>
        <time>2019-07-16T12:41:46Z</time>
      </trkpt>
      <trkpt lat="48.41528" lon="-1.5822">
        <ele>47.3</ele>
        <time>2019-07-16T12:41:47Z</time>
      </trkpt>
      <trkpt lat="48.41531" lon="-1.58219">
        <ele>47.2</ele>
        <time>2019-07-16T12:41:48Z</time>
      </trkpt>
      <trkpt lat="48.41534" lon="-1.58217">
        <ele>47</ele>
        <time>2019-07-16T12:41:49Z</time>
      </trkpt>
      <trkpt lat="48.41538" lon="-1.58216">
        <ele>47</ele>
        <time>2019-07-16T12:41:50Z</time>
      </trkpt>
      <trkpt lat="48.4154" lon="-1.58214">
        <ele>47.3</ele>
        <time>2019-07-16T12:41:51Z</time>
      </trkpt>
      <trkpt lat="48.41543" lon="-1.58213">
        <ele>47.5</ele>
        <time>2019-07-16T12:41:52Z</time>
      </trkpt>
      <trkpt lat="48.41546" lon="-1.58211">
        <ele>47.5</ele>
        <time>2019-07-16T12:41:53Z</time>
      </trkpt>
      <trkpt lat="48.41549" lon="-1.5821">
        <ele>47.7</ele>
        <time>2019-07-16T12:41:54Z</time>
      </trkpt>
      <trkpt lat="48.41552" lon="-1.58208">
        <ele>47.8</ele>
        <time>2019-07-16T12:41:55Z</time>
      </trkpt>
      <trkpt lat="48.41555" lon="-1.58206">
        <ele>47.8</ele>
        <time>2019-07-16T12:41:56Z</time>
      </trkpt>
      <trkpt lat="48.41557" lon="-1.58204">
        <ele>47.9</ele>
        <time>2019-07-16T12:41:57Z</time>
      </trkpt>
      <trkpt lat="48.4156" lon="-1.58202">
        <ele>47.9</ele>
        <time>2019-07-16T12:41:58Z</time>
      </trkpt>
      <trkpt lat="48.41563" lon="-1.58199">
        <ele>47.8</ele>
        <time>2019-07-16T12:41:59Z</time>
      </trkpt>
      <trkpt lat="48.41566" lon="-1.58197">
        <ele>47.9</ele>
        <time>2019-07-16T12:42:00Z</time>
      </trkpt>
      <trkpt lat="48.41569" lon="-1.58194">
        <ele>48.1</ele>
        <time>2019-07-16T12:42:01Z</time>
      </trkpt>
      <trkpt lat="48.41572" lon="-1.58192">
        <ele>48.2</ele>
        <time>2019-07-16T12:42:02Z</time>
      </trkpt>
      <trkpt lat="48.41575" lon="-1.58189">
        <ele>48.3</ele>
        <time>2019-07-16T12:42:03Z</time>
      </trkpt>
      <trkpt lat="48.41578" lon="-1.58187">
        <ele>48.4</ele>
        <time>2019-07-16T12:42:04Z</time>
      </trkpt>
      <trkpt lat="48.41581" lon="-1.58184">
        <ele>48.8</ele>
        <time>2019-07-16T12:42:05Z</time>
      </trkpt>
      <trkpt lat="48.41583" lon="-1.58181">
        <ele>49.2</ele>
        <time>2019-07-16T12:42:06Z</time>
      </trkpt>
      <trkpt lat="48.41586" lon="-1.58178">
        <ele>49.6</ele>
        <time>2019-07-16T12:42:07Z</time>
      </trkpt>
      <trkpt lat="48.41588" lon="-1.58175">
        <ele>49.8</ele>
        <time>2019-07-16T12:42:08Z</time>
      </trkpt>
      <trkpt lat="48.41591" lon="-1.58172">
        <ele>50</ele>
        <time>2019-07-16T12:42:09Z</time>
      </trkpt>
      <trkpt lat="48.41593" lon="-1.58169">
        <ele>50.1</ele>
        <time>2019-07-16T12:42:10Z</time>
      </trkpt>
      <trkpt lat="48.41596" lon="-1.58165">
        <ele>49.8</ele>
        <time>2019-07-16T12:42:11Z</time>
      </trkpt>
      <trkpt lat="48.41598" lon="-1.58161">
        <ele>49.4</ele>
        <time>2019-07-16T12:42:12Z</time>
      </trkpt>
      <trkpt lat="48.416" lon="-1.58157">
        <ele>48.9</ele>
        <time>2019-07-16T12:42:13Z</time>
      </trkpt>
      <trkpt lat="48.41603" lon="-1.58153">
        <ele>48.2</ele>
        <time>2019-07-16T12:42:14Z</time>
      </trkpt>
      <trkpt lat="48.41605" lon="-1.58149">
        <ele>47.7</ele>
        <time>2019-07-16T12:42:15Z</time>
      </trkpt>
      <trkpt lat="48.41607" lon="-1.58145">
        <ele>47.2</ele>
        <time>2019-07-16T12:42:16Z</time>
      </trkpt>
      <trkpt lat="48.4161" lon="-1.58141">
        <ele>46.9</ele>
        <time>2019-07-16T12:42:17Z</time>
      </trkpt>
      <trkpt lat="48.41612" lon="-1.58137">
        <ele>46.6</ele>
        <time>2019-07-16T12:42:18Z</time>
      </trkpt>
      <trkpt lat="48.41614" lon="-1.58133">
        <ele>46.8</ele>
        <time>2019-07-16T12:42:19Z</time>
      </trkpt>
      <trkpt lat="48.41616" lon="-1.58129">
        <ele>46.5</ele>
        <time>2019-07-16T12:42:20Z</time>
      </trkpt>
      <trkpt lat="48.41618" lon="-1.58125">
        <ele>46.2</ele>
        <time>2019-07-16T12:42:21Z</time>
      </trkpt>
      <trkpt lat="48.41621" lon="-1.58122">
        <ele>45.6</ele>
        <time>2019-07-16T12:42:22Z</time>
      </trkpt>
      <trkpt lat="48.41623" lon="-1.58118">
        <ele>45.3</ele>
        <time>2019-07-16T12:42:23Z</time>
      </trkpt>
      <trkpt lat="48.41625" lon="-1.58114">
        <ele>45.2</ele>
        <time>2019-07-16T12:42:24Z</time>
      </trkpt>
      <trkpt lat="48.41627" lon="-1.58111">
        <ele>45.1</ele>
        <time>2019-07-16T12:42:25Z</time>
      </trkpt>
      <trkpt lat="48.41629" lon="-1.58107">
        <ele>45.1</ele>
        <time>2019-07-16T12:42:26Z</time>
      </trkpt>
      <trkpt lat="48.41631" lon="-1.58104">
        <ele>45.5</ele>
        <time>2019-07-16T12:42:27Z</time>
      </trkpt>
      <trkpt lat="48.41634" lon="-1.58101">
        <ele>45.6</ele>
        <time>2019-07-16T12:42:28Z</time>
      </trkpt>
      <trkpt lat="48.41636" lon="-1.58097">
        <ele>46.2</ele>
        <time>2019-07-16T12:42:29Z</time>
      </trkpt>
      <trkpt lat="48.41638" lon="-1.58094">
        <ele>46.4</ele>
        <time>2019-07-16T12:42:30Z</time>
      </trkpt>
      <trkpt lat="48.41641" lon="-1.5809">
        <ele>46.8</ele>
        <time>2019-07-16T12:42:31Z</time>
      </trkpt>
      <trkpt lat="48.41643" lon="-1.58087">
        <ele>47</ele>
        <time>2019-07-16T12:42:32Z</time>
      </trkpt>
      <trkpt lat="48.41645" lon="-1.58084">
        <ele>47.3</ele>
        <time>2019-07-16T12:42:33Z</time>
      </trkpt>
      <trkpt lat="48.41647" lon="-1.58081">
        <ele>47.7</ele>
        <time>2019-07-16T12:42:34Z</time>
      </trkpt>
      <trkpt lat="48.4165" lon="-1.58077">
        <ele>47.6</ele>
        <time>2019-07-16T12:42:35Z</time>
      </trkpt>
      <trkpt lat="48.41653" lon="-1.58074">
        <ele>47.5</ele>
        <time>2019-07-16T12:42:36Z</time>
      </trkpt>
      <trkpt lat="48.41655" lon="-1.58071">
        <ele>47.5</ele>
        <time>2019-07-16T12:42:37Z</time>
      </trkpt>
      <trkpt lat="48.41658" lon="-1.58069">
        <ele>47.7</ele>
        <time>2019-07-16T12:42:38Z</time>
      </trkpt>
      <trkpt lat="48.41661" lon="-1.58067">
        <ele>47.6</ele>
        <time>2019-07-16T12:42:39Z</time>
      </trkpt>
      <trkpt lat="48.41663" lon="-1.58065">
        <ele>47.5</ele>
        <time>2019-07-16T12:42:40Z</time>
      </trkpt>
      <trkpt lat="48.41666" lon="-1.58063">
        <ele>47.9</ele>
        <time>2019-07-16T12:42:41Z</time>
      </trkpt>
      <trkpt lat="48.41669" lon="-1.5806">
        <ele>48</ele>
        <time>2019-07-16T12:42:42Z</time>
      </trkpt>
      <trkpt lat="48.41671" lon="-1.58058">
        <ele>48.1</ele>
        <time>2019-07-16T12:42:43Z</time>
      </trkpt>
      <trkpt lat="48.41674" lon="-1.58056">
        <ele>48.6</ele>
        <time>2019-07-16T12:42:44Z</time>
      </trkpt>
      <trkpt lat="48.41676" lon="-1.58054">
        <ele>48.8</ele>
        <time>2019-07-16T12:42:45Z</time>
      </trkpt>
      <trkpt lat="48.41679" lon="-1.58053">
        <ele>49</ele>
        <time>2019-07-16T12:42:46Z</time>
      </trkpt>
      <trkpt lat="48.41682" lon="-1.58051">
        <ele>49.2</ele>
        <time>2019-07-16T12:42:47Z</time>
      </trkpt>
      <trkpt lat="48.41684" lon="-1.5805">
        <ele>49.5</ele>
        <time>2019-07-16T12:42:48Z</time>
      </trkpt>
      <trkpt lat="48.41687" lon="-1.58048">
        <ele>49.7</ele>
        <time>2019-07-16T12:42:49Z</time>
      </trkpt>
      <trkpt lat="48.4169" lon="-1.58047">
        <ele>49.8</ele>
        <time>2019-07-16T12:42:50Z</time>
      </trkpt>
      <trkpt lat="48.41692" lon="-1.58045">
        <ele>49.9</ele>
        <time>2019-07-16T12:42:51Z</time>
      </trkpt>
      <trkpt lat="48.41695" lon="-1.58044">
        <ele>50.2</ele>
        <time>2019-07-16T12:42:52Z</time>
      </trkpt>
      <trkpt lat="48.41697" lon="-1.58043">
        <ele>50.3</ele>
        <time>2019-07-16T12:42:53Z</time>
      </trkpt>
      <trkpt lat="48.417" lon="-1.58041">
        <ele>50.4</ele>
        <time>2019-07-16T12:42:54Z</time>
      </trkpt>
      <trkpt lat="48.41703" lon="-1.58039">
        <ele>50.4</ele>
        <time>2019-07-16T12:42:55Z</time>
      </trkpt>
      <trkpt lat="48.41706" lon="-1.58038">
        <ele>50.5</ele>
        <time>2019-07-16T12:42:56Z</time>
      </trkpt>
      <trkpt lat="48.41708" lon="-1.58036">
        <ele>50.8</ele>
        <time>2019-07-16T12:42:57Z</time>
      </trkpt>
      <trkpt lat="48.41711" lon="-1.58034">
        <ele>50.8</ele>
        <time>2019-07-16T12:42:58Z</time>
      </trkpt>
      <trkpt lat="48.41715" lon="-1.58033">
        <ele>50.7</ele>
        <time>2019-07-16T12:42:59Z</time>
      </trkpt>
      <trkpt lat="48.41717" lon="-1.58032">
        <ele>50.7</ele>
        <time>2019-07-16T12:43:00Z</time>
      </trkpt>
      <trkpt lat="48.4172" lon="-1.5803">
        <ele>51.1</ele>
        <time>2019-07-16T12:43:01Z</time>
      </trkpt>
      <trkpt lat="48.41723" lon="-1.58029">
        <ele>51.1</ele>
        <time>2019-07-16T12:43:02Z</time>
      </trkpt>
      <trkpt lat="48.41726" lon="-1.58027">
        <ele>51</ele>
        <time>2019-07-16T12:43:03Z</time>
      </trkpt>
      <trkpt lat="48.41729" lon="-1.58026">
        <ele>51</ele>
        <time>2019-07-16T12:43:04Z</time>
      </trkpt>
      <trkpt lat="48.41731" lon="-1.58025">
        <ele>51.2</ele>
        <time>2019-07-16T12:43:05Z</time>
      </trkpt>
      <trkpt lat="48.41734" lon="-1.58024">
        <ele>51.5</ele>
        <time>2019-07-16T12:43:06Z</time>
      </trkpt>
      <trkpt lat="48.41737" lon="-1.58023">
        <ele>52</ele>
        <time>2019-07-16T12:43:07Z</time>
      </trkpt>
      <trkpt lat="48.41739" lon="-1.58022">
        <ele>52.5</ele>
        <time>2019-07-16T12:43:08Z</time>
      </trkpt>
      <trkpt lat="48.41742" lon="-1.5802">
        <ele>53.1</ele>
        <time>2019-07-16T12:43:09Z</time>
      </trkpt>
      <trkpt lat="48.41744" lon="-1.58019">
        <ele>53.6</ele>
        <time>2019-07-16T12:43:10Z</time>
      </trkpt>
      <trkpt lat="48.41747" lon="-1.58017">
        <ele>53.8</ele>
        <time>2019-07-16T12:43:11Z</time>
      </trkpt>
      <trkpt lat="48.4175" lon="-1.58017">
        <ele>53.8</ele>
        <time>2019-07-16T12:43:12Z</time>
      </trkpt>
      <trkpt lat="48.41753" lon="-1.58017">
        <ele>54.2</ele>
        <time>2019-07-16T12:43:13Z</time>
      </trkpt>
      <trkpt lat="48.41755" lon="-1.58015">
        <ele>54.7</ele>
        <time>2019-07-16T12:43:14Z</time>
      </trkpt>
      <trkpt lat="48.41758" lon="-1.58014">
        <ele>54.9</ele>
        <time>2019-07-16T12:43:15Z</time>
      </trkpt>
      <trkpt lat="48.41761" lon="-1.58012">
        <ele>55.1</ele>
        <time>2019-07-16T12:43:16Z</time>
      </trkpt>
      <trkpt lat="48.41765" lon="-1.58011">
        <ele>55.3</ele>
        <time>2019-07-16T12:43:17Z</time>
      </trkpt>
      <trkpt lat="48.41767" lon="-1.58011">
        <ele>55.5</ele>
        <time>2019-07-16T12:43:18Z</time>
      </trkpt>
      <trkpt lat="48.4177" lon="-1.5801">
        <ele>56.1</ele>
        <time>2019-07-16T12:43:19Z</time>
      </trkpt>
      <trkpt lat="48.41773" lon="-1.58009">
        <ele>56.2</ele>
        <time>2019-07-16T12:43:20Z</time>
      </trkpt>
      <trkpt lat="48.41776" lon="-1.58008">
        <ele>55.8</ele>
        <time>2019-07-16T12:43:21Z</time>
      </trkpt>
      <trkpt lat="48.41778" lon="-1.58008">
        <ele>55.4</ele>
        <time>2019-07-16T12:43:22Z</time>
      </trkpt>
      <trkpt lat="48.41781" lon="-1.58007">
        <ele>55</ele>
        <time>2019-07-16T12:43:23Z</time>
      </trkpt>
      <trkpt lat="48.41784" lon="-1.58005">
        <ele>54.8</ele>
        <time>2019-07-16T12:43:24Z</time>
      </trkpt>
      <trkpt lat="48.41787" lon="-1.58004">
        <ele>54.5</ele>
        <time>2019-07-16T12:43:25Z</time>
      </trkpt>
      <trkpt lat="48.4179" lon="-1.58004">
        <ele>54.5</ele>
        <time>2019-07-16T12:43:26Z</time>
      </trkpt>
      <trkpt lat="48.41794" lon="-1.58004">
        <ele>54.7</ele>
        <time>2019-07-16T12:43:27Z</time>
      </trkpt>
      <trkpt lat="48.41797" lon="-1.58003">
        <ele>54.8</ele>
        <time>2019-07-16T12:43:28Z</time>
      </trkpt>
      <trkpt lat="48.418" lon="-1.58003">
        <ele>54.9</ele>
        <time>2019-07-16T12:43:29Z</time>
      </trkpt>
      <trkpt lat="48.41802" lon="-1.58003">
        <ele>55.1</ele>
        <time>2019-07-16T12:43:30Z</time>
      </trkpt>
      <trkpt lat="48.41805" lon="-1.58002">
        <ele>55.2</ele>
        <time>2019-07-16T12:43:31Z</time>
      </trkpt>
      <trkpt lat="48.41808" lon="-1.58002">
        <ele>55.4</ele>
        <time>2019-07-16T12:43:32Z</time>
      </trkpt>
      <trkpt lat="48.41811" lon="-1.58001">
        <ele>55.6</ele>
        <time>2019-07-16T12:43:33Z</time>
      </trkpt>
      <trkpt lat="48.41814" lon="-1.58001">
        <ele>55.6</ele>
        <time>2019-07-16T12:43:34Z</time>
      </trkpt>
      <trkpt lat="48.41817" lon="-1.58001">
        <ele>55.8</ele>
        <time>2019-07-16T12:43:35Z</time>
      </trkpt>
      <trkpt lat="48.41819" lon="-1.58">
        <ele>56</ele>
        <time>2019-07-16T12:43:36Z</time>
      </trkpt>
      <trkpt lat="48.41822" lon="-1.58">
        <ele>56.1</ele>
        <time>2019-07-16T12:43:37Z</time>
      </trkpt>
      <trkpt lat="48.41825" lon="-1.58">
        <ele>56.3</ele>
        <time>2019-07-16T12:43:38Z</time>
      </trkpt>
      <trkpt lat="48.41828" lon="-1.57999">
        <ele>56.7</ele>
        <time>2019-07-16T12:43:39Z</time>
      </trkpt>
      <trkpt lat="48.4183" lon="-1.57998">
        <ele>56.9</ele>
        <time>2019-07-16T12:43:40Z</time>
      </trkpt>
      <trkpt lat="48.41833" lon="-1.57998">
        <ele>57</ele>
        <time>2019-07-16T12:43:41Z</time>
      </trkpt>
      <trkpt lat="48.41836" lon="-1.57997">
        <ele>57.1</ele>
        <time>2019-07-16T12:43:42Z</time>
      </trkpt>
      <trkpt lat="48.41839" lon="-1.57997">
        <ele>57.3</ele>
        <time>2019-07-16T12:43:43Z</time>
      </trkpt>
      <trkpt lat="48.41841" lon="-1.57996">
        <ele>57.5</ele>
        <time>2019-07-16T12:43:44Z</time>
      </trkpt>
      <trkpt lat="48.41844" lon="-1.57996">
        <ele>57.4</ele>
        <time>2019-07-16T12:43:45Z</time>
      </trkpt>
      <trkpt lat="48.41847" lon="-1.57995">
        <ele>57</ele>
        <time>2019-07-16T12:43:46Z</time>
      </trkpt>
      <trkpt lat="48.4185" lon="-1.57995">
        <ele>56.8</ele>
        <time>2019-07-16T12:43:47Z</time>
      </trkpt>
      <trkpt lat="48.41852" lon="-1.57994">
        <ele>56.9</ele>
        <time>2019-07-16T12:43:48Z</time>
      </trkpt>
      <trkpt lat="48.41855" lon="-1.57993">
        <ele>56.7</ele>
        <time>2019-07-16T12:43:49Z</time>
      </trkpt>
      <trkpt lat="48.41857" lon="-1.57992">
        <ele>56.4</ele>
        <time>2019-07-16T12:43:50Z</time>
      </trkpt>
      <trkpt lat="48.4186" lon="-1.57991">
        <ele>56.4</ele>
        <time>2019-07-16T12:43:51Z</time>
      </trkpt>
      <trkpt lat="48.41863" lon="-1.5799">
        <ele>56.2</ele>
        <time>2019-07-16T12:43:52Z</time>
      </trkpt>
      <trkpt lat="48.41865" lon="-1.57989">
        <ele>56.4</ele>
        <time>2019-07-16T12:43:53Z</time>
      </trkpt>
      <trkpt lat="48.41867" lon="-1.57988">
        <ele>56.7</ele>
        <time>2019-07-16T12:43:54Z</time>
      </trkpt>
      <trkpt lat="48.41869" lon="-1.57988">
        <ele>57.1</ele>
        <time>2019-07-16T12:43:55Z</time>
      </trkpt>
      <trkpt lat="48.41872" lon="-1.57987">
        <ele>57.5</ele>
        <time>2019-07-16T12:43:56Z</time>
      </trkpt>
      <trkpt lat="48.41874" lon="-1.57986">
        <ele>57.8</ele>
        <time>2019-07-16T12:43:57Z</time>
      </trkpt>
      <trkpt lat="48.41877" lon="-1.57986">
        <ele>58.2</ele>
        <time>2019-07-16T12:43:58Z</time>
      </trkpt>
      <trkpt lat="48.41879" lon="-1.57985">
        <ele>59</ele>
        <time>2019-07-16T12:43:59Z</time>
      </trkpt>
      <trkpt lat="48.4188" lon="-1.57984">
        <ele>59.7</ele>
        <time>2019-07-16T12:44:00Z</time>
      </trkpt>
      <trkpt lat="48.41883" lon="-1.57983">
        <ele>60</ele>
        <time>2019-07-16T12:44:01Z</time>
      </trkpt>
      <trkpt lat="48.41885" lon="-1.57981">
        <ele>60.2</ele>
        <time>2019-07-16T12:44:02Z</time>
      </trkpt>
      <trkpt lat="48.41888" lon="-1.57979">
        <ele>60.3</ele>
        <time>2019-07-16T12:44:03Z</time>
      </trkpt>
      <trkpt lat="48.4189" lon="-1.57977">
        <ele>60.7</ele>
        <time>2019-07-16T12:44:04Z</time>
      </trkpt>
      <trkpt lat="48.41892" lon="-1.57976">
        <ele>61</ele>
        <time>2019-07-16T12:44:05Z</time>
      </trkpt>
      <trkpt lat="48.41894" lon="-1.57974">
        <ele>61.2</ele>
        <time>2019-07-16T12:44:06Z</time>
      </trkpt>
      <trkpt lat="48.41897" lon="-1.57973">
        <ele>61.9</ele>
        <time>2019-07-16T12:44:07Z</time>
      </trkpt>
      <trkpt lat="48.419" lon="-1.57971">
        <ele>62</ele>
        <time>2019-07-16T12:44:08Z</time>
      </trkpt>
      <trkpt lat="48.41902" lon="-1.57969">
        <ele>62.7</ele>
        <time>2019-07-16T12:44:09Z</time>
      </trkpt>
      <trkpt lat="48.41904" lon="-1.57968">
        <ele>63</ele>
        <time>2019-07-16T12:44:10Z</time>
      </trkpt>
      <trkpt lat="48.41907" lon="-1.57967">
        <ele>63.2</ele>
        <time>2019-07-16T12:44:11Z</time>
      </trkpt>
      <trkpt lat="48.41909" lon="-1.57964">
        <ele>63.6</ele>
        <time>2019-07-16T12:44:12Z</time>
      </trkpt>
      <trkpt lat="48.41911" lon="-1.57963">
        <ele>63.5</ele>
        <time>2019-07-16T12:44:13Z</time>
      </trkpt>
      <trkpt lat="48.41914" lon="-1.57962">
        <ele>63.4</ele>
        <time>2019-07-16T12:44:14Z</time>
      </trkpt>
      <trkpt lat="48.41916" lon="-1.5796">
        <ele>63.7</ele>
        <time>2019-07-16T12:44:15Z</time>
      </trkpt>
      <trkpt lat="48.41918" lon="-1.57958">
        <ele>63.9</ele>
        <time>2019-07-16T12:44:16Z</time>
      </trkpt>
      <trkpt lat="48.41921" lon="-1.57956">
        <ele>63.4</ele>
        <time>2019-07-16T12:44:17Z</time>
      </trkpt>
      <trkpt lat="48.41922" lon="-1.57953">
        <ele>63.5</ele>
        <time>2019-07-16T12:44:18Z</time>
      </trkpt>
      <trkpt lat="48.41925" lon="-1.57952">
        <ele>63.2</ele>
        <time>2019-07-16T12:44:19Z</time>
      </trkpt>
      <trkpt lat="48.41927" lon="-1.5795">
        <ele>63.2</ele>
        <time>2019-07-16T12:44:20Z</time>
      </trkpt>
      <trkpt lat="48.41929" lon="-1.57948">
        <ele>63.5</ele>
        <time>2019-07-16T12:44:21Z</time>
      </trkpt>
      <trkpt lat="48.4193" lon="-1.57946">
        <ele>63.6</ele>
        <time>2019-07-16T12:44:22Z</time>
      </trkpt>
      <trkpt lat="48.41932" lon="-1.57944">
        <ele>63.8</ele>
        <time>2019-07-16T12:44:23Z</time>
      </trkpt>
      <trkpt lat="48.41934" lon="-1.57942">
        <ele>63.5</ele>
        <time>2019-07-16T12:44:24Z</time>
      </trkpt>
      <trkpt lat="48.41936" lon="-1.57941">
        <ele>63.8</ele>
        <time>2019-07-16T12:44:25Z</time>
      </trkpt>
      <trkpt lat="48.41938" lon="-1.5794">
        <ele>64.1</ele>
        <time>2019-07-16T12:44:26Z</time>
      </trkpt>
      <trkpt lat="48.4194" lon="-1.57938">
        <ele>64.4</ele>
        <time>2019-07-16T12:44:27Z</time>
      </trkpt>
      <trkpt lat="48.41942" lon="-1.57936">
        <ele>64.4</ele>
        <time>2019-07-16T12:44:28Z</time>
      </trkpt>
      <trkpt lat="48.41943" lon="-1.57934">
        <ele>64.5</ele>
        <time>2019-07-16T12:44:29Z</time>
      </trkpt>
      <trkpt lat="48.41946" lon="-1.57932">
        <ele>64.9</ele>
        <time>2019-07-16T12:44:30Z</time>
      </trkpt>
      <trkpt lat="48.41948" lon="-1.5793">
        <ele>65</ele>
        <time>2019-07-16T12:44:31Z</time>
      </trkpt>
      <trkpt lat="48.4195" lon="-1.57928">
        <ele>65</ele>
        <time>2019-07-16T12:44:32Z</time>
      </trkpt>
      <trkpt lat="48.41952" lon="-1.57926">
        <ele>65</ele>
        <time>2019-07-16T12:44:33Z</time>
      </trkpt>
      <trkpt lat="48.41954" lon="-1.57923">
        <ele>65.1</ele>
        <time>2019-07-16T12:44:34Z</time>
      </trkpt>
      <trkpt lat="48.41956" lon="-1.57922">
        <ele>65.6</ele>
        <time>2019-07-16T12:44:35Z</time>
      </trkpt>
      <trkpt lat="48.41958" lon="-1.57919">
        <ele>66</ele>
        <time>2019-07-16T12:44:36Z</time>
      </trkpt>
      <trkpt lat="48.4196" lon="-1.57918">
        <ele>66.6</ele>
        <time>2019-07-16T12:44:37Z</time>
      </trkpt>
      <trkpt lat="48.41962" lon="-1.57916">
        <ele>67.2</ele>
        <time>2019-07-16T12:44:38Z</time>
      </trkpt>
      <trkpt lat="48.41964" lon="-1.57914">
        <ele>67.7</ele>
        <time>2019-07-16T12:44:39Z</time>
      </trkpt>
      <trkpt lat="48.41966" lon="-1.57912">
        <ele>68.3</ele>
        <time>2019-07-16T12:44:40Z</time>
      </trkpt>
      <trkpt lat="48.41967" lon="-1.57911">
        <ele>68.8</ele>
        <time>2019-07-16T12:44:41Z</time>
      </trkpt>
      <trkpt lat="48.41969" lon="-1.57909">
        <ele>69.2</ele>
        <time>2019-07-16T12:44:42Z</time>
      </trkpt>
      <trkpt lat="48.41971" lon="-1.57907">
        <ele>69.8</ele>
        <time>2019-07-16T12:44:43Z</time>
      </trkpt>
      <trkpt lat="48.41973" lon="-1.57904">
        <ele>70.2</ele>
        <time>2019-07-16T12:44:44Z</time>
      </trkpt>
      <trkpt lat="48.41975" lon="-1.57902">
        <ele>70.5</ele>
        <time>2019-07-16T12:44:45Z</time>
      </trkpt>
      <trkpt lat="48.41976" lon="-1.579">
        <ele>70.6</ele>
        <time>2019-07-16T12:44:46Z</time>
      </trkpt>
      <trkpt lat="48.41979" lon="-1.57898">
        <ele>70.8</ele>
        <time>2019-07-16T12:44:47Z</time>
      </trkpt>
      <trkpt lat="48.4198" lon="-1.57896">
        <ele>71.5</ele>
        <time>2019-07-16T12:44:48Z</time>
      </trkpt>
      <trkpt lat="48.41982" lon="-1.57895">
        <ele>71.8</ele>
        <time>2019-07-16T12:44:49Z</time>
      </trkpt>
      <trkpt lat="48.41983" lon="-1.57893">
        <ele>72.2</ele>
        <time>2019-07-16T12:44:50Z</time>
      </trkpt>
      <trkpt lat="48.41985" lon="-1.57892">
        <ele>73</ele>
        <time>2019-07-16T12:44:51Z</time>
      </trkpt>
      <trkpt lat="48.41987" lon="-1.57891">
        <ele>73.7</ele>
        <time>2019-07-16T12:44:52Z</time>
      </trkpt>
      <trkpt lat="48.41989" lon="-1.5789">
        <ele>74</ele>
        <time>2019-07-16T12:44:53Z</time>
      </trkpt>
      <trkpt lat="48.4199" lon="-1.57889">
        <ele>74.6</ele>
        <time>2019-07-16T12:44:54Z</time>
      </trkpt>
      <trkpt lat="48.41992" lon="-1.57887">
        <ele>75.2</ele>
        <time>2019-07-16T12:44:55Z</time>
      </trkpt>
      <trkpt lat="48.41994" lon="-1.57885">
        <ele>76.2</ele>
        <time>2019-07-16T12:44:56Z</time>
      </trkpt>
      <trkpt lat="48.41996" lon="-1.57883">
        <ele>76.8</ele>
        <time>2019-07-16T12:44:57Z</time>
      </trkpt>
      <trkpt lat="48.41997" lon="-1.57881">
        <ele>77.8</ele>
        <time>2019-07-16T12:44:58Z</time>
      </trkpt>
      <trkpt lat="48.41999" lon="-1.57879">
        <ele>78.3</ele>
        <time>2019-07-16T12:44:59Z</time>
      </trkpt>
      <trkpt lat="48.42001" lon="-1.57877">
        <ele>78.5</ele>
        <time>2019-07-16T12:45:00Z</time>
      </trkpt>
      <trkpt lat="48.42003" lon="-1.57874">
        <ele>78.5</ele>
        <time>2019-07-16T12:45:01Z</time>
      </trkpt>
      <trkpt lat="48.42005" lon="-1.57872">
        <ele>78.8</ele>
        <time>2019-07-16T12:45:02Z</time>
      </trkpt>
      <trkpt lat="48.42007" lon="-1.5787">
        <ele>79.5</ele>
        <time>2019-07-16T12:45:03Z</time>
      </trkpt>
      <trkpt lat="48.42009" lon="-1.57868">
        <ele>80</ele>
        <time>2019-07-16T12:45:04Z</time>
      </trkpt>
      <trkpt lat="48.42011" lon="-1.57865">
        <ele>80.5</ele>
        <time>2019-07-16T12:45:05Z</time>
      </trkpt>
      <trkpt lat="48.42012" lon="-1.57863">
        <ele>80.9</ele>
        <time>2019-07-16T12:45:06Z</time>
      </trkpt>
      <trkpt lat="48.42014" lon="-1.57861">
        <ele>81.7</ele>
        <time>2019-07-16T12:45:07Z</time>
      </trkpt>
      <trkpt lat="48.42017" lon="-1.57859">
        <ele>82.4</ele>
        <time>2019-07-16T12:45:08Z</time>
      </trkpt>
      <trkpt lat="48.42019" lon="-1.57856">
        <ele>83</ele>
        <time>2019-07-16T12:45:09Z</time>
      </trkpt>
      <trkpt lat="48.4202" lon="-1.57855">
        <ele>83.3</ele>
        <time>2019-07-16T12:45:10Z</time>
      </trkpt>
      <trkpt lat="48.42022" lon="-1.57853">
        <ele>83.8</ele>
        <time>2019-07-16T12:45:11Z</time>
      </trkpt>
      <trkpt lat="48.42024" lon="-1.5785">
        <ele>83.9</ele>
        <time>2019-07-16T12:45:12Z</time>
      </trkpt>
      <trkpt lat="48.42026" lon="-1.57848">
        <ele>83.8</ele>
        <time>2019-07-16T12:45:13Z</time>
      </trkpt>
      <trkpt lat="48.42027" lon="-1.57845">
        <ele>83.5</ele>
        <time>2019-07-16T12:45:14Z</time>
      </trkpt>
      <trkpt lat="48.4203" lon="-1.57843">
        <ele>82.5</ele>
        <time>2019-07-16T12:45:15Z</time>
      </trkpt>
      <trkpt lat="48.42032" lon="-1.5784">
        <ele>82.7</ele>
        <time>2019-07-16T12:45:16Z</time>
      </trkpt>
      <trkpt lat="48.42033" lon="-1.57838">
        <ele>82.5</ele>
        <time>2019-07-16T12:45:17Z</time>
      </trkpt>
      <trkpt lat="48.42035" lon="-1.57836">
        <ele>82.8</ele>
        <time>2019-07-16T12:45:18Z</time>
      </trkpt>
      <trkpt lat="48.42037" lon="-1.57834">
        <ele>82.6</ele>
        <time>2019-07-16T12:45:19Z</time>
      </trkpt>
      <trkpt lat="48.42038" lon="-1.57831">
        <ele>82.2</ele>
        <time>2019-07-16T12:45:20Z</time>
      </trkpt>
      <trkpt lat="48.4204" lon="-1.57828">
        <ele>82</ele>
        <time>2019-07-16T12:45:21Z</time>
      </trkpt>
      <trkpt lat="48.42041" lon="-1.57826">
        <ele>81.9</ele>
        <time>2019-07-16T12:45:22Z</time>
      </trkpt>
      <trkpt lat="48.42044" lon="-1.57823">
        <ele>81.6</ele>
        <time>2019-07-16T12:45:23Z</time>
      </trkpt>
      <trkpt lat="48.42046" lon="-1.5782">
        <ele>81.4</ele>
        <time>2019-07-16T12:45:24Z</time>
      </trkpt>
      <trkpt lat="48.42047" lon="-1.57817">
        <ele>81.4</ele>
        <time>2019-07-16T12:45:25Z</time>
      </trkpt>
      <trkpt lat="48.42049" lon="-1.57814">
        <ele>81.2</ele>
        <time>2019-07-16T12:45:26Z</time>
      </trkpt>
      <trkpt lat="48.42051" lon="-1.57811">
        <ele>81.1</ele>
        <time>2019-07-16T12:45:27Z</time>
      </trkpt>
      <trkpt lat="48.42053" lon="-1.57808">
        <ele>80.5</ele>
        <time>2019-07-16T12:45:28Z</time>
      </trkpt>
      <trkpt lat="48.42054" lon="-1.57804">
        <ele>80.4</ele>
        <time>2019-07-16T12:45:29Z</time>
      </trkpt>
      <trkpt lat="48.42056" lon="-1.57802">
        <ele>80.8</ele>
        <time>2019-07-16T12:45:30Z</time>
      </trkpt>
      <trkpt lat="48.42057" lon="-1.57799">
        <ele>81.4</ele>
        <time>2019-07-16T12:45:31Z</time>
      </trkpt>
      <trkpt lat="48.42059" lon="-1.57796">
        <ele>82</ele>
        <time>2019-07-16T12:45:32Z</time>
      </trkpt>
      <trkpt lat="48.42061" lon="-1.57792">
        <ele>81.9</ele>
        <time>2019-07-16T12:45:33Z</time>
      </trkpt>
      <trkpt lat="48.42062" lon="-1.57789">
        <ele>81.7</ele>
        <time>2019-07-16T12:45:34Z</time>
      </trkpt>
      <trkpt lat="48.42064" lon="-1.57786">
        <ele>81.4</ele>
        <time>2019-07-16T12:45:35Z</time>
      </trkpt>
      <trkpt lat="48.42065" lon="-1.57783">
        <ele>81.5</ele>
        <time>2019-07-16T12:45:36Z</time>
      </trkpt>
      <trkpt lat="48.42067" lon="-1.57781">
        <ele>81.7</ele>
        <time>2019-07-16T12:45:37Z</time>
      </trkpt>
      <trkpt lat="48.42068" lon="-1.57778">
        <ele>82</ele>
        <time>2019-07-16T12:45:38Z</time>
      </trkpt>
      <trkpt lat="48.4207" lon="-1.57775">
        <ele>82.4</ele>
        <time>2019-07-16T12:45:39Z</time>
      </trkpt>
      <trkpt lat="48.42071" lon="-1.57772">
        <ele>82.4</ele>
        <time>2019-07-16T12:45:40Z</time>
      </trkpt>
      <trkpt lat="48.42073" lon="-1.5777">
        <ele>82.8</ele>
        <time>2019-07-16T12:45:41Z</time>
      </trkpt>
      <trkpt lat="48.42075" lon="-1.57767">
        <ele>83.1</ele>
        <time>2019-07-16T12:45:42Z</time>
      </trkpt>
      <trkpt lat="48.42076" lon="-1.57765">
        <ele>83.2</ele>
        <time>2019-07-16T12:45:43Z</time>
      </trkpt>
      <trkpt lat="48.42078" lon="-1.57762">
        <ele>83.2</ele>
        <time>2019-07-16T12:45:44Z</time>
      </trkpt>
      <trkpt lat="48.42079" lon="-1.57759">
        <ele>83.2</ele>
        <time>2019-07-16T12:45:45Z</time>
      </trkpt>
      <trkpt lat="48.42081" lon="-1.57757">
        <ele>82.9</ele>
        <time>2019-07-16T12:45:46Z</time>
      </trkpt>
      <trkpt lat="48.42083" lon="-1.57755">
        <ele>82.8</ele>
        <time>2019-07-16T12:45:47Z</time>
      </trkpt>
      <trkpt lat="48.42085" lon="-1.57752">
        <ele>82.6</ele>
        <time>2019-07-16T12:45:48Z</time>
      </trkpt>
      <trkpt lat="48.42086" lon="-1.57749">
        <ele>82.3</ele>
        <time>2019-07-16T12:45:49Z</time>
      </trkpt>
      <trkpt lat="48.42088" lon="-1.57747">
        <ele>81.7</ele>
        <time>2019-07-16T12:45:50Z</time>
      </trkpt>
      <trkpt lat="48.4209" lon="-1.57744">
        <ele>81.3</ele>
        <time>2019-07-16T12:45:51Z</time>
      </trkpt>
      <trkpt lat="48.42092" lon="-1.57741">
        <ele>80.6</ele>
        <time>2019-07-16T12:45:52Z</time>
      </trkpt>
      <trkpt lat="48.42094" lon="-1.57739">
        <ele>80.1</ele>
        <time>2019-07-16T12:45:53Z</time>
      </trkpt>
      <trkpt lat="48.42095" lon="-1.57736">
        <ele>79.9</ele>
        <time>2019-07-16T12:45:54Z</time>
      </trkpt>
      <trkpt lat="48.42097" lon="-1.57734">
        <ele>80</ele>
        <time>2019-07-16T12:45:55Z</time>
      </trkpt>
      <trkpt lat="48.42099" lon="-1.57732">
        <ele>79.8</ele>
        <time>2019-07-16T12:45:56Z</time>
      </trkpt>
      <trkpt lat="48.42101" lon="-1.57729">
        <ele>79.1</ele>
        <time>2019-07-16T12:45:57Z</time>
      </trkpt>
      <trkpt lat="48.42103" lon="-1.57727">
        <ele>78.9</ele>
        <time>2019-07-16T12:45:58Z</time>
      </trkpt>
      <trkpt lat="48.42105" lon="-1.57724">
        <ele>78.7</ele>
        <time>2019-07-16T12:45:59Z</time>
      </trkpt>
      <trkpt lat="48.42107" lon="-1.57722">
        <ele>78.7</ele>
        <time>2019-07-16T12:46:00Z</time>
      </trkpt>
      <trkpt lat="48.42108" lon="-1.5772">
        <ele>79.2</ele>
        <time>2019-07-16T12:46:01Z</time>
      </trkpt>
      <trkpt lat="48.4211" lon="-1.57718">
        <ele>79.8</ele>
        <time>2019-07-16T12:46:02Z</time>
      </trkpt>
      <trkpt lat="48.42112" lon="-1.57716">
        <ele>80.6</ele>
        <time>2019-07-16T12:46:03Z</time>
      </trkpt>
      <trkpt lat="48.42113" lon="-1.57714">
        <ele>81.5</ele>
        <time>2019-07-16T12:46:04Z</time>
      </trkpt>
      <trkpt lat="48.42115" lon="-1.57713">
        <ele>82</ele>
        <time>2019-07-16T12:46:05Z</time>
      </trkpt>
      <trkpt lat="48.42116" lon="-1.5771">
        <ele>82.3</ele>
        <time>2019-07-16T12:46:06Z</time>
      </trkpt>
      <trkpt lat="48.42117" lon="-1.57708">
        <ele>82.4</ele>
        <time>2019-07-16T12:46:07Z</time>
      </trkpt>
      <trkpt lat="48.42119" lon="-1.57706">
        <ele>82.4</ele>
        <time>2019-07-16T12:46:08Z</time>
      </trkpt>
      <trkpt lat="48.42121" lon="-1.57703">
        <ele>82.6</ele>
        <time>2019-07-16T12:46:09Z</time>
      </trkpt>
      <trkpt lat="48.42123" lon="-1.57701">
        <ele>82.5</ele>
        <time>2019-07-16T12:46:10Z</time>
      </trkpt>
      <trkpt lat="48.42124" lon="-1.57699">
        <ele>83.2</ele>
        <time>2019-07-16T12:46:11Z</time>
      </trkpt>
      <trkpt lat="48.42125" lon="-1.57697">
        <ele>83.4</ele>
        <time>2019-07-16T12:46:12Z</time>
      </trkpt>
      <trkpt lat="48.42127" lon="-1.57695">
        <ele>83</ele>
        <time>2019-07-16T12:46:13Z</time>
      </trkpt>
      <trkpt lat="48.42129" lon="-1.57693">
        <ele>83.3</ele>
        <time>2019-07-16T12:46:14Z</time>
      </trkpt>
      <trkpt lat="48.4213" lon="-1.57691">
        <ele>83.4</ele>
        <time>2019-07-16T12:46:15Z</time>
      </trkpt>
      <trkpt lat="48.42131" lon="-1.57689">
        <ele>83.4</ele>
        <time>2019-07-16T12:46:16Z</time>
      </trkpt>
      <trkpt lat="48.42133" lon="-1.57686">
        <ele>83.2</ele>
        <time>2019-07-16T12:46:17Z</time>
      </trkpt>
      <trkpt lat="48.42135" lon="-1.57684">
        <ele>82.9</ele>
        <time>2019-07-16T12:46:18Z</time>
      </trkpt>
      <trkpt lat="48.42137" lon="-1.57681">
        <ele>82.6</ele>
        <time>2019-07-16T12:46:19Z</time>
      </trkpt>
      <trkpt lat="48.42139" lon="-1.57679">
        <ele>82.8</ele>
        <time>2019-07-16T12:46:20Z</time>
      </trkpt>
      <trkpt lat="48.42141" lon="-1.57677">
        <ele>82.5</ele>
        <time>2019-07-16T12:46:21Z</time>
      </trkpt>
      <trkpt lat="48.42143" lon="-1.57674">
        <ele>82.2</ele>
        <time>2019-07-16T12:46:22Z</time>
      </trkpt>
      <trkpt lat="48.42144" lon="-1.57672">
        <ele>82</ele>
        <time>2019-07-16T12:46:23Z</time>
      </trkpt>
      <trkpt lat="48.42146" lon="-1.5767">
        <ele>82.5</ele>
        <time>2019-07-16T12:46:24Z</time>
      </trkpt>
      <trkpt lat="48.42149" lon="-1.57668">
        <ele>83.2</ele>
        <time>2019-07-16T12:46:25Z</time>
      </trkpt>
      <trkpt lat="48.4215" lon="-1.57666">
        <ele>83.5</ele>
        <time>2019-07-16T12:46:26Z</time>
      </trkpt>
      <trkpt lat="48.42152" lon="-1.57663">
        <ele>83.5</ele>
        <time>2019-07-16T12:46:27Z</time>
      </trkpt>
      <trkpt lat="48.42153" lon="-1.57661">
        <ele>83.7</ele>
        <time>2019-07-16T12:46:28Z</time>
      </trkpt>
      <trkpt lat="48.42155" lon="-1.57658">
        <ele>84</ele>
        <time>2019-07-16T12:46:29Z</time>
      </trkpt>
      <trkpt lat="48.42156" lon="-1.57656">
        <ele>84.3</ele>
        <time>2019-07-16T12:46:30Z</time>
      </trkpt>
      <trkpt lat="48.42158" lon="-1.57653">
        <ele>84.2</ele>
        <time>2019-07-16T12:46:31Z</time>
      </trkpt>
      <trkpt lat="48.4216" lon="-1.5765">
        <ele>84.2</ele>
        <time>2019-07-16T12:46:32Z</time>
      </trkpt>
      <trkpt lat="48.42161" lon="-1.57647">
        <ele>84.5</ele>
        <time>2019-07-16T12:46:33Z</time>
      </trkpt>
      <trkpt lat="48.42162" lon="-1.57643">
        <ele>84.7</ele>
        <time>2019-07-16T12:46:34Z</time>
      </trkpt>
      <trkpt lat="48.42164" lon="-1.5764">
        <ele>84.9</ele>
        <time>2019-07-16T12:46:35Z</time>
      </trkpt>
      <trkpt lat="48.42165" lon="-1.57636">
        <ele>84.7</ele>
        <time>2019-07-16T12:46:36Z</time>
      </trkpt>
      <trkpt lat="48.42166" lon="-1.57633">
        <ele>84.7</ele>
        <time>2019-07-16T12:46:37Z</time>
      </trkpt>
      <trkpt lat="48.42167" lon="-1.57629">
        <ele>84.6</ele>
        <time>2019-07-16T12:46:38Z</time>
      </trkpt>
      <trkpt lat="48.42169" lon="-1.57625">
        <ele>84.4</ele>
        <time>2019-07-16T12:46:39Z</time>
      </trkpt>
      <trkpt lat="48.4217" lon="-1.57621">
        <ele>84.7</ele>
        <time>2019-07-16T12:46:40Z</time>
      </trkpt>
      <trkpt lat="48.42171" lon="-1.57616">
        <ele>84.4</ele>
        <time>2019-07-16T12:46:41Z</time>
      </trkpt>
      <trkpt lat="48.42172" lon="-1.57611">
        <ele>84.1</ele>
        <time>2019-07-16T12:46:42Z</time>
      </trkpt>
      <trkpt lat="48.42173" lon="-1.57606">
        <ele>83.4</ele>
        <time>2019-07-16T12:46:43Z</time>
      </trkpt>
      <trkpt lat="48.42174" lon="-1.57601">
        <ele>83</ele>
        <time>2019-07-16T12:46:44Z</time>
      </trkpt>
      <trkpt lat="48.42176" lon="-1.57596">
        <ele>82.3</ele>
        <time>2019-07-16T12:46:45Z</time>
      </trkpt>
      <trkpt lat="48.42176" lon="-1.5759">
        <ele>82</ele>
        <time>2019-07-16T12:46:46Z</time>
      </trkpt>
      <trkpt lat="48.42176" lon="-1.57584">
        <ele>81.3</ele>
        <time>2019-07-16T12:46:47Z</time>
      </trkpt>
      <trkpt lat="48.42177" lon="-1.57579">
        <ele>80.8</ele>
        <time>2019-07-16T12:46:48Z</time>
      </trkpt>
      <trkpt lat="48.42178" lon="-1.57573">
        <ele>80.3</ele>
        <time>2019-07-16T12:46:49Z</time>
      </trkpt>
      <trkpt lat="48.42178" lon="-1.57567">
        <ele>80.1</ele>
        <time>2019-07-16T12:46:50Z</time>
      </trkpt>
      <trkpt lat="48.42178" lon="-1.5756">
        <ele>79.8</ele>
        <time>2019-07-16T12:46:51Z</time>
      </trkpt>
      <trkpt lat="48.42177" lon="-1.57554">
        <ele>79.6</ele>
        <time>2019-07-16T12:46:52Z</time>
      </trkpt>
      <trkpt lat="48.42177" lon="-1.57546">
        <ele>78.9</ele>
        <time>2019-07-16T12:46:53Z</time>
      </trkpt>
      <trkpt lat="48.42176" lon="-1.57539">
        <ele>77.6</ele>
        <time>2019-07-16T12:46:54Z</time>
      </trkpt>
      <trkpt lat="48.42175" lon="-1.57532">
        <ele>77.3</ele>
        <time>2019-07-16T12:46:55Z</time>
      </trkpt>
      <trkpt lat="48.42173" lon="-1.57526">
        <ele>76.8</ele>
        <time>2019-07-16T12:46:56Z</time>
      </trkpt>
      <trkpt lat="48.42172" lon="-1.57519">
        <ele>76.3</ele>
        <time>2019-07-16T12:46:57Z</time>
      </trkpt>
      <trkpt lat="48.4217" lon="-1.57513">
        <ele>75.7</ele>
        <time>2019-07-16T12:46:58Z</time>
      </trkpt>
      <trkpt lat="48.42168" lon="-1.57507">
        <ele>75.4</ele>
        <time>2019-07-16T12:46:59Z</time>
      </trkpt>
      <trkpt lat="48.42167" lon="-1.57502">
        <ele>74.8</ele>
        <time>2019-07-16T12:47:00Z</time>
      </trkpt>
      <trkpt lat="48.42165" lon="-1.57497">
        <ele>74.4</ele>
        <time>2019-07-16T12:47:01Z</time>
      </trkpt>
      <trkpt lat="48.42164" lon="-1.57492">
        <ele>74.1</ele>
        <time>2019-07-16T12:47:02Z</time>
      </trkpt>
      <trkpt lat="48.42164" lon="-1.57487">
        <ele>74.1</ele>
        <time>2019-07-16T12:47:03Z</time>
      </trkpt>
      <trkpt lat="48.42164" lon="-1.57481">
        <ele>74.1</ele>
        <time>2019-07-16T12:47:04Z</time>
      </trkpt>
      <trkpt lat="48.42165" lon="-1.57477">
        <ele>74.4</ele>
        <time>2019-07-16T12:47:05Z</time>
      </trkpt>
      <trkpt lat="48.42167" lon="-1.57473">
        <ele>74.5</ele>
        <time>2019-07-16T12:47:06Z</time>
      </trkpt>
      <trkpt lat="48.42168" lon="-1.5747">
        <ele>74.4</ele>
        <time>2019-07-16T12:47:07Z</time>
      </trkpt>
      <trkpt lat="48.4217" lon="-1.57466">
        <ele>74.9</ele>
        <time>2019-07-16T12:47:08Z</time>
      </trkpt>
      <trkpt lat="48.42172" lon="-1.57463">
        <ele>75.7</ele>
        <time>2019-07-16T12:47:09Z</time>
      </trkpt>
      <trkpt lat="48.42173" lon="-1.57461">
        <ele>76.2</ele>
        <time>2019-07-16T12:47:10Z</time>
      </trkpt>
      <trkpt lat="48.42175" lon="-1.57458">
        <ele>76.7</ele>
        <time>2019-07-16T12:47:11Z</time>
      </trkpt>
      <trkpt lat="48.42176" lon="-1.57456">
        <ele>77.2</ele>
        <time>2019-07-16T12:47:12Z</time>
      </trkpt>
      <trkpt lat="48.42178" lon="-1.57453">
        <ele>78.1</ele>
        <time>2019-07-16T12:47:13Z</time>
      </trkpt>
      <trkpt lat="48.4218" lon="-1.57451">
        <ele>78.7</ele>
        <time>2019-07-16T12:47:14Z</time>
      </trkpt>
      <trkpt lat="48.42182" lon="-1.57448">
        <ele>79.3</ele>
        <time>2019-07-16T12:47:15Z</time>
      </trkpt>
      <trkpt lat="48.42183" lon="-1.57445">
        <ele>79.5</ele>
        <time>2019-07-16T12:47:16Z</time>
      </trkpt>
      <trkpt lat="48.42185" lon="-1.57442">
        <ele>79.6</ele>
        <time>2019-07-16T12:47:17Z</time>
      </trkpt>
      <trkpt lat="48.42187" lon="-1.5744">
        <ele>80.1</ele>
        <time>2019-07-16T12:47:18Z</time>
      </trkpt>
      <trkpt lat="48.42189" lon="-1.57437">
        <ele>80.4</ele>
        <time>2019-07-16T12:47:19Z</time>
      </trkpt>
      <trkpt lat="48.42191" lon="-1.57435">
        <ele>80.3</ele>
        <time>2019-07-16T12:47:20Z</time>
      </trkpt>
      <trkpt lat="48.42193" lon="-1.57432">
        <ele>80.2</ele>
        <time>2019-07-16T12:47:21Z</time>
      </trkpt>
      <trkpt lat="48.42194" lon="-1.5743">
        <ele>80.1</ele>
        <time>2019-07-16T12:47:22Z</time>
      </trkpt>
      <trkpt lat="48.42196" lon="-1.57427">
        <ele>80.3</ele>
        <time>2019-07-16T12:47:23Z</time>
      </trkpt>
      <trkpt lat="48.42197" lon="-1.57424">
        <ele>80.6</ele>
        <time>2019-07-16T12:47:24Z</time>
      </trkpt>
      <trkpt lat="48.42199" lon="-1.57422">
        <ele>80.7</ele>
        <time>2019-07-16T12:47:25Z</time>
      </trkpt>
      <trkpt lat="48.42201" lon="-1.57419">
        <ele>80.5</ele>
        <time>2019-07-16T12:47:26Z</time>
      </trkpt>
      <trkpt lat="48.42203" lon="-1.57416">
        <ele>80.8</ele>
        <time>2019-07-16T12:47:27Z</time>
      </trkpt>
      <trkpt lat="48.42204" lon="-1.57413">
        <ele>81.3</ele>
        <time>2019-07-16T12:47:28Z</time>
      </trkpt>
      <trkpt lat="48.42206" lon="-1.5741">
        <ele>81.5</ele>
        <time>2019-07-16T12:47:29Z</time>
      </trkpt>
      <trkpt lat="48.42208" lon="-1.57407">
        <ele>81.5</ele>
        <time>2019-07-16T12:47:30Z</time>
      </trkpt>
      <trkpt lat="48.4221" lon="-1.57404">
        <ele>81.5</ele>
        <time>2019-07-16T12:47:31Z</time>
      </trkpt>
      <trkpt lat="48.42211" lon="-1.57402">
        <ele>82.1</ele>
        <time>2019-07-16T12:47:32Z</time>
      </trkpt>
      <trkpt lat="48.42213" lon="-1.57399">
        <ele>82.7</ele>
        <time>2019-07-16T12:47:33Z</time>
      </trkpt>
      <trkpt lat="48.42214" lon="-1.57397">
        <ele>83.1</ele>
        <time>2019-07-16T12:47:34Z</time>
      </trkpt>
      <trkpt lat="48.42216" lon="-1.57395">
        <ele>83.3</ele>
        <time>2019-07-16T12:47:35Z</time>
      </trkpt>
      <trkpt lat="48.42217" lon="-1.57393">
        <ele>83.7</ele>
        <time>2019-07-16T12:47:36Z</time>
      </trkpt>
      <trkpt lat="48.42218" lon="-1.57391">
        <ele>84.5</ele>
        <time>2019-07-16T12:47:37Z</time>
      </trkpt>
      <trkpt lat="48.4222" lon="-1.5739">
        <ele>85.4</ele>
        <time>2019-07-16T12:47:38Z</time>
      </trkpt>
      <trkpt lat="48.42221" lon="-1.57387">
        <ele>85.9</ele>
        <time>2019-07-16T12:47:39Z</time>
      </trkpt>
      <trkpt lat="48.42223" lon="-1.57385">
        <ele>86.5</ele>
        <time>2019-07-16T12:47:40Z</time>
      </trkpt>
      <trkpt lat="48.42224" lon="-1.57383">
        <ele>87.5</ele>
        <time>2019-07-16T12:47:41Z</time>
      </trkpt>
      <trkpt lat="48.42225" lon="-1.57382">
        <ele>88.6</ele>
        <time>2019-07-16T12:47:42Z</time>
      </trkpt>
      <trkpt lat="48.42226" lon="-1.5738">
        <ele>89.6</ele>
        <time>2019-07-16T12:47:43Z</time>
      </trkpt>
      <trkpt lat="48.42228" lon="-1.57378">
        <ele>90.3</ele>
        <time>2019-07-16T12:47:44Z</time>
      </trkpt>
      <trkpt lat="48.4223" lon="-1.57376">
        <ele>90.9</ele>
        <time>2019-07-16T12:47:45Z</time>
      </trkpt>
      <trkpt lat="48.42231" lon="-1.57374">
        <ele>91.5</ele>
        <time>2019-07-16T12:47:46Z</time>
      </trkpt>
      <trkpt lat="48.42232" lon="-1.57372">
        <ele>92.1</ele>
        <time>2019-07-16T12:47:47Z</time>
      </trkpt>
      <trkpt lat="48.42233" lon="-1.5737">
        <ele>92.8</ele>
        <time>2019-07-16T12:47:48Z</time>
      </trkpt>
      <trkpt lat="48.42235" lon="-1.57367">
        <ele>93.4</ele>
        <time>2019-07-16T12:47:49Z</time>
      </trkpt>
      <trkpt lat="48.42236" lon="-1.57365">
        <ele>93.8</ele>
        <time>2019-07-16T12:47:50Z</time>
      </trkpt>
      <trkpt lat="48.42237" lon="-1.57362">
        <ele>93.9</ele>
        <time>2019-07-16T12:47:51Z</time>
      </trkpt>
      <trkpt lat="48.42238" lon="-1.5736">
        <ele>94</ele>
        <time>2019-07-16T12:47:52Z</time>
      </trkpt>
      <trkpt lat="48.42239" lon="-1.57357">
        <ele>93.9</ele>
        <time>2019-07-16T12:47:53Z</time>
      </trkpt>
      <trkpt lat="48.42241" lon="-1.57355">
        <ele>93.5</ele>
        <time>2019-07-16T12:47:54Z</time>
      </trkpt>
      <trkpt lat="48.42244" lon="-1.57352">
        <ele>93</ele>
        <time>2019-07-16T12:47:55Z</time>
      </trkpt>
      <trkpt lat="48.42246" lon="-1.57349">
        <ele>92.1</ele>
        <time>2019-07-16T12:47:56Z</time>
      </trkpt>
      <trkpt lat="48.42247" lon="-1.57345">
        <ele>90.9</ele>
        <time>2019-07-16T12:47:57Z</time>
      </trkpt>
      <trkpt lat="48.42249" lon="-1.57342">
        <ele>90</ele>
        <time>2019-07-16T12:47:58Z</time>
      </trkpt>
      <trkpt lat="48.42251" lon="-1.57338">
        <ele>89.2</ele>
        <time>2019-07-16T12:47:59Z</time>
      </trkpt>
      <trkpt lat="48.42253" lon="-1.57335">
        <ele>88.9</ele>
        <time>2019-07-16T12:48:00Z</time>
      </trkpt>
      <trkpt lat="48.42255" lon="-1.57333">
        <ele>88.8</ele>
        <time>2019-07-16T12:48:01Z</time>
      </trkpt>
      <trkpt lat="48.42256" lon="-1.5733">
        <ele>89.1</ele>
        <time>2019-07-16T12:48:02Z</time>
      </trkpt>
      <trkpt lat="48.42258" lon="-1.57328">
        <ele>89</ele>
        <time>2019-07-16T12:48:03Z</time>
      </trkpt>
      <trkpt lat="48.4226" lon="-1.57325">
        <ele>88.9</ele>
        <time>2019-07-16T12:48:04Z</time>
      </trkpt>
      <trkpt lat="48.42262" lon="-1.57322">
        <ele>88.9</ele>
        <time>2019-07-16T12:48:05Z</time>
      </trkpt>
      <trkpt lat="48.42263" lon="-1.5732">
        <ele>88.9</ele>
        <time>2019-07-16T12:48:06Z</time>
      </trkpt>
      <trkpt lat="48.42265" lon="-1.57317">
        <ele>89.3</ele>
        <time>2019-07-16T12:48:07Z</time>
      </trkpt>
      <trkpt lat="48.42267" lon="-1.57314">
        <ele>89.7</ele>
        <time>2019-07-16T12:48:08Z</time>
      </trkpt>
      <trkpt lat="48.42268" lon="-1.57312">
        <ele>90.3</ele>
        <time>2019-07-16T12:48:09Z</time>
      </trkpt>
      <trkpt lat="48.4227" lon="-1.5731">
        <ele>91.1</ele>
        <time>2019-07-16T12:48:10Z</time>
      </trkpt>
      <trkpt lat="48.42272" lon="-1.57307">
        <ele>91.6</ele>
        <time>2019-07-16T12:48:11Z</time>
      </trkpt>
      <trkpt lat="48.42273" lon="-1.57305">
        <ele>92</ele>
        <time>2019-07-16T12:48:12Z</time>
      </trkpt>
      <trkpt lat="48.42275" lon="-1.57302">
        <ele>92.1</ele>
        <time>2019-07-16T12:48:13Z</time>
      </trkpt>
      <trkpt lat="48.42276" lon="-1.573">
        <ele>92.7</ele>
        <time>2019-07-16T12:48:14Z</time>
      </trkpt>
      <trkpt lat="48.42277" lon="-1.57298">
        <ele>93.3</ele>
        <time>2019-07-16T12:48:15Z</time>
      </trkpt>
      <trkpt lat="48.42279" lon="-1.57296">
        <ele>93.3</ele>
        <time>2019-07-16T12:48:16Z</time>
      </trkpt>
      <trkpt lat="48.4228" lon="-1.57293">
        <ele>92.4</ele>
        <time>2019-07-16T12:48:17Z</time>
      </trkpt>
      <trkpt lat="48.42281" lon="-1.5729">
        <ele>91.9</ele>
        <time>2019-07-16T12:48:18Z</time>
      </trkpt>
      <trkpt lat="48.42283" lon="-1.57287">
        <ele>91.8</ele>
        <time>2019-07-16T12:48:19Z</time>
      </trkpt>
      <trkpt lat="48.42284" lon="-1.57284">
        <ele>91.6</ele>
        <time>2019-07-16T12:48:20Z</time>
      </trkpt>
      <trkpt lat="48.42286" lon="-1.57282">
        <ele>92</ele>
        <time>2019-07-16T12:48:21Z</time>
      </trkpt>
      <trkpt lat="48.42288" lon="-1.57278">
        <ele>92.3</ele>
        <time>2019-07-16T12:48:22Z</time>
      </trkpt>
      <trkpt lat="48.4229" lon="-1.57275">
        <ele>92.1</ele>
        <time>2019-07-16T12:48:23Z</time>
      </trkpt>
      <trkpt lat="48.42292" lon="-1.57272">
        <ele>91.6</ele>
        <time>2019-07-16T12:48:24Z</time>
      </trkpt>
      <trkpt lat="48.42293" lon="-1.57269">
        <ele>91.3</ele>
        <time>2019-07-16T12:48:25Z</time>
      </trkpt>
      <trkpt lat="48.42295" lon="-1.57266">
        <ele>91.2</ele>
        <time>2019-07-16T12:48:26Z</time>
      </trkpt>
      <trkpt lat="48.42297" lon="-1.57264">
        <ele>91.3</ele>
        <time>2019-07-16T12:48:27Z</time>
      </trkpt>
      <trkpt lat="48.42299" lon="-1.57261">
        <ele>91.3</ele>
        <time>2019-07-16T12:48:28Z</time>
      </trkpt>
      <trkpt lat="48.423" lon="-1.57259">
        <ele>91.3</ele>
        <time>2019-07-16T12:48:29Z</time>
      </trkpt>
      <trkpt lat="48.42302" lon="-1.57256">
        <ele>91.2</ele>
        <time>2019-07-16T12:48:30Z</time>
      </trkpt>
      <trkpt lat="48.42303" lon="-1.57252">
        <ele>91.2</ele>
        <time>2019-07-16T12:48:31Z</time>
      </trkpt>
      <trkpt lat="48.42305" lon="-1.57249">
        <ele>91.3</ele>
        <time>2019-07-16T12:48:32Z</time>
      </trkpt>
      <trkpt lat="48.42307" lon="-1.57246">
        <ele>91.8</ele>
        <time>2019-07-16T12:48:33Z</time>
      </trkpt>
      <trkpt lat="48.42308" lon="-1.57243">
        <ele>92.4</ele>
        <time>2019-07-16T12:48:34Z</time>
      </trkpt>
      <trkpt lat="48.4231" lon="-1.5724">
        <ele>92.6</ele>
        <time>2019-07-16T12:48:35Z</time>
      </trkpt>
      <trkpt lat="48.42312" lon="-1.57238">
        <ele>92.5</ele>
        <time>2019-07-16T12:48:36Z</time>
      </trkpt>
      <trkpt lat="48.42313" lon="-1.57235">
        <ele>92.5</ele>
        <time>2019-07-16T12:48:37Z</time>
      </trkpt>
      <trkpt lat="48.42315" lon="-1.57232">
        <ele>92.1</ele>
        <time>2019-07-16T12:48:38Z</time>
      </trkpt>
      <trkpt lat="48.42317" lon="-1.57228">
        <ele>91.4</ele>
        <time>2019-07-16T12:48:39Z</time>
      </trkpt>
      <trkpt lat="48.42319" lon="-1.57225">
        <ele>91.1</ele>
        <time>2019-07-16T12:48:40Z</time>
      </trkpt>
      <trkpt lat="48.42321" lon="-1.57221">
        <ele>90.2</ele>
        <time>2019-07-16T12:48:41Z</time>
      </trkpt>
      <trkpt lat="48.42323" lon="-1.57217">
        <ele>89.5</ele>
        <time>2019-07-16T12:48:42Z</time>
      </trkpt>
      <trkpt lat="48.42325" lon="-1.57214">
        <ele>88.8</ele>
        <time>2019-07-16T12:48:43Z</time>
      </trkpt>
      <trkpt lat="48.42326" lon="-1.57212">
        <ele>88.4</ele>
        <time>2019-07-16T12:48:44Z</time>
      </trkpt>
      <trkpt lat="48.42328" lon="-1.5721">
        <ele>88.7</ele>
        <time>2019-07-16T12:48:45Z</time>
      </trkpt>
      <trkpt lat="48.4233" lon="-1.57207">
        <ele>88.1</ele>
        <time>2019-07-16T12:48:46Z</time>
      </trkpt>
      <trkpt lat="48.42332" lon="-1.57205">
        <ele>88.1</ele>
        <time>2019-07-16T12:48:47Z</time>
      </trkpt>
      <trkpt lat="48.42334" lon="-1.57202">
        <ele>88.1</ele>
        <time>2019-07-16T12:48:48Z</time>
      </trkpt>
      <trkpt lat="48.42336" lon="-1.572">
        <ele>88.2</ele>
        <time>2019-07-16T12:48:49Z</time>
      </trkpt>
      <trkpt lat="48.42337" lon="-1.57197">
        <ele>88.4</ele>
        <time>2019-07-16T12:48:50Z</time>
      </trkpt>
      <trkpt lat="48.42339" lon="-1.57195">
        <ele>88.6</ele>
        <time>2019-07-16T12:48:51Z</time>
      </trkpt>
      <trkpt lat="48.42341" lon="-1.57192">
        <ele>88.8</ele>
        <time>2019-07-16T12:48:52Z</time>
      </trkpt>
      <trkpt lat="48.42343" lon="-1.57189">
        <ele>89.3</ele>
        <time>2019-07-16T12:48:53Z</time>
      </trkpt>
      <trkpt lat="48.42345" lon="-1.57186">
        <ele>89.7</ele>
        <time>2019-07-16T12:48:54Z</time>
      </trkpt>
      <trkpt lat="48.42346" lon="-1.57184">
        <ele>89.5</ele>
        <time>2019-07-16T12:48:55Z</time>
      </trkpt>
      <trkpt lat="48.42349" lon="-1.57181">
        <ele>88.9</ele>
        <time>2019-07-16T12:48:56Z</time>
      </trkpt>
      <trkpt lat="48.4235" lon="-1.57179">
        <ele>89</ele>
        <time>2019-07-16T12:48:57Z</time>
      </trkpt>
      <trkpt lat="48.42353" lon="-1.57176">
        <ele>88.8</ele>
        <time>2019-07-16T12:48:58Z</time>
      </trkpt>
      <trkpt lat="48.42355" lon="-1.57174">
        <ele>89.1</ele>
        <time>2019-07-16T12:48:59Z</time>
      </trkpt>
      <trkpt lat="48.42357" lon="-1.57172">
        <ele>89.3</ele>
        <time>2019-07-16T12:49:00Z</time>
      </trkpt>
      <trkpt lat="48.42358" lon="-1.57171">
        <ele>89.5</ele>
        <time>2019-07-16T12:49:01Z</time>
      </trkpt>
      <trkpt lat="48.4236" lon="-1.57169">
        <ele>89.8</ele>
        <time>2019-07-16T12:49:02Z</time>
      </trkpt>
      <trkpt lat="48.42362" lon="-1.57167">
        <ele>89.7</ele>
        <time>2019-07-16T12:49:03Z</time>
      </trkpt>
      <trkpt lat="48.42363" lon="-1.57165">
        <ele>90.3</ele>
        <time>2019-07-16T12:49:04Z</time>
      </trkpt>
      <trkpt lat="48.42366" lon="-1.57164">
        <ele>90.4</ele>
        <time>2019-07-16T12:49:05Z</time>
      </trkpt>
      <trkpt lat="48.42368" lon="-1.57162">
        <ele>90.7</ele>
        <time>2019-07-16T12:49:06Z</time>
      </trkpt>
      <trkpt lat="48.42369" lon="-1.57161">
        <ele>91.3</ele>
        <time>2019-07-16T12:49:07Z</time>
      </trkpt>
      <trkpt lat="48.42371" lon="-1.5716">
        <ele>92</ele>
        <time>2019-07-16T12:49:08Z</time>
      </trkpt>
      <trkpt lat="48.42373" lon="-1.57159">
        <ele>92.3</ele>
        <time>2019-07-16T12:49:09Z</time>
      </trkpt>
      <trkpt lat="48.42375" lon="-1.57158">
        <ele>92.7</ele>
        <time>2019-07-16T12:49:10Z</time>
      </trkpt>
      <trkpt lat="48.42378" lon="-1.57157">
        <ele>92.9</ele>
        <time>2019-07-16T12:49:11Z</time>
      </trkpt>
      <trkpt lat="48.42379" lon="-1.57156">
        <ele>93.4</ele>
        <time>2019-07-16T12:49:12Z</time>
      </trkpt>
      <trkpt lat="48.42382" lon="-1.57155">
        <ele>93.9</ele>
        <time>2019-07-16T12:49:13Z</time>
      </trkpt>
      <trkpt lat="48.42384" lon="-1.57154">
        <ele>94.3</ele>
        <time>2019-07-16T12:49:14Z</time>
      </trkpt>
      <trkpt lat="48.42386" lon="-1.57152">
        <ele>94.1</ele>
        <time>2019-07-16T12:49:15Z</time>
      </trkpt>
      <trkpt lat="48.42389" lon="-1.57151">
        <ele>94</ele>
        <time>2019-07-16T12:49:16Z</time>
      </trkpt>
      <trkpt lat="48.42391" lon="-1.5715">
        <ele>94</ele>
        <time>2019-07-16T12:49:17Z</time>
      </trkpt>
      <trkpt lat="48.42393" lon="-1.57149">
        <ele>93.8</ele>
        <time>2019-07-16T12:49:18Z</time>
      </trkpt>
      <trkpt lat="48.42395" lon="-1.57149">
        <ele>93.9</ele>
        <time>2019-07-16T12:49:19Z</time>
      </trkpt>
      <trkpt lat="48.42397" lon="-1.57149">
        <ele>94</ele>
        <time>2019-07-16T12:49:20Z</time>
      </trkpt>
      <trkpt lat="48.424" lon="-1.57149">
        <ele>94.5</ele>
        <time>2019-07-16T12:49:21Z</time>
      </trkpt>
      <trkpt lat="48.42402" lon="-1.57149">
        <ele>94.5</ele>
        <time>2019-07-16T12:49:22Z</time>
      </trkpt>
      <trkpt lat="48.42404" lon="-1.57149">
        <ele>94.3</ele>
        <time>2019-07-16T12:49:23Z</time>
      </trkpt>
      <trkpt lat="48.42407" lon="-1.57149">
        <ele>94.4</ele>
        <time>2019-07-16T12:49:24Z</time>
      </trkpt>
      <trkpt lat="48.42409" lon="-1.57149">
        <ele>94.2</ele>
        <time>2019-07-16T12:49:25Z</time>
      </trkpt>
      <trkpt lat="48.42411" lon="-1.57149">
        <ele>94.2</ele>
        <time>2019-07-16T12:49:26Z</time>
      </trkpt>
      <trkpt lat="48.42413" lon="-1.57149">
        <ele>94.3</ele>
        <time>2019-07-16T12:49:27Z</time>
      </trkpt>
      <trkpt lat="48.42416" lon="-1.57149">
        <ele>94.6</ele>
        <time>2019-07-16T12:49:28Z</time>
      </trkpt>
      <trkpt lat="48.42418" lon="-1.57149">
        <ele>95</ele>
        <time>2019-07-16T12:49:29Z</time>
      </trkpt>
      <trkpt lat="48.42421" lon="-1.57149">
        <ele>95.1</ele>
        <time>2019-07-16T12:49:30Z</time>
      </trkpt>
      <trkpt lat="48.42423" lon="-1.57149">
        <ele>95</ele>
        <time>2019-07-16T12:49:31Z</time>
      </trkpt>
      <trkpt lat="48.42426" lon="-1.57149">
        <ele>94.4</ele>
        <time>2019-07-16T12:49:32Z</time>
      </trkpt>
      <trkpt lat="48.42428" lon="-1.57149">
        <ele>94.5</ele>
        <time>2019-07-16T12:49:33Z</time>
      </trkpt>
      <trkpt lat="48.42431" lon="-1.57149">
        <ele>94.8</ele>
        <time>2019-07-16T12:49:34Z</time>
      </trkpt>
      <trkpt lat="48.42433" lon="-1.5715">
        <ele>94.6</ele>
        <time>2019-07-16T12:49:35Z</time>
      </trkpt>
      <trkpt lat="48.42436" lon="-1.5715">
        <ele>94.6</ele>
        <time>2019-07-16T12:49:36Z</time>
      </trkpt>
      <trkpt lat="48.42439" lon="-1.5715">
        <ele>94.8</ele>
        <time>2019-07-16T12:49:37Z</time>
      </trkpt>
      <trkpt lat="48.42441" lon="-1.57151">
        <ele>95.1</ele>
        <time>2019-07-16T12:49:38Z</time>
      </trkpt>
      <trkpt lat="48.42444" lon="-1.57151">
        <ele>95.3</ele>
        <time>2019-07-16T12:49:39Z</time>
      </trkpt>
      <trkpt lat="48.42446" lon="-1.57152">
        <ele>95.6</ele>
        <time>2019-07-16T12:49:40Z</time>
      </trkpt>
      <trkpt lat="48.42448" lon="-1.57152">
        <ele>95.7</ele>
        <time>2019-07-16T12:49:41Z</time>
      </trkpt>
      <trkpt lat="48.4245" lon="-1.57153">
        <ele>95.8</ele>
        <time>2019-07-16T12:49:42Z</time>
      </trkpt>
      <trkpt lat="48.42453" lon="-1.57153">
        <ele>96</ele>
        <time>2019-07-16T12:49:43Z</time>
      </trkpt>
      <trkpt lat="48.42455" lon="-1.57153">
        <ele>96</ele>
        <time>2019-07-16T12:49:44Z</time>
      </trkpt>
      <trkpt lat="48.42458" lon="-1.57153">
        <ele>95.9</ele>
        <time>2019-07-16T12:49:45Z</time>
      </trkpt>
      <trkpt lat="48.4246" lon="-1.57154">
        <ele>95.6</ele>
        <time>2019-07-16T12:49:46Z</time>
      </trkpt>
      <trkpt lat="48.42463" lon="-1.57154">
        <ele>95.9</ele>
        <time>2019-07-16T12:49:47Z</time>
      </trkpt>
      <trkpt lat="48.42466" lon="-1.57154">
        <ele>95.9</ele>
        <time>2019-07-16T12:49:48Z</time>
      </trkpt>
      <trkpt lat="48.42468" lon="-1.57154">
        <ele>95.9</ele>
        <time>2019-07-16T12:49:49Z</time>
      </trkpt>
      <trkpt lat="48.42471" lon="-1.57155">
        <ele>95.8</ele>
        <time>2019-07-16T12:49:50Z</time>
      </trkpt>
      <trkpt lat="48.42473" lon="-1.57156">
        <ele>95.7</ele>
        <time>2019-07-16T12:49:51Z</time>
      </trkpt>
      <trkpt lat="48.42475" lon="-1.57156">
        <ele>95.8</ele>
        <time>2019-07-16T12:49:52Z</time>
      </trkpt>
      <trkpt lat="48.42478" lon="-1.57157">
        <ele>95.6</ele>
        <time>2019-07-16T12:49:53Z</time>
      </trkpt>
      <trkpt lat="48.42481" lon="-1.57157">
        <ele>95.6</ele>
        <time>2019-07-16T12:49:54Z</time>
      </trkpt>
      <trkpt lat="48.42483" lon="-1.57157">
        <ele>95.3</ele>
        <time>2019-07-16T12:49:55Z</time>
      </trkpt>
      <trkpt lat="48.42485" lon="-1.57158">
        <ele>95.1</ele>
        <time>2019-07-16T12:49:56Z</time>
      </trkpt>
      <trkpt lat="48.42488" lon="-1.57158">
        <ele>95.4</ele>
        <time>2019-07-16T12:49:57Z</time>
      </trkpt>
      <trkpt lat="48.4249" lon="-1.57158">
        <ele>95.9</ele>
        <time>2019-07-16T12:49:58Z</time>
      </trkpt>
      <trkpt lat="48.42493" lon="-1.57158">
        <ele>96.1</ele>
        <time>2019-07-16T12:49:59Z</time>
      </trkpt>
      <trkpt lat="48.42496" lon="-1.57159">
        <ele>96.3</ele>
        <time>2019-07-16T12:50:00Z</time>
      </trkpt>
      <trkpt lat="48.42498" lon="-1.57159">
        <ele>96.5</ele>
        <time>2019-07-16T12:50:01Z</time>
      </trkpt>
      <trkpt lat="48.42501" lon="-1.57159">
        <ele>96.8</ele>
        <time>2019-07-16T12:50:02Z</time>
      </trkpt>
      <trkpt lat="48.42503" lon="-1.57159">
        <ele>97.3</ele>
        <time>2019-07-16T12:50:03Z</time>
      </trkpt>
      <trkpt lat="48.42506" lon="-1.5716">
        <ele>97.7</ele>
        <time>2019-07-16T12:50:04Z</time>
      </trkpt>
      <trkpt lat="48.42508" lon="-1.5716">
        <ele>98.2</ele>
        <time>2019-07-16T12:50:05Z</time>
      </trkpt>
      <trkpt lat="48.42511" lon="-1.5716">
        <ele>98.5</ele>
        <time>2019-07-16T12:50:06Z</time>
      </trkpt>
      <trkpt lat="48.42514" lon="-1.57161">
        <ele>99.2</ele>
        <time>2019-07-16T12:50:07Z</time>
      </trkpt>
      <trkpt lat="48.42519" lon="-1.57162">
        <ele>100.1</ele>
        <time>2019-07-16T12:50:09Z</time>
      </trkpt>
      <trkpt lat="48.42522" lon="-1.57162">
        <ele>100.3</ele>
        <time>2019-07-16T12:50:10Z</time>
      </trkpt>
      <trkpt lat="48.42524" lon="-1.57163">
        <ele>99.8</ele>
        <time>2019-07-16T12:50:11Z</time>
      </trkpt>
      <trkpt lat="48.42527" lon="-1.57164">
        <ele>99.4</ele>
        <time>2019-07-16T12:50:12Z</time>
      </trkpt>
      <trkpt lat="48.42529" lon="-1.57164">
        <ele>99.1</ele>
        <time>2019-07-16T12:50:13Z</time>
      </trkpt>
      <trkpt lat="48.42532" lon="-1.57165">
        <ele>98.5</ele>
        <time>2019-07-16T12:50:14Z</time>
      </trkpt>
      <trkpt lat="48.42534" lon="-1.57166">
        <ele>98.1</ele>
        <time>2019-07-16T12:50:15Z</time>
      </trkpt>
      <trkpt lat="48.42537" lon="-1.57166">
        <ele>97.9</ele>
        <time>2019-07-16T12:50:16Z</time>
      </trkpt>
      <trkpt lat="48.42539" lon="-1.57167">
        <ele>97.9</ele>
        <time>2019-07-16T12:50:17Z</time>
      </trkpt>
      <trkpt lat="48.42542" lon="-1.57167">
        <ele>98.2</ele>
        <time>2019-07-16T12:50:18Z</time>
      </trkpt>
      <trkpt lat="48.42544" lon="-1.57168">
        <ele>98.6</ele>
        <time>2019-07-16T12:50:19Z</time>
      </trkpt>
      <trkpt lat="48.42547" lon="-1.57168">
        <ele>99.2</ele>
        <time>2019-07-16T12:50:20Z</time>
      </trkpt>
      <trkpt lat="48.42549" lon="-1.57169">
        <ele>99.6</ele>
        <time>2019-07-16T12:50:21Z</time>
      </trkpt>
      <trkpt lat="48.42551" lon="-1.57169">
        <ele>99.9</ele>
        <time>2019-07-16T12:50:22Z</time>
      </trkpt>
      <trkpt lat="48.42554" lon="-1.5717">
        <ele>100</ele>
        <time>2019-07-16T12:50:23Z</time>
      </trkpt>
      <trkpt lat="48.42556" lon="-1.57169">
        <ele>100.2</ele>
        <time>2019-07-16T12:50:24Z</time>
      </trkpt>
      <trkpt lat="48.42559" lon="-1.5717">
        <ele>100.6</ele>
        <time>2019-07-16T12:50:25Z</time>
      </trkpt>
      <trkpt lat="48.42561" lon="-1.57171">
        <ele>101.2</ele>
        <time>2019-07-16T12:50:26Z</time>
      </trkpt>
      <trkpt lat="48.42563" lon="-1.57171">
        <ele>101.8</ele>
        <time>2019-07-16T12:50:27Z</time>
      </trkpt>
      <trkpt lat="48.42566" lon="-1.57172">
        <ele>102.7</ele>
        <time>2019-07-16T12:50:28Z</time>
      </trkpt>
      <trkpt lat="48.42568" lon="-1.57172">
        <ele>103.7</ele>
        <time>2019-07-16T12:50:29Z</time>
      </trkpt>
      <trkpt lat="48.4257" lon="-1.57173">
        <ele>104.4</ele>
        <time>2019-07-16T12:50:30Z</time>
      </trkpt>
      <trkpt lat="48.42572" lon="-1.57174">
        <ele>105.2</ele>
        <time>2019-07-16T12:50:31Z</time>
      </trkpt>
      <trkpt lat="48.42574" lon="-1.57173">
        <ele>105.6</ele>
        <time>2019-07-16T12:50:32Z</time>
      </trkpt>
      <trkpt lat="48.42577" lon="-1.57173">
        <ele>106</ele>
        <time>2019-07-16T12:50:33Z</time>
      </trkpt>
      <trkpt lat="48.42579" lon="-1.57173">
        <ele>106.6</ele>
        <time>2019-07-16T12:50:34Z</time>
      </trkpt>
      <trkpt lat="48.42581" lon="-1.57173">
        <ele>107.2</ele>
        <time>2019-07-16T12:50:35Z</time>
      </trkpt>
      <trkpt lat="48.42584" lon="-1.57174">
        <ele>107.4</ele>
        <time>2019-07-16T12:50:36Z</time>
      </trkpt>
      <trkpt lat="48.42586" lon="-1.57173">
        <ele>107.7</ele>
        <time>2019-07-16T12:50:37Z</time>
      </trkpt>
      <trkpt lat="48.42589" lon="-1.57173">
        <ele>108</ele>
        <time>2019-07-16T12:50:38Z</time>
      </trkpt>
      <trkpt lat="48.42592" lon="-1.57172">
        <ele>107.9</ele>
        <time>2019-07-16T12:50:39Z</time>
      </trkpt>
      <trkpt lat="48.42595" lon="-1.57171">
        <ele>109.1</ele>
        <time>2019-07-16T12:50:40Z</time>
      </trkpt>
      <trkpt lat="48.42597" lon="-1.5717">
        <ele>109.7</ele>
        <time>2019-07-16T12:50:41Z</time>
      </trkpt>
      <trkpt lat="48.426" lon="-1.5717">
        <ele>110.1</ele>
        <time>2019-07-16T12:50:42Z</time>
      </trkpt>
      <trkpt lat="48.42602" lon="-1.5717">
        <ele>110.4</ele>
        <time>2019-07-16T12:50:43Z</time>
      </trkpt>
      <trkpt lat="48.42604" lon="-1.57171">
        <ele>110.6</ele>
        <time>2019-07-16T12:50:44Z</time>
      </trkpt>
      <trkpt lat="48.42606" lon="-1.57172">
        <ele>110.4</ele>
        <time>2019-07-16T12:50:45Z</time>
      </trkpt>
      <trkpt lat="48.42609" lon="-1.57172">
        <ele>110.1</ele>
        <time>2019-07-16T12:50:46Z</time>
      </trkpt>
      <trkpt lat="48.42611" lon="-1.57173">
        <ele>110.3</ele>
        <time>2019-07-16T12:50:47Z</time>
      </trkpt>
      <trkpt lat="48.42614" lon="-1.57174">
        <ele>110.6</ele>
        <time>2019-07-16T12:50:48Z</time>
      </trkpt>
      <trkpt lat="48.42615" lon="-1.57174">
        <ele>110.9</ele>
        <time>2019-07-16T12:50:49Z</time>
      </trkpt>
      <trkpt lat="48.42617" lon="-1.57173">
        <ele>111.2</ele>
        <time>2019-07-16T12:50:50Z</time>
      </trkpt>
      <trkpt lat="48.42618" lon="-1.57173">
        <ele>110.9</ele>
        <time>2019-07-16T12:50:51Z</time>
      </trkpt>
      <trkpt lat="48.42619" lon="-1.57173">
        <ele>111.3</ele>
        <time>2019-07-16T12:50:52Z</time>
      </trkpt>
      <trkpt lat="48.42627" lon="-1.57177">
        <ele>111.2</ele>
        <time>2019-07-16T12:51:21Z</time>
      </trkpt>
      <trkpt lat="48.42629" lon="-1.57177">
        <ele>110.1</ele>
        <time>2019-07-16T12:51:22Z</time>
      </trkpt>
      <trkpt lat="48.42631" lon="-1.57178">
        <ele>109.4</ele>
        <time>2019-07-16T12:51:23Z</time>
      </trkpt>
      <trkpt lat="48.42632" lon="-1.57179">
        <ele>109</ele>
        <time>2019-07-16T12:51:24Z</time>
      </trkpt>
      <trkpt lat="48.42633" lon="-1.57181">
        <ele>108.8</ele>
        <time>2019-07-16T12:51:25Z</time>
      </trkpt>
      <trkpt lat="48.42634" lon="-1.57184">
        <ele>108.4</ele>
        <time>2019-07-16T12:51:26Z</time>
      </trkpt>
      <trkpt lat="48.42634" lon="-1.57186">
        <ele>107.5</ele>
        <time>2019-07-16T12:51:27Z</time>
      </trkpt>
      <trkpt lat="48.42634" lon="-1.57189">
        <ele>107.1</ele>
        <time>2019-07-16T12:51:28Z</time>
      </trkpt>
      <trkpt lat="48.42634" lon="-1.57191">
        <ele>107.1</ele>
        <time>2019-07-16T12:51:29Z</time>
      </trkpt>
      <trkpt lat="48.42634" lon="-1.57195">
        <ele>107.3</ele>
        <time>2019-07-16T12:51:30Z</time>
      </trkpt>
      <trkpt lat="48.42634" lon="-1.57197">
        <ele>107.3</ele>
        <time>2019-07-16T12:51:31Z</time>
      </trkpt>
      <trkpt lat="48.42634" lon="-1.57201">
        <ele>106.5</ele>
        <time>2019-07-16T12:51:32Z</time>
      </trkpt>
      <trkpt lat="48.42634" lon="-1.57204">
        <ele>106.5</ele>
        <time>2019-07-16T12:51:33Z</time>
      </trkpt>
      <trkpt lat="48.42634" lon="-1.57207">
        <ele>106.6</ele>
        <time>2019-07-16T12:51:34Z</time>
      </trkpt>
      <trkpt lat="48.42633" lon="-1.57211">
        <ele>107.1</ele>
        <time>2019-07-16T12:51:35Z</time>
      </trkpt>
      <trkpt lat="48.42634" lon="-1.57214">
        <ele>107.5</ele>
        <time>2019-07-16T12:51:36Z</time>
      </trkpt>
      <trkpt lat="48.42633" lon="-1.57218">
        <ele>107.6</ele>
        <time>2019-07-16T12:51:37Z</time>
      </trkpt>
      <trkpt lat="48.42633" lon="-1.57221">
        <ele>107.7</ele>
        <time>2019-07-16T12:51:38Z</time>
      </trkpt>
      <trkpt lat="48.42633" lon="-1.57225">
        <ele>107.4</ele>
        <time>2019-07-16T12:51:39Z</time>
      </trkpt>
      <trkpt lat="48.42633" lon="-1.57229">
        <ele>107</ele>
        <time>2019-07-16T12:51:40Z</time>
      </trkpt>
      <trkpt lat="48.42632" lon="-1.57232">
        <ele>106.9</ele>
        <time>2019-07-16T12:51:41Z</time>
      </trkpt>
      <trkpt lat="48.42631" lon="-1.57236">
        <ele>106.5</ele>
        <time>2019-07-16T12:51:42Z</time>
      </trkpt>
      <trkpt lat="48.42629" lon="-1.5724">
        <ele>106</ele>
        <time>2019-07-16T12:51:43Z</time>
      </trkpt>
      <trkpt lat="48.42629" lon="-1.57244">
        <ele>105.6</ele>
        <time>2019-07-16T12:51:44Z</time>
      </trkpt>
      <trkpt lat="48.42627" lon="-1.57248">
        <ele>104.9</ele>
        <time>2019-07-16T12:51:45Z</time>
      </trkpt>
      <trkpt lat="48.42626" lon="-1.57251">
        <ele>104.7</ele>
        <time>2019-07-16T12:51:46Z</time>
      </trkpt>
      <trkpt lat="48.42623" lon="-1.57255">
        <ele>104.6</ele>
        <time>2019-07-16T12:51:47Z</time>
      </trkpt>
      <trkpt lat="48.42621" lon="-1.57258">
        <ele>104.2</ele>
        <time>2019-07-16T12:51:48Z</time>
      </trkpt>
      <trkpt lat="48.42618" lon="-1.57262">
        <ele>104.4</ele>
        <time>2019-07-16T12:51:49Z</time>
      </trkpt>
      <trkpt lat="48.42616" lon="-1.57265">
        <ele>105.3</ele>
        <time>2019-07-16T12:51:50Z</time>
      </trkpt>
      <trkpt lat="48.42616" lon="-1.5727">
        <ele>106.1</ele>
        <time>2019-07-16T12:51:51Z</time>
      </trkpt>
      <trkpt lat="48.42614" lon="-1.57274">
        <ele>106.9</ele>
        <time>2019-07-16T12:51:52Z</time>
      </trkpt>
      <trkpt lat="48.42613" lon="-1.57278">
        <ele>107.5</ele>
        <time>2019-07-16T12:51:53Z</time>
      </trkpt>
      <trkpt lat="48.42612" lon="-1.57282">
        <ele>108.2</ele>
        <time>2019-07-16T12:51:54Z</time>
      </trkpt>
      <trkpt lat="48.4261" lon="-1.57285">
        <ele>108.4</ele>
        <time>2019-07-16T12:51:55Z</time>
      </trkpt>
      <trkpt lat="48.42608" lon="-1.5729">
        <ele>107.1</ele>
        <time>2019-07-16T12:51:56Z</time>
      </trkpt>
      <trkpt lat="48.42607" lon="-1.57294">
        <ele>106.5</ele>
        <time>2019-07-16T12:51:57Z</time>
      </trkpt>
      <trkpt lat="48.42606" lon="-1.57297">
        <ele>105</ele>
        <time>2019-07-16T12:51:58Z</time>
      </trkpt>
      <trkpt lat="48.42605" lon="-1.57301">
        <ele>104.1</ele>
        <time>2019-07-16T12:51:59Z</time>
      </trkpt>
      <trkpt lat="48.42604" lon="-1.57305">
        <ele>102.7</ele>
        <time>2019-07-16T12:52:00Z</time>
      </trkpt>
      <trkpt lat="48.42603" lon="-1.57309">
        <ele>102</ele>
        <time>2019-07-16T12:52:01Z</time>
      </trkpt>
      <trkpt lat="48.42603" lon="-1.57313">
        <ele>101.4</ele>
        <time>2019-07-16T12:52:02Z</time>
      </trkpt>
      <trkpt lat="48.42603" lon="-1.57318">
        <ele>100.8</ele>
        <time>2019-07-16T12:52:03Z</time>
      </trkpt>
      <trkpt lat="48.42602" lon="-1.57322">
        <ele>100.7</ele>
        <time>2019-07-16T12:52:04Z</time>
      </trkpt>
      <trkpt lat="48.42602" lon="-1.57325">
        <ele>100.3</ele>
        <time>2019-07-16T12:52:05Z</time>
      </trkpt>
      <trkpt lat="48.42601" lon="-1.57329">
        <ele>99.9</ele>
        <time>2019-07-16T12:52:06Z</time>
      </trkpt>
      <trkpt lat="48.42601" lon="-1.57333">
        <ele>99.7</ele>
        <time>2019-07-16T12:52:07Z</time>
      </trkpt>
      <trkpt lat="48.426" lon="-1.57337">
        <ele>99.4</ele>
        <time>2019-07-16T12:52:08Z</time>
      </trkpt>
      <trkpt lat="48.426" lon="-1.5734">
        <ele>99.3</ele>
        <time>2019-07-16T12:52:09Z</time>
      </trkpt>
      <trkpt lat="48.42599" lon="-1.57344">
        <ele>99</ele>
        <time>2019-07-16T12:52:10Z</time>
      </trkpt>
      <trkpt lat="48.42598" lon="-1.57348">
        <ele>98.7</ele>
        <time>2019-07-16T12:52:11Z</time>
      </trkpt>
      <trkpt lat="48.42599" lon="-1.57352">
        <ele>98.5</ele>
        <time>2019-07-16T12:52:12Z</time>
      </trkpt>
      <trkpt lat="48.42598" lon="-1.57357">
        <ele>97.5</ele>
        <time>2019-07-16T12:52:13Z</time>
      </trkpt>
      <trkpt lat="48.42596" lon="-1.57361">
        <ele>96.6</ele>
        <time>2019-07-16T12:52:14Z</time>
      </trkpt>
      <trkpt lat="48.42595" lon="-1.57363">
        <ele>96.4</ele>
        <time>2019-07-16T12:52:15Z</time>
      </trkpt>
      <trkpt lat="48.42593" lon="-1.57364">
        <ele>96.4</ele>
        <time>2019-07-16T12:52:16Z</time>
      </trkpt>
      <trkpt lat="48.42592" lon="-1.57367">
        <ele>96.5</ele>
        <time>2019-07-16T12:52:17Z</time>
      </trkpt>
      <trkpt lat="48.42591" lon="-1.5737">
        <ele>97.3</ele>
        <time>2019-07-16T12:52:18Z</time>
      </trkpt>
      <trkpt lat="48.42591" lon="-1.57373">
        <ele>97.8</ele>
        <time>2019-07-16T12:52:19Z</time>
      </trkpt>
      <trkpt lat="48.42591" lon="-1.57376">
        <ele>98.3</ele>
        <time>2019-07-16T12:52:20Z</time>
      </trkpt>
      <trkpt lat="48.42592" lon="-1.57378">
        <ele>99.2</ele>
        <time>2019-07-16T12:52:21Z</time>
      </trkpt>
      <trkpt lat="48.42593" lon="-1.5738">
        <ele>100</ele>
        <time>2019-07-16T12:52:22Z</time>
      </trkpt>
      <trkpt lat="48.42595" lon="-1.57383">
        <ele>100.5</ele>
        <time>2019-07-16T12:52:23Z</time>
      </trkpt>
      <trkpt lat="48.42598" lon="-1.57385">
        <ele>100.6</ele>
        <time>2019-07-16T12:52:24Z</time>
      </trkpt>
      <trkpt lat="48.426" lon="-1.57386">
        <ele>100.9</ele>
        <time>2019-07-16T12:52:25Z</time>
      </trkpt>
      <trkpt lat="48.42602" lon="-1.57388">
        <ele>100.8</ele>
        <time>2019-07-16T12:52:26Z</time>
      </trkpt>
      <trkpt lat="48.42604" lon="-1.57389">
        <ele>101.3</ele>
        <time>2019-07-16T12:52:27Z</time>
      </trkpt>
      <trkpt lat="48.42606" lon="-1.57388">
        <ele>101.6</ele>
        <time>2019-07-16T12:52:28Z</time>
      </trkpt>
      <trkpt lat="48.42608" lon="-1.57388">
        <ele>102.3</ele>
        <time>2019-07-16T12:52:29Z</time>
      </trkpt>
      <trkpt lat="48.42611" lon="-1.57389">
        <ele>102.8</ele>
        <time>2019-07-16T12:52:30Z</time>
      </trkpt>
      <trkpt lat="48.42613" lon="-1.57389">
        <ele>103.4</ele>
        <time>2019-07-16T12:52:31Z</time>
      </trkpt>
      <trkpt lat="48.42616" lon="-1.57388">
        <ele>103.3</ele>
        <time>2019-07-16T12:52:32Z</time>
      </trkpt>
      <trkpt lat="48.42618" lon="-1.5739">
        <ele>103.6</ele>
        <time>2019-07-16T12:52:33Z</time>
      </trkpt>
      <trkpt lat="48.42621" lon="-1.5739">
        <ele>103.7</ele>
        <time>2019-07-16T12:52:34Z</time>
      </trkpt>
      <trkpt lat="48.42624" lon="-1.57391">
        <ele>104</ele>
        <time>2019-07-16T12:52:35Z</time>
      </trkpt>
      <trkpt lat="48.42627" lon="-1.57391">
        <ele>104.7</ele>
        <time>2019-07-16T12:52:36Z</time>
      </trkpt>
      <trkpt lat="48.42632" lon="-1.57392">
        <ele>105.1</ele>
        <time>2019-07-16T12:52:37Z</time>
      </trkpt>
      <trkpt lat="48.42634" lon="-1.57394">
        <ele>105.2</ele>
        <time>2019-07-16T12:52:38Z</time>
      </trkpt>
      <trkpt lat="48.42637" lon="-1.57396">
        <ele>105.4</ele>
        <time>2019-07-16T12:52:39Z</time>
      </trkpt>
      <trkpt lat="48.42641" lon="-1.57398">
        <ele>106</ele>
        <time>2019-07-16T12:52:40Z</time>
      </trkpt>
      <trkpt lat="48.42643" lon="-1.57399">
        <ele>106.4</ele>
        <time>2019-07-16T12:52:41Z</time>
      </trkpt>
      <trkpt lat="48.42646" lon="-1.57401">
        <ele>106.5</ele>
        <time>2019-07-16T12:52:42Z</time>
      </trkpt>
      <trkpt lat="48.42647" lon="-1.57403">
        <ele>106.3</ele>
        <time>2019-07-16T12:52:43Z</time>
      </trkpt>
      <trkpt lat="48.42647" lon="-1.57406">
        <ele>106.2</ele>
        <time>2019-07-16T12:52:44Z</time>
      </trkpt>
      <trkpt lat="48.42648" lon="-1.57409">
        <ele>105.9</ele>
        <time>2019-07-16T12:52:45Z</time>
      </trkpt>
      <trkpt lat="48.4265" lon="-1.57413">
        <ele>106.1</ele>
        <time>2019-07-16T12:52:46Z</time>
      </trkpt>
      <trkpt lat="48.4265" lon="-1.57416">
        <ele>106.3</ele>
        <time>2019-07-16T12:52:47Z</time>
      </trkpt>
      <trkpt lat="48.42651" lon="-1.5742">
        <ele>106.1</ele>
        <time>2019-07-16T12:52:48Z</time>
      </trkpt>
      <trkpt lat="48.42653" lon="-1.57424">
        <ele>105.7</ele>
        <time>2019-07-16T12:52:49Z</time>
      </trkpt>
      <trkpt lat="48.42654" lon="-1.57427">
        <ele>105.2</ele>
        <time>2019-07-16T12:52:50Z</time>
      </trkpt>
      <trkpt lat="48.42655" lon="-1.57431">
        <ele>104.8</ele>
        <time>2019-07-16T12:52:51Z</time>
      </trkpt>
      <trkpt lat="48.42656" lon="-1.57435">
        <ele>104.4</ele>
        <time>2019-07-16T12:52:52Z</time>
      </trkpt>
      <trkpt lat="48.42657" lon="-1.57439">
        <ele>104.1</ele>
        <time>2019-07-16T12:52:53Z</time>
      </trkpt>
      <trkpt lat="48.42658" lon="-1.57443">
        <ele>103.6</ele>
        <time>2019-07-16T12:52:54Z</time>
      </trkpt>
      <trkpt lat="48.42659" lon="-1.57446">
        <ele>103.4</ele>
        <time>2019-07-16T12:52:55Z</time>
      </trkpt>
      <trkpt lat="48.42659" lon="-1.5745">
        <ele>103.4</ele>
        <time>2019-07-16T12:52:56Z</time>
      </trkpt>
      <trkpt lat="48.42661" lon="-1.57453">
        <ele>103.6</ele>
        <time>2019-07-16T12:52:57Z</time>
      </trkpt>
      <trkpt lat="48.42661" lon="-1.57456">
        <ele>103.3</ele>
        <time>2019-07-16T12:52:58Z</time>
      </trkpt>
      <trkpt lat="48.42662" lon="-1.57459">
        <ele>103.3</ele>
        <time>2019-07-16T12:52:59Z</time>
      </trkpt>
      <trkpt lat="48.42663" lon="-1.57462">
        <ele>103.2</ele>
        <time>2019-07-16T12:53:00Z</time>
      </trkpt>
      <trkpt lat="48.42664" lon="-1.57465">
        <ele>103.4</ele>
        <time>2019-07-16T12:53:01Z</time>
      </trkpt>
      <trkpt lat="48.42665" lon="-1.57468">
        <ele>103.4</ele>
        <time>2019-07-16T12:53:02Z</time>
      </trkpt>
      <trkpt lat="48.42665" lon="-1.57472">
        <ele>104</ele>
        <time>2019-07-16T12:53:03Z</time>
      </trkpt>
      <trkpt lat="48.42666" lon="-1.57475">
        <ele>104.4</ele>
        <time>2019-07-16T12:53:04Z</time>
      </trkpt>
      <trkpt lat="48.42666" lon="-1.57478">
        <ele>105.3</ele>
        <time>2019-07-16T12:53:05Z</time>
      </trkpt>
      <trkpt lat="48.42666" lon="-1.57482">
        <ele>106.2</ele>
        <time>2019-07-16T12:53:06Z</time>
      </trkpt>
      <trkpt lat="48.42667" lon="-1.57485">
        <ele>106.8</ele>
        <time>2019-07-16T12:53:07Z</time>
      </trkpt>
      <trkpt lat="48.42667" lon="-1.57488">
        <ele>107.2</ele>
        <time>2019-07-16T12:53:08Z</time>
      </trkpt>
      <trkpt lat="48.42667" lon="-1.5749">
        <ele>107.6</ele>
        <time>2019-07-16T12:53:09Z</time>
      </trkpt>
      <trkpt lat="48.42667" lon="-1.57492">
        <ele>107.9</ele>
        <time>2019-07-16T12:53:10Z</time>
      </trkpt>
      <trkpt lat="48.42668" lon="-1.57503">
        <ele>108.6</ele>
        <time>2019-07-16T12:53:27Z</time>
      </trkpt>
      <trkpt lat="48.42668" lon="-1.57505">
        <ele>109.8</ele>
        <time>2019-07-16T12:53:28Z</time>
      </trkpt>
      <trkpt lat="48.42669" lon="-1.57507">
        <ele>110.5</ele>
        <time>2019-07-16T12:53:29Z</time>
      </trkpt>
      <trkpt lat="48.4267" lon="-1.57508">
        <ele>111</ele>
        <time>2019-07-16T12:53:30Z</time>
      </trkpt>
      <trkpt lat="48.42672" lon="-1.57508">
        <ele>111.3</ele>
        <time>2019-07-16T12:53:31Z</time>
      </trkpt>
      <trkpt lat="48.42673" lon="-1.57509">
        <ele>111.8</ele>
        <time>2019-07-16T12:53:32Z</time>
      </trkpt>
      <trkpt lat="48.42675" lon="-1.5751">
        <ele>112</ele>
        <time>2019-07-16T12:53:33Z</time>
      </trkpt>
      <trkpt lat="48.42677" lon="-1.5751">
        <ele>112.6</ele>
        <time>2019-07-16T12:53:34Z</time>
      </trkpt>
      <trkpt lat="48.42685" lon="-1.57507">
        <ele>114.4</ele>
        <time>2019-07-16T12:56:23Z</time>
      </trkpt>
      <trkpt lat="48.42687" lon="-1.57507">
        <ele>114.2</ele>
        <time>2019-07-16T12:56:24Z</time>
      </trkpt>
      <trkpt lat="48.42689" lon="-1.57508">
        <ele>114</ele>
        <time>2019-07-16T12:56:25Z</time>
      </trkpt>
      <trkpt lat="48.42691" lon="-1.5751">
        <ele>114</ele>
        <time>2019-07-16T12:56:26Z</time>
      </trkpt>
      <trkpt lat="48.42693" lon="-1.57511">
        <ele>114</ele>
        <time>2019-07-16T12:56:27Z</time>
      </trkpt>
      <trkpt lat="48.42696" lon="-1.57512">
        <ele>114</ele>
        <time>2019-07-16T12:56:28Z</time>
      </trkpt>
      <trkpt lat="48.42698" lon="-1.57513">
        <ele>113.9</ele>
        <time>2019-07-16T12:56:29Z</time>
      </trkpt>
      <trkpt lat="48.42701" lon="-1.57513">
        <ele>113.5</ele>
        <time>2019-07-16T12:56:30Z</time>
      </trkpt>
      <trkpt lat="48.42703" lon="-1.57514">
        <ele>113.3</ele>
        <time>2019-07-16T12:56:31Z</time>
      </trkpt>
      <trkpt lat="48.42706" lon="-1.57514">
        <ele>112.8</ele>
        <time>2019-07-16T12:56:32Z</time>
      </trkpt>
      <trkpt lat="48.42709" lon="-1.57513">
        <ele>112.2</ele>
        <time>2019-07-16T12:56:33Z</time>
      </trkpt>
      <trkpt lat="48.42712" lon="-1.57513">
        <ele>111.7</ele>
        <time>2019-07-16T12:56:34Z</time>
      </trkpt>
      <trkpt lat="48.42713" lon="-1.57512">
        <ele>111.5</ele>
        <time>2019-07-16T12:56:35Z</time>
      </trkpt>
      <trkpt lat="48.42715" lon="-1.57511">
        <ele>111.4</ele>
        <time>2019-07-16T12:56:36Z</time>
      </trkpt>
      <trkpt lat="48.42718" lon="-1.5751">
        <ele>110.9</ele>
        <time>2019-07-16T12:56:37Z</time>
      </trkpt>
      <trkpt lat="48.42719" lon="-1.57509">
        <ele>111.9</ele>
        <time>2019-07-16T12:56:38Z</time>
      </trkpt>
      <trkpt lat="48.42722" lon="-1.57509">
        <ele>112.2</ele>
        <time>2019-07-16T12:56:39Z</time>
      </trkpt>
      <trkpt lat="48.42724" lon="-1.57508">
        <ele>112.7</ele>
        <time>2019-07-16T12:56:40Z</time>
      </trkpt>
      <trkpt lat="48.42726" lon="-1.57508">
        <ele>112.8</ele>
        <time>2019-07-16T12:56:41Z</time>
      </trkpt>
      <trkpt lat="48.42728" lon="-1.57507">
        <ele>113</ele>
        <time>2019-07-16T12:56:42Z</time>
      </trkpt>
      <trkpt lat="48.4273" lon="-1.57506">
        <ele>113.2</ele>
        <time>2019-07-16T12:56:43Z</time>
      </trkpt>
      <trkpt lat="48.42732" lon="-1.57506">
        <ele>113.3</ele>
        <time>2019-07-16T12:56:44Z</time>
      </trkpt>
      <trkpt lat="48.42733" lon="-1.57505">
        <ele>113.1</ele>
        <time>2019-07-16T12:56:45Z</time>
      </trkpt>
      <trkpt lat="48.42735" lon="-1.57504">
        <ele>112.8</ele>
        <time>2019-07-16T12:56:46Z</time>
      </trkpt>
      <trkpt lat="48.42736" lon="-1.57503">
        <ele>112.5</ele>
        <time>2019-07-16T12:56:47Z</time>
      </trkpt>
      <trkpt lat="48.42737" lon="-1.57503">
        <ele>112.2</ele>
        <time>2019-07-16T12:56:48Z</time>
      </trkpt>
      <trkpt lat="48.42738" lon="-1.57501">
        <ele>112.1</ele>
        <time>2019-07-16T12:56:49Z</time>
      </trkpt>
      <trkpt lat="48.4274" lon="-1.57497">
        <ele>111.8</ele>
        <time>2019-07-16T12:56:50Z</time>
      </trkpt>
      <trkpt lat="48.42741" lon="-1.57494">
        <ele>111.1</ele>
        <time>2019-07-16T12:56:51Z</time>
      </trkpt>
      <trkpt lat="48.42741" lon="-1.57491">
        <ele>109.9</ele>
        <time>2019-07-16T12:56:52Z</time>
      </trkpt>
      <trkpt lat="48.42742" lon="-1.57489">
        <ele>108.9</ele>
        <time>2019-07-16T12:56:53Z</time>
      </trkpt>
      <trkpt lat="48.42743" lon="-1.57487">
        <ele>108.1</ele>
        <time>2019-07-16T12:56:54Z</time>
      </trkpt>
      <trkpt lat="48.42744" lon="-1.57485">
        <ele>107.6</ele>
        <time>2019-07-16T12:56:55Z</time>
      </trkpt>
      <trkpt lat="48.42744" lon="-1.57483">
        <ele>107.2</ele>
        <time>2019-07-16T12:56:56Z</time>
      </trkpt>
      <trkpt lat="48.42744" lon="-1.57481">
        <ele>106.8</ele>
        <time>2019-07-16T12:56:57Z</time>
      </trkpt>
      <trkpt lat="48.42744" lon="-1.57479">
        <ele>106</ele>
        <time>2019-07-16T12:56:58Z</time>
      </trkpt>
      <trkpt lat="48.42744" lon="-1.57477">
        <ele>105.5</ele>
        <time>2019-07-16T12:56:59Z</time>
      </trkpt>
      <trkpt lat="48.42745" lon="-1.57475">
        <ele>105.1</ele>
        <time>2019-07-16T12:57:00Z</time>
      </trkpt>
      <trkpt lat="48.42745" lon="-1.57473">
        <ele>104.7</ele>
        <time>2019-07-16T12:57:01Z</time>
      </trkpt>
      <trkpt lat="48.42746" lon="-1.5747">
        <ele>104.3</ele>
        <time>2019-07-16T12:57:02Z</time>
      </trkpt>
      <trkpt lat="48.42747" lon="-1.57467">
        <ele>104.1</ele>
        <time>2019-07-16T12:57:03Z</time>
      </trkpt>
      <trkpt lat="48.42748" lon="-1.57464">
        <ele>104.1</ele>
        <time>2019-07-16T12:57:04Z</time>
      </trkpt>
      <trkpt lat="48.42749" lon="-1.57461">
        <ele>104</ele>
        <time>2019-07-16T12:57:05Z</time>
      </trkpt>
      <trkpt lat="48.4275" lon="-1.57457">
        <ele>103.7</ele>
        <time>2019-07-16T12:57:06Z</time>
      </trkpt>
      <trkpt lat="48.42751" lon="-1.57453">
        <ele>103.4</ele>
        <time>2019-07-16T12:57:07Z</time>
      </trkpt>
      <trkpt lat="48.42752" lon="-1.5745">
        <ele>103.1</ele>
        <time>2019-07-16T12:57:08Z</time>
      </trkpt>
      <trkpt lat="48.42754" lon="-1.57446">
        <ele>102.3</ele>
        <time>2019-07-16T12:57:09Z</time>
      </trkpt>
      <trkpt lat="48.42756" lon="-1.57443">
        <ele>101.9</ele>
        <time>2019-07-16T12:57:10Z</time>
      </trkpt>
      <trkpt lat="48.42757" lon="-1.5744">
        <ele>101.6</ele>
        <time>2019-07-16T12:57:11Z</time>
      </trkpt>
      <trkpt lat="48.42757" lon="-1.57438">
        <ele>101.3</ele>
        <time>2019-07-16T12:57:12Z</time>
      </trkpt>
      <trkpt lat="48.42758" lon="-1.57436">
        <ele>101.2</ele>
        <time>2019-07-16T12:57:13Z</time>
      </trkpt>
      <trkpt lat="48.42759" lon="-1.57436">
        <ele>101.2</ele>
        <time>2019-07-16T12:57:14Z</time>
      </trkpt>
      <trkpt lat="48.4276" lon="-1.57436">
        <ele>101.2</ele>
        <time>2019-07-16T12:57:15Z</time>
      </trkpt>
      <trkpt lat="48.42762" lon="-1.57435">
        <ele>101.1</ele>
        <time>2019-07-16T12:57:16Z</time>
      </trkpt>
      <trkpt lat="48.42763" lon="-1.57435">
        <ele>101.6</ele>
        <time>2019-07-16T12:57:17Z</time>
      </trkpt>
      <trkpt lat="48.42764" lon="-1.57435">
        <ele>101.7</ele>
        <time>2019-07-16T12:57:18Z</time>
      </trkpt>
      <trkpt lat="48.42765" lon="-1.57434">
        <ele>101.4</ele>
        <time>2019-07-16T12:57:19Z</time>
      </trkpt>
      <trkpt lat="48.42766" lon="-1.57434">
        <ele>101.3</ele>
        <time>2019-07-16T12:57:20Z</time>
      </trkpt>
      <trkpt lat="48.42769" lon="-1.57441">
        <ele>100.6</ele>
        <time>2019-07-16T12:58:24Z</time>
      </trkpt>
      <trkpt lat="48.4277" lon="-1.57443">
        <ele>100.6</ele>
        <time>2019-07-16T12:58:25Z</time>
      </trkpt>
      <trkpt lat="48.42771" lon="-1.57447">
        <ele>100.2</ele>
        <time>2019-07-16T12:58:26Z</time>
      </trkpt>
      <trkpt lat="48.42773" lon="-1.5745">
        <ele>99.8</ele>
        <time>2019-07-16T12:58:27Z</time>
      </trkpt>
      <trkpt lat="48.42773" lon="-1.57453">
        <ele>99.4</ele>
        <time>2019-07-16T12:58:28Z</time>
      </trkpt>
      <trkpt lat="48.42774" lon="-1.57455">
        <ele>98.8</ele>
        <time>2019-07-16T12:58:29Z</time>
      </trkpt>
      <trkpt lat="48.42775" lon="-1.57458">
        <ele>98.4</ele>
        <time>2019-07-16T12:58:30Z</time>
      </trkpt>
      <trkpt lat="48.42775" lon="-1.5746">
        <ele>97.6</ele>
        <time>2019-07-16T12:58:31Z</time>
      </trkpt>
      <trkpt lat="48.42777" lon="-1.57462">
        <ele>96.7</ele>
        <time>2019-07-16T12:58:32Z</time>
      </trkpt>
      <trkpt lat="48.42779" lon="-1.57463">
        <ele>96.2</ele>
        <time>2019-07-16T12:58:33Z</time>
      </trkpt>
      <trkpt lat="48.4278" lon="-1.57465">
        <ele>95.8</ele>
        <time>2019-07-16T12:58:34Z</time>
      </trkpt>
      <trkpt lat="48.42781" lon="-1.57467">
        <ele>95.2</ele>
        <time>2019-07-16T12:58:35Z</time>
      </trkpt>
      <trkpt lat="48.42782" lon="-1.57469">
        <ele>94.8</ele>
        <time>2019-07-16T12:58:36Z</time>
      </trkpt>
      <trkpt lat="48.42783" lon="-1.57473">
        <ele>94.5</ele>
        <time>2019-07-16T12:58:37Z</time>
      </trkpt>
      <trkpt lat="48.42784" lon="-1.57478">
        <ele>94.7</ele>
        <time>2019-07-16T12:58:38Z</time>
      </trkpt>
      <trkpt lat="48.42786" lon="-1.57483">
        <ele>94.7</ele>
        <time>2019-07-16T12:58:39Z</time>
      </trkpt>
      <trkpt lat="48.42787" lon="-1.57488">
        <ele>94.5</ele>
        <time>2019-07-16T12:58:40Z</time>
      </trkpt>
      <trkpt lat="48.42789" lon="-1.57493">
        <ele>94.2</ele>
        <time>2019-07-16T12:58:41Z</time>
      </trkpt>
      <trkpt lat="48.42791" lon="-1.57499">
        <ele>93.8</ele>
        <time>2019-07-16T12:58:42Z</time>
      </trkpt>
      <trkpt lat="48.42793" lon="-1.57505">
        <ele>93.6</ele>
        <time>2019-07-16T12:58:43Z</time>
      </trkpt>
      <trkpt lat="48.42795" lon="-1.5751">
        <ele>93.5</ele>
        <time>2019-07-16T12:58:44Z</time>
      </trkpt>
      <trkpt lat="48.42796" lon="-1.57516">
        <ele>93.3</ele>
        <time>2019-07-16T12:58:45Z</time>
      </trkpt>
      <trkpt lat="48.42799" lon="-1.57521">
        <ele>93</ele>
        <time>2019-07-16T12:58:46Z</time>
      </trkpt>
      <trkpt lat="48.42802" lon="-1.57525">
        <ele>92.6</ele>
        <time>2019-07-16T12:58:47Z</time>
      </trkpt>
      <trkpt lat="48.42804" lon="-1.5753">
        <ele>92.2</ele>
        <time>2019-07-16T12:58:48Z</time>
      </trkpt>
      <trkpt lat="48.42807" lon="-1.57534">
        <ele>91.7</ele>
        <time>2019-07-16T12:58:49Z</time>
      </trkpt>
      <trkpt lat="48.42809" lon="-1.57538">
        <ele>91</ele>
        <time>2019-07-16T12:58:50Z</time>
      </trkpt>
      <trkpt lat="48.42812" lon="-1.57543">
        <ele>90.4</ele>
        <time>2019-07-16T12:58:51Z</time>
      </trkpt>
      <trkpt lat="48.42815" lon="-1.57546">
        <ele>90.5</ele>
        <time>2019-07-16T12:58:52Z</time>
      </trkpt>
      <trkpt lat="48.42819" lon="-1.5755">
        <ele>90.4</ele>
        <time>2019-07-16T12:58:53Z</time>
      </trkpt>
      <trkpt lat="48.42823" lon="-1.57554">
        <ele>90.2</ele>
        <time>2019-07-16T12:58:54Z</time>
      </trkpt>
      <trkpt lat="48.42827" lon="-1.57557">
        <ele>90.1</ele>
        <time>2019-07-16T12:58:55Z</time>
      </trkpt>
      <trkpt lat="48.42831" lon="-1.57559">
        <ele>89.6</ele>
        <time>2019-07-16T12:58:56Z</time>
      </trkpt>
      <trkpt lat="48.42836" lon="-1.57562">
        <ele>89.1</ele>
        <time>2019-07-16T12:58:57Z</time>
      </trkpt>
      <trkpt lat="48.42841" lon="-1.57565">
        <ele>88.5</ele>
        <time>2019-07-16T12:58:58Z</time>
      </trkpt>
      <trkpt lat="48.42847" lon="-1.57567">
        <ele>88.1</ele>
        <time>2019-07-16T12:58:59Z</time>
      </trkpt>
      <trkpt lat="48.42851" lon="-1.5757">
        <ele>87.8</ele>
        <time>2019-07-16T12:59:00Z</time>
      </trkpt>
      <trkpt lat="48.42856" lon="-1.57573">
        <ele>87.4</ele>
        <time>2019-07-16T12:59:01Z</time>
      </trkpt>
      <trkpt lat="48.42861" lon="-1.57576">
        <ele>87</ele>
        <time>2019-07-16T12:59:02Z</time>
      </trkpt>
      <trkpt lat="48.42865" lon="-1.5758">
        <ele>86.5</ele>
        <time>2019-07-16T12:59:03Z</time>
      </trkpt>
      <trkpt lat="48.4287" lon="-1.57583">
        <ele>86.7</ele>
        <time>2019-07-16T12:59:04Z</time>
      </trkpt>
      <trkpt lat="48.42874" lon="-1.57587">
        <ele>87</ele>
        <time>2019-07-16T12:59:05Z</time>
      </trkpt>
      <trkpt lat="48.42878" lon="-1.5759">
        <ele>87.1</ele>
        <time>2019-07-16T12:59:06Z</time>
      </trkpt>
      <trkpt lat="48.42881" lon="-1.57593">
        <ele>87.2</ele>
        <time>2019-07-16T12:59:07Z</time>
      </trkpt>
      <trkpt lat="48.42885" lon="-1.57595">
        <ele>87</ele>
        <time>2019-07-16T12:59:08Z</time>
      </trkpt>
      <trkpt lat="48.42888" lon="-1.57596">
        <ele>87.4</ele>
        <time>2019-07-16T12:59:09Z</time>
      </trkpt>
      <trkpt lat="48.4289" lon="-1.57596">
        <ele>88.3</ele>
        <time>2019-07-16T12:59:10Z</time>
      </trkpt>
      <trkpt lat="48.42894" lon="-1.57593">
        <ele>88.4</ele>
        <time>2019-07-16T12:59:11Z</time>
      </trkpt>
      <trkpt lat="48.42897" lon="-1.5759">
        <ele>88.2</ele>
        <time>2019-07-16T12:59:12Z</time>
      </trkpt>
      <trkpt lat="48.42901" lon="-1.57586">
        <ele>88.1</ele>
        <time>2019-07-16T12:59:13Z</time>
      </trkpt>
      <trkpt lat="48.42904" lon="-1.57583">
        <ele>88.2</ele>
        <time>2019-07-16T12:59:14Z</time>
      </trkpt>
      <trkpt lat="48.42906" lon="-1.5758">
        <ele>87.9</ele>
        <time>2019-07-16T12:59:15Z</time>
      </trkpt>
      <trkpt lat="48.42908" lon="-1.57578">
        <ele>87.7</ele>
        <time>2019-07-16T12:59:16Z</time>
      </trkpt>
      <trkpt lat="48.42909" lon="-1.57577">
        <ele>87.8</ele>
        <time>2019-07-16T12:59:17Z</time>
      </trkpt>
      <trkpt lat="48.42912" lon="-1.5757">
        <ele>87.7</ele>
        <time>2019-07-16T12:59:50Z</time>
      </trkpt>
      <trkpt lat="48.42912" lon="-1.57568">
        <ele>87.9</ele>
        <time>2019-07-16T12:59:51Z</time>
      </trkpt>
      <trkpt lat="48.42913" lon="-1.57566">
        <ele>88</ele>
        <time>2019-07-16T12:59:52Z</time>
      </trkpt>
      <trkpt lat="48.42913" lon="-1.57564">
        <ele>88.2</ele>
        <time>2019-07-16T12:59:53Z</time>
      </trkpt>
      <trkpt lat="48.42913" lon="-1.57562">
        <ele>88.3</ele>
        <time>2019-07-16T12:59:54Z</time>
      </trkpt>
      <trkpt lat="48.42914" lon="-1.57559">
        <ele>88.4</ele>
        <time>2019-07-16T12:59:55Z</time>
      </trkpt>
      <trkpt lat="48.42915" lon="-1.57556">
        <ele>88.5</ele>
        <time>2019-07-16T12:59:56Z</time>
      </trkpt>
      <trkpt lat="48.42915" lon="-1.57554">
        <ele>88.4</ele>
        <time>2019-07-16T12:59:57Z</time>
      </trkpt>
      <trkpt lat="48.42915" lon="-1.5755">
        <ele>88.5</ele>
        <time>2019-07-16T12:59:58Z</time>
      </trkpt>
      <trkpt lat="48.42915" lon="-1.57547">
        <ele>88</ele>
        <time>2019-07-16T12:59:59Z</time>
      </trkpt>
      <trkpt lat="48.42916" lon="-1.57542">
        <ele>87.6</ele>
        <time>2019-07-16T13:00:00Z</time>
      </trkpt>
      <trkpt lat="48.42916" lon="-1.57538">
        <ele>87.4</ele>
        <time>2019-07-16T13:00:01Z</time>
      </trkpt>
      <trkpt lat="48.42916" lon="-1.57532">
        <ele>87.2</ele>
        <time>2019-07-16T13:00:02Z</time>
      </trkpt>
      <trkpt lat="48.42917" lon="-1.57519">
        <ele>86</ele>
        <time>2019-07-16T13:00:04Z</time>
      </trkpt>
      <trkpt lat="48.42917" lon="-1.57512">
        <ele>85.5</ele>
        <time>2019-07-16T13:00:05Z</time>
      </trkpt>
      <trkpt lat="48.42917" lon="-1.57505">
        <ele>85.2</ele>
        <time>2019-07-16T13:00:06Z</time>
      </trkpt>
      <trkpt lat="48.42918" lon="-1.57496">
        <ele>84.6</ele>
        <time>2019-07-16T13:00:07Z</time>
      </trkpt>
      <trkpt lat="48.42918" lon="-1.57488">
        <ele>84.7</ele>
        <time>2019-07-16T13:00:08Z</time>
      </trkpt>
      <trkpt lat="48.42918" lon="-1.57479">
        <ele>84.3</ele>
        <time>2019-07-16T13:00:09Z</time>
      </trkpt>
      <trkpt lat="48.42919" lon="-1.5747">
        <ele>83.5</ele>
        <time>2019-07-16T13:00:10Z</time>
      </trkpt>
      <trkpt lat="48.42919" lon="-1.5746">
        <ele>83</ele>
        <time>2019-07-16T13:00:11Z</time>
      </trkpt>
      <trkpt lat="48.4292" lon="-1.5745">
        <ele>82.5</ele>
        <time>2019-07-16T13:00:12Z</time>
      </trkpt>
      <trkpt lat="48.42921" lon="-1.57439">
        <ele>82.2</ele>
        <time>2019-07-16T13:00:13Z</time>
      </trkpt>
      <trkpt lat="48.42921" lon="-1.57429">
        <ele>81.9</ele>
        <time>2019-07-16T13:00:14Z</time>
      </trkpt>
      <trkpt lat="48.42922" lon="-1.57418">
        <ele>81.3</ele>
        <time>2019-07-16T13:00:15Z</time>
      </trkpt>
      <trkpt lat="48.42922" lon="-1.57406">
        <ele>80.7</ele>
        <time>2019-07-16T13:00:16Z</time>
      </trkpt>
      <trkpt lat="48.42923" lon="-1.57395">
        <ele>80.4</ele>
        <time>2019-07-16T13:00:17Z</time>
      </trkpt>
      <trkpt lat="48.42924" lon="-1.57384">
        <ele>79.7</ele>
        <time>2019-07-16T13:00:18Z</time>
      </trkpt>
      <trkpt lat="48.42925" lon="-1.57373">
        <ele>78.9</ele>
        <time>2019-07-16T13:00:19Z</time>
      </trkpt>
      <trkpt lat="48.42925" lon="-1.57363">
        <ele>78.5</ele>
        <time>2019-07-16T13:00:20Z</time>
      </trkpt>
      <trkpt lat="48.42926" lon="-1.57352">
        <ele>77.7</ele>
        <time>2019-07-16T13:00:21Z</time>
      </trkpt>
      <trkpt lat="48.42927" lon="-1.57341">
        <ele>76.8</ele>
        <time>2019-07-16T13:00:22Z</time>
      </trkpt>
      <trkpt lat="48.42928" lon="-1.5733">
        <ele>75.6</ele>
        <time>2019-07-16T13:00:23Z</time>
      </trkpt>
      <trkpt lat="48.42928" lon="-1.57317">
        <ele>74.4</ele>
        <time>2019-07-16T13:00:24Z</time>
      </trkpt>
      <trkpt lat="48.42928" lon="-1.57305">
        <ele>73.1</ele>
        <time>2019-07-16T13:00:25Z</time>
      </trkpt>
      <trkpt lat="48.42928" lon="-1.57292">
        <ele>71.8</ele>
        <time>2019-07-16T13:00:26Z</time>
      </trkpt>
      <trkpt lat="48.42928" lon="-1.57279">
        <ele>70.7</ele>
        <time>2019-07-16T13:00:27Z</time>
      </trkpt>
      <trkpt lat="48.42928" lon="-1.57266">
        <ele>69.9</ele>
        <time>2019-07-16T13:00:28Z</time>
      </trkpt>
      <trkpt lat="48.42929" lon="-1.57254">
        <ele>69.3</ele>
        <time>2019-07-16T13:00:29Z</time>
      </trkpt>
      <trkpt lat="48.42929" lon="-1.57241">
        <ele>68.6</ele>
        <time>2019-07-16T13:00:30Z</time>
      </trkpt>
      <trkpt lat="48.4293" lon="-1.57229">
        <ele>68.3</ele>
        <time>2019-07-16T13:00:31Z</time>
      </trkpt>
      <trkpt lat="48.42931" lon="-1.57218">
        <ele>68.6</ele>
        <time>2019-07-16T13:00:32Z</time>
      </trkpt>
      <trkpt lat="48.42933" lon="-1.57208">
        <ele>69.2</ele>
        <time>2019-07-16T13:00:33Z</time>
      </trkpt>
      <trkpt lat="48.42934" lon="-1.57197">
        <ele>70.2</ele>
        <time>2019-07-16T13:00:34Z</time>
      </trkpt>
      <trkpt lat="48.42934" lon="-1.57188">
        <ele>70.5</ele>
        <time>2019-07-16T13:00:35Z</time>
      </trkpt>
      <trkpt lat="48.42935" lon="-1.5718">
        <ele>70.8</ele>
        <time>2019-07-16T13:00:36Z</time>
      </trkpt>
      <trkpt lat="48.42935" lon="-1.57173">
        <ele>70.6</ele>
        <time>2019-07-16T13:00:37Z</time>
      </trkpt>
      <trkpt lat="48.42935" lon="-1.57166">
        <ele>70.1</ele>
        <time>2019-07-16T13:00:38Z</time>
      </trkpt>
      <trkpt lat="48.42935" lon="-1.5716">
        <ele>69.9</ele>
        <time>2019-07-16T13:00:39Z</time>
      </trkpt>
      <trkpt lat="48.42935" lon="-1.57156">
        <ele>69.3</ele>
        <time>2019-07-16T13:00:40Z</time>
      </trkpt>
      <trkpt lat="48.42936" lon="-1.57152">
        <ele>69.1</ele>
        <time>2019-07-16T13:00:41Z</time>
      </trkpt>
      <trkpt lat="48.42936" lon="-1.57148">
        <ele>69.7</ele>
        <time>2019-07-16T13:00:42Z</time>
      </trkpt>
      <trkpt lat="48.42935" lon="-1.57143">
        <ele>69.7</ele>
        <time>2019-07-16T13:00:43Z</time>
      </trkpt>
      <trkpt lat="48.42936" lon="-1.57139">
        <ele>70</ele>
        <time>2019-07-16T13:00:44Z</time>
      </trkpt>
      <trkpt lat="48.42936" lon="-1.57135">
        <ele>70.1</ele>
        <time>2019-07-16T13:00:45Z</time>
      </trkpt>
      <trkpt lat="48.42936" lon="-1.5713">
        <ele>70.9</ele>
        <time>2019-07-16T13:00:46Z</time>
      </trkpt>
      <trkpt lat="48.42937" lon="-1.57126">
        <ele>71</ele>
        <time>2019-07-16T13:00:47Z</time>
      </trkpt>
      <trkpt lat="48.42938" lon="-1.57122">
        <ele>71.5</ele>
        <time>2019-07-16T13:00:48Z</time>
      </trkpt>
      <trkpt lat="48.42938" lon="-1.57118">
        <ele>72.1</ele>
        <time>2019-07-16T13:00:49Z</time>
      </trkpt>
      <trkpt lat="48.42939" lon="-1.57115">
        <ele>73</ele>
        <time>2019-07-16T13:00:50Z</time>
      </trkpt>
      <trkpt lat="48.4294" lon="-1.57111">
        <ele>73</ele>
        <time>2019-07-16T13:00:51Z</time>
      </trkpt>
      <trkpt lat="48.42941" lon="-1.57108">
        <ele>72.6</ele>
        <time>2019-07-16T13:00:52Z</time>
      </trkpt>
      <trkpt lat="48.42942" lon="-1.57105">
        <ele>72.5</ele>
        <time>2019-07-16T13:00:53Z</time>
      </trkpt>
      <trkpt lat="48.42943" lon="-1.57101">
        <ele>72.5</ele>
        <time>2019-07-16T13:00:54Z</time>
      </trkpt>
      <trkpt lat="48.42944" lon="-1.57098">
        <ele>72.7</ele>
        <time>2019-07-16T13:00:55Z</time>
      </trkpt>
      <trkpt lat="48.42945" lon="-1.57095">
        <ele>72.9</ele>
        <time>2019-07-16T13:00:56Z</time>
      </trkpt>
      <trkpt lat="48.42947" lon="-1.57091">
        <ele>73.2</ele>
        <time>2019-07-16T13:00:57Z</time>
      </trkpt>
      <trkpt lat="48.42949" lon="-1.57088">
        <ele>73.6</ele>
        <time>2019-07-16T13:00:58Z</time>
      </trkpt>
      <trkpt lat="48.4295" lon="-1.57085">
        <ele>73.8</ele>
        <time>2019-07-16T13:00:59Z</time>
      </trkpt>
      <trkpt lat="48.42952" lon="-1.57082">
        <ele>74.3</ele>
        <time>2019-07-16T13:01:00Z</time>
      </trkpt>
      <trkpt lat="48.42954" lon="-1.57079">
        <ele>74.4</ele>
        <time>2019-07-16T13:01:01Z</time>
      </trkpt>
      <trkpt lat="48.42955" lon="-1.57076">
        <ele>74.4</ele>
        <time>2019-07-16T13:01:02Z</time>
      </trkpt>
      <trkpt lat="48.42957" lon="-1.57074">
        <ele>74.2</ele>
        <time>2019-07-16T13:01:03Z</time>
      </trkpt>
      <trkpt lat="48.42959" lon="-1.57072">
        <ele>74.8</ele>
        <time>2019-07-16T13:01:04Z</time>
      </trkpt>
      <trkpt lat="48.42961" lon="-1.5707">
        <ele>75.4</ele>
        <time>2019-07-16T13:01:05Z</time>
      </trkpt>
      <trkpt lat="48.42963" lon="-1.57067">
        <ele>75.7</ele>
        <time>2019-07-16T13:01:06Z</time>
      </trkpt>
      <trkpt lat="48.42965" lon="-1.57065">
        <ele>76.2</ele>
        <time>2019-07-16T13:01:07Z</time>
      </trkpt>
      <trkpt lat="48.42967" lon="-1.57063">
        <ele>76.6</ele>
        <time>2019-07-16T13:01:08Z</time>
      </trkpt>
      <trkpt lat="48.42968" lon="-1.57061">
        <ele>77.4</ele>
        <time>2019-07-16T13:01:09Z</time>
      </trkpt>
      <trkpt lat="48.4297" lon="-1.57059">
        <ele>78</ele>
        <time>2019-07-16T13:01:10Z</time>
      </trkpt>
      <trkpt lat="48.42972" lon="-1.57057">
        <ele>78.1</ele>
        <time>2019-07-16T13:01:11Z</time>
      </trkpt>
      <trkpt lat="48.42974" lon="-1.57054">
        <ele>78.4</ele>
        <time>2019-07-16T13:01:12Z</time>
      </trkpt>
      <trkpt lat="48.42976" lon="-1.57052">
        <ele>78.5</ele>
        <time>2019-07-16T13:01:13Z</time>
      </trkpt>
      <trkpt lat="48.42978" lon="-1.5705">
        <ele>78.5</ele>
        <time>2019-07-16T13:01:14Z</time>
      </trkpt>
      <trkpt lat="48.42979" lon="-1.57048">
        <ele>78.5</ele>
        <time>2019-07-16T13:01:15Z</time>
      </trkpt>
      <trkpt lat="48.42981" lon="-1.57046">
        <ele>78.7</ele>
        <time>2019-07-16T13:01:16Z</time>
      </trkpt>
      <trkpt lat="48.42982" lon="-1.57044">
        <ele>79.2</ele>
        <time>2019-07-16T13:01:17Z</time>
      </trkpt>
      <trkpt lat="48.42983" lon="-1.57042">
        <ele>79.9</ele>
        <time>2019-07-16T13:01:18Z</time>
      </trkpt>
      <trkpt lat="48.42985" lon="-1.5704">
        <ele>80.8</ele>
        <time>2019-07-16T13:01:19Z</time>
      </trkpt>
      <trkpt lat="48.42987" lon="-1.57038">
        <ele>81.5</ele>
        <time>2019-07-16T13:01:20Z</time>
      </trkpt>
      <trkpt lat="48.42988" lon="-1.57036">
        <ele>81.9</ele>
        <time>2019-07-16T13:01:21Z</time>
      </trkpt>
      <trkpt lat="48.42991" lon="-1.57034">
        <ele>82.1</ele>
        <time>2019-07-16T13:01:22Z</time>
      </trkpt>
      <trkpt lat="48.42992" lon="-1.57031">
        <ele>82.5</ele>
        <time>2019-07-16T13:01:23Z</time>
      </trkpt>
      <trkpt lat="48.42994" lon="-1.57029">
        <ele>82.1</ele>
        <time>2019-07-16T13:01:24Z</time>
      </trkpt>
      <trkpt lat="48.42996" lon="-1.57026">
        <ele>81.7</ele>
        <time>2019-07-16T13:01:25Z</time>
      </trkpt>
      <trkpt lat="48.42998" lon="-1.57023">
        <ele>81.4</ele>
        <time>2019-07-16T13:01:26Z</time>
      </trkpt>
      <trkpt lat="48.43" lon="-1.57021">
        <ele>81</ele>
        <time>2019-07-16T13:01:27Z</time>
      </trkpt>
      <trkpt lat="48.43002" lon="-1.57019">
        <ele>80.9</ele>
        <time>2019-07-16T13:01:28Z</time>
      </trkpt>
      <trkpt lat="48.43004" lon="-1.57016">
        <ele>81</ele>
        <time>2019-07-16T13:01:29Z</time>
      </trkpt>
      <trkpt lat="48.43005" lon="-1.57014">
        <ele>81</ele>
        <time>2019-07-16T13:01:30Z</time>
      </trkpt>
      <trkpt lat="48.43007" lon="-1.57012">
        <ele>80.9</ele>
        <time>2019-07-16T13:01:31Z</time>
      </trkpt>
      <trkpt lat="48.4301" lon="-1.5701">
        <ele>81</ele>
        <time>2019-07-16T13:01:32Z</time>
      </trkpt>
      <trkpt lat="48.43012" lon="-1.57008">
        <ele>81</ele>
        <time>2019-07-16T13:01:33Z</time>
      </trkpt>
      <trkpt lat="48.43013" lon="-1.57006">
        <ele>81.4</ele>
        <time>2019-07-16T13:01:34Z</time>
      </trkpt>
      <trkpt lat="48.43015" lon="-1.57004">
        <ele>81.4</ele>
        <time>2019-07-16T13:01:35Z</time>
      </trkpt>
      <trkpt lat="48.43017" lon="-1.57002">
        <ele>81.8</ele>
        <time>2019-07-16T13:01:36Z</time>
      </trkpt>
      <trkpt lat="48.43019" lon="-1.56999">
        <ele>82.1</ele>
        <time>2019-07-16T13:01:37Z</time>
      </trkpt>
      <trkpt lat="48.43021" lon="-1.56996">
        <ele>82.6</ele>
        <time>2019-07-16T13:01:38Z</time>
      </trkpt>
      <trkpt lat="48.43023" lon="-1.56994">
        <ele>83</ele>
        <time>2019-07-16T13:01:39Z</time>
      </trkpt>
      <trkpt lat="48.43024" lon="-1.56992">
        <ele>83.2</ele>
        <time>2019-07-16T13:01:40Z</time>
      </trkpt>
      <trkpt lat="48.43026" lon="-1.56989">
        <ele>83.4</ele>
        <time>2019-07-16T13:01:41Z</time>
      </trkpt>
      <trkpt lat="48.43028" lon="-1.56987">
        <ele>83.7</ele>
        <time>2019-07-16T13:01:42Z</time>
      </trkpt>
      <trkpt lat="48.43029" lon="-1.56985">
        <ele>83.8</ele>
        <time>2019-07-16T13:01:43Z</time>
      </trkpt>
      <trkpt lat="48.43031" lon="-1.56983">
        <ele>84</ele>
        <time>2019-07-16T13:01:44Z</time>
      </trkpt>
      <trkpt lat="48.43033" lon="-1.56982">
        <ele>84.3</ele>
        <time>2019-07-16T13:01:45Z</time>
      </trkpt>
      <trkpt lat="48.43034" lon="-1.56979">
        <ele>84.5</ele>
        <time>2019-07-16T13:01:46Z</time>
      </trkpt>
      <trkpt lat="48.43036" lon="-1.56977">
        <ele>84.5</ele>
        <time>2019-07-16T13:01:47Z</time>
      </trkpt>
      <trkpt lat="48.43038" lon="-1.56974">
        <ele>84.3</ele>
        <time>2019-07-16T13:01:48Z</time>
      </trkpt>
      <trkpt lat="48.4304" lon="-1.56972">
        <ele>84.5</ele>
        <time>2019-07-16T13:01:49Z</time>
      </trkpt>
      <trkpt lat="48.43042" lon="-1.5697">
        <ele>84.5</ele>
        <time>2019-07-16T13:01:50Z</time>
      </trkpt>
      <trkpt lat="48.43044" lon="-1.56967">
        <ele>84.4</ele>
        <time>2019-07-16T13:01:51Z</time>
      </trkpt>
      <trkpt lat="48.43046" lon="-1.56965">
        <ele>84.4</ele>
        <time>2019-07-16T13:01:52Z</time>
      </trkpt>
      <trkpt lat="48.43049" lon="-1.56963">
        <ele>84.7</ele>
        <time>2019-07-16T13:01:53Z</time>
      </trkpt>
      <trkpt lat="48.4305" lon="-1.56961">
        <ele>85.1</ele>
        <time>2019-07-16T13:01:54Z</time>
      </trkpt>
      <trkpt lat="48.43052" lon="-1.56958">
        <ele>85.1</ele>
        <time>2019-07-16T13:01:55Z</time>
      </trkpt>
      <trkpt lat="48.43054" lon="-1.56956">
        <ele>85.4</ele>
        <time>2019-07-16T13:01:56Z</time>
      </trkpt>
      <trkpt lat="48.43055" lon="-1.56953">
        <ele>85.4</ele>
        <time>2019-07-16T13:01:57Z</time>
      </trkpt>
      <trkpt lat="48.43058" lon="-1.5695">
        <ele>85.4</ele>
        <time>2019-07-16T13:01:58Z</time>
      </trkpt>
      <trkpt lat="48.4306" lon="-1.56947">
        <ele>85.3</ele>
        <time>2019-07-16T13:01:59Z</time>
      </trkpt>
      <trkpt lat="48.43061" lon="-1.56945">
        <ele>85.4</ele>
        <time>2019-07-16T13:02:00Z</time>
      </trkpt>
      <trkpt lat="48.43063" lon="-1.56942">
        <ele>85.3</ele>
        <time>2019-07-16T13:02:01Z</time>
      </trkpt>
      <trkpt lat="48.43065" lon="-1.56939">
        <ele>85.2</ele>
        <time>2019-07-16T13:02:02Z</time>
      </trkpt>
      <trkpt lat="48.43067" lon="-1.56937">
        <ele>84.9</ele>
        <time>2019-07-16T13:02:03Z</time>
      </trkpt>
      <trkpt lat="48.43068" lon="-1.56934">
        <ele>84.4</ele>
        <time>2019-07-16T13:02:04Z</time>
      </trkpt>
      <trkpt lat="48.4307" lon="-1.56931">
        <ele>84.1</ele>
        <time>2019-07-16T13:02:05Z</time>
      </trkpt>
      <trkpt lat="48.43072" lon="-1.56928">
        <ele>84.1</ele>
        <time>2019-07-16T13:02:06Z</time>
      </trkpt>
      <trkpt lat="48.43074" lon="-1.56925">
        <ele>84.2</ele>
        <time>2019-07-16T13:02:07Z</time>
      </trkpt>
      <trkpt lat="48.43076" lon="-1.56922">
        <ele>84.2</ele>
        <time>2019-07-16T13:02:08Z</time>
      </trkpt>
      <trkpt lat="48.43078" lon="-1.56919">
        <ele>84.3</ele>
        <time>2019-07-16T13:02:09Z</time>
      </trkpt>
      <trkpt lat="48.4308" lon="-1.56916">
        <ele>84.3</ele>
        <time>2019-07-16T13:02:10Z</time>
      </trkpt>
      <trkpt lat="48.43081" lon="-1.56913">
        <ele>84.6</ele>
        <time>2019-07-16T13:02:11Z</time>
      </trkpt>
      <trkpt lat="48.43083" lon="-1.56911">
        <ele>84.9</ele>
        <time>2019-07-16T13:02:12Z</time>
      </trkpt>
      <trkpt lat="48.43085" lon="-1.56908">
        <ele>85</ele>
        <time>2019-07-16T13:02:13Z</time>
      </trkpt>
      <trkpt lat="48.43087" lon="-1.56905">
        <ele>84.9</ele>
        <time>2019-07-16T13:02:14Z</time>
      </trkpt>
      <trkpt lat="48.43089" lon="-1.56902">
        <ele>84.9</ele>
        <time>2019-07-16T13:02:15Z</time>
      </trkpt>
      <trkpt lat="48.4309" lon="-1.56899">
        <ele>84.8</ele>
        <time>2019-07-16T13:02:16Z</time>
      </trkpt>
      <trkpt lat="48.43092" lon="-1.56895">
        <ele>84.9</ele>
        <time>2019-07-16T13:02:17Z</time>
      </trkpt>
      <trkpt lat="48.43095" lon="-1.56892">
        <ele>84.8</ele>
        <time>2019-07-16T13:02:18Z</time>
      </trkpt>
      <trkpt lat="48.43097" lon="-1.56889">
        <ele>84.9</ele>
        <time>2019-07-16T13:02:19Z</time>
      </trkpt>
      <trkpt lat="48.43098" lon="-1.56885">
        <ele>84.9</ele>
        <time>2019-07-16T13:02:20Z</time>
      </trkpt>
      <trkpt lat="48.431" lon="-1.56881">
        <ele>85</ele>
        <time>2019-07-16T13:02:21Z</time>
      </trkpt>
      <trkpt lat="48.43102" lon="-1.56877">
        <ele>85</ele>
        <time>2019-07-16T13:02:22Z</time>
      </trkpt>
      <trkpt lat="48.43104" lon="-1.56872">
        <ele>85</ele>
        <time>2019-07-16T13:02:23Z</time>
      </trkpt>
      <trkpt lat="48.43106" lon="-1.56868">
        <ele>84.9</ele>
        <time>2019-07-16T13:02:24Z</time>
      </trkpt>
      <trkpt lat="48.43108" lon="-1.56864">
        <ele>85</ele>
        <time>2019-07-16T13:02:25Z</time>
      </trkpt>
      <trkpt lat="48.43111" lon="-1.56859">
        <ele>85.1</ele>
        <time>2019-07-16T13:02:26Z</time>
      </trkpt>
      <trkpt lat="48.43113" lon="-1.56855">
        <ele>85.2</ele>
        <time>2019-07-16T13:02:27Z</time>
      </trkpt>
      <trkpt lat="48.43115" lon="-1.56851">
        <ele>85.4</ele>
        <time>2019-07-16T13:02:28Z</time>
      </trkpt>
      <trkpt lat="48.43116" lon="-1.56847">
        <ele>85.5</ele>
        <time>2019-07-16T13:02:29Z</time>
      </trkpt>
      <trkpt lat="48.43118" lon="-1.56843">
        <ele>85.4</ele>
        <time>2019-07-16T13:02:30Z</time>
      </trkpt>
      <trkpt lat="48.4312" lon="-1.56839">
        <ele>85.5</ele>
        <time>2019-07-16T13:02:31Z</time>
      </trkpt>
      <trkpt lat="48.43122" lon="-1.56835">
        <ele>85.9</ele>
        <time>2019-07-16T13:02:32Z</time>
      </trkpt>
      <trkpt lat="48.43124" lon="-1.56831">
        <ele>86.1</ele>
        <time>2019-07-16T13:02:33Z</time>
      </trkpt>
      <trkpt lat="48.43126" lon="-1.56828">
        <ele>86.2</ele>
        <time>2019-07-16T13:02:34Z</time>
      </trkpt>
      <trkpt lat="48.43127" lon="-1.56824">
        <ele>86.6</ele>
        <time>2019-07-16T13:02:35Z</time>
      </trkpt>
      <trkpt lat="48.43129" lon="-1.5682">
        <ele>86.8</ele>
        <time>2019-07-16T13:02:36Z</time>
      </trkpt>
      <trkpt lat="48.43131" lon="-1.56816">
        <ele>86.7</ele>
        <time>2019-07-16T13:02:37Z</time>
      </trkpt>
      <trkpt lat="48.43133" lon="-1.56812">
        <ele>86.9</ele>
        <time>2019-07-16T13:02:38Z</time>
      </trkpt>
      <trkpt lat="48.43135" lon="-1.56808">
        <ele>86.8</ele>
        <time>2019-07-16T13:02:39Z</time>
      </trkpt>
      <trkpt lat="48.43137" lon="-1.56804">
        <ele>86.9</ele>
        <time>2019-07-16T13:02:40Z</time>
      </trkpt>
      <trkpt lat="48.43139" lon="-1.568">
        <ele>87.1</ele>
        <time>2019-07-16T13:02:41Z</time>
      </trkpt>
      <trkpt lat="48.43141" lon="-1.56797">
        <ele>87.2</ele>
        <time>2019-07-16T13:02:42Z</time>
      </trkpt>
      <trkpt lat="48.43143" lon="-1.56793">
        <ele>87.1</ele>
        <time>2019-07-16T13:02:43Z</time>
      </trkpt>
      <trkpt lat="48.43145" lon="-1.56789">
        <ele>86.9</ele>
        <time>2019-07-16T13:02:44Z</time>
      </trkpt>
      <trkpt lat="48.43147" lon="-1.56784">
        <ele>86.7</ele>
        <time>2019-07-16T13:02:45Z</time>
      </trkpt>
      <trkpt lat="48.43149" lon="-1.5678">
        <ele>86.5</ele>
        <time>2019-07-16T13:02:46Z</time>
      </trkpt>
      <trkpt lat="48.4315" lon="-1.56777">
        <ele>86.5</ele>
        <time>2019-07-16T13:02:47Z</time>
      </trkpt>
      <trkpt lat="48.43152" lon="-1.56773">
        <ele>86.5</ele>
        <time>2019-07-16T13:02:48Z</time>
      </trkpt>
      <trkpt lat="48.43154" lon="-1.5677">
        <ele>86.5</ele>
        <time>2019-07-16T13:02:49Z</time>
      </trkpt>
      <trkpt lat="48.43155" lon="-1.56766">
        <ele>86.4</ele>
        <time>2019-07-16T13:02:50Z</time>
      </trkpt>
      <trkpt lat="48.43157" lon="-1.56763">
        <ele>86.5</ele>
        <time>2019-07-16T13:02:51Z</time>
      </trkpt>
      <trkpt lat="48.43158" lon="-1.56759">
        <ele>86.6</ele>
        <time>2019-07-16T13:02:52Z</time>
      </trkpt>
      <trkpt lat="48.4316" lon="-1.56756">
        <ele>86.9</ele>
        <time>2019-07-16T13:02:53Z</time>
      </trkpt>
      <trkpt lat="48.43162" lon="-1.56752">
        <ele>87.1</ele>
        <time>2019-07-16T13:02:54Z</time>
      </trkpt>
      <trkpt lat="48.43164" lon="-1.56748">
        <ele>87.3</ele>
        <time>2019-07-16T13:02:55Z</time>
      </trkpt>
      <trkpt lat="48.43165" lon="-1.56744">
        <ele>87.8</ele>
        <time>2019-07-16T13:02:56Z</time>
      </trkpt>
      <trkpt lat="48.43167" lon="-1.56741">
        <ele>88.1</ele>
        <time>2019-07-16T13:02:57Z</time>
      </trkpt>
      <trkpt lat="48.43169" lon="-1.56737">
        <ele>88.2</ele>
        <time>2019-07-16T13:02:58Z</time>
      </trkpt>
      <trkpt lat="48.43171" lon="-1.56733">
        <ele>88</ele>
        <time>2019-07-16T13:02:59Z</time>
      </trkpt>
      <trkpt lat="48.43173" lon="-1.56729">
        <ele>87.6</ele>
        <time>2019-07-16T13:03:00Z</time>
      </trkpt>
      <trkpt lat="48.43175" lon="-1.56725">
        <ele>86.9</ele>
        <time>2019-07-16T13:03:01Z</time>
      </trkpt>
      <trkpt lat="48.43176" lon="-1.56721">
        <ele>86.7</ele>
        <time>2019-07-16T13:03:02Z</time>
      </trkpt>
      <trkpt lat="48.43178" lon="-1.56717">
        <ele>86.6</ele>
        <time>2019-07-16T13:03:03Z</time>
      </trkpt>
      <trkpt lat="48.4318" lon="-1.56713">
        <ele>86.4</ele>
        <time>2019-07-16T13:03:04Z</time>
      </trkpt>
      <trkpt lat="48.43182" lon="-1.56709">
        <ele>86.1</ele>
        <time>2019-07-16T13:03:05Z</time>
      </trkpt>
      <trkpt lat="48.43184" lon="-1.56705">
        <ele>86</ele>
        <time>2019-07-16T13:03:06Z</time>
      </trkpt>
      <trkpt lat="48.43185" lon="-1.56701">
        <ele>85.9</ele>
        <time>2019-07-16T13:03:07Z</time>
      </trkpt>
      <trkpt lat="48.43187" lon="-1.56697">
        <ele>86.3</ele>
        <time>2019-07-16T13:03:08Z</time>
      </trkpt>
      <trkpt lat="48.43189" lon="-1.56693">
        <ele>86.8</ele>
        <time>2019-07-16T13:03:09Z</time>
      </trkpt>
      <trkpt lat="48.4319" lon="-1.56689">
        <ele>87.4</ele>
        <time>2019-07-16T13:03:10Z</time>
      </trkpt>
      <trkpt lat="48.43192" lon="-1.56685">
        <ele>88.1</ele>
        <time>2019-07-16T13:03:11Z</time>
      </trkpt>
      <trkpt lat="48.43194" lon="-1.56681">
        <ele>88.6</ele>
        <time>2019-07-16T13:03:12Z</time>
      </trkpt>
      <trkpt lat="48.43195" lon="-1.56678">
        <ele>88.9</ele>
        <time>2019-07-16T13:03:13Z</time>
      </trkpt>
      <trkpt lat="48.43197" lon="-1.56674">
        <ele>89.1</ele>
        <time>2019-07-16T13:03:14Z</time>
      </trkpt>
      <trkpt lat="48.43199" lon="-1.56671">
        <ele>89.3</ele>
        <time>2019-07-16T13:03:15Z</time>
      </trkpt>
      <trkpt lat="48.43201" lon="-1.56667">
        <ele>89.1</ele>
        <time>2019-07-16T13:03:16Z</time>
      </trkpt>
      <trkpt lat="48.43203" lon="-1.56664">
        <ele>89.1</ele>
        <time>2019-07-16T13:03:17Z</time>
      </trkpt>
      <trkpt lat="48.43205" lon="-1.5666">
        <ele>89.1</ele>
        <time>2019-07-16T13:03:18Z</time>
      </trkpt>
      <trkpt lat="48.43206" lon="-1.56657">
        <ele>89.4</ele>
        <time>2019-07-16T13:03:19Z</time>
      </trkpt>
      <trkpt lat="48.43208" lon="-1.56653">
        <ele>89.6</ele>
        <time>2019-07-16T13:03:20Z</time>
      </trkpt>
      <trkpt lat="48.4321" lon="-1.5665">
        <ele>89.8</ele>
        <time>2019-07-16T13:03:21Z</time>
      </trkpt>
      <trkpt lat="48.43211" lon="-1.56646">
        <ele>90.2</ele>
        <time>2019-07-16T13:03:22Z</time>
      </trkpt>
      <trkpt lat="48.43213" lon="-1.56643">
        <ele>90.5</ele>
        <time>2019-07-16T13:03:23Z</time>
      </trkpt>
      <trkpt lat="48.43214" lon="-1.56639">
        <ele>90.6</ele>
        <time>2019-07-16T13:03:24Z</time>
      </trkpt>
      <trkpt lat="48.43216" lon="-1.56636">
        <ele>90.4</ele>
        <time>2019-07-16T13:03:25Z</time>
      </trkpt>
      <trkpt lat="48.43217" lon="-1.56633">
        <ele>90.6</ele>
        <time>2019-07-16T13:03:26Z</time>
      </trkpt>
      <trkpt lat="48.43219" lon="-1.5663">
        <ele>91</ele>
        <time>2019-07-16T13:03:27Z</time>
      </trkpt>
      <trkpt lat="48.4322" lon="-1.56626">
        <ele>91.2</ele>
        <time>2019-07-16T13:03:28Z</time>
      </trkpt>
      <trkpt lat="48.43221" lon="-1.56623">
        <ele>91.8</ele>
        <time>2019-07-16T13:03:29Z</time>
      </trkpt>
      <trkpt lat="48.43223" lon="-1.5662">
        <ele>92.2</ele>
        <time>2019-07-16T13:03:30Z</time>
      </trkpt>
      <trkpt lat="48.43225" lon="-1.56616">
        <ele>92.6</ele>
        <time>2019-07-16T13:03:31Z</time>
      </trkpt>
      <trkpt lat="48.43227" lon="-1.56613">
        <ele>92.9</ele>
        <time>2019-07-16T13:03:32Z</time>
      </trkpt>
      <trkpt lat="48.43228" lon="-1.56609">
        <ele>93.1</ele>
        <time>2019-07-16T13:03:33Z</time>
      </trkpt>
      <trkpt lat="48.4323" lon="-1.56606">
        <ele>93</ele>
        <time>2019-07-16T13:03:34Z</time>
      </trkpt>
      <trkpt lat="48.43232" lon="-1.56603">
        <ele>93</ele>
        <time>2019-07-16T13:03:35Z</time>
      </trkpt>
      <trkpt lat="48.43234" lon="-1.56599">
        <ele>93.1</ele>
        <time>2019-07-16T13:03:36Z</time>
      </trkpt>
      <trkpt lat="48.43235" lon="-1.56596">
        <ele>93.5</ele>
        <time>2019-07-16T13:03:37Z</time>
      </trkpt>
      <trkpt lat="48.43237" lon="-1.56592">
        <ele>93.7</ele>
        <time>2019-07-16T13:03:38Z</time>
      </trkpt>
      <trkpt lat="48.43238" lon="-1.56589">
        <ele>93.8</ele>
        <time>2019-07-16T13:03:39Z</time>
      </trkpt>
      <trkpt lat="48.4324" lon="-1.56586">
        <ele>94</ele>
        <time>2019-07-16T13:03:40Z</time>
      </trkpt>
      <trkpt lat="48.43241" lon="-1.56583">
        <ele>94</ele>
        <time>2019-07-16T13:03:41Z</time>
      </trkpt>
      <trkpt lat="48.43243" lon="-1.5658">
        <ele>94</ele>
        <time>2019-07-16T13:03:42Z</time>
      </trkpt>
      <trkpt lat="48.43244" lon="-1.56577">
        <ele>94.1</ele>
        <time>2019-07-16T13:03:43Z</time>
      </trkpt>
      <trkpt lat="48.43245" lon="-1.56574">
        <ele>94.3</ele>
        <time>2019-07-16T13:03:44Z</time>
      </trkpt>
      <trkpt lat="48.43247" lon="-1.56571">
        <ele>94.5</ele>
        <time>2019-07-16T13:03:45Z</time>
      </trkpt>
      <trkpt lat="48.43249" lon="-1.56568">
        <ele>94.7</ele>
        <time>2019-07-16T13:03:46Z</time>
      </trkpt>
      <trkpt lat="48.43251" lon="-1.56565">
        <ele>95</ele>
        <time>2019-07-16T13:03:47Z</time>
      </trkpt>
      <trkpt lat="48.43252" lon="-1.56561">
        <ele>95.2</ele>
        <time>2019-07-16T13:03:48Z</time>
      </trkpt>
      <trkpt lat="48.43254" lon="-1.56557">
        <ele>95.2</ele>
        <time>2019-07-16T13:03:49Z</time>
      </trkpt>
      <trkpt lat="48.43256" lon="-1.56553">
        <ele>94.9</ele>
        <time>2019-07-16T13:03:50Z</time>
      </trkpt>
      <trkpt lat="48.43258" lon="-1.56549">
        <ele>94.8</ele>
        <time>2019-07-16T13:03:51Z</time>
      </trkpt>
      <trkpt lat="48.43259" lon="-1.56546">
        <ele>94.8</ele>
        <time>2019-07-16T13:03:52Z</time>
      </trkpt>
      <trkpt lat="48.43261" lon="-1.56542">
        <ele>94.8</ele>
        <time>2019-07-16T13:03:53Z</time>
      </trkpt>
      <trkpt lat="48.43263" lon="-1.56539">
        <ele>94.6</ele>
        <time>2019-07-16T13:03:54Z</time>
      </trkpt>
      <trkpt lat="48.43265" lon="-1.56535">
        <ele>94.4</ele>
        <time>2019-07-16T13:03:55Z</time>
      </trkpt>
      <trkpt lat="48.43266" lon="-1.56531">
        <ele>94.6</ele>
        <time>2019-07-16T13:03:56Z</time>
      </trkpt>
      <trkpt lat="48.43268" lon="-1.56527">
        <ele>94.6</ele>
        <time>2019-07-16T13:03:57Z</time>
      </trkpt>
      <trkpt lat="48.4327" lon="-1.56523">
        <ele>94.3</ele>
        <time>2019-07-16T13:03:58Z</time>
      </trkpt>
      <trkpt lat="48.43272" lon="-1.56519">
        <ele>94.2</ele>
        <time>2019-07-16T13:03:59Z</time>
      </trkpt>
      <trkpt lat="48.43274" lon="-1.56516">
        <ele>94.1</ele>
        <time>2019-07-16T13:04:00Z</time>
      </trkpt>
      <trkpt lat="48.43276" lon="-1.56512">
        <ele>94</ele>
        <time>2019-07-16T13:04:01Z</time>
      </trkpt>
      <trkpt lat="48.43277" lon="-1.56508">
        <ele>94.3</ele>
        <time>2019-07-16T13:04:02Z</time>
      </trkpt>
      <trkpt lat="48.4328" lon="-1.56504">
        <ele>94.6</ele>
        <time>2019-07-16T13:04:03Z</time>
      </trkpt>
      <trkpt lat="48.43282" lon="-1.565">
        <ele>95</ele>
        <time>2019-07-16T13:04:04Z</time>
      </trkpt>
      <trkpt lat="48.43285" lon="-1.56497">
        <ele>95.3</ele>
        <time>2019-07-16T13:04:05Z</time>
      </trkpt>
      <trkpt lat="48.43287" lon="-1.56493">
        <ele>95.8</ele>
        <time>2019-07-16T13:04:06Z</time>
      </trkpt>
      <trkpt lat="48.43289" lon="-1.5649">
        <ele>96.2</ele>
        <time>2019-07-16T13:04:07Z</time>
      </trkpt>
      <trkpt lat="48.43292" lon="-1.56486">
        <ele>96.7</ele>
        <time>2019-07-16T13:04:08Z</time>
      </trkpt>
      <trkpt lat="48.43294" lon="-1.56482">
        <ele>97.1</ele>
        <time>2019-07-16T13:04:09Z</time>
      </trkpt>
      <trkpt lat="48.43297" lon="-1.56478">
        <ele>97.1</ele>
        <time>2019-07-16T13:04:10Z</time>
      </trkpt>
      <trkpt lat="48.43299" lon="-1.56474">
        <ele>97.5</ele>
        <time>2019-07-16T13:04:11Z</time>
      </trkpt>
      <trkpt lat="48.43301" lon="-1.5647">
        <ele>98.1</ele>
        <time>2019-07-16T13:04:12Z</time>
      </trkpt>
      <trkpt lat="48.43304" lon="-1.56466">
        <ele>98.4</ele>
        <time>2019-07-16T13:04:13Z</time>
      </trkpt>
      <trkpt lat="48.43307" lon="-1.56462">
        <ele>98.4</ele>
        <time>2019-07-16T13:04:14Z</time>
      </trkpt>
      <trkpt lat="48.43309" lon="-1.56458">
        <ele>98.6</ele>
        <time>2019-07-16T13:04:15Z</time>
      </trkpt>
      <trkpt lat="48.43313" lon="-1.56453">
        <ele>96.2</ele>
        <time>2019-07-16T13:04:16Z</time>
      </trkpt>
      <trkpt lat="48.43317" lon="-1.56449">
        <ele>95</ele>
        <time>2019-07-16T13:04:17Z</time>
      </trkpt>
      <trkpt lat="48.43321" lon="-1.56444">
        <ele>93.5</ele>
        <time>2019-07-16T13:04:18Z</time>
      </trkpt>
      <trkpt lat="48.43325" lon="-1.56439">
        <ele>92.3</ele>
        <time>2019-07-16T13:04:19Z</time>
      </trkpt>
      <trkpt lat="48.43329" lon="-1.56434">
        <ele>91.6</ele>
        <time>2019-07-16T13:04:20Z</time>
      </trkpt>
      <trkpt lat="48.43332" lon="-1.56429">
        <ele>91.6</ele>
        <time>2019-07-16T13:04:21Z</time>
      </trkpt>
      <trkpt lat="48.43336" lon="-1.56424">
        <ele>91.5</ele>
        <time>2019-07-16T13:04:22Z</time>
      </trkpt>
      <trkpt lat="48.4334" lon="-1.56418">
        <ele>91.8</ele>
        <time>2019-07-16T13:04:23Z</time>
      </trkpt>
      <trkpt lat="48.43343" lon="-1.56413">
        <ele>91.5</ele>
        <time>2019-07-16T13:04:24Z</time>
      </trkpt>
      <trkpt lat="48.43347" lon="-1.56408">
        <ele>90.9</ele>
        <time>2019-07-16T13:04:25Z</time>
      </trkpt>
      <trkpt lat="48.43351" lon="-1.56403">
        <ele>90.4</ele>
        <time>2019-07-16T13:04:26Z</time>
      </trkpt>
      <trkpt lat="48.43354" lon="-1.56398">
        <ele>89.9</ele>
        <time>2019-07-16T13:04:27Z</time>
      </trkpt>
      <trkpt lat="48.43358" lon="-1.56393">
        <ele>89.4</ele>
        <time>2019-07-16T13:04:28Z</time>
      </trkpt>
      <trkpt lat="48.43362" lon="-1.56389">
        <ele>89</ele>
        <time>2019-07-16T13:04:29Z</time>
      </trkpt>
      <trkpt lat="48.43366" lon="-1.56384">
        <ele>88.8</ele>
        <time>2019-07-16T13:04:30Z</time>
      </trkpt>
      <trkpt lat="48.43369" lon="-1.56379">
        <ele>88.8</ele>
        <time>2019-07-16T13:04:31Z</time>
      </trkpt>
      <trkpt lat="48.43373" lon="-1.56374">
        <ele>88.5</ele>
        <time>2019-07-16T13:04:32Z</time>
      </trkpt>
      <trkpt lat="48.43376" lon="-1.56369">
        <ele>88.5</ele>
        <time>2019-07-16T13:04:33Z</time>
      </trkpt>
      <trkpt lat="48.4338" lon="-1.56364">
        <ele>88.7</ele>
        <time>2019-07-16T13:04:34Z</time>
      </trkpt>
      <trkpt lat="48.43383" lon="-1.56359">
        <ele>88.8</ele>
        <time>2019-07-16T13:04:35Z</time>
      </trkpt>
      <trkpt lat="48.43387" lon="-1.56354">
        <ele>88.8</ele>
        <time>2019-07-16T13:04:36Z</time>
      </trkpt>
      <trkpt lat="48.43391" lon="-1.56348">
        <ele>89.1</ele>
        <time>2019-07-16T13:04:37Z</time>
      </trkpt>
      <trkpt lat="48.43395" lon="-1.56344">
        <ele>89.3</ele>
        <time>2019-07-16T13:04:38Z</time>
      </trkpt>
      <trkpt lat="48.43398" lon="-1.56338">
        <ele>89.5</ele>
        <time>2019-07-16T13:04:39Z</time>
      </trkpt>
      <trkpt lat="48.43402" lon="-1.56333">
        <ele>89.7</ele>
        <time>2019-07-16T13:04:40Z</time>
      </trkpt>
      <trkpt lat="48.43406" lon="-1.56328">
        <ele>89.9</ele>
        <time>2019-07-16T13:04:41Z</time>
      </trkpt>
      <trkpt lat="48.43409" lon="-1.56322">
        <ele>90.2</ele>
        <time>2019-07-16T13:04:42Z</time>
      </trkpt>
      <trkpt lat="48.43413" lon="-1.56317">
        <ele>90.1</ele>
        <time>2019-07-16T13:04:43Z</time>
      </trkpt>
      <trkpt lat="48.43417" lon="-1.56312">
        <ele>90.2</ele>
        <time>2019-07-16T13:04:44Z</time>
      </trkpt>
      <trkpt lat="48.43421" lon="-1.56307">
        <ele>90.1</ele>
        <time>2019-07-16T13:04:45Z</time>
      </trkpt>
      <trkpt lat="48.43424" lon="-1.56303">
        <ele>90.3</ele>
        <time>2019-07-16T13:04:46Z</time>
      </trkpt>
      <trkpt lat="48.43428" lon="-1.56299">
        <ele>90.5</ele>
        <time>2019-07-16T13:04:47Z</time>
      </trkpt>
      <trkpt lat="48.43432" lon="-1.56295">
        <ele>90.9</ele>
        <time>2019-07-16T13:04:48Z</time>
      </trkpt>
      <trkpt lat="48.43436" lon="-1.56291">
        <ele>90.9</ele>
        <time>2019-07-16T13:04:49Z</time>
      </trkpt>
      <trkpt lat="48.4344" lon="-1.56286">
        <ele>91</ele>
        <time>2019-07-16T13:04:50Z</time>
      </trkpt>
      <trkpt lat="48.43444" lon="-1.56282">
        <ele>91.2</ele>
        <time>2019-07-16T13:04:51Z</time>
      </trkpt>
      <trkpt lat="48.43449" lon="-1.56278">
        <ele>91.2</ele>
        <time>2019-07-16T13:04:52Z</time>
      </trkpt>
      <trkpt lat="48.43453" lon="-1.56274">
        <ele>91.6</ele>
        <time>2019-07-16T13:04:53Z</time>
      </trkpt>
      <trkpt lat="48.43457" lon="-1.5627">
        <ele>91.6</ele>
        <time>2019-07-16T13:04:54Z</time>
      </trkpt>
      <trkpt lat="48.43461" lon="-1.56267">
        <ele>92</ele>
        <time>2019-07-16T13:04:55Z</time>
      </trkpt>
      <trkpt lat="48.43465" lon="-1.56263">
        <ele>92.1</ele>
        <time>2019-07-16T13:04:56Z</time>
      </trkpt>
      <trkpt lat="48.43469" lon="-1.56259">
        <ele>92.3</ele>
        <time>2019-07-16T13:04:57Z</time>
      </trkpt>
      <trkpt lat="48.43473" lon="-1.56255">
        <ele>92.4</ele>
        <time>2019-07-16T13:04:58Z</time>
      </trkpt>
      <trkpt lat="48.43478" lon="-1.56251">
        <ele>92.3</ele>
        <time>2019-07-16T13:04:59Z</time>
      </trkpt>
      <trkpt lat="48.43482" lon="-1.56247">
        <ele>92.4</ele>
        <time>2019-07-16T13:05:00Z</time>
      </trkpt>
      <trkpt lat="48.43486" lon="-1.56243">
        <ele>92.2</ele>
        <time>2019-07-16T13:05:01Z</time>
      </trkpt>
      <trkpt lat="48.4349" lon="-1.56239">
        <ele>92.2</ele>
        <time>2019-07-16T13:05:02Z</time>
      </trkpt>
      <trkpt lat="48.43494" lon="-1.56234">
        <ele>92</ele>
        <time>2019-07-16T13:05:03Z</time>
      </trkpt>
      <trkpt lat="48.43498" lon="-1.56231">
        <ele>92.4</ele>
        <time>2019-07-16T13:05:04Z</time>
      </trkpt>
      <trkpt lat="48.43502" lon="-1.56227">
        <ele>92.6</ele>
        <time>2019-07-16T13:05:05Z</time>
      </trkpt>
      <trkpt lat="48.43506" lon="-1.56223">
        <ele>92.7</ele>
        <time>2019-07-16T13:05:06Z</time>
      </trkpt>
      <trkpt lat="48.4351" lon="-1.5622">
        <ele>93.1</ele>
        <time>2019-07-16T13:05:07Z</time>
      </trkpt>
      <trkpt lat="48.43514" lon="-1.56217">
        <ele>93.5</ele>
        <time>2019-07-16T13:05:08Z</time>
      </trkpt>
      <trkpt lat="48.43518" lon="-1.56213">
        <ele>93.9</ele>
        <time>2019-07-16T13:05:09Z</time>
      </trkpt>
      <trkpt lat="48.43522" lon="-1.5621">
        <ele>93.9</ele>
        <time>2019-07-16T13:05:10Z</time>
      </trkpt>
      <trkpt lat="48.43527" lon="-1.56206">
        <ele>93.7</ele>
        <time>2019-07-16T13:05:11Z</time>
      </trkpt>
      <trkpt lat="48.43531" lon="-1.56202">
        <ele>93.7</ele>
        <time>2019-07-16T13:05:12Z</time>
      </trkpt>
      <trkpt lat="48.43535" lon="-1.56198">
        <ele>93.3</ele>
        <time>2019-07-16T13:05:13Z</time>
      </trkpt>
      <trkpt lat="48.43539" lon="-1.56194">
        <ele>93</ele>
        <time>2019-07-16T13:05:14Z</time>
      </trkpt>
      <trkpt lat="48.43543" lon="-1.5619">
        <ele>92.9</ele>
        <time>2019-07-16T13:05:15Z</time>
      </trkpt>
      <trkpt lat="48.43546" lon="-1.56186">
        <ele>92.7</ele>
        <time>2019-07-16T13:05:16Z</time>
      </trkpt>
      <trkpt lat="48.43549" lon="-1.56181">
        <ele>92.5</ele>
        <time>2019-07-16T13:05:17Z</time>
      </trkpt>
      <trkpt lat="48.43553" lon="-1.56177">
        <ele>92.4</ele>
        <time>2019-07-16T13:05:18Z</time>
      </trkpt>
      <trkpt lat="48.43556" lon="-1.56173">
        <ele>92.6</ele>
        <time>2019-07-16T13:05:19Z</time>
      </trkpt>
      <trkpt lat="48.4356" lon="-1.5617">
        <ele>92.9</ele>
        <time>2019-07-16T13:05:20Z</time>
      </trkpt>
      <trkpt lat="48.43564" lon="-1.56166">
        <ele>92.9</ele>
        <time>2019-07-16T13:05:21Z</time>
      </trkpt>
      <trkpt lat="48.43567" lon="-1.56163">
        <ele>93.2</ele>
        <time>2019-07-16T13:05:22Z</time>
      </trkpt>
      <trkpt lat="48.43571" lon="-1.5616">
        <ele>93.8</ele>
        <time>2019-07-16T13:05:23Z</time>
      </trkpt>
      <trkpt lat="48.43575" lon="-1.56156">
        <ele>94</ele>
        <time>2019-07-16T13:05:24Z</time>
      </trkpt>
      <trkpt lat="48.43578" lon="-1.56153">
        <ele>94.3</ele>
        <time>2019-07-16T13:05:25Z</time>
      </trkpt>
      <trkpt lat="48.43582" lon="-1.5615">
        <ele>94.5</ele>
        <time>2019-07-16T13:05:26Z</time>
      </trkpt>
      <trkpt lat="48.43585" lon="-1.56146">
        <ele>94.4</ele>
        <time>2019-07-16T13:05:27Z</time>
      </trkpt>
      <trkpt lat="48.43589" lon="-1.56143">
        <ele>94.1</ele>
        <time>2019-07-16T13:05:28Z</time>
      </trkpt>
      <trkpt lat="48.43592" lon="-1.56139">
        <ele>93.9</ele>
        <time>2019-07-16T13:05:29Z</time>
      </trkpt>
      <trkpt lat="48.43596" lon="-1.56135">
        <ele>93.9</ele>
        <time>2019-07-16T13:05:30Z</time>
      </trkpt>
      <trkpt lat="48.43599" lon="-1.56132">
        <ele>94</ele>
        <time>2019-07-16T13:05:31Z</time>
      </trkpt>
      <trkpt lat="48.43602" lon="-1.56128">
        <ele>94.2</ele>
        <time>2019-07-16T13:05:32Z</time>
      </trkpt>
      <trkpt lat="48.43605" lon="-1.56125">
        <ele>94.2</ele>
        <time>2019-07-16T13:05:33Z</time>
      </trkpt>
      <trkpt lat="48.43609" lon="-1.56121">
        <ele>94.2</ele>
        <time>2019-07-16T13:05:34Z</time>
      </trkpt>
      <trkpt lat="48.43612" lon="-1.56117">
        <ele>94.1</ele>
        <time>2019-07-16T13:05:35Z</time>
      </trkpt>
      <trkpt lat="48.43616" lon="-1.56114">
        <ele>93.9</ele>
        <time>2019-07-16T13:05:36Z</time>
      </trkpt>
      <trkpt lat="48.43619" lon="-1.5611">
        <ele>93.7</ele>
        <time>2019-07-16T13:05:37Z</time>
      </trkpt>
      <trkpt lat="48.43623" lon="-1.56107">
        <ele>93.4</ele>
        <time>2019-07-16T13:05:38Z</time>
      </trkpt>
      <trkpt lat="48.43627" lon="-1.56103">
        <ele>93.2</ele>
        <time>2019-07-16T13:05:39Z</time>
      </trkpt>
      <trkpt lat="48.4363" lon="-1.56099">
        <ele>92.9</ele>
        <time>2019-07-16T13:05:40Z</time>
      </trkpt>
      <trkpt lat="48.43634" lon="-1.56095">
        <ele>92.6</ele>
        <time>2019-07-16T13:05:41Z</time>
      </trkpt>
      <trkpt lat="48.43637" lon="-1.56092">
        <ele>92.6</ele>
        <time>2019-07-16T13:05:42Z</time>
      </trkpt>
      <trkpt lat="48.43641" lon="-1.56088">
        <ele>92.8</ele>
        <time>2019-07-16T13:05:43Z</time>
      </trkpt>
      <trkpt lat="48.43644" lon="-1.56085">
        <ele>92.8</ele>
        <time>2019-07-16T13:05:44Z</time>
      </trkpt>
      <trkpt lat="48.43647" lon="-1.56082">
        <ele>93</ele>
        <time>2019-07-16T13:05:45Z</time>
      </trkpt>
      <trkpt lat="48.43651" lon="-1.56078">
        <ele>93.1</ele>
        <time>2019-07-16T13:05:46Z</time>
      </trkpt>
      <trkpt lat="48.43654" lon="-1.56075">
        <ele>93</ele>
        <time>2019-07-16T13:05:47Z</time>
      </trkpt>
      <trkpt lat="48.43657" lon="-1.56072">
        <ele>92.9</ele>
        <time>2019-07-16T13:05:48Z</time>
      </trkpt>
      <trkpt lat="48.4366" lon="-1.56069">
        <ele>92.8</ele>
        <time>2019-07-16T13:05:49Z</time>
      </trkpt>
      <trkpt lat="48.43663" lon="-1.56066">
        <ele>92.6</ele>
        <time>2019-07-16T13:05:50Z</time>
      </trkpt>
      <trkpt lat="48.43667" lon="-1.56063">
        <ele>92.6</ele>
        <time>2019-07-16T13:05:51Z</time>
      </trkpt>
      <trkpt lat="48.4367" lon="-1.5606">
        <ele>93</ele>
        <time>2019-07-16T13:05:52Z</time>
      </trkpt>
      <trkpt lat="48.43673" lon="-1.56057">
        <ele>92.9</ele>
        <time>2019-07-16T13:05:53Z</time>
      </trkpt>
      <trkpt lat="48.43677" lon="-1.56054">
        <ele>93.3</ele>
        <time>2019-07-16T13:05:54Z</time>
      </trkpt>
      <trkpt lat="48.4368" lon="-1.56051">
        <ele>93.4</ele>
        <time>2019-07-16T13:05:55Z</time>
      </trkpt>
      <trkpt lat="48.43683" lon="-1.56048">
        <ele>93.4</ele>
        <time>2019-07-16T13:05:56Z</time>
      </trkpt>
      <trkpt lat="48.43686" lon="-1.56045">
        <ele>93.3</ele>
        <time>2019-07-16T13:05:57Z</time>
      </trkpt>
      <trkpt lat="48.43689" lon="-1.56042">
        <ele>93.4</ele>
        <time>2019-07-16T13:05:58Z</time>
      </trkpt>
      <trkpt lat="48.43693" lon="-1.56039">
        <ele>93.4</ele>
        <time>2019-07-16T13:05:59Z</time>
      </trkpt>
      <trkpt lat="48.43696" lon="-1.56036">
        <ele>93.6</ele>
        <time>2019-07-16T13:06:00Z</time>
      </trkpt>
      <trkpt lat="48.43699" lon="-1.56034">
        <ele>93.8</ele>
        <time>2019-07-16T13:06:01Z</time>
      </trkpt>
      <trkpt lat="48.43702" lon="-1.56031">
        <ele>94.3</ele>
        <time>2019-07-16T13:06:02Z</time>
      </trkpt>
      <trkpt lat="48.43705" lon="-1.56028">
        <ele>94.6</ele>
        <time>2019-07-16T13:06:03Z</time>
      </trkpt>
      <trkpt lat="48.43708" lon="-1.56025">
        <ele>94.9</ele>
        <time>2019-07-16T13:06:04Z</time>
      </trkpt>
      <trkpt lat="48.43711" lon="-1.56021">
        <ele>95.1</ele>
        <time>2019-07-16T13:06:05Z</time>
      </trkpt>
      <trkpt lat="48.43714" lon="-1.56018">
        <ele>95.3</ele>
        <time>2019-07-16T13:06:06Z</time>
      </trkpt>
      <trkpt lat="48.43717" lon="-1.56015">
        <ele>95.5</ele>
        <time>2019-07-16T13:06:07Z</time>
      </trkpt>
      <trkpt lat="48.4372" lon="-1.56012">
        <ele>95.4</ele>
        <time>2019-07-16T13:06:08Z</time>
      </trkpt>
      <trkpt lat="48.43724" lon="-1.56009">
        <ele>95.6</ele>
        <time>2019-07-16T13:06:09Z</time>
      </trkpt>
      <trkpt lat="48.43727" lon="-1.56006">
        <ele>95.5</ele>
        <time>2019-07-16T13:06:10Z</time>
      </trkpt>
      <trkpt lat="48.4373" lon="-1.56003">
        <ele>95.6</ele>
        <time>2019-07-16T13:06:11Z</time>
      </trkpt>
      <trkpt lat="48.43733" lon="-1.56">
        <ele>95.6</ele>
        <time>2019-07-16T13:06:12Z</time>
      </trkpt>
      <trkpt lat="48.43736" lon="-1.55997">
        <ele>95.3</ele>
        <time>2019-07-16T13:06:13Z</time>
      </trkpt>
      <trkpt lat="48.43739" lon="-1.55994">
        <ele>94.8</ele>
        <time>2019-07-16T13:06:14Z</time>
      </trkpt>
      <trkpt lat="48.43743" lon="-1.55991">
        <ele>94.5</ele>
        <time>2019-07-16T13:06:15Z</time>
      </trkpt>
      <trkpt lat="48.43746" lon="-1.55988">
        <ele>94.6</ele>
        <time>2019-07-16T13:06:16Z</time>
      </trkpt>
      <trkpt lat="48.4375" lon="-1.55985">
        <ele>94.7</ele>
        <time>2019-07-16T13:06:17Z</time>
      </trkpt>
      <trkpt lat="48.43753" lon="-1.55982">
        <ele>94.6</ele>
        <time>2019-07-16T13:06:18Z</time>
      </trkpt>
      <trkpt lat="48.43757" lon="-1.55979">
        <ele>94.4</ele>
        <time>2019-07-16T13:06:19Z</time>
      </trkpt>
      <trkpt lat="48.43761" lon="-1.55977">
        <ele>94.3</ele>
        <time>2019-07-16T13:06:20Z</time>
      </trkpt>
      <trkpt lat="48.43764" lon="-1.55974">
        <ele>94.1</ele>
        <time>2019-07-16T13:06:21Z</time>
      </trkpt>
      <trkpt lat="48.43768" lon="-1.55972">
        <ele>94.1</ele>
        <time>2019-07-16T13:06:22Z</time>
      </trkpt>
      <trkpt lat="48.43771" lon="-1.55969">
        <ele>94.4</ele>
        <time>2019-07-16T13:06:23Z</time>
      </trkpt>
      <trkpt lat="48.43774" lon="-1.55967">
        <ele>94.5</ele>
        <time>2019-07-16T13:06:24Z</time>
      </trkpt>
      <trkpt lat="48.43778" lon="-1.55965">
        <ele>94.6</ele>
        <time>2019-07-16T13:06:25Z</time>
      </trkpt>
      <trkpt lat="48.43781" lon="-1.55963">
        <ele>94.4</ele>
        <time>2019-07-16T13:06:26Z</time>
      </trkpt>
      <trkpt lat="48.43785" lon="-1.55961">
        <ele>94.8</ele>
        <time>2019-07-16T13:06:27Z</time>
      </trkpt>
      <trkpt lat="48.43788" lon="-1.5596">
        <ele>95.1</ele>
        <time>2019-07-16T13:06:28Z</time>
      </trkpt>
      <trkpt lat="48.43792" lon="-1.55958">
        <ele>95.2</ele>
        <time>2019-07-16T13:06:29Z</time>
      </trkpt>
      <trkpt lat="48.43795" lon="-1.55956">
        <ele>95.2</ele>
        <time>2019-07-16T13:06:30Z</time>
      </trkpt>
      <trkpt lat="48.43799" lon="-1.55954">
        <ele>95.3</ele>
        <time>2019-07-16T13:06:31Z</time>
      </trkpt>
      <trkpt lat="48.43802" lon="-1.5595">
        <ele>95.3</ele>
        <time>2019-07-16T13:06:32Z</time>
      </trkpt>
      <trkpt lat="48.43805" lon="-1.55947">
        <ele>95.2</ele>
        <time>2019-07-16T13:06:33Z</time>
      </trkpt>
      <trkpt lat="48.43808" lon="-1.55943">
        <ele>94.8</ele>
        <time>2019-07-16T13:06:34Z</time>
      </trkpt>
      <trkpt lat="48.43811" lon="-1.55938">
        <ele>94.7</ele>
        <time>2019-07-16T13:06:35Z</time>
      </trkpt>
      <trkpt lat="48.43814" lon="-1.55933">
        <ele>94.3</ele>
        <time>2019-07-16T13:06:36Z</time>
      </trkpt>
      <trkpt lat="48.43817" lon="-1.55927">
        <ele>94</ele>
        <time>2019-07-16T13:06:37Z</time>
      </trkpt>
      <trkpt lat="48.4382" lon="-1.55923">
        <ele>93.6</ele>
        <time>2019-07-16T13:06:38Z</time>
      </trkpt>
      <trkpt lat="48.43825" lon="-1.5592">
        <ele>93.4</ele>
        <time>2019-07-16T13:06:39Z</time>
      </trkpt>
      <trkpt lat="48.43829" lon="-1.55918">
        <ele>93.5</ele>
        <time>2019-07-16T13:06:40Z</time>
      </trkpt>
      <trkpt lat="48.43834" lon="-1.55916">
        <ele>93.2</ele>
        <time>2019-07-16T13:06:41Z</time>
      </trkpt>
      <trkpt lat="48.4384" lon="-1.55915">
        <ele>93.3</ele>
        <time>2019-07-16T13:06:42Z</time>
      </trkpt>
      <trkpt lat="48.43845" lon="-1.55914">
        <ele>93.5</ele>
        <time>2019-07-16T13:06:43Z</time>
      </trkpt>
      <trkpt lat="48.4385" lon="-1.55912">
        <ele>93.5</ele>
        <time>2019-07-16T13:06:44Z</time>
      </trkpt>
      <trkpt lat="48.43854" lon="-1.5591">
        <ele>93.3</ele>
        <time>2019-07-16T13:06:45Z</time>
      </trkpt>
      <trkpt lat="48.43859" lon="-1.55907">
        <ele>93.2</ele>
        <time>2019-07-16T13:06:46Z</time>
      </trkpt>
      <trkpt lat="48.43863" lon="-1.55905">
        <ele>93.2</ele>
        <time>2019-07-16T13:06:47Z</time>
      </trkpt>
      <trkpt lat="48.43868" lon="-1.55902">
        <ele>93.3</ele>
        <time>2019-07-16T13:06:48Z</time>
      </trkpt>
      <trkpt lat="48.43872" lon="-1.55898">
        <ele>93.4</ele>
        <time>2019-07-16T13:06:49Z</time>
      </trkpt>
      <trkpt lat="48.43876" lon="-1.55894">
        <ele>93.3</ele>
        <time>2019-07-16T13:06:50Z</time>
      </trkpt>
      <trkpt lat="48.4388" lon="-1.5589">
        <ele>93.2</ele>
        <time>2019-07-16T13:06:51Z</time>
      </trkpt>
      <trkpt lat="48.43885" lon="-1.55885">
        <ele>91.9</ele>
        <time>2019-07-16T13:06:52Z</time>
      </trkpt>
      <trkpt lat="48.43889" lon="-1.55879">
        <ele>91.3</ele>
        <time>2019-07-16T13:06:53Z</time>
      </trkpt>
      <trkpt lat="48.43892" lon="-1.55872">
        <ele>91.1</ele>
        <time>2019-07-16T13:06:54Z</time>
      </trkpt>
      <trkpt lat="48.43895" lon="-1.55865">
        <ele>90.7</ele>
        <time>2019-07-16T13:06:55Z</time>
      </trkpt>
      <trkpt lat="48.43898" lon="-1.55856">
        <ele>90.1</ele>
        <time>2019-07-16T13:06:56Z</time>
      </trkpt>
      <trkpt lat="48.43901" lon="-1.55848">
        <ele>89.9</ele>
        <time>2019-07-16T13:06:57Z</time>
      </trkpt>
      <trkpt lat="48.43903" lon="-1.55838">
        <ele>89.9</ele>
        <time>2019-07-16T13:06:58Z</time>
      </trkpt>
      <trkpt lat="48.43905" lon="-1.55828">
        <ele>89.5</ele>
        <time>2019-07-16T13:06:59Z</time>
      </trkpt>
      <trkpt lat="48.43907" lon="-1.55818">
        <ele>89</ele>
        <time>2019-07-16T13:07:00Z</time>
      </trkpt>
      <trkpt lat="48.4391" lon="-1.55808">
        <ele>88.5</ele>
        <time>2019-07-16T13:07:01Z</time>
      </trkpt>
      <trkpt lat="48.43912" lon="-1.55798">
        <ele>87.7</ele>
        <time>2019-07-16T13:07:02Z</time>
      </trkpt>
      <trkpt lat="48.43914" lon="-1.55786">
        <ele>86.5</ele>
        <time>2019-07-16T13:07:03Z</time>
      </trkpt>
      <trkpt lat="48.43916" lon="-1.55775">
        <ele>85.8</ele>
        <time>2019-07-16T13:07:04Z</time>
      </trkpt>
      <trkpt lat="48.43919" lon="-1.55763">
        <ele>84.7</ele>
        <time>2019-07-16T13:07:05Z</time>
      </trkpt>
      <trkpt lat="48.43921" lon="-1.55751">
        <ele>83.7</ele>
        <time>2019-07-16T13:07:06Z</time>
      </trkpt>
      <trkpt lat="48.43924" lon="-1.55739">
        <ele>82.7</ele>
        <time>2019-07-16T13:07:07Z</time>
      </trkpt>
      <trkpt lat="48.43927" lon="-1.55727">
        <ele>82.3</ele>
        <time>2019-07-16T13:07:08Z</time>
      </trkpt>
      <trkpt lat="48.4393" lon="-1.55714">
        <ele>81.5</ele>
        <time>2019-07-16T13:07:09Z</time>
      </trkpt>
      <trkpt lat="48.43932" lon="-1.55702">
        <ele>80.6</ele>
        <time>2019-07-16T13:07:10Z</time>
      </trkpt>
      <trkpt lat="48.43935" lon="-1.55689">
        <ele>80</ele>
        <time>2019-07-16T13:07:11Z</time>
      </trkpt>
      <trkpt lat="48.43938" lon="-1.55676">
        <ele>79.5</ele>
        <time>2019-07-16T13:07:12Z</time>
      </trkpt>
      <trkpt lat="48.4394" lon="-1.55664">
        <ele>79.1</ele>
        <time>2019-07-16T13:07:13Z</time>
      </trkpt>
      <trkpt lat="48.43943" lon="-1.55651">
        <ele>78.2</ele>
        <time>2019-07-16T13:07:14Z</time>
      </trkpt>
      <trkpt lat="48.43947" lon="-1.55637">
        <ele>77.7</ele>
        <time>2019-07-16T13:07:15Z</time>
      </trkpt>
      <trkpt lat="48.4395" lon="-1.55624">
        <ele>76.9</ele>
        <time>2019-07-16T13:07:16Z</time>
      </trkpt>
      <trkpt lat="48.43952" lon="-1.55611">
        <ele>76.2</ele>
        <time>2019-07-16T13:07:17Z</time>
      </trkpt>
      <trkpt lat="48.43955" lon="-1.55598">
        <ele>75.6</ele>
        <time>2019-07-16T13:07:18Z</time>
      </trkpt>
      <trkpt lat="48.43956" lon="-1.55585">
        <ele>74.9</ele>
        <time>2019-07-16T13:07:19Z</time>
      </trkpt>
      <trkpt lat="48.43958" lon="-1.55572">
        <ele>74.8</ele>
        <time>2019-07-16T13:07:20Z</time>
      </trkpt>
      <trkpt lat="48.43961" lon="-1.5556">
        <ele>74.6</ele>
        <time>2019-07-16T13:07:21Z</time>
      </trkpt>
      <trkpt lat="48.43963" lon="-1.55548">
        <ele>74</ele>
        <time>2019-07-16T13:07:22Z</time>
      </trkpt>
      <trkpt lat="48.43966" lon="-1.55538">
        <ele>73.7</ele>
        <time>2019-07-16T13:07:23Z</time>
      </trkpt>
      <trkpt lat="48.43969" lon="-1.55529">
        <ele>73.9</ele>
        <time>2019-07-16T13:07:24Z</time>
      </trkpt>
      <trkpt lat="48.43971" lon="-1.55522">
        <ele>74.1</ele>
        <time>2019-07-16T13:07:25Z</time>
      </trkpt>
      <trkpt lat="48.43972" lon="-1.55516">
        <ele>74.1</ele>
        <time>2019-07-16T13:07:26Z</time>
      </trkpt>
      <trkpt lat="48.43973" lon="-1.55513">
        <ele>74.1</ele>
        <time>2019-07-16T13:07:27Z</time>
      </trkpt>
      <trkpt lat="48.43974" lon="-1.55511">
        <ele>73.9</ele>
        <time>2019-07-16T13:07:28Z</time>
      </trkpt>
      <trkpt lat="48.43974" lon="-1.55508">
        <ele>74</ele>
        <time>2019-07-16T13:07:29Z</time>
      </trkpt>
      <trkpt lat="48.43975" lon="-1.55506">
        <ele>74.1</ele>
        <time>2019-07-16T13:07:30Z</time>
      </trkpt>
      <trkpt lat="48.43976" lon="-1.55504">
        <ele>74.5</ele>
        <time>2019-07-16T13:07:31Z</time>
      </trkpt>
      <trkpt lat="48.43977" lon="-1.55502">
        <ele>74.7</ele>
        <time>2019-07-16T13:07:32Z</time>
      </trkpt>
      <trkpt lat="48.43978" lon="-1.555">
        <ele>74.9</ele>
        <time>2019-07-16T13:07:33Z</time>
      </trkpt>
      <trkpt lat="48.43979" lon="-1.55497">
        <ele>75.4</ele>
        <time>2019-07-16T13:07:34Z</time>
      </trkpt>
      <trkpt lat="48.4398" lon="-1.55495">
        <ele>76.1</ele>
        <time>2019-07-16T13:07:35Z</time>
      </trkpt>
      <trkpt lat="48.43981" lon="-1.55492">
        <ele>76.6</ele>
        <time>2019-07-16T13:07:36Z</time>
      </trkpt>
      <trkpt lat="48.43982" lon="-1.5549">
        <ele>77.4</ele>
        <time>2019-07-16T13:07:37Z</time>
      </trkpt>
      <trkpt lat="48.43983" lon="-1.55488">
        <ele>78.2</ele>
        <time>2019-07-16T13:07:38Z</time>
      </trkpt>
      <trkpt lat="48.43984" lon="-1.55485">
        <ele>78.7</ele>
        <time>2019-07-16T13:07:39Z</time>
      </trkpt>
      <trkpt lat="48.43986" lon="-1.55483">
        <ele>79.5</ele>
        <time>2019-07-16T13:07:40Z</time>
      </trkpt>
      <trkpt lat="48.43988" lon="-1.55481">
        <ele>80</ele>
        <time>2019-07-16T13:07:41Z</time>
      </trkpt>
      <trkpt lat="48.43988" lon="-1.5548">
        <ele>80.4</ele>
        <time>2019-07-16T13:07:42Z</time>
      </trkpt>
      <trkpt lat="48.4399" lon="-1.55479">
        <ele>80.8</ele>
        <time>2019-07-16T13:07:43Z</time>
      </trkpt>
      <trkpt lat="48.43992" lon="-1.55477">
        <ele>81.2</ele>
        <time>2019-07-16T13:07:44Z</time>
      </trkpt>
      <trkpt lat="48.43994" lon="-1.55475">
        <ele>82</ele>
        <time>2019-07-16T13:07:45Z</time>
      </trkpt>
      <trkpt lat="48.43995" lon="-1.55473">
        <ele>82.4</ele>
        <time>2019-07-16T13:07:46Z</time>
      </trkpt>
      <trkpt lat="48.43996" lon="-1.55471">
        <ele>82.8</ele>
        <time>2019-07-16T13:07:47Z</time>
      </trkpt>
      <trkpt lat="48.43998" lon="-1.55469">
        <ele>83.6</ele>
        <time>2019-07-16T13:07:48Z</time>
      </trkpt>
      <trkpt lat="48.44" lon="-1.55468">
        <ele>84.4</ele>
        <time>2019-07-16T13:07:49Z</time>
      </trkpt>
      <trkpt lat="48.44001" lon="-1.55466">
        <ele>85.1</ele>
        <time>2019-07-16T13:07:50Z</time>
      </trkpt>
      <trkpt lat="48.44003" lon="-1.55464">
        <ele>85.8</ele>
        <time>2019-07-16T13:07:51Z</time>
      </trkpt>
      <trkpt lat="48.44004" lon="-1.55462">
        <ele>86.5</ele>
        <time>2019-07-16T13:07:52Z</time>
      </trkpt>
      <trkpt lat="48.44006" lon="-1.5546">
        <ele>87</ele>
        <time>2019-07-16T13:07:53Z</time>
      </trkpt>
      <trkpt lat="48.44008" lon="-1.55457">
        <ele>87.7</ele>
        <time>2019-07-16T13:07:54Z</time>
      </trkpt>
      <trkpt lat="48.4401" lon="-1.55455">
        <ele>88.4</ele>
        <time>2019-07-16T13:07:55Z</time>
      </trkpt>
      <trkpt lat="48.44012" lon="-1.55453">
        <ele>89.2</ele>
        <time>2019-07-16T13:07:56Z</time>
      </trkpt>
      <trkpt lat="48.44014" lon="-1.5545">
        <ele>90.2</ele>
        <time>2019-07-16T13:07:57Z</time>
      </trkpt>
      <trkpt lat="48.44016" lon="-1.55448">
        <ele>91</ele>
        <time>2019-07-16T13:07:58Z</time>
      </trkpt>
      <trkpt lat="48.44018" lon="-1.55446">
        <ele>92.1</ele>
        <time>2019-07-16T13:07:59Z</time>
      </trkpt>
      <trkpt lat="48.44021" lon="-1.55443">
        <ele>93.2</ele>
        <time>2019-07-16T13:08:00Z</time>
      </trkpt>
      <trkpt lat="48.44022" lon="-1.5544">
        <ele>94.2</ele>
        <time>2019-07-16T13:08:01Z</time>
      </trkpt>
      <trkpt lat="48.44024" lon="-1.55437">
        <ele>95.3</ele>
        <time>2019-07-16T13:08:02Z</time>
      </trkpt>
      <trkpt lat="48.44027" lon="-1.55434">
        <ele>96.5</ele>
        <time>2019-07-16T13:08:03Z</time>
      </trkpt>
      <trkpt lat="48.44027" lon="-1.55432">
        <ele>97.9</ele>
        <time>2019-07-16T13:08:04Z</time>
      </trkpt>
      <trkpt lat="48.44029" lon="-1.5543">
        <ele>99.3</ele>
        <time>2019-07-16T13:08:05Z</time>
      </trkpt>
      <trkpt lat="48.4403" lon="-1.55429">
        <ele>100.4</ele>
        <time>2019-07-16T13:08:06Z</time>
      </trkpt>
      <trkpt lat="48.44032" lon="-1.55426">
        <ele>101.2</ele>
        <time>2019-07-16T13:08:07Z</time>
      </trkpt>
      <trkpt lat="48.44034" lon="-1.55423">
        <ele>101.8</ele>
        <time>2019-07-16T13:08:08Z</time>
      </trkpt>
      <trkpt lat="48.44036" lon="-1.55419">
        <ele>102.5</ele>
        <time>2019-07-16T13:08:09Z</time>
      </trkpt>
      <trkpt lat="48.44037" lon="-1.55415">
        <ele>103</ele>
        <time>2019-07-16T13:08:10Z</time>
      </trkpt>
      <trkpt lat="48.44039" lon="-1.55412">
        <ele>103.7</ele>
        <time>2019-07-16T13:08:11Z</time>
      </trkpt>
      <trkpt lat="48.44041" lon="-1.55409">
        <ele>104.2</ele>
        <time>2019-07-16T13:08:12Z</time>
      </trkpt>
      <trkpt lat="48.44042" lon="-1.55406">
        <ele>104.9</ele>
        <time>2019-07-16T13:08:13Z</time>
      </trkpt>
      <trkpt lat="48.44043" lon="-1.55403">
        <ele>105.8</ele>
        <time>2019-07-16T13:08:14Z</time>
      </trkpt>
      <trkpt lat="48.44045" lon="-1.554">
        <ele>106.4</ele>
        <time>2019-07-16T13:08:15Z</time>
      </trkpt>
      <trkpt lat="48.44047" lon="-1.55396">
        <ele>106.7</ele>
        <time>2019-07-16T13:08:16Z</time>
      </trkpt>
      <trkpt lat="48.44048" lon="-1.55392">
        <ele>107.2</ele>
        <time>2019-07-16T13:08:17Z</time>
      </trkpt>
      <trkpt lat="48.4405" lon="-1.55389">
        <ele>107.3</ele>
        <time>2019-07-16T13:08:18Z</time>
      </trkpt>
      <trkpt lat="48.44052" lon="-1.55387">
        <ele>107.4</ele>
        <time>2019-07-16T13:08:19Z</time>
      </trkpt>
      <trkpt lat="48.44054" lon="-1.55383">
        <ele>107</ele>
        <time>2019-07-16T13:08:20Z</time>
      </trkpt>
      <trkpt lat="48.44056" lon="-1.5538">
        <ele>106</ele>
        <time>2019-07-16T13:08:21Z</time>
      </trkpt>
      <trkpt lat="48.44058" lon="-1.55377">
        <ele>104.8</ele>
        <time>2019-07-16T13:08:22Z</time>
      </trkpt>
      <trkpt lat="48.4406" lon="-1.55374">
        <ele>103.9</ele>
        <time>2019-07-16T13:08:23Z</time>
      </trkpt>
      <trkpt lat="48.44062" lon="-1.55371">
        <ele>103</ele>
        <time>2019-07-16T13:08:24Z</time>
      </trkpt>
      <trkpt lat="48.44064" lon="-1.55367">
        <ele>102.1</ele>
        <time>2019-07-16T13:08:25Z</time>
      </trkpt>
      <trkpt lat="48.44067" lon="-1.55364">
        <ele>101.3</ele>
        <time>2019-07-16T13:08:26Z</time>
      </trkpt>
      <trkpt lat="48.44069" lon="-1.5536">
        <ele>100.3</ele>
        <time>2019-07-16T13:08:27Z</time>
      </trkpt>
      <trkpt lat="48.44071" lon="-1.55357">
        <ele>99.4</ele>
        <time>2019-07-16T13:08:28Z</time>
      </trkpt>
      <trkpt lat="48.44072" lon="-1.55354">
        <ele>98.9</ele>
        <time>2019-07-16T13:08:29Z</time>
      </trkpt>
      <trkpt lat="48.44074" lon="-1.55351">
        <ele>98.2</ele>
        <time>2019-07-16T13:08:30Z</time>
      </trkpt>
      <trkpt lat="48.44076" lon="-1.55348">
        <ele>97.8</ele>
        <time>2019-07-16T13:08:31Z</time>
      </trkpt>
      <trkpt lat="48.44078" lon="-1.55344">
        <ele>97.5</ele>
        <time>2019-07-16T13:08:32Z</time>
      </trkpt>
      <trkpt lat="48.44079" lon="-1.55341">
        <ele>97</ele>
        <time>2019-07-16T13:08:33Z</time>
      </trkpt>
      <trkpt lat="48.44081" lon="-1.55337">
        <ele>96.7</ele>
        <time>2019-07-16T13:08:34Z</time>
      </trkpt>
      <trkpt lat="48.44083" lon="-1.55334">
        <ele>96.3</ele>
        <time>2019-07-16T13:08:35Z</time>
      </trkpt>
      <trkpt lat="48.44084" lon="-1.55331">
        <ele>95.9</ele>
        <time>2019-07-16T13:08:36Z</time>
      </trkpt>
      <trkpt lat="48.44085" lon="-1.55327">
        <ele>95.7</ele>
        <time>2019-07-16T13:08:37Z</time>
      </trkpt>
      <trkpt lat="48.44087" lon="-1.55323">
        <ele>95</ele>
        <time>2019-07-16T13:08:38Z</time>
      </trkpt>
      <trkpt lat="48.44088" lon="-1.55319">
        <ele>94.4</ele>
        <time>2019-07-16T13:08:39Z</time>
      </trkpt>
      <trkpt lat="48.4409" lon="-1.55315">
        <ele>94</ele>
        <time>2019-07-16T13:08:40Z</time>
      </trkpt>
      <trkpt lat="48.44091" lon="-1.55312">
        <ele>93.4</ele>
        <time>2019-07-16T13:08:41Z</time>
      </trkpt>
      <trkpt lat="48.44092" lon="-1.55308">
        <ele>93.2</ele>
        <time>2019-07-16T13:08:42Z</time>
      </trkpt>
      <trkpt lat="48.44093" lon="-1.55305">
        <ele>93.6</ele>
        <time>2019-07-16T13:08:43Z</time>
      </trkpt>
      <trkpt lat="48.44094" lon="-1.55301">
        <ele>93.7</ele>
        <time>2019-07-16T13:08:44Z</time>
      </trkpt>
      <trkpt lat="48.44095" lon="-1.55298">
        <ele>93.8</ele>
        <time>2019-07-16T13:08:45Z</time>
      </trkpt>
      <trkpt lat="48.44096" lon="-1.55294">
        <ele>93.9</ele>
        <time>2019-07-16T13:08:46Z</time>
      </trkpt>
      <trkpt lat="48.44098" lon="-1.5529">
        <ele>93.3</ele>
        <time>2019-07-16T13:08:47Z</time>
      </trkpt>
      <trkpt lat="48.44099" lon="-1.55287">
        <ele>93.6</ele>
        <time>2019-07-16T13:08:48Z</time>
      </trkpt>
      <trkpt lat="48.44099" lon="-1.55284">
        <ele>93.9</ele>
        <time>2019-07-16T13:08:49Z</time>
      </trkpt>
      <trkpt lat="48.44101" lon="-1.5528">
        <ele>94</ele>
        <time>2019-07-16T13:08:50Z</time>
      </trkpt>
      <trkpt lat="48.44101" lon="-1.55276">
        <ele>93.9</ele>
        <time>2019-07-16T13:08:51Z</time>
      </trkpt>
      <trkpt lat="48.44103" lon="-1.55272">
        <ele>93.7</ele>
        <time>2019-07-16T13:08:52Z</time>
      </trkpt>
      <trkpt lat="48.44104" lon="-1.55268">
        <ele>93.6</ele>
        <time>2019-07-16T13:08:53Z</time>
      </trkpt>
      <trkpt lat="48.44104" lon="-1.55264">
        <ele>93.2</ele>
        <time>2019-07-16T13:08:54Z</time>
      </trkpt>
      <trkpt lat="48.44106" lon="-1.55261">
        <ele>92.9</ele>
        <time>2019-07-16T13:08:55Z</time>
      </trkpt>
      <trkpt lat="48.44107" lon="-1.55257">
        <ele>92.6</ele>
        <time>2019-07-16T13:08:56Z</time>
      </trkpt>
      <trkpt lat="48.44108" lon="-1.55253">
        <ele>92.7</ele>
        <time>2019-07-16T13:08:57Z</time>
      </trkpt>
      <trkpt lat="48.44109" lon="-1.55249">
        <ele>92.8</ele>
        <time>2019-07-16T13:08:58Z</time>
      </trkpt>
      <trkpt lat="48.4411" lon="-1.55246">
        <ele>93.2</ele>
        <time>2019-07-16T13:08:59Z</time>
      </trkpt>
      <trkpt lat="48.44111" lon="-1.55242">
        <ele>93.6</ele>
        <time>2019-07-16T13:09:00Z</time>
      </trkpt>
      <trkpt lat="48.44112" lon="-1.55239">
        <ele>94</ele>
        <time>2019-07-16T13:09:01Z</time>
      </trkpt>
      <trkpt lat="48.44114" lon="-1.55235">
        <ele>94.2</ele>
        <time>2019-07-16T13:09:02Z</time>
      </trkpt>
      <trkpt lat="48.44115" lon="-1.55231">
        <ele>94.3</ele>
        <time>2019-07-16T13:09:03Z</time>
      </trkpt>
      <trkpt lat="48.44116" lon="-1.55228">
        <ele>94.2</ele>
        <time>2019-07-16T13:09:04Z</time>
      </trkpt>
      <trkpt lat="48.44117" lon="-1.55224">
        <ele>94.3</ele>
        <time>2019-07-16T13:09:05Z</time>
      </trkpt>
      <trkpt lat="48.44119" lon="-1.55221">
        <ele>94.6</ele>
        <time>2019-07-16T13:09:06Z</time>
      </trkpt>
      <trkpt lat="48.4412" lon="-1.55217">
        <ele>94.7</ele>
        <time>2019-07-16T13:09:07Z</time>
      </trkpt>
      <trkpt lat="48.44121" lon="-1.55214">
        <ele>94.8</ele>
        <time>2019-07-16T13:09:08Z</time>
      </trkpt>
      <trkpt lat="48.44123" lon="-1.5521">
        <ele>94.9</ele>
        <time>2019-07-16T13:09:09Z</time>
      </trkpt>
      <trkpt lat="48.44124" lon="-1.55207">
        <ele>95.1</ele>
        <time>2019-07-16T13:09:10Z</time>
      </trkpt>
      <trkpt lat="48.44125" lon="-1.55204">
        <ele>95.4</ele>
        <time>2019-07-16T13:09:11Z</time>
      </trkpt>
      <trkpt lat="48.44127" lon="-1.552">
        <ele>95.5</ele>
        <time>2019-07-16T13:09:12Z</time>
      </trkpt>
      <trkpt lat="48.44128" lon="-1.55197">
        <ele>95.6</ele>
        <time>2019-07-16T13:09:13Z</time>
      </trkpt>
      <trkpt lat="48.4413" lon="-1.55194">
        <ele>95.7</ele>
        <time>2019-07-16T13:09:14Z</time>
      </trkpt>
      <trkpt lat="48.44131" lon="-1.55191">
        <ele>95.9</ele>
        <time>2019-07-16T13:09:15Z</time>
      </trkpt>
      <trkpt lat="48.44133" lon="-1.55188">
        <ele>96.5</ele>
        <time>2019-07-16T13:09:16Z</time>
      </trkpt>
      <trkpt lat="48.44134" lon="-1.55184">
        <ele>96.7</ele>
        <time>2019-07-16T13:09:17Z</time>
      </trkpt>
      <trkpt lat="48.44136" lon="-1.55181">
        <ele>96.9</ele>
        <time>2019-07-16T13:09:18Z</time>
      </trkpt>
      <trkpt lat="48.44137" lon="-1.55178">
        <ele>96.7</ele>
        <time>2019-07-16T13:09:19Z</time>
      </trkpt>
      <trkpt lat="48.44138" lon="-1.55174">
        <ele>96.9</ele>
        <time>2019-07-16T13:09:20Z</time>
      </trkpt>
      <trkpt lat="48.4414" lon="-1.55171">
        <ele>97.1</ele>
        <time>2019-07-16T13:09:21Z</time>
      </trkpt>
      <trkpt lat="48.44141" lon="-1.55168">
        <ele>97.2</ele>
        <time>2019-07-16T13:09:22Z</time>
      </trkpt>
      <trkpt lat="48.44143" lon="-1.55164">
        <ele>97</ele>
        <time>2019-07-16T13:09:23Z</time>
      </trkpt>
      <trkpt lat="48.44144" lon="-1.55161">
        <ele>96.7</ele>
        <time>2019-07-16T13:09:24Z</time>
      </trkpt>
      <trkpt lat="48.44145" lon="-1.55158">
        <ele>96.4</ele>
        <time>2019-07-16T13:09:25Z</time>
      </trkpt>
      <trkpt lat="48.44147" lon="-1.55154">
        <ele>96.9</ele>
        <time>2019-07-16T13:09:26Z</time>
      </trkpt>
      <trkpt lat="48.44148" lon="-1.55151">
        <ele>97.1</ele>
        <time>2019-07-16T13:09:27Z</time>
      </trkpt>
      <trkpt lat="48.4415" lon="-1.55147">
        <ele>97.2</ele>
        <time>2019-07-16T13:09:28Z</time>
      </trkpt>
      <trkpt lat="48.44152" lon="-1.55144">
        <ele>97.6</ele>
        <time>2019-07-16T13:09:29Z</time>
      </trkpt>
      <trkpt lat="48.44153" lon="-1.55141">
        <ele>97.9</ele>
        <time>2019-07-16T13:09:30Z</time>
      </trkpt>
      <trkpt lat="48.44155" lon="-1.55137">
        <ele>97.8</ele>
        <time>2019-07-16T13:09:31Z</time>
      </trkpt>
      <trkpt lat="48.44157" lon="-1.55134">
        <ele>98.2</ele>
        <time>2019-07-16T13:09:32Z</time>
      </trkpt>
      <trkpt lat="48.44158" lon="-1.55131">
        <ele>98.3</ele>
        <time>2019-07-16T13:09:33Z</time>
      </trkpt>
      <trkpt lat="48.4416" lon="-1.55127">
        <ele>98.1</ele>
        <time>2019-07-16T13:09:34Z</time>
      </trkpt>
      <trkpt lat="48.44161" lon="-1.55124">
        <ele>98.5</ele>
        <time>2019-07-16T13:09:35Z</time>
      </trkpt>
      <trkpt lat="48.44164" lon="-1.5512">
        <ele>98.3</ele>
        <time>2019-07-16T13:09:36Z</time>
      </trkpt>
      <trkpt lat="48.44165" lon="-1.55116">
        <ele>98.1</ele>
        <time>2019-07-16T13:09:37Z</time>
      </trkpt>
      <trkpt lat="48.44168" lon="-1.55114">
        <ele>99.1</ele>
        <time>2019-07-16T13:09:38Z</time>
      </trkpt>
      <trkpt lat="48.44169" lon="-1.5511">
        <ele>99.4</ele>
        <time>2019-07-16T13:09:39Z</time>
      </trkpt>
      <trkpt lat="48.44171" lon="-1.55107">
        <ele>99.1</ele>
        <time>2019-07-16T13:09:40Z</time>
      </trkpt>
      <trkpt lat="48.44172" lon="-1.55104">
        <ele>99.2</ele>
        <time>2019-07-16T13:09:41Z</time>
      </trkpt>
      <trkpt lat="48.44174" lon="-1.551">
        <ele>99.5</ele>
        <time>2019-07-16T13:09:42Z</time>
      </trkpt>
      <trkpt lat="48.44175" lon="-1.55097">
        <ele>99.8</ele>
        <time>2019-07-16T13:09:43Z</time>
      </trkpt>
      <trkpt lat="48.44176" lon="-1.55094">
        <ele>100.1</ele>
        <time>2019-07-16T13:09:44Z</time>
      </trkpt>
      <trkpt lat="48.44178" lon="-1.55091">
        <ele>100.8</ele>
        <time>2019-07-16T13:09:45Z</time>
      </trkpt>
      <trkpt lat="48.44179" lon="-1.55088">
        <ele>101</ele>
        <time>2019-07-16T13:09:46Z</time>
      </trkpt>
      <trkpt lat="48.4418" lon="-1.55084">
        <ele>101.4</ele>
        <time>2019-07-16T13:09:47Z</time>
      </trkpt>
      <trkpt lat="48.44181" lon="-1.55081">
        <ele>101.7</ele>
        <time>2019-07-16T13:09:48Z</time>
      </trkpt>
      <trkpt lat="48.44183" lon="-1.55078">
        <ele>102.3</ele>
        <time>2019-07-16T13:09:49Z</time>
      </trkpt>
      <trkpt lat="48.44185" lon="-1.55074">
        <ele>102.2</ele>
        <time>2019-07-16T13:09:50Z</time>
      </trkpt>
      <trkpt lat="48.44186" lon="-1.5507">
        <ele>102.2</ele>
        <time>2019-07-16T13:09:51Z</time>
      </trkpt>
      <trkpt lat="48.44187" lon="-1.55067">
        <ele>103.1</ele>
        <time>2019-07-16T13:09:52Z</time>
      </trkpt>
      <trkpt lat="48.44189" lon="-1.55063">
        <ele>103.4</ele>
        <time>2019-07-16T13:09:53Z</time>
      </trkpt>
      <trkpt lat="48.4419" lon="-1.5506">
        <ele>104.1</ele>
        <time>2019-07-16T13:09:54Z</time>
      </trkpt>
      <trkpt lat="48.44192" lon="-1.55056">
        <ele>103.8</ele>
        <time>2019-07-16T13:09:55Z</time>
      </trkpt>
      <trkpt lat="48.44194" lon="-1.55052">
        <ele>103.2</ele>
        <time>2019-07-16T13:09:56Z</time>
      </trkpt>
      <trkpt lat="48.44195" lon="-1.55048">
        <ele>102.9</ele>
        <time>2019-07-16T13:09:57Z</time>
      </trkpt>
      <trkpt lat="48.44197" lon="-1.55044">
        <ele>102.4</ele>
        <time>2019-07-16T13:09:58Z</time>
      </trkpt>
      <trkpt lat="48.44198" lon="-1.55039">
        <ele>102</ele>
        <time>2019-07-16T13:09:59Z</time>
      </trkpt>
      <trkpt lat="48.44199" lon="-1.55035">
        <ele>101.6</ele>
        <time>2019-07-16T13:10:00Z</time>
      </trkpt>
      <trkpt lat="48.44201" lon="-1.5503">
        <ele>101.1</ele>
        <time>2019-07-16T13:10:01Z</time>
      </trkpt>
      <trkpt lat="48.44202" lon="-1.55024">
        <ele>100.6</ele>
        <time>2019-07-16T13:10:02Z</time>
      </trkpt>
      <trkpt lat="48.44204" lon="-1.55019">
        <ele>99.9</ele>
        <time>2019-07-16T13:10:03Z</time>
      </trkpt>
      <trkpt lat="48.44205" lon="-1.55013">
        <ele>99.3</ele>
        <time>2019-07-16T13:10:04Z</time>
      </trkpt>
      <trkpt lat="48.44206" lon="-1.55007">
        <ele>98.7</ele>
        <time>2019-07-16T13:10:05Z</time>
      </trkpt>
      <trkpt lat="48.44207" lon="-1.55002">
        <ele>98.4</ele>
        <time>2019-07-16T13:10:06Z</time>
      </trkpt>
      <trkpt lat="48.44207" lon="-1.54996">
        <ele>98.5</ele>
        <time>2019-07-16T13:10:07Z</time>
      </trkpt>
      <trkpt lat="48.44208" lon="-1.5499">
        <ele>98.4</ele>
        <time>2019-07-16T13:10:08Z</time>
      </trkpt>
      <trkpt lat="48.44209" lon="-1.54985">
        <ele>98.5</ele>
        <time>2019-07-16T13:10:09Z</time>
      </trkpt>
      <trkpt lat="48.4421" lon="-1.54979">
        <ele>98.6</ele>
        <time>2019-07-16T13:10:10Z</time>
      </trkpt>
      <trkpt lat="48.44211" lon="-1.54973">
        <ele>98.9</ele>
        <time>2019-07-16T13:10:11Z</time>
      </trkpt>
      <trkpt lat="48.44212" lon="-1.54968">
        <ele>98.9</ele>
        <time>2019-07-16T13:10:12Z</time>
      </trkpt>
      <trkpt lat="48.44213" lon="-1.54962">
        <ele>99</ele>
        <time>2019-07-16T13:10:13Z</time>
      </trkpt>
      <trkpt lat="48.44214" lon="-1.54957">
        <ele>99</ele>
        <time>2019-07-16T13:10:14Z</time>
      </trkpt>
      <trkpt lat="48.44215" lon="-1.54952">
        <ele>99.3</ele>
        <time>2019-07-16T13:10:15Z</time>
      </trkpt>
      <trkpt lat="48.44217" lon="-1.54946">
        <ele>99.3</ele>
        <time>2019-07-16T13:10:16Z</time>
      </trkpt>
      <trkpt lat="48.44218" lon="-1.54941">
        <ele>100</ele>
        <time>2019-07-16T13:10:17Z</time>
      </trkpt>
      <trkpt lat="48.4422" lon="-1.54936">
        <ele>100.5</ele>
        <time>2019-07-16T13:10:18Z</time>
      </trkpt>
      <trkpt lat="48.44223" lon="-1.54931">
        <ele>101.7</ele>
        <time>2019-07-16T13:10:19Z</time>
      </trkpt>
      <trkpt lat="48.44225" lon="-1.54926">
        <ele>102.4</ele>
        <time>2019-07-16T13:10:20Z</time>
      </trkpt>
      <trkpt lat="48.44227" lon="-1.54921">
        <ele>102.5</ele>
        <time>2019-07-16T13:10:21Z</time>
      </trkpt>
      <trkpt lat="48.4423" lon="-1.54916">
        <ele>102.1</ele>
        <time>2019-07-16T13:10:22Z</time>
      </trkpt>
      <trkpt lat="48.44232" lon="-1.54912">
        <ele>101.7</ele>
        <time>2019-07-16T13:10:23Z</time>
      </trkpt>
      <trkpt lat="48.44235" lon="-1.54907">
        <ele>100.8</ele>
        <time>2019-07-16T13:10:24Z</time>
      </trkpt>
      <trkpt lat="48.44236" lon="-1.54903">
        <ele>100.6</ele>
        <time>2019-07-16T13:10:25Z</time>
      </trkpt>
      <trkpt lat="48.44238" lon="-1.549">
        <ele>101</ele>
        <time>2019-07-16T13:10:26Z</time>
      </trkpt>
      <trkpt lat="48.4424" lon="-1.54896">
        <ele>101</ele>
        <time>2019-07-16T13:10:27Z</time>
      </trkpt>
      <trkpt lat="48.44241" lon="-1.54893">
        <ele>100.7</ele>
        <time>2019-07-16T13:10:28Z</time>
      </trkpt>
      <trkpt lat="48.44243" lon="-1.5489">
        <ele>100.6</ele>
        <time>2019-07-16T13:10:29Z</time>
      </trkpt>
      <trkpt lat="48.44245" lon="-1.54887">
        <ele>100.2</ele>
        <time>2019-07-16T13:10:30Z</time>
      </trkpt>
      <trkpt lat="48.44247" lon="-1.54884">
        <ele>99.3</ele>
        <time>2019-07-16T13:10:31Z</time>
      </trkpt>
      <trkpt lat="48.44248" lon="-1.54881">
        <ele>98.2</ele>
        <time>2019-07-16T13:10:32Z</time>
      </trkpt>
      <trkpt lat="48.4425" lon="-1.54877">
        <ele>97.3</ele>
        <time>2019-07-16T13:10:33Z</time>
      </trkpt>
      <trkpt lat="48.44251" lon="-1.54875">
        <ele>97.2</ele>
        <time>2019-07-16T13:10:34Z</time>
      </trkpt>
      <trkpt lat="48.44253" lon="-1.54872">
        <ele>96.9</ele>
        <time>2019-07-16T13:10:35Z</time>
      </trkpt>
      <trkpt lat="48.44254" lon="-1.54869">
        <ele>96.7</ele>
        <time>2019-07-16T13:10:36Z</time>
      </trkpt>
      <trkpt lat="48.44255" lon="-1.54866">
        <ele>96.3</ele>
        <time>2019-07-16T13:10:37Z</time>
      </trkpt>
      <trkpt lat="48.44256" lon="-1.54862">
        <ele>96</ele>
        <time>2019-07-16T13:10:38Z</time>
      </trkpt>
      <trkpt lat="48.44257" lon="-1.54861">
        <ele>96.5</ele>
        <time>2019-07-16T13:10:39Z</time>
      </trkpt>
      <trkpt lat="48.44259" lon="-1.54858">
        <ele>96.6</ele>
        <time>2019-07-16T13:10:40Z</time>
      </trkpt>
      <trkpt lat="48.44259" lon="-1.54856">
        <ele>96.9</ele>
        <time>2019-07-16T13:10:41Z</time>
      </trkpt>
      <trkpt lat="48.4426" lon="-1.54854">
        <ele>97.1</ele>
        <time>2019-07-16T13:10:42Z</time>
      </trkpt>
      <trkpt lat="48.44261" lon="-1.54851">
        <ele>97.5</ele>
        <time>2019-07-16T13:10:43Z</time>
      </trkpt>
      <trkpt lat="48.44262" lon="-1.54849">
        <ele>97.6</ele>
        <time>2019-07-16T13:10:44Z</time>
      </trkpt>
      <trkpt lat="48.44263" lon="-1.54847">
        <ele>98.3</ele>
        <time>2019-07-16T13:10:45Z</time>
      </trkpt>
      <trkpt lat="48.44264" lon="-1.54844">
        <ele>99</ele>
        <time>2019-07-16T13:10:46Z</time>
      </trkpt>
      <trkpt lat="48.44265" lon="-1.54841">
        <ele>99</ele>
        <time>2019-07-16T13:10:47Z</time>
      </trkpt>
      <trkpt lat="48.44266" lon="-1.54839">
        <ele>99.4</ele>
        <time>2019-07-16T13:10:48Z</time>
      </trkpt>
      <trkpt lat="48.44267" lon="-1.54837">
        <ele>99.4</ele>
        <time>2019-07-16T13:10:49Z</time>
      </trkpt>
      <trkpt lat="48.44268" lon="-1.54834">
        <ele>99.6</ele>
        <time>2019-07-16T13:10:50Z</time>
      </trkpt>
      <trkpt lat="48.44268" lon="-1.54832">
        <ele>99.5</ele>
        <time>2019-07-16T13:10:51Z</time>
      </trkpt>
      <trkpt lat="48.44269" lon="-1.54829">
        <ele>99.6</ele>
        <time>2019-07-16T13:10:52Z</time>
      </trkpt>
      <trkpt lat="48.4427" lon="-1.54826">
        <ele>99.8</ele>
        <time>2019-07-16T13:10:53Z</time>
      </trkpt>
      <trkpt lat="48.4427" lon="-1.54824">
        <ele>100.3</ele>
        <time>2019-07-16T13:10:54Z</time>
      </trkpt>
      <trkpt lat="48.44272" lon="-1.54821">
        <ele>100.1</ele>
        <time>2019-07-16T13:10:55Z</time>
      </trkpt>
      <trkpt lat="48.44272" lon="-1.54819">
        <ele>100</ele>
        <time>2019-07-16T13:10:56Z</time>
      </trkpt>
      <trkpt lat="48.44273" lon="-1.54816">
        <ele>99.6</ele>
        <time>2019-07-16T13:11:22Z</time>
      </trkpt>
      <trkpt lat="48.44274" lon="-1.54814">
        <ele>99.4</ele>
        <time>2019-07-16T13:11:23Z</time>
      </trkpt>
      <trkpt lat="48.44275" lon="-1.54812">
        <ele>99.2</ele>
        <time>2019-07-16T13:11:24Z</time>
      </trkpt>
      <trkpt lat="48.44275" lon="-1.5481">
        <ele>99.2</ele>
        <time>2019-07-16T13:11:25Z</time>
      </trkpt>
      <trkpt lat="48.44276" lon="-1.54808">
        <ele>99.3</ele>
        <time>2019-07-16T13:11:26Z</time>
      </trkpt>
      <trkpt lat="48.44276" lon="-1.54804">
        <ele>99.2</ele>
        <time>2019-07-16T13:11:27Z</time>
      </trkpt>
      <trkpt lat="48.44277" lon="-1.54801">
        <ele>99.1</ele>
        <time>2019-07-16T13:11:28Z</time>
      </trkpt>
      <trkpt lat="48.44277" lon="-1.54797">
        <ele>99.3</ele>
        <time>2019-07-16T13:11:29Z</time>
      </trkpt>
      <trkpt lat="48.44278" lon="-1.54793">
        <ele>99.5</ele>
        <time>2019-07-16T13:11:30Z</time>
      </trkpt>
      <trkpt lat="48.44279" lon="-1.54789">
        <ele>99.8</ele>
        <time>2019-07-16T13:11:31Z</time>
      </trkpt>
      <trkpt lat="48.4428" lon="-1.54785">
        <ele>100.2</ele>
        <time>2019-07-16T13:11:32Z</time>
      </trkpt>
      <trkpt lat="48.44281" lon="-1.54781">
        <ele>100.7</ele>
        <time>2019-07-16T13:11:33Z</time>
      </trkpt>
      <trkpt lat="48.44282" lon="-1.54776">
        <ele>101.3</ele>
        <time>2019-07-16T13:11:34Z</time>
      </trkpt>
      <trkpt lat="48.44283" lon="-1.54772">
        <ele>101.5</ele>
        <time>2019-07-16T13:11:35Z</time>
      </trkpt>
      <trkpt lat="48.44284" lon="-1.54767">
        <ele>101.2</ele>
        <time>2019-07-16T13:11:36Z</time>
      </trkpt>
      <trkpt lat="48.44284" lon="-1.54762">
        <ele>100.6</ele>
        <time>2019-07-16T13:11:37Z</time>
      </trkpt>
      <trkpt lat="48.44285" lon="-1.54758">
        <ele>100.5</ele>
        <time>2019-07-16T13:11:38Z</time>
      </trkpt>
      <trkpt lat="48.44286" lon="-1.54753">
        <ele>100.7</ele>
        <time>2019-07-16T13:11:39Z</time>
      </trkpt>
      <trkpt lat="48.44287" lon="-1.54749">
        <ele>101.1</ele>
        <time>2019-07-16T13:11:40Z</time>
      </trkpt>
      <trkpt lat="48.44288" lon="-1.54745">
        <ele>101.6</ele>
        <time>2019-07-16T13:11:41Z</time>
      </trkpt>
      <trkpt lat="48.44289" lon="-1.5474">
        <ele>101.9</ele>
        <time>2019-07-16T13:11:42Z</time>
      </trkpt>
      <trkpt lat="48.4429" lon="-1.54735">
        <ele>102.3</ele>
        <time>2019-07-16T13:11:43Z</time>
      </trkpt>
      <trkpt lat="48.44291" lon="-1.54731">
        <ele>102.5</ele>
        <time>2019-07-16T13:11:44Z</time>
      </trkpt>
      <trkpt lat="48.44292" lon="-1.54726">
        <ele>102.7</ele>
        <time>2019-07-16T13:11:45Z</time>
      </trkpt>
      <trkpt lat="48.44293" lon="-1.54722">
        <ele>103</ele>
        <time>2019-07-16T13:11:46Z</time>
      </trkpt>
      <trkpt lat="48.44294" lon="-1.54718">
        <ele>103.8</ele>
        <time>2019-07-16T13:11:47Z</time>
      </trkpt>
      <trkpt lat="48.44294" lon="-1.54713">
        <ele>104</ele>
        <time>2019-07-16T13:11:48Z</time>
      </trkpt>
      <trkpt lat="48.44295" lon="-1.54708">
        <ele>104.3</ele>
        <time>2019-07-16T13:11:49Z</time>
      </trkpt>
      <trkpt lat="48.44296" lon="-1.54703">
        <ele>104</ele>
        <time>2019-07-16T13:11:50Z</time>
      </trkpt>
      <trkpt lat="48.44297" lon="-1.54698">
        <ele>104.2</ele>
        <time>2019-07-16T13:11:51Z</time>
      </trkpt>
      <trkpt lat="48.44298" lon="-1.54693">
        <ele>105.1</ele>
        <time>2019-07-16T13:11:52Z</time>
      </trkpt>
      <trkpt lat="48.44299" lon="-1.54688">
        <ele>105.5</ele>
        <time>2019-07-16T13:11:53Z</time>
      </trkpt>
      <trkpt lat="48.44299" lon="-1.54683">
        <ele>105.3</ele>
        <time>2019-07-16T13:11:54Z</time>
      </trkpt>
      <trkpt lat="48.443" lon="-1.54678">
        <ele>105.4</ele>
        <time>2019-07-16T13:11:55Z</time>
      </trkpt>
      <trkpt lat="48.44301" lon="-1.54673">
        <ele>105.2</ele>
        <time>2019-07-16T13:11:56Z</time>
      </trkpt>
      <trkpt lat="48.44302" lon="-1.54668">
        <ele>105.1</ele>
        <time>2019-07-16T13:11:57Z</time>
      </trkpt>
      <trkpt lat="48.44303" lon="-1.54663">
        <ele>104.7</ele>
        <time>2019-07-16T13:11:58Z</time>
      </trkpt>
      <trkpt lat="48.44304" lon="-1.54658">
        <ele>104.6</ele>
        <time>2019-07-16T13:11:59Z</time>
      </trkpt>
      <trkpt lat="48.44305" lon="-1.54653">
        <ele>104.3</ele>
        <time>2019-07-16T13:12:00Z</time>
      </trkpt>
      <trkpt lat="48.44305" lon="-1.54649">
        <ele>104.1</ele>
        <time>2019-07-16T13:12:01Z</time>
      </trkpt>
      <trkpt lat="48.44306" lon="-1.54644">
        <ele>103.7</ele>
        <time>2019-07-16T13:12:02Z</time>
      </trkpt>
      <trkpt lat="48.44307" lon="-1.54639">
        <ele>103</ele>
        <time>2019-07-16T13:12:03Z</time>
      </trkpt>
      <trkpt lat="48.44309" lon="-1.54634">
        <ele>102.5</ele>
        <time>2019-07-16T13:12:04Z</time>
      </trkpt>
      <trkpt lat="48.44309" lon="-1.54629">
        <ele>101.8</ele>
        <time>2019-07-16T13:12:05Z</time>
      </trkpt>
      <trkpt lat="48.4431" lon="-1.54624">
        <ele>101.6</ele>
        <time>2019-07-16T13:12:06Z</time>
      </trkpt>
      <trkpt lat="48.44311" lon="-1.54619">
        <ele>101.5</ele>
        <time>2019-07-16T13:12:07Z</time>
      </trkpt>
      <trkpt lat="48.44312" lon="-1.54614">
        <ele>101.7</ele>
        <time>2019-07-16T13:12:08Z</time>
      </trkpt>
      <trkpt lat="48.44313" lon="-1.54609">
        <ele>102.4</ele>
        <time>2019-07-16T13:12:09Z</time>
      </trkpt>
      <trkpt lat="48.44314" lon="-1.54604">
        <ele>102.5</ele>
        <time>2019-07-16T13:12:10Z</time>
      </trkpt>
      <trkpt lat="48.44315" lon="-1.546">
        <ele>102.8</ele>
        <time>2019-07-16T13:12:11Z</time>
      </trkpt>
      <trkpt lat="48.44316" lon="-1.54594">
        <ele>103.3</ele>
        <time>2019-07-16T13:12:12Z</time>
      </trkpt>
      <trkpt lat="48.44317" lon="-1.54589">
        <ele>103.8</ele>
        <time>2019-07-16T13:12:13Z</time>
      </trkpt>
      <trkpt lat="48.44318" lon="-1.54584">
        <ele>104.1</ele>
        <time>2019-07-16T13:12:14Z</time>
      </trkpt>
      <trkpt lat="48.44318" lon="-1.54578">
        <ele>104.4</ele>
        <time>2019-07-16T13:12:15Z</time>
      </trkpt>
      <trkpt lat="48.44319" lon="-1.54573">
        <ele>104.6</ele>
        <time>2019-07-16T13:12:16Z</time>
      </trkpt>
      <trkpt lat="48.4432" lon="-1.54568">
        <ele>104.7</ele>
        <time>2019-07-16T13:12:17Z</time>
      </trkpt>
      <trkpt lat="48.44321" lon="-1.54563">
        <ele>105.2</ele>
        <time>2019-07-16T13:12:18Z</time>
      </trkpt>
      <trkpt lat="48.44322" lon="-1.54558">
        <ele>105.6</ele>
        <time>2019-07-16T13:12:19Z</time>
      </trkpt>
      <trkpt lat="48.44323" lon="-1.54553">
        <ele>105.9</ele>
        <time>2019-07-16T13:12:20Z</time>
      </trkpt>
      <trkpt lat="48.44324" lon="-1.54547">
        <ele>106</ele>
        <time>2019-07-16T13:12:21Z</time>
      </trkpt>
      <trkpt lat="48.44325" lon="-1.54542">
        <ele>106.4</ele>
        <time>2019-07-16T13:12:22Z</time>
      </trkpt>
      <trkpt lat="48.44326" lon="-1.54537">
        <ele>106.4</ele>
        <time>2019-07-16T13:12:23Z</time>
      </trkpt>
      <trkpt lat="48.44326" lon="-1.54531">
        <ele>106.3</ele>
        <time>2019-07-16T13:12:24Z</time>
      </trkpt>
      <trkpt lat="48.44327" lon="-1.54526">
        <ele>106.1</ele>
        <time>2019-07-16T13:12:25Z</time>
      </trkpt>
      <trkpt lat="48.44328" lon="-1.5452">
        <ele>105.9</ele>
        <time>2019-07-16T13:12:26Z</time>
      </trkpt>
      <trkpt lat="48.44329" lon="-1.54515">
        <ele>105.5</ele>
        <time>2019-07-16T13:12:27Z</time>
      </trkpt>
      <trkpt lat="48.4433" lon="-1.5451">
        <ele>105.3</ele>
        <time>2019-07-16T13:12:28Z</time>
      </trkpt>
      <trkpt lat="48.44331" lon="-1.54504">
        <ele>105.3</ele>
        <time>2019-07-16T13:12:29Z</time>
      </trkpt>
      <trkpt lat="48.44332" lon="-1.54499">
        <ele>105.2</ele>
        <time>2019-07-16T13:12:30Z</time>
      </trkpt>
      <trkpt lat="48.44333" lon="-1.54493">
        <ele>104.8</ele>
        <time>2019-07-16T13:12:31Z</time>
      </trkpt>
      <trkpt lat="48.44334" lon="-1.54488">
        <ele>104.7</ele>
        <time>2019-07-16T13:12:32Z</time>
      </trkpt>
      <trkpt lat="48.44335" lon="-1.54482">
        <ele>104.8</ele>
        <time>2019-07-16T13:12:33Z</time>
      </trkpt>
      <trkpt lat="48.44336" lon="-1.54477">
        <ele>104.5</ele>
        <time>2019-07-16T13:12:34Z</time>
      </trkpt>
      <trkpt lat="48.44337" lon="-1.54471">
        <ele>104.2</ele>
        <time>2019-07-16T13:12:35Z</time>
      </trkpt>
      <trkpt lat="48.44338" lon="-1.54466">
        <ele>103.9</ele>
        <time>2019-07-16T13:12:36Z</time>
      </trkpt>
      <trkpt lat="48.44339" lon="-1.5446">
        <ele>104</ele>
        <time>2019-07-16T13:12:37Z</time>
      </trkpt>
      <trkpt lat="48.4434" lon="-1.54455">
        <ele>104.2</ele>
        <time>2019-07-16T13:12:38Z</time>
      </trkpt>
      <trkpt lat="48.44341" lon="-1.5445">
        <ele>104.5</ele>
        <time>2019-07-16T13:12:39Z</time>
      </trkpt>
      <trkpt lat="48.44342" lon="-1.54444">
        <ele>104.7</ele>
        <time>2019-07-16T13:12:40Z</time>
      </trkpt>
      <trkpt lat="48.44343" lon="-1.54439">
        <ele>105</ele>
        <time>2019-07-16T13:12:41Z</time>
      </trkpt>
      <trkpt lat="48.44344" lon="-1.54433">
        <ele>105.3</ele>
        <time>2019-07-16T13:12:42Z</time>
      </trkpt>
      <trkpt lat="48.44345" lon="-1.54428">
        <ele>105.5</ele>
        <time>2019-07-16T13:12:43Z</time>
      </trkpt>
      <trkpt lat="48.44346" lon="-1.54421">
        <ele>105.6</ele>
        <time>2019-07-16T13:12:44Z</time>
      </trkpt>
      <trkpt lat="48.44346" lon="-1.54415">
        <ele>105.5</ele>
        <time>2019-07-16T13:12:45Z</time>
      </trkpt>
      <trkpt lat="48.44347" lon="-1.54409">
        <ele>105.6</ele>
        <time>2019-07-16T13:12:46Z</time>
      </trkpt>
      <trkpt lat="48.44348" lon="-1.54404">
        <ele>105.7</ele>
        <time>2019-07-16T13:12:47Z</time>
      </trkpt>
      <trkpt lat="48.44349" lon="-1.54398">
        <ele>105.6</ele>
        <time>2019-07-16T13:12:48Z</time>
      </trkpt>
      <trkpt lat="48.4435" lon="-1.54392">
        <ele>105.6</ele>
        <time>2019-07-16T13:12:49Z</time>
      </trkpt>
      <trkpt lat="48.44352" lon="-1.54386">
        <ele>105.5</ele>
        <time>2019-07-16T13:12:50Z</time>
      </trkpt>
      <trkpt lat="48.44353" lon="-1.54381">
        <ele>106</ele>
        <time>2019-07-16T13:12:51Z</time>
      </trkpt>
      <trkpt lat="48.44354" lon="-1.54375">
        <ele>105.8</ele>
        <time>2019-07-16T13:12:52Z</time>
      </trkpt>
      <trkpt lat="48.44355" lon="-1.5437">
        <ele>106.2</ele>
        <time>2019-07-16T13:12:53Z</time>
      </trkpt>
      <trkpt lat="48.44357" lon="-1.54365">
        <ele>106.3</ele>
        <time>2019-07-16T13:12:54Z</time>
      </trkpt>
      <trkpt lat="48.44357" lon="-1.54359">
        <ele>106.7</ele>
        <time>2019-07-16T13:12:55Z</time>
      </trkpt>
      <trkpt lat="48.44358" lon="-1.54354">
        <ele>107.1</ele>
        <time>2019-07-16T13:12:56Z</time>
      </trkpt>
      <trkpt lat="48.44358" lon="-1.54348">
        <ele>107.2</ele>
        <time>2019-07-16T13:12:57Z</time>
      </trkpt>
      <trkpt lat="48.44357" lon="-1.54343">
        <ele>107.3</ele>
        <time>2019-07-16T13:12:58Z</time>
      </trkpt>
      <trkpt lat="48.44357" lon="-1.54338">
        <ele>106.7</ele>
        <time>2019-07-16T13:12:59Z</time>
      </trkpt>
      <trkpt lat="48.44358" lon="-1.54333">
        <ele>106.4</ele>
        <time>2019-07-16T13:13:00Z</time>
      </trkpt>
      <trkpt lat="48.44358" lon="-1.54329">
        <ele>106.5</ele>
        <time>2019-07-16T13:13:01Z</time>
      </trkpt>
      <trkpt lat="48.44358" lon="-1.54326">
        <ele>106.2</ele>
        <time>2019-07-16T13:13:02Z</time>
      </trkpt>
      <trkpt lat="48.44358" lon="-1.54323">
        <ele>106.1</ele>
        <time>2019-07-16T13:13:03Z</time>
      </trkpt>
      <trkpt lat="48.44358" lon="-1.54319">
        <ele>106.2</ele>
        <time>2019-07-16T13:13:04Z</time>
      </trkpt>
      <trkpt lat="48.44357" lon="-1.54315">
        <ele>106.3</ele>
        <time>2019-07-16T13:13:05Z</time>
      </trkpt>
      <trkpt lat="48.44357" lon="-1.54311">
        <ele>105.8</ele>
        <time>2019-07-16T13:13:06Z</time>
      </trkpt>
      <trkpt lat="48.44356" lon="-1.54307">
        <ele>104.9</ele>
        <time>2019-07-16T13:13:07Z</time>
      </trkpt>
      <trkpt lat="48.44355" lon="-1.54302">
        <ele>103.9</ele>
        <time>2019-07-16T13:13:08Z</time>
      </trkpt>
      <trkpt lat="48.44356" lon="-1.54297">
        <ele>103</ele>
        <time>2019-07-16T13:13:09Z</time>
      </trkpt>
      <trkpt lat="48.44356" lon="-1.54293">
        <ele>102.9</ele>
        <time>2019-07-16T13:13:10Z</time>
      </trkpt>
      <trkpt lat="48.44356" lon="-1.54287">
        <ele>102.3</ele>
        <time>2019-07-16T13:13:11Z</time>
      </trkpt>
      <trkpt lat="48.44355" lon="-1.54282">
        <ele>101.4</ele>
        <time>2019-07-16T13:13:12Z</time>
      </trkpt>
      <trkpt lat="48.44355" lon="-1.54276">
        <ele>101.3</ele>
        <time>2019-07-16T13:13:13Z</time>
      </trkpt>
      <trkpt lat="48.44354" lon="-1.5427">
        <ele>100.5</ele>
        <time>2019-07-16T13:13:14Z</time>
      </trkpt>
      <trkpt lat="48.44352" lon="-1.54264">
        <ele>99.8</ele>
        <time>2019-07-16T13:13:15Z</time>
      </trkpt>
      <trkpt lat="48.44352" lon="-1.54257">
        <ele>99.4</ele>
        <time>2019-07-16T13:13:16Z</time>
      </trkpt>
      <trkpt lat="48.44351" lon="-1.5425">
        <ele>98.8</ele>
        <time>2019-07-16T13:13:17Z</time>
      </trkpt>
      <trkpt lat="48.4435" lon="-1.54242">
        <ele>98</ele>
        <time>2019-07-16T13:13:18Z</time>
      </trkpt>
      <trkpt lat="48.44349" lon="-1.54235">
        <ele>97.1</ele>
        <time>2019-07-16T13:13:19Z</time>
      </trkpt>
      <trkpt lat="48.44348" lon="-1.54227">
        <ele>96</ele>
        <time>2019-07-16T13:13:20Z</time>
      </trkpt>
      <trkpt lat="48.44347" lon="-1.54219">
        <ele>95.3</ele>
        <time>2019-07-16T13:13:21Z</time>
      </trkpt>
      <trkpt lat="48.44347" lon="-1.5421">
        <ele>94.6</ele>
        <time>2019-07-16T13:13:22Z</time>
      </trkpt>
      <trkpt lat="48.44346" lon="-1.54202">
        <ele>94</ele>
        <time>2019-07-16T13:13:23Z</time>
      </trkpt>
      <trkpt lat="48.44346" lon="-1.54194">
        <ele>93.5</ele>
        <time>2019-07-16T13:13:24Z</time>
      </trkpt>
      <trkpt lat="48.44345" lon="-1.54185">
        <ele>92.9</ele>
        <time>2019-07-16T13:13:25Z</time>
      </trkpt>
      <trkpt lat="48.44344" lon="-1.54177">
        <ele>91.9</ele>
        <time>2019-07-16T13:13:26Z</time>
      </trkpt>
      <trkpt lat="48.44343" lon="-1.54168">
        <ele>91.2</ele>
        <time>2019-07-16T13:13:27Z</time>
      </trkpt>
      <trkpt lat="48.44342" lon="-1.54159">
        <ele>90.5</ele>
        <time>2019-07-16T13:13:28Z</time>
      </trkpt>
      <trkpt lat="48.44342" lon="-1.5415">
        <ele>89.9</ele>
        <time>2019-07-16T13:13:29Z</time>
      </trkpt>
      <trkpt lat="48.44341" lon="-1.54142">
        <ele>89.1</ele>
        <time>2019-07-16T13:13:30Z</time>
      </trkpt>
      <trkpt lat="48.44341" lon="-1.54133">
        <ele>88.4</ele>
        <time>2019-07-16T13:13:31Z</time>
      </trkpt>
      <trkpt lat="48.44339" lon="-1.54124">
        <ele>87.7</ele>
        <time>2019-07-16T13:13:32Z</time>
      </trkpt>
      <trkpt lat="48.44339" lon="-1.54114">
        <ele>87.1</ele>
        <time>2019-07-16T13:13:33Z</time>
      </trkpt>
      <trkpt lat="48.44338" lon="-1.54105">
        <ele>86.5</ele>
        <time>2019-07-16T13:13:34Z</time>
      </trkpt>
      <trkpt lat="48.44337" lon="-1.54095">
        <ele>85.9</ele>
        <time>2019-07-16T13:13:35Z</time>
      </trkpt>
      <trkpt lat="48.44336" lon="-1.54085">
        <ele>84.9</ele>
        <time>2019-07-16T13:13:36Z</time>
      </trkpt>
      <trkpt lat="48.44335" lon="-1.54075">
        <ele>84.3</ele>
        <time>2019-07-16T13:13:37Z</time>
      </trkpt>
      <trkpt lat="48.44334" lon="-1.54065">
        <ele>83.7</ele>
        <time>2019-07-16T13:13:38Z</time>
      </trkpt>
      <trkpt lat="48.44334" lon="-1.54055">
        <ele>83.3</ele>
        <time>2019-07-16T13:13:39Z</time>
      </trkpt>
      <trkpt lat="48.44334" lon="-1.54045">
        <ele>82.7</ele>
        <time>2019-07-16T13:13:40Z</time>
      </trkpt>
      <trkpt lat="48.44334" lon="-1.54036">
        <ele>82.3</ele>
        <time>2019-07-16T13:13:41Z</time>
      </trkpt>
      <trkpt lat="48.44334" lon="-1.54027">
        <ele>81.9</ele>
        <time>2019-07-16T13:13:42Z</time>
      </trkpt>
      <trkpt lat="48.44335" lon="-1.54018">
        <ele>81.2</ele>
        <time>2019-07-16T13:13:43Z</time>
      </trkpt>
      <trkpt lat="48.44336" lon="-1.5401">
        <ele>80.4</ele>
        <time>2019-07-16T13:13:44Z</time>
      </trkpt>
      <trkpt lat="48.44337" lon="-1.54002">
        <ele>79.7</ele>
        <time>2019-07-16T13:13:45Z</time>
      </trkpt>
      <trkpt lat="48.44338" lon="-1.53994">
        <ele>78.8</ele>
        <time>2019-07-16T13:13:46Z</time>
      </trkpt>
      <trkpt lat="48.44339" lon="-1.53986">
        <ele>78.1</ele>
        <time>2019-07-16T13:13:47Z</time>
      </trkpt>
      <trkpt lat="48.4434" lon="-1.53977">
        <ele>77.3</ele>
        <time>2019-07-16T13:13:48Z</time>
      </trkpt>
      <trkpt lat="48.44341" lon="-1.53969">
        <ele>76.6</ele>
        <time>2019-07-16T13:13:49Z</time>
      </trkpt>
      <trkpt lat="48.44343" lon="-1.53961">
        <ele>75.9</ele>
        <time>2019-07-16T13:13:50Z</time>
      </trkpt>
      <trkpt lat="48.44344" lon="-1.53952">
        <ele>75</ele>
        <time>2019-07-16T13:13:51Z</time>
      </trkpt>
      <trkpt lat="48.44346" lon="-1.53944">
        <ele>74.4</ele>
        <time>2019-07-16T13:13:52Z</time>
      </trkpt>
      <trkpt lat="48.44347" lon="-1.53937">
        <ele>73.7</ele>
        <time>2019-07-16T13:13:53Z</time>
      </trkpt>
      <trkpt lat="48.44349" lon="-1.53929">
        <ele>73.2</ele>
        <time>2019-07-16T13:13:54Z</time>
      </trkpt>
      <trkpt lat="48.4435" lon="-1.5392">
        <ele>72.5</ele>
        <time>2019-07-16T13:13:55Z</time>
      </trkpt>
      <trkpt lat="48.44352" lon="-1.53912">
        <ele>72.5</ele>
        <time>2019-07-16T13:13:56Z</time>
      </trkpt>
      <trkpt lat="48.44354" lon="-1.53904">
        <ele>72.5</ele>
        <time>2019-07-16T13:13:57Z</time>
      </trkpt>
      <trkpt lat="48.44355" lon="-1.53895">
        <ele>72.6</ele>
        <time>2019-07-16T13:13:58Z</time>
      </trkpt>
      <trkpt lat="48.44356" lon="-1.53888">
        <ele>72.7</ele>
        <time>2019-07-16T13:13:59Z</time>
      </trkpt>
      <trkpt lat="48.44356" lon="-1.53881">
        <ele>73.2</ele>
        <time>2019-07-16T13:14:00Z</time>
      </trkpt>
      <trkpt lat="48.44356" lon="-1.53876">
        <ele>73.1</ele>
        <time>2019-07-16T13:14:01Z</time>
      </trkpt>
      <trkpt lat="48.44357" lon="-1.53871">
        <ele>73</ele>
        <time>2019-07-16T13:14:02Z</time>
      </trkpt>
      <trkpt lat="48.4436" lon="-1.5387">
        <ele>73.5</ele>
        <time>2019-07-16T13:14:03Z</time>
      </trkpt>
      <trkpt lat="48.44362" lon="-1.53868">
        <ele>74.1</ele>
        <time>2019-07-16T13:14:04Z</time>
      </trkpt>
      <trkpt lat="48.44362" lon="-1.53864">
        <ele>74.4</ele>
        <time>2019-07-16T13:14:05Z</time>
      </trkpt>
      <trkpt lat="48.44362" lon="-1.53862">
        <ele>74.1</ele>
        <time>2019-07-16T13:14:06Z</time>
      </trkpt>
      <trkpt lat="48.44363" lon="-1.53859">
        <ele>73.1</ele>
        <time>2019-07-16T13:14:07Z</time>
      </trkpt>
      <trkpt lat="48.44363" lon="-1.53856">
        <ele>72.5</ele>
        <time>2019-07-16T13:14:08Z</time>
      </trkpt>
      <trkpt lat="48.44363" lon="-1.53853">
        <ele>72.1</ele>
        <time>2019-07-16T13:14:09Z</time>
      </trkpt>
      <trkpt lat="48.44363" lon="-1.5385">
        <ele>71.6</ele>
        <time>2019-07-16T13:14:10Z</time>
      </trkpt>
      <trkpt lat="48.44364" lon="-1.53848">
        <ele>71.7</ele>
        <time>2019-07-16T13:14:11Z</time>
      </trkpt>
      <trkpt lat="48.44364" lon="-1.53847">
        <ele>73.1</ele>
        <time>2019-07-16T13:14:12Z</time>
      </trkpt>
      <trkpt lat="48.44373" lon="-1.53844">
        <ele>76.1</ele>
        <time>2019-07-16T13:18:33Z</time>
      </trkpt>
      <trkpt lat="48.44373" lon="-1.53842">
        <ele>75.9</ele>
        <time>2019-07-16T13:18:34Z</time>
      </trkpt>
      <trkpt lat="48.44373" lon="-1.5384">
        <ele>75.8</ele>
        <time>2019-07-16T13:18:35Z</time>
      </trkpt>
      <trkpt lat="48.44372" lon="-1.53838">
        <ele>75.6</ele>
        <time>2019-07-16T13:18:36Z</time>
      </trkpt>
      <trkpt lat="48.44372" lon="-1.53835">
        <ele>75.6</ele>
        <time>2019-07-16T13:18:37Z</time>
      </trkpt>
      <trkpt lat="48.44371" lon="-1.53832">
        <ele>75.5</ele>
        <time>2019-07-16T13:18:38Z</time>
      </trkpt>
      <trkpt lat="48.44371" lon="-1.53828">
        <ele>75.4</ele>
        <time>2019-07-16T13:18:39Z</time>
      </trkpt>
      <trkpt lat="48.44372" lon="-1.53825">
        <ele>75.3</ele>
        <time>2019-07-16T13:18:40Z</time>
      </trkpt>
      <trkpt lat="48.44373" lon="-1.53822">
        <ele>75.4</ele>
        <time>2019-07-16T13:18:41Z</time>
      </trkpt>
      <trkpt lat="48.44373" lon="-1.53818">
        <ele>75.4</ele>
        <time>2019-07-16T13:18:42Z</time>
      </trkpt>
      <trkpt lat="48.44375" lon="-1.53815">
        <ele>75.4</ele>
        <time>2019-07-16T13:18:43Z</time>
      </trkpt>
      <trkpt lat="48.44376" lon="-1.53812">
        <ele>75.6</ele>
        <time>2019-07-16T13:18:44Z</time>
      </trkpt>
      <trkpt lat="48.44376" lon="-1.53809">
        <ele>75.8</ele>
        <time>2019-07-16T13:18:45Z</time>
      </trkpt>
      <trkpt lat="48.44376" lon="-1.53806">
        <ele>75.9</ele>
        <time>2019-07-16T13:18:46Z</time>
      </trkpt>
      <trkpt lat="48.44376" lon="-1.53802">
        <ele>76.1</ele>
        <time>2019-07-16T13:18:47Z</time>
      </trkpt>
      <trkpt lat="48.44377" lon="-1.53797">
        <ele>76.4</ele>
        <time>2019-07-16T13:18:48Z</time>
      </trkpt>
      <trkpt lat="48.44377" lon="-1.53794">
        <ele>76.6</ele>
        <time>2019-07-16T13:18:49Z</time>
      </trkpt>
      <trkpt lat="48.44377" lon="-1.5379">
        <ele>77</ele>
        <time>2019-07-16T13:18:50Z</time>
      </trkpt>
      <trkpt lat="48.44377" lon="-1.53786">
        <ele>77.3</ele>
        <time>2019-07-16T13:18:51Z</time>
      </trkpt>
      <trkpt lat="48.44377" lon="-1.53782">
        <ele>77.7</ele>
        <time>2019-07-16T13:18:52Z</time>
      </trkpt>
      <trkpt lat="48.44378" lon="-1.53778">
        <ele>78</ele>
        <time>2019-07-16T13:18:53Z</time>
      </trkpt>
      <trkpt lat="48.44377" lon="-1.53774">
        <ele>78.2</ele>
        <time>2019-07-16T13:18:54Z</time>
      </trkpt>
      <trkpt lat="48.44378" lon="-1.53771">
        <ele>78.4</ele>
        <time>2019-07-16T13:18:55Z</time>
      </trkpt>
      <trkpt lat="48.44378" lon="-1.53767">
        <ele>78.8</ele>
        <time>2019-07-16T13:18:56Z</time>
      </trkpt>
      <trkpt lat="48.44378" lon="-1.53763">
        <ele>79.2</ele>
        <time>2019-07-16T13:18:57Z</time>
      </trkpt>
      <trkpt lat="48.44377" lon="-1.53759">
        <ele>79.4</ele>
        <time>2019-07-16T13:18:58Z</time>
      </trkpt>
      <trkpt lat="48.44377" lon="-1.53755">
        <ele>79.1</ele>
        <time>2019-07-16T13:18:59Z</time>
      </trkpt>
      <trkpt lat="48.44378" lon="-1.53751">
        <ele>79.2</ele>
        <time>2019-07-16T13:19:00Z</time>
      </trkpt>
      <trkpt lat="48.44378" lon="-1.53748">
        <ele>79.3</ele>
        <time>2019-07-16T13:19:01Z</time>
      </trkpt>
      <trkpt lat="48.44378" lon="-1.53744">
        <ele>79.4</ele>
        <time>2019-07-16T13:19:02Z</time>
      </trkpt>
      <trkpt lat="48.44379" lon="-1.5374">
        <ele>79.4</ele>
        <time>2019-07-16T13:19:03Z</time>
      </trkpt>
      <trkpt lat="48.44379" lon="-1.53736">
        <ele>79.3</ele>
        <time>2019-07-16T13:19:04Z</time>
      </trkpt>
      <trkpt lat="48.4438" lon="-1.53732">
        <ele>78.8</ele>
        <time>2019-07-16T13:19:05Z</time>
      </trkpt>
      <trkpt lat="48.44381" lon="-1.53726">
        <ele>78.8</ele>
        <time>2019-07-16T13:19:06Z</time>
      </trkpt>
      <trkpt lat="48.44381" lon="-1.53721">
        <ele>78.6</ele>
        <time>2019-07-16T13:19:07Z</time>
      </trkpt>
      <trkpt lat="48.44381" lon="-1.53715">
        <ele>78.3</ele>
        <time>2019-07-16T13:19:08Z</time>
      </trkpt>
      <trkpt lat="48.44383" lon="-1.53709">
        <ele>78.1</ele>
        <time>2019-07-16T13:19:09Z</time>
      </trkpt>
      <trkpt lat="48.44384" lon="-1.53703">
        <ele>78</ele>
        <time>2019-07-16T13:19:10Z</time>
      </trkpt>
      <trkpt lat="48.44385" lon="-1.53697">
        <ele>78.1</ele>
        <time>2019-07-16T13:19:11Z</time>
      </trkpt>
      <trkpt lat="48.44386" lon="-1.53691">
        <ele>78.3</ele>
        <time>2019-07-16T13:19:12Z</time>
      </trkpt>
      <trkpt lat="48.44387" lon="-1.53685">
        <ele>78.5</ele>
        <time>2019-07-16T13:19:13Z</time>
      </trkpt>
      <trkpt lat="48.44387" lon="-1.53679">
        <ele>78.5</ele>
        <time>2019-07-16T13:19:14Z</time>
      </trkpt>
      <trkpt lat="48.44388" lon="-1.53672">
        <ele>78.4</ele>
        <time>2019-07-16T13:19:15Z</time>
      </trkpt>
      <trkpt lat="48.44389" lon="-1.53666">
        <ele>78.3</ele>
        <time>2019-07-16T13:19:16Z</time>
      </trkpt>
      <trkpt lat="48.4439" lon="-1.53659">
        <ele>78.2</ele>
        <time>2019-07-16T13:19:17Z</time>
      </trkpt>
      <trkpt lat="48.4439" lon="-1.53653">
        <ele>78</ele>
        <time>2019-07-16T13:19:18Z</time>
      </trkpt>
      <trkpt lat="48.44391" lon="-1.53646">
        <ele>77.9</ele>
        <time>2019-07-16T13:19:19Z</time>
      </trkpt>
      <trkpt lat="48.44391" lon="-1.5364">
        <ele>77.8</ele>
        <time>2019-07-16T13:19:20Z</time>
      </trkpt>
      <trkpt lat="48.44391" lon="-1.53633">
        <ele>77.7</ele>
        <time>2019-07-16T13:19:21Z</time>
      </trkpt>
      <trkpt lat="48.44392" lon="-1.53625">
        <ele>77.2</ele>
        <time>2019-07-16T13:19:22Z</time>
      </trkpt>
      <trkpt lat="48.44392" lon="-1.53618">
        <ele>76.9</ele>
        <time>2019-07-16T13:19:23Z</time>
      </trkpt>
      <trkpt lat="48.44393" lon="-1.5361">
        <ele>76.6</ele>
        <time>2019-07-16T13:19:24Z</time>
      </trkpt>
      <trkpt lat="48.44394" lon="-1.53603">
        <ele>76.3</ele>
        <time>2019-07-16T13:19:25Z</time>
      </trkpt>
      <trkpt lat="48.44394" lon="-1.53596">
        <ele>76.2</ele>
        <time>2019-07-16T13:19:26Z</time>
      </trkpt>
      <trkpt lat="48.44395" lon="-1.53588">
        <ele>75.8</ele>
        <time>2019-07-16T13:19:27Z</time>
      </trkpt>
      <trkpt lat="48.44395" lon="-1.5358">
        <ele>75.4</ele>
        <time>2019-07-16T13:19:28Z</time>
      </trkpt>
      <trkpt lat="48.44395" lon="-1.53572">
        <ele>75</ele>
        <time>2019-07-16T13:19:29Z</time>
      </trkpt>
      <trkpt lat="48.44396" lon="-1.53565">
        <ele>75</ele>
        <time>2019-07-16T13:19:30Z</time>
      </trkpt>
      <trkpt lat="48.44397" lon="-1.53557">
        <ele>74.9</ele>
        <time>2019-07-16T13:19:31Z</time>
      </trkpt>
      <trkpt lat="48.44397" lon="-1.5355">
        <ele>74.5</ele>
        <time>2019-07-16T13:19:32Z</time>
      </trkpt>
      <trkpt lat="48.44398" lon="-1.53542">
        <ele>74.4</ele>
        <time>2019-07-16T13:19:33Z</time>
      </trkpt>
      <trkpt lat="48.44398" lon="-1.53534">
        <ele>74.3</ele>
        <time>2019-07-16T13:19:34Z</time>
      </trkpt>
      <trkpt lat="48.44399" lon="-1.53526">
        <ele>74.3</ele>
        <time>2019-07-16T13:19:35Z</time>
      </trkpt>
      <trkpt lat="48.444" lon="-1.53518">
        <ele>74.7</ele>
        <time>2019-07-16T13:19:36Z</time>
      </trkpt>
      <trkpt lat="48.44401" lon="-1.5351">
        <ele>74.8</ele>
        <time>2019-07-16T13:19:37Z</time>
      </trkpt>
      <trkpt lat="48.44402" lon="-1.53501">
        <ele>74</ele>
        <time>2019-07-16T13:19:38Z</time>
      </trkpt>
      <trkpt lat="48.44404" lon="-1.53493">
        <ele>73.3</ele>
        <time>2019-07-16T13:19:39Z</time>
      </trkpt>
      <trkpt lat="48.44405" lon="-1.53485">
        <ele>72.6</ele>
        <time>2019-07-16T13:19:40Z</time>
      </trkpt>
      <trkpt lat="48.44408" lon="-1.53477">
        <ele>72</ele>
        <time>2019-07-16T13:19:41Z</time>
      </trkpt>
      <trkpt lat="48.4441" lon="-1.5347">
        <ele>71.6</ele>
        <time>2019-07-16T13:19:42Z</time>
      </trkpt>
      <trkpt lat="48.44412" lon="-1.53464">
        <ele>71.2</ele>
        <time>2019-07-16T13:19:43Z</time>
      </trkpt>
      <trkpt lat="48.44413" lon="-1.53459">
        <ele>71.2</ele>
        <time>2019-07-16T13:19:44Z</time>
      </trkpt>
      <trkpt lat="48.44414" lon="-1.53456">
        <ele>71.3</ele>
        <time>2019-07-16T13:19:45Z</time>
      </trkpt>
      <trkpt lat="48.44414" lon="-1.53454">
        <ele>71.2</ele>
        <time>2019-07-16T13:19:46Z</time>
      </trkpt>
      <trkpt lat="48.44414" lon="-1.53452">
        <ele>71.2</ele>
        <time>2019-07-16T13:19:47Z</time>
      </trkpt>
      <trkpt lat="48.44416" lon="-1.5345">
        <ele>71.9</ele>
        <time>2019-07-16T13:20:08Z</time>
      </trkpt>
      <trkpt lat="48.44418" lon="-1.53447">
        <ele>72</ele>
        <time>2019-07-16T13:20:09Z</time>
      </trkpt>
      <trkpt lat="48.4442" lon="-1.53443">
        <ele>72.1</ele>
        <time>2019-07-16T13:20:10Z</time>
      </trkpt>
      <trkpt lat="48.44422" lon="-1.53438">
        <ele>72.3</ele>
        <time>2019-07-16T13:20:11Z</time>
      </trkpt>
      <trkpt lat="48.44425" lon="-1.53433">
        <ele>72.4</ele>
        <time>2019-07-16T13:20:12Z</time>
      </trkpt>
      <trkpt lat="48.44428" lon="-1.53427">
        <ele>72.5</ele>
        <time>2019-07-16T13:20:13Z</time>
      </trkpt>
      <trkpt lat="48.44431" lon="-1.53421">
        <ele>72.6</ele>
        <time>2019-07-16T13:20:14Z</time>
      </trkpt>
      <trkpt lat="48.44433" lon="-1.53413">
        <ele>72.6</ele>
        <time>2019-07-16T13:20:15Z</time>
      </trkpt>
      <trkpt lat="48.44436" lon="-1.53406">
        <ele>72.7</ele>
        <time>2019-07-16T13:20:16Z</time>
      </trkpt>
      <trkpt lat="48.44439" lon="-1.53398">
        <ele>73</ele>
        <time>2019-07-16T13:20:17Z</time>
      </trkpt>
      <trkpt lat="48.44441" lon="-1.53389">
        <ele>73.2</ele>
        <time>2019-07-16T13:20:18Z</time>
      </trkpt>
      <trkpt lat="48.44443" lon="-1.53382">
        <ele>73.3</ele>
        <time>2019-07-16T13:20:19Z</time>
      </trkpt>
      <trkpt lat="48.44445" lon="-1.53374">
        <ele>73.2</ele>
        <time>2019-07-16T13:20:20Z</time>
      </trkpt>
      <trkpt lat="48.44447" lon="-1.53366">
        <ele>73.2</ele>
        <time>2019-07-16T13:20:21Z</time>
      </trkpt>
      <trkpt lat="48.44447" lon="-1.53356">
        <ele>73.7</ele>
        <time>2019-07-16T13:20:22Z</time>
      </trkpt>
      <trkpt lat="48.44447" lon="-1.5335">
        <ele>73.9</ele>
        <time>2019-07-16T13:20:23Z</time>
      </trkpt>
      <trkpt lat="48.44447" lon="-1.53346">
        <ele>73.4</ele>
        <time>2019-07-16T13:20:24Z</time>
      </trkpt>
      <trkpt lat="48.44447" lon="-1.53342">
        <ele>72.5</ele>
        <time>2019-07-16T13:20:25Z</time>
      </trkpt>
      <trkpt lat="48.44446" lon="-1.53339">
        <ele>71.8</ele>
        <time>2019-07-16T13:20:26Z</time>
      </trkpt>
      <trkpt lat="48.44445" lon="-1.53335">
        <ele>70.8</ele>
        <time>2019-07-16T13:20:27Z</time>
      </trkpt>
      <trkpt lat="48.44445" lon="-1.53332">
        <ele>70.1</ele>
        <time>2019-07-16T13:20:28Z</time>
      </trkpt>
      <trkpt lat="48.44445" lon="-1.53329">
        <ele>69.6</ele>
        <time>2019-07-16T13:20:29Z</time>
      </trkpt>
      <trkpt lat="48.44444" lon="-1.53327">
        <ele>69.1</ele>
        <time>2019-07-16T13:20:30Z</time>
      </trkpt>
      <trkpt lat="48.44444" lon="-1.53324">
        <ele>68.9</ele>
        <time>2019-07-16T13:20:31Z</time>
      </trkpt>
      <trkpt lat="48.44443" lon="-1.53321">
        <ele>68.9</ele>
        <time>2019-07-16T13:20:32Z</time>
      </trkpt>
      <trkpt lat="48.44442" lon="-1.53319">
        <ele>68.2</ele>
        <time>2019-07-16T13:20:33Z</time>
      </trkpt>
      <trkpt lat="48.44442" lon="-1.53316">
        <ele>67.9</ele>
        <time>2019-07-16T13:20:34Z</time>
      </trkpt>
      <trkpt lat="48.44441" lon="-1.53314">
        <ele>67.9</ele>
        <time>2019-07-16T13:20:35Z</time>
      </trkpt>
      <trkpt lat="48.4444" lon="-1.53311">
        <ele>68.1</ele>
        <time>2019-07-16T13:20:36Z</time>
      </trkpt>
      <trkpt lat="48.44439" lon="-1.53308">
        <ele>68.5</ele>
        <time>2019-07-16T13:20:37Z</time>
      </trkpt>
      <trkpt lat="48.44436" lon="-1.53306">
        <ele>68.4</ele>
        <time>2019-07-16T13:20:38Z</time>
      </trkpt>
      <trkpt lat="48.44434" lon="-1.53303">
        <ele>68.5</ele>
        <time>2019-07-16T13:20:39Z</time>
      </trkpt>
      <trkpt lat="48.44432" lon="-1.533">
        <ele>67.7</ele>
        <time>2019-07-16T13:20:40Z</time>
      </trkpt>
      <trkpt lat="48.44431" lon="-1.53297">
        <ele>67.3</ele>
        <time>2019-07-16T13:20:41Z</time>
      </trkpt>
      <trkpt lat="48.44429" lon="-1.53294">
        <ele>67.2</ele>
        <time>2019-07-16T13:20:42Z</time>
      </trkpt>
      <trkpt lat="48.44428" lon="-1.53291">
        <ele>67.2</ele>
        <time>2019-07-16T13:20:43Z</time>
      </trkpt>
      <trkpt lat="48.44427" lon="-1.53288">
        <ele>67.2</ele>
        <time>2019-07-16T13:20:44Z</time>
      </trkpt>
      <trkpt lat="48.44426" lon="-1.53285">
        <ele>67.3</ele>
        <time>2019-07-16T13:20:45Z</time>
      </trkpt>
      <trkpt lat="48.44426" lon="-1.53283">
        <ele>67.3</ele>
        <time>2019-07-16T13:20:46Z</time>
      </trkpt>
      <trkpt lat="48.44425" lon="-1.5328">
        <ele>66.8</ele>
        <time>2019-07-16T13:20:47Z</time>
      </trkpt>
      <trkpt lat="48.44425" lon="-1.53276">
        <ele>67.1</ele>
        <time>2019-07-16T13:20:48Z</time>
      </trkpt>
      <trkpt lat="48.44426" lon="-1.53273">
        <ele>67.5</ele>
        <time>2019-07-16T13:20:49Z</time>
      </trkpt>
      <trkpt lat="48.44425" lon="-1.5327">
        <ele>67.5</ele>
        <time>2019-07-16T13:20:50Z</time>
      </trkpt>
      <trkpt lat="48.44424" lon="-1.53263">
        <ele>68.6</ele>
        <time>2019-07-16T13:20:52Z</time>
      </trkpt>
      <trkpt lat="48.44424" lon="-1.5326">
        <ele>69.2</ele>
        <time>2019-07-16T13:20:53Z</time>
      </trkpt>
      <trkpt lat="48.44426" lon="-1.53258">
        <ele>70.4</ele>
        <time>2019-07-16T13:20:54Z</time>
      </trkpt>
      <trkpt lat="48.44427" lon="-1.53255">
        <ele>71.2</ele>
        <time>2019-07-16T13:20:55Z</time>
      </trkpt>
      <trkpt lat="48.44428" lon="-1.53253">
        <ele>71.9</ele>
        <time>2019-07-16T13:20:56Z</time>
      </trkpt>
      <trkpt lat="48.44428" lon="-1.53253">
        <ele>72.1</ele>
        <time>2019-07-16T13:20:57Z</time>
      </trkpt>
      <trkpt lat="48.44428" lon="-1.53252">
        <ele>71.9</ele>
        <time>2019-07-16T13:20:58Z</time>
      </trkpt>
      <trkpt lat="48.44428" lon="-1.5325">
        <ele>72.3</ele>
        <time>2019-07-16T13:20:59Z</time>
      </trkpt>
      <trkpt lat="48.44429" lon="-1.53248">
        <ele>73</ele>
        <time>2019-07-16T13:21:00Z</time>
      </trkpt>
      <trkpt lat="48.44429" lon="-1.53246">
        <ele>73.7</ele>
        <time>2019-07-16T13:21:01Z</time>
      </trkpt>
      <trkpt lat="48.44429" lon="-1.53245">
        <ele>73.8</ele>
        <time>2019-07-16T13:21:02Z</time>
      </trkpt>
      <trkpt lat="48.4443" lon="-1.53243">
        <ele>74.3</ele>
        <time>2019-07-16T13:21:03Z</time>
      </trkpt>
      <trkpt lat="48.4443" lon="-1.53241">
        <ele>74.8</ele>
        <time>2019-07-16T13:21:04Z</time>
      </trkpt>
      <trkpt lat="48.44431" lon="-1.53239">
        <ele>75.2</ele>
        <time>2019-07-16T13:21:05Z</time>
      </trkpt>
      <trkpt lat="48.44432" lon="-1.53237">
        <ele>75.6</ele>
        <time>2019-07-16T13:21:06Z</time>
      </trkpt>
      <trkpt lat="48.44432" lon="-1.53235">
        <ele>75.9</ele>
        <time>2019-07-16T13:21:07Z</time>
      </trkpt>
      <trkpt lat="48.44434" lon="-1.53233">
        <ele>76.2</ele>
        <time>2019-07-16T13:21:08Z</time>
      </trkpt>
      <trkpt lat="48.44435" lon="-1.53231">
        <ele>76.2</ele>
        <time>2019-07-16T13:21:09Z</time>
      </trkpt>
      <trkpt lat="48.44436" lon="-1.53229">
        <ele>76.1</ele>
        <time>2019-07-16T13:21:10Z</time>
      </trkpt>
      <trkpt lat="48.44437" lon="-1.53226">
        <ele>76.6</ele>
        <time>2019-07-16T13:21:11Z</time>
      </trkpt>
      <trkpt lat="48.44437" lon="-1.53225">
        <ele>76.6</ele>
        <time>2019-07-16T13:21:12Z</time>
      </trkpt>
      <trkpt lat="48.44438" lon="-1.53223">
        <ele>76.8</ele>
        <time>2019-07-16T13:21:13Z</time>
      </trkpt>
      <trkpt lat="48.4444" lon="-1.53221">
        <ele>76.7</ele>
        <time>2019-07-16T13:21:14Z</time>
      </trkpt>
      <trkpt lat="48.44441" lon="-1.5322">
        <ele>76.8</ele>
        <time>2019-07-16T13:21:15Z</time>
      </trkpt>
      <trkpt lat="48.44442" lon="-1.53219">
        <ele>77</ele>
        <time>2019-07-16T13:21:16Z</time>
      </trkpt>
      <trkpt lat="48.44442" lon="-1.53217">
        <ele>77.4</ele>
        <time>2019-07-16T13:21:17Z</time>
      </trkpt>
      <trkpt lat="48.44443" lon="-1.53216">
        <ele>77.9</ele>
        <time>2019-07-16T13:21:18Z</time>
      </trkpt>
      <trkpt lat="48.44444" lon="-1.53214">
        <ele>78.3</ele>
        <time>2019-07-16T13:21:19Z</time>
      </trkpt>
      <trkpt lat="48.44444" lon="-1.53212">
        <ele>78.6</ele>
        <time>2019-07-16T13:21:20Z</time>
      </trkpt>
      <trkpt lat="48.44445" lon="-1.5321">
        <ele>78.4</ele>
        <time>2019-07-16T13:21:21Z</time>
      </trkpt>
      <trkpt lat="48.44446" lon="-1.53208">
        <ele>78.1</ele>
        <time>2019-07-16T13:21:22Z</time>
      </trkpt>
      <trkpt lat="48.44447" lon="-1.53206">
        <ele>78</ele>
        <time>2019-07-16T13:21:23Z</time>
      </trkpt>
      <trkpt lat="48.44447" lon="-1.53204">
        <ele>78.3</ele>
        <time>2019-07-16T13:21:24Z</time>
      </trkpt>
      <trkpt lat="48.44449" lon="-1.53202">
        <ele>78.6</ele>
        <time>2019-07-16T13:21:25Z</time>
      </trkpt>
      <trkpt lat="48.4445" lon="-1.532">
        <ele>78.5</ele>
        <time>2019-07-16T13:21:26Z</time>
      </trkpt>
      <trkpt lat="48.44451" lon="-1.53199">
        <ele>78.1</ele>
        <time>2019-07-16T13:21:27Z</time>
      </trkpt>
      <trkpt lat="48.44452" lon="-1.53197">
        <ele>78</ele>
        <time>2019-07-16T13:21:28Z</time>
      </trkpt>
      <trkpt lat="48.44453" lon="-1.53196">
        <ele>78.2</ele>
        <time>2019-07-16T13:21:29Z</time>
      </trkpt>
      <trkpt lat="48.44453" lon="-1.53194">
        <ele>78.2</ele>
        <time>2019-07-16T13:21:30Z</time>
      </trkpt>
      <trkpt lat="48.44454" lon="-1.53192">
        <ele>78.1</ele>
        <time>2019-07-16T13:21:31Z</time>
      </trkpt>
      <trkpt lat="48.44455" lon="-1.53191">
        <ele>78.2</ele>
        <time>2019-07-16T13:21:32Z</time>
      </trkpt>
      <trkpt lat="48.44456" lon="-1.53189">
        <ele>78.3</ele>
        <time>2019-07-16T13:21:33Z</time>
      </trkpt>
      <trkpt lat="48.44457" lon="-1.53187">
        <ele>78.4</ele>
        <time>2019-07-16T13:21:34Z</time>
      </trkpt>
      <trkpt lat="48.44458" lon="-1.53185">
        <ele>78.5</ele>
        <time>2019-07-16T13:21:35Z</time>
      </trkpt>
      <trkpt lat="48.44459" lon="-1.53183">
        <ele>78.7</ele>
        <time>2019-07-16T13:21:36Z</time>
      </trkpt>
      <trkpt lat="48.4446" lon="-1.53181">
        <ele>79.2</ele>
        <time>2019-07-16T13:21:37Z</time>
      </trkpt>
      <trkpt lat="48.44461" lon="-1.53179">
        <ele>79.2</ele>
        <time>2019-07-16T13:21:38Z</time>
      </trkpt>
      <trkpt lat="48.44462" lon="-1.53177">
        <ele>79.5</ele>
        <time>2019-07-16T13:21:39Z</time>
      </trkpt>
      <trkpt lat="48.44463" lon="-1.53175">
        <ele>79.6</ele>
        <time>2019-07-16T13:21:40Z</time>
      </trkpt>
      <trkpt lat="48.44464" lon="-1.53173">
        <ele>79.6</ele>
        <time>2019-07-16T13:21:41Z</time>
      </trkpt>
      <trkpt lat="48.44465" lon="-1.53172">
        <ele>79.8</ele>
        <time>2019-07-16T13:21:42Z</time>
      </trkpt>
      <trkpt lat="48.44467" lon="-1.53169">
        <ele>79.4</ele>
        <time>2019-07-16T13:21:43Z</time>
      </trkpt>
      <trkpt lat="48.44468" lon="-1.53168">
        <ele>79.3</ele>
        <time>2019-07-16T13:21:44Z</time>
      </trkpt>
      <trkpt lat="48.4447" lon="-1.53166">
        <ele>79.2</ele>
        <time>2019-07-16T13:21:45Z</time>
      </trkpt>
      <trkpt lat="48.4447" lon="-1.53165">
        <ele>79.4</ele>
        <time>2019-07-16T13:21:46Z</time>
      </trkpt>
      <trkpt lat="48.44472" lon="-1.53163">
        <ele>79.8</ele>
        <time>2019-07-16T13:21:47Z</time>
      </trkpt>
      <trkpt lat="48.44473" lon="-1.53162">
        <ele>80.1</ele>
        <time>2019-07-16T13:21:48Z</time>
      </trkpt>
      <trkpt lat="48.44474" lon="-1.5316">
        <ele>80.2</ele>
        <time>2019-07-16T13:21:49Z</time>
      </trkpt>
      <trkpt lat="48.44476" lon="-1.53158">
        <ele>80.3</ele>
        <time>2019-07-16T13:21:50Z</time>
      </trkpt>
      <trkpt lat="48.44477" lon="-1.53157">
        <ele>80.7</ele>
        <time>2019-07-16T13:21:51Z</time>
      </trkpt>
      <trkpt lat="48.44478" lon="-1.53156">
        <ele>81.1</ele>
        <time>2019-07-16T13:21:52Z</time>
      </trkpt>
      <trkpt lat="48.44479" lon="-1.53154">
        <ele>81.3</ele>
        <time>2019-07-16T13:21:53Z</time>
      </trkpt>
      <trkpt lat="48.4448" lon="-1.53152">
        <ele>81.5</ele>
        <time>2019-07-16T13:21:54Z</time>
      </trkpt>
      <trkpt lat="48.44481" lon="-1.53151">
        <ele>81.8</ele>
        <time>2019-07-16T13:21:55Z</time>
      </trkpt>
      <trkpt lat="48.44482" lon="-1.5315">
        <ele>82.1</ele>
        <time>2019-07-16T13:21:56Z</time>
      </trkpt>
      <trkpt lat="48.44483" lon="-1.53148">
        <ele>82.4</ele>
        <time>2019-07-16T13:21:57Z</time>
      </trkpt>
      <trkpt lat="48.44484" lon="-1.53147">
        <ele>83</ele>
        <time>2019-07-16T13:21:58Z</time>
      </trkpt>
      <trkpt lat="48.44485" lon="-1.53146">
        <ele>83.2</ele>
        <time>2019-07-16T13:21:59Z</time>
      </trkpt>
      <trkpt lat="48.44486" lon="-1.53144">
        <ele>83.5</ele>
        <time>2019-07-16T13:22:00Z</time>
      </trkpt>
      <trkpt lat="48.44487" lon="-1.53143">
        <ele>83.9</ele>
        <time>2019-07-16T13:22:01Z</time>
      </trkpt>
      <trkpt lat="48.44487" lon="-1.53141">
        <ele>84.3</ele>
        <time>2019-07-16T13:22:02Z</time>
      </trkpt>
      <trkpt lat="48.44488" lon="-1.5314">
        <ele>84.6</ele>
        <time>2019-07-16T13:22:03Z</time>
      </trkpt>
      <trkpt lat="48.44489" lon="-1.53138">
        <ele>84.9</ele>
        <time>2019-07-16T13:22:04Z</time>
      </trkpt>
      <trkpt lat="48.4449" lon="-1.53137">
        <ele>85</ele>
        <time>2019-07-16T13:22:05Z</time>
      </trkpt>
      <trkpt lat="48.44491" lon="-1.53136">
        <ele>85.1</ele>
        <time>2019-07-16T13:22:06Z</time>
      </trkpt>
      <trkpt lat="48.44492" lon="-1.53134">
        <ele>85.2</ele>
        <time>2019-07-16T13:22:07Z</time>
      </trkpt>
      <trkpt lat="48.44493" lon="-1.53132">
        <ele>85.2</ele>
        <time>2019-07-16T13:22:08Z</time>
      </trkpt>
      <trkpt lat="48.44494" lon="-1.53131">
        <ele>85.3</ele>
        <time>2019-07-16T13:22:09Z</time>
      </trkpt>
      <trkpt lat="48.44496" lon="-1.53129">
        <ele>85.5</ele>
        <time>2019-07-16T13:22:10Z</time>
      </trkpt>
      <trkpt lat="48.44497" lon="-1.53127">
        <ele>85.6</ele>
        <time>2019-07-16T13:22:11Z</time>
      </trkpt>
      <trkpt lat="48.44498" lon="-1.53126">
        <ele>85.7</ele>
        <time>2019-07-16T13:22:12Z</time>
      </trkpt>
      <trkpt lat="48.445" lon="-1.53124">
        <ele>85.8</ele>
        <time>2019-07-16T13:22:13Z</time>
      </trkpt>
      <trkpt lat="48.44501" lon="-1.53122">
        <ele>85.8</ele>
        <time>2019-07-16T13:22:14Z</time>
      </trkpt>
      <trkpt lat="48.44502" lon="-1.53121">
        <ele>85.8</ele>
        <time>2019-07-16T13:22:15Z</time>
      </trkpt>
      <trkpt lat="48.44503" lon="-1.5312">
        <ele>85.8</ele>
        <time>2019-07-16T13:22:16Z</time>
      </trkpt>
      <trkpt lat="48.44505" lon="-1.53118">
        <ele>85.9</ele>
        <time>2019-07-16T13:22:17Z</time>
      </trkpt>
      <trkpt lat="48.44506" lon="-1.53116">
        <ele>86.2</ele>
        <time>2019-07-16T13:22:18Z</time>
      </trkpt>
      <trkpt lat="48.44507" lon="-1.53115">
        <ele>86.5</ele>
        <time>2019-07-16T13:22:19Z</time>
      </trkpt>
      <trkpt lat="48.44508" lon="-1.53113">
        <ele>86.8</ele>
        <time>2019-07-16T13:22:20Z</time>
      </trkpt>
      <trkpt lat="48.44509" lon="-1.53111">
        <ele>86.9</ele>
        <time>2019-07-16T13:22:21Z</time>
      </trkpt>
      <trkpt lat="48.4451" lon="-1.53111">
        <ele>87.3</ele>
        <time>2019-07-16T13:22:22Z</time>
      </trkpt>
      <trkpt lat="48.44511" lon="-1.53109">
        <ele>87.6</ele>
        <time>2019-07-16T13:22:23Z</time>
      </trkpt>
      <trkpt lat="48.44512" lon="-1.53108">
        <ele>87.9</ele>
        <time>2019-07-16T13:22:24Z</time>
      </trkpt>
      <trkpt lat="48.44513" lon="-1.53106">
        <ele>88.1</ele>
        <time>2019-07-16T13:22:25Z</time>
      </trkpt>
      <trkpt lat="48.44515" lon="-1.53105">
        <ele>88.2</ele>
        <time>2019-07-16T13:22:26Z</time>
      </trkpt>
      <trkpt lat="48.44516" lon="-1.53104">
        <ele>88.2</ele>
        <time>2019-07-16T13:22:27Z</time>
      </trkpt>
      <trkpt lat="48.44517" lon="-1.53103">
        <ele>88.4</ele>
        <time>2019-07-16T13:22:28Z</time>
      </trkpt>
      <trkpt lat="48.44518" lon="-1.53101">
        <ele>88.6</ele>
        <time>2019-07-16T13:22:29Z</time>
      </trkpt>
      <trkpt lat="48.44519" lon="-1.531">
        <ele>88.9</ele>
        <time>2019-07-16T13:22:30Z</time>
      </trkpt>
      <trkpt lat="48.44519" lon="-1.53098">
        <ele>89.3</ele>
        <time>2019-07-16T13:22:31Z</time>
      </trkpt>
      <trkpt lat="48.4452" lon="-1.53097">
        <ele>89.5</ele>
        <time>2019-07-16T13:22:32Z</time>
      </trkpt>
      <trkpt lat="48.44521" lon="-1.53095">
        <ele>89.6</ele>
        <time>2019-07-16T13:22:33Z</time>
      </trkpt>
      <trkpt lat="48.44522" lon="-1.53093">
        <ele>89.9</ele>
        <time>2019-07-16T13:22:34Z</time>
      </trkpt>
      <trkpt lat="48.44523" lon="-1.53092">
        <ele>90.2</ele>
        <time>2019-07-16T13:22:35Z</time>
      </trkpt>
      <trkpt lat="48.44524" lon="-1.5309">
        <ele>90.7</ele>
        <time>2019-07-16T13:22:36Z</time>
      </trkpt>
      <trkpt lat="48.44525" lon="-1.53089">
        <ele>91</ele>
        <time>2019-07-16T13:22:37Z</time>
      </trkpt>
      <trkpt lat="48.44526" lon="-1.53087">
        <ele>91.3</ele>
        <time>2019-07-16T13:22:38Z</time>
      </trkpt>
      <trkpt lat="48.44527" lon="-1.53086">
        <ele>91.5</ele>
        <time>2019-07-16T13:22:39Z</time>
      </trkpt>
      <trkpt lat="48.44529" lon="-1.53084">
        <ele>91.6</ele>
        <time>2019-07-16T13:22:40Z</time>
      </trkpt>
      <trkpt lat="48.4453" lon="-1.53083">
        <ele>91.8</ele>
        <time>2019-07-16T13:22:41Z</time>
      </trkpt>
      <trkpt lat="48.44531" lon="-1.53082">
        <ele>92.1</ele>
        <time>2019-07-16T13:22:42Z</time>
      </trkpt>
      <trkpt lat="48.44532" lon="-1.5308">
        <ele>92.1</ele>
        <time>2019-07-16T13:22:43Z</time>
      </trkpt>
      <trkpt lat="48.44534" lon="-1.53077">
        <ele>91.8</ele>
        <time>2019-07-16T13:22:44Z</time>
      </trkpt>
      <trkpt lat="48.44534" lon="-1.53075">
        <ele>91.6</ele>
        <time>2019-07-16T13:22:45Z</time>
      </trkpt>
      <trkpt lat="48.44535" lon="-1.53071">
        <ele>91.3</ele>
        <time>2019-07-16T13:22:46Z</time>
      </trkpt>
      <trkpt lat="48.44535" lon="-1.53069">
        <ele>91</ele>
        <time>2019-07-16T13:22:47Z</time>
      </trkpt>
      <trkpt lat="48.44535" lon="-1.53067">
        <ele>91</ele>
        <time>2019-07-16T13:22:48Z</time>
      </trkpt>
      <trkpt lat="48.44534" lon="-1.53065">
        <ele>91</ele>
        <time>2019-07-16T13:22:49Z</time>
      </trkpt>
      <trkpt lat="48.44533" lon="-1.53063">
        <ele>91</ele>
        <time>2019-07-16T13:22:50Z</time>
      </trkpt>
      <trkpt lat="48.44533" lon="-1.53061">
        <ele>90.7</ele>
        <time>2019-07-16T13:22:51Z</time>
      </trkpt>
      <trkpt lat="48.44532" lon="-1.53059">
        <ele>90.8</ele>
        <time>2019-07-16T13:22:52Z</time>
      </trkpt>
      <trkpt lat="48.44531" lon="-1.53056">
        <ele>90.7</ele>
        <time>2019-07-16T13:22:53Z</time>
      </trkpt>
      <trkpt lat="48.44529" lon="-1.53054">
        <ele>90.6</ele>
        <time>2019-07-16T13:22:54Z</time>
      </trkpt>
      <trkpt lat="48.44528" lon="-1.53051">
        <ele>90.4</ele>
        <time>2019-07-16T13:22:55Z</time>
      </trkpt>
      <trkpt lat="48.44526" lon="-1.53048">
        <ele>90.2</ele>
        <time>2019-07-16T13:22:56Z</time>
      </trkpt>
      <trkpt lat="48.44524" lon="-1.53046">
        <ele>90.1</ele>
        <time>2019-07-16T13:22:57Z</time>
      </trkpt>
      <trkpt lat="48.44523" lon="-1.53044">
        <ele>90</ele>
        <time>2019-07-16T13:22:58Z</time>
      </trkpt>
      <trkpt lat="48.44521" lon="-1.53041">
        <ele>89.4</ele>
        <time>2019-07-16T13:22:59Z</time>
      </trkpt>
      <trkpt lat="48.44519" lon="-1.53038">
        <ele>89.5</ele>
        <time>2019-07-16T13:23:00Z</time>
      </trkpt>
      <trkpt lat="48.44518" lon="-1.53036">
        <ele>89.5</ele>
        <time>2019-07-16T13:23:01Z</time>
      </trkpt>
      <trkpt lat="48.44516" lon="-1.53033">
        <ele>88.7</ele>
        <time>2019-07-16T13:23:02Z</time>
      </trkpt>
      <trkpt lat="48.44513" lon="-1.5303">
        <ele>88.9</ele>
        <time>2019-07-16T13:23:03Z</time>
      </trkpt>
      <trkpt lat="48.44511" lon="-1.53026">
        <ele>88.8</ele>
        <time>2019-07-16T13:23:04Z</time>
      </trkpt>
      <trkpt lat="48.44508" lon="-1.53022">
        <ele>88.6</ele>
        <time>2019-07-16T13:23:05Z</time>
      </trkpt>
      <trkpt lat="48.44506" lon="-1.53018">
        <ele>88.3</ele>
        <time>2019-07-16T13:23:06Z</time>
      </trkpt>
      <trkpt lat="48.44503" lon="-1.53013">
        <ele>87.7</ele>
        <time>2019-07-16T13:23:07Z</time>
      </trkpt>
      <trkpt lat="48.445" lon="-1.53008">
        <ele>87.3</ele>
        <time>2019-07-16T13:23:08Z</time>
      </trkpt>
      <trkpt lat="48.44496" lon="-1.53002">
        <ele>87</ele>
        <time>2019-07-16T13:23:09Z</time>
      </trkpt>
      <trkpt lat="48.44492" lon="-1.52996">
        <ele>86.7</ele>
        <time>2019-07-16T13:23:10Z</time>
      </trkpt>
      <trkpt lat="48.44488" lon="-1.5299">
        <ele>86.2</ele>
        <time>2019-07-16T13:23:11Z</time>
      </trkpt>
      <trkpt lat="48.44484" lon="-1.52984">
        <ele>85.8</ele>
        <time>2019-07-16T13:23:12Z</time>
      </trkpt>
      <trkpt lat="48.44479" lon="-1.52979">
        <ele>85.1</ele>
        <time>2019-07-16T13:23:13Z</time>
      </trkpt>
      <trkpt lat="48.44474" lon="-1.52973">
        <ele>84.9</ele>
        <time>2019-07-16T13:23:14Z</time>
      </trkpt>
      <trkpt lat="48.44469" lon="-1.52967">
        <ele>84.5</ele>
        <time>2019-07-16T13:23:15Z</time>
      </trkpt>
      <trkpt lat="48.44463" lon="-1.5296">
        <ele>84</ele>
        <time>2019-07-16T13:23:16Z</time>
      </trkpt>
      <trkpt lat="48.44457" lon="-1.52953">
        <ele>83.6</ele>
        <time>2019-07-16T13:23:17Z</time>
      </trkpt>
      <trkpt lat="48.44451" lon="-1.52946">
        <ele>83</ele>
        <time>2019-07-16T13:23:18Z</time>
      </trkpt>
      <trkpt lat="48.44445" lon="-1.52939">
        <ele>83</ele>
        <time>2019-07-16T13:23:19Z</time>
      </trkpt>
      <trkpt lat="48.44438" lon="-1.52931">
        <ele>82.4</ele>
        <time>2019-07-16T13:23:20Z</time>
      </trkpt>
      <trkpt lat="48.44432" lon="-1.52924">
        <ele>81.9</ele>
        <time>2019-07-16T13:23:21Z</time>
      </trkpt>
      <trkpt lat="48.44425" lon="-1.52916">
        <ele>81.2</ele>
        <time>2019-07-16T13:23:22Z</time>
      </trkpt>
      <trkpt lat="48.44419" lon="-1.52909">
        <ele>80.9</ele>
        <time>2019-07-16T13:23:23Z</time>
      </trkpt>
      <trkpt lat="48.44412" lon="-1.52901">
        <ele>80.6</ele>
        <time>2019-07-16T13:23:24Z</time>
      </trkpt>
      <trkpt lat="48.44406" lon="-1.52894">
        <ele>80.5</ele>
        <time>2019-07-16T13:23:25Z</time>
      </trkpt>
      <trkpt lat="48.44399" lon="-1.52887">
        <ele>80.7</ele>
        <time>2019-07-16T13:23:26Z</time>
      </trkpt>
      <trkpt lat="48.44392" lon="-1.5288">
        <ele>80.7</ele>
        <time>2019-07-16T13:23:27Z</time>
      </trkpt>
      <trkpt lat="48.44386" lon="-1.52873">
        <ele>80.6</ele>
        <time>2019-07-16T13:23:28Z</time>
      </trkpt>
      <trkpt lat="48.44379" lon="-1.52867">
        <ele>81.1</ele>
        <time>2019-07-16T13:23:29Z</time>
      </trkpt>
      <trkpt lat="48.44374" lon="-1.52861">
        <ele>81.7</ele>
        <time>2019-07-16T13:23:30Z</time>
      </trkpt>
      <trkpt lat="48.44368" lon="-1.52855">
        <ele>81.8</ele>
        <time>2019-07-16T13:23:31Z</time>
      </trkpt>
      <trkpt lat="48.44363" lon="-1.5285">
        <ele>82</ele>
        <time>2019-07-16T13:23:32Z</time>
      </trkpt>
      <trkpt lat="48.44359" lon="-1.52845">
        <ele>82.4</ele>
        <time>2019-07-16T13:23:33Z</time>
      </trkpt>
      <trkpt lat="48.44355" lon="-1.52841">
        <ele>82.7</ele>
        <time>2019-07-16T13:23:34Z</time>
      </trkpt>
      <trkpt lat="48.44351" lon="-1.52837">
        <ele>82.5</ele>
        <time>2019-07-16T13:23:35Z</time>
      </trkpt>
      <trkpt lat="48.44348" lon="-1.52833">
        <ele>82.5</ele>
        <time>2019-07-16T13:23:36Z</time>
      </trkpt>
      <trkpt lat="48.44344" lon="-1.52829">
        <ele>82.3</ele>
        <time>2019-07-16T13:23:37Z</time>
      </trkpt>
      <trkpt lat="48.44341" lon="-1.52826">
        <ele>82</ele>
        <time>2019-07-16T13:23:38Z</time>
      </trkpt>
      <trkpt lat="48.44337" lon="-1.52822">
        <ele>81.8</ele>
        <time>2019-07-16T13:23:39Z</time>
      </trkpt>
      <trkpt lat="48.44334" lon="-1.52819">
        <ele>81.6</ele>
        <time>2019-07-16T13:23:40Z</time>
      </trkpt>
      <trkpt lat="48.44331" lon="-1.52816">
        <ele>81.5</ele>
        <time>2019-07-16T13:23:41Z</time>
      </trkpt>
      <trkpt lat="48.44328" lon="-1.52812">
        <ele>81.5</ele>
        <time>2019-07-16T13:23:42Z</time>
      </trkpt>
      <trkpt lat="48.44325" lon="-1.52809">
        <ele>81.6</ele>
        <time>2019-07-16T13:23:43Z</time>
      </trkpt>
      <trkpt lat="48.44321" lon="-1.52805">
        <ele>81.6</ele>
        <time>2019-07-16T13:23:44Z</time>
      </trkpt>
      <trkpt lat="48.44318" lon="-1.52802">
        <ele>81.8</ele>
        <time>2019-07-16T13:23:45Z</time>
      </trkpt>
      <trkpt lat="48.44315" lon="-1.52798">
        <ele>81.9</ele>
        <time>2019-07-16T13:23:46Z</time>
      </trkpt>
      <trkpt lat="48.44312" lon="-1.52795">
        <ele>81.9</ele>
        <time>2019-07-16T13:23:47Z</time>
      </trkpt>
      <trkpt lat="48.44309" lon="-1.52791">
        <ele>82</ele>
        <time>2019-07-16T13:23:48Z</time>
      </trkpt>
      <trkpt lat="48.44305" lon="-1.52788">
        <ele>81.9</ele>
        <time>2019-07-16T13:23:49Z</time>
      </trkpt>
      <trkpt lat="48.44302" lon="-1.52784">
        <ele>82.1</ele>
        <time>2019-07-16T13:23:50Z</time>
      </trkpt>
      <trkpt lat="48.44299" lon="-1.52781">
        <ele>82.1</ele>
        <time>2019-07-16T13:23:51Z</time>
      </trkpt>
      <trkpt lat="48.44295" lon="-1.52777">
        <ele>82</ele>
        <time>2019-07-16T13:23:52Z</time>
      </trkpt>
      <trkpt lat="48.44291" lon="-1.52774">
        <ele>82</ele>
        <time>2019-07-16T13:23:53Z</time>
      </trkpt>
      <trkpt lat="48.44288" lon="-1.5277">
        <ele>82.2</ele>
        <time>2019-07-16T13:23:54Z</time>
      </trkpt>
      <trkpt lat="48.44284" lon="-1.52767">
        <ele>82.4</ele>
        <time>2019-07-16T13:23:55Z</time>
      </trkpt>
      <trkpt lat="48.4428" lon="-1.52764">
        <ele>82.3</ele>
        <time>2019-07-16T13:23:56Z</time>
      </trkpt>
      <trkpt lat="48.44275" lon="-1.5276">
        <ele>82.2</ele>
        <time>2019-07-16T13:23:57Z</time>
      </trkpt>
      <trkpt lat="48.44271" lon="-1.52757">
        <ele>82.1</ele>
        <time>2019-07-16T13:23:58Z</time>
      </trkpt>
      <trkpt lat="48.44267" lon="-1.52752">
        <ele>80.7</ele>
        <time>2019-07-16T13:23:59Z</time>
      </trkpt>
      <trkpt lat="48.44262" lon="-1.52748">
        <ele>80.4</ele>
        <time>2019-07-16T13:24:00Z</time>
      </trkpt>
      <trkpt lat="48.44254" lon="-1.52742">
        <ele>80</ele>
        <time>2019-07-16T13:24:02Z</time>
      </trkpt>
      <trkpt lat="48.44249" lon="-1.52738">
        <ele>80</ele>
        <time>2019-07-16T13:24:03Z</time>
      </trkpt>
      <trkpt lat="48.44245" lon="-1.52735">
        <ele>80.1</ele>
        <time>2019-07-16T13:24:04Z</time>
      </trkpt>
      <trkpt lat="48.44241" lon="-1.52732">
        <ele>80</ele>
        <time>2019-07-16T13:24:05Z</time>
      </trkpt>
      <trkpt lat="48.44237" lon="-1.52729">
        <ele>79.8</ele>
        <time>2019-07-16T13:24:06Z</time>
      </trkpt>
      <trkpt lat="48.44233" lon="-1.52725">
        <ele>79.8</ele>
        <time>2019-07-16T13:24:07Z</time>
      </trkpt>
      <trkpt lat="48.44229" lon="-1.52722">
        <ele>79.8</ele>
        <time>2019-07-16T13:24:08Z</time>
      </trkpt>
      <trkpt lat="48.44225" lon="-1.52719">
        <ele>79.9</ele>
        <time>2019-07-16T13:24:09Z</time>
      </trkpt>
      <trkpt lat="48.4422" lon="-1.52715">
        <ele>80</ele>
        <time>2019-07-16T13:24:10Z</time>
      </trkpt>
      <trkpt lat="48.44217" lon="-1.52712">
        <ele>79.9</ele>
        <time>2019-07-16T13:24:11Z</time>
      </trkpt>
      <trkpt lat="48.44212" lon="-1.5271">
        <ele>80.2</ele>
        <time>2019-07-16T13:24:12Z</time>
      </trkpt>
      <trkpt lat="48.44208" lon="-1.52706">
        <ele>80.2</ele>
        <time>2019-07-16T13:24:13Z</time>
      </trkpt>
      <trkpt lat="48.44204" lon="-1.52703">
        <ele>80.3</ele>
        <time>2019-07-16T13:24:14Z</time>
      </trkpt>
      <trkpt lat="48.442" lon="-1.527">
        <ele>80.3</ele>
        <time>2019-07-16T13:24:15Z</time>
      </trkpt>
      <trkpt lat="48.44196" lon="-1.52697">
        <ele>80.5</ele>
        <time>2019-07-16T13:24:16Z</time>
      </trkpt>
      <trkpt lat="48.44191" lon="-1.52694">
        <ele>80.6</ele>
        <time>2019-07-16T13:24:17Z</time>
      </trkpt>
      <trkpt lat="48.44187" lon="-1.52691">
        <ele>80.7</ele>
        <time>2019-07-16T13:24:18Z</time>
      </trkpt>
      <trkpt lat="48.44183" lon="-1.52689">
        <ele>80.8</ele>
        <time>2019-07-16T13:24:19Z</time>
      </trkpt>
      <trkpt lat="48.44178" lon="-1.52685">
        <ele>80.6</ele>
        <time>2019-07-16T13:24:20Z</time>
      </trkpt>
      <trkpt lat="48.44173" lon="-1.52682">
        <ele>80.2</ele>
        <time>2019-07-16T13:24:21Z</time>
      </trkpt>
      <trkpt lat="48.44169" lon="-1.52679">
        <ele>79.6</ele>
        <time>2019-07-16T13:24:22Z</time>
      </trkpt>
      <trkpt lat="48.44164" lon="-1.52676">
        <ele>79.2</ele>
        <time>2019-07-16T13:24:23Z</time>
      </trkpt>
      <trkpt lat="48.44159" lon="-1.52673">
        <ele>78.8</ele>
        <time>2019-07-16T13:24:24Z</time>
      </trkpt>
      <trkpt lat="48.44154" lon="-1.52671">
        <ele>79.4</ele>
        <time>2019-07-16T13:24:25Z</time>
      </trkpt>
      <trkpt lat="48.44149" lon="-1.52669">
        <ele>79.5</ele>
        <time>2019-07-16T13:24:26Z</time>
      </trkpt>
      <trkpt lat="48.44144" lon="-1.52666">
        <ele>79.6</ele>
        <time>2019-07-16T13:24:27Z</time>
      </trkpt>
      <trkpt lat="48.44138" lon="-1.52664">
        <ele>79.6</ele>
        <time>2019-07-16T13:24:28Z</time>
      </trkpt>
      <trkpt lat="48.44133" lon="-1.52662">
        <ele>79.5</ele>
        <time>2019-07-16T13:24:29Z</time>
      </trkpt>
      <trkpt lat="48.44128" lon="-1.5266">
        <ele>79.6</ele>
        <time>2019-07-16T13:24:30Z</time>
      </trkpt>
      <trkpt lat="48.44122" lon="-1.52657">
        <ele>79.5</ele>
        <time>2019-07-16T13:24:31Z</time>
      </trkpt>
      <trkpt lat="48.44115" lon="-1.52655">
        <ele>79.4</ele>
        <time>2019-07-16T13:24:32Z</time>
      </trkpt>
      <trkpt lat="48.44109" lon="-1.52652">
        <ele>79.6</ele>
        <time>2019-07-16T13:24:33Z</time>
      </trkpt>
      <trkpt lat="48.44103" lon="-1.52649">
        <ele>79</ele>
        <time>2019-07-16T13:24:34Z</time>
      </trkpt>
      <trkpt lat="48.44096" lon="-1.52646">
        <ele>78.7</ele>
        <time>2019-07-16T13:24:35Z</time>
      </trkpt>
      <trkpt lat="48.4409" lon="-1.52644">
        <ele>78.2</ele>
        <time>2019-07-16T13:24:36Z</time>
      </trkpt>
      <trkpt lat="48.44083" lon="-1.52641">
        <ele>77.7</ele>
        <time>2019-07-16T13:24:37Z</time>
      </trkpt>
      <trkpt lat="48.44076" lon="-1.52639">
        <ele>77.3</ele>
        <time>2019-07-16T13:24:38Z</time>
      </trkpt>
      <trkpt lat="48.44069" lon="-1.52636">
        <ele>77</ele>
        <time>2019-07-16T13:24:39Z</time>
      </trkpt>
      <trkpt lat="48.44062" lon="-1.52633">
        <ele>76.8</ele>
        <time>2019-07-16T13:24:40Z</time>
      </trkpt>
      <trkpt lat="48.44055" lon="-1.5263">
        <ele>76.7</ele>
        <time>2019-07-16T13:24:41Z</time>
      </trkpt>
      <trkpt lat="48.44047" lon="-1.52627">
        <ele>76.5</ele>
        <time>2019-07-16T13:24:42Z</time>
      </trkpt>
      <trkpt lat="48.4404" lon="-1.52625">
        <ele>76.3</ele>
        <time>2019-07-16T13:24:43Z</time>
      </trkpt>
      <trkpt lat="48.44032" lon="-1.52622">
        <ele>76.2</ele>
        <time>2019-07-16T13:24:44Z</time>
      </trkpt>
      <trkpt lat="48.44025" lon="-1.52619">
        <ele>76</ele>
        <time>2019-07-16T13:24:45Z</time>
      </trkpt>
      <trkpt lat="48.44017" lon="-1.52617">
        <ele>75.7</ele>
        <time>2019-07-16T13:24:46Z</time>
      </trkpt>
      <trkpt lat="48.4401" lon="-1.52614">
        <ele>75.5</ele>
        <time>2019-07-16T13:24:47Z</time>
      </trkpt>
      <trkpt lat="48.44003" lon="-1.52611">
        <ele>75.2</ele>
        <time>2019-07-16T13:24:48Z</time>
      </trkpt>
      <trkpt lat="48.43996" lon="-1.52608">
        <ele>74.8</ele>
        <time>2019-07-16T13:24:49Z</time>
      </trkpt>
      <trkpt lat="48.43988" lon="-1.52605">
        <ele>74.5</ele>
        <time>2019-07-16T13:24:50Z</time>
      </trkpt>
      <trkpt lat="48.43981" lon="-1.52602">
        <ele>74</ele>
        <time>2019-07-16T13:24:51Z</time>
      </trkpt>
      <trkpt lat="48.43974" lon="-1.52599">
        <ele>73.8</ele>
        <time>2019-07-16T13:24:52Z</time>
      </trkpt>
      <trkpt lat="48.43966" lon="-1.52596">
        <ele>73.5</ele>
        <time>2019-07-16T13:24:53Z</time>
      </trkpt>
      <trkpt lat="48.43959" lon="-1.52593">
        <ele>73.1</ele>
        <time>2019-07-16T13:24:54Z</time>
      </trkpt>
      <trkpt lat="48.43951" lon="-1.52591">
        <ele>72.7</ele>
        <time>2019-07-16T13:24:55Z</time>
      </trkpt>
      <trkpt lat="48.43943" lon="-1.52588">
        <ele>72.3</ele>
        <time>2019-07-16T13:24:56Z</time>
      </trkpt>
      <trkpt lat="48.43936" lon="-1.52586">
        <ele>72</ele>
        <time>2019-07-16T13:24:57Z</time>
      </trkpt>
      <trkpt lat="48.43929" lon="-1.52583">
        <ele>71.7</ele>
        <time>2019-07-16T13:24:58Z</time>
      </trkpt>
      <trkpt lat="48.43921" lon="-1.5258">
        <ele>71.2</ele>
        <time>2019-07-16T13:24:59Z</time>
      </trkpt>
      <trkpt lat="48.43914" lon="-1.52577">
        <ele>70.5</ele>
        <time>2019-07-16T13:25:00Z</time>
      </trkpt>
      <trkpt lat="48.43906" lon="-1.52574">
        <ele>69.8</ele>
        <time>2019-07-16T13:25:01Z</time>
      </trkpt>
      <trkpt lat="48.43898" lon="-1.52571">
        <ele>69.3</ele>
        <time>2019-07-16T13:25:02Z</time>
      </trkpt>
      <trkpt lat="48.4389" lon="-1.52568">
        <ele>68.6</ele>
        <time>2019-07-16T13:25:03Z</time>
      </trkpt>
      <trkpt lat="48.43882" lon="-1.52565">
        <ele>68.2</ele>
        <time>2019-07-16T13:25:04Z</time>
      </trkpt>
      <trkpt lat="48.43874" lon="-1.52561">
        <ele>67.8</ele>
        <time>2019-07-16T13:25:05Z</time>
      </trkpt>
      <trkpt lat="48.43865" lon="-1.52558">
        <ele>67</ele>
        <time>2019-07-16T13:25:06Z</time>
      </trkpt>
      <trkpt lat="48.43857" lon="-1.52555">
        <ele>66.6</ele>
        <time>2019-07-16T13:25:07Z</time>
      </trkpt>
      <trkpt lat="48.43848" lon="-1.52552">
        <ele>66.2</ele>
        <time>2019-07-16T13:25:08Z</time>
      </trkpt>
      <trkpt lat="48.4384" lon="-1.52549">
        <ele>65.7</ele>
        <time>2019-07-16T13:25:09Z</time>
      </trkpt>
      <trkpt lat="48.43831" lon="-1.52545">
        <ele>65.4</ele>
        <time>2019-07-16T13:25:10Z</time>
      </trkpt>
      <trkpt lat="48.43823" lon="-1.52542">
        <ele>65.1</ele>
        <time>2019-07-16T13:25:11Z</time>
      </trkpt>
      <trkpt lat="48.43815" lon="-1.52539">
        <ele>64.8</ele>
        <time>2019-07-16T13:25:12Z</time>
      </trkpt>
      <trkpt lat="48.43808" lon="-1.52537">
        <ele>64.4</ele>
        <time>2019-07-16T13:25:13Z</time>
      </trkpt>
      <trkpt lat="48.43801" lon="-1.52534">
        <ele>64.1</ele>
        <time>2019-07-16T13:25:14Z</time>
      </trkpt>
      <trkpt lat="48.43794" lon="-1.52531">
        <ele>63.9</ele>
        <time>2019-07-16T13:25:15Z</time>
      </trkpt>
      <trkpt lat="48.43787" lon="-1.52528">
        <ele>63.9</ele>
        <time>2019-07-16T13:25:16Z</time>
      </trkpt>
      <trkpt lat="48.43779" lon="-1.52525">
        <ele>63.7</ele>
        <time>2019-07-16T13:25:17Z</time>
      </trkpt>
      <trkpt lat="48.43772" lon="-1.52522">
        <ele>63.6</ele>
        <time>2019-07-16T13:25:18Z</time>
      </trkpt>
      <trkpt lat="48.43765" lon="-1.52518">
        <ele>63.3</ele>
        <time>2019-07-16T13:25:19Z</time>
      </trkpt>
      <trkpt lat="48.43758" lon="-1.52514">
        <ele>63</ele>
        <time>2019-07-16T13:25:20Z</time>
      </trkpt>
      <trkpt lat="48.4375" lon="-1.5251">
        <ele>62.8</ele>
        <time>2019-07-16T13:25:21Z</time>
      </trkpt>
      <trkpt lat="48.43744" lon="-1.52506">
        <ele>62.8</ele>
        <time>2019-07-16T13:25:22Z</time>
      </trkpt>
      <trkpt lat="48.43737" lon="-1.52502">
        <ele>62.7</ele>
        <time>2019-07-16T13:25:23Z</time>
      </trkpt>
      <trkpt lat="48.43729" lon="-1.52498">
        <ele>62.5</ele>
        <time>2019-07-16T13:25:24Z</time>
      </trkpt>
      <trkpt lat="48.43722" lon="-1.52495">
        <ele>62.1</ele>
        <time>2019-07-16T13:25:25Z</time>
      </trkpt>
      <trkpt lat="48.43715" lon="-1.52491">
        <ele>61.5</ele>
        <time>2019-07-16T13:25:26Z</time>
      </trkpt>
      <trkpt lat="48.43708" lon="-1.52487">
        <ele>61.4</ele>
        <time>2019-07-16T13:25:27Z</time>
      </trkpt>
      <trkpt lat="48.43701" lon="-1.52483">
        <ele>61</ele>
        <time>2019-07-16T13:25:28Z</time>
      </trkpt>
      <trkpt lat="48.43694" lon="-1.5248">
        <ele>60.7</ele>
        <time>2019-07-16T13:25:29Z</time>
      </trkpt>
      <trkpt lat="48.43687" lon="-1.52476">
        <ele>60.7</ele>
        <time>2019-07-16T13:25:30Z</time>
      </trkpt>
      <trkpt lat="48.4368" lon="-1.52472">
        <ele>60.7</ele>
        <time>2019-07-16T13:25:31Z</time>
      </trkpt>
      <trkpt lat="48.43673" lon="-1.52468">
        <ele>60.8</ele>
        <time>2019-07-16T13:25:32Z</time>
      </trkpt>
      <trkpt lat="48.43667" lon="-1.52464">
        <ele>61.1</ele>
        <time>2019-07-16T13:25:33Z</time>
      </trkpt>
      <trkpt lat="48.4366" lon="-1.5246">
        <ele>61.2</ele>
        <time>2019-07-16T13:25:34Z</time>
      </trkpt>
      <trkpt lat="48.43652" lon="-1.52456">
        <ele>61</ele>
        <time>2019-07-16T13:25:35Z</time>
      </trkpt>
      <trkpt lat="48.43646" lon="-1.52452">
        <ele>60.9</ele>
        <time>2019-07-16T13:25:36Z</time>
      </trkpt>
      <trkpt lat="48.43638" lon="-1.52448">
        <ele>60.8</ele>
        <time>2019-07-16T13:25:37Z</time>
      </trkpt>
      <trkpt lat="48.43631" lon="-1.52444">
        <ele>60.5</ele>
        <time>2019-07-16T13:25:38Z</time>
      </trkpt>
      <trkpt lat="48.43624" lon="-1.5244">
        <ele>60.3</ele>
        <time>2019-07-16T13:25:39Z</time>
      </trkpt>
      <trkpt lat="48.43616" lon="-1.52436">
        <ele>60.1</ele>
        <time>2019-07-16T13:25:40Z</time>
      </trkpt>
      <trkpt lat="48.43609" lon="-1.52432">
        <ele>59.7</ele>
        <time>2019-07-16T13:25:41Z</time>
      </trkpt>
      <trkpt lat="48.43602" lon="-1.52428">
        <ele>59.4</ele>
        <time>2019-07-16T13:25:42Z</time>
      </trkpt>
      <trkpt lat="48.43595" lon="-1.52425">
        <ele>59.2</ele>
        <time>2019-07-16T13:25:43Z</time>
      </trkpt>
      <trkpt lat="48.43588" lon="-1.52421">
        <ele>59.1</ele>
        <time>2019-07-16T13:25:44Z</time>
      </trkpt>
      <trkpt lat="48.43581" lon="-1.52418">
        <ele>58.7</ele>
        <time>2019-07-16T13:25:45Z</time>
      </trkpt>
      <trkpt lat="48.43573" lon="-1.52414">
        <ele>58.4</ele>
        <time>2019-07-16T13:25:46Z</time>
      </trkpt>
      <trkpt lat="48.43567" lon="-1.5241">
        <ele>57.8</ele>
        <time>2019-07-16T13:25:47Z</time>
      </trkpt>
      <trkpt lat="48.4356" lon="-1.52407">
        <ele>57.8</ele>
        <time>2019-07-16T13:25:48Z</time>
      </trkpt>
      <trkpt lat="48.43553" lon="-1.52403">
        <ele>57.7</ele>
        <time>2019-07-16T13:25:49Z</time>
      </trkpt>
      <trkpt lat="48.43546" lon="-1.524">
        <ele>57.6</ele>
        <time>2019-07-16T13:25:50Z</time>
      </trkpt>
      <trkpt lat="48.43539" lon="-1.52396">
        <ele>57.7</ele>
        <time>2019-07-16T13:25:51Z</time>
      </trkpt>
      <trkpt lat="48.43533" lon="-1.52392">
        <ele>57.6</ele>
        <time>2019-07-16T13:25:52Z</time>
      </trkpt>
      <trkpt lat="48.43526" lon="-1.52388">
        <ele>57.6</ele>
        <time>2019-07-16T13:25:53Z</time>
      </trkpt>
      <trkpt lat="48.4352" lon="-1.52385">
        <ele>57.5</ele>
        <time>2019-07-16T13:25:54Z</time>
      </trkpt>
      <trkpt lat="48.43513" lon="-1.52381">
        <ele>57.4</ele>
        <time>2019-07-16T13:25:55Z</time>
      </trkpt>
      <trkpt lat="48.43506" lon="-1.52378">
        <ele>57.4</ele>
        <time>2019-07-16T13:25:56Z</time>
      </trkpt>
      <trkpt lat="48.435" lon="-1.52374">
        <ele>57.2</ele>
        <time>2019-07-16T13:25:57Z</time>
      </trkpt>
      <trkpt lat="48.43493" lon="-1.52371">
        <ele>57</ele>
        <time>2019-07-16T13:25:58Z</time>
      </trkpt>
      <trkpt lat="48.43486" lon="-1.52367">
        <ele>56.7</ele>
        <time>2019-07-16T13:25:59Z</time>
      </trkpt>
      <trkpt lat="48.43479" lon="-1.52363">
        <ele>56.5</ele>
        <time>2019-07-16T13:26:00Z</time>
      </trkpt>
      <trkpt lat="48.43472" lon="-1.52359">
        <ele>56</ele>
        <time>2019-07-16T13:26:01Z</time>
      </trkpt>
      <trkpt lat="48.43465" lon="-1.52355">
        <ele>55.5</ele>
        <time>2019-07-16T13:26:02Z</time>
      </trkpt>
      <trkpt lat="48.43458" lon="-1.52351">
        <ele>55</ele>
        <time>2019-07-16T13:26:03Z</time>
      </trkpt>
      <trkpt lat="48.43451" lon="-1.52348">
        <ele>54.7</ele>
        <time>2019-07-16T13:26:04Z</time>
      </trkpt>
      <trkpt lat="48.43443" lon="-1.52344">
        <ele>54.2</ele>
        <time>2019-07-16T13:26:05Z</time>
      </trkpt>
      <trkpt lat="48.43436" lon="-1.5234">
        <ele>54</ele>
        <time>2019-07-16T13:26:06Z</time>
      </trkpt>
      <trkpt lat="48.43429" lon="-1.52336">
        <ele>53.9</ele>
        <time>2019-07-16T13:26:07Z</time>
      </trkpt>
      <trkpt lat="48.43422" lon="-1.52331">
        <ele>53.7</ele>
        <time>2019-07-16T13:26:08Z</time>
      </trkpt>
      <trkpt lat="48.43415" lon="-1.52327">
        <ele>53.5</ele>
        <time>2019-07-16T13:26:09Z</time>
      </trkpt>
      <trkpt lat="48.43408" lon="-1.52322">
        <ele>52.9</ele>
        <time>2019-07-16T13:26:10Z</time>
      </trkpt>
      <trkpt lat="48.43402" lon="-1.52318">
        <ele>52.6</ele>
        <time>2019-07-16T13:26:11Z</time>
      </trkpt>
      <trkpt lat="48.43396" lon="-1.52314">
        <ele>52.2</ele>
        <time>2019-07-16T13:26:12Z</time>
      </trkpt>
      <trkpt lat="48.43391" lon="-1.52309">
        <ele>51.9</ele>
        <time>2019-07-16T13:26:13Z</time>
      </trkpt>
      <trkpt lat="48.43386" lon="-1.52305">
        <ele>51.7</ele>
        <time>2019-07-16T13:26:14Z</time>
      </trkpt>
      <trkpt lat="48.43381" lon="-1.52302">
        <ele>51.3</ele>
        <time>2019-07-16T13:26:15Z</time>
      </trkpt>
      <trkpt lat="48.43377" lon="-1.52299">
        <ele>51</ele>
        <time>2019-07-16T13:26:16Z</time>
      </trkpt>
      <trkpt lat="48.43374" lon="-1.52296">
        <ele>50.6</ele>
        <time>2019-07-16T13:26:17Z</time>
      </trkpt>
      <trkpt lat="48.4337" lon="-1.52294">
        <ele>50.6</ele>
        <time>2019-07-16T13:26:18Z</time>
      </trkpt>
      <trkpt lat="48.43369" lon="-1.52292">
        <ele>50.4</ele>
        <time>2019-07-16T13:26:19Z</time>
      </trkpt>
      <trkpt lat="48.43367" lon="-1.5229">
        <ele>50.3</ele>
        <time>2019-07-16T13:26:20Z</time>
      </trkpt>
      <trkpt lat="48.43367" lon="-1.52287">
        <ele>50</ele>
        <time>2019-07-16T13:26:21Z</time>
      </trkpt>
      <trkpt lat="48.43367" lon="-1.52284">
        <ele>49.8</ele>
        <time>2019-07-16T13:26:22Z</time>
      </trkpt>
      <trkpt lat="48.43367" lon="-1.5228">
        <ele>50</ele>
        <time>2019-07-16T13:26:23Z</time>
      </trkpt>
      <trkpt lat="48.43368" lon="-1.52277">
        <ele>50.3</ele>
        <time>2019-07-16T13:26:24Z</time>
      </trkpt>
      <trkpt lat="48.43369" lon="-1.52273">
        <ele>50.7</ele>
        <time>2019-07-16T13:26:25Z</time>
      </trkpt>
      <trkpt lat="48.4337" lon="-1.52269">
        <ele>51.1</ele>
        <time>2019-07-16T13:26:26Z</time>
      </trkpt>
      <trkpt lat="48.43371" lon="-1.52265">
        <ele>51.6</ele>
        <time>2019-07-16T13:26:27Z</time>
      </trkpt>
      <trkpt lat="48.43372" lon="-1.52262">
        <ele>51.3</ele>
        <time>2019-07-16T13:26:28Z</time>
      </trkpt>
      <trkpt lat="48.43374" lon="-1.52258">
        <ele>51.4</ele>
        <time>2019-07-16T13:26:29Z</time>
      </trkpt>
      <trkpt lat="48.43376" lon="-1.52255">
        <ele>51.8</ele>
        <time>2019-07-16T13:26:30Z</time>
      </trkpt>
      <trkpt lat="48.43378" lon="-1.52251">
        <ele>52.1</ele>
        <time>2019-07-16T13:26:31Z</time>
      </trkpt>
      <trkpt lat="48.4338" lon="-1.52248">
        <ele>52.2</ele>
        <time>2019-07-16T13:26:32Z</time>
      </trkpt>
      <trkpt lat="48.43382" lon="-1.52244">
        <ele>52.6</ele>
        <time>2019-07-16T13:26:33Z</time>
      </trkpt>
      <trkpt lat="48.43384" lon="-1.5224">
        <ele>52.9</ele>
        <time>2019-07-16T13:26:34Z</time>
      </trkpt>
      <trkpt lat="48.43386" lon="-1.52237">
        <ele>53</ele>
        <time>2019-07-16T13:26:35Z</time>
      </trkpt>
      <trkpt lat="48.43388" lon="-1.52233">
        <ele>53.2</ele>
        <time>2019-07-16T13:26:36Z</time>
      </trkpt>
      <trkpt lat="48.4339" lon="-1.5223">
        <ele>52.9</ele>
        <time>2019-07-16T13:26:37Z</time>
      </trkpt>
      <trkpt lat="48.43391" lon="-1.52226">
        <ele>53</ele>
        <time>2019-07-16T13:26:38Z</time>
      </trkpt>
      <trkpt lat="48.43393" lon="-1.52222">
        <ele>53</ele>
        <time>2019-07-16T13:26:39Z</time>
      </trkpt>
      <trkpt lat="48.43395" lon="-1.52218">
        <ele>52.7</ele>
        <time>2019-07-16T13:26:40Z</time>
      </trkpt>
      <trkpt lat="48.43397" lon="-1.52215">
        <ele>52.9</ele>
        <time>2019-07-16T13:26:41Z</time>
      </trkpt>
      <trkpt lat="48.43399" lon="-1.52211">
        <ele>53</ele>
        <time>2019-07-16T13:26:42Z</time>
      </trkpt>
      <trkpt lat="48.43401" lon="-1.52207">
        <ele>53.1</ele>
        <time>2019-07-16T13:26:43Z</time>
      </trkpt>
      <trkpt lat="48.43404" lon="-1.52203">
        <ele>53.1</ele>
        <time>2019-07-16T13:26:44Z</time>
      </trkpt>
      <trkpt lat="48.43406" lon="-1.52199">
        <ele>52.9</ele>
        <time>2019-07-16T13:26:45Z</time>
      </trkpt>
      <trkpt lat="48.43407" lon="-1.52195">
        <ele>52.9</ele>
        <time>2019-07-16T13:26:46Z</time>
      </trkpt>
      <trkpt lat="48.43409" lon="-1.52191">
        <ele>53</ele>
        <time>2019-07-16T13:26:47Z</time>
      </trkpt>
      <trkpt lat="48.43411" lon="-1.52187">
        <ele>53.2</ele>
        <time>2019-07-16T13:26:48Z</time>
      </trkpt>
      <trkpt lat="48.43413" lon="-1.52183">
        <ele>53.1</ele>
        <time>2019-07-16T13:26:49Z</time>
      </trkpt>
      <trkpt lat="48.43415" lon="-1.52179">
        <ele>52.8</ele>
        <time>2019-07-16T13:26:50Z</time>
      </trkpt>
      <trkpt lat="48.43417" lon="-1.52175">
        <ele>52.9</ele>
        <time>2019-07-16T13:26:51Z</time>
      </trkpt>
      <trkpt lat="48.43419" lon="-1.52171">
        <ele>52.8</ele>
        <time>2019-07-16T13:26:52Z</time>
      </trkpt>
      <trkpt lat="48.43422" lon="-1.52168">
        <ele>53</ele>
        <time>2019-07-16T13:26:53Z</time>
      </trkpt>
      <trkpt lat="48.43424" lon="-1.52164">
        <ele>53.3</ele>
        <time>2019-07-16T13:26:54Z</time>
      </trkpt>
      <trkpt lat="48.43426" lon="-1.52159">
        <ele>53.4</ele>
        <time>2019-07-16T13:26:55Z</time>
      </trkpt>
      <trkpt lat="48.43428" lon="-1.52155">
        <ele>53.4</ele>
        <time>2019-07-16T13:26:56Z</time>
      </trkpt>
      <trkpt lat="48.4343" lon="-1.5215">
        <ele>53.7</ele>
        <time>2019-07-16T13:26:57Z</time>
      </trkpt>
      <trkpt lat="48.43433" lon="-1.52146">
        <ele>53.9</ele>
        <time>2019-07-16T13:26:58Z</time>
      </trkpt>
      <trkpt lat="48.43435" lon="-1.52141">
        <ele>54</ele>
        <time>2019-07-16T13:26:59Z</time>
      </trkpt>
      <trkpt lat="48.43437" lon="-1.52137">
        <ele>53.9</ele>
        <time>2019-07-16T13:27:00Z</time>
      </trkpt>
      <trkpt lat="48.4344" lon="-1.52132">
        <ele>54.1</ele>
        <time>2019-07-16T13:27:01Z</time>
      </trkpt>
      <trkpt lat="48.43442" lon="-1.52127">
        <ele>53.6</ele>
        <time>2019-07-16T13:27:02Z</time>
      </trkpt>
      <trkpt lat="48.43444" lon="-1.52122">
        <ele>53.1</ele>
        <time>2019-07-16T13:27:03Z</time>
      </trkpt>
      <trkpt lat="48.43447" lon="-1.52117">
        <ele>52.6</ele>
        <time>2019-07-16T13:27:04Z</time>
      </trkpt>
      <trkpt lat="48.43449" lon="-1.52112">
        <ele>52.1</ele>
        <time>2019-07-16T13:27:05Z</time>
      </trkpt>
      <trkpt lat="48.43452" lon="-1.52106">
        <ele>51.8</ele>
        <time>2019-07-16T13:27:06Z</time>
      </trkpt>
      <trkpt lat="48.43454" lon="-1.52101">
        <ele>51.8</ele>
        <time>2019-07-16T13:27:07Z</time>
      </trkpt>
      <trkpt lat="48.43457" lon="-1.52096">
        <ele>51.5</ele>
        <time>2019-07-16T13:27:08Z</time>
      </trkpt>
      <trkpt lat="48.43461" lon="-1.5209">
        <ele>51.1</ele>
        <time>2019-07-16T13:27:09Z</time>
      </trkpt>
      <trkpt lat="48.43463" lon="-1.52084">
        <ele>50.9</ele>
        <time>2019-07-16T13:27:10Z</time>
      </trkpt>
      <trkpt lat="48.43466" lon="-1.52078">
        <ele>50.7</ele>
        <time>2019-07-16T13:27:11Z</time>
      </trkpt>
      <trkpt lat="48.43469" lon="-1.52072">
        <ele>50.6</ele>
        <time>2019-07-16T13:27:12Z</time>
      </trkpt>
      <trkpt lat="48.43473" lon="-1.52066">
        <ele>50.7</ele>
        <time>2019-07-16T13:27:13Z</time>
      </trkpt>
      <trkpt lat="48.43476" lon="-1.5206">
        <ele>50.6</ele>
        <time>2019-07-16T13:27:14Z</time>
      </trkpt>
      <trkpt lat="48.4348" lon="-1.52053">
        <ele>50.4</ele>
        <time>2019-07-16T13:27:15Z</time>
      </trkpt>
      <trkpt lat="48.43483" lon="-1.52046">
        <ele>50.3</ele>
        <time>2019-07-16T13:27:16Z</time>
      </trkpt>
      <trkpt lat="48.43487" lon="-1.52039">
        <ele>50.2</ele>
        <time>2019-07-16T13:27:17Z</time>
      </trkpt>
      <trkpt lat="48.4349" lon="-1.52032">
        <ele>50.4</ele>
        <time>2019-07-16T13:27:18Z</time>
      </trkpt>
      <trkpt lat="48.43494" lon="-1.52024">
        <ele>50</ele>
        <time>2019-07-16T13:27:19Z</time>
      </trkpt>
      <trkpt lat="48.43498" lon="-1.52017">
        <ele>49.5</ele>
        <time>2019-07-16T13:27:20Z</time>
      </trkpt>
      <trkpt lat="48.43502" lon="-1.52009">
        <ele>48.8</ele>
        <time>2019-07-16T13:27:21Z</time>
      </trkpt>
      <trkpt lat="48.43506" lon="-1.52001">
        <ele>48.2</ele>
        <time>2019-07-16T13:27:22Z</time>
      </trkpt>
      <trkpt lat="48.4351" lon="-1.51992">
        <ele>47.5</ele>
        <time>2019-07-16T13:27:23Z</time>
      </trkpt>
      <trkpt lat="48.43514" lon="-1.51984">
        <ele>46.9</ele>
        <time>2019-07-16T13:27:24Z</time>
      </trkpt>
      <trkpt lat="48.43518" lon="-1.51976">
        <ele>46.3</ele>
        <time>2019-07-16T13:27:25Z</time>
      </trkpt>
      <trkpt lat="48.43523" lon="-1.51967">
        <ele>46.1</ele>
        <time>2019-07-16T13:27:26Z</time>
      </trkpt>
      <trkpt lat="48.43527" lon="-1.51959">
        <ele>46</ele>
        <time>2019-07-16T13:27:27Z</time>
      </trkpt>
      <trkpt lat="48.43532" lon="-1.51949">
        <ele>45.4</ele>
        <time>2019-07-16T13:27:28Z</time>
      </trkpt>
      <trkpt lat="48.43537" lon="-1.5194">
        <ele>44.9</ele>
        <time>2019-07-16T13:27:29Z</time>
      </trkpt>
      <trkpt lat="48.43542" lon="-1.51931">
        <ele>44.1</ele>
        <time>2019-07-16T13:27:30Z</time>
      </trkpt>
      <trkpt lat="48.43547" lon="-1.51921">
        <ele>43</ele>
        <time>2019-07-16T13:27:31Z</time>
      </trkpt>
      <trkpt lat="48.43552" lon="-1.51911">
        <ele>41.9</ele>
        <time>2019-07-16T13:27:32Z</time>
      </trkpt>
      <trkpt lat="48.43558" lon="-1.51901">
        <ele>40.8</ele>
        <time>2019-07-16T13:27:33Z</time>
      </trkpt>
      <trkpt lat="48.43564" lon="-1.51892">
        <ele>40</ele>
        <time>2019-07-16T13:27:34Z</time>
      </trkpt>
      <trkpt lat="48.43569" lon="-1.51882">
        <ele>39</ele>
        <time>2019-07-16T13:27:35Z</time>
      </trkpt>
      <trkpt lat="48.43575" lon="-1.51873">
        <ele>38</ele>
        <time>2019-07-16T13:27:36Z</time>
      </trkpt>
      <trkpt lat="48.4358" lon="-1.51864">
        <ele>37</ele>
        <time>2019-07-16T13:27:37Z</time>
      </trkpt>
      <trkpt lat="48.43584" lon="-1.51857">
        <ele>36.4</ele>
        <time>2019-07-16T13:27:38Z</time>
      </trkpt>
      <trkpt lat="48.43588" lon="-1.51851">
        <ele>35.8</ele>
        <time>2019-07-16T13:27:39Z</time>
      </trkpt>
      <trkpt lat="48.43592" lon="-1.51846">
        <ele>35.5</ele>
        <time>2019-07-16T13:27:40Z</time>
      </trkpt>
      <trkpt lat="48.43595" lon="-1.51841">
        <ele>35.6</ele>
        <time>2019-07-16T13:27:41Z</time>
      </trkpt>
      <trkpt lat="48.43597" lon="-1.51836">
        <ele>35.6</ele>
        <time>2019-07-16T13:27:42Z</time>
      </trkpt>
      <trkpt lat="48.43597" lon="-1.5183">
        <ele>35.3</ele>
        <time>2019-07-16T13:27:43Z</time>
      </trkpt>
      <trkpt lat="48.43596" lon="-1.51825">
        <ele>34.8</ele>
        <time>2019-07-16T13:27:44Z</time>
      </trkpt>
      <trkpt lat="48.43592" lon="-1.51819">
        <ele>34.1</ele>
        <time>2019-07-16T13:27:45Z</time>
      </trkpt>
      <trkpt lat="48.43589" lon="-1.51814">
        <ele>33.7</ele>
        <time>2019-07-16T13:27:46Z</time>
      </trkpt>
      <trkpt lat="48.43586" lon="-1.51806">
        <ele>33.2</ele>
        <time>2019-07-16T13:27:47Z</time>
      </trkpt>
      <trkpt lat="48.43585" lon="-1.51796">
        <ele>32.9</ele>
        <time>2019-07-16T13:27:48Z</time>
      </trkpt>
      <trkpt lat="48.43587" lon="-1.51785">
        <ele>32.5</ele>
        <time>2019-07-16T13:27:49Z</time>
      </trkpt>
      <trkpt lat="48.43586" lon="-1.51773">
        <ele>31.2</ele>
        <time>2019-07-16T13:27:50Z</time>
      </trkpt>
      <trkpt lat="48.43588" lon="-1.51761">
        <ele>29.9</ele>
        <time>2019-07-16T13:27:51Z</time>
      </trkpt>
      <trkpt lat="48.4359" lon="-1.51749">
        <ele>28.9</ele>
        <time>2019-07-16T13:27:52Z</time>
      </trkpt>
      <trkpt lat="48.43593" lon="-1.51738">
        <ele>28.1</ele>
        <time>2019-07-16T13:27:53Z</time>
      </trkpt>
      <trkpt lat="48.43595" lon="-1.51726">
        <ele>27.1</ele>
        <time>2019-07-16T13:27:54Z</time>
      </trkpt>
      <trkpt lat="48.43597" lon="-1.51715">
        <ele>26.4</ele>
        <time>2019-07-16T13:27:55Z</time>
      </trkpt>
      <trkpt lat="48.43598" lon="-1.51703">
        <ele>25.7</ele>
        <time>2019-07-16T13:27:56Z</time>
      </trkpt>
      <trkpt lat="48.43601" lon="-1.51691">
        <ele>24.9</ele>
        <time>2019-07-16T13:27:57Z</time>
      </trkpt>
      <trkpt lat="48.43602" lon="-1.51679">
        <ele>24.1</ele>
        <time>2019-07-16T13:27:58Z</time>
      </trkpt>
      <trkpt lat="48.43604" lon="-1.51666">
        <ele>23.4</ele>
        <time>2019-07-16T13:27:59Z</time>
      </trkpt>
      <trkpt lat="48.43605" lon="-1.51654">
        <ele>22.9</ele>
        <time>2019-07-16T13:28:00Z</time>
      </trkpt>
      <trkpt lat="48.43607" lon="-1.51641">
        <ele>23.1</ele>
        <time>2019-07-16T13:28:01Z</time>
      </trkpt>
      <trkpt lat="48.43609" lon="-1.51627">
        <ele>22.3</ele>
        <time>2019-07-16T13:28:02Z</time>
      </trkpt>
      <trkpt lat="48.43609" lon="-1.51582">
        <ele>20.2</ele>
        <time>2019-07-16T13:28:05Z</time>
      </trkpt>
      <trkpt lat="48.43609" lon="-1.51564">
        <ele>19.5</ele>
        <time>2019-07-16T13:28:06Z</time>
      </trkpt>
      <trkpt lat="48.43609" lon="-1.51549">
        <ele>19.3</ele>
        <time>2019-07-16T13:28:07Z</time>
      </trkpt>
      <trkpt lat="48.43606" lon="-1.51534">
        <ele>18.5</ele>
        <time>2019-07-16T13:28:08Z</time>
      </trkpt>
      <trkpt lat="48.43603" lon="-1.51519">
        <ele>17.8</ele>
        <time>2019-07-16T13:28:09Z</time>
      </trkpt>
      <trkpt lat="48.43603" lon="-1.51505">
        <ele>16.9</ele>
        <time>2019-07-16T13:28:10Z</time>
      </trkpt>
      <trkpt lat="48.43602" lon="-1.5149">
        <ele>17.3</ele>
        <time>2019-07-16T13:28:11Z</time>
      </trkpt>
      <trkpt lat="48.43599" lon="-1.51475">
        <ele>16.7</ele>
        <time>2019-07-16T13:28:12Z</time>
      </trkpt>
      <trkpt lat="48.43597" lon="-1.51462">
        <ele>16</ele>
        <time>2019-07-16T13:28:13Z</time>
      </trkpt>
      <trkpt lat="48.43594" lon="-1.51449">
        <ele>15.3</ele>
        <time>2019-07-16T13:28:14Z</time>
      </trkpt>
      <trkpt lat="48.43592" lon="-1.51436">
        <ele>14.4</ele>
        <time>2019-07-16T13:28:15Z</time>
      </trkpt>
      <trkpt lat="48.43589" lon="-1.51424">
        <ele>14.8</ele>
        <time>2019-07-16T13:28:16Z</time>
      </trkpt>
      <trkpt lat="48.43587" lon="-1.51412">
        <ele>14.7</ele>
        <time>2019-07-16T13:28:17Z</time>
      </trkpt>
      <trkpt lat="48.43584" lon="-1.514">
        <ele>14.7</ele>
        <time>2019-07-16T13:28:18Z</time>
      </trkpt>
      <trkpt lat="48.43582" lon="-1.51389">
        <ele>14.7</ele>
        <time>2019-07-16T13:28:19Z</time>
      </trkpt>
      <trkpt lat="48.4358" lon="-1.51379">
        <ele>14.5</ele>
        <time>2019-07-16T13:28:20Z</time>
      </trkpt>
      <trkpt lat="48.43577" lon="-1.51369">
        <ele>14.4</ele>
        <time>2019-07-16T13:28:21Z</time>
      </trkpt>
      <trkpt lat="48.43575" lon="-1.51359">
        <ele>14.3</ele>
        <time>2019-07-16T13:28:22Z</time>
      </trkpt>
      <trkpt lat="48.43572" lon="-1.5135">
        <ele>14.1</ele>
        <time>2019-07-16T13:28:23Z</time>
      </trkpt>
      <trkpt lat="48.4357" lon="-1.51341">
        <ele>14.3</ele>
        <time>2019-07-16T13:28:24Z</time>
      </trkpt>
      <trkpt lat="48.43568" lon="-1.51332">
        <ele>14.2</ele>
        <time>2019-07-16T13:28:25Z</time>
      </trkpt>
      <trkpt lat="48.43566" lon="-1.51324">
        <ele>14.1</ele>
        <time>2019-07-16T13:28:26Z</time>
      </trkpt>
      <trkpt lat="48.43564" lon="-1.51316">
        <ele>14</ele>
        <time>2019-07-16T13:28:27Z</time>
      </trkpt>
      <trkpt lat="48.43561" lon="-1.51307">
        <ele>13.7</ele>
        <time>2019-07-16T13:28:28Z</time>
      </trkpt>
      <trkpt lat="48.43559" lon="-1.51299">
        <ele>13.4</ele>
        <time>2019-07-16T13:28:29Z</time>
      </trkpt>
      <trkpt lat="48.43557" lon="-1.51291">
        <ele>13.7</ele>
        <time>2019-07-16T13:28:30Z</time>
      </trkpt>
      <trkpt lat="48.43556" lon="-1.51284">
        <ele>13.7</ele>
        <time>2019-07-16T13:28:31Z</time>
      </trkpt>
      <trkpt lat="48.43554" lon="-1.51276">
        <ele>13.6</ele>
        <time>2019-07-16T13:28:32Z</time>
      </trkpt>
      <trkpt lat="48.43551" lon="-1.51269">
        <ele>13.5</ele>
        <time>2019-07-16T13:28:33Z</time>
      </trkpt>
      <trkpt lat="48.43549" lon="-1.51262">
        <ele>13.7</ele>
        <time>2019-07-16T13:28:34Z</time>
      </trkpt>
      <trkpt lat="48.43548" lon="-1.51255">
        <ele>13.9</ele>
        <time>2019-07-16T13:28:35Z</time>
      </trkpt>
      <trkpt lat="48.43546" lon="-1.51248">
        <ele>14.1</ele>
        <time>2019-07-16T13:28:36Z</time>
      </trkpt>
      <trkpt lat="48.43544" lon="-1.51241">
        <ele>14.4</ele>
        <time>2019-07-16T13:28:37Z</time>
      </trkpt>
      <trkpt lat="48.43542" lon="-1.51235">
        <ele>14.5</ele>
        <time>2019-07-16T13:28:38Z</time>
      </trkpt>
      <trkpt lat="48.4354" lon="-1.51229">
        <ele>14.5</ele>
        <time>2019-07-16T13:28:39Z</time>
      </trkpt>
      <trkpt lat="48.43538" lon="-1.51223">
        <ele>14.5</ele>
        <time>2019-07-16T13:28:40Z</time>
      </trkpt>
      <trkpt lat="48.43536" lon="-1.51218">
        <ele>14.7</ele>
        <time>2019-07-16T13:28:41Z</time>
      </trkpt>
      <trkpt lat="48.43534" lon="-1.51213">
        <ele>14.5</ele>
        <time>2019-07-16T13:28:42Z</time>
      </trkpt>
      <trkpt lat="48.43531" lon="-1.51207">
        <ele>13.8</ele>
        <time>2019-07-16T13:28:43Z</time>
      </trkpt>
      <trkpt lat="48.43529" lon="-1.51201">
        <ele>13.5</ele>
        <time>2019-07-16T13:28:44Z</time>
      </trkpt>
      <trkpt lat="48.43527" lon="-1.51196">
        <ele>13.2</ele>
        <time>2019-07-16T13:28:45Z</time>
      </trkpt>
      <trkpt lat="48.43523" lon="-1.51191">
        <ele>13.1</ele>
        <time>2019-07-16T13:28:46Z</time>
      </trkpt>
      <trkpt lat="48.43521" lon="-1.51186">
        <ele>13.1</ele>
        <time>2019-07-16T13:28:47Z</time>
      </trkpt>
      <trkpt lat="48.43519" lon="-1.5118">
        <ele>12.9</ele>
        <time>2019-07-16T13:28:48Z</time>
      </trkpt>
      <trkpt lat="48.43517" lon="-1.51175">
        <ele>12.9</ele>
        <time>2019-07-16T13:28:49Z</time>
      </trkpt>
      <trkpt lat="48.43514" lon="-1.51169">
        <ele>12.8</ele>
        <time>2019-07-16T13:28:50Z</time>
      </trkpt>
      <trkpt lat="48.43512" lon="-1.51163">
        <ele>12.6</ele>
        <time>2019-07-16T13:28:51Z</time>
      </trkpt>
      <trkpt lat="48.43509" lon="-1.51158">
        <ele>12.8</ele>
        <time>2019-07-16T13:28:52Z</time>
      </trkpt>
      <trkpt lat="48.43507" lon="-1.51152">
        <ele>12.7</ele>
        <time>2019-07-16T13:28:53Z</time>
      </trkpt>
      <trkpt lat="48.43504" lon="-1.51146">
        <ele>12.3</ele>
        <time>2019-07-16T13:28:54Z</time>
      </trkpt>
      <trkpt lat="48.43502" lon="-1.5114">
        <ele>12</ele>
        <time>2019-07-16T13:28:55Z</time>
      </trkpt>
      <trkpt lat="48.43499" lon="-1.51134">
        <ele>12.5</ele>
        <time>2019-07-16T13:28:56Z</time>
      </trkpt>
      <trkpt lat="48.43498" lon="-1.51128">
        <ele>13.2</ele>
        <time>2019-07-16T13:28:57Z</time>
      </trkpt>
      <trkpt lat="48.43496" lon="-1.51124">
        <ele>13.6</ele>
        <time>2019-07-16T13:28:58Z</time>
      </trkpt>
      <trkpt lat="48.43493" lon="-1.51118">
        <ele>14</ele>
        <time>2019-07-16T13:28:59Z</time>
      </trkpt>
      <trkpt lat="48.4349" lon="-1.51113">
        <ele>14</ele>
        <time>2019-07-16T13:29:00Z</time>
      </trkpt>
      <trkpt lat="48.43488" lon="-1.51107">
        <ele>14</ele>
        <time>2019-07-16T13:29:01Z</time>
      </trkpt>
      <trkpt lat="48.43485" lon="-1.51102">
        <ele>13.7</ele>
        <time>2019-07-16T13:29:02Z</time>
      </trkpt>
      <trkpt lat="48.43482" lon="-1.51096">
        <ele>14.2</ele>
        <time>2019-07-16T13:29:03Z</time>
      </trkpt>
      <trkpt lat="48.4348" lon="-1.51091">
        <ele>14.2</ele>
        <time>2019-07-16T13:29:04Z</time>
      </trkpt>
      <trkpt lat="48.43477" lon="-1.51085">
        <ele>14.2</ele>
        <time>2019-07-16T13:29:05Z</time>
      </trkpt>
      <trkpt lat="48.43474" lon="-1.51079">
        <ele>13.7</ele>
        <time>2019-07-16T13:29:06Z</time>
      </trkpt>
      <trkpt lat="48.43472" lon="-1.51073">
        <ele>13.3</ele>
        <time>2019-07-16T13:29:07Z</time>
      </trkpt>
      <trkpt lat="48.4347" lon="-1.51067">
        <ele>12.7</ele>
        <time>2019-07-16T13:29:08Z</time>
      </trkpt>
      <trkpt lat="48.43468" lon="-1.51061">
        <ele>12.7</ele>
        <time>2019-07-16T13:29:09Z</time>
      </trkpt>
      <trkpt lat="48.43465" lon="-1.51055">
        <ele>13.2</ele>
        <time>2019-07-16T13:29:10Z</time>
      </trkpt>
      <trkpt lat="48.43464" lon="-1.5105">
        <ele>13.5</ele>
        <time>2019-07-16T13:29:11Z</time>
      </trkpt>
      <trkpt lat="48.43461" lon="-1.51044">
        <ele>13.7</ele>
        <time>2019-07-16T13:29:12Z</time>
      </trkpt>
      <trkpt lat="48.43459" lon="-1.51038">
        <ele>13.8</ele>
        <time>2019-07-16T13:29:13Z</time>
      </trkpt>
      <trkpt lat="48.43457" lon="-1.51033">
        <ele>13.9</ele>
        <time>2019-07-16T13:29:14Z</time>
      </trkpt>
      <trkpt lat="48.43454" lon="-1.51027">
        <ele>13.9</ele>
        <time>2019-07-16T13:29:15Z</time>
      </trkpt>
      <trkpt lat="48.43453" lon="-1.51022">
        <ele>13.9</ele>
        <time>2019-07-16T13:29:16Z</time>
      </trkpt>
      <trkpt lat="48.43451" lon="-1.51016">
        <ele>14.1</ele>
        <time>2019-07-16T13:29:17Z</time>
      </trkpt>
      <trkpt lat="48.43449" lon="-1.5101">
        <ele>15.2</ele>
        <time>2019-07-16T13:29:18Z</time>
      </trkpt>
      <trkpt lat="48.43447" lon="-1.51005">
        <ele>15.9</ele>
        <time>2019-07-16T13:29:19Z</time>
      </trkpt>
      <trkpt lat="48.43445" lon="-1.51">
        <ele>16.3</ele>
        <time>2019-07-16T13:29:20Z</time>
      </trkpt>
      <trkpt lat="48.43443" lon="-1.50995">
        <ele>16.7</ele>
        <time>2019-07-16T13:29:21Z</time>
      </trkpt>
      <trkpt lat="48.43442" lon="-1.5099">
        <ele>17.4</ele>
        <time>2019-07-16T13:29:22Z</time>
      </trkpt>
      <trkpt lat="48.4344" lon="-1.50984">
        <ele>17.5</ele>
        <time>2019-07-16T13:29:23Z</time>
      </trkpt>
      <trkpt lat="48.43438" lon="-1.50979">
        <ele>17.5</ele>
        <time>2019-07-16T13:29:24Z</time>
      </trkpt>
      <trkpt lat="48.43436" lon="-1.50973">
        <ele>17.3</ele>
        <time>2019-07-16T13:29:25Z</time>
      </trkpt>
      <trkpt lat="48.43435" lon="-1.50966">
        <ele>16</ele>
        <time>2019-07-16T13:29:26Z</time>
      </trkpt>
      <trkpt lat="48.43435" lon="-1.5096">
        <ele>15.5</ele>
        <time>2019-07-16T13:29:27Z</time>
      </trkpt>
      <trkpt lat="48.43434" lon="-1.50954">
        <ele>15.5</ele>
        <time>2019-07-16T13:29:28Z</time>
      </trkpt>
      <trkpt lat="48.43435" lon="-1.50948">
        <ele>15.2</ele>
        <time>2019-07-16T13:29:29Z</time>
      </trkpt>
      <trkpt lat="48.43436" lon="-1.50943">
        <ele>15</ele>
        <time>2019-07-16T13:29:30Z</time>
      </trkpt>
      <trkpt lat="48.43438" lon="-1.50939">
        <ele>15.4</ele>
        <time>2019-07-16T13:29:31Z</time>
      </trkpt>
      <trkpt lat="48.43442" lon="-1.50936">
        <ele>16.8</ele>
        <time>2019-07-16T13:29:32Z</time>
      </trkpt>
      <trkpt lat="48.43444" lon="-1.50932">
        <ele>17.2</ele>
        <time>2019-07-16T13:29:33Z</time>
      </trkpt>
      <trkpt lat="48.43446" lon="-1.50929">
        <ele>17.2</ele>
        <time>2019-07-16T13:29:34Z</time>
      </trkpt>
      <trkpt lat="48.43446" lon="-1.50924">
        <ele>17.3</ele>
        <time>2019-07-16T13:29:35Z</time>
      </trkpt>
      <trkpt lat="48.43447" lon="-1.5092">
        <ele>17.6</ele>
        <time>2019-07-16T13:29:36Z</time>
      </trkpt>
      <trkpt lat="48.43448" lon="-1.50916">
        <ele>17.4</ele>
        <time>2019-07-16T13:29:37Z</time>
      </trkpt>
      <trkpt lat="48.43448" lon="-1.50912">
        <ele>17.8</ele>
        <time>2019-07-16T13:29:38Z</time>
      </trkpt>
      <trkpt lat="48.43449" lon="-1.50908">
        <ele>17.8</ele>
        <time>2019-07-16T13:29:39Z</time>
      </trkpt>
      <trkpt lat="48.4345" lon="-1.50904">
        <ele>17.4</ele>
        <time>2019-07-16T13:29:40Z</time>
      </trkpt>
      <trkpt lat="48.43451" lon="-1.509">
        <ele>17.4</ele>
        <time>2019-07-16T13:29:41Z</time>
      </trkpt>
      <trkpt lat="48.43451" lon="-1.50896">
        <ele>16.9</ele>
        <time>2019-07-16T13:29:42Z</time>
      </trkpt>
      <trkpt lat="48.43453" lon="-1.50892">
        <ele>16.1</ele>
        <time>2019-07-16T13:29:43Z</time>
      </trkpt>
      <trkpt lat="48.43454" lon="-1.50888">
        <ele>15.2</ele>
        <time>2019-07-16T13:29:44Z</time>
      </trkpt>
      <trkpt lat="48.43454" lon="-1.50885">
        <ele>14.5</ele>
        <time>2019-07-16T13:29:45Z</time>
      </trkpt>
      <trkpt lat="48.43455" lon="-1.50881">
        <ele>14.5</ele>
        <time>2019-07-16T13:29:46Z</time>
      </trkpt>
      <trkpt lat="48.43456" lon="-1.50877">
        <ele>14.6</ele>
        <time>2019-07-16T13:29:47Z</time>
      </trkpt>
      <trkpt lat="48.43456" lon="-1.50873">
        <ele>15.2</ele>
        <time>2019-07-16T13:29:48Z</time>
      </trkpt>
      <trkpt lat="48.43457" lon="-1.50869">
        <ele>15.5</ele>
        <time>2019-07-16T13:29:49Z</time>
      </trkpt>
      <trkpt lat="48.43458" lon="-1.50866">
        <ele>15.8</ele>
        <time>2019-07-16T13:29:50Z</time>
      </trkpt>
      <trkpt lat="48.43458" lon="-1.50862">
        <ele>16.2</ele>
        <time>2019-07-16T13:29:51Z</time>
      </trkpt>
      <trkpt lat="48.43459" lon="-1.50858">
        <ele>15.9</ele>
        <time>2019-07-16T13:29:52Z</time>
      </trkpt>
      <trkpt lat="48.43461" lon="-1.50854">
        <ele>15.7</ele>
        <time>2019-07-16T13:29:53Z</time>
      </trkpt>
      <trkpt lat="48.43461" lon="-1.5085">
        <ele>15.8</ele>
        <time>2019-07-16T13:29:54Z</time>
      </trkpt>
      <trkpt lat="48.43462" lon="-1.50846">
        <ele>15.8</ele>
        <time>2019-07-16T13:29:55Z</time>
      </trkpt>
      <trkpt lat="48.43463" lon="-1.50842">
        <ele>15.5</ele>
        <time>2019-07-16T13:29:56Z</time>
      </trkpt>
      <trkpt lat="48.43464" lon="-1.50838">
        <ele>15.5</ele>
        <time>2019-07-16T13:29:57Z</time>
      </trkpt>
      <trkpt lat="48.43465" lon="-1.50834">
        <ele>15.8</ele>
        <time>2019-07-16T13:29:58Z</time>
      </trkpt>
      <trkpt lat="48.43466" lon="-1.50831">
        <ele>15.9</ele>
        <time>2019-07-16T13:29:59Z</time>
      </trkpt>
      <trkpt lat="48.43467" lon="-1.50827">
        <ele>16.3</ele>
        <time>2019-07-16T13:30:00Z</time>
      </trkpt>
      <trkpt lat="48.43469" lon="-1.50823">
        <ele>16.7</ele>
        <time>2019-07-16T13:30:01Z</time>
      </trkpt>
      <trkpt lat="48.4347" lon="-1.5082">
        <ele>16.6</ele>
        <time>2019-07-16T13:30:02Z</time>
      </trkpt>
      <trkpt lat="48.43471" lon="-1.50816">
        <ele>16.2</ele>
        <time>2019-07-16T13:30:03Z</time>
      </trkpt>
      <trkpt lat="48.43472" lon="-1.50812">
        <ele>16.4</ele>
        <time>2019-07-16T13:30:04Z</time>
      </trkpt>
      <trkpt lat="48.43473" lon="-1.50809">
        <ele>16</ele>
        <time>2019-07-16T13:30:05Z</time>
      </trkpt>
      <trkpt lat="48.43475" lon="-1.50805">
        <ele>16.2</ele>
        <time>2019-07-16T13:30:06Z</time>
      </trkpt>
      <trkpt lat="48.43477" lon="-1.50801">
        <ele>16.3</ele>
        <time>2019-07-16T13:30:07Z</time>
      </trkpt>
      <trkpt lat="48.43478" lon="-1.50798">
        <ele>16.6</ele>
        <time>2019-07-16T13:30:08Z</time>
      </trkpt>
      <trkpt lat="48.4348" lon="-1.50795">
        <ele>16.7</ele>
        <time>2019-07-16T13:30:09Z</time>
      </trkpt>
      <trkpt lat="48.43482" lon="-1.50791">
        <ele>16.8</ele>
        <time>2019-07-16T13:30:10Z</time>
      </trkpt>
      <trkpt lat="48.43483" lon="-1.50788">
        <ele>17</ele>
        <time>2019-07-16T13:30:11Z</time>
      </trkpt>
      <trkpt lat="48.43485" lon="-1.50786">
        <ele>17.3</ele>
        <time>2019-07-16T13:30:12Z</time>
      </trkpt>
      <trkpt lat="48.43487" lon="-1.50783">
        <ele>17.6</ele>
        <time>2019-07-16T13:30:13Z</time>
      </trkpt>
      <trkpt lat="48.43489" lon="-1.5078">
        <ele>17.9</ele>
        <time>2019-07-16T13:30:14Z</time>
      </trkpt>
      <trkpt lat="48.43491" lon="-1.50778">
        <ele>18.1</ele>
        <time>2019-07-16T13:30:15Z</time>
      </trkpt>
      <trkpt lat="48.43493" lon="-1.50775">
        <ele>18.4</ele>
        <time>2019-07-16T13:30:16Z</time>
      </trkpt>
      <trkpt lat="48.43495" lon="-1.50773">
        <ele>18.9</ele>
        <time>2019-07-16T13:30:17Z</time>
      </trkpt>
      <trkpt lat="48.43498" lon="-1.50771">
        <ele>19.4</ele>
        <time>2019-07-16T13:30:18Z</time>
      </trkpt>
      <trkpt lat="48.43501" lon="-1.50768">
        <ele>20.4</ele>
        <time>2019-07-16T13:30:19Z</time>
      </trkpt>
      <trkpt lat="48.43503" lon="-1.50766">
        <ele>21.1</ele>
        <time>2019-07-16T13:30:20Z</time>
      </trkpt>
      <trkpt lat="48.43506" lon="-1.50763">
        <ele>22.1</ele>
        <time>2019-07-16T13:30:21Z</time>
      </trkpt>
      <trkpt lat="48.43508" lon="-1.50761">
        <ele>22.7</ele>
        <time>2019-07-16T13:30:22Z</time>
      </trkpt>
      <trkpt lat="48.4351" lon="-1.50758">
        <ele>23.3</ele>
        <time>2019-07-16T13:30:23Z</time>
      </trkpt>
      <trkpt lat="48.43513" lon="-1.50755">
        <ele>23.9</ele>
        <time>2019-07-16T13:30:24Z</time>
      </trkpt>
      <trkpt lat="48.43516" lon="-1.50752">
        <ele>24.7</ele>
        <time>2019-07-16T13:30:25Z</time>
      </trkpt>
      <trkpt lat="48.43518" lon="-1.50749">
        <ele>25.3</ele>
        <time>2019-07-16T13:30:26Z</time>
      </trkpt>
      <trkpt lat="48.43521" lon="-1.50746">
        <ele>25.4</ele>
        <time>2019-07-16T13:30:27Z</time>
      </trkpt>
      <trkpt lat="48.43524" lon="-1.50742">
        <ele>25.3</ele>
        <time>2019-07-16T13:30:28Z</time>
      </trkpt>
      <trkpt lat="48.43527" lon="-1.50739">
        <ele>25.5</ele>
        <time>2019-07-16T13:30:29Z</time>
      </trkpt>
      <trkpt lat="48.43529" lon="-1.50736">
        <ele>26</ele>
        <time>2019-07-16T13:30:30Z</time>
      </trkpt>
      <trkpt lat="48.43531" lon="-1.50733">
        <ele>26.5</ele>
        <time>2019-07-16T13:30:31Z</time>
      </trkpt>
      <trkpt lat="48.43534" lon="-1.5073">
        <ele>27.2</ele>
        <time>2019-07-16T13:30:32Z</time>
      </trkpt>
      <trkpt lat="48.43536" lon="-1.50727">
        <ele>27.4</ele>
        <time>2019-07-16T13:30:33Z</time>
      </trkpt>
      <trkpt lat="48.43539" lon="-1.50725">
        <ele>27.3</ele>
        <time>2019-07-16T13:30:34Z</time>
      </trkpt>
      <trkpt lat="48.43541" lon="-1.50722">
        <ele>27.5</ele>
        <time>2019-07-16T13:30:35Z</time>
      </trkpt>
      <trkpt lat="48.43543" lon="-1.50718">
        <ele>27.5</ele>
        <time>2019-07-16T13:30:36Z</time>
      </trkpt>
      <trkpt lat="48.43545" lon="-1.50714">
        <ele>27.6</ele>
        <time>2019-07-16T13:30:37Z</time>
      </trkpt>
      <trkpt lat="48.43548" lon="-1.50711">
        <ele>27.4</ele>
        <time>2019-07-16T13:30:38Z</time>
      </trkpt>
      <trkpt lat="48.43551" lon="-1.50706">
        <ele>26.7</ele>
        <time>2019-07-16T13:30:39Z</time>
      </trkpt>
      <trkpt lat="48.43555" lon="-1.50702">
        <ele>25.6</ele>
        <time>2019-07-16T13:30:40Z</time>
      </trkpt>
      <trkpt lat="48.43558" lon="-1.50698">
        <ele>25.2</ele>
        <time>2019-07-16T13:30:41Z</time>
      </trkpt>
      <trkpt lat="48.43561" lon="-1.50693">
        <ele>25</ele>
        <time>2019-07-16T13:30:42Z</time>
      </trkpt>
      <trkpt lat="48.43564" lon="-1.50689">
        <ele>24.7</ele>
        <time>2019-07-16T13:30:43Z</time>
      </trkpt>
      <trkpt lat="48.43567" lon="-1.50685">
        <ele>24.2</ele>
        <time>2019-07-16T13:30:44Z</time>
      </trkpt>
      <trkpt lat="48.4357" lon="-1.5068">
        <ele>23.5</ele>
        <time>2019-07-16T13:30:45Z</time>
      </trkpt>
      <trkpt lat="48.43573" lon="-1.50676">
        <ele>23.1</ele>
        <time>2019-07-16T13:30:46Z</time>
      </trkpt>
      <trkpt lat="48.43577" lon="-1.50672">
        <ele>22.7</ele>
        <time>2019-07-16T13:30:47Z</time>
      </trkpt>
      <trkpt lat="48.4358" lon="-1.50667">
        <ele>22.2</ele>
        <time>2019-07-16T13:30:48Z</time>
      </trkpt>
      <trkpt lat="48.43584" lon="-1.50663">
        <ele>21.8</ele>
        <time>2019-07-16T13:30:49Z</time>
      </trkpt>
      <trkpt lat="48.43587" lon="-1.50659">
        <ele>21.5</ele>
        <time>2019-07-16T13:30:50Z</time>
      </trkpt>
      <trkpt lat="48.4359" lon="-1.50655">
        <ele>21.1</ele>
        <time>2019-07-16T13:30:51Z</time>
      </trkpt>
      <trkpt lat="48.43593" lon="-1.50652">
        <ele>20.8</ele>
        <time>2019-07-16T13:30:52Z</time>
      </trkpt>
      <trkpt lat="48.43596" lon="-1.50648">
        <ele>20.8</ele>
        <time>2019-07-16T13:30:53Z</time>
      </trkpt>
      <trkpt lat="48.436" lon="-1.50644">
        <ele>20.7</ele>
        <time>2019-07-16T13:30:54Z</time>
      </trkpt>
      <trkpt lat="48.43603" lon="-1.5064">
        <ele>20.4</ele>
        <time>2019-07-16T13:30:55Z</time>
      </trkpt>
      <trkpt lat="48.43606" lon="-1.50636">
        <ele>20.4</ele>
        <time>2019-07-16T13:30:56Z</time>
      </trkpt>
      <trkpt lat="48.4361" lon="-1.50632">
        <ele>20.6</ele>
        <time>2019-07-16T13:30:57Z</time>
      </trkpt>
      <trkpt lat="48.43613" lon="-1.50629">
        <ele>20.9</ele>
        <time>2019-07-16T13:30:58Z</time>
      </trkpt>
      <trkpt lat="48.43616" lon="-1.50625">
        <ele>21.1</ele>
        <time>2019-07-16T13:30:59Z</time>
      </trkpt>
      <trkpt lat="48.43619" lon="-1.50621">
        <ele>21.4</ele>
        <time>2019-07-16T13:31:00Z</time>
      </trkpt>
      <trkpt lat="48.43623" lon="-1.50617">
        <ele>21.6</ele>
        <time>2019-07-16T13:31:01Z</time>
      </trkpt>
      <trkpt lat="48.43626" lon="-1.50612">
        <ele>21.9</ele>
        <time>2019-07-16T13:31:02Z</time>
      </trkpt>
      <trkpt lat="48.43629" lon="-1.50608">
        <ele>21.9</ele>
        <time>2019-07-16T13:31:03Z</time>
      </trkpt>
      <trkpt lat="48.43631" lon="-1.50603">
        <ele>21.8</ele>
        <time>2019-07-16T13:31:04Z</time>
      </trkpt>
      <trkpt lat="48.43634" lon="-1.50598">
        <ele>21.4</ele>
        <time>2019-07-16T13:31:05Z</time>
      </trkpt>
      <trkpt lat="48.43636" lon="-1.50593">
        <ele>20.9</ele>
        <time>2019-07-16T13:31:06Z</time>
      </trkpt>
      <trkpt lat="48.43638" lon="-1.50588">
        <ele>20.4</ele>
        <time>2019-07-16T13:31:07Z</time>
      </trkpt>
      <trkpt lat="48.43639" lon="-1.50583">
        <ele>19.9</ele>
        <time>2019-07-16T13:31:08Z</time>
      </trkpt>
      <trkpt lat="48.43642" lon="-1.50577">
        <ele>19.1</ele>
        <time>2019-07-16T13:31:09Z</time>
      </trkpt>
      <trkpt lat="48.43644" lon="-1.50572">
        <ele>18.7</ele>
        <time>2019-07-16T13:31:10Z</time>
      </trkpt>
      <trkpt lat="48.43646" lon="-1.50567">
        <ele>18.4</ele>
        <time>2019-07-16T13:31:11Z</time>
      </trkpt>
      <trkpt lat="48.43647" lon="-1.50562">
        <ele>18</ele>
        <time>2019-07-16T13:31:12Z</time>
      </trkpt>
      <trkpt lat="48.4365" lon="-1.50557">
        <ele>17.6</ele>
        <time>2019-07-16T13:31:13Z</time>
      </trkpt>
      <trkpt lat="48.43652" lon="-1.50552">
        <ele>17.2</ele>
        <time>2019-07-16T13:31:14Z</time>
      </trkpt>
      <trkpt lat="48.43654" lon="-1.50547">
        <ele>17.2</ele>
        <time>2019-07-16T13:31:15Z</time>
      </trkpt>
      <trkpt lat="48.43656" lon="-1.50541">
        <ele>17</ele>
        <time>2019-07-16T13:31:16Z</time>
      </trkpt>
      <trkpt lat="48.43659" lon="-1.50536">
        <ele>17</ele>
        <time>2019-07-16T13:31:17Z</time>
      </trkpt>
      <trkpt lat="48.43661" lon="-1.50532">
        <ele>17.3</ele>
        <time>2019-07-16T13:31:18Z</time>
      </trkpt>
      <trkpt lat="48.43663" lon="-1.50527">
        <ele>17.6</ele>
        <time>2019-07-16T13:31:19Z</time>
      </trkpt>
      <trkpt lat="48.43666" lon="-1.50522">
        <ele>17.4</ele>
        <time>2019-07-16T13:31:20Z</time>
      </trkpt>
      <trkpt lat="48.43668" lon="-1.50518">
        <ele>17.3</ele>
        <time>2019-07-16T13:31:21Z</time>
      </trkpt>
      <trkpt lat="48.43671" lon="-1.50513">
        <ele>17.2</ele>
        <time>2019-07-16T13:31:22Z</time>
      </trkpt>
      <trkpt lat="48.43673" lon="-1.50509">
        <ele>17.6</ele>
        <time>2019-07-16T13:31:23Z</time>
      </trkpt>
      <trkpt lat="48.43675" lon="-1.50504">
        <ele>18.2</ele>
        <time>2019-07-16T13:31:24Z</time>
      </trkpt>
      <trkpt lat="48.43678" lon="-1.50499">
        <ele>18.6</ele>
        <time>2019-07-16T13:31:25Z</time>
      </trkpt>
      <trkpt lat="48.43679" lon="-1.50494">
        <ele>18.8</ele>
        <time>2019-07-16T13:31:26Z</time>
      </trkpt>
      <trkpt lat="48.43681" lon="-1.50489">
        <ele>19.3</ele>
        <time>2019-07-16T13:31:27Z</time>
      </trkpt>
      <trkpt lat="48.43684" lon="-1.50485">
        <ele>19.4</ele>
        <time>2019-07-16T13:31:28Z</time>
      </trkpt>
      <trkpt lat="48.43686" lon="-1.5048">
        <ele>19.5</ele>
        <time>2019-07-16T13:31:29Z</time>
      </trkpt>
      <trkpt lat="48.43688" lon="-1.50475">
        <ele>19.5</ele>
        <time>2019-07-16T13:31:30Z</time>
      </trkpt>
      <trkpt lat="48.43689" lon="-1.5047">
        <ele>19.6</ele>
        <time>2019-07-16T13:31:31Z</time>
      </trkpt>
      <trkpt lat="48.43691" lon="-1.50465">
        <ele>19.5</ele>
        <time>2019-07-16T13:31:32Z</time>
      </trkpt>
      <trkpt lat="48.43693" lon="-1.5046">
        <ele>19.6</ele>
        <time>2019-07-16T13:31:33Z</time>
      </trkpt>
      <trkpt lat="48.43695" lon="-1.50454">
        <ele>19.4</ele>
        <time>2019-07-16T13:31:34Z</time>
      </trkpt>
      <trkpt lat="48.43697" lon="-1.50449">
        <ele>19.5</ele>
        <time>2019-07-16T13:31:35Z</time>
      </trkpt>
      <trkpt lat="48.43699" lon="-1.50444">
        <ele>19.1</ele>
        <time>2019-07-16T13:31:36Z</time>
      </trkpt>
      <trkpt lat="48.437" lon="-1.50439">
        <ele>18.9</ele>
        <time>2019-07-16T13:31:37Z</time>
      </trkpt>
      <trkpt lat="48.43702" lon="-1.50433">
        <ele>18.6</ele>
        <time>2019-07-16T13:31:38Z</time>
      </trkpt>
      <trkpt lat="48.43704" lon="-1.50428">
        <ele>18.2</ele>
        <time>2019-07-16T13:31:39Z</time>
      </trkpt>
      <trkpt lat="48.43706" lon="-1.50423">
        <ele>17.6</ele>
        <time>2019-07-16T13:31:40Z</time>
      </trkpt>
      <trkpt lat="48.43707" lon="-1.50418">
        <ele>17.2</ele>
        <time>2019-07-16T13:31:41Z</time>
      </trkpt>
      <trkpt lat="48.43709" lon="-1.50413">
        <ele>16.8</ele>
        <time>2019-07-16T13:31:42Z</time>
      </trkpt>
      <trkpt lat="48.43711" lon="-1.50408">
        <ele>16.5</ele>
        <time>2019-07-16T13:31:43Z</time>
      </trkpt>
      <trkpt lat="48.43713" lon="-1.50403">
        <ele>16.4</ele>
        <time>2019-07-16T13:31:44Z</time>
      </trkpt>
      <trkpt lat="48.43715" lon="-1.50398">
        <ele>16.4</ele>
        <time>2019-07-16T13:31:45Z</time>
      </trkpt>
      <trkpt lat="48.43716" lon="-1.50393">
        <ele>16.5</ele>
        <time>2019-07-16T13:31:46Z</time>
      </trkpt>
      <trkpt lat="48.43718" lon="-1.50388">
        <ele>16.5</ele>
        <time>2019-07-16T13:31:47Z</time>
      </trkpt>
      <trkpt lat="48.43719" lon="-1.50383">
        <ele>16.6</ele>
        <time>2019-07-16T13:31:48Z</time>
      </trkpt>
      <trkpt lat="48.43721" lon="-1.50378">
        <ele>16.8</ele>
        <time>2019-07-16T13:31:49Z</time>
      </trkpt>
      <trkpt lat="48.43723" lon="-1.50373">
        <ele>16.8</ele>
        <time>2019-07-16T13:31:50Z</time>
      </trkpt>
      <trkpt lat="48.43725" lon="-1.50369">
        <ele>16.6</ele>
        <time>2019-07-16T13:31:51Z</time>
      </trkpt>
      <trkpt lat="48.43726" lon="-1.50364">
        <ele>16.5</ele>
        <time>2019-07-16T13:31:52Z</time>
      </trkpt>
      <trkpt lat="48.43728" lon="-1.5036">
        <ele>16.5</ele>
        <time>2019-07-16T13:31:53Z</time>
      </trkpt>
      <trkpt lat="48.4373" lon="-1.50355">
        <ele>16.6</ele>
        <time>2019-07-16T13:31:54Z</time>
      </trkpt>
      <trkpt lat="48.43732" lon="-1.5035">
        <ele>17.2</ele>
        <time>2019-07-16T13:31:55Z</time>
      </trkpt>
      <trkpt lat="48.43734" lon="-1.50346">
        <ele>17.4</ele>
        <time>2019-07-16T13:31:56Z</time>
      </trkpt>
      <trkpt lat="48.43737" lon="-1.50341">
        <ele>17.7</ele>
        <time>2019-07-16T13:31:57Z</time>
      </trkpt>
      <trkpt lat="48.43739" lon="-1.50336">
        <ele>17.5</ele>
        <time>2019-07-16T13:31:58Z</time>
      </trkpt>
      <trkpt lat="48.43741" lon="-1.5033">
        <ele>17.3</ele>
        <time>2019-07-16T13:31:59Z</time>
      </trkpt>
      <trkpt lat="48.43742" lon="-1.50325">
        <ele>17.2</ele>
        <time>2019-07-16T13:32:00Z</time>
      </trkpt>
      <trkpt lat="48.43744" lon="-1.50319">
        <ele>16.8</ele>
        <time>2019-07-16T13:32:01Z</time>
      </trkpt>
      <trkpt lat="48.43745" lon="-1.50314">
        <ele>16.5</ele>
        <time>2019-07-16T13:32:02Z</time>
      </trkpt>
      <trkpt lat="48.43746" lon="-1.50308">
        <ele>16.3</ele>
        <time>2019-07-16T13:32:03Z</time>
      </trkpt>
      <trkpt lat="48.43747" lon="-1.50302">
        <ele>16.3</ele>
        <time>2019-07-16T13:32:04Z</time>
      </trkpt>
      <trkpt lat="48.43748" lon="-1.50296">
        <ele>16.4</ele>
        <time>2019-07-16T13:32:05Z</time>
      </trkpt>
      <trkpt lat="48.43749" lon="-1.50289">
        <ele>16.4</ele>
        <time>2019-07-16T13:32:06Z</time>
      </trkpt>
      <trkpt lat="48.4375" lon="-1.50283">
        <ele>16.4</ele>
        <time>2019-07-16T13:32:07Z</time>
      </trkpt>
      <trkpt lat="48.43751" lon="-1.50276">
        <ele>16.4</ele>
        <time>2019-07-16T13:32:08Z</time>
      </trkpt>
      <trkpt lat="48.43752" lon="-1.50269">
        <ele>16</ele>
        <time>2019-07-16T13:32:09Z</time>
      </trkpt>
      <trkpt lat="48.43753" lon="-1.50262">
        <ele>15.8</ele>
        <time>2019-07-16T13:32:10Z</time>
      </trkpt>
      <trkpt lat="48.43753" lon="-1.50256">
        <ele>15.4</ele>
        <time>2019-07-16T13:32:11Z</time>
      </trkpt>
      <trkpt lat="48.43754" lon="-1.50249">
        <ele>14.9</ele>
        <time>2019-07-16T13:32:12Z</time>
      </trkpt>
      <trkpt lat="48.43755" lon="-1.50243">
        <ele>14.9</ele>
        <time>2019-07-16T13:32:13Z</time>
      </trkpt>
      <trkpt lat="48.43755" lon="-1.50237">
        <ele>15.3</ele>
        <time>2019-07-16T13:32:14Z</time>
      </trkpt>
      <trkpt lat="48.43755" lon="-1.5023">
        <ele>15.4</ele>
        <time>2019-07-16T13:32:15Z</time>
      </trkpt>
      <trkpt lat="48.43756" lon="-1.50224">
        <ele>15.6</ele>
        <time>2019-07-16T13:32:16Z</time>
      </trkpt>
      <trkpt lat="48.43756" lon="-1.50218">
        <ele>15.5</ele>
        <time>2019-07-16T13:32:17Z</time>
      </trkpt>
      <trkpt lat="48.43757" lon="-1.50212">
        <ele>16.2</ele>
        <time>2019-07-16T13:32:18Z</time>
      </trkpt>
      <trkpt lat="48.43757" lon="-1.50206">
        <ele>16.1</ele>
        <time>2019-07-16T13:32:19Z</time>
      </trkpt>
      <trkpt lat="48.43758" lon="-1.502">
        <ele>16.2</ele>
        <time>2019-07-16T13:32:20Z</time>
      </trkpt>
      <trkpt lat="48.43759" lon="-1.50195">
        <ele>16.1</ele>
        <time>2019-07-16T13:32:21Z</time>
      </trkpt>
      <trkpt lat="48.43759" lon="-1.50189">
        <ele>16.1</ele>
        <time>2019-07-16T13:32:22Z</time>
      </trkpt>
      <trkpt lat="48.4376" lon="-1.50184">
        <ele>16.6</ele>
        <time>2019-07-16T13:32:23Z</time>
      </trkpt>
      <trkpt lat="48.4376" lon="-1.50179">
        <ele>16.4</ele>
        <time>2019-07-16T13:32:24Z</time>
      </trkpt>
      <trkpt lat="48.4376" lon="-1.50175">
        <ele>15.9</ele>
        <time>2019-07-16T13:32:25Z</time>
      </trkpt>
      <trkpt lat="48.4376" lon="-1.5017">
        <ele>15.5</ele>
        <time>2019-07-16T13:32:26Z</time>
      </trkpt>
      <trkpt lat="48.4376" lon="-1.50166">
        <ele>15.9</ele>
        <time>2019-07-16T13:32:27Z</time>
      </trkpt>
      <trkpt lat="48.4376" lon="-1.50162">
        <ele>16.6</ele>
        <time>2019-07-16T13:32:28Z</time>
      </trkpt>
      <trkpt lat="48.43759" lon="-1.50158">
        <ele>17.1</ele>
        <time>2019-07-16T13:32:29Z</time>
      </trkpt>
      <trkpt lat="48.43759" lon="-1.50154">
        <ele>16.9</ele>
        <time>2019-07-16T13:32:30Z</time>
      </trkpt>
      <trkpt lat="48.43759" lon="-1.5015">
        <ele>16.5</ele>
        <time>2019-07-16T13:32:31Z</time>
      </trkpt>
      <trkpt lat="48.43759" lon="-1.50146">
        <ele>16.4</ele>
        <time>2019-07-16T13:32:32Z</time>
      </trkpt>
      <trkpt lat="48.43759" lon="-1.50142">
        <ele>15.8</ele>
        <time>2019-07-16T13:32:33Z</time>
      </trkpt>
      <trkpt lat="48.4376" lon="-1.50139">
        <ele>16.1</ele>
        <time>2019-07-16T13:32:34Z</time>
      </trkpt>
      <trkpt lat="48.4376" lon="-1.50135">
        <ele>16.6</ele>
        <time>2019-07-16T13:32:35Z</time>
      </trkpt>
      <trkpt lat="48.4376" lon="-1.50132">
        <ele>16.7</ele>
        <time>2019-07-16T13:32:36Z</time>
      </trkpt>
      <trkpt lat="48.4376" lon="-1.50128">
        <ele>16.9</ele>
        <time>2019-07-16T13:32:37Z</time>
      </trkpt>
      <trkpt lat="48.4376" lon="-1.50125">
        <ele>16.9</ele>
        <time>2019-07-16T13:32:38Z</time>
      </trkpt>
      <trkpt lat="48.4376" lon="-1.50121">
        <ele>17.2</ele>
        <time>2019-07-16T13:32:39Z</time>
      </trkpt>
      <trkpt lat="48.4376" lon="-1.50118">
        <ele>17.7</ele>
        <time>2019-07-16T13:32:40Z</time>
      </trkpt>
      <trkpt lat="48.4376" lon="-1.50114">
        <ele>18.4</ele>
        <time>2019-07-16T13:32:41Z</time>
      </trkpt>
      <trkpt lat="48.4376" lon="-1.50111">
        <ele>19</ele>
        <time>2019-07-16T13:32:42Z</time>
      </trkpt>
      <trkpt lat="48.4376" lon="-1.50108">
        <ele>19.7</ele>
        <time>2019-07-16T13:32:43Z</time>
      </trkpt>
      <trkpt lat="48.43761" lon="-1.50105">
        <ele>20.6</ele>
        <time>2019-07-16T13:32:44Z</time>
      </trkpt>
      <trkpt lat="48.43761" lon="-1.50103">
        <ele>21.5</ele>
        <time>2019-07-16T13:32:45Z</time>
      </trkpt>
      <trkpt lat="48.4376" lon="-1.501">
        <ele>22.6</ele>
        <time>2019-07-16T13:32:46Z</time>
      </trkpt>
      <trkpt lat="48.4376" lon="-1.50098">
        <ele>23.1</ele>
        <time>2019-07-16T13:32:47Z</time>
      </trkpt>
      <trkpt lat="48.43759" lon="-1.50095">
        <ele>23.6</ele>
        <time>2019-07-16T13:32:48Z</time>
      </trkpt>
      <trkpt lat="48.43759" lon="-1.50092">
        <ele>23.9</ele>
        <time>2019-07-16T13:32:49Z</time>
      </trkpt>
      <trkpt lat="48.43758" lon="-1.50089">
        <ele>24</ele>
        <time>2019-07-16T13:32:50Z</time>
      </trkpt>
      <trkpt lat="48.43757" lon="-1.50086">
        <ele>24.1</ele>
        <time>2019-07-16T13:32:51Z</time>
      </trkpt>
      <trkpt lat="48.43757" lon="-1.50083">
        <ele>24.4</ele>
        <time>2019-07-16T13:32:52Z</time>
      </trkpt>
      <trkpt lat="48.43757" lon="-1.50081">
        <ele>24.6</ele>
        <time>2019-07-16T13:32:53Z</time>
      </trkpt>
      <trkpt lat="48.43757" lon="-1.50078">
        <ele>24.6</ele>
        <time>2019-07-16T13:32:54Z</time>
      </trkpt>
      <trkpt lat="48.43757" lon="-1.50075">
        <ele>24.5</ele>
        <time>2019-07-16T13:32:55Z</time>
      </trkpt>
      <trkpt lat="48.43757" lon="-1.50073">
        <ele>24.3</ele>
        <time>2019-07-16T13:32:56Z</time>
      </trkpt>
      <trkpt lat="48.43756" lon="-1.5007">
        <ele>24.1</ele>
        <time>2019-07-16T13:32:57Z</time>
      </trkpt>
      <trkpt lat="48.43755" lon="-1.50067">
        <ele>24.1</ele>
        <time>2019-07-16T13:32:58Z</time>
      </trkpt>
      <trkpt lat="48.43754" lon="-1.50064">
        <ele>23.9</ele>
        <time>2019-07-16T13:32:59Z</time>
      </trkpt>
      <trkpt lat="48.43754" lon="-1.50061">
        <ele>23.7</ele>
        <time>2019-07-16T13:33:00Z</time>
      </trkpt>
      <trkpt lat="48.43753" lon="-1.50058">
        <ele>23.5</ele>
        <time>2019-07-16T13:33:01Z</time>
      </trkpt>
      <trkpt lat="48.43752" lon="-1.50056">
        <ele>23.2</ele>
        <time>2019-07-16T13:33:02Z</time>
      </trkpt>
      <trkpt lat="48.43751" lon="-1.50053">
        <ele>23.2</ele>
        <time>2019-07-16T13:33:03Z</time>
      </trkpt>
      <trkpt lat="48.4375" lon="-1.50051">
        <ele>23.2</ele>
        <time>2019-07-16T13:33:04Z</time>
      </trkpt>
      <trkpt lat="48.43749" lon="-1.50048">
        <ele>23.4</ele>
        <time>2019-07-16T13:33:05Z</time>
      </trkpt>
      <trkpt lat="48.43748" lon="-1.50045">
        <ele>23.4</ele>
        <time>2019-07-16T13:33:06Z</time>
      </trkpt>
      <trkpt lat="48.43747" lon="-1.50043">
        <ele>23.5</ele>
        <time>2019-07-16T13:33:07Z</time>
      </trkpt>
      <trkpt lat="48.43746" lon="-1.5004">
        <ele>23.7</ele>
        <time>2019-07-16T13:33:08Z</time>
      </trkpt>
      <trkpt lat="48.43745" lon="-1.50038">
        <ele>24</ele>
        <time>2019-07-16T13:33:09Z</time>
      </trkpt>
      <trkpt lat="48.43744" lon="-1.50036">
        <ele>24.2</ele>
        <time>2019-07-16T13:33:10Z</time>
      </trkpt>
      <trkpt lat="48.43743" lon="-1.50033">
        <ele>24.8</ele>
        <time>2019-07-16T13:33:11Z</time>
      </trkpt>
      <trkpt lat="48.43742" lon="-1.50031">
        <ele>24.7</ele>
        <time>2019-07-16T13:33:12Z</time>
      </trkpt>
      <trkpt lat="48.43741" lon="-1.50029">
        <ele>24.6</ele>
        <time>2019-07-16T13:33:13Z</time>
      </trkpt>
      <trkpt lat="48.43739" lon="-1.50027">
        <ele>24.8</ele>
        <time>2019-07-16T13:33:14Z</time>
      </trkpt>
      <trkpt lat="48.43738" lon="-1.50024">
        <ele>25.1</ele>
        <time>2019-07-16T13:33:15Z</time>
      </trkpt>
      <trkpt lat="48.43737" lon="-1.50022">
        <ele>25.5</ele>
        <time>2019-07-16T13:33:16Z</time>
      </trkpt>
      <trkpt lat="48.43736" lon="-1.50019">
        <ele>26</ele>
        <time>2019-07-16T13:33:17Z</time>
      </trkpt>
      <trkpt lat="48.43734" lon="-1.50016">
        <ele>26.7</ele>
        <time>2019-07-16T13:33:18Z</time>
      </trkpt>
      <trkpt lat="48.43733" lon="-1.50014">
        <ele>27.3</ele>
        <time>2019-07-16T13:33:19Z</time>
      </trkpt>
      <trkpt lat="48.43732" lon="-1.50011">
        <ele>28</ele>
        <time>2019-07-16T13:33:20Z</time>
      </trkpt>
      <trkpt lat="48.4373" lon="-1.50009">
        <ele>28.4</ele>
        <time>2019-07-16T13:33:21Z</time>
      </trkpt>
      <trkpt lat="48.43729" lon="-1.50007">
        <ele>28.6</ele>
        <time>2019-07-16T13:33:22Z</time>
      </trkpt>
      <trkpt lat="48.43728" lon="-1.50004">
        <ele>28.9</ele>
        <time>2019-07-16T13:33:23Z</time>
      </trkpt>
      <trkpt lat="48.43726" lon="-1.50002">
        <ele>29.2</ele>
        <time>2019-07-16T13:33:24Z</time>
      </trkpt>
      <trkpt lat="48.43725" lon="-1.5">
        <ele>29.8</ele>
        <time>2019-07-16T13:33:25Z</time>
      </trkpt>
      <trkpt lat="48.43723" lon="-1.49998">
        <ele>30.1</ele>
        <time>2019-07-16T13:33:26Z</time>
      </trkpt>
      <trkpt lat="48.43722" lon="-1.49996">
        <ele>30.4</ele>
        <time>2019-07-16T13:33:27Z</time>
      </trkpt>
      <trkpt lat="48.4372" lon="-1.49994">
        <ele>30.7</ele>
        <time>2019-07-16T13:33:28Z</time>
      </trkpt>
      <trkpt lat="48.43719" lon="-1.49992">
        <ele>31.3</ele>
        <time>2019-07-16T13:33:29Z</time>
      </trkpt>
      <trkpt lat="48.43718" lon="-1.4999">
        <ele>32</ele>
        <time>2019-07-16T13:33:30Z</time>
      </trkpt>
      <trkpt lat="48.43716" lon="-1.49988">
        <ele>32.5</ele>
        <time>2019-07-16T13:33:31Z</time>
      </trkpt>
      <trkpt lat="48.43715" lon="-1.49986">
        <ele>33</ele>
        <time>2019-07-16T13:33:32Z</time>
      </trkpt>
      <trkpt lat="48.43714" lon="-1.49984">
        <ele>33.3</ele>
        <time>2019-07-16T13:33:33Z</time>
      </trkpt>
      <trkpt lat="48.43712" lon="-1.49982">
        <ele>33.4</ele>
        <time>2019-07-16T13:33:34Z</time>
      </trkpt>
      <trkpt lat="48.4371" lon="-1.4998">
        <ele>33.5</ele>
        <time>2019-07-16T13:33:35Z</time>
      </trkpt>
      <trkpt lat="48.43709" lon="-1.49978">
        <ele>33.7</ele>
        <time>2019-07-16T13:33:36Z</time>
      </trkpt>
      <trkpt lat="48.43708" lon="-1.49976">
        <ele>34.1</ele>
        <time>2019-07-16T13:33:37Z</time>
      </trkpt>
      <trkpt lat="48.43706" lon="-1.49973">
        <ele>34</ele>
        <time>2019-07-16T13:33:38Z</time>
      </trkpt>
      <trkpt lat="48.43705" lon="-1.49971">
        <ele>33.8</ele>
        <time>2019-07-16T13:33:39Z</time>
      </trkpt>
      <trkpt lat="48.43703" lon="-1.4997">
        <ele>33.9</ele>
        <time>2019-07-16T13:33:40Z</time>
      </trkpt>
      <trkpt lat="48.43702" lon="-1.49968">
        <ele>33.9</ele>
        <time>2019-07-16T13:33:41Z</time>
      </trkpt>
      <trkpt lat="48.437" lon="-1.49966">
        <ele>33.8</ele>
        <time>2019-07-16T13:33:42Z</time>
      </trkpt>
      <trkpt lat="48.43699" lon="-1.49963">
        <ele>33.4</ele>
        <time>2019-07-16T13:33:43Z</time>
      </trkpt>
      <trkpt lat="48.43697" lon="-1.49961">
        <ele>33.4</ele>
        <time>2019-07-16T13:33:44Z</time>
      </trkpt>
      <trkpt lat="48.43695" lon="-1.49959">
        <ele>33.4</ele>
        <time>2019-07-16T13:33:45Z</time>
      </trkpt>
      <trkpt lat="48.43694" lon="-1.49957">
        <ele>33</ele>
        <time>2019-07-16T13:33:46Z</time>
      </trkpt>
      <trkpt lat="48.43692" lon="-1.49955">
        <ele>32.7</ele>
        <time>2019-07-16T13:33:47Z</time>
      </trkpt>
      <trkpt lat="48.43691" lon="-1.49953">
        <ele>32.6</ele>
        <time>2019-07-16T13:33:48Z</time>
      </trkpt>
      <trkpt lat="48.4369" lon="-1.49951">
        <ele>32.5</ele>
        <time>2019-07-16T13:33:49Z</time>
      </trkpt>
      <trkpt lat="48.43688" lon="-1.49949">
        <ele>32.4</ele>
        <time>2019-07-16T13:33:50Z</time>
      </trkpt>
      <trkpt lat="48.43686" lon="-1.49947">
        <ele>32.4</ele>
        <time>2019-07-16T13:33:51Z</time>
      </trkpt>
      <trkpt lat="48.43684" lon="-1.49945">
        <ele>32.5</ele>
        <time>2019-07-16T13:33:52Z</time>
      </trkpt>
      <trkpt lat="48.43683" lon="-1.49943">
        <ele>32.8</ele>
        <time>2019-07-16T13:33:53Z</time>
      </trkpt>
      <trkpt lat="48.43681" lon="-1.49941">
        <ele>32.8</ele>
        <time>2019-07-16T13:33:54Z</time>
      </trkpt>
      <trkpt lat="48.4368" lon="-1.49939">
        <ele>33.3</ele>
        <time>2019-07-16T13:33:55Z</time>
      </trkpt>
      <trkpt lat="48.43678" lon="-1.49937">
        <ele>33.6</ele>
        <time>2019-07-16T13:33:56Z</time>
      </trkpt>
      <trkpt lat="48.43676" lon="-1.49935">
        <ele>33.8</ele>
        <time>2019-07-16T13:33:57Z</time>
      </trkpt>
      <trkpt lat="48.43675" lon="-1.49932">
        <ele>34</ele>
        <time>2019-07-16T13:33:58Z</time>
      </trkpt>
      <trkpt lat="48.43673" lon="-1.4993">
        <ele>34.1</ele>
        <time>2019-07-16T13:33:59Z</time>
      </trkpt>
      <trkpt lat="48.43672" lon="-1.49928">
        <ele>34.2</ele>
        <time>2019-07-16T13:34:00Z</time>
      </trkpt>
      <trkpt lat="48.4367" lon="-1.49926">
        <ele>34.5</ele>
        <time>2019-07-16T13:34:01Z</time>
      </trkpt>
      <trkpt lat="48.43669" lon="-1.49924">
        <ele>34.8</ele>
        <time>2019-07-16T13:34:02Z</time>
      </trkpt>
      <trkpt lat="48.43667" lon="-1.49922">
        <ele>35</ele>
        <time>2019-07-16T13:34:03Z</time>
      </trkpt>
      <trkpt lat="48.43666" lon="-1.49921">
        <ele>35.4</ele>
        <time>2019-07-16T13:34:04Z</time>
      </trkpt>
      <trkpt lat="48.43664" lon="-1.49919">
        <ele>35.4</ele>
        <time>2019-07-16T13:34:05Z</time>
      </trkpt>
      <trkpt lat="48.43662" lon="-1.49917">
        <ele>35.4</ele>
        <time>2019-07-16T13:34:06Z</time>
      </trkpt>
      <trkpt lat="48.43661" lon="-1.49915">
        <ele>35.4</ele>
        <time>2019-07-16T13:34:07Z</time>
      </trkpt>
      <trkpt lat="48.43659" lon="-1.49913">
        <ele>35</ele>
        <time>2019-07-16T13:34:08Z</time>
      </trkpt>
      <trkpt lat="48.43657" lon="-1.4991">
        <ele>34.9</ele>
        <time>2019-07-16T13:34:09Z</time>
      </trkpt>
      <trkpt lat="48.43655" lon="-1.49909">
        <ele>34.6</ele>
        <time>2019-07-16T13:34:10Z</time>
      </trkpt>
      <trkpt lat="48.43653" lon="-1.49907">
        <ele>34.7</ele>
        <time>2019-07-16T13:34:11Z</time>
      </trkpt>
      <trkpt lat="48.43651" lon="-1.49905">
        <ele>34.7</ele>
        <time>2019-07-16T13:34:12Z</time>
      </trkpt>
      <trkpt lat="48.4365" lon="-1.49903">
        <ele>34.8</ele>
        <time>2019-07-16T13:34:13Z</time>
      </trkpt>
      <trkpt lat="48.43648" lon="-1.49901">
        <ele>34.9</ele>
        <time>2019-07-16T13:34:14Z</time>
      </trkpt>
      <trkpt lat="48.43646" lon="-1.49899">
        <ele>34.7</ele>
        <time>2019-07-16T13:34:15Z</time>
      </trkpt>
      <trkpt lat="48.43644" lon="-1.49898">
        <ele>35.1</ele>
        <time>2019-07-16T13:34:16Z</time>
      </trkpt>
      <trkpt lat="48.43643" lon="-1.49896">
        <ele>35.3</ele>
        <time>2019-07-16T13:34:17Z</time>
      </trkpt>
      <trkpt lat="48.43641" lon="-1.49894">
        <ele>35.3</ele>
        <time>2019-07-16T13:34:18Z</time>
      </trkpt>
      <trkpt lat="48.43639" lon="-1.49893">
        <ele>35.5</ele>
        <time>2019-07-16T13:34:19Z</time>
      </trkpt>
      <trkpt lat="48.43638" lon="-1.4989">
        <ele>35.6</ele>
        <time>2019-07-16T13:34:20Z</time>
      </trkpt>
      <trkpt lat="48.43636" lon="-1.49888">
        <ele>35.7</ele>
        <time>2019-07-16T13:34:21Z</time>
      </trkpt>
      <trkpt lat="48.43635" lon="-1.49886">
        <ele>35.7</ele>
        <time>2019-07-16T13:34:22Z</time>
      </trkpt>
      <trkpt lat="48.43633" lon="-1.49885">
        <ele>36</ele>
        <time>2019-07-16T13:34:23Z</time>
      </trkpt>
      <trkpt lat="48.43631" lon="-1.49883">
        <ele>36.2</ele>
        <time>2019-07-16T13:34:24Z</time>
      </trkpt>
      <trkpt lat="48.4363" lon="-1.4988">
        <ele>36.5</ele>
        <time>2019-07-16T13:34:25Z</time>
      </trkpt>
      <trkpt lat="48.43628" lon="-1.49878">
        <ele>36.5</ele>
        <time>2019-07-16T13:34:26Z</time>
      </trkpt>
      <trkpt lat="48.43626" lon="-1.49876">
        <ele>36.5</ele>
        <time>2019-07-16T13:34:27Z</time>
      </trkpt>
      <trkpt lat="48.43624" lon="-1.49874">
        <ele>36.4</ele>
        <time>2019-07-16T13:34:28Z</time>
      </trkpt>
      <trkpt lat="48.43622" lon="-1.49872">
        <ele>36.4</ele>
        <time>2019-07-16T13:34:29Z</time>
      </trkpt>
      <trkpt lat="48.43621" lon="-1.4987">
        <ele>36.6</ele>
        <time>2019-07-16T13:34:30Z</time>
      </trkpt>
      <trkpt lat="48.43619" lon="-1.49868">
        <ele>37</ele>
        <time>2019-07-16T13:34:31Z</time>
      </trkpt>
      <trkpt lat="48.43618" lon="-1.49866">
        <ele>37</ele>
        <time>2019-07-16T13:34:32Z</time>
      </trkpt>
      <trkpt lat="48.43616" lon="-1.49864">
        <ele>36.9</ele>
        <time>2019-07-16T13:34:33Z</time>
      </trkpt>
      <trkpt lat="48.43614" lon="-1.49862">
        <ele>36.8</ele>
        <time>2019-07-16T13:34:34Z</time>
      </trkpt>
      <trkpt lat="48.43613" lon="-1.4986">
        <ele>36.8</ele>
        <time>2019-07-16T13:34:35Z</time>
      </trkpt>
      <trkpt lat="48.43611" lon="-1.49858">
        <ele>37</ele>
        <time>2019-07-16T13:34:36Z</time>
      </trkpt>
      <trkpt lat="48.43609" lon="-1.49856">
        <ele>37.4</ele>
        <time>2019-07-16T13:34:37Z</time>
      </trkpt>
      <trkpt lat="48.43607" lon="-1.49854">
        <ele>37.7</ele>
        <time>2019-07-16T13:34:38Z</time>
      </trkpt>
      <trkpt lat="48.43606" lon="-1.49852">
        <ele>37.9</ele>
        <time>2019-07-16T13:34:39Z</time>
      </trkpt>
      <trkpt lat="48.43604" lon="-1.4985">
        <ele>38</ele>
        <time>2019-07-16T13:34:40Z</time>
      </trkpt>
      <trkpt lat="48.43602" lon="-1.49848">
        <ele>38.2</ele>
        <time>2019-07-16T13:34:41Z</time>
      </trkpt>
      <trkpt lat="48.43601" lon="-1.49846">
        <ele>38.1</ele>
        <time>2019-07-16T13:34:42Z</time>
      </trkpt>
      <trkpt lat="48.43599" lon="-1.49844">
        <ele>37.9</ele>
        <time>2019-07-16T13:34:43Z</time>
      </trkpt>
      <trkpt lat="48.43597" lon="-1.49843">
        <ele>37.5</ele>
        <time>2019-07-16T13:34:44Z</time>
      </trkpt>
      <trkpt lat="48.43596" lon="-1.4984">
        <ele>37.6</ele>
        <time>2019-07-16T13:34:45Z</time>
      </trkpt>
      <trkpt lat="48.43594" lon="-1.49838">
        <ele>37.5</ele>
        <time>2019-07-16T13:34:46Z</time>
      </trkpt>
      <trkpt lat="48.43593" lon="-1.49837">
        <ele>37.4</ele>
        <time>2019-07-16T13:34:47Z</time>
      </trkpt>
      <trkpt lat="48.43591" lon="-1.49834">
        <ele>37.4</ele>
        <time>2019-07-16T13:34:48Z</time>
      </trkpt>
      <trkpt lat="48.43589" lon="-1.49832">
        <ele>37.2</ele>
        <time>2019-07-16T13:34:49Z</time>
      </trkpt>
      <trkpt lat="48.43588" lon="-1.4983">
        <ele>37.2</ele>
        <time>2019-07-16T13:34:50Z</time>
      </trkpt>
      <trkpt lat="48.43586" lon="-1.49828">
        <ele>37.2</ele>
        <time>2019-07-16T13:34:51Z</time>
      </trkpt>
      <trkpt lat="48.43584" lon="-1.49826">
        <ele>37.4</ele>
        <time>2019-07-16T13:34:52Z</time>
      </trkpt>
      <trkpt lat="48.43583" lon="-1.49824">
        <ele>37.4</ele>
        <time>2019-07-16T13:34:53Z</time>
      </trkpt>
      <trkpt lat="48.43581" lon="-1.49822">
        <ele>37.3</ele>
        <time>2019-07-16T13:34:54Z</time>
      </trkpt>
      <trkpt lat="48.43579" lon="-1.49819">
        <ele>37.2</ele>
        <time>2019-07-16T13:34:55Z</time>
      </trkpt>
      <trkpt lat="48.43578" lon="-1.49816">
        <ele>37.3</ele>
        <time>2019-07-16T13:34:56Z</time>
      </trkpt>
      <trkpt lat="48.43576" lon="-1.49814">
        <ele>37.1</ele>
        <time>2019-07-16T13:34:57Z</time>
      </trkpt>
      <trkpt lat="48.43574" lon="-1.49811">
        <ele>37</ele>
        <time>2019-07-16T13:34:58Z</time>
      </trkpt>
      <trkpt lat="48.43573" lon="-1.49808">
        <ele>37</ele>
        <time>2019-07-16T13:34:59Z</time>
      </trkpt>
      <trkpt lat="48.43572" lon="-1.49805">
        <ele>36.9</ele>
        <time>2019-07-16T13:35:00Z</time>
      </trkpt>
      <trkpt lat="48.4357" lon="-1.49802">
        <ele>36.8</ele>
        <time>2019-07-16T13:35:01Z</time>
      </trkpt>
      <trkpt lat="48.43569" lon="-1.49799">
        <ele>37</ele>
        <time>2019-07-16T13:35:02Z</time>
      </trkpt>
      <trkpt lat="48.43568" lon="-1.49796">
        <ele>37.2</ele>
        <time>2019-07-16T13:35:03Z</time>
      </trkpt>
      <trkpt lat="48.43567" lon="-1.49793">
        <ele>37.4</ele>
        <time>2019-07-16T13:35:04Z</time>
      </trkpt>
      <trkpt lat="48.43566" lon="-1.4979">
        <ele>37.6</ele>
        <time>2019-07-16T13:35:05Z</time>
      </trkpt>
      <trkpt lat="48.43565" lon="-1.49787">
        <ele>37.7</ele>
        <time>2019-07-16T13:35:06Z</time>
      </trkpt>
      <trkpt lat="48.43565" lon="-1.49784">
        <ele>37.9</ele>
        <time>2019-07-16T13:35:07Z</time>
      </trkpt>
      <trkpt lat="48.43564" lon="-1.49781">
        <ele>37.9</ele>
        <time>2019-07-16T13:35:08Z</time>
      </trkpt>
      <trkpt lat="48.43563" lon="-1.49778">
        <ele>38</ele>
        <time>2019-07-16T13:35:09Z</time>
      </trkpt>
      <trkpt lat="48.43562" lon="-1.49774">
        <ele>38.3</ele>
        <time>2019-07-16T13:35:10Z</time>
      </trkpt>
      <trkpt lat="48.43561" lon="-1.49771">
        <ele>38.5</ele>
        <time>2019-07-16T13:35:11Z</time>
      </trkpt>
      <trkpt lat="48.4356" lon="-1.49767">
        <ele>38.9</ele>
        <time>2019-07-16T13:35:12Z</time>
      </trkpt>
      <trkpt lat="48.4356" lon="-1.49764">
        <ele>39.1</ele>
        <time>2019-07-16T13:35:13Z</time>
      </trkpt>
      <trkpt lat="48.43559" lon="-1.4976">
        <ele>39</ele>
        <time>2019-07-16T13:35:14Z</time>
      </trkpt>
      <trkpt lat="48.43559" lon="-1.49757">
        <ele>38.8</ele>
        <time>2019-07-16T13:35:15Z</time>
      </trkpt>
      <trkpt lat="48.43558" lon="-1.49753">
        <ele>39</ele>
        <time>2019-07-16T13:35:16Z</time>
      </trkpt>
      <trkpt lat="48.43557" lon="-1.4975">
        <ele>38.8</ele>
        <time>2019-07-16T13:35:17Z</time>
      </trkpt>
      <trkpt lat="48.43557" lon="-1.49746">
        <ele>38.7</ele>
        <time>2019-07-16T13:35:18Z</time>
      </trkpt>
      <trkpt lat="48.43556" lon="-1.49743">
        <ele>38.9</ele>
        <time>2019-07-16T13:35:19Z</time>
      </trkpt>
      <trkpt lat="48.43556" lon="-1.49739">
        <ele>39.3</ele>
        <time>2019-07-16T13:35:20Z</time>
      </trkpt>
      <trkpt lat="48.43556" lon="-1.49736">
        <ele>39.8</ele>
        <time>2019-07-16T13:35:21Z</time>
      </trkpt>
      <trkpt lat="48.43556" lon="-1.49732">
        <ele>40.1</ele>
        <time>2019-07-16T13:35:22Z</time>
      </trkpt>
      <trkpt lat="48.43555" lon="-1.49728">
        <ele>40.3</ele>
        <time>2019-07-16T13:35:23Z</time>
      </trkpt>
      <trkpt lat="48.43555" lon="-1.49725">
        <ele>40.3</ele>
        <time>2019-07-16T13:35:24Z</time>
      </trkpt>
      <trkpt lat="48.43556" lon="-1.49721">
        <ele>40.5</ele>
        <time>2019-07-16T13:35:25Z</time>
      </trkpt>
      <trkpt lat="48.43556" lon="-1.49718">
        <ele>40.5</ele>
        <time>2019-07-16T13:35:26Z</time>
      </trkpt>
      <trkpt lat="48.43556" lon="-1.49714">
        <ele>40.6</ele>
        <time>2019-07-16T13:35:27Z</time>
      </trkpt>
      <trkpt lat="48.43556" lon="-1.4971">
        <ele>40.9</ele>
        <time>2019-07-16T13:35:28Z</time>
      </trkpt>
      <trkpt lat="48.43556" lon="-1.49707">
        <ele>41.1</ele>
        <time>2019-07-16T13:35:29Z</time>
      </trkpt>
      <trkpt lat="48.43556" lon="-1.49703">
        <ele>41.3</ele>
        <time>2019-07-16T13:35:30Z</time>
      </trkpt>
      <trkpt lat="48.43557" lon="-1.49699">
        <ele>41.5</ele>
        <time>2019-07-16T13:35:31Z</time>
      </trkpt>
      <trkpt lat="48.43557" lon="-1.49696">
        <ele>41.5</ele>
        <time>2019-07-16T13:35:32Z</time>
      </trkpt>
      <trkpt lat="48.43557" lon="-1.49693">
        <ele>41.4</ele>
        <time>2019-07-16T13:35:33Z</time>
      </trkpt>
      <trkpt lat="48.43558" lon="-1.49689">
        <ele>41.6</ele>
        <time>2019-07-16T13:35:34Z</time>
      </trkpt>
      <trkpt lat="48.43559" lon="-1.49687">
        <ele>42.1</ele>
        <time>2019-07-16T13:35:35Z</time>
      </trkpt>
      <trkpt lat="48.43559" lon="-1.49684">
        <ele>42.4</ele>
        <time>2019-07-16T13:35:36Z</time>
      </trkpt>
      <trkpt lat="48.43559" lon="-1.4968">
        <ele>42.7</ele>
        <time>2019-07-16T13:35:37Z</time>
      </trkpt>
      <trkpt lat="48.4356" lon="-1.49677">
        <ele>43</ele>
        <time>2019-07-16T13:35:38Z</time>
      </trkpt>
      <trkpt lat="48.43561" lon="-1.49673">
        <ele>43</ele>
        <time>2019-07-16T13:35:39Z</time>
      </trkpt>
      <trkpt lat="48.43562" lon="-1.4967">
        <ele>43.2</ele>
        <time>2019-07-16T13:35:40Z</time>
      </trkpt>
      <trkpt lat="48.43564" lon="-1.49667">
        <ele>43.1</ele>
        <time>2019-07-16T13:35:41Z</time>
      </trkpt>
      <trkpt lat="48.43565" lon="-1.49663">
        <ele>43</ele>
        <time>2019-07-16T13:35:42Z</time>
      </trkpt>
      <trkpt lat="48.43567" lon="-1.4966">
        <ele>43.1</ele>
        <time>2019-07-16T13:35:43Z</time>
      </trkpt>
      <trkpt lat="48.43568" lon="-1.49656">
        <ele>43.3</ele>
        <time>2019-07-16T13:35:44Z</time>
      </trkpt>
      <trkpt lat="48.43569" lon="-1.49653">
        <ele>43.3</ele>
        <time>2019-07-16T13:35:45Z</time>
      </trkpt>
      <trkpt lat="48.4357" lon="-1.49649">
        <ele>43.5</ele>
        <time>2019-07-16T13:35:46Z</time>
      </trkpt>
      <trkpt lat="48.43572" lon="-1.49646">
        <ele>43.5</ele>
        <time>2019-07-16T13:35:47Z</time>
      </trkpt>
      <trkpt lat="48.43573" lon="-1.49642">
        <ele>43.4</ele>
        <time>2019-07-16T13:35:48Z</time>
      </trkpt>
      <trkpt lat="48.43575" lon="-1.49639">
        <ele>43.3</ele>
        <time>2019-07-16T13:35:49Z</time>
      </trkpt>
      <trkpt lat="48.43577" lon="-1.49636">
        <ele>43.2</ele>
        <time>2019-07-16T13:35:50Z</time>
      </trkpt>
      <trkpt lat="48.43579" lon="-1.49632">
        <ele>43.1</ele>
        <time>2019-07-16T13:35:51Z</time>
      </trkpt>
      <trkpt lat="48.43581" lon="-1.49629">
        <ele>43.4</ele>
        <time>2019-07-16T13:35:52Z</time>
      </trkpt>
      <trkpt lat="48.43584" lon="-1.49625">
        <ele>43.6</ele>
        <time>2019-07-16T13:35:53Z</time>
      </trkpt>
      <trkpt lat="48.43585" lon="-1.49621">
        <ele>43.9</ele>
        <time>2019-07-16T13:35:54Z</time>
      </trkpt>
      <trkpt lat="48.43587" lon="-1.49618">
        <ele>44.2</ele>
        <time>2019-07-16T13:35:55Z</time>
      </trkpt>
      <trkpt lat="48.43589" lon="-1.49614">
        <ele>44.7</ele>
        <time>2019-07-16T13:35:56Z</time>
      </trkpt>
      <trkpt lat="48.43591" lon="-1.4961">
        <ele>45</ele>
        <time>2019-07-16T13:35:57Z</time>
      </trkpt>
      <trkpt lat="48.43593" lon="-1.49607">
        <ele>44.9</ele>
        <time>2019-07-16T13:35:58Z</time>
      </trkpt>
      <trkpt lat="48.43594" lon="-1.49603">
        <ele>44.9</ele>
        <time>2019-07-16T13:35:59Z</time>
      </trkpt>
      <trkpt lat="48.43596" lon="-1.496">
        <ele>45</ele>
        <time>2019-07-16T13:36:00Z</time>
      </trkpt>
      <trkpt lat="48.43598" lon="-1.49596">
        <ele>45</ele>
        <time>2019-07-16T13:36:01Z</time>
      </trkpt>
      <trkpt lat="48.43599" lon="-1.49592">
        <ele>45.3</ele>
        <time>2019-07-16T13:36:02Z</time>
      </trkpt>
      <trkpt lat="48.43601" lon="-1.49589">
        <ele>45.6</ele>
        <time>2019-07-16T13:36:03Z</time>
      </trkpt>
      <trkpt lat="48.43603" lon="-1.49586">
        <ele>45.7</ele>
        <time>2019-07-16T13:36:04Z</time>
      </trkpt>
      <trkpt lat="48.43604" lon="-1.49583">
        <ele>45.8</ele>
        <time>2019-07-16T13:36:05Z</time>
      </trkpt>
      <trkpt lat="48.43606" lon="-1.49579">
        <ele>46</ele>
        <time>2019-07-16T13:36:06Z</time>
      </trkpt>
      <trkpt lat="48.43607" lon="-1.49575">
        <ele>46.1</ele>
        <time>2019-07-16T13:36:07Z</time>
      </trkpt>
      <trkpt lat="48.43609" lon="-1.49571">
        <ele>46.1</ele>
        <time>2019-07-16T13:36:08Z</time>
      </trkpt>
      <trkpt lat="48.4361" lon="-1.49568">
        <ele>45.8</ele>
        <time>2019-07-16T13:36:09Z</time>
      </trkpt>
      <trkpt lat="48.43612" lon="-1.49564">
        <ele>45.4</ele>
        <time>2019-07-16T13:36:10Z</time>
      </trkpt>
      <trkpt lat="48.43614" lon="-1.4956">
        <ele>45.4</ele>
        <time>2019-07-16T13:36:11Z</time>
      </trkpt>
      <trkpt lat="48.43615" lon="-1.49557">
        <ele>44.9</ele>
        <time>2019-07-16T13:36:12Z</time>
      </trkpt>
      <trkpt lat="48.43617" lon="-1.49554">
        <ele>44.7</ele>
        <time>2019-07-16T13:36:13Z</time>
      </trkpt>
      <trkpt lat="48.43618" lon="-1.4955">
        <ele>44.3</ele>
        <time>2019-07-16T13:36:14Z</time>
      </trkpt>
      <trkpt lat="48.4362" lon="-1.49547">
        <ele>43.9</ele>
        <time>2019-07-16T13:36:15Z</time>
      </trkpt>
      <trkpt lat="48.43622" lon="-1.49544">
        <ele>43.9</ele>
        <time>2019-07-16T13:36:16Z</time>
      </trkpt>
      <trkpt lat="48.43623" lon="-1.49541">
        <ele>44</ele>
        <time>2019-07-16T13:36:17Z</time>
      </trkpt>
      <trkpt lat="48.43626" lon="-1.49538">
        <ele>44.3</ele>
        <time>2019-07-16T13:36:18Z</time>
      </trkpt>
      <trkpt lat="48.43628" lon="-1.49535">
        <ele>44.6</ele>
        <time>2019-07-16T13:36:19Z</time>
      </trkpt>
      <trkpt lat="48.4363" lon="-1.49532">
        <ele>45</ele>
        <time>2019-07-16T13:36:20Z</time>
      </trkpt>
      <trkpt lat="48.43632" lon="-1.49529">
        <ele>45.2</ele>
        <time>2019-07-16T13:36:21Z</time>
      </trkpt>
      <trkpt lat="48.43634" lon="-1.49526">
        <ele>45.7</ele>
        <time>2019-07-16T13:36:22Z</time>
      </trkpt>
      <trkpt lat="48.43636" lon="-1.49523">
        <ele>45.9</ele>
        <time>2019-07-16T13:36:23Z</time>
      </trkpt>
      <trkpt lat="48.43639" lon="-1.4952">
        <ele>46.1</ele>
        <time>2019-07-16T13:36:24Z</time>
      </trkpt>
      <trkpt lat="48.43641" lon="-1.49518">
        <ele>46.4</ele>
        <time>2019-07-16T13:36:25Z</time>
      </trkpt>
      <trkpt lat="48.43643" lon="-1.49515">
        <ele>46.5</ele>
        <time>2019-07-16T13:36:26Z</time>
      </trkpt>
      <trkpt lat="48.43646" lon="-1.49512">
        <ele>46.5</ele>
        <time>2019-07-16T13:36:27Z</time>
      </trkpt>
      <trkpt lat="48.43648" lon="-1.49509">
        <ele>46.8</ele>
        <time>2019-07-16T13:36:28Z</time>
      </trkpt>
      <trkpt lat="48.4365" lon="-1.49506">
        <ele>46.8</ele>
        <time>2019-07-16T13:36:29Z</time>
      </trkpt>
      <trkpt lat="48.43653" lon="-1.49503">
        <ele>46.9</ele>
        <time>2019-07-16T13:36:30Z</time>
      </trkpt>
      <trkpt lat="48.43655" lon="-1.495">
        <ele>46.7</ele>
        <time>2019-07-16T13:36:31Z</time>
      </trkpt>
      <trkpt lat="48.43658" lon="-1.49498">
        <ele>46.7</ele>
        <time>2019-07-16T13:36:32Z</time>
      </trkpt>
      <trkpt lat="48.4366" lon="-1.49495">
        <ele>46.7</ele>
        <time>2019-07-16T13:36:33Z</time>
      </trkpt>
      <trkpt lat="48.43662" lon="-1.49492">
        <ele>46.8</ele>
        <time>2019-07-16T13:36:34Z</time>
      </trkpt>
      <trkpt lat="48.43665" lon="-1.49489">
        <ele>46.7</ele>
        <time>2019-07-16T13:36:35Z</time>
      </trkpt>
      <trkpt lat="48.43668" lon="-1.49486">
        <ele>46.5</ele>
        <time>2019-07-16T13:36:36Z</time>
      </trkpt>
      <trkpt lat="48.4367" lon="-1.49483">
        <ele>46.2</ele>
        <time>2019-07-16T13:36:37Z</time>
      </trkpt>
      <trkpt lat="48.43673" lon="-1.49481">
        <ele>46.2</ele>
        <time>2019-07-16T13:36:38Z</time>
      </trkpt>
      <trkpt lat="48.43676" lon="-1.49478">
        <ele>46.3</ele>
        <time>2019-07-16T13:36:39Z</time>
      </trkpt>
      <trkpt lat="48.43678" lon="-1.49475">
        <ele>46.3</ele>
        <time>2019-07-16T13:36:40Z</time>
      </trkpt>
      <trkpt lat="48.43681" lon="-1.49472">
        <ele>46.4</ele>
        <time>2019-07-16T13:36:41Z</time>
      </trkpt>
      <trkpt lat="48.43683" lon="-1.49469">
        <ele>47</ele>
        <time>2019-07-16T13:36:42Z</time>
      </trkpt>
      <trkpt lat="48.43686" lon="-1.49466">
        <ele>46.8</ele>
        <time>2019-07-16T13:36:43Z</time>
      </trkpt>
      <trkpt lat="48.43688" lon="-1.49462">
        <ele>46.9</ele>
        <time>2019-07-16T13:36:44Z</time>
      </trkpt>
      <trkpt lat="48.43691" lon="-1.49459">
        <ele>46.7</ele>
        <time>2019-07-16T13:36:45Z</time>
      </trkpt>
      <trkpt lat="48.43693" lon="-1.49455">
        <ele>46.7</ele>
        <time>2019-07-16T13:36:46Z</time>
      </trkpt>
      <trkpt lat="48.43696" lon="-1.49452">
        <ele>46.4</ele>
        <time>2019-07-16T13:36:47Z</time>
      </trkpt>
      <trkpt lat="48.43698" lon="-1.49449">
        <ele>45.9</ele>
        <time>2019-07-16T13:36:48Z</time>
      </trkpt>
      <trkpt lat="48.43701" lon="-1.49446">
        <ele>45.5</ele>
        <time>2019-07-16T13:36:49Z</time>
      </trkpt>
      <trkpt lat="48.43704" lon="-1.49443">
        <ele>45.4</ele>
        <time>2019-07-16T13:36:50Z</time>
      </trkpt>
      <trkpt lat="48.43706" lon="-1.4944">
        <ele>45.6</ele>
        <time>2019-07-16T13:36:51Z</time>
      </trkpt>
      <trkpt lat="48.43709" lon="-1.49437">
        <ele>45.7</ele>
        <time>2019-07-16T13:36:52Z</time>
      </trkpt>
      <trkpt lat="48.43712" lon="-1.49433">
        <ele>45.3</ele>
        <time>2019-07-16T13:36:53Z</time>
      </trkpt>
      <trkpt lat="48.43715" lon="-1.4943">
        <ele>45.3</ele>
        <time>2019-07-16T13:36:54Z</time>
      </trkpt>
      <trkpt lat="48.43718" lon="-1.49427">
        <ele>45</ele>
        <time>2019-07-16T13:36:55Z</time>
      </trkpt>
      <trkpt lat="48.43722" lon="-1.49424">
        <ele>44.8</ele>
        <time>2019-07-16T13:36:56Z</time>
      </trkpt>
      <trkpt lat="48.43725" lon="-1.49422">
        <ele>44.7</ele>
        <time>2019-07-16T13:36:57Z</time>
      </trkpt>
      <trkpt lat="48.43728" lon="-1.49419">
        <ele>44.5</ele>
        <time>2019-07-16T13:36:58Z</time>
      </trkpt>
      <trkpt lat="48.43732" lon="-1.49416">
        <ele>44.4</ele>
        <time>2019-07-16T13:36:59Z</time>
      </trkpt>
      <trkpt lat="48.43735" lon="-1.49414">
        <ele>44.3</ele>
        <time>2019-07-16T13:37:00Z</time>
      </trkpt>
      <trkpt lat="48.43738" lon="-1.49411">
        <ele>44.3</ele>
        <time>2019-07-16T13:37:01Z</time>
      </trkpt>
      <trkpt lat="48.43742" lon="-1.49409">
        <ele>44.3</ele>
        <time>2019-07-16T13:37:02Z</time>
      </trkpt>
      <trkpt lat="48.43745" lon="-1.49407">
        <ele>44.8</ele>
        <time>2019-07-16T13:37:03Z</time>
      </trkpt>
      <trkpt lat="48.43749" lon="-1.49405">
        <ele>44.7</ele>
        <time>2019-07-16T13:37:04Z</time>
      </trkpt>
      <trkpt lat="48.43752" lon="-1.49402">
        <ele>44.6</ele>
        <time>2019-07-16T13:37:05Z</time>
      </trkpt>
      <trkpt lat="48.43755" lon="-1.494">
        <ele>44.4</ele>
        <time>2019-07-16T13:37:06Z</time>
      </trkpt>
      <trkpt lat="48.43759" lon="-1.49397">
        <ele>44.4</ele>
        <time>2019-07-16T13:37:07Z</time>
      </trkpt>
      <trkpt lat="48.43762" lon="-1.49394">
        <ele>43.9</ele>
        <time>2019-07-16T13:37:08Z</time>
      </trkpt>
      <trkpt lat="48.43766" lon="-1.49391">
        <ele>43.4</ele>
        <time>2019-07-16T13:37:09Z</time>
      </trkpt>
      <trkpt lat="48.4377" lon="-1.49388">
        <ele>43.2</ele>
        <time>2019-07-16T13:37:10Z</time>
      </trkpt>
      <trkpt lat="48.43773" lon="-1.49385">
        <ele>42.9</ele>
        <time>2019-07-16T13:37:11Z</time>
      </trkpt>
      <trkpt lat="48.43777" lon="-1.49382">
        <ele>42.6</ele>
        <time>2019-07-16T13:37:12Z</time>
      </trkpt>
      <trkpt lat="48.43781" lon="-1.49379">
        <ele>42.4</ele>
        <time>2019-07-16T13:37:13Z</time>
      </trkpt>
      <trkpt lat="48.43784" lon="-1.49374">
        <ele>42.2</ele>
        <time>2019-07-16T13:37:14Z</time>
      </trkpt>
      <trkpt lat="48.43788" lon="-1.4937">
        <ele>41.8</ele>
        <time>2019-07-16T13:37:15Z</time>
      </trkpt>
      <trkpt lat="48.43791" lon="-1.49366">
        <ele>41.6</ele>
        <time>2019-07-16T13:37:16Z</time>
      </trkpt>
      <trkpt lat="48.43795" lon="-1.49363">
        <ele>41.2</ele>
        <time>2019-07-16T13:37:17Z</time>
      </trkpt>
      <trkpt lat="48.43797" lon="-1.49359">
        <ele>40.8</ele>
        <time>2019-07-16T13:37:18Z</time>
      </trkpt>
      <trkpt lat="48.438" lon="-1.49357">
        <ele>40.5</ele>
        <time>2019-07-16T13:37:19Z</time>
      </trkpt>
      <trkpt lat="48.43803" lon="-1.49354">
        <ele>40.2</ele>
        <time>2019-07-16T13:37:20Z</time>
      </trkpt>
      <trkpt lat="48.43805" lon="-1.49352">
        <ele>40.2</ele>
        <time>2019-07-16T13:37:21Z</time>
      </trkpt>
      <trkpt lat="48.43808" lon="-1.4935">
        <ele>40.1</ele>
        <time>2019-07-16T13:37:22Z</time>
      </trkpt>
      <trkpt lat="48.43811" lon="-1.49346">
        <ele>40.3</ele>
        <time>2019-07-16T13:37:23Z</time>
      </trkpt>
      <trkpt lat="48.43813" lon="-1.49343">
        <ele>40.3</ele>
        <time>2019-07-16T13:37:24Z</time>
      </trkpt>
      <trkpt lat="48.43816" lon="-1.49339">
        <ele>40.3</ele>
        <time>2019-07-16T13:37:25Z</time>
      </trkpt>
      <trkpt lat="48.4382" lon="-1.49335">
        <ele>40.2</ele>
        <time>2019-07-16T13:37:26Z</time>
      </trkpt>
      <trkpt lat="48.43824" lon="-1.4933">
        <ele>40.1</ele>
        <time>2019-07-16T13:37:27Z</time>
      </trkpt>
      <trkpt lat="48.43827" lon="-1.49326">
        <ele>40.1</ele>
        <time>2019-07-16T13:37:28Z</time>
      </trkpt>
      <trkpt lat="48.43831" lon="-1.49322">
        <ele>39.7</ele>
        <time>2019-07-16T13:37:29Z</time>
      </trkpt>
      <trkpt lat="48.43835" lon="-1.49318">
        <ele>39.5</ele>
        <time>2019-07-16T13:37:30Z</time>
      </trkpt>
      <trkpt lat="48.43838" lon="-1.49315">
        <ele>39.6</ele>
        <time>2019-07-16T13:37:31Z</time>
      </trkpt>
      <trkpt lat="48.43841" lon="-1.49312">
        <ele>39.6</ele>
        <time>2019-07-16T13:37:32Z</time>
      </trkpt>
      <trkpt lat="48.43844" lon="-1.49309">
        <ele>39.4</ele>
        <time>2019-07-16T13:37:33Z</time>
      </trkpt>
      <trkpt lat="48.43845" lon="-1.49307">
        <ele>39.2</ele>
        <time>2019-07-16T13:37:34Z</time>
      </trkpt>
      <trkpt lat="48.43847" lon="-1.49305">
        <ele>38.7</ele>
        <time>2019-07-16T13:37:35Z</time>
      </trkpt>
      <trkpt lat="48.43849" lon="-1.49303">
        <ele>38.5</ele>
        <time>2019-07-16T13:37:36Z</time>
      </trkpt>
      <trkpt lat="48.4385" lon="-1.49302">
        <ele>38.3</ele>
        <time>2019-07-16T13:37:37Z</time>
      </trkpt>
      <trkpt lat="48.43853" lon="-1.49301">
        <ele>38.3</ele>
        <time>2019-07-16T13:37:59Z</time>
      </trkpt>
      <trkpt lat="48.43853" lon="-1.49301">
        <ele>38.3</ele>
        <time>2019-07-16T13:38:00Z</time>
      </trkpt>
      <trkpt lat="48.43855" lon="-1.49301">
        <ele>38.3</ele>
        <time>2019-07-16T13:38:01Z</time>
      </trkpt>
      <trkpt lat="48.43857" lon="-1.49301">
        <ele>38.4</ele>
        <time>2019-07-16T13:38:02Z</time>
      </trkpt>
      <trkpt lat="48.43859" lon="-1.49301">
        <ele>38.5</ele>
        <time>2019-07-16T13:38:03Z</time>
      </trkpt>
      <trkpt lat="48.43862" lon="-1.493">
        <ele>38.4</ele>
        <time>2019-07-16T13:38:04Z</time>
      </trkpt>
      <trkpt lat="48.43864" lon="-1.493">
        <ele>38.5</ele>
        <time>2019-07-16T13:38:05Z</time>
      </trkpt>
      <trkpt lat="48.43867" lon="-1.49299">
        <ele>38.9</ele>
        <time>2019-07-16T13:38:06Z</time>
      </trkpt>
      <trkpt lat="48.43869" lon="-1.49297">
        <ele>39.1</ele>
        <time>2019-07-16T13:38:07Z</time>
      </trkpt>
      <trkpt lat="48.43872" lon="-1.49296">
        <ele>39.4</ele>
        <time>2019-07-16T13:38:08Z</time>
      </trkpt>
      <trkpt lat="48.43875" lon="-1.49295">
        <ele>39.8</ele>
        <time>2019-07-16T13:38:09Z</time>
      </trkpt>
      <trkpt lat="48.43878" lon="-1.49293">
        <ele>39.8</ele>
        <time>2019-07-16T13:38:10Z</time>
      </trkpt>
      <trkpt lat="48.43881" lon="-1.49292">
        <ele>39.9</ele>
        <time>2019-07-16T13:38:11Z</time>
      </trkpt>
      <trkpt lat="48.43884" lon="-1.4929">
        <ele>40.1</ele>
        <time>2019-07-16T13:38:12Z</time>
      </trkpt>
      <trkpt lat="48.43887" lon="-1.49289">
        <ele>40.6</ele>
        <time>2019-07-16T13:38:13Z</time>
      </trkpt>
      <trkpt lat="48.4389" lon="-1.49287">
        <ele>40.6</ele>
        <time>2019-07-16T13:38:14Z</time>
      </trkpt>
      <trkpt lat="48.43892" lon="-1.49286">
        <ele>41.4</ele>
        <time>2019-07-16T13:38:15Z</time>
      </trkpt>
      <trkpt lat="48.43895" lon="-1.49285">
        <ele>41.3</ele>
        <time>2019-07-16T13:38:16Z</time>
      </trkpt>
      <trkpt lat="48.43897" lon="-1.49283">
        <ele>41.8</ele>
        <time>2019-07-16T13:38:17Z</time>
      </trkpt>
      <trkpt lat="48.43899" lon="-1.49281">
        <ele>42.6</ele>
        <time>2019-07-16T13:38:18Z</time>
      </trkpt>
      <trkpt lat="48.43901" lon="-1.4928">
        <ele>43.6</ele>
        <time>2019-07-16T13:38:19Z</time>
      </trkpt>
      <trkpt lat="48.43903" lon="-1.49278">
        <ele>44.7</ele>
        <time>2019-07-16T13:38:20Z</time>
      </trkpt>
      <trkpt lat="48.43905" lon="-1.49277">
        <ele>45.6</ele>
        <time>2019-07-16T13:38:21Z</time>
      </trkpt>
      <trkpt lat="48.43907" lon="-1.49276">
        <ele>46.4</ele>
        <time>2019-07-16T13:38:22Z</time>
      </trkpt>
      <trkpt lat="48.43909" lon="-1.49274">
        <ele>48.2</ele>
        <time>2019-07-16T13:38:23Z</time>
      </trkpt>
      <trkpt lat="48.43911" lon="-1.49274">
        <ele>49.5</ele>
        <time>2019-07-16T13:38:24Z</time>
      </trkpt>
      <trkpt lat="48.43914" lon="-1.49274">
        <ele>50.1</ele>
        <time>2019-07-16T13:38:25Z</time>
      </trkpt>
      <trkpt lat="48.43916" lon="-1.49276">
        <ele>49.7</ele>
        <time>2019-07-16T13:38:26Z</time>
      </trkpt>
      <trkpt lat="48.43918" lon="-1.49275">
        <ele>48.9</ele>
        <time>2019-07-16T13:38:27Z</time>
      </trkpt>
      <trkpt lat="48.43921" lon="-1.49274">
        <ele>48.1</ele>
        <time>2019-07-16T13:38:28Z</time>
      </trkpt>
      <trkpt lat="48.43925" lon="-1.49273">
        <ele>46.8</ele>
        <time>2019-07-16T13:38:29Z</time>
      </trkpt>
      <trkpt lat="48.43928" lon="-1.49271">
        <ele>46.5</ele>
        <time>2019-07-16T13:38:30Z</time>
      </trkpt>
      <trkpt lat="48.43931" lon="-1.49269">
        <ele>46.2</ele>
        <time>2019-07-16T13:38:31Z</time>
      </trkpt>
      <trkpt lat="48.43933" lon="-1.49267">
        <ele>46.5</ele>
        <time>2019-07-16T13:38:32Z</time>
      </trkpt>
      <trkpt lat="48.43935" lon="-1.49266">
        <ele>47.1</ele>
        <time>2019-07-16T13:38:33Z</time>
      </trkpt>
      <trkpt lat="48.43938" lon="-1.49265">
        <ele>47.8</ele>
        <time>2019-07-16T13:38:34Z</time>
      </trkpt>
      <trkpt lat="48.4394" lon="-1.49263">
        <ele>46.8</ele>
        <time>2019-07-16T13:38:35Z</time>
      </trkpt>
      <trkpt lat="48.43943" lon="-1.49262">
        <ele>45.5</ele>
        <time>2019-07-16T13:38:36Z</time>
      </trkpt>
      <trkpt lat="48.43947" lon="-1.4926">
        <ele>43.9</ele>
        <time>2019-07-16T13:38:37Z</time>
      </trkpt>
      <trkpt lat="48.43951" lon="-1.49258">
        <ele>42.5</ele>
        <time>2019-07-16T13:38:38Z</time>
      </trkpt>
      <trkpt lat="48.43954" lon="-1.49256">
        <ele>42.2</ele>
        <time>2019-07-16T13:38:39Z</time>
      </trkpt>
      <trkpt lat="48.43956" lon="-1.49253">
        <ele>42.5</ele>
        <time>2019-07-16T13:38:40Z</time>
      </trkpt>
      <trkpt lat="48.43959" lon="-1.49251">
        <ele>42.7</ele>
        <time>2019-07-16T13:38:41Z</time>
      </trkpt>
      <trkpt lat="48.43963" lon="-1.49249">
        <ele>42.6</ele>
        <time>2019-07-16T13:38:42Z</time>
      </trkpt>
      <trkpt lat="48.43966" lon="-1.49247">
        <ele>42.5</ele>
        <time>2019-07-16T13:38:43Z</time>
      </trkpt>
      <trkpt lat="48.43969" lon="-1.49245">
        <ele>42.7</ele>
        <time>2019-07-16T13:38:44Z</time>
      </trkpt>
      <trkpt lat="48.43972" lon="-1.49244">
        <ele>42.8</ele>
        <time>2019-07-16T13:38:45Z</time>
      </trkpt>
      <trkpt lat="48.43975" lon="-1.49243">
        <ele>43</ele>
        <time>2019-07-16T13:38:46Z</time>
      </trkpt>
      <trkpt lat="48.43977" lon="-1.49242">
        <ele>43.3</ele>
        <time>2019-07-16T13:38:47Z</time>
      </trkpt>
      <trkpt lat="48.43981" lon="-1.49238">
        <ele>41.6</ele>
        <time>2019-07-16T13:38:48Z</time>
      </trkpt>
      <trkpt lat="48.43984" lon="-1.49236">
        <ele>40.8</ele>
        <time>2019-07-16T13:38:49Z</time>
      </trkpt>
      <trkpt lat="48.43987" lon="-1.49234">
        <ele>39.9</ele>
        <time>2019-07-16T13:38:50Z</time>
      </trkpt>
      <trkpt lat="48.4399" lon="-1.49232">
        <ele>39.4</ele>
        <time>2019-07-16T13:38:51Z</time>
      </trkpt>
      <trkpt lat="48.43993" lon="-1.4923">
        <ele>39.2</ele>
        <time>2019-07-16T13:38:52Z</time>
      </trkpt>
      <trkpt lat="48.43997" lon="-1.49229">
        <ele>38.5</ele>
        <time>2019-07-16T13:38:53Z</time>
      </trkpt>
      <trkpt lat="48.44" lon="-1.49227">
        <ele>38.4</ele>
        <time>2019-07-16T13:38:54Z</time>
      </trkpt>
      <trkpt lat="48.44003" lon="-1.49225">
        <ele>38.1</ele>
        <time>2019-07-16T13:38:55Z</time>
      </trkpt>
      <trkpt lat="48.44007" lon="-1.49224">
        <ele>37.9</ele>
        <time>2019-07-16T13:38:56Z</time>
      </trkpt>
      <trkpt lat="48.4401" lon="-1.49222">
        <ele>38.2</ele>
        <time>2019-07-16T13:38:57Z</time>
      </trkpt>
      <trkpt lat="48.44014" lon="-1.49221">
        <ele>38.7</ele>
        <time>2019-07-16T13:38:58Z</time>
      </trkpt>
      <trkpt lat="48.44017" lon="-1.49218">
        <ele>39</ele>
        <time>2019-07-16T13:38:59Z</time>
      </trkpt>
      <trkpt lat="48.4402" lon="-1.49217">
        <ele>39.9</ele>
        <time>2019-07-16T13:39:00Z</time>
      </trkpt>
      <trkpt lat="48.44023" lon="-1.49215">
        <ele>40.8</ele>
        <time>2019-07-16T13:39:01Z</time>
      </trkpt>
      <trkpt lat="48.44026" lon="-1.49213">
        <ele>41.2</ele>
        <time>2019-07-16T13:39:02Z</time>
      </trkpt>
      <trkpt lat="48.44029" lon="-1.49211">
        <ele>41.6</ele>
        <time>2019-07-16T13:39:03Z</time>
      </trkpt>
      <trkpt lat="48.44032" lon="-1.49207">
        <ele>41.8</ele>
        <time>2019-07-16T13:39:04Z</time>
      </trkpt>
      <trkpt lat="48.44035" lon="-1.49204">
        <ele>41.6</ele>
        <time>2019-07-16T13:39:05Z</time>
      </trkpt>
      <trkpt lat="48.44038" lon="-1.492">
        <ele>42</ele>
        <time>2019-07-16T13:39:06Z</time>
      </trkpt>
      <trkpt lat="48.4404" lon="-1.49197">
        <ele>42</ele>
        <time>2019-07-16T13:39:07Z</time>
      </trkpt>
      <trkpt lat="48.44043" lon="-1.49194">
        <ele>42.3</ele>
        <time>2019-07-16T13:39:08Z</time>
      </trkpt>
      <trkpt lat="48.44046" lon="-1.49191">
        <ele>42.4</ele>
        <time>2019-07-16T13:39:09Z</time>
      </trkpt>
      <trkpt lat="48.44049" lon="-1.49187">
        <ele>42</ele>
        <time>2019-07-16T13:39:10Z</time>
      </trkpt>
      <trkpt lat="48.44052" lon="-1.49183">
        <ele>42</ele>
        <time>2019-07-16T13:39:11Z</time>
      </trkpt>
      <trkpt lat="48.44054" lon="-1.4918">
        <ele>42.7</ele>
        <time>2019-07-16T13:39:12Z</time>
      </trkpt>
      <trkpt lat="48.44058" lon="-1.49177">
        <ele>43.4</ele>
        <time>2019-07-16T13:39:13Z</time>
      </trkpt>
      <trkpt lat="48.44061" lon="-1.49174">
        <ele>43.8</ele>
        <time>2019-07-16T13:39:14Z</time>
      </trkpt>
      <trkpt lat="48.44064" lon="-1.4917">
        <ele>44</ele>
        <time>2019-07-16T13:39:15Z</time>
      </trkpt>
      <trkpt lat="48.44069" lon="-1.49167">
        <ele>43.5</ele>
        <time>2019-07-16T13:39:16Z</time>
      </trkpt>
      <trkpt lat="48.44073" lon="-1.49164">
        <ele>42.9</ele>
        <time>2019-07-16T13:39:17Z</time>
      </trkpt>
      <trkpt lat="48.44077" lon="-1.49161">
        <ele>42.8</ele>
        <time>2019-07-16T13:39:18Z</time>
      </trkpt>
      <trkpt lat="48.4408" lon="-1.49158">
        <ele>42.4</ele>
        <time>2019-07-16T13:39:19Z</time>
      </trkpt>
      <trkpt lat="48.44084" lon="-1.49154">
        <ele>41.8</ele>
        <time>2019-07-16T13:39:20Z</time>
      </trkpt>
      <trkpt lat="48.44088" lon="-1.49151">
        <ele>41.5</ele>
        <time>2019-07-16T13:39:21Z</time>
      </trkpt>
      <trkpt lat="48.44091" lon="-1.49148">
        <ele>41.1</ele>
        <time>2019-07-16T13:39:22Z</time>
      </trkpt>
      <trkpt lat="48.44095" lon="-1.49144">
        <ele>40.9</ele>
        <time>2019-07-16T13:39:23Z</time>
      </trkpt>
      <trkpt lat="48.44098" lon="-1.4914">
        <ele>40.5</ele>
        <time>2019-07-16T13:39:24Z</time>
      </trkpt>
      <trkpt lat="48.44101" lon="-1.49136">
        <ele>39.8</ele>
        <time>2019-07-16T13:39:25Z</time>
      </trkpt>
      <trkpt lat="48.44104" lon="-1.49133">
        <ele>39.4</ele>
        <time>2019-07-16T13:39:26Z</time>
      </trkpt>
      <trkpt lat="48.44111" lon="-1.49127">
        <ele>39.5</ele>
        <time>2019-07-16T13:39:28Z</time>
      </trkpt>
      <trkpt lat="48.44114" lon="-1.49123">
        <ele>39.5</ele>
        <time>2019-07-16T13:39:29Z</time>
      </trkpt>
      <trkpt lat="48.44118" lon="-1.4912">
        <ele>39.5</ele>
        <time>2019-07-16T13:39:30Z</time>
      </trkpt>
      <trkpt lat="48.44122" lon="-1.49116">
        <ele>39.2</ele>
        <time>2019-07-16T13:39:31Z</time>
      </trkpt>
      <trkpt lat="48.44126" lon="-1.49112">
        <ele>38.9</ele>
        <time>2019-07-16T13:39:32Z</time>
      </trkpt>
      <trkpt lat="48.44129" lon="-1.49108">
        <ele>38.6</ele>
        <time>2019-07-16T13:39:33Z</time>
      </trkpt>
      <trkpt lat="48.44133" lon="-1.49104">
        <ele>38.1</ele>
        <time>2019-07-16T13:39:34Z</time>
      </trkpt>
      <trkpt lat="48.44137" lon="-1.49099">
        <ele>37.5</ele>
        <time>2019-07-16T13:39:35Z</time>
      </trkpt>
      <trkpt lat="48.44141" lon="-1.49094">
        <ele>37.7</ele>
        <time>2019-07-16T13:39:36Z</time>
      </trkpt>
      <trkpt lat="48.44146" lon="-1.49089">
        <ele>37.9</ele>
        <time>2019-07-16T13:39:37Z</time>
      </trkpt>
      <trkpt lat="48.4415" lon="-1.49083">
        <ele>37.7</ele>
        <time>2019-07-16T13:39:38Z</time>
      </trkpt>
      <trkpt lat="48.44156" lon="-1.49077">
        <ele>37.2</ele>
        <time>2019-07-16T13:39:39Z</time>
      </trkpt>
      <trkpt lat="48.44161" lon="-1.4907">
        <ele>36.6</ele>
        <time>2019-07-16T13:39:40Z</time>
      </trkpt>
      <trkpt lat="48.44166" lon="-1.49063">
        <ele>35.9</ele>
        <time>2019-07-16T13:39:41Z</time>
      </trkpt>
      <trkpt lat="48.44171" lon="-1.49055">
        <ele>35.5</ele>
        <time>2019-07-16T13:39:42Z</time>
      </trkpt>
      <trkpt lat="48.44176" lon="-1.49047">
        <ele>35</ele>
        <time>2019-07-16T13:39:43Z</time>
      </trkpt>
      <trkpt lat="48.44181" lon="-1.49037">
        <ele>35.1</ele>
        <time>2019-07-16T13:39:44Z</time>
      </trkpt>
      <trkpt lat="48.44187" lon="-1.49025">
        <ele>33.3</ele>
        <time>2019-07-16T13:39:45Z</time>
      </trkpt>
      <trkpt lat="48.44193" lon="-1.49015">
        <ele>33.3</ele>
        <time>2019-07-16T13:39:46Z</time>
      </trkpt>
      <trkpt lat="48.44199" lon="-1.49006">
        <ele>33.1</ele>
        <time>2019-07-16T13:39:47Z</time>
      </trkpt>
      <trkpt lat="48.44206" lon="-1.48997">
        <ele>32.2</ele>
        <time>2019-07-16T13:39:48Z</time>
      </trkpt>
      <trkpt lat="48.44212" lon="-1.48987">
        <ele>31.7</ele>
        <time>2019-07-16T13:39:49Z</time>
      </trkpt>
      <trkpt lat="48.44218" lon="-1.48978">
        <ele>31.1</ele>
        <time>2019-07-16T13:39:50Z</time>
      </trkpt>
      <trkpt lat="48.44225" lon="-1.4897">
        <ele>30.4</ele>
        <time>2019-07-16T13:39:51Z</time>
      </trkpt>
      <trkpt lat="48.44232" lon="-1.48963">
        <ele>29.8</ele>
        <time>2019-07-16T13:39:52Z</time>
      </trkpt>
      <trkpt lat="48.44238" lon="-1.48957">
        <ele>29.3</ele>
        <time>2019-07-16T13:39:53Z</time>
      </trkpt>
      <trkpt lat="48.44244" lon="-1.48951">
        <ele>28.8</ele>
        <time>2019-07-16T13:39:54Z</time>
      </trkpt>
      <trkpt lat="48.4425" lon="-1.48946">
        <ele>28.2</ele>
        <time>2019-07-16T13:39:55Z</time>
      </trkpt>
      <trkpt lat="48.44254" lon="-1.48944">
        <ele>27.7</ele>
        <time>2019-07-16T13:39:56Z</time>
      </trkpt>
      <trkpt lat="48.44258" lon="-1.48941">
        <ele>27.2</ele>
        <time>2019-07-16T13:39:57Z</time>
      </trkpt>
      <trkpt lat="48.44261" lon="-1.48938">
        <ele>27.1</ele>
        <time>2019-07-16T13:39:58Z</time>
      </trkpt>
      <trkpt lat="48.44264" lon="-1.48936">
        <ele>26.6</ele>
        <time>2019-07-16T13:39:59Z</time>
      </trkpt>
      <trkpt lat="48.44265" lon="-1.48934">
        <ele>27.3</ele>
        <time>2019-07-16T13:40:00Z</time>
      </trkpt>
      <trkpt lat="48.44266" lon="-1.48933">
        <ele>27.8</ele>
        <time>2019-07-16T13:40:01Z</time>
      </trkpt>
      <trkpt lat="48.44267" lon="-1.48931">
        <ele>28.9</ele>
        <time>2019-07-16T13:40:02Z</time>
      </trkpt>
      <trkpt lat="48.44268" lon="-1.4893">
        <ele>29.7</ele>
        <time>2019-07-16T13:40:03Z</time>
      </trkpt>
      <trkpt lat="48.4427" lon="-1.48928">
        <ele>30.1</ele>
        <time>2019-07-16T13:40:04Z</time>
      </trkpt>
      <trkpt lat="48.44272" lon="-1.48927">
        <ele>30.9</ele>
        <time>2019-07-16T13:40:05Z</time>
      </trkpt>
      <trkpt lat="48.44273" lon="-1.48926">
        <ele>31.8</ele>
        <time>2019-07-16T13:40:06Z</time>
      </trkpt>
      <trkpt lat="48.44275" lon="-1.48923">
        <ele>32.8</ele>
        <time>2019-07-16T13:40:07Z</time>
      </trkpt>
      <trkpt lat="48.44276" lon="-1.48921">
        <ele>34.3</ele>
        <time>2019-07-16T13:40:08Z</time>
      </trkpt>
      <trkpt lat="48.44278" lon="-1.48919">
        <ele>35.3</ele>
        <time>2019-07-16T13:40:09Z</time>
      </trkpt>
      <trkpt lat="48.4428" lon="-1.48917">
        <ele>36.2</ele>
        <time>2019-07-16T13:40:10Z</time>
      </trkpt>
      <trkpt lat="48.44281" lon="-1.48916">
        <ele>37.9</ele>
        <time>2019-07-16T13:40:11Z</time>
      </trkpt>
      <trkpt lat="48.44283" lon="-1.48914">
        <ele>38.5</ele>
        <time>2019-07-16T13:40:12Z</time>
      </trkpt>
      <trkpt lat="48.44284" lon="-1.48913">
        <ele>39.1</ele>
        <time>2019-07-16T13:40:13Z</time>
      </trkpt>
      <trkpt lat="48.44286" lon="-1.48911">
        <ele>40.4</ele>
        <time>2019-07-16T13:40:14Z</time>
      </trkpt>
      <trkpt lat="48.44287" lon="-1.4891">
        <ele>41.8</ele>
        <time>2019-07-16T13:40:15Z</time>
      </trkpt>
      <trkpt lat="48.44288" lon="-1.48909">
        <ele>43.3</ele>
        <time>2019-07-16T13:40:16Z</time>
      </trkpt>
      <trkpt lat="48.4429" lon="-1.48907">
        <ele>44.5</ele>
        <time>2019-07-16T13:40:17Z</time>
      </trkpt>
      <trkpt lat="48.44291" lon="-1.48906">
        <ele>46.6</ele>
        <time>2019-07-16T13:40:18Z</time>
      </trkpt>
      <trkpt lat="48.44292" lon="-1.48904">
        <ele>47.9</ele>
        <time>2019-07-16T13:40:19Z</time>
      </trkpt>
      <trkpt lat="48.44294" lon="-1.48903">
        <ele>49.1</ele>
        <time>2019-07-16T13:40:20Z</time>
      </trkpt>
      <trkpt lat="48.44295" lon="-1.48902">
        <ele>50.3</ele>
        <time>2019-07-16T13:40:21Z</time>
      </trkpt>
      <trkpt lat="48.44296" lon="-1.48901">
        <ele>51.5</ele>
        <time>2019-07-16T13:40:22Z</time>
      </trkpt>
      <trkpt lat="48.44297" lon="-1.489">
        <ele>52.5</ele>
        <time>2019-07-16T13:40:23Z</time>
      </trkpt>
      <trkpt lat="48.44298" lon="-1.48898">
        <ele>53.5</ele>
        <time>2019-07-16T13:40:24Z</time>
      </trkpt>
      <trkpt lat="48.443" lon="-1.48897">
        <ele>54</ele>
        <time>2019-07-16T13:40:25Z</time>
      </trkpt>
      <trkpt lat="48.44301" lon="-1.48895">
        <ele>54.6</ele>
        <time>2019-07-16T13:40:26Z</time>
      </trkpt>
      <trkpt lat="48.44303" lon="-1.48893">
        <ele>54.9</ele>
        <time>2019-07-16T13:40:27Z</time>
      </trkpt>
      <trkpt lat="48.44305" lon="-1.48891">
        <ele>54.6</ele>
        <time>2019-07-16T13:40:28Z</time>
      </trkpt>
      <trkpt lat="48.44307" lon="-1.48889">
        <ele>54.9</ele>
        <time>2019-07-16T13:40:29Z</time>
      </trkpt>
      <trkpt lat="48.4431" lon="-1.48888">
        <ele>55.3</ele>
        <time>2019-07-16T13:40:30Z</time>
      </trkpt>
      <trkpt lat="48.44312" lon="-1.48886">
        <ele>55.5</ele>
        <time>2019-07-16T13:40:31Z</time>
      </trkpt>
      <trkpt lat="48.44313" lon="-1.48885">
        <ele>55.9</ele>
        <time>2019-07-16T13:40:32Z</time>
      </trkpt>
      <trkpt lat="48.44315" lon="-1.48883">
        <ele>56.2</ele>
        <time>2019-07-16T13:40:33Z</time>
      </trkpt>
      <trkpt lat="48.44317" lon="-1.48881">
        <ele>55.4</ele>
        <time>2019-07-16T13:40:34Z</time>
      </trkpt>
      <trkpt lat="48.44319" lon="-1.48878">
        <ele>54.9</ele>
        <time>2019-07-16T13:40:35Z</time>
      </trkpt>
      <trkpt lat="48.44321" lon="-1.48875">
        <ele>54.1</ele>
        <time>2019-07-16T13:40:36Z</time>
      </trkpt>
      <trkpt lat="48.44323" lon="-1.48873">
        <ele>54</ele>
        <time>2019-07-16T13:40:37Z</time>
      </trkpt>
      <trkpt lat="48.44324" lon="-1.48871">
        <ele>53.7</ele>
        <time>2019-07-16T13:40:38Z</time>
      </trkpt>
      <trkpt lat="48.44326" lon="-1.48869">
        <ele>53.5</ele>
        <time>2019-07-16T13:40:39Z</time>
      </trkpt>
      <trkpt lat="48.44327" lon="-1.48867">
        <ele>53.2</ele>
        <time>2019-07-16T13:40:40Z</time>
      </trkpt>
      <trkpt lat="48.44329" lon="-1.48864">
        <ele>52.8</ele>
        <time>2019-07-16T13:40:41Z</time>
      </trkpt>
      <trkpt lat="48.44331" lon="-1.48861">
        <ele>52.5</ele>
        <time>2019-07-16T13:40:42Z</time>
      </trkpt>
      <trkpt lat="48.44333" lon="-1.48858">
        <ele>52.3</ele>
        <time>2019-07-16T13:40:43Z</time>
      </trkpt>
      <trkpt lat="48.44335" lon="-1.48856">
        <ele>51.4</ele>
        <time>2019-07-16T13:40:44Z</time>
      </trkpt>
      <trkpt lat="48.44337" lon="-1.48853">
        <ele>50.9</ele>
        <time>2019-07-16T13:40:45Z</time>
      </trkpt>
      <trkpt lat="48.44339" lon="-1.48851">
        <ele>50.6</ele>
        <time>2019-07-16T13:40:46Z</time>
      </trkpt>
      <trkpt lat="48.44341" lon="-1.48848">
        <ele>50.1</ele>
        <time>2019-07-16T13:40:47Z</time>
      </trkpt>
      <trkpt lat="48.44343" lon="-1.48845">
        <ele>49.8</ele>
        <time>2019-07-16T13:40:48Z</time>
      </trkpt>
      <trkpt lat="48.44345" lon="-1.48844">
        <ele>49.7</ele>
        <time>2019-07-16T13:40:49Z</time>
      </trkpt>
      <trkpt lat="48.44347" lon="-1.48842">
        <ele>49.6</ele>
        <time>2019-07-16T13:40:50Z</time>
      </trkpt>
      <trkpt lat="48.4435" lon="-1.48839">
        <ele>48</ele>
        <time>2019-07-16T13:40:51Z</time>
      </trkpt>
      <trkpt lat="48.44351" lon="-1.48837">
        <ele>47.9</ele>
        <time>2019-07-16T13:40:52Z</time>
      </trkpt>
      <trkpt lat="48.44353" lon="-1.48836">
        <ele>47.7</ele>
        <time>2019-07-16T13:40:53Z</time>
      </trkpt>
      <trkpt lat="48.44355" lon="-1.48834">
        <ele>47.7</ele>
        <time>2019-07-16T13:40:54Z</time>
      </trkpt>
      <trkpt lat="48.44356" lon="-1.48831">
        <ele>47</ele>
        <time>2019-07-16T13:40:55Z</time>
      </trkpt>
      <trkpt lat="48.44358" lon="-1.48829">
        <ele>47.1</ele>
        <time>2019-07-16T13:40:56Z</time>
      </trkpt>
      <trkpt lat="48.44359" lon="-1.48826">
        <ele>47.2</ele>
        <time>2019-07-16T13:40:57Z</time>
      </trkpt>
      <trkpt lat="48.4436" lon="-1.48823">
        <ele>47.4</ele>
        <time>2019-07-16T13:40:58Z</time>
      </trkpt>
      <trkpt lat="48.44362" lon="-1.48821">
        <ele>47.6</ele>
        <time>2019-07-16T13:40:59Z</time>
      </trkpt>
      <trkpt lat="48.44363" lon="-1.48819">
        <ele>47.7</ele>
        <time>2019-07-16T13:41:00Z</time>
      </trkpt>
      <trkpt lat="48.44364" lon="-1.48817">
        <ele>47.7</ele>
        <time>2019-07-16T13:41:01Z</time>
      </trkpt>
      <trkpt lat="48.44366" lon="-1.48815">
        <ele>47.8</ele>
        <time>2019-07-16T13:41:02Z</time>
      </trkpt>
      <trkpt lat="48.44368" lon="-1.48812">
        <ele>48.3</ele>
        <time>2019-07-16T13:41:03Z</time>
      </trkpt>
      <trkpt lat="48.44369" lon="-1.4881">
        <ele>48.1</ele>
        <time>2019-07-16T13:41:04Z</time>
      </trkpt>
      <trkpt lat="48.4437" lon="-1.48807">
        <ele>48.8</ele>
        <time>2019-07-16T13:41:05Z</time>
      </trkpt>
      <trkpt lat="48.44371" lon="-1.48805">
        <ele>48.8</ele>
        <time>2019-07-16T13:41:06Z</time>
      </trkpt>
      <trkpt lat="48.44373" lon="-1.48804">
        <ele>48.8</ele>
        <time>2019-07-16T13:41:07Z</time>
      </trkpt>
      <trkpt lat="48.44375" lon="-1.48802">
        <ele>48.6</ele>
        <time>2019-07-16T13:41:08Z</time>
      </trkpt>
      <trkpt lat="48.44376" lon="-1.488">
        <ele>48.5</ele>
        <time>2019-07-16T13:41:09Z</time>
      </trkpt>
      <trkpt lat="48.44378" lon="-1.48798">
        <ele>48.7</ele>
        <time>2019-07-16T13:41:10Z</time>
      </trkpt>
      <trkpt lat="48.44379" lon="-1.48796">
        <ele>49.1</ele>
        <time>2019-07-16T13:41:11Z</time>
      </trkpt>
      <trkpt lat="48.44381" lon="-1.48793">
        <ele>49.5</ele>
        <time>2019-07-16T13:41:12Z</time>
      </trkpt>
      <trkpt lat="48.44383" lon="-1.48792">
        <ele>49.8</ele>
        <time>2019-07-16T13:41:13Z</time>
      </trkpt>
      <trkpt lat="48.44384" lon="-1.4879">
        <ele>50</ele>
        <time>2019-07-16T13:41:14Z</time>
      </trkpt>
      <trkpt lat="48.44386" lon="-1.48788">
        <ele>49.8</ele>
        <time>2019-07-16T13:41:15Z</time>
      </trkpt>
      <trkpt lat="48.44387" lon="-1.48785">
        <ele>49.7</ele>
        <time>2019-07-16T13:41:16Z</time>
      </trkpt>
      <trkpt lat="48.44389" lon="-1.48783">
        <ele>49.6</ele>
        <time>2019-07-16T13:41:17Z</time>
      </trkpt>
      <trkpt lat="48.44391" lon="-1.4878">
        <ele>49.8</ele>
        <time>2019-07-16T13:41:18Z</time>
      </trkpt>
      <trkpt lat="48.44393" lon="-1.48778">
        <ele>49.4</ele>
        <time>2019-07-16T13:41:19Z</time>
      </trkpt>
      <trkpt lat="48.44394" lon="-1.48775">
        <ele>49.3</ele>
        <time>2019-07-16T13:41:20Z</time>
      </trkpt>
      <trkpt lat="48.44396" lon="-1.48774">
        <ele>49.1</ele>
        <time>2019-07-16T13:41:21Z</time>
      </trkpt>
      <trkpt lat="48.44397" lon="-1.48772">
        <ele>49.4</ele>
        <time>2019-07-16T13:41:22Z</time>
      </trkpt>
      <trkpt lat="48.44399" lon="-1.4877">
        <ele>49.6</ele>
        <time>2019-07-16T13:41:23Z</time>
      </trkpt>
      <trkpt lat="48.444" lon="-1.48768">
        <ele>49.9</ele>
        <time>2019-07-16T13:41:24Z</time>
      </trkpt>
      <trkpt lat="48.44402" lon="-1.48766">
        <ele>50.2</ele>
        <time>2019-07-16T13:41:25Z</time>
      </trkpt>
      <trkpt lat="48.44404" lon="-1.48765">
        <ele>50.7</ele>
        <time>2019-07-16T13:41:26Z</time>
      </trkpt>
      <trkpt lat="48.44406" lon="-1.48763">
        <ele>50.7</ele>
        <time>2019-07-16T13:41:27Z</time>
      </trkpt>
      <trkpt lat="48.44408" lon="-1.4876">
        <ele>50.8</ele>
        <time>2019-07-16T13:41:28Z</time>
      </trkpt>
      <trkpt lat="48.4441" lon="-1.48758">
        <ele>50.7</ele>
        <time>2019-07-16T13:41:29Z</time>
      </trkpt>
      <trkpt lat="48.44412" lon="-1.48756">
        <ele>51.2</ele>
        <time>2019-07-16T13:41:30Z</time>
      </trkpt>
      <trkpt lat="48.44415" lon="-1.48754">
        <ele>51.6</ele>
        <time>2019-07-16T13:41:31Z</time>
      </trkpt>
      <trkpt lat="48.44417" lon="-1.48752">
        <ele>51.9</ele>
        <time>2019-07-16T13:41:32Z</time>
      </trkpt>
      <trkpt lat="48.44419" lon="-1.4875">
        <ele>52.2</ele>
        <time>2019-07-16T13:41:33Z</time>
      </trkpt>
      <trkpt lat="48.44421" lon="-1.48747">
        <ele>52.5</ele>
        <time>2019-07-16T13:41:34Z</time>
      </trkpt>
      <trkpt lat="48.44424" lon="-1.48744">
        <ele>52.3</ele>
        <time>2019-07-16T13:41:35Z</time>
      </trkpt>
      <trkpt lat="48.44426" lon="-1.48742">
        <ele>52.3</ele>
        <time>2019-07-16T13:41:36Z</time>
      </trkpt>
      <trkpt lat="48.44429" lon="-1.48741">
        <ele>52.8</ele>
        <time>2019-07-16T13:41:37Z</time>
      </trkpt>
      <trkpt lat="48.44432" lon="-1.48739">
        <ele>53.2</ele>
        <time>2019-07-16T13:41:38Z</time>
      </trkpt>
      <trkpt lat="48.44435" lon="-1.48738">
        <ele>53.9</ele>
        <time>2019-07-16T13:41:39Z</time>
      </trkpt>
      <trkpt lat="48.44438" lon="-1.48736">
        <ele>53.9</ele>
        <time>2019-07-16T13:41:40Z</time>
      </trkpt>
      <trkpt lat="48.44441" lon="-1.48734">
        <ele>53.7</ele>
        <time>2019-07-16T13:41:41Z</time>
      </trkpt>
      <trkpt lat="48.44444" lon="-1.48732">
        <ele>54.3</ele>
        <time>2019-07-16T13:41:42Z</time>
      </trkpt>
      <trkpt lat="48.44446" lon="-1.48731">
        <ele>54.4</ele>
        <time>2019-07-16T13:41:43Z</time>
      </trkpt>
      <trkpt lat="48.44449" lon="-1.48729">
        <ele>54.1</ele>
        <time>2019-07-16T13:41:44Z</time>
      </trkpt>
      <trkpt lat="48.44452" lon="-1.48726">
        <ele>53.5</ele>
        <time>2019-07-16T13:41:45Z</time>
      </trkpt>
      <trkpt lat="48.44455" lon="-1.48724">
        <ele>52.9</ele>
        <time>2019-07-16T13:41:46Z</time>
      </trkpt>
      <trkpt lat="48.44457" lon="-1.48722">
        <ele>52.3</ele>
        <time>2019-07-16T13:41:47Z</time>
      </trkpt>
      <trkpt lat="48.4446" lon="-1.4872">
        <ele>52</ele>
        <time>2019-07-16T13:41:48Z</time>
      </trkpt>
      <trkpt lat="48.44462" lon="-1.48718">
        <ele>51.8</ele>
        <time>2019-07-16T13:41:49Z</time>
      </trkpt>
      <trkpt lat="48.44465" lon="-1.48716">
        <ele>51.5</ele>
        <time>2019-07-16T13:41:50Z</time>
      </trkpt>
      <trkpt lat="48.44469" lon="-1.48713">
        <ele>51.5</ele>
        <time>2019-07-16T13:41:51Z</time>
      </trkpt>
      <trkpt lat="48.44471" lon="-1.48711">
        <ele>51.4</ele>
        <time>2019-07-16T13:41:52Z</time>
      </trkpt>
      <trkpt lat="48.44474" lon="-1.48709">
        <ele>51.4</ele>
        <time>2019-07-16T13:41:53Z</time>
      </trkpt>
      <trkpt lat="48.44477" lon="-1.48707">
        <ele>52</ele>
        <time>2019-07-16T13:41:54Z</time>
      </trkpt>
      <trkpt lat="48.4448" lon="-1.48705">
        <ele>52.3</ele>
        <time>2019-07-16T13:41:55Z</time>
      </trkpt>
      <trkpt lat="48.44483" lon="-1.48703">
        <ele>52.5</ele>
        <time>2019-07-16T13:41:56Z</time>
      </trkpt>
      <trkpt lat="48.44486" lon="-1.48702">
        <ele>52.7</ele>
        <time>2019-07-16T13:41:57Z</time>
      </trkpt>
      <trkpt lat="48.4449" lon="-1.487">
        <ele>52.9</ele>
        <time>2019-07-16T13:41:58Z</time>
      </trkpt>
      <trkpt lat="48.44494" lon="-1.48698">
        <ele>52.8</ele>
        <time>2019-07-16T13:41:59Z</time>
      </trkpt>
      <trkpt lat="48.44497" lon="-1.48696">
        <ele>52.7</ele>
        <time>2019-07-16T13:42:00Z</time>
      </trkpt>
      <trkpt lat="48.445" lon="-1.48693">
        <ele>52.5</ele>
        <time>2019-07-16T13:42:01Z</time>
      </trkpt>
      <trkpt lat="48.44504" lon="-1.48691">
        <ele>52.2</ele>
        <time>2019-07-16T13:42:02Z</time>
      </trkpt>
      <trkpt lat="48.44507" lon="-1.48688">
        <ele>51.6</ele>
        <time>2019-07-16T13:42:03Z</time>
      </trkpt>
      <trkpt lat="48.4451" lon="-1.48685">
        <ele>51.3</ele>
        <time>2019-07-16T13:42:04Z</time>
      </trkpt>
      <trkpt lat="48.44513" lon="-1.48682">
        <ele>51.3</ele>
        <time>2019-07-16T13:42:05Z</time>
      </trkpt>
      <trkpt lat="48.44517" lon="-1.48679">
        <ele>51.3</ele>
        <time>2019-07-16T13:42:06Z</time>
      </trkpt>
      <trkpt lat="48.4452" lon="-1.48676">
        <ele>51</ele>
        <time>2019-07-16T13:42:07Z</time>
      </trkpt>
      <trkpt lat="48.44524" lon="-1.48675">
        <ele>51.4</ele>
        <time>2019-07-16T13:42:08Z</time>
      </trkpt>
      <trkpt lat="48.44528" lon="-1.48673">
        <ele>51.3</ele>
        <time>2019-07-16T13:42:09Z</time>
      </trkpt>
      <trkpt lat="48.44532" lon="-1.48672">
        <ele>51</ele>
        <time>2019-07-16T13:42:10Z</time>
      </trkpt>
      <trkpt lat="48.44536" lon="-1.4867">
        <ele>51</ele>
        <time>2019-07-16T13:42:11Z</time>
      </trkpt>
      <trkpt lat="48.4454" lon="-1.48668">
        <ele>50.8</ele>
        <time>2019-07-16T13:42:12Z</time>
      </trkpt>
      <trkpt lat="48.44544" lon="-1.48666">
        <ele>50.4</ele>
        <time>2019-07-16T13:42:13Z</time>
      </trkpt>
      <trkpt lat="48.44548" lon="-1.48665">
        <ele>49.8</ele>
        <time>2019-07-16T13:42:14Z</time>
      </trkpt>
      <trkpt lat="48.44552" lon="-1.48664">
        <ele>49.6</ele>
        <time>2019-07-16T13:42:15Z</time>
      </trkpt>
      <trkpt lat="48.44556" lon="-1.48663">
        <ele>49.5</ele>
        <time>2019-07-16T13:42:16Z</time>
      </trkpt>
      <trkpt lat="48.44561" lon="-1.48663">
        <ele>49.4</ele>
        <time>2019-07-16T13:42:17Z</time>
      </trkpt>
      <trkpt lat="48.44566" lon="-1.48663">
        <ele>49.7</ele>
        <time>2019-07-16T13:42:18Z</time>
      </trkpt>
      <trkpt lat="48.4457" lon="-1.48663">
        <ele>50.2</ele>
        <time>2019-07-16T13:42:19Z</time>
      </trkpt>
      <trkpt lat="48.44574" lon="-1.48664">
        <ele>50.7</ele>
        <time>2019-07-16T13:42:20Z</time>
      </trkpt>
      <trkpt lat="48.44578" lon="-1.48664">
        <ele>50.9</ele>
        <time>2019-07-16T13:42:21Z</time>
      </trkpt>
      <trkpt lat="48.44582" lon="-1.48665">
        <ele>51.3</ele>
        <time>2019-07-16T13:42:22Z</time>
      </trkpt>
      <trkpt lat="48.44587" lon="-1.48665">
        <ele>51</ele>
        <time>2019-07-16T13:42:23Z</time>
      </trkpt>
      <trkpt lat="48.44592" lon="-1.48666">
        <ele>50.5</ele>
        <time>2019-07-16T13:42:24Z</time>
      </trkpt>
      <trkpt lat="48.44597" lon="-1.48667">
        <ele>50.4</ele>
        <time>2019-07-16T13:42:25Z</time>
      </trkpt>
      <trkpt lat="48.44601" lon="-1.48668">
        <ele>50.1</ele>
        <time>2019-07-16T13:42:26Z</time>
      </trkpt>
      <trkpt lat="48.44607" lon="-1.48669">
        <ele>49.5</ele>
        <time>2019-07-16T13:42:27Z</time>
      </trkpt>
      <trkpt lat="48.44611" lon="-1.4867">
        <ele>49.4</ele>
        <time>2019-07-16T13:42:28Z</time>
      </trkpt>
      <trkpt lat="48.44616" lon="-1.48671">
        <ele>49.3</ele>
        <time>2019-07-16T13:42:29Z</time>
      </trkpt>
      <trkpt lat="48.44621" lon="-1.48672">
        <ele>48.8</ele>
        <time>2019-07-16T13:42:30Z</time>
      </trkpt>
      <trkpt lat="48.44626" lon="-1.48672">
        <ele>48.4</ele>
        <time>2019-07-16T13:42:31Z</time>
      </trkpt>
      <trkpt lat="48.44631" lon="-1.48671">
        <ele>47.7</ele>
        <time>2019-07-16T13:42:32Z</time>
      </trkpt>
      <trkpt lat="48.44635" lon="-1.4867">
        <ele>47.2</ele>
        <time>2019-07-16T13:42:33Z</time>
      </trkpt>
      <trkpt lat="48.44639" lon="-1.4867">
        <ele>47</ele>
        <time>2019-07-16T13:42:34Z</time>
      </trkpt>
      <trkpt lat="48.44643" lon="-1.48669">
        <ele>46.5</ele>
        <time>2019-07-16T13:42:35Z</time>
      </trkpt>
      <trkpt lat="48.44648" lon="-1.48667">
        <ele>46.2</ele>
        <time>2019-07-16T13:42:36Z</time>
      </trkpt>
      <trkpt lat="48.44653" lon="-1.48665">
        <ele>45.9</ele>
        <time>2019-07-16T13:42:37Z</time>
      </trkpt>
      <trkpt lat="48.44658" lon="-1.48663">
        <ele>45.8</ele>
        <time>2019-07-16T13:42:38Z</time>
      </trkpt>
      <trkpt lat="48.44663" lon="-1.4866">
        <ele>45.6</ele>
        <time>2019-07-16T13:42:39Z</time>
      </trkpt>
      <trkpt lat="48.44668" lon="-1.48658">
        <ele>45.3</ele>
        <time>2019-07-16T13:42:40Z</time>
      </trkpt>
      <trkpt lat="48.44674" lon="-1.48655">
        <ele>45.2</ele>
        <time>2019-07-16T13:42:41Z</time>
      </trkpt>
      <trkpt lat="48.4468" lon="-1.48653">
        <ele>45.4</ele>
        <time>2019-07-16T13:42:42Z</time>
      </trkpt>
      <trkpt lat="48.44686" lon="-1.4865">
        <ele>45.3</ele>
        <time>2019-07-16T13:42:43Z</time>
      </trkpt>
      <trkpt lat="48.44692" lon="-1.48647">
        <ele>45.3</ele>
        <time>2019-07-16T13:42:44Z</time>
      </trkpt>
      <trkpt lat="48.44698" lon="-1.48644">
        <ele>45.4</ele>
        <time>2019-07-16T13:42:45Z</time>
      </trkpt>
      <trkpt lat="48.44705" lon="-1.48642">
        <ele>45.3</ele>
        <time>2019-07-16T13:42:46Z</time>
      </trkpt>
      <trkpt lat="48.44712" lon="-1.4864">
        <ele>45.2</ele>
        <time>2019-07-16T13:42:47Z</time>
      </trkpt>
      <trkpt lat="48.44719" lon="-1.48639">
        <ele>45.2</ele>
        <time>2019-07-16T13:42:48Z</time>
      </trkpt>
      <trkpt lat="48.44726" lon="-1.48638">
        <ele>45.3</ele>
        <time>2019-07-16T13:42:49Z</time>
      </trkpt>
      <trkpt lat="48.44732" lon="-1.48638">
        <ele>45</ele>
        <time>2019-07-16T13:42:50Z</time>
      </trkpt>
      <trkpt lat="48.44739" lon="-1.48638">
        <ele>45.4</ele>
        <time>2019-07-16T13:42:51Z</time>
      </trkpt>
      <trkpt lat="48.44746" lon="-1.48639">
        <ele>45.6</ele>
        <time>2019-07-16T13:42:52Z</time>
      </trkpt>
      <trkpt lat="48.44752" lon="-1.4864">
        <ele>45.7</ele>
        <time>2019-07-16T13:42:53Z</time>
      </trkpt>
      <trkpt lat="48.44759" lon="-1.4864">
        <ele>46</ele>
        <time>2019-07-16T13:42:54Z</time>
      </trkpt>
      <trkpt lat="48.44764" lon="-1.48641">
        <ele>46.4</ele>
        <time>2019-07-16T13:42:55Z</time>
      </trkpt>
      <trkpt lat="48.44769" lon="-1.48642">
        <ele>46.6</ele>
        <time>2019-07-16T13:42:56Z</time>
      </trkpt>
      <trkpt lat="48.44774" lon="-1.48644">
        <ele>46.7</ele>
        <time>2019-07-16T13:42:57Z</time>
      </trkpt>
      <trkpt lat="48.44777" lon="-1.48645">
        <ele>47</ele>
        <time>2019-07-16T13:42:58Z</time>
      </trkpt>
      <trkpt lat="48.44781" lon="-1.48644">
        <ele>47.6</ele>
        <time>2019-07-16T13:42:59Z</time>
      </trkpt>
      <trkpt lat="48.44783" lon="-1.48646">
        <ele>48.3</ele>
        <time>2019-07-16T13:43:00Z</time>
      </trkpt>
      <trkpt lat="48.44786" lon="-1.48647">
        <ele>48.8</ele>
        <time>2019-07-16T13:43:01Z</time>
      </trkpt>
      <trkpt lat="48.44788" lon="-1.48647">
        <ele>49.2</ele>
        <time>2019-07-16T13:43:02Z</time>
      </trkpt>
      <trkpt lat="48.44791" lon="-1.48648">
        <ele>49.8</ele>
        <time>2019-07-16T13:43:03Z</time>
      </trkpt>
      <trkpt lat="48.44794" lon="-1.48647">
        <ele>50.1</ele>
        <time>2019-07-16T13:43:04Z</time>
      </trkpt>
      <trkpt lat="48.44796" lon="-1.48646">
        <ele>50.3</ele>
        <time>2019-07-16T13:43:05Z</time>
      </trkpt>
      <trkpt lat="48.448" lon="-1.48645">
        <ele>50.8</ele>
        <time>2019-07-16T13:43:06Z</time>
      </trkpt>
      <trkpt lat="48.44803" lon="-1.48644">
        <ele>51.2</ele>
        <time>2019-07-16T13:43:07Z</time>
      </trkpt>
      <trkpt lat="48.44807" lon="-1.48644">
        <ele>51.7</ele>
        <time>2019-07-16T13:43:08Z</time>
      </trkpt>
      <trkpt lat="48.44811" lon="-1.48644">
        <ele>51.3</ele>
        <time>2019-07-16T13:43:09Z</time>
      </trkpt>
      <trkpt lat="48.44813" lon="-1.48644">
        <ele>51.7</ele>
        <time>2019-07-16T13:43:10Z</time>
      </trkpt>
      <trkpt lat="48.44816" lon="-1.48643">
        <ele>51.7</ele>
        <time>2019-07-16T13:43:11Z</time>
      </trkpt>
      <trkpt lat="48.44818" lon="-1.48643">
        <ele>52.3</ele>
        <time>2019-07-16T13:43:12Z</time>
      </trkpt>
      <trkpt lat="48.44821" lon="-1.48643">
        <ele>52.9</ele>
        <time>2019-07-16T13:43:13Z</time>
      </trkpt>
      <trkpt lat="48.44824" lon="-1.48643">
        <ele>53.2</ele>
        <time>2019-07-16T13:43:14Z</time>
      </trkpt>
      <trkpt lat="48.44826" lon="-1.48644">
        <ele>53.6</ele>
        <time>2019-07-16T13:43:15Z</time>
      </trkpt>
      <trkpt lat="48.44828" lon="-1.48644">
        <ele>54.4</ele>
        <time>2019-07-16T13:43:16Z</time>
      </trkpt>
      <trkpt lat="48.44831" lon="-1.48644">
        <ele>55.4</ele>
        <time>2019-07-16T13:43:17Z</time>
      </trkpt>
      <trkpt lat="48.44833" lon="-1.48643">
        <ele>56.2</ele>
        <time>2019-07-16T13:43:18Z</time>
      </trkpt>
      <trkpt lat="48.44837" lon="-1.48643">
        <ele>55.5</ele>
        <time>2019-07-16T13:43:19Z</time>
      </trkpt>
      <trkpt lat="48.44841" lon="-1.48643">
        <ele>54.5</ele>
        <time>2019-07-16T13:43:20Z</time>
      </trkpt>
      <trkpt lat="48.44844" lon="-1.48644">
        <ele>53.7</ele>
        <time>2019-07-16T13:43:21Z</time>
      </trkpt>
      <trkpt lat="48.44848" lon="-1.48644">
        <ele>53</ele>
        <time>2019-07-16T13:43:22Z</time>
      </trkpt>
      <trkpt lat="48.4485" lon="-1.48644">
        <ele>52.7</ele>
        <time>2019-07-16T13:43:23Z</time>
      </trkpt>
      <trkpt lat="48.44853" lon="-1.48645">
        <ele>52.8</ele>
        <time>2019-07-16T13:43:24Z</time>
      </trkpt>
      <trkpt lat="48.44856" lon="-1.48645">
        <ele>53.2</ele>
        <time>2019-07-16T13:43:25Z</time>
      </trkpt>
      <trkpt lat="48.44859" lon="-1.48645">
        <ele>53.4</ele>
        <time>2019-07-16T13:43:26Z</time>
      </trkpt>
      <trkpt lat="48.44863" lon="-1.48645">
        <ele>52.5</ele>
        <time>2019-07-16T13:43:27Z</time>
      </trkpt>
      <trkpt lat="48.44865" lon="-1.48645">
        <ele>52.2</ele>
        <time>2019-07-16T13:43:28Z</time>
      </trkpt>
      <trkpt lat="48.44868" lon="-1.48645">
        <ele>51.4</ele>
        <time>2019-07-16T13:43:29Z</time>
      </trkpt>
      <trkpt lat="48.44871" lon="-1.48645">
        <ele>50.8</ele>
        <time>2019-07-16T13:43:30Z</time>
      </trkpt>
      <trkpt lat="48.44873" lon="-1.48646">
        <ele>50.8</ele>
        <time>2019-07-16T13:43:31Z</time>
      </trkpt>
      <trkpt lat="48.44877" lon="-1.48646">
        <ele>50.3</ele>
        <time>2019-07-16T13:43:32Z</time>
      </trkpt>
      <trkpt lat="48.4488" lon="-1.48647">
        <ele>49.4</ele>
        <time>2019-07-16T13:43:33Z</time>
      </trkpt>
      <trkpt lat="48.44884" lon="-1.48647">
        <ele>47.2</ele>
        <time>2019-07-16T13:43:34Z</time>
      </trkpt>
      <trkpt lat="48.44887" lon="-1.48649">
        <ele>46.6</ele>
        <time>2019-07-16T13:43:35Z</time>
      </trkpt>
      <trkpt lat="48.4489" lon="-1.48649">
        <ele>45.6</ele>
        <time>2019-07-16T13:43:36Z</time>
      </trkpt>
      <trkpt lat="48.44894" lon="-1.48649">
        <ele>44.3</ele>
        <time>2019-07-16T13:43:37Z</time>
      </trkpt>
      <trkpt lat="48.44897" lon="-1.48648">
        <ele>43.9</ele>
        <time>2019-07-16T13:43:38Z</time>
      </trkpt>
      <trkpt lat="48.449" lon="-1.48648">
        <ele>43.6</ele>
        <time>2019-07-16T13:43:39Z</time>
      </trkpt>
      <trkpt lat="48.44902" lon="-1.48647">
        <ele>43.5</ele>
        <time>2019-07-16T13:43:40Z</time>
      </trkpt>
      <trkpt lat="48.44904" lon="-1.48647">
        <ele>43.4</ele>
        <time>2019-07-16T13:43:41Z</time>
      </trkpt>
      <trkpt lat="48.44906" lon="-1.48647">
        <ele>43.2</ele>
        <time>2019-07-16T13:43:42Z</time>
      </trkpt>
      <trkpt lat="48.44908" lon="-1.48647">
        <ele>43.4</ele>
        <time>2019-07-16T13:43:43Z</time>
      </trkpt>
      <trkpt lat="48.44909" lon="-1.48647">
        <ele>43.9</ele>
        <time>2019-07-16T13:43:44Z</time>
      </trkpt>
      <trkpt lat="48.4491" lon="-1.48647">
        <ele>44.3</ele>
        <time>2019-07-16T13:43:45Z</time>
      </trkpt>
      <trkpt lat="48.44911" lon="-1.48647">
        <ele>44.6</ele>
        <time>2019-07-16T13:43:46Z</time>
      </trkpt>
      <trkpt lat="48.44912" lon="-1.48646">
        <ele>45.1</ele>
        <time>2019-07-16T13:43:47Z</time>
      </trkpt>
      <trkpt lat="48.44914" lon="-1.48645">
        <ele>45.8</ele>
        <time>2019-07-16T13:43:48Z</time>
      </trkpt>
      <trkpt lat="48.44915" lon="-1.48645">
        <ele>46.3</ele>
        <time>2019-07-16T13:43:49Z</time>
      </trkpt>
      <trkpt lat="48.44917" lon="-1.48644">
        <ele>47</ele>
        <time>2019-07-16T13:43:50Z</time>
      </trkpt>
      <trkpt lat="48.44919" lon="-1.48644">
        <ele>47.8</ele>
        <time>2019-07-16T13:43:51Z</time>
      </trkpt>
      <trkpt lat="48.44922" lon="-1.48644">
        <ele>48.5</ele>
        <time>2019-07-16T13:43:52Z</time>
      </trkpt>
      <trkpt lat="48.44924" lon="-1.48643">
        <ele>49.5</ele>
        <time>2019-07-16T13:43:53Z</time>
      </trkpt>
      <trkpt lat="48.44926" lon="-1.48643">
        <ele>49.9</ele>
        <time>2019-07-16T13:43:54Z</time>
      </trkpt>
      <trkpt lat="48.4493" lon="-1.48642">
        <ele>49</ele>
        <time>2019-07-16T13:43:55Z</time>
      </trkpt>
      <trkpt lat="48.44934" lon="-1.4864">
        <ele>48.3</ele>
        <time>2019-07-16T13:43:56Z</time>
      </trkpt>
      <trkpt lat="48.44938" lon="-1.48639">
        <ele>47.5</ele>
        <time>2019-07-16T13:43:57Z</time>
      </trkpt>
      <trkpt lat="48.4494" lon="-1.48638">
        <ele>47.1</ele>
        <time>2019-07-16T13:43:58Z</time>
      </trkpt>
      <trkpt lat="48.44943" lon="-1.48637">
        <ele>47.2</ele>
        <time>2019-07-16T13:43:59Z</time>
      </trkpt>
      <trkpt lat="48.44945" lon="-1.48636">
        <ele>47.2</ele>
        <time>2019-07-16T13:44:00Z</time>
      </trkpt>
      <trkpt lat="48.44948" lon="-1.48634">
        <ele>47.4</ele>
        <time>2019-07-16T13:44:01Z</time>
      </trkpt>
      <trkpt lat="48.4495" lon="-1.48633">
        <ele>47.5</ele>
        <time>2019-07-16T13:44:02Z</time>
      </trkpt>
      <trkpt lat="48.44953" lon="-1.48632">
        <ele>47.7</ele>
        <time>2019-07-16T13:44:03Z</time>
      </trkpt>
      <trkpt lat="48.44956" lon="-1.48631">
        <ele>47.8</ele>
        <time>2019-07-16T13:44:04Z</time>
      </trkpt>
      <trkpt lat="48.44959" lon="-1.4863">
        <ele>47.8</ele>
        <time>2019-07-16T13:44:05Z</time>
      </trkpt>
      <trkpt lat="48.44961" lon="-1.48629">
        <ele>48</ele>
        <time>2019-07-16T13:44:06Z</time>
      </trkpt>
      <trkpt lat="48.44964" lon="-1.48628">
        <ele>48.1</ele>
        <time>2019-07-16T13:44:07Z</time>
      </trkpt>
      <trkpt lat="48.44967" lon="-1.48626">
        <ele>48.2</ele>
        <time>2019-07-16T13:44:08Z</time>
      </trkpt>
      <trkpt lat="48.4497" lon="-1.48625">
        <ele>48.5</ele>
        <time>2019-07-16T13:44:09Z</time>
      </trkpt>
      <trkpt lat="48.44972" lon="-1.48625">
        <ele>48.5</ele>
        <time>2019-07-16T13:44:10Z</time>
      </trkpt>
      <trkpt lat="48.44975" lon="-1.48624">
        <ele>48.6</ele>
        <time>2019-07-16T13:44:11Z</time>
      </trkpt>
      <trkpt lat="48.44978" lon="-1.48623">
        <ele>48.9</ele>
        <time>2019-07-16T13:44:12Z</time>
      </trkpt>
      <trkpt lat="48.44981" lon="-1.48622">
        <ele>49.1</ele>
        <time>2019-07-16T13:44:13Z</time>
      </trkpt>
      <trkpt lat="48.44983" lon="-1.48622">
        <ele>49.5</ele>
        <time>2019-07-16T13:44:14Z</time>
      </trkpt>
      <trkpt lat="48.44986" lon="-1.48621">
        <ele>49.8</ele>
        <time>2019-07-16T13:44:15Z</time>
      </trkpt>
      <trkpt lat="48.44989" lon="-1.4862">
        <ele>49.6</ele>
        <time>2019-07-16T13:44:16Z</time>
      </trkpt>
      <trkpt lat="48.44991" lon="-1.48619">
        <ele>49.6</ele>
        <time>2019-07-16T13:44:17Z</time>
      </trkpt>
      <trkpt lat="48.44994" lon="-1.48618">
        <ele>49.4</ele>
        <time>2019-07-16T13:44:18Z</time>
      </trkpt>
      <trkpt lat="48.44997" lon="-1.48617">
        <ele>49.7</ele>
        <time>2019-07-16T13:44:19Z</time>
      </trkpt>
      <trkpt lat="48.44999" lon="-1.48616">
        <ele>49.7</ele>
        <time>2019-07-16T13:44:20Z</time>
      </trkpt>
      <trkpt lat="48.45002" lon="-1.48614">
        <ele>49.5</ele>
        <time>2019-07-16T13:44:21Z</time>
      </trkpt>
      <trkpt lat="48.45005" lon="-1.48613">
        <ele>49.5</ele>
        <time>2019-07-16T13:44:22Z</time>
      </trkpt>
      <trkpt lat="48.45008" lon="-1.48612">
        <ele>49.4</ele>
        <time>2019-07-16T13:44:23Z</time>
      </trkpt>
      <trkpt lat="48.45011" lon="-1.48611">
        <ele>49.1</ele>
        <time>2019-07-16T13:44:24Z</time>
      </trkpt>
      <trkpt lat="48.45013" lon="-1.48609">
        <ele>49.2</ele>
        <time>2019-07-16T13:44:25Z</time>
      </trkpt>
      <trkpt lat="48.45017" lon="-1.48608">
        <ele>49</ele>
        <time>2019-07-16T13:44:26Z</time>
      </trkpt>
      <trkpt lat="48.45019" lon="-1.48607">
        <ele>48.4</ele>
        <time>2019-07-16T13:44:27Z</time>
      </trkpt>
      <trkpt lat="48.45022" lon="-1.48606">
        <ele>48.3</ele>
        <time>2019-07-16T13:44:28Z</time>
      </trkpt>
      <trkpt lat="48.45025" lon="-1.48605">
        <ele>48.4</ele>
        <time>2019-07-16T13:44:29Z</time>
      </trkpt>
      <trkpt lat="48.45028" lon="-1.48604">
        <ele>48.8</ele>
        <time>2019-07-16T13:44:30Z</time>
      </trkpt>
      <trkpt lat="48.45031" lon="-1.48603">
        <ele>48.4</ele>
        <time>2019-07-16T13:44:31Z</time>
      </trkpt>
      <trkpt lat="48.45035" lon="-1.48602">
        <ele>48.8</ele>
        <time>2019-07-16T13:44:32Z</time>
      </trkpt>
      <trkpt lat="48.45038" lon="-1.48601">
        <ele>49.3</ele>
        <time>2019-07-16T13:44:33Z</time>
      </trkpt>
      <trkpt lat="48.45041" lon="-1.486">
        <ele>49.7</ele>
        <time>2019-07-16T13:44:34Z</time>
      </trkpt>
      <trkpt lat="48.45044" lon="-1.48598">
        <ele>49.9</ele>
        <time>2019-07-16T13:44:35Z</time>
      </trkpt>
      <trkpt lat="48.45047" lon="-1.48598">
        <ele>49.9</ele>
        <time>2019-07-16T13:44:36Z</time>
      </trkpt>
      <trkpt lat="48.4505" lon="-1.48596">
        <ele>50.1</ele>
        <time>2019-07-16T13:44:37Z</time>
      </trkpt>
      <trkpt lat="48.45052" lon="-1.48595">
        <ele>50.6</ele>
        <time>2019-07-16T13:44:38Z</time>
      </trkpt>
      <trkpt lat="48.45055" lon="-1.48594">
        <ele>51.1</ele>
        <time>2019-07-16T13:44:39Z</time>
      </trkpt>
      <trkpt lat="48.45058" lon="-1.48593">
        <ele>51.2</ele>
        <time>2019-07-16T13:44:40Z</time>
      </trkpt>
      <trkpt lat="48.45062" lon="-1.48591">
        <ele>51</ele>
        <time>2019-07-16T13:44:41Z</time>
      </trkpt>
      <trkpt lat="48.45065" lon="-1.4859">
        <ele>50.9</ele>
        <time>2019-07-16T13:44:42Z</time>
      </trkpt>
      <trkpt lat="48.45068" lon="-1.48589">
        <ele>50.4</ele>
        <time>2019-07-16T13:44:43Z</time>
      </trkpt>
      <trkpt lat="48.45072" lon="-1.48587">
        <ele>49.9</ele>
        <time>2019-07-16T13:44:44Z</time>
      </trkpt>
      <trkpt lat="48.45076" lon="-1.48586">
        <ele>49.6</ele>
        <time>2019-07-16T13:44:45Z</time>
      </trkpt>
      <trkpt lat="48.45079" lon="-1.48584">
        <ele>49.7</ele>
        <time>2019-07-16T13:44:46Z</time>
      </trkpt>
      <trkpt lat="48.45082" lon="-1.48583">
        <ele>49.7</ele>
        <time>2019-07-16T13:44:47Z</time>
      </trkpt>
      <trkpt lat="48.45085" lon="-1.48582">
        <ele>49.9</ele>
        <time>2019-07-16T13:44:48Z</time>
      </trkpt>
      <trkpt lat="48.45089" lon="-1.48581">
        <ele>49.8</ele>
        <time>2019-07-16T13:44:49Z</time>
      </trkpt>
      <trkpt lat="48.45092" lon="-1.4858">
        <ele>49.7</ele>
        <time>2019-07-16T13:44:50Z</time>
      </trkpt>
      <trkpt lat="48.45095" lon="-1.48579">
        <ele>49.9</ele>
        <time>2019-07-16T13:44:51Z</time>
      </trkpt>
      <trkpt lat="48.45099" lon="-1.48578">
        <ele>49.7</ele>
        <time>2019-07-16T13:44:52Z</time>
      </trkpt>
      <trkpt lat="48.45102" lon="-1.48577">
        <ele>49.7</ele>
        <time>2019-07-16T13:44:53Z</time>
      </trkpt>
      <trkpt lat="48.45105" lon="-1.48576">
        <ele>49.3</ele>
        <time>2019-07-16T13:44:54Z</time>
      </trkpt>
      <trkpt lat="48.45109" lon="-1.48574">
        <ele>49.7</ele>
        <time>2019-07-16T13:44:55Z</time>
      </trkpt>
      <trkpt lat="48.45112" lon="-1.48573">
        <ele>50.2</ele>
        <time>2019-07-16T13:44:56Z</time>
      </trkpt>
      <trkpt lat="48.45115" lon="-1.48572">
        <ele>50.6</ele>
        <time>2019-07-16T13:44:57Z</time>
      </trkpt>
      <trkpt lat="48.45119" lon="-1.48572">
        <ele>50.4</ele>
        <time>2019-07-16T13:44:58Z</time>
      </trkpt>
      <trkpt lat="48.45122" lon="-1.48571">
        <ele>50.6</ele>
        <time>2019-07-16T13:44:59Z</time>
      </trkpt>
      <trkpt lat="48.45126" lon="-1.48569">
        <ele>50.7</ele>
        <time>2019-07-16T13:45:00Z</time>
      </trkpt>
      <trkpt lat="48.45129" lon="-1.48568">
        <ele>50.8</ele>
        <time>2019-07-16T13:45:01Z</time>
      </trkpt>
      <trkpt lat="48.45133" lon="-1.48566">
        <ele>50.8</ele>
        <time>2019-07-16T13:45:02Z</time>
      </trkpt>
      <trkpt lat="48.45137" lon="-1.48565">
        <ele>50.4</ele>
        <time>2019-07-16T13:45:03Z</time>
      </trkpt>
      <trkpt lat="48.45141" lon="-1.48564">
        <ele>50.1</ele>
        <time>2019-07-16T13:45:04Z</time>
      </trkpt>
      <trkpt lat="48.45144" lon="-1.48564">
        <ele>50.5</ele>
        <time>2019-07-16T13:45:05Z</time>
      </trkpt>
      <trkpt lat="48.45148" lon="-1.48563">
        <ele>50.2</ele>
        <time>2019-07-16T13:45:06Z</time>
      </trkpt>
      <trkpt lat="48.45152" lon="-1.48562">
        <ele>50.1</ele>
        <time>2019-07-16T13:45:07Z</time>
      </trkpt>
      <trkpt lat="48.45156" lon="-1.48561">
        <ele>50.2</ele>
        <time>2019-07-16T13:45:08Z</time>
      </trkpt>
      <trkpt lat="48.4516" lon="-1.4856">
        <ele>49.5</ele>
        <time>2019-07-16T13:45:09Z</time>
      </trkpt>
      <trkpt lat="48.45163" lon="-1.48561">
        <ele>48.3</ele>
        <time>2019-07-16T13:45:10Z</time>
      </trkpt>
      <trkpt lat="48.45168" lon="-1.48561">
        <ele>47.7</ele>
        <time>2019-07-16T13:45:11Z</time>
      </trkpt>
      <trkpt lat="48.45173" lon="-1.48561">
        <ele>47.1</ele>
        <time>2019-07-16T13:45:12Z</time>
      </trkpt>
      <trkpt lat="48.45178" lon="-1.4856">
        <ele>46.5</ele>
        <time>2019-07-16T13:45:13Z</time>
      </trkpt>
      <trkpt lat="48.45182" lon="-1.4856">
        <ele>45.7</ele>
        <time>2019-07-16T13:45:14Z</time>
      </trkpt>
      <trkpt lat="48.45187" lon="-1.48559">
        <ele>45.5</ele>
        <time>2019-07-16T13:45:15Z</time>
      </trkpt>
      <trkpt lat="48.45191" lon="-1.48559">
        <ele>45.8</ele>
        <time>2019-07-16T13:45:16Z</time>
      </trkpt>
      <trkpt lat="48.45195" lon="-1.48559">
        <ele>45.3</ele>
        <time>2019-07-16T13:45:17Z</time>
      </trkpt>
      <trkpt lat="48.45199" lon="-1.48559">
        <ele>45.8</ele>
        <time>2019-07-16T13:45:18Z</time>
      </trkpt>
      <trkpt lat="48.45203" lon="-1.4856">
        <ele>46.6</ele>
        <time>2019-07-16T13:45:19Z</time>
      </trkpt>
      <trkpt lat="48.45207" lon="-1.4856">
        <ele>46.7</ele>
        <time>2019-07-16T13:45:20Z</time>
      </trkpt>
      <trkpt lat="48.45211" lon="-1.4856">
        <ele>47</ele>
        <time>2019-07-16T13:45:21Z</time>
      </trkpt>
      <trkpt lat="48.45215" lon="-1.48559">
        <ele>47.3</ele>
        <time>2019-07-16T13:45:22Z</time>
      </trkpt>
      <trkpt lat="48.45219" lon="-1.48559">
        <ele>47.6</ele>
        <time>2019-07-16T13:45:23Z</time>
      </trkpt>
      <trkpt lat="48.45222" lon="-1.4856">
        <ele>47.6</ele>
        <time>2019-07-16T13:45:24Z</time>
      </trkpt>
      <trkpt lat="48.45225" lon="-1.4856">
        <ele>48.1</ele>
        <time>2019-07-16T13:45:25Z</time>
      </trkpt>
      <trkpt lat="48.45229" lon="-1.4856">
        <ele>48.3</ele>
        <time>2019-07-16T13:45:26Z</time>
      </trkpt>
      <trkpt lat="48.45233" lon="-1.48561">
        <ele>48.6</ele>
        <time>2019-07-16T13:45:27Z</time>
      </trkpt>
      <trkpt lat="48.45236" lon="-1.48561">
        <ele>48.7</ele>
        <time>2019-07-16T13:45:28Z</time>
      </trkpt>
      <trkpt lat="48.45241" lon="-1.48561">
        <ele>48.5</ele>
        <time>2019-07-16T13:45:29Z</time>
      </trkpt>
      <trkpt lat="48.45244" lon="-1.48561">
        <ele>49</ele>
        <time>2019-07-16T13:45:30Z</time>
      </trkpt>
      <trkpt lat="48.45248" lon="-1.4856">
        <ele>49.7</ele>
        <time>2019-07-16T13:45:31Z</time>
      </trkpt>
      <trkpt lat="48.45252" lon="-1.48561">
        <ele>50.8</ele>
        <time>2019-07-16T13:45:32Z</time>
      </trkpt>
      <trkpt lat="48.45257" lon="-1.48562">
        <ele>51.6</ele>
        <time>2019-07-16T13:45:33Z</time>
      </trkpt>
      <trkpt lat="48.4526" lon="-1.48562">
        <ele>52.7</ele>
        <time>2019-07-16T13:45:34Z</time>
      </trkpt>
      <trkpt lat="48.45265" lon="-1.48563">
        <ele>51.5</ele>
        <time>2019-07-16T13:45:35Z</time>
      </trkpt>
      <trkpt lat="48.4527" lon="-1.48563">
        <ele>50.9</ele>
        <time>2019-07-16T13:45:36Z</time>
      </trkpt>
      <trkpt lat="48.45274" lon="-1.48563">
        <ele>49.5</ele>
        <time>2019-07-16T13:45:37Z</time>
      </trkpt>
      <trkpt lat="48.45278" lon="-1.48563">
        <ele>48.2</ele>
        <time>2019-07-16T13:45:38Z</time>
      </trkpt>
      <trkpt lat="48.45282" lon="-1.48563">
        <ele>47</ele>
        <time>2019-07-16T13:45:39Z</time>
      </trkpt>
      <trkpt lat="48.45287" lon="-1.48563">
        <ele>46.4</ele>
        <time>2019-07-16T13:45:40Z</time>
      </trkpt>
      <trkpt lat="48.45291" lon="-1.48563">
        <ele>45.6</ele>
        <time>2019-07-16T13:45:41Z</time>
      </trkpt>
      <trkpt lat="48.45295" lon="-1.48563">
        <ele>45.3</ele>
        <time>2019-07-16T13:45:42Z</time>
      </trkpt>
      <trkpt lat="48.45299" lon="-1.48563">
        <ele>45.4</ele>
        <time>2019-07-16T13:45:43Z</time>
      </trkpt>
      <trkpt lat="48.45303" lon="-1.48563">
        <ele>45.9</ele>
        <time>2019-07-16T13:45:44Z</time>
      </trkpt>
      <trkpt lat="48.45308" lon="-1.48563">
        <ele>47.3</ele>
        <time>2019-07-16T13:45:45Z</time>
      </trkpt>
      <trkpt lat="48.45314" lon="-1.48563">
        <ele>47.7</ele>
        <time>2019-07-16T13:45:46Z</time>
      </trkpt>
      <trkpt lat="48.45319" lon="-1.48563">
        <ele>47.5</ele>
        <time>2019-07-16T13:45:47Z</time>
      </trkpt>
      <trkpt lat="48.45324" lon="-1.48563">
        <ele>47</ele>
        <time>2019-07-16T13:45:48Z</time>
      </trkpt>
      <trkpt lat="48.45329" lon="-1.48563">
        <ele>46.4</ele>
        <time>2019-07-16T13:45:49Z</time>
      </trkpt>
      <trkpt lat="48.45334" lon="-1.48562">
        <ele>46</ele>
        <time>2019-07-16T13:45:50Z</time>
      </trkpt>
      <trkpt lat="48.45339" lon="-1.48561">
        <ele>46.3</ele>
        <time>2019-07-16T13:45:51Z</time>
      </trkpt>
      <trkpt lat="48.45344" lon="-1.4856">
        <ele>45.9</ele>
        <time>2019-07-16T13:45:52Z</time>
      </trkpt>
      <trkpt lat="48.45354" lon="-1.48559">
        <ele>45.2</ele>
        <time>2019-07-16T13:45:54Z</time>
      </trkpt>
      <trkpt lat="48.45358" lon="-1.48557">
        <ele>44.9</ele>
        <time>2019-07-16T13:45:55Z</time>
      </trkpt>
      <trkpt lat="48.45363" lon="-1.48556">
        <ele>45.1</ele>
        <time>2019-07-16T13:45:56Z</time>
      </trkpt>
      <trkpt lat="48.45367" lon="-1.48555">
        <ele>45.3</ele>
        <time>2019-07-16T13:45:57Z</time>
      </trkpt>
      <trkpt lat="48.45372" lon="-1.48554">
        <ele>45</ele>
        <time>2019-07-16T13:45:58Z</time>
      </trkpt>
      <trkpt lat="48.45377" lon="-1.48552">
        <ele>45.5</ele>
        <time>2019-07-16T13:45:59Z</time>
      </trkpt>
      <trkpt lat="48.45381" lon="-1.4855">
        <ele>45.4</ele>
        <time>2019-07-16T13:46:00Z</time>
      </trkpt>
      <trkpt lat="48.45385" lon="-1.48548">
        <ele>45</ele>
        <time>2019-07-16T13:46:01Z</time>
      </trkpt>
      <trkpt lat="48.45389" lon="-1.48547">
        <ele>44.5</ele>
        <time>2019-07-16T13:46:02Z</time>
      </trkpt>
      <trkpt lat="48.45393" lon="-1.48544">
        <ele>43.9</ele>
        <time>2019-07-16T13:46:03Z</time>
      </trkpt>
      <trkpt lat="48.45397" lon="-1.48541">
        <ele>43.2</ele>
        <time>2019-07-16T13:46:04Z</time>
      </trkpt>
      <trkpt lat="48.45401" lon="-1.48539">
        <ele>43.2</ele>
        <time>2019-07-16T13:46:05Z</time>
      </trkpt>
      <trkpt lat="48.45404" lon="-1.48536">
        <ele>43.6</ele>
        <time>2019-07-16T13:46:06Z</time>
      </trkpt>
      <trkpt lat="48.45408" lon="-1.48533">
        <ele>43.6</ele>
        <time>2019-07-16T13:46:07Z</time>
      </trkpt>
      <trkpt lat="48.4541" lon="-1.4853">
        <ele>43.5</ele>
        <time>2019-07-16T13:46:08Z</time>
      </trkpt>
      <trkpt lat="48.45412" lon="-1.48528">
        <ele>43.1</ele>
        <time>2019-07-16T13:46:09Z</time>
      </trkpt>
      <trkpt lat="48.45414" lon="-1.48527">
        <ele>43</ele>
        <time>2019-07-16T13:46:10Z</time>
      </trkpt>
      <trkpt lat="48.45415" lon="-1.48526">
        <ele>43.4</ele>
        <time>2019-07-16T13:46:11Z</time>
      </trkpt>
      <trkpt lat="48.45416" lon="-1.48524">
        <ele>43.8</ele>
        <time>2019-07-16T13:46:12Z</time>
      </trkpt>
      <trkpt lat="48.45418" lon="-1.48524">
        <ele>43.9</ele>
        <time>2019-07-16T13:46:13Z</time>
      </trkpt>
      <trkpt lat="48.4542" lon="-1.48523">
        <ele>43.8</ele>
        <time>2019-07-16T13:46:14Z</time>
      </trkpt>
      <trkpt lat="48.45422" lon="-1.48522">
        <ele>43.8</ele>
        <time>2019-07-16T13:46:15Z</time>
      </trkpt>
      <trkpt lat="48.45425" lon="-1.48522">
        <ele>43.8</ele>
        <time>2019-07-16T13:46:16Z</time>
      </trkpt>
      <trkpt lat="48.45429" lon="-1.48522">
        <ele>43.9</ele>
        <time>2019-07-16T13:46:17Z</time>
      </trkpt>
      <trkpt lat="48.45433" lon="-1.48521">
        <ele>44</ele>
        <time>2019-07-16T13:46:18Z</time>
      </trkpt>
      <trkpt lat="48.45436" lon="-1.48521">
        <ele>44.2</ele>
        <time>2019-07-16T13:46:19Z</time>
      </trkpt>
      <trkpt lat="48.4544" lon="-1.48521">
        <ele>44</ele>
        <time>2019-07-16T13:46:20Z</time>
      </trkpt>
      <trkpt lat="48.45443" lon="-1.48522">
        <ele>44.1</ele>
        <time>2019-07-16T13:46:21Z</time>
      </trkpt>
      <trkpt lat="48.45446" lon="-1.48522">
        <ele>44.5</ele>
        <time>2019-07-16T13:46:22Z</time>
      </trkpt>
      <trkpt lat="48.45448" lon="-1.48523">
        <ele>44.5</ele>
        <time>2019-07-16T13:46:23Z</time>
      </trkpt>
      <trkpt lat="48.45451" lon="-1.48524">
        <ele>44.2</ele>
        <time>2019-07-16T13:46:24Z</time>
      </trkpt>
      <trkpt lat="48.45454" lon="-1.48524">
        <ele>44.1</ele>
        <time>2019-07-16T13:46:25Z</time>
      </trkpt>
      <trkpt lat="48.45458" lon="-1.48523">
        <ele>44.4</ele>
        <time>2019-07-16T13:46:26Z</time>
      </trkpt>
      <trkpt lat="48.45461" lon="-1.48522">
        <ele>44.4</ele>
        <time>2019-07-16T13:46:27Z</time>
      </trkpt>
      <trkpt lat="48.45464" lon="-1.48521">
        <ele>44.3</ele>
        <time>2019-07-16T13:46:28Z</time>
      </trkpt>
      <trkpt lat="48.45468" lon="-1.4852">
        <ele>44.1</ele>
        <time>2019-07-16T13:46:29Z</time>
      </trkpt>
      <trkpt lat="48.45471" lon="-1.48519">
        <ele>44.1</ele>
        <time>2019-07-16T13:46:30Z</time>
      </trkpt>
      <trkpt lat="48.45475" lon="-1.48518">
        <ele>44.3</ele>
        <time>2019-07-16T13:46:31Z</time>
      </trkpt>
      <trkpt lat="48.45478" lon="-1.48517">
        <ele>44.6</ele>
        <time>2019-07-16T13:46:32Z</time>
      </trkpt>
      <trkpt lat="48.45482" lon="-1.48516">
        <ele>44.8</ele>
        <time>2019-07-16T13:46:33Z</time>
      </trkpt>
      <trkpt lat="48.45485" lon="-1.48515">
        <ele>44.8</ele>
        <time>2019-07-16T13:46:34Z</time>
      </trkpt>
      <trkpt lat="48.45489" lon="-1.48514">
        <ele>44.3</ele>
        <time>2019-07-16T13:46:35Z</time>
      </trkpt>
      <trkpt lat="48.45493" lon="-1.48513">
        <ele>44.2</ele>
        <time>2019-07-16T13:46:36Z</time>
      </trkpt>
      <trkpt lat="48.45496" lon="-1.48511">
        <ele>44.2</ele>
        <time>2019-07-16T13:46:37Z</time>
      </trkpt>
      <trkpt lat="48.455" lon="-1.4851">
        <ele>43.9</ele>
        <time>2019-07-16T13:46:38Z</time>
      </trkpt>
      <trkpt lat="48.45504" lon="-1.48509">
        <ele>43.8</ele>
        <time>2019-07-16T13:46:39Z</time>
      </trkpt>
      <trkpt lat="48.45507" lon="-1.48508">
        <ele>43.7</ele>
        <time>2019-07-16T13:46:40Z</time>
      </trkpt>
      <trkpt lat="48.45511" lon="-1.48508">
        <ele>43.5</ele>
        <time>2019-07-16T13:46:41Z</time>
      </trkpt>
      <trkpt lat="48.45515" lon="-1.48507">
        <ele>43.2</ele>
        <time>2019-07-16T13:46:42Z</time>
      </trkpt>
      <trkpt lat="48.45519" lon="-1.48506">
        <ele>43.3</ele>
        <time>2019-07-16T13:46:43Z</time>
      </trkpt>
      <trkpt lat="48.45522" lon="-1.48504">
        <ele>43.6</ele>
        <time>2019-07-16T13:46:44Z</time>
      </trkpt>
      <trkpt lat="48.45525" lon="-1.48503">
        <ele>44.1</ele>
        <time>2019-07-16T13:46:45Z</time>
      </trkpt>
      <trkpt lat="48.45528" lon="-1.48502">
        <ele>44.5</ele>
        <time>2019-07-16T13:46:46Z</time>
      </trkpt>
      <trkpt lat="48.45532" lon="-1.48501">
        <ele>44.7</ele>
        <time>2019-07-16T13:46:47Z</time>
      </trkpt>
      <trkpt lat="48.45536" lon="-1.485">
        <ele>44.7</ele>
        <time>2019-07-16T13:46:48Z</time>
      </trkpt>
      <trkpt lat="48.4554" lon="-1.48499">
        <ele>44.6</ele>
        <time>2019-07-16T13:46:49Z</time>
      </trkpt>
      <trkpt lat="48.45544" lon="-1.48499">
        <ele>44.4</ele>
        <time>2019-07-16T13:46:50Z</time>
      </trkpt>
      <trkpt lat="48.45548" lon="-1.48498">
        <ele>44.1</ele>
        <time>2019-07-16T13:46:51Z</time>
      </trkpt>
      <trkpt lat="48.45552" lon="-1.48497">
        <ele>44.4</ele>
        <time>2019-07-16T13:46:52Z</time>
      </trkpt>
      <trkpt lat="48.45556" lon="-1.48497">
        <ele>44.2</ele>
        <time>2019-07-16T13:46:53Z</time>
      </trkpt>
      <trkpt lat="48.4556" lon="-1.48497">
        <ele>44.3</ele>
        <time>2019-07-16T13:46:54Z</time>
      </trkpt>
      <trkpt lat="48.45563" lon="-1.48496">
        <ele>44.2</ele>
        <time>2019-07-16T13:46:55Z</time>
      </trkpt>
      <trkpt lat="48.45567" lon="-1.48495">
        <ele>44.3</ele>
        <time>2019-07-16T13:46:56Z</time>
      </trkpt>
      <trkpt lat="48.4557" lon="-1.48494">
        <ele>44.5</ele>
        <time>2019-07-16T13:46:57Z</time>
      </trkpt>
      <trkpt lat="48.45574" lon="-1.48493">
        <ele>44.2</ele>
        <time>2019-07-16T13:46:58Z</time>
      </trkpt>
      <trkpt lat="48.45578" lon="-1.48493">
        <ele>44.1</ele>
        <time>2019-07-16T13:46:59Z</time>
      </trkpt>
      <trkpt lat="48.45581" lon="-1.48492">
        <ele>44</ele>
        <time>2019-07-16T13:47:00Z</time>
      </trkpt>
      <trkpt lat="48.45585" lon="-1.48492">
        <ele>44.1</ele>
        <time>2019-07-16T13:47:01Z</time>
      </trkpt>
      <trkpt lat="48.45589" lon="-1.48491">
        <ele>44</ele>
        <time>2019-07-16T13:47:02Z</time>
      </trkpt>
      <trkpt lat="48.45593" lon="-1.48491">
        <ele>43.9</ele>
        <time>2019-07-16T13:47:03Z</time>
      </trkpt>
      <trkpt lat="48.45596" lon="-1.4849">
        <ele>43.9</ele>
        <time>2019-07-16T13:47:04Z</time>
      </trkpt>
      <trkpt lat="48.456" lon="-1.48489">
        <ele>44.1</ele>
        <time>2019-07-16T13:47:05Z</time>
      </trkpt>
      <trkpt lat="48.45604" lon="-1.48488">
        <ele>44.4</ele>
        <time>2019-07-16T13:47:06Z</time>
      </trkpt>
      <trkpt lat="48.45607" lon="-1.48487">
        <ele>44.4</ele>
        <time>2019-07-16T13:47:07Z</time>
      </trkpt>
      <trkpt lat="48.45611" lon="-1.48487">
        <ele>44.4</ele>
        <time>2019-07-16T13:47:08Z</time>
      </trkpt>
      <trkpt lat="48.45615" lon="-1.48487">
        <ele>45.2</ele>
        <time>2019-07-16T13:47:09Z</time>
      </trkpt>
      <trkpt lat="48.45618" lon="-1.48487">
        <ele>45.8</ele>
        <time>2019-07-16T13:47:10Z</time>
      </trkpt>
      <trkpt lat="48.45622" lon="-1.48486">
        <ele>45.8</ele>
        <time>2019-07-16T13:47:11Z</time>
      </trkpt>
      <trkpt lat="48.45626" lon="-1.48486">
        <ele>45.7</ele>
        <time>2019-07-16T13:47:12Z</time>
      </trkpt>
      <trkpt lat="48.4563" lon="-1.48485">
        <ele>45.4</ele>
        <time>2019-07-16T13:47:13Z</time>
      </trkpt>
      <trkpt lat="48.45634" lon="-1.48485">
        <ele>45</ele>
        <time>2019-07-16T13:47:14Z</time>
      </trkpt>
      <trkpt lat="48.45638" lon="-1.48484">
        <ele>45</ele>
        <time>2019-07-16T13:47:15Z</time>
      </trkpt>
      <trkpt lat="48.45642" lon="-1.48483">
        <ele>44.6</ele>
        <time>2019-07-16T13:47:16Z</time>
      </trkpt>
      <trkpt lat="48.45646" lon="-1.48482">
        <ele>44.4</ele>
        <time>2019-07-16T13:47:17Z</time>
      </trkpt>
      <trkpt lat="48.45649" lon="-1.48481">
        <ele>44</ele>
        <time>2019-07-16T13:47:18Z</time>
      </trkpt>
      <trkpt lat="48.45653" lon="-1.4848">
        <ele>44</ele>
        <time>2019-07-16T13:47:19Z</time>
      </trkpt>
      <trkpt lat="48.45657" lon="-1.4848">
        <ele>43.7</ele>
        <time>2019-07-16T13:47:20Z</time>
      </trkpt>
      <trkpt lat="48.45661" lon="-1.48479">
        <ele>43.5</ele>
        <time>2019-07-16T13:47:21Z</time>
      </trkpt>
      <trkpt lat="48.45665" lon="-1.48479">
        <ele>43.7</ele>
        <time>2019-07-16T13:47:22Z</time>
      </trkpt>
      <trkpt lat="48.45668" lon="-1.48479">
        <ele>43.8</ele>
        <time>2019-07-16T13:47:23Z</time>
      </trkpt>
      <trkpt lat="48.45672" lon="-1.48478">
        <ele>43.8</ele>
        <time>2019-07-16T13:47:24Z</time>
      </trkpt>
      <trkpt lat="48.45676" lon="-1.48478">
        <ele>44</ele>
        <time>2019-07-16T13:47:25Z</time>
      </trkpt>
      <trkpt lat="48.4568" lon="-1.48477">
        <ele>43.7</ele>
        <time>2019-07-16T13:47:26Z</time>
      </trkpt>
      <trkpt lat="48.45684" lon="-1.48477">
        <ele>43.5</ele>
        <time>2019-07-16T13:47:27Z</time>
      </trkpt>
      <trkpt lat="48.45688" lon="-1.48477">
        <ele>43.4</ele>
        <time>2019-07-16T13:47:28Z</time>
      </trkpt>
      <trkpt lat="48.45691" lon="-1.48477">
        <ele>43.5</ele>
        <time>2019-07-16T13:47:29Z</time>
      </trkpt>
      <trkpt lat="48.45694" lon="-1.48476">
        <ele>43.7</ele>
        <time>2019-07-16T13:47:30Z</time>
      </trkpt>
      <trkpt lat="48.45698" lon="-1.48475">
        <ele>43.4</ele>
        <time>2019-07-16T13:47:31Z</time>
      </trkpt>
      <trkpt lat="48.45702" lon="-1.48475">
        <ele>43.5</ele>
        <time>2019-07-16T13:47:32Z</time>
      </trkpt>
      <trkpt lat="48.45706" lon="-1.48475">
        <ele>43.8</ele>
        <time>2019-07-16T13:47:33Z</time>
      </trkpt>
      <trkpt lat="48.4571" lon="-1.48474">
        <ele>43.6</ele>
        <time>2019-07-16T13:47:34Z</time>
      </trkpt>
      <trkpt lat="48.45713" lon="-1.48474">
        <ele>43</ele>
        <time>2019-07-16T13:47:35Z</time>
      </trkpt>
      <trkpt lat="48.45717" lon="-1.48474">
        <ele>42.4</ele>
        <time>2019-07-16T13:47:36Z</time>
      </trkpt>
      <trkpt lat="48.45721" lon="-1.48474">
        <ele>42</ele>
        <time>2019-07-16T13:47:37Z</time>
      </trkpt>
      <trkpt lat="48.45725" lon="-1.48474">
        <ele>41.7</ele>
        <time>2019-07-16T13:47:38Z</time>
      </trkpt>
      <trkpt lat="48.45729" lon="-1.48474">
        <ele>42</ele>
        <time>2019-07-16T13:47:39Z</time>
      </trkpt>
      <trkpt lat="48.45732" lon="-1.48475">
        <ele>42</ele>
        <time>2019-07-16T13:47:40Z</time>
      </trkpt>
      <trkpt lat="48.45736" lon="-1.48476">
        <ele>41.8</ele>
        <time>2019-07-16T13:47:41Z</time>
      </trkpt>
      <trkpt lat="48.45739" lon="-1.48475">
        <ele>41.6</ele>
        <time>2019-07-16T13:47:42Z</time>
      </trkpt>
      <trkpt lat="48.45741" lon="-1.48475">
        <ele>41.5</ele>
        <time>2019-07-16T13:47:43Z</time>
      </trkpt>
      <trkpt lat="48.45743" lon="-1.48475">
        <ele>41.3</ele>
        <time>2019-07-16T13:47:44Z</time>
      </trkpt>
      <trkpt lat="48.45747" lon="-1.48476">
        <ele>41.2</ele>
        <time>2019-07-16T13:48:19Z</time>
      </trkpt>
      <trkpt lat="48.45748" lon="-1.48478">
        <ele>41.4</ele>
        <time>2019-07-16T13:48:20Z</time>
      </trkpt>
      <trkpt lat="48.45749" lon="-1.4848">
        <ele>41.5</ele>
        <time>2019-07-16T13:48:21Z</time>
      </trkpt>
      <trkpt lat="48.45751" lon="-1.48481">
        <ele>41.7</ele>
        <time>2019-07-16T13:48:22Z</time>
      </trkpt>
      <trkpt lat="48.45753" lon="-1.48482">
        <ele>41.8</ele>
        <time>2019-07-16T13:48:23Z</time>
      </trkpt>
      <trkpt lat="48.45755" lon="-1.48483">
        <ele>41.8</ele>
        <time>2019-07-16T13:48:24Z</time>
      </trkpt>
      <trkpt lat="48.45758" lon="-1.48485">
        <ele>42</ele>
        <time>2019-07-16T13:48:25Z</time>
      </trkpt>
      <trkpt lat="48.4576" lon="-1.48486">
        <ele>42.3</ele>
        <time>2019-07-16T13:48:26Z</time>
      </trkpt>
      <trkpt lat="48.45763" lon="-1.48488">
        <ele>42.4</ele>
        <time>2019-07-16T13:48:27Z</time>
      </trkpt>
      <trkpt lat="48.45766" lon="-1.4849">
        <ele>42.2</ele>
        <time>2019-07-16T13:48:28Z</time>
      </trkpt>
      <trkpt lat="48.45769" lon="-1.48491">
        <ele>42.3</ele>
        <time>2019-07-16T13:48:29Z</time>
      </trkpt>
      <trkpt lat="48.45773" lon="-1.48493">
        <ele>42.1</ele>
        <time>2019-07-16T13:48:30Z</time>
      </trkpt>
      <trkpt lat="48.45776" lon="-1.48495">
        <ele>42.3</ele>
        <time>2019-07-16T13:48:31Z</time>
      </trkpt>
      <trkpt lat="48.45779" lon="-1.48497">
        <ele>42.2</ele>
        <time>2019-07-16T13:48:32Z</time>
      </trkpt>
      <trkpt lat="48.45783" lon="-1.48499">
        <ele>41.9</ele>
        <time>2019-07-16T13:48:33Z</time>
      </trkpt>
      <trkpt lat="48.45786" lon="-1.485">
        <ele>41.9</ele>
        <time>2019-07-16T13:48:34Z</time>
      </trkpt>
      <trkpt lat="48.45789" lon="-1.48501">
        <ele>42</ele>
        <time>2019-07-16T13:48:35Z</time>
      </trkpt>
      <trkpt lat="48.45792" lon="-1.48503">
        <ele>42.4</ele>
        <time>2019-07-16T13:48:36Z</time>
      </trkpt>
      <trkpt lat="48.45795" lon="-1.48505">
        <ele>42.8</ele>
        <time>2019-07-16T13:48:37Z</time>
      </trkpt>
      <trkpt lat="48.45799" lon="-1.48507">
        <ele>43</ele>
        <time>2019-07-16T13:48:38Z</time>
      </trkpt>
      <trkpt lat="48.45802" lon="-1.48509">
        <ele>43</ele>
        <time>2019-07-16T13:48:39Z</time>
      </trkpt>
      <trkpt lat="48.45805" lon="-1.48511">
        <ele>43.1</ele>
        <time>2019-07-16T13:48:40Z</time>
      </trkpt>
      <trkpt lat="48.45809" lon="-1.48513">
        <ele>43.2</ele>
        <time>2019-07-16T13:48:41Z</time>
      </trkpt>
      <trkpt lat="48.45813" lon="-1.48515">
        <ele>43.1</ele>
        <time>2019-07-16T13:48:42Z</time>
      </trkpt>
      <trkpt lat="48.45816" lon="-1.48516">
        <ele>43.1</ele>
        <time>2019-07-16T13:48:43Z</time>
      </trkpt>
      <trkpt lat="48.4582" lon="-1.48518">
        <ele>43.2</ele>
        <time>2019-07-16T13:48:44Z</time>
      </trkpt>
      <trkpt lat="48.45823" lon="-1.4852">
        <ele>43.4</ele>
        <time>2019-07-16T13:48:45Z</time>
      </trkpt>
      <trkpt lat="48.45826" lon="-1.48522">
        <ele>43.5</ele>
        <time>2019-07-16T13:48:46Z</time>
      </trkpt>
      <trkpt lat="48.45829" lon="-1.48523">
        <ele>43.5</ele>
        <time>2019-07-16T13:48:47Z</time>
      </trkpt>
      <trkpt lat="48.45832" lon="-1.48525">
        <ele>43.7</ele>
        <time>2019-07-16T13:48:48Z</time>
      </trkpt>
      <trkpt lat="48.45836" lon="-1.48527">
        <ele>43.8</ele>
        <time>2019-07-16T13:48:49Z</time>
      </trkpt>
      <trkpt lat="48.45839" lon="-1.48529">
        <ele>43.9</ele>
        <time>2019-07-16T13:48:50Z</time>
      </trkpt>
      <trkpt lat="48.45842" lon="-1.4853">
        <ele>43.9</ele>
        <time>2019-07-16T13:48:51Z</time>
      </trkpt>
      <trkpt lat="48.45846" lon="-1.48532">
        <ele>44.1</ele>
        <time>2019-07-16T13:48:52Z</time>
      </trkpt>
      <trkpt lat="48.45849" lon="-1.48534">
        <ele>44.1</ele>
        <time>2019-07-16T13:48:53Z</time>
      </trkpt>
      <trkpt lat="48.45853" lon="-1.48535">
        <ele>44.1</ele>
        <time>2019-07-16T13:48:54Z</time>
      </trkpt>
      <trkpt lat="48.45856" lon="-1.48537">
        <ele>44.2</ele>
        <time>2019-07-16T13:48:55Z</time>
      </trkpt>
      <trkpt lat="48.4586" lon="-1.48538">
        <ele>44.3</ele>
        <time>2019-07-16T13:48:56Z</time>
      </trkpt>
      <trkpt lat="48.45863" lon="-1.48539">
        <ele>44.6</ele>
        <time>2019-07-16T13:48:57Z</time>
      </trkpt>
      <trkpt lat="48.45866" lon="-1.4854">
        <ele>44.5</ele>
        <time>2019-07-16T13:48:58Z</time>
      </trkpt>
      <trkpt lat="48.45869" lon="-1.48542">
        <ele>44.6</ele>
        <time>2019-07-16T13:48:59Z</time>
      </trkpt>
      <trkpt lat="48.45873" lon="-1.48543">
        <ele>45.1</ele>
        <time>2019-07-16T13:49:00Z</time>
      </trkpt>
      <trkpt lat="48.45876" lon="-1.48545">
        <ele>45.1</ele>
        <time>2019-07-16T13:49:01Z</time>
      </trkpt>
      <trkpt lat="48.45881" lon="-1.48546">
        <ele>45.2</ele>
        <time>2019-07-16T13:49:02Z</time>
      </trkpt>
      <trkpt lat="48.45884" lon="-1.48547">
        <ele>45</ele>
        <time>2019-07-16T13:49:03Z</time>
      </trkpt>
      <trkpt lat="48.45888" lon="-1.48548">
        <ele>45</ele>
        <time>2019-07-16T13:49:04Z</time>
      </trkpt>
      <trkpt lat="48.45891" lon="-1.48549">
        <ele>45.1</ele>
        <time>2019-07-16T13:49:05Z</time>
      </trkpt>
      <trkpt lat="48.45895" lon="-1.48549">
        <ele>45.3</ele>
        <time>2019-07-16T13:49:06Z</time>
      </trkpt>
      <trkpt lat="48.45899" lon="-1.4855">
        <ele>45.3</ele>
        <time>2019-07-16T13:49:07Z</time>
      </trkpt>
      <trkpt lat="48.45903" lon="-1.48551">
        <ele>45.4</ele>
        <time>2019-07-16T13:49:08Z</time>
      </trkpt>
      <trkpt lat="48.45907" lon="-1.48552">
        <ele>45.8</ele>
        <time>2019-07-16T13:49:09Z</time>
      </trkpt>
      <trkpt lat="48.45911" lon="-1.48553">
        <ele>46.3</ele>
        <time>2019-07-16T13:49:10Z</time>
      </trkpt>
      <trkpt lat="48.45914" lon="-1.48553">
        <ele>46.5</ele>
        <time>2019-07-16T13:49:11Z</time>
      </trkpt>
      <trkpt lat="48.45918" lon="-1.48554">
        <ele>46.5</ele>
        <time>2019-07-16T13:49:12Z</time>
      </trkpt>
      <trkpt lat="48.45921" lon="-1.48554">
        <ele>46.6</ele>
        <time>2019-07-16T13:49:13Z</time>
      </trkpt>
      <trkpt lat="48.45926" lon="-1.48556">
        <ele>45.6</ele>
        <time>2019-07-16T13:49:14Z</time>
      </trkpt>
      <trkpt lat="48.45929" lon="-1.48556">
        <ele>45.1</ele>
        <time>2019-07-16T13:49:15Z</time>
      </trkpt>
      <trkpt lat="48.45933" lon="-1.48557">
        <ele>44.3</ele>
        <time>2019-07-16T13:49:16Z</time>
      </trkpt>
      <trkpt lat="48.45936" lon="-1.48557">
        <ele>44.3</ele>
        <time>2019-07-16T13:49:17Z</time>
      </trkpt>
      <trkpt lat="48.45939" lon="-1.48557">
        <ele>44.3</ele>
        <time>2019-07-16T13:49:18Z</time>
      </trkpt>
      <trkpt lat="48.45942" lon="-1.48556">
        <ele>44.5</ele>
        <time>2019-07-16T13:49:19Z</time>
      </trkpt>
      <trkpt lat="48.45945" lon="-1.48557">
        <ele>44.6</ele>
        <time>2019-07-16T13:49:20Z</time>
      </trkpt>
      <trkpt lat="48.45947" lon="-1.48557">
        <ele>44.8</ele>
        <time>2019-07-16T13:49:21Z</time>
      </trkpt>
      <trkpt lat="48.4595" lon="-1.48556">
        <ele>45.2</ele>
        <time>2019-07-16T13:49:22Z</time>
      </trkpt>
      <trkpt lat="48.45953" lon="-1.48557">
        <ele>45.4</ele>
        <time>2019-07-16T13:49:23Z</time>
      </trkpt>
      <trkpt lat="48.45956" lon="-1.48557">
        <ele>45.7</ele>
        <time>2019-07-16T13:49:24Z</time>
      </trkpt>
      <trkpt lat="48.4596" lon="-1.48557">
        <ele>46.2</ele>
        <time>2019-07-16T13:49:25Z</time>
      </trkpt>
      <trkpt lat="48.45964" lon="-1.48557">
        <ele>46.6</ele>
        <time>2019-07-16T13:49:26Z</time>
      </trkpt>
      <trkpt lat="48.45967" lon="-1.48557">
        <ele>47</ele>
        <time>2019-07-16T13:49:27Z</time>
      </trkpt>
      <trkpt lat="48.4597" lon="-1.48557">
        <ele>47.4</ele>
        <time>2019-07-16T13:49:28Z</time>
      </trkpt>
      <trkpt lat="48.45974" lon="-1.48557">
        <ele>46.8</ele>
        <time>2019-07-16T13:49:29Z</time>
      </trkpt>
      <trkpt lat="48.45978" lon="-1.48557">
        <ele>45.1</ele>
        <time>2019-07-16T13:49:30Z</time>
      </trkpt>
      <trkpt lat="48.45982" lon="-1.48557">
        <ele>44.2</ele>
        <time>2019-07-16T13:49:31Z</time>
      </trkpt>
      <trkpt lat="48.45986" lon="-1.48558">
        <ele>44.1</ele>
        <time>2019-07-16T13:49:32Z</time>
      </trkpt>
      <trkpt lat="48.4599" lon="-1.48559">
        <ele>44</ele>
        <time>2019-07-16T13:49:33Z</time>
      </trkpt>
      <trkpt lat="48.45993" lon="-1.4856">
        <ele>43.8</ele>
        <time>2019-07-16T13:49:34Z</time>
      </trkpt>
      <trkpt lat="48.45997" lon="-1.48561">
        <ele>43.4</ele>
        <time>2019-07-16T13:49:35Z</time>
      </trkpt>
      <trkpt lat="48.46001" lon="-1.48562">
        <ele>42.9</ele>
        <time>2019-07-16T13:49:36Z</time>
      </trkpt>
      <trkpt lat="48.46004" lon="-1.48564">
        <ele>42.7</ele>
        <time>2019-07-16T13:49:37Z</time>
      </trkpt>
      <trkpt lat="48.46008" lon="-1.48566">
        <ele>42.2</ele>
        <time>2019-07-16T13:49:38Z</time>
      </trkpt>
      <trkpt lat="48.46011" lon="-1.48568">
        <ele>41.9</ele>
        <time>2019-07-16T13:49:39Z</time>
      </trkpt>
      <trkpt lat="48.46015" lon="-1.48571">
        <ele>41.5</ele>
        <time>2019-07-16T13:49:40Z</time>
      </trkpt>
      <trkpt lat="48.46018" lon="-1.48574">
        <ele>41.3</ele>
        <time>2019-07-16T13:49:41Z</time>
      </trkpt>
      <trkpt lat="48.46022" lon="-1.48576">
        <ele>41.2</ele>
        <time>2019-07-16T13:49:42Z</time>
      </trkpt>
      <trkpt lat="48.46026" lon="-1.48578">
        <ele>41.2</ele>
        <time>2019-07-16T13:49:43Z</time>
      </trkpt>
      <trkpt lat="48.4603" lon="-1.4858">
        <ele>41.1</ele>
        <time>2019-07-16T13:49:44Z</time>
      </trkpt>
      <trkpt lat="48.46034" lon="-1.48582">
        <ele>41.4</ele>
        <time>2019-07-16T13:49:45Z</time>
      </trkpt>
      <trkpt lat="48.46038" lon="-1.48584">
        <ele>41.7</ele>
        <time>2019-07-16T13:49:46Z</time>
      </trkpt>
      <trkpt lat="48.46042" lon="-1.48586">
        <ele>41.9</ele>
        <time>2019-07-16T13:49:47Z</time>
      </trkpt>
      <trkpt lat="48.46046" lon="-1.48587">
        <ele>41.9</ele>
        <time>2019-07-16T13:49:48Z</time>
      </trkpt>
      <trkpt lat="48.4605" lon="-1.48589">
        <ele>42.1</ele>
        <time>2019-07-16T13:49:49Z</time>
      </trkpt>
      <trkpt lat="48.46052" lon="-1.48591">
        <ele>42.1</ele>
        <time>2019-07-16T13:49:50Z</time>
      </trkpt>
      <trkpt lat="48.46053" lon="-1.48593">
        <ele>43.1</ele>
        <time>2019-07-16T13:49:51Z</time>
      </trkpt>
      <trkpt lat="48.46055" lon="-1.48595">
        <ele>44.7</ele>
        <time>2019-07-16T13:49:52Z</time>
      </trkpt>
      <trkpt lat="48.46055" lon="-1.48597">
        <ele>47.5</ele>
        <time>2019-07-16T13:49:53Z</time>
      </trkpt>
      <trkpt lat="48.46056" lon="-1.48599">
        <ele>48.1</ele>
        <time>2019-07-16T13:49:54Z</time>
      </trkpt>
      <trkpt lat="48.46058" lon="-1.486">
        <ele>48.4</ele>
        <time>2019-07-16T13:49:55Z</time>
      </trkpt>
      <trkpt lat="48.46059" lon="-1.486">
        <ele>49</ele>
        <time>2019-07-16T13:49:56Z</time>
      </trkpt>
      <trkpt lat="48.46061" lon="-1.48602">
        <ele>49.5</ele>
        <time>2019-07-16T13:49:57Z</time>
      </trkpt>
      <trkpt lat="48.46065" lon="-1.48603">
        <ele>48.4</ele>
        <time>2019-07-16T13:49:58Z</time>
      </trkpt>
      <trkpt lat="48.46067" lon="-1.48605">
        <ele>48.9</ele>
        <time>2019-07-16T13:49:59Z</time>
      </trkpt>
      <trkpt lat="48.4607" lon="-1.48606">
        <ele>49.3</ele>
        <time>2019-07-16T13:50:00Z</time>
      </trkpt>
      <trkpt lat="48.46072" lon="-1.48607">
        <ele>49.8</ele>
        <time>2019-07-16T13:50:01Z</time>
      </trkpt>
      <trkpt lat="48.46074" lon="-1.48608">
        <ele>50.2</ele>
        <time>2019-07-16T13:50:02Z</time>
      </trkpt>
      <trkpt lat="48.46076" lon="-1.4861">
        <ele>50.4</ele>
        <time>2019-07-16T13:50:03Z</time>
      </trkpt>
      <trkpt lat="48.46078" lon="-1.48611">
        <ele>50.4</ele>
        <time>2019-07-16T13:50:04Z</time>
      </trkpt>
      <trkpt lat="48.46079" lon="-1.48613">
        <ele>50.7</ele>
        <time>2019-07-16T13:50:05Z</time>
      </trkpt>
      <trkpt lat="48.46081" lon="-1.48616">
        <ele>50.9</ele>
        <time>2019-07-16T13:50:06Z</time>
      </trkpt>
      <trkpt lat="48.46083" lon="-1.48618">
        <ele>50.7</ele>
        <time>2019-07-16T13:50:07Z</time>
      </trkpt>
      <trkpt lat="48.46086" lon="-1.4862">
        <ele>50.1</ele>
        <time>2019-07-16T13:50:08Z</time>
      </trkpt>
      <trkpt lat="48.46088" lon="-1.48623">
        <ele>50</ele>
        <time>2019-07-16T13:50:09Z</time>
      </trkpt>
      <trkpt lat="48.4609" lon="-1.48627">
        <ele>50.4</ele>
        <time>2019-07-16T13:50:10Z</time>
      </trkpt>
      <trkpt lat="48.46093" lon="-1.4863">
        <ele>50.2</ele>
        <time>2019-07-16T13:50:11Z</time>
      </trkpt>
      <trkpt lat="48.46095" lon="-1.48633">
        <ele>49.3</ele>
        <time>2019-07-16T13:50:12Z</time>
      </trkpt>
      <trkpt lat="48.46098" lon="-1.48635">
        <ele>48.4</ele>
        <time>2019-07-16T13:50:13Z</time>
      </trkpt>
      <trkpt lat="48.46101" lon="-1.48638">
        <ele>48.5</ele>
        <time>2019-07-16T13:50:14Z</time>
      </trkpt>
      <trkpt lat="48.46103" lon="-1.4864">
        <ele>48.7</ele>
        <time>2019-07-16T13:50:15Z</time>
      </trkpt>
      <trkpt lat="48.46105" lon="-1.48642">
        <ele>49.1</ele>
        <time>2019-07-16T13:50:16Z</time>
      </trkpt>
      <trkpt lat="48.46108" lon="-1.48644">
        <ele>49.6</ele>
        <time>2019-07-16T13:50:17Z</time>
      </trkpt>
      <trkpt lat="48.46111" lon="-1.48646">
        <ele>49.5</ele>
        <time>2019-07-16T13:50:18Z</time>
      </trkpt>
      <trkpt lat="48.46113" lon="-1.48648">
        <ele>49.4</ele>
        <time>2019-07-16T13:50:19Z</time>
      </trkpt>
      <trkpt lat="48.46116" lon="-1.48649">
        <ele>49.4</ele>
        <time>2019-07-16T13:50:20Z</time>
      </trkpt>
      <trkpt lat="48.46118" lon="-1.48649">
        <ele>49.6</ele>
        <time>2019-07-16T13:50:21Z</time>
      </trkpt>
      <trkpt lat="48.46121" lon="-1.48649">
        <ele>49.6</ele>
        <time>2019-07-16T13:50:22Z</time>
      </trkpt>
      <trkpt lat="48.46123" lon="-1.48649">
        <ele>49.4</ele>
        <time>2019-07-16T13:50:23Z</time>
      </trkpt>
      <trkpt lat="48.46125" lon="-1.48649">
        <ele>49.2</ele>
        <time>2019-07-16T13:50:24Z</time>
      </trkpt>
      <trkpt lat="48.46128" lon="-1.4865">
        <ele>49</ele>
        <time>2019-07-16T13:50:25Z</time>
      </trkpt>
      <trkpt lat="48.4613" lon="-1.4865">
        <ele>48.8</ele>
        <time>2019-07-16T13:50:26Z</time>
      </trkpt>
      <trkpt lat="48.46133" lon="-1.4865">
        <ele>48.5</ele>
        <time>2019-07-16T13:50:27Z</time>
      </trkpt>
      <trkpt lat="48.46135" lon="-1.48651">
        <ele>48</ele>
        <time>2019-07-16T13:50:28Z</time>
      </trkpt>
      <trkpt lat="48.4614" lon="-1.48655">
        <ele>44.4</ele>
        <time>2019-07-16T13:50:55Z</time>
      </trkpt>
      <trkpt lat="48.46142" lon="-1.48657">
        <ele>44.3</ele>
        <time>2019-07-16T13:50:56Z</time>
      </trkpt>
      <trkpt lat="48.46144" lon="-1.48659">
        <ele>44.1</ele>
        <time>2019-07-16T13:50:57Z</time>
      </trkpt>
      <trkpt lat="48.46146" lon="-1.4866">
        <ele>43.8</ele>
        <time>2019-07-16T13:50:58Z</time>
      </trkpt>
      <trkpt lat="48.46149" lon="-1.48661">
        <ele>43.5</ele>
        <time>2019-07-16T13:50:59Z</time>
      </trkpt>
      <trkpt lat="48.46151" lon="-1.4866">
        <ele>43.3</ele>
        <time>2019-07-16T13:51:00Z</time>
      </trkpt>
      <trkpt lat="48.46154" lon="-1.48659">
        <ele>43.5</ele>
        <time>2019-07-16T13:51:01Z</time>
      </trkpt>
      <trkpt lat="48.46156" lon="-1.48657">
        <ele>43.9</ele>
        <time>2019-07-16T13:51:02Z</time>
      </trkpt>
      <trkpt lat="48.46159" lon="-1.48655">
        <ele>44</ele>
        <time>2019-07-16T13:51:03Z</time>
      </trkpt>
      <trkpt lat="48.46162" lon="-1.48652">
        <ele>44</ele>
        <time>2019-07-16T13:51:04Z</time>
      </trkpt>
      <trkpt lat="48.46164" lon="-1.48649">
        <ele>44.1</ele>
        <time>2019-07-16T13:51:05Z</time>
      </trkpt>
      <trkpt lat="48.46167" lon="-1.48644">
        <ele>44.3</ele>
        <time>2019-07-16T13:51:06Z</time>
      </trkpt>
      <trkpt lat="48.4617" lon="-1.48639">
        <ele>44.3</ele>
        <time>2019-07-16T13:51:07Z</time>
      </trkpt>
      <trkpt lat="48.46172" lon="-1.48634">
        <ele>44.3</ele>
        <time>2019-07-16T13:51:08Z</time>
      </trkpt>
      <trkpt lat="48.46175" lon="-1.48629">
        <ele>44.4</ele>
        <time>2019-07-16T13:51:09Z</time>
      </trkpt>
      <trkpt lat="48.46178" lon="-1.48624">
        <ele>44.5</ele>
        <time>2019-07-16T13:51:10Z</time>
      </trkpt>
      <trkpt lat="48.4618" lon="-1.48619">
        <ele>44.5</ele>
        <time>2019-07-16T13:51:11Z</time>
      </trkpt>
      <trkpt lat="48.46183" lon="-1.48614">
        <ele>44.3</ele>
        <time>2019-07-16T13:51:12Z</time>
      </trkpt>
      <trkpt lat="48.46186" lon="-1.4861">
        <ele>44.2</ele>
        <time>2019-07-16T13:51:13Z</time>
      </trkpt>
      <trkpt lat="48.4619" lon="-1.48605">
        <ele>44.1</ele>
        <time>2019-07-16T13:51:14Z</time>
      </trkpt>
      <trkpt lat="48.46192" lon="-1.486">
        <ele>44.1</ele>
        <time>2019-07-16T13:51:15Z</time>
      </trkpt>
      <trkpt lat="48.46195" lon="-1.48596">
        <ele>44</ele>
        <time>2019-07-16T13:51:16Z</time>
      </trkpt>
      <trkpt lat="48.46195" lon="-1.48593">
        <ele>44.2</ele>
        <time>2019-07-16T13:51:17Z</time>
      </trkpt>
      <trkpt lat="48.46196" lon="-1.48591">
        <ele>43.8</ele>
        <time>2019-07-16T13:51:18Z</time>
      </trkpt>
      <trkpt lat="48.46192" lon="-1.48579">
        <ele>43.9</ele>
        <time>2019-07-16T13:51:30Z</time>
      </trkpt>
      <trkpt lat="48.4619" lon="-1.48577">
        <ele>44.2</ele>
        <time>2019-07-16T13:51:31Z</time>
      </trkpt>
      <trkpt lat="48.46187" lon="-1.48576">
        <ele>44.2</ele>
        <time>2019-07-16T13:51:32Z</time>
      </trkpt>
      <trkpt lat="48.46185" lon="-1.48574">
        <ele>44.6</ele>
        <time>2019-07-16T13:51:33Z</time>
      </trkpt>
      <trkpt lat="48.46183" lon="-1.48573">
        <ele>45.1</ele>
        <time>2019-07-16T13:51:34Z</time>
      </trkpt>
      <trkpt lat="48.46181" lon="-1.48571">
        <ele>45.5</ele>
        <time>2019-07-16T13:51:35Z</time>
      </trkpt>
      <trkpt lat="48.46177" lon="-1.48567">
        <ele>43.6</ele>
        <time>2019-07-16T13:51:36Z</time>
      </trkpt>
      <trkpt lat="48.46172" lon="-1.48565">
        <ele>44</ele>
        <time>2019-07-16T13:51:37Z</time>
      </trkpt>
      <trkpt lat="48.46171" lon="-1.4856">
        <ele>44</ele>
        <time>2019-07-16T13:51:38Z</time>
      </trkpt>
      <trkpt lat="48.4617" lon="-1.48555">
        <ele>43.4</ele>
        <time>2019-07-16T13:51:39Z</time>
      </trkpt>
      <trkpt lat="48.46171" lon="-1.48551">
        <ele>42.8</ele>
        <time>2019-07-16T13:51:40Z</time>
      </trkpt>
      <trkpt lat="48.4617" lon="-1.48547">
        <ele>42.1</ele>
        <time>2019-07-16T13:51:41Z</time>
      </trkpt>
      <trkpt lat="48.46169" lon="-1.48543">
        <ele>41.6</ele>
        <time>2019-07-16T13:51:42Z</time>
      </trkpt>
      <trkpt lat="48.46166" lon="-1.4854">
        <ele>41.2</ele>
        <time>2019-07-16T13:51:43Z</time>
      </trkpt>
      <trkpt lat="48.46164" lon="-1.48537">
        <ele>40.5</ele>
        <time>2019-07-16T13:51:44Z</time>
      </trkpt>
      <trkpt lat="48.46162" lon="-1.48535">
        <ele>40.4</ele>
        <time>2019-07-16T13:51:45Z</time>
      </trkpt>
      <trkpt lat="48.4616" lon="-1.48532">
        <ele>40.2</ele>
        <time>2019-07-16T13:51:46Z</time>
      </trkpt>
      <trkpt lat="48.46159" lon="-1.4853">
        <ele>40.1</ele>
        <time>2019-07-16T13:51:47Z</time>
      </trkpt>
      <trkpt lat="48.46159" lon="-1.48527">
        <ele>40.3</ele>
        <time>2019-07-16T13:51:48Z</time>
      </trkpt>
      <trkpt lat="48.4616" lon="-1.48524">
        <ele>40.5</ele>
        <time>2019-07-16T13:51:49Z</time>
      </trkpt>
      <trkpt lat="48.46161" lon="-1.48521">
        <ele>40.6</ele>
        <time>2019-07-16T13:51:50Z</time>
      </trkpt>
      <trkpt lat="48.46163" lon="-1.48519">
        <ele>41.1</ele>
        <time>2019-07-16T13:51:51Z</time>
      </trkpt>
      <trkpt lat="48.46164" lon="-1.48516">
        <ele>41.4</ele>
        <time>2019-07-16T13:51:52Z</time>
      </trkpt>
      <trkpt lat="48.46166" lon="-1.48513">
        <ele>41.4</ele>
        <time>2019-07-16T13:51:53Z</time>
      </trkpt>
      <trkpt lat="48.46166" lon="-1.4851">
        <ele>40.9</ele>
        <time>2019-07-16T13:51:54Z</time>
      </trkpt>
      <trkpt lat="48.46166" lon="-1.48507">
        <ele>40.9</ele>
        <time>2019-07-16T13:51:55Z</time>
      </trkpt>
      <trkpt lat="48.46167" lon="-1.48504">
        <ele>40.6</ele>
        <time>2019-07-16T13:51:56Z</time>
      </trkpt>
      <trkpt lat="48.46169" lon="-1.48502">
        <ele>40.7</ele>
        <time>2019-07-16T13:51:57Z</time>
      </trkpt>
      <trkpt lat="48.46171" lon="-1.485">
        <ele>39.8</ele>
        <time>2019-07-16T13:51:58Z</time>
      </trkpt>
      <trkpt lat="48.46173" lon="-1.485">
        <ele>39.8</ele>
        <time>2019-07-16T13:51:59Z</time>
      </trkpt>
      <trkpt lat="48.46175" lon="-1.485">
        <ele>39</ele>
        <time>2019-07-16T13:52:00Z</time>
      </trkpt>
      <trkpt lat="48.46177" lon="-1.48501">
        <ele>39</ele>
        <time>2019-07-16T13:52:01Z</time>
      </trkpt>
      <trkpt lat="48.46179" lon="-1.48503">
        <ele>39.4</ele>
        <time>2019-07-16T13:52:02Z</time>
      </trkpt>
      <trkpt lat="48.4618" lon="-1.48504">
        <ele>39.5</ele>
        <time>2019-07-16T13:52:03Z</time>
      </trkpt>
      <trkpt lat="48.46182" lon="-1.48505">
        <ele>38.9</ele>
        <time>2019-07-16T13:52:04Z</time>
      </trkpt>
    </trkseg>
  </trk>
</gpx>